<?xml version="1.0" encoding="UTF-8" standalone="no" ?>
<gpx xmlns="http://www.topografix.com/GPX/1/1" xmlns:xsi="http://www.w3.org/2001/XMLSchema-instance" xsi:schemaLocation="http://www.topografix.com/GPX/1/1 http://www.topografix.com/GPX/1/1/gpx.xsd" version="1.1" creator="VisuGPX - https://www.visugpx.com">
  <metadata>
    <name>En duo avec Daniel au tempo gentlemen cyclotourisme ! </name>
  </metadata>
  <trk>
    <name><![CDATA[En duo avec Daniel au tempo gentlemen cyclotourisme ! _1]]></name>
    <trkseg>
      <trkpt lat="50.02294" lon="4.32135">
        <ele>267.8</ele>
        <time>2024-03-17T08:04:12Z</time>
      </trkpt>
      <trkpt lat="50.02293" lon="4.32135">
        <ele>258</ele>
        <time>2024-03-17T08:04:13Z</time>
      </trkpt>
      <trkpt lat="50.02292" lon="4.32135">
        <ele>258.8</ele>
        <time>2024-03-17T08:04:14Z</time>
      </trkpt>
      <trkpt lat="50.02291" lon="4.32136">
        <ele>258.8</ele>
        <time>2024-03-17T08:04:15Z</time>
      </trkpt>
      <trkpt lat="50.0229" lon="4.32135">
        <ele>258.6</ele>
        <time>2024-03-17T08:04:16Z</time>
      </trkpt>
      <trkpt lat="50.0229" lon="4.32135">
        <ele>258.8</ele>
        <time>2024-03-17T08:04:17Z</time>
      </trkpt>
      <trkpt lat="50.0229" lon="4.32133">
        <ele>259.2</ele>
        <time>2024-03-17T08:04:18Z</time>
      </trkpt>
      <trkpt lat="50.02285" lon="4.32129">
        <ele>259.2</ele>
        <time>2024-03-17T08:04:19Z</time>
      </trkpt>
      <trkpt lat="50.02283" lon="4.32126">
        <ele>259.6</ele>
        <time>2024-03-17T08:04:20Z</time>
      </trkpt>
      <trkpt lat="50.02281" lon="4.32124">
        <ele>260</ele>
        <time>2024-03-17T08:04:21Z</time>
      </trkpt>
      <trkpt lat="50.02281" lon="4.32122">
        <ele>260.2</ele>
        <time>2024-03-17T08:04:22Z</time>
      </trkpt>
      <trkpt lat="50.0228" lon="4.32119">
        <ele>260.8</ele>
        <time>2024-03-17T08:04:23Z</time>
      </trkpt>
      <trkpt lat="50.0228" lon="4.32116">
        <ele>261.2</ele>
        <time>2024-03-17T08:04:24Z</time>
      </trkpt>
      <trkpt lat="50.02279" lon="4.32113">
        <ele>261.4</ele>
        <time>2024-03-17T08:04:25Z</time>
      </trkpt>
      <trkpt lat="50.0228" lon="4.32104">
        <ele>262</ele>
        <time>2024-03-17T08:04:26Z</time>
      </trkpt>
      <trkpt lat="50.0228" lon="4.321">
        <ele>262.2</ele>
        <time>2024-03-17T08:04:27Z</time>
      </trkpt>
      <trkpt lat="50.0228" lon="4.32097">
        <ele>262.8</ele>
        <time>2024-03-17T08:04:28Z</time>
      </trkpt>
      <trkpt lat="50.0228" lon="4.32093">
        <ele>263</ele>
        <time>2024-03-17T08:04:29Z</time>
      </trkpt>
      <trkpt lat="50.0228" lon="4.32089">
        <ele>263.4</ele>
        <time>2024-03-17T08:04:30Z</time>
      </trkpt>
      <trkpt lat="50.0228" lon="4.32085">
        <ele>263.4</ele>
        <time>2024-03-17T08:04:31Z</time>
      </trkpt>
      <trkpt lat="50.02279" lon="4.32082">
        <ele>262</ele>
        <time>2024-03-17T08:04:32Z</time>
      </trkpt>
      <trkpt lat="50.02278" lon="4.32078">
        <ele>261.6</ele>
        <time>2024-03-17T08:04:33Z</time>
      </trkpt>
      <trkpt lat="50.02277" lon="4.32074">
        <ele>261.6</ele>
        <time>2024-03-17T08:04:34Z</time>
      </trkpt>
      <trkpt lat="50.02275" lon="4.3207">
        <ele>261.8</ele>
        <time>2024-03-17T08:04:35Z</time>
      </trkpt>
      <trkpt lat="50.02274" lon="4.32067">
        <ele>262.2</ele>
        <time>2024-03-17T08:04:36Z</time>
      </trkpt>
      <trkpt lat="50.02273" lon="4.32064">
        <ele>262.4</ele>
        <time>2024-03-17T08:04:37Z</time>
      </trkpt>
      <trkpt lat="50.02271" lon="4.3206">
        <ele>262.8</ele>
        <time>2024-03-17T08:04:38Z</time>
      </trkpt>
      <trkpt lat="50.0227" lon="4.32057">
        <ele>263</ele>
        <time>2024-03-17T08:04:39Z</time>
      </trkpt>
      <trkpt lat="50.02268" lon="4.32055">
        <ele>263.4</ele>
        <time>2024-03-17T08:04:40Z</time>
      </trkpt>
      <trkpt lat="50.02267" lon="4.32052">
        <ele>263.8</ele>
        <time>2024-03-17T08:04:41Z</time>
      </trkpt>
      <trkpt lat="50.02265" lon="4.32049">
        <ele>264.2</ele>
        <time>2024-03-17T08:04:42Z</time>
      </trkpt>
      <trkpt lat="50.02264" lon="4.32047">
        <ele>264.6</ele>
        <time>2024-03-17T08:04:43Z</time>
      </trkpt>
      <trkpt lat="50.02259" lon="4.32044">
        <ele>265</ele>
        <time>2024-03-17T08:04:44Z</time>
      </trkpt>
      <trkpt lat="50.02256" lon="4.32042">
        <ele>265.2</ele>
        <time>2024-03-17T08:04:45Z</time>
      </trkpt>
      <trkpt lat="50.02254" lon="4.32039">
        <ele>265.4</ele>
        <time>2024-03-17T08:04:46Z</time>
      </trkpt>
      <trkpt lat="50.02252" lon="4.32036">
        <ele>265.8</ele>
        <time>2024-03-17T08:04:47Z</time>
      </trkpt>
      <trkpt lat="50.0225" lon="4.32032">
        <ele>265.8</ele>
        <time>2024-03-17T08:04:48Z</time>
      </trkpt>
      <trkpt lat="50.02248" lon="4.32029">
        <ele>266</ele>
        <time>2024-03-17T08:04:49Z</time>
      </trkpt>
      <trkpt lat="50.02248" lon="4.32025">
        <ele>266.2</ele>
        <time>2024-03-17T08:04:50Z</time>
      </trkpt>
      <trkpt lat="50.02247" lon="4.32021">
        <ele>266.4</ele>
        <time>2024-03-17T08:04:51Z</time>
      </trkpt>
      <trkpt lat="50.02247" lon="4.32016">
        <ele>266.8</ele>
        <time>2024-03-17T08:04:52Z</time>
      </trkpt>
      <trkpt lat="50.02247" lon="4.32012">
        <ele>267.4</ele>
        <time>2024-03-17T08:04:53Z</time>
      </trkpt>
      <trkpt lat="50.02247" lon="4.32007">
        <ele>267.6</ele>
        <time>2024-03-17T08:04:54Z</time>
      </trkpt>
      <trkpt lat="50.02248" lon="4.32002">
        <ele>267.8</ele>
        <time>2024-03-17T08:04:55Z</time>
      </trkpt>
      <trkpt lat="50.02249" lon="4.31997">
        <ele>268</ele>
        <time>2024-03-17T08:04:56Z</time>
      </trkpt>
      <trkpt lat="50.02251" lon="4.31991">
        <ele>268</ele>
        <time>2024-03-17T08:04:57Z</time>
      </trkpt>
      <trkpt lat="50.02255" lon="4.31983">
        <ele>268</ele>
        <time>2024-03-17T08:04:58Z</time>
      </trkpt>
      <trkpt lat="50.02259" lon="4.31974">
        <ele>268</ele>
        <time>2024-03-17T08:04:59Z</time>
      </trkpt>
      <trkpt lat="50.02263" lon="4.31965">
        <ele>268</ele>
        <time>2024-03-17T08:05:00Z</time>
      </trkpt>
      <trkpt lat="50.02267" lon="4.31956">
        <ele>268</ele>
        <time>2024-03-17T08:05:01Z</time>
      </trkpt>
      <trkpt lat="50.02272" lon="4.31947">
        <ele>268</ele>
        <time>2024-03-17T08:05:02Z</time>
      </trkpt>
      <trkpt lat="50.02276" lon="4.31939">
        <ele>268</ele>
        <time>2024-03-17T08:05:03Z</time>
      </trkpt>
      <trkpt lat="50.02279" lon="4.31931">
        <ele>268</ele>
        <time>2024-03-17T08:05:04Z</time>
      </trkpt>
      <trkpt lat="50.02283" lon="4.31923">
        <ele>268</ele>
        <time>2024-03-17T08:05:05Z</time>
      </trkpt>
      <trkpt lat="50.02285" lon="4.31916">
        <ele>268</ele>
        <time>2024-03-17T08:05:06Z</time>
      </trkpt>
      <trkpt lat="50.02288" lon="4.3191">
        <ele>267.8</ele>
        <time>2024-03-17T08:05:07Z</time>
      </trkpt>
      <trkpt lat="50.0229" lon="4.31904">
        <ele>268</ele>
        <time>2024-03-17T08:05:08Z</time>
      </trkpt>
      <trkpt lat="50.02293" lon="4.31898">
        <ele>267.8</ele>
        <time>2024-03-17T08:05:09Z</time>
      </trkpt>
      <trkpt lat="50.02295" lon="4.31893">
        <ele>267.6</ele>
        <time>2024-03-17T08:05:10Z</time>
      </trkpt>
      <trkpt lat="50.02297" lon="4.31888">
        <ele>267.8</ele>
        <time>2024-03-17T08:05:11Z</time>
      </trkpt>
      <trkpt lat="50.02298" lon="4.31882">
        <ele>267.8</ele>
        <time>2024-03-17T08:05:12Z</time>
      </trkpt>
      <trkpt lat="50.023" lon="4.31878">
        <ele>267.8</ele>
        <time>2024-03-17T08:05:13Z</time>
      </trkpt>
      <trkpt lat="50.02303" lon="4.31873">
        <ele>267.8</ele>
        <time>2024-03-17T08:05:14Z</time>
      </trkpt>
      <trkpt lat="50.02305" lon="4.31868">
        <ele>267.8</ele>
        <time>2024-03-17T08:05:15Z</time>
      </trkpt>
      <trkpt lat="50.02306" lon="4.31864">
        <ele>267.8</ele>
        <time>2024-03-17T08:05:16Z</time>
      </trkpt>
      <trkpt lat="50.02308" lon="4.3186">
        <ele>267.8</ele>
        <time>2024-03-17T08:05:17Z</time>
      </trkpt>
      <trkpt lat="50.0231" lon="4.31855">
        <ele>268</ele>
        <time>2024-03-17T08:05:18Z</time>
      </trkpt>
      <trkpt lat="50.0231" lon="4.3185">
        <ele>268.2</ele>
        <time>2024-03-17T08:05:19Z</time>
      </trkpt>
      <trkpt lat="50.0231" lon="4.31846">
        <ele>268.4</ele>
        <time>2024-03-17T08:05:20Z</time>
      </trkpt>
      <trkpt lat="50.0231" lon="4.31841">
        <ele>268.6</ele>
        <time>2024-03-17T08:05:21Z</time>
      </trkpt>
      <trkpt lat="50.02306" lon="4.31837">
        <ele>269</ele>
        <time>2024-03-17T08:05:22Z</time>
      </trkpt>
      <trkpt lat="50.02304" lon="4.31833">
        <ele>269.2</ele>
        <time>2024-03-17T08:05:23Z</time>
      </trkpt>
      <trkpt lat="50.02303" lon="4.31829">
        <ele>269.8</ele>
        <time>2024-03-17T08:05:24Z</time>
      </trkpt>
      <trkpt lat="50.02302" lon="4.31825">
        <ele>269.8</ele>
        <time>2024-03-17T08:05:25Z</time>
      </trkpt>
      <trkpt lat="50.02301" lon="4.31821">
        <ele>269.8</ele>
        <time>2024-03-17T08:05:26Z</time>
      </trkpt>
      <trkpt lat="50.02299" lon="4.31817">
        <ele>270.2</ele>
        <time>2024-03-17T08:05:27Z</time>
      </trkpt>
      <trkpt lat="50.02296" lon="4.31813">
        <ele>270.4</ele>
        <time>2024-03-17T08:05:28Z</time>
      </trkpt>
      <trkpt lat="50.02295" lon="4.31809">
        <ele>270.6</ele>
        <time>2024-03-17T08:05:29Z</time>
      </trkpt>
      <trkpt lat="50.02293" lon="4.31805">
        <ele>270.6</ele>
        <time>2024-03-17T08:05:30Z</time>
      </trkpt>
      <trkpt lat="50.02292" lon="4.31801">
        <ele>270.8</ele>
        <time>2024-03-17T08:05:31Z</time>
      </trkpt>
      <trkpt lat="50.0229" lon="4.31798">
        <ele>271</ele>
        <time>2024-03-17T08:05:32Z</time>
      </trkpt>
      <trkpt lat="50.02286" lon="4.31794">
        <ele>271.2</ele>
        <time>2024-03-17T08:05:33Z</time>
      </trkpt>
      <trkpt lat="50.02283" lon="4.3179">
        <ele>271.8</ele>
        <time>2024-03-17T08:05:34Z</time>
      </trkpt>
      <trkpt lat="50.0228" lon="4.31786">
        <ele>272.4</ele>
        <time>2024-03-17T08:05:35Z</time>
      </trkpt>
      <trkpt lat="50.02277" lon="4.31782">
        <ele>272.6</ele>
        <time>2024-03-17T08:05:36Z</time>
      </trkpt>
      <trkpt lat="50.02275" lon="4.31778">
        <ele>273</ele>
        <time>2024-03-17T08:05:37Z</time>
      </trkpt>
      <trkpt lat="50.02272" lon="4.31774">
        <ele>273</ele>
        <time>2024-03-17T08:05:38Z</time>
      </trkpt>
      <trkpt lat="50.0227" lon="4.3177">
        <ele>273.2</ele>
        <time>2024-03-17T08:05:39Z</time>
      </trkpt>
      <trkpt lat="50.02267" lon="4.31766">
        <ele>273.4</ele>
        <time>2024-03-17T08:05:40Z</time>
      </trkpt>
      <trkpt lat="50.02265" lon="4.31763">
        <ele>273.2</ele>
        <time>2024-03-17T08:05:41Z</time>
      </trkpt>
      <trkpt lat="50.02263" lon="4.31759">
        <ele>273.4</ele>
        <time>2024-03-17T08:05:42Z</time>
      </trkpt>
      <trkpt lat="50.02261" lon="4.31755">
        <ele>273.8</ele>
        <time>2024-03-17T08:05:43Z</time>
      </trkpt>
      <trkpt lat="50.02258" lon="4.31751">
        <ele>273.8</ele>
        <time>2024-03-17T08:05:44Z</time>
      </trkpt>
      <trkpt lat="50.02256" lon="4.31747">
        <ele>274</ele>
        <time>2024-03-17T08:05:45Z</time>
      </trkpt>
      <trkpt lat="50.02255" lon="4.31744">
        <ele>274.4</ele>
        <time>2024-03-17T08:05:46Z</time>
      </trkpt>
      <trkpt lat="50.02253" lon="4.3174">
        <ele>274.6</ele>
        <time>2024-03-17T08:05:47Z</time>
      </trkpt>
      <trkpt lat="50.02251" lon="4.31736">
        <ele>274.6</ele>
        <time>2024-03-17T08:05:48Z</time>
      </trkpt>
      <trkpt lat="50.02249" lon="4.31732">
        <ele>274.8</ele>
        <time>2024-03-17T08:05:49Z</time>
      </trkpt>
      <trkpt lat="50.02247" lon="4.31728">
        <ele>275</ele>
        <time>2024-03-17T08:05:50Z</time>
      </trkpt>
      <trkpt lat="50.02245" lon="4.31724">
        <ele>275</ele>
        <time>2024-03-17T08:05:51Z</time>
      </trkpt>
      <trkpt lat="50.02244" lon="4.3172">
        <ele>275.4</ele>
        <time>2024-03-17T08:05:52Z</time>
      </trkpt>
      <trkpt lat="50.02242" lon="4.31716">
        <ele>275.4</ele>
        <time>2024-03-17T08:05:53Z</time>
      </trkpt>
      <trkpt lat="50.0224" lon="4.31712">
        <ele>275.8</ele>
        <time>2024-03-17T08:05:54Z</time>
      </trkpt>
      <trkpt lat="50.02238" lon="4.31707">
        <ele>276</ele>
        <time>2024-03-17T08:05:55Z</time>
      </trkpt>
      <trkpt lat="50.02236" lon="4.31704">
        <ele>276</ele>
        <time>2024-03-17T08:05:56Z</time>
      </trkpt>
      <trkpt lat="50.02234" lon="4.317">
        <ele>276.4</ele>
        <time>2024-03-17T08:05:57Z</time>
      </trkpt>
      <trkpt lat="50.02233" lon="4.31696">
        <ele>276.8</ele>
        <time>2024-03-17T08:05:58Z</time>
      </trkpt>
      <trkpt lat="50.02231" lon="4.31691">
        <ele>277</ele>
        <time>2024-03-17T08:05:59Z</time>
      </trkpt>
      <trkpt lat="50.02229" lon="4.31687">
        <ele>277.4</ele>
        <time>2024-03-17T08:06:00Z</time>
      </trkpt>
      <trkpt lat="50.02228" lon="4.31683">
        <ele>277.6</ele>
        <time>2024-03-17T08:06:01Z</time>
      </trkpt>
      <trkpt lat="50.02226" lon="4.31679">
        <ele>277.6</ele>
        <time>2024-03-17T08:06:02Z</time>
      </trkpt>
      <trkpt lat="50.02224" lon="4.31676">
        <ele>277.6</ele>
        <time>2024-03-17T08:06:03Z</time>
      </trkpt>
      <trkpt lat="50.02223" lon="4.31672">
        <ele>278</ele>
        <time>2024-03-17T08:06:04Z</time>
      </trkpt>
      <trkpt lat="50.02221" lon="4.31668">
        <ele>278.2</ele>
        <time>2024-03-17T08:06:05Z</time>
      </trkpt>
      <trkpt lat="50.02219" lon="4.31664">
        <ele>278.4</ele>
        <time>2024-03-17T08:06:06Z</time>
      </trkpt>
      <trkpt lat="50.02217" lon="4.3166">
        <ele>278.6</ele>
        <time>2024-03-17T08:06:07Z</time>
      </trkpt>
      <trkpt lat="50.02215" lon="4.31656">
        <ele>278.8</ele>
        <time>2024-03-17T08:06:08Z</time>
      </trkpt>
      <trkpt lat="50.02213" lon="4.31652">
        <ele>279</ele>
        <time>2024-03-17T08:06:09Z</time>
      </trkpt>
      <trkpt lat="50.02211" lon="4.31649">
        <ele>279</ele>
        <time>2024-03-17T08:06:10Z</time>
      </trkpt>
      <trkpt lat="50.02209" lon="4.31645">
        <ele>279.2</ele>
        <time>2024-03-17T08:06:11Z</time>
      </trkpt>
      <trkpt lat="50.02207" lon="4.31641">
        <ele>279.2</ele>
        <time>2024-03-17T08:06:12Z</time>
      </trkpt>
      <trkpt lat="50.02205" lon="4.31637">
        <ele>279.4</ele>
        <time>2024-03-17T08:06:13Z</time>
      </trkpt>
      <trkpt lat="50.02202" lon="4.31633">
        <ele>279.4</ele>
        <time>2024-03-17T08:06:14Z</time>
      </trkpt>
      <trkpt lat="50.02199" lon="4.3163">
        <ele>279.4</ele>
        <time>2024-03-17T08:06:15Z</time>
      </trkpt>
      <trkpt lat="50.02197" lon="4.31627">
        <ele>279.6</ele>
        <time>2024-03-17T08:06:16Z</time>
      </trkpt>
      <trkpt lat="50.02194" lon="4.31623">
        <ele>279.8</ele>
        <time>2024-03-17T08:06:17Z</time>
      </trkpt>
      <trkpt lat="50.02191" lon="4.3162">
        <ele>279.8</ele>
        <time>2024-03-17T08:06:18Z</time>
      </trkpt>
      <trkpt lat="50.02188" lon="4.31617">
        <ele>280</ele>
        <time>2024-03-17T08:06:19Z</time>
      </trkpt>
      <trkpt lat="50.02185" lon="4.31615">
        <ele>280.4</ele>
        <time>2024-03-17T08:06:20Z</time>
      </trkpt>
      <trkpt lat="50.02182" lon="4.31612">
        <ele>280.8</ele>
        <time>2024-03-17T08:06:21Z</time>
      </trkpt>
      <trkpt lat="50.02179" lon="4.3161">
        <ele>281</ele>
        <time>2024-03-17T08:06:22Z</time>
      </trkpt>
      <trkpt lat="50.02176" lon="4.31607">
        <ele>281.2</ele>
        <time>2024-03-17T08:06:23Z</time>
      </trkpt>
      <trkpt lat="50.02173" lon="4.31605">
        <ele>281.4</ele>
        <time>2024-03-17T08:06:24Z</time>
      </trkpt>
      <trkpt lat="50.02169" lon="4.31603">
        <ele>281.4</ele>
        <time>2024-03-17T08:06:25Z</time>
      </trkpt>
      <trkpt lat="50.02166" lon="4.31602">
        <ele>281.6</ele>
        <time>2024-03-17T08:06:26Z</time>
      </trkpt>
      <trkpt lat="50.02163" lon="4.316">
        <ele>281.8</ele>
        <time>2024-03-17T08:06:27Z</time>
      </trkpt>
      <trkpt lat="50.0216" lon="4.31598">
        <ele>281.8</ele>
        <time>2024-03-17T08:06:28Z</time>
      </trkpt>
      <trkpt lat="50.02157" lon="4.31596">
        <ele>281.8</ele>
        <time>2024-03-17T08:06:29Z</time>
      </trkpt>
      <trkpt lat="50.02154" lon="4.31594">
        <ele>282</ele>
        <time>2024-03-17T08:06:30Z</time>
      </trkpt>
      <trkpt lat="50.02151" lon="4.31592">
        <ele>282</ele>
        <time>2024-03-17T08:06:31Z</time>
      </trkpt>
      <trkpt lat="50.02148" lon="4.31591">
        <ele>282.2</ele>
        <time>2024-03-17T08:06:32Z</time>
      </trkpt>
      <trkpt lat="50.02144" lon="4.31589">
        <ele>282.2</ele>
        <time>2024-03-17T08:06:33Z</time>
      </trkpt>
      <trkpt lat="50.02141" lon="4.31588">
        <ele>282.2</ele>
        <time>2024-03-17T08:06:34Z</time>
      </trkpt>
      <trkpt lat="50.02138" lon="4.31586">
        <ele>282.2</ele>
        <time>2024-03-17T08:06:35Z</time>
      </trkpt>
      <trkpt lat="50.02134" lon="4.31585">
        <ele>282.2</ele>
        <time>2024-03-17T08:06:36Z</time>
      </trkpt>
      <trkpt lat="50.02131" lon="4.31583">
        <ele>282.2</ele>
        <time>2024-03-17T08:06:37Z</time>
      </trkpt>
      <trkpt lat="50.02127" lon="4.31581">
        <ele>282.4</ele>
        <time>2024-03-17T08:06:38Z</time>
      </trkpt>
      <trkpt lat="50.02124" lon="4.3158">
        <ele>282.6</ele>
        <time>2024-03-17T08:06:39Z</time>
      </trkpt>
      <trkpt lat="50.02121" lon="4.31578">
        <ele>282.8</ele>
        <time>2024-03-17T08:06:40Z</time>
      </trkpt>
      <trkpt lat="50.02117" lon="4.31577">
        <ele>283</ele>
        <time>2024-03-17T08:06:41Z</time>
      </trkpt>
      <trkpt lat="50.02114" lon="4.31575">
        <ele>283.2</ele>
        <time>2024-03-17T08:06:42Z</time>
      </trkpt>
      <trkpt lat="50.02111" lon="4.31572">
        <ele>283.2</ele>
        <time>2024-03-17T08:06:43Z</time>
      </trkpt>
      <trkpt lat="50.02108" lon="4.3157">
        <ele>283.2</ele>
        <time>2024-03-17T08:06:44Z</time>
      </trkpt>
      <trkpt lat="50.02105" lon="4.31568">
        <ele>283.4</ele>
        <time>2024-03-17T08:06:45Z</time>
      </trkpt>
      <trkpt lat="50.02102" lon="4.31566">
        <ele>283.6</ele>
        <time>2024-03-17T08:06:46Z</time>
      </trkpt>
      <trkpt lat="50.02098" lon="4.31563">
        <ele>284</ele>
        <time>2024-03-17T08:06:47Z</time>
      </trkpt>
      <trkpt lat="50.02095" lon="4.31562">
        <ele>284</ele>
        <time>2024-03-17T08:06:48Z</time>
      </trkpt>
      <trkpt lat="50.02092" lon="4.3156">
        <ele>284</ele>
        <time>2024-03-17T08:06:49Z</time>
      </trkpt>
      <trkpt lat="50.02089" lon="4.31558">
        <ele>284</ele>
        <time>2024-03-17T08:06:50Z</time>
      </trkpt>
      <trkpt lat="50.02086" lon="4.31557">
        <ele>284.2</ele>
        <time>2024-03-17T08:06:51Z</time>
      </trkpt>
      <trkpt lat="50.02082" lon="4.31556">
        <ele>284.2</ele>
        <time>2024-03-17T08:06:52Z</time>
      </trkpt>
      <trkpt lat="50.02078" lon="4.31555">
        <ele>284.4</ele>
        <time>2024-03-17T08:06:53Z</time>
      </trkpt>
      <trkpt lat="50.02074" lon="4.31554">
        <ele>284.4</ele>
        <time>2024-03-17T08:06:54Z</time>
      </trkpt>
      <trkpt lat="50.0207" lon="4.31553">
        <ele>284.8</ele>
        <time>2024-03-17T08:06:55Z</time>
      </trkpt>
      <trkpt lat="50.02067" lon="4.31551">
        <ele>284.8</ele>
        <time>2024-03-17T08:06:56Z</time>
      </trkpt>
      <trkpt lat="50.02063" lon="4.3155">
        <ele>284.8</ele>
        <time>2024-03-17T08:06:57Z</time>
      </trkpt>
      <trkpt lat="50.02059" lon="4.31548">
        <ele>284.8</ele>
        <time>2024-03-17T08:06:58Z</time>
      </trkpt>
      <trkpt lat="50.02055" lon="4.31546">
        <ele>285.2</ele>
        <time>2024-03-17T08:06:59Z</time>
      </trkpt>
      <trkpt lat="50.02051" lon="4.31545">
        <ele>285.2</ele>
        <time>2024-03-17T08:07:00Z</time>
      </trkpt>
      <trkpt lat="50.02048" lon="4.31543">
        <ele>285.4</ele>
        <time>2024-03-17T08:07:01Z</time>
      </trkpt>
      <trkpt lat="50.02044" lon="4.31541">
        <ele>285.6</ele>
        <time>2024-03-17T08:07:02Z</time>
      </trkpt>
      <trkpt lat="50.02041" lon="4.3154">
        <ele>285.8</ele>
        <time>2024-03-17T08:07:03Z</time>
      </trkpt>
      <trkpt lat="50.02037" lon="4.31538">
        <ele>285.8</ele>
        <time>2024-03-17T08:07:04Z</time>
      </trkpt>
      <trkpt lat="50.02034" lon="4.31537">
        <ele>285.8</ele>
        <time>2024-03-17T08:07:05Z</time>
      </trkpt>
      <trkpt lat="50.02031" lon="4.31536">
        <ele>286</ele>
        <time>2024-03-17T08:07:06Z</time>
      </trkpt>
      <trkpt lat="50.02027" lon="4.31534">
        <ele>286</ele>
        <time>2024-03-17T08:07:07Z</time>
      </trkpt>
      <trkpt lat="50.02024" lon="4.31533">
        <ele>286.2</ele>
        <time>2024-03-17T08:07:08Z</time>
      </trkpt>
      <trkpt lat="50.02021" lon="4.31532">
        <ele>286.8</ele>
        <time>2024-03-17T08:07:09Z</time>
      </trkpt>
      <trkpt lat="50.02017" lon="4.3153">
        <ele>286.8</ele>
        <time>2024-03-17T08:07:10Z</time>
      </trkpt>
      <trkpt lat="50.02014" lon="4.31529">
        <ele>287.2</ele>
        <time>2024-03-17T08:07:11Z</time>
      </trkpt>
      <trkpt lat="50.02011" lon="4.31527">
        <ele>287.2</ele>
        <time>2024-03-17T08:07:12Z</time>
      </trkpt>
      <trkpt lat="50.02007" lon="4.31526">
        <ele>287.2</ele>
        <time>2024-03-17T08:07:13Z</time>
      </trkpt>
      <trkpt lat="50.02004" lon="4.31525">
        <ele>287.4</ele>
        <time>2024-03-17T08:07:14Z</time>
      </trkpt>
      <trkpt lat="50.02" lon="4.31523">
        <ele>287.4</ele>
        <time>2024-03-17T08:07:15Z</time>
      </trkpt>
      <trkpt lat="50.01997" lon="4.31522">
        <ele>287.4</ele>
        <time>2024-03-17T08:07:16Z</time>
      </trkpt>
      <trkpt lat="50.01993" lon="4.3152">
        <ele>287.4</ele>
        <time>2024-03-17T08:07:17Z</time>
      </trkpt>
      <trkpt lat="50.0199" lon="4.31519">
        <ele>287.4</ele>
        <time>2024-03-17T08:07:18Z</time>
      </trkpt>
      <trkpt lat="50.01986" lon="4.31517">
        <ele>287.6</ele>
        <time>2024-03-17T08:07:19Z</time>
      </trkpt>
      <trkpt lat="50.01983" lon="4.31516">
        <ele>287.6</ele>
        <time>2024-03-17T08:07:20Z</time>
      </trkpt>
      <trkpt lat="50.01979" lon="4.31514">
        <ele>287.8</ele>
        <time>2024-03-17T08:07:21Z</time>
      </trkpt>
      <trkpt lat="50.01976" lon="4.31513">
        <ele>287.6</ele>
        <time>2024-03-17T08:07:22Z</time>
      </trkpt>
      <trkpt lat="50.01973" lon="4.31512">
        <ele>287.8</ele>
        <time>2024-03-17T08:07:23Z</time>
      </trkpt>
      <trkpt lat="50.01969" lon="4.31511">
        <ele>287.8</ele>
        <time>2024-03-17T08:07:24Z</time>
      </trkpt>
      <trkpt lat="50.01965" lon="4.3151">
        <ele>288</ele>
        <time>2024-03-17T08:07:25Z</time>
      </trkpt>
      <trkpt lat="50.01962" lon="4.3151">
        <ele>288</ele>
        <time>2024-03-17T08:07:26Z</time>
      </trkpt>
      <trkpt lat="50.01957" lon="4.31509">
        <ele>288.2</ele>
        <time>2024-03-17T08:07:27Z</time>
      </trkpt>
      <trkpt lat="50.01953" lon="4.31508">
        <ele>288.2</ele>
        <time>2024-03-17T08:07:28Z</time>
      </trkpt>
      <trkpt lat="50.01949" lon="4.31506">
        <ele>288.4</ele>
        <time>2024-03-17T08:07:29Z</time>
      </trkpt>
      <trkpt lat="50.01945" lon="4.31505">
        <ele>288.2</ele>
        <time>2024-03-17T08:07:30Z</time>
      </trkpt>
      <trkpt lat="50.01941" lon="4.31503">
        <ele>288.4</ele>
        <time>2024-03-17T08:07:31Z</time>
      </trkpt>
      <trkpt lat="50.01937" lon="4.31502">
        <ele>288.8</ele>
        <time>2024-03-17T08:07:32Z</time>
      </trkpt>
      <trkpt lat="50.01933" lon="4.31501">
        <ele>288.8</ele>
        <time>2024-03-17T08:07:33Z</time>
      </trkpt>
      <trkpt lat="50.01928" lon="4.315">
        <ele>289</ele>
        <time>2024-03-17T08:07:34Z</time>
      </trkpt>
      <trkpt lat="50.01924" lon="4.31498">
        <ele>289.2</ele>
        <time>2024-03-17T08:07:35Z</time>
      </trkpt>
      <trkpt lat="50.0192" lon="4.31497">
        <ele>289.4</ele>
        <time>2024-03-17T08:07:36Z</time>
      </trkpt>
      <trkpt lat="50.01916" lon="4.31496">
        <ele>289.6</ele>
        <time>2024-03-17T08:07:37Z</time>
      </trkpt>
      <trkpt lat="50.01912" lon="4.31495">
        <ele>289.6</ele>
        <time>2024-03-17T08:07:38Z</time>
      </trkpt>
      <trkpt lat="50.01908" lon="4.31493">
        <ele>290</ele>
        <time>2024-03-17T08:07:39Z</time>
      </trkpt>
      <trkpt lat="50.01903" lon="4.31492">
        <ele>290.2</ele>
        <time>2024-03-17T08:07:40Z</time>
      </trkpt>
      <trkpt lat="50.01899" lon="4.31491">
        <ele>290.4</ele>
        <time>2024-03-17T08:07:41Z</time>
      </trkpt>
      <trkpt lat="50.01895" lon="4.3149">
        <ele>290.6</ele>
        <time>2024-03-17T08:07:42Z</time>
      </trkpt>
      <trkpt lat="50.01891" lon="4.31488">
        <ele>290.4</ele>
        <time>2024-03-17T08:07:43Z</time>
      </trkpt>
      <trkpt lat="50.01886" lon="4.31487">
        <ele>290.6</ele>
        <time>2024-03-17T08:07:44Z</time>
      </trkpt>
      <trkpt lat="50.01882" lon="4.31485">
        <ele>290.6</ele>
        <time>2024-03-17T08:07:45Z</time>
      </trkpt>
      <trkpt lat="50.01878" lon="4.31484">
        <ele>290.6</ele>
        <time>2024-03-17T08:07:46Z</time>
      </trkpt>
      <trkpt lat="50.01874" lon="4.31482">
        <ele>290.8</ele>
        <time>2024-03-17T08:07:47Z</time>
      </trkpt>
      <trkpt lat="50.0187" lon="4.3148">
        <ele>290.8</ele>
        <time>2024-03-17T08:07:48Z</time>
      </trkpt>
      <trkpt lat="50.01866" lon="4.31478">
        <ele>291</ele>
        <time>2024-03-17T08:07:49Z</time>
      </trkpt>
      <trkpt lat="50.01862" lon="4.31476">
        <ele>291</ele>
        <time>2024-03-17T08:07:50Z</time>
      </trkpt>
      <trkpt lat="50.01858" lon="4.31475">
        <ele>291</ele>
        <time>2024-03-17T08:07:51Z</time>
      </trkpt>
      <trkpt lat="50.01854" lon="4.31473">
        <ele>291</ele>
        <time>2024-03-17T08:07:52Z</time>
      </trkpt>
      <trkpt lat="50.0185" lon="4.31471">
        <ele>291</ele>
        <time>2024-03-17T08:07:53Z</time>
      </trkpt>
      <trkpt lat="50.01846" lon="4.31469">
        <ele>291.2</ele>
        <time>2024-03-17T08:07:54Z</time>
      </trkpt>
      <trkpt lat="50.01842" lon="4.31468">
        <ele>291.4</ele>
        <time>2024-03-17T08:07:55Z</time>
      </trkpt>
      <trkpt lat="50.01838" lon="4.31466">
        <ele>291.4</ele>
        <time>2024-03-17T08:07:56Z</time>
      </trkpt>
      <trkpt lat="50.01835" lon="4.31463">
        <ele>291.4</ele>
        <time>2024-03-17T08:07:57Z</time>
      </trkpt>
      <trkpt lat="50.01831" lon="4.31461">
        <ele>291.4</ele>
        <time>2024-03-17T08:07:58Z</time>
      </trkpt>
      <trkpt lat="50.01828" lon="4.31459">
        <ele>291.8</ele>
        <time>2024-03-17T08:07:59Z</time>
      </trkpt>
      <trkpt lat="50.01824" lon="4.31457">
        <ele>291.8</ele>
        <time>2024-03-17T08:08:00Z</time>
      </trkpt>
      <trkpt lat="50.0182" lon="4.31455">
        <ele>291.8</ele>
        <time>2024-03-17T08:08:01Z</time>
      </trkpt>
      <trkpt lat="50.01817" lon="4.31453">
        <ele>291.8</ele>
        <time>2024-03-17T08:08:02Z</time>
      </trkpt>
      <trkpt lat="50.01813" lon="4.31451">
        <ele>291.8</ele>
        <time>2024-03-17T08:08:03Z</time>
      </trkpt>
      <trkpt lat="50.0181" lon="4.31449">
        <ele>292</ele>
        <time>2024-03-17T08:08:04Z</time>
      </trkpt>
      <trkpt lat="50.01806" lon="4.31447">
        <ele>292.2</ele>
        <time>2024-03-17T08:08:05Z</time>
      </trkpt>
      <trkpt lat="50.01803" lon="4.31445">
        <ele>292.2</ele>
        <time>2024-03-17T08:08:06Z</time>
      </trkpt>
      <trkpt lat="50.01799" lon="4.31443">
        <ele>292</ele>
        <time>2024-03-17T08:08:07Z</time>
      </trkpt>
      <trkpt lat="50.01795" lon="4.31441">
        <ele>292.2</ele>
        <time>2024-03-17T08:08:08Z</time>
      </trkpt>
      <trkpt lat="50.01792" lon="4.31439">
        <ele>292.2</ele>
        <time>2024-03-17T08:08:09Z</time>
      </trkpt>
      <trkpt lat="50.01789" lon="4.31436">
        <ele>292.4</ele>
        <time>2024-03-17T08:08:10Z</time>
      </trkpt>
      <trkpt lat="50.01785" lon="4.31434">
        <ele>292.4</ele>
        <time>2024-03-17T08:08:11Z</time>
      </trkpt>
      <trkpt lat="50.01782" lon="4.31432">
        <ele>292.6</ele>
        <time>2024-03-17T08:08:12Z</time>
      </trkpt>
      <trkpt lat="50.01778" lon="4.31429">
        <ele>292.6</ele>
        <time>2024-03-17T08:08:13Z</time>
      </trkpt>
      <trkpt lat="50.01775" lon="4.31427">
        <ele>292.6</ele>
        <time>2024-03-17T08:08:14Z</time>
      </trkpt>
      <trkpt lat="50.01772" lon="4.31424">
        <ele>292.8</ele>
        <time>2024-03-17T08:08:15Z</time>
      </trkpt>
      <trkpt lat="50.01768" lon="4.31422">
        <ele>292.8</ele>
        <time>2024-03-17T08:08:16Z</time>
      </trkpt>
      <trkpt lat="50.01765" lon="4.31419">
        <ele>292.8</ele>
        <time>2024-03-17T08:08:17Z</time>
      </trkpt>
      <trkpt lat="50.01762" lon="4.31416">
        <ele>293</ele>
        <time>2024-03-17T08:08:18Z</time>
      </trkpt>
      <trkpt lat="50.01759" lon="4.31413">
        <ele>293.2</ele>
        <time>2024-03-17T08:08:19Z</time>
      </trkpt>
      <trkpt lat="50.01755" lon="4.3141">
        <ele>293.4</ele>
        <time>2024-03-17T08:08:20Z</time>
      </trkpt>
      <trkpt lat="50.01753" lon="4.31406">
        <ele>294</ele>
        <time>2024-03-17T08:08:21Z</time>
      </trkpt>
      <trkpt lat="50.0175" lon="4.31404">
        <ele>294.4</ele>
        <time>2024-03-17T08:08:22Z</time>
      </trkpt>
      <trkpt lat="50.01747" lon="4.31401">
        <ele>294.6</ele>
        <time>2024-03-17T08:08:23Z</time>
      </trkpt>
      <trkpt lat="50.01743" lon="4.31398">
        <ele>295</ele>
        <time>2024-03-17T08:08:24Z</time>
      </trkpt>
      <trkpt lat="50.0174" lon="4.31395">
        <ele>295.2</ele>
        <time>2024-03-17T08:08:25Z</time>
      </trkpt>
      <trkpt lat="50.01737" lon="4.31393">
        <ele>295</ele>
        <time>2024-03-17T08:08:26Z</time>
      </trkpt>
      <trkpt lat="50.01734" lon="4.31391">
        <ele>295.2</ele>
        <time>2024-03-17T08:08:27Z</time>
      </trkpt>
      <trkpt lat="50.01731" lon="4.31388">
        <ele>295.2</ele>
        <time>2024-03-17T08:08:28Z</time>
      </trkpt>
      <trkpt lat="50.01727" lon="4.31386">
        <ele>295.2</ele>
        <time>2024-03-17T08:08:29Z</time>
      </trkpt>
      <trkpt lat="50.01724" lon="4.31383">
        <ele>295.2</ele>
        <time>2024-03-17T08:08:30Z</time>
      </trkpt>
      <trkpt lat="50.01721" lon="4.31381">
        <ele>295.2</ele>
        <time>2024-03-17T08:08:31Z</time>
      </trkpt>
      <trkpt lat="50.01716" lon="4.31379">
        <ele>295.2</ele>
        <time>2024-03-17T08:08:32Z</time>
      </trkpt>
      <trkpt lat="50.01712" lon="4.31377">
        <ele>295.4</ele>
        <time>2024-03-17T08:08:33Z</time>
      </trkpt>
      <trkpt lat="50.01709" lon="4.31375">
        <ele>295.4</ele>
        <time>2024-03-17T08:08:34Z</time>
      </trkpt>
      <trkpt lat="50.01705" lon="4.31373">
        <ele>295.4</ele>
        <time>2024-03-17T08:08:35Z</time>
      </trkpt>
      <trkpt lat="50.01702" lon="4.31371">
        <ele>295.4</ele>
        <time>2024-03-17T08:08:36Z</time>
      </trkpt>
      <trkpt lat="50.01698" lon="4.31369">
        <ele>295.6</ele>
        <time>2024-03-17T08:08:37Z</time>
      </trkpt>
      <trkpt lat="50.01694" lon="4.31367">
        <ele>295.6</ele>
        <time>2024-03-17T08:08:38Z</time>
      </trkpt>
      <trkpt lat="50.01691" lon="4.31365">
        <ele>295.8</ele>
        <time>2024-03-17T08:08:39Z</time>
      </trkpt>
      <trkpt lat="50.01687" lon="4.31363">
        <ele>295.8</ele>
        <time>2024-03-17T08:08:40Z</time>
      </trkpt>
      <trkpt lat="50.01683" lon="4.31361">
        <ele>295.8</ele>
        <time>2024-03-17T08:08:41Z</time>
      </trkpt>
      <trkpt lat="50.0168" lon="4.31359">
        <ele>296</ele>
        <time>2024-03-17T08:08:42Z</time>
      </trkpt>
      <trkpt lat="50.01676" lon="4.31357">
        <ele>296</ele>
        <time>2024-03-17T08:08:43Z</time>
      </trkpt>
      <trkpt lat="50.01673" lon="4.31356">
        <ele>296.2</ele>
        <time>2024-03-17T08:08:44Z</time>
      </trkpt>
      <trkpt lat="50.0167" lon="4.31354">
        <ele>296.4</ele>
        <time>2024-03-17T08:08:45Z</time>
      </trkpt>
      <trkpt lat="50.01666" lon="4.31352">
        <ele>296.4</ele>
        <time>2024-03-17T08:08:46Z</time>
      </trkpt>
      <trkpt lat="50.01663" lon="4.3135">
        <ele>296.4</ele>
        <time>2024-03-17T08:08:47Z</time>
      </trkpt>
      <trkpt lat="50.0166" lon="4.31348">
        <ele>296.2</ele>
        <time>2024-03-17T08:08:48Z</time>
      </trkpt>
      <trkpt lat="50.01656" lon="4.31346">
        <ele>296.4</ele>
        <time>2024-03-17T08:08:49Z</time>
      </trkpt>
      <trkpt lat="50.01653" lon="4.31343">
        <ele>296.6</ele>
        <time>2024-03-17T08:08:50Z</time>
      </trkpt>
      <trkpt lat="50.0165" lon="4.3134">
        <ele>296.6</ele>
        <time>2024-03-17T08:08:51Z</time>
      </trkpt>
      <trkpt lat="50.01647" lon="4.31337">
        <ele>296.6</ele>
        <time>2024-03-17T08:08:52Z</time>
      </trkpt>
      <trkpt lat="50.01643" lon="4.31334">
        <ele>296.6</ele>
        <time>2024-03-17T08:08:53Z</time>
      </trkpt>
      <trkpt lat="50.0164" lon="4.31331">
        <ele>296.6</ele>
        <time>2024-03-17T08:08:54Z</time>
      </trkpt>
      <trkpt lat="50.01637" lon="4.31328">
        <ele>297.4</ele>
        <time>2024-03-17T08:08:55Z</time>
      </trkpt>
      <trkpt lat="50.01634" lon="4.31325">
        <ele>298</ele>
        <time>2024-03-17T08:08:56Z</time>
      </trkpt>
      <trkpt lat="50.01631" lon="4.31322">
        <ele>298.2</ele>
        <time>2024-03-17T08:08:57Z</time>
      </trkpt>
      <trkpt lat="50.01628" lon="4.31319">
        <ele>298.6</ele>
        <time>2024-03-17T08:08:58Z</time>
      </trkpt>
      <trkpt lat="50.01625" lon="4.31316">
        <ele>298.6</ele>
        <time>2024-03-17T08:08:59Z</time>
      </trkpt>
      <trkpt lat="50.01622" lon="4.31313">
        <ele>298.6</ele>
        <time>2024-03-17T08:09:00Z</time>
      </trkpt>
      <trkpt lat="50.01619" lon="4.3131">
        <ele>298.8</ele>
        <time>2024-03-17T08:09:01Z</time>
      </trkpt>
      <trkpt lat="50.01616" lon="4.31306">
        <ele>298.8</ele>
        <time>2024-03-17T08:09:02Z</time>
      </trkpt>
      <trkpt lat="50.01613" lon="4.31303">
        <ele>298.8</ele>
        <time>2024-03-17T08:09:03Z</time>
      </trkpt>
      <trkpt lat="50.0161" lon="4.31299">
        <ele>299</ele>
        <time>2024-03-17T08:09:04Z</time>
      </trkpt>
      <trkpt lat="50.01608" lon="4.31296">
        <ele>299</ele>
        <time>2024-03-17T08:09:05Z</time>
      </trkpt>
      <trkpt lat="50.01605" lon="4.31293">
        <ele>298.8</ele>
        <time>2024-03-17T08:09:06Z</time>
      </trkpt>
      <trkpt lat="50.01602" lon="4.31291">
        <ele>298.8</ele>
        <time>2024-03-17T08:09:07Z</time>
      </trkpt>
      <trkpt lat="50.01599" lon="4.31288">
        <ele>299</ele>
        <time>2024-03-17T08:09:08Z</time>
      </trkpt>
      <trkpt lat="50.01596" lon="4.31288">
        <ele>299</ele>
        <time>2024-03-17T08:09:09Z</time>
      </trkpt>
      <trkpt lat="50.01593" lon="4.31288">
        <ele>299.2</ele>
        <time>2024-03-17T08:09:10Z</time>
      </trkpt>
      <trkpt lat="50.01591" lon="4.31289">
        <ele>299.2</ele>
        <time>2024-03-17T08:09:11Z</time>
      </trkpt>
      <trkpt lat="50.01588" lon="4.31292">
        <ele>299.2</ele>
        <time>2024-03-17T08:09:12Z</time>
      </trkpt>
      <trkpt lat="50.01587" lon="4.31296">
        <ele>299.4</ele>
        <time>2024-03-17T08:09:13Z</time>
      </trkpt>
      <trkpt lat="50.01587" lon="4.31302">
        <ele>299.4</ele>
        <time>2024-03-17T08:09:14Z</time>
      </trkpt>
      <trkpt lat="50.01586" lon="4.31308">
        <ele>299.6</ele>
        <time>2024-03-17T08:09:15Z</time>
      </trkpt>
      <trkpt lat="50.01585" lon="4.31314">
        <ele>299.8</ele>
        <time>2024-03-17T08:09:16Z</time>
      </trkpt>
      <trkpt lat="50.01584" lon="4.31321">
        <ele>300</ele>
        <time>2024-03-17T08:09:17Z</time>
      </trkpt>
      <trkpt lat="50.01584" lon="4.31327">
        <ele>300</ele>
        <time>2024-03-17T08:09:18Z</time>
      </trkpt>
      <trkpt lat="50.01583" lon="4.31334">
        <ele>300.4</ele>
        <time>2024-03-17T08:09:19Z</time>
      </trkpt>
      <trkpt lat="50.01583" lon="4.31342">
        <ele>300.4</ele>
        <time>2024-03-17T08:09:20Z</time>
      </trkpt>
      <trkpt lat="50.01583" lon="4.31349">
        <ele>300.4</ele>
        <time>2024-03-17T08:09:21Z</time>
      </trkpt>
      <trkpt lat="50.01582" lon="4.31356">
        <ele>300.6</ele>
        <time>2024-03-17T08:09:22Z</time>
      </trkpt>
      <trkpt lat="50.01581" lon="4.31364">
        <ele>300.8</ele>
        <time>2024-03-17T08:09:23Z</time>
      </trkpt>
      <trkpt lat="50.0158" lon="4.31371">
        <ele>300.8</ele>
        <time>2024-03-17T08:09:24Z</time>
      </trkpt>
      <trkpt lat="50.0158" lon="4.31379">
        <ele>300.8</ele>
        <time>2024-03-17T08:09:25Z</time>
      </trkpt>
      <trkpt lat="50.01579" lon="4.31387">
        <ele>300.8</ele>
        <time>2024-03-17T08:09:26Z</time>
      </trkpt>
      <trkpt lat="50.01579" lon="4.31395">
        <ele>300.8</ele>
        <time>2024-03-17T08:09:27Z</time>
      </trkpt>
      <trkpt lat="50.01578" lon="4.31402">
        <ele>300.8</ele>
        <time>2024-03-17T08:09:28Z</time>
      </trkpt>
      <trkpt lat="50.01578" lon="4.31411">
        <ele>301</ele>
        <time>2024-03-17T08:09:29Z</time>
      </trkpt>
      <trkpt lat="50.01578" lon="4.31419">
        <ele>300.8</ele>
        <time>2024-03-17T08:09:30Z</time>
      </trkpt>
      <trkpt lat="50.01577" lon="4.31428">
        <ele>300.8</ele>
        <time>2024-03-17T08:09:31Z</time>
      </trkpt>
      <trkpt lat="50.01577" lon="4.31436">
        <ele>300.8</ele>
        <time>2024-03-17T08:09:32Z</time>
      </trkpt>
      <trkpt lat="50.01577" lon="4.31445">
        <ele>301</ele>
        <time>2024-03-17T08:09:33Z</time>
      </trkpt>
      <trkpt lat="50.01577" lon="4.31454">
        <ele>301</ele>
        <time>2024-03-17T08:09:34Z</time>
      </trkpt>
      <trkpt lat="50.01577" lon="4.31462">
        <ele>300.8</ele>
        <time>2024-03-17T08:09:35Z</time>
      </trkpt>
      <trkpt lat="50.01576" lon="4.31471">
        <ele>300.8</ele>
        <time>2024-03-17T08:09:36Z</time>
      </trkpt>
      <trkpt lat="50.01576" lon="4.31479">
        <ele>300.8</ele>
        <time>2024-03-17T08:09:37Z</time>
      </trkpt>
      <trkpt lat="50.01576" lon="4.31488">
        <ele>300.6</ele>
        <time>2024-03-17T08:09:38Z</time>
      </trkpt>
      <trkpt lat="50.01576" lon="4.31497">
        <ele>300.6</ele>
        <time>2024-03-17T08:09:39Z</time>
      </trkpt>
      <trkpt lat="50.01575" lon="4.31506">
        <ele>300.4</ele>
        <time>2024-03-17T08:09:40Z</time>
      </trkpt>
      <trkpt lat="50.01575" lon="4.31515">
        <ele>300.6</ele>
        <time>2024-03-17T08:09:41Z</time>
      </trkpt>
      <trkpt lat="50.01574" lon="4.31524">
        <ele>300.6</ele>
        <time>2024-03-17T08:09:42Z</time>
      </trkpt>
      <trkpt lat="50.01574" lon="4.31532">
        <ele>300.6</ele>
        <time>2024-03-17T08:09:43Z</time>
      </trkpt>
      <trkpt lat="50.01573" lon="4.31541">
        <ele>300.6</ele>
        <time>2024-03-17T08:09:44Z</time>
      </trkpt>
      <trkpt lat="50.01573" lon="4.3155">
        <ele>300.6</ele>
        <time>2024-03-17T08:09:45Z</time>
      </trkpt>
      <trkpt lat="50.01573" lon="4.31559">
        <ele>300.6</ele>
        <time>2024-03-17T08:09:46Z</time>
      </trkpt>
      <trkpt lat="50.01572" lon="4.31568">
        <ele>300.4</ele>
        <time>2024-03-17T08:09:47Z</time>
      </trkpt>
      <trkpt lat="50.01572" lon="4.31577">
        <ele>300</ele>
        <time>2024-03-17T08:09:48Z</time>
      </trkpt>
      <trkpt lat="50.01571" lon="4.31586">
        <ele>300</ele>
        <time>2024-03-17T08:09:49Z</time>
      </trkpt>
      <trkpt lat="50.01571" lon="4.31595">
        <ele>300</ele>
        <time>2024-03-17T08:09:50Z</time>
      </trkpt>
      <trkpt lat="50.01571" lon="4.31604">
        <ele>300</ele>
        <time>2024-03-17T08:09:51Z</time>
      </trkpt>
      <trkpt lat="50.0157" lon="4.31612">
        <ele>300</ele>
        <time>2024-03-17T08:09:52Z</time>
      </trkpt>
      <trkpt lat="50.0157" lon="4.31621">
        <ele>300.2</ele>
        <time>2024-03-17T08:09:53Z</time>
      </trkpt>
      <trkpt lat="50.01569" lon="4.3163">
        <ele>300.2</ele>
        <time>2024-03-17T08:09:54Z</time>
      </trkpt>
      <trkpt lat="50.01569" lon="4.31639">
        <ele>300.2</ele>
        <time>2024-03-17T08:09:55Z</time>
      </trkpt>
      <trkpt lat="50.01569" lon="4.31648">
        <ele>300</ele>
        <time>2024-03-17T08:09:56Z</time>
      </trkpt>
      <trkpt lat="50.01568" lon="4.31658">
        <ele>300.2</ele>
        <time>2024-03-17T08:09:57Z</time>
      </trkpt>
      <trkpt lat="50.01568" lon="4.31668">
        <ele>300</ele>
        <time>2024-03-17T08:09:58Z</time>
      </trkpt>
      <trkpt lat="50.01567" lon="4.31677">
        <ele>300</ele>
        <time>2024-03-17T08:09:59Z</time>
      </trkpt>
      <trkpt lat="50.01567" lon="4.31687">
        <ele>299.8</ele>
        <time>2024-03-17T08:10:00Z</time>
      </trkpt>
      <trkpt lat="50.01566" lon="4.31697">
        <ele>299.6</ele>
        <time>2024-03-17T08:10:01Z</time>
      </trkpt>
      <trkpt lat="50.01565" lon="4.31707">
        <ele>299.4</ele>
        <time>2024-03-17T08:10:02Z</time>
      </trkpt>
      <trkpt lat="50.01565" lon="4.31718">
        <ele>299.4</ele>
        <time>2024-03-17T08:10:03Z</time>
      </trkpt>
      <trkpt lat="50.01564" lon="4.31728">
        <ele>299.2</ele>
        <time>2024-03-17T08:10:04Z</time>
      </trkpt>
      <trkpt lat="50.01564" lon="4.31738">
        <ele>299.2</ele>
        <time>2024-03-17T08:10:05Z</time>
      </trkpt>
      <trkpt lat="50.01563" lon="4.31748">
        <ele>299.2</ele>
        <time>2024-03-17T08:10:06Z</time>
      </trkpt>
      <trkpt lat="50.01562" lon="4.31759">
        <ele>299</ele>
        <time>2024-03-17T08:10:07Z</time>
      </trkpt>
      <trkpt lat="50.01562" lon="4.3177">
        <ele>299</ele>
        <time>2024-03-17T08:10:08Z</time>
      </trkpt>
      <trkpt lat="50.0156" lon="4.31781">
        <ele>298.6</ele>
        <time>2024-03-17T08:10:09Z</time>
      </trkpt>
      <trkpt lat="50.0156" lon="4.31792">
        <ele>298.6</ele>
        <time>2024-03-17T08:10:10Z</time>
      </trkpt>
      <trkpt lat="50.0156" lon="4.31804">
        <ele>298.6</ele>
        <time>2024-03-17T08:10:11Z</time>
      </trkpt>
      <trkpt lat="50.01559" lon="4.31816">
        <ele>298.2</ele>
        <time>2024-03-17T08:10:12Z</time>
      </trkpt>
      <trkpt lat="50.01559" lon="4.31828">
        <ele>298</ele>
        <time>2024-03-17T08:10:13Z</time>
      </trkpt>
      <trkpt lat="50.01558" lon="4.3184">
        <ele>297.6</ele>
        <time>2024-03-17T08:10:14Z</time>
      </trkpt>
      <trkpt lat="50.01558" lon="4.31853">
        <ele>297.6</ele>
        <time>2024-03-17T08:10:15Z</time>
      </trkpt>
      <trkpt lat="50.01558" lon="4.31866">
        <ele>297.4</ele>
        <time>2024-03-17T08:10:16Z</time>
      </trkpt>
      <trkpt lat="50.01557" lon="4.31879">
        <ele>297</ele>
        <time>2024-03-17T08:10:17Z</time>
      </trkpt>
      <trkpt lat="50.01557" lon="4.31892">
        <ele>297</ele>
        <time>2024-03-17T08:10:18Z</time>
      </trkpt>
      <trkpt lat="50.01556" lon="4.31905">
        <ele>296.8</ele>
        <time>2024-03-17T08:10:19Z</time>
      </trkpt>
      <trkpt lat="50.01555" lon="4.31918">
        <ele>296.4</ele>
        <time>2024-03-17T08:10:20Z</time>
      </trkpt>
      <trkpt lat="50.01555" lon="4.31931">
        <ele>296.4</ele>
        <time>2024-03-17T08:10:21Z</time>
      </trkpt>
      <trkpt lat="50.01554" lon="4.31944">
        <ele>295.8</ele>
        <time>2024-03-17T08:10:22Z</time>
      </trkpt>
      <trkpt lat="50.01553" lon="4.31957">
        <ele>295</ele>
        <time>2024-03-17T08:10:23Z</time>
      </trkpt>
      <trkpt lat="50.01551" lon="4.3197">
        <ele>294.4</ele>
        <time>2024-03-17T08:10:24Z</time>
      </trkpt>
      <trkpt lat="50.01548" lon="4.31981">
        <ele>294.2</ele>
        <time>2024-03-17T08:10:25Z</time>
      </trkpt>
      <trkpt lat="50.01542" lon="4.31989">
        <ele>293.6</ele>
        <time>2024-03-17T08:10:26Z</time>
      </trkpt>
      <trkpt lat="50.01534" lon="4.31992">
        <ele>293</ele>
        <time>2024-03-17T08:10:27Z</time>
      </trkpt>
      <trkpt lat="50.01526" lon="4.31992">
        <ele>293</ele>
        <time>2024-03-17T08:10:28Z</time>
      </trkpt>
      <trkpt lat="50.01517" lon="4.31991">
        <ele>292.6</ele>
        <time>2024-03-17T08:10:29Z</time>
      </trkpt>
      <trkpt lat="50.0151" lon="4.3199">
        <ele>292</ele>
        <time>2024-03-17T08:10:30Z</time>
      </trkpt>
      <trkpt lat="50.01502" lon="4.31988">
        <ele>291.4</ele>
        <time>2024-03-17T08:10:31Z</time>
      </trkpt>
      <trkpt lat="50.01494" lon="4.31987">
        <ele>290.8</ele>
        <time>2024-03-17T08:10:32Z</time>
      </trkpt>
      <trkpt lat="50.01486" lon="4.31985">
        <ele>290.2</ele>
        <time>2024-03-17T08:10:33Z</time>
      </trkpt>
      <trkpt lat="50.01478" lon="4.31983">
        <ele>289.4</ele>
        <time>2024-03-17T08:10:34Z</time>
      </trkpt>
      <trkpt lat="50.0147" lon="4.31982">
        <ele>288.4</ele>
        <time>2024-03-17T08:10:35Z</time>
      </trkpt>
      <trkpt lat="50.01462" lon="4.31981">
        <ele>287.8</ele>
        <time>2024-03-17T08:10:36Z</time>
      </trkpt>
      <trkpt lat="50.01454" lon="4.3198">
        <ele>287.2</ele>
        <time>2024-03-17T08:10:37Z</time>
      </trkpt>
      <trkpt lat="50.01447" lon="4.31979">
        <ele>287</ele>
        <time>2024-03-17T08:10:38Z</time>
      </trkpt>
      <trkpt lat="50.01439" lon="4.31977">
        <ele>286.6</ele>
        <time>2024-03-17T08:10:39Z</time>
      </trkpt>
      <trkpt lat="50.01432" lon="4.31976">
        <ele>286.6</ele>
        <time>2024-03-17T08:10:40Z</time>
      </trkpt>
      <trkpt lat="50.01425" lon="4.31975">
        <ele>286.6</ele>
        <time>2024-03-17T08:10:41Z</time>
      </trkpt>
      <trkpt lat="50.01418" lon="4.31974">
        <ele>286.4</ele>
        <time>2024-03-17T08:10:42Z</time>
      </trkpt>
      <trkpt lat="50.01412" lon="4.31973">
        <ele>286.4</ele>
        <time>2024-03-17T08:10:43Z</time>
      </trkpt>
      <trkpt lat="50.01405" lon="4.31972">
        <ele>286.4</ele>
        <time>2024-03-17T08:10:44Z</time>
      </trkpt>
      <trkpt lat="50.01399" lon="4.3197">
        <ele>286.4</ele>
        <time>2024-03-17T08:10:45Z</time>
      </trkpt>
      <trkpt lat="50.01393" lon="4.31969">
        <ele>286.4</ele>
        <time>2024-03-17T08:10:46Z</time>
      </trkpt>
      <trkpt lat="50.01386" lon="4.31968">
        <ele>286.4</ele>
        <time>2024-03-17T08:10:47Z</time>
      </trkpt>
      <trkpt lat="50.01379" lon="4.31967">
        <ele>286.4</ele>
        <time>2024-03-17T08:10:48Z</time>
      </trkpt>
      <trkpt lat="50.01372" lon="4.31965">
        <ele>286.4</ele>
        <time>2024-03-17T08:10:49Z</time>
      </trkpt>
      <trkpt lat="50.01366" lon="4.31964">
        <ele>286.4</ele>
        <time>2024-03-17T08:10:50Z</time>
      </trkpt>
      <trkpt lat="50.01359" lon="4.31963">
        <ele>286.4</ele>
        <time>2024-03-17T08:10:51Z</time>
      </trkpt>
      <trkpt lat="50.01353" lon="4.31961">
        <ele>286.2</ele>
        <time>2024-03-17T08:10:52Z</time>
      </trkpt>
      <trkpt lat="50.01347" lon="4.31959">
        <ele>286.2</ele>
        <time>2024-03-17T08:10:53Z</time>
      </trkpt>
      <trkpt lat="50.01341" lon="4.31957">
        <ele>286.2</ele>
        <time>2024-03-17T08:10:54Z</time>
      </trkpt>
      <trkpt lat="50.01334" lon="4.31955">
        <ele>286</ele>
        <time>2024-03-17T08:10:55Z</time>
      </trkpt>
      <trkpt lat="50.01328" lon="4.31953">
        <ele>285.8</ele>
        <time>2024-03-17T08:10:56Z</time>
      </trkpt>
      <trkpt lat="50.01321" lon="4.31951">
        <ele>285.8</ele>
        <time>2024-03-17T08:10:57Z</time>
      </trkpt>
      <trkpt lat="50.01314" lon="4.31949">
        <ele>285.6</ele>
        <time>2024-03-17T08:10:58Z</time>
      </trkpt>
      <trkpt lat="50.01307" lon="4.31947">
        <ele>285.6</ele>
        <time>2024-03-17T08:10:59Z</time>
      </trkpt>
      <trkpt lat="50.01299" lon="4.31944">
        <ele>285.4</ele>
        <time>2024-03-17T08:11:00Z</time>
      </trkpt>
      <trkpt lat="50.01292" lon="4.31942">
        <ele>285.6</ele>
        <time>2024-03-17T08:11:01Z</time>
      </trkpt>
      <trkpt lat="50.01284" lon="4.3194">
        <ele>285.6</ele>
        <time>2024-03-17T08:11:02Z</time>
      </trkpt>
      <trkpt lat="50.01276" lon="4.31937">
        <ele>285.4</ele>
        <time>2024-03-17T08:11:03Z</time>
      </trkpt>
      <trkpt lat="50.01269" lon="4.31935">
        <ele>285.4</ele>
        <time>2024-03-17T08:11:04Z</time>
      </trkpt>
      <trkpt lat="50.01261" lon="4.31932">
        <ele>285.2</ele>
        <time>2024-03-17T08:11:05Z</time>
      </trkpt>
      <trkpt lat="50.01253" lon="4.3193">
        <ele>285</ele>
        <time>2024-03-17T08:11:06Z</time>
      </trkpt>
      <trkpt lat="50.01245" lon="4.31928">
        <ele>284.8</ele>
        <time>2024-03-17T08:11:07Z</time>
      </trkpt>
      <trkpt lat="50.01237" lon="4.31925">
        <ele>284.2</ele>
        <time>2024-03-17T08:11:08Z</time>
      </trkpt>
      <trkpt lat="50.01229" lon="4.31922">
        <ele>284</ele>
        <time>2024-03-17T08:11:09Z</time>
      </trkpt>
      <trkpt lat="50.01221" lon="4.3192">
        <ele>283.8</ele>
        <time>2024-03-17T08:11:10Z</time>
      </trkpt>
      <trkpt lat="50.01213" lon="4.31917">
        <ele>283.6</ele>
        <time>2024-03-17T08:11:11Z</time>
      </trkpt>
      <trkpt lat="50.01204" lon="4.31914">
        <ele>283.4</ele>
        <time>2024-03-17T08:11:12Z</time>
      </trkpt>
      <trkpt lat="50.01196" lon="4.31911">
        <ele>283.4</ele>
        <time>2024-03-17T08:11:13Z</time>
      </trkpt>
      <trkpt lat="50.01187" lon="4.31909">
        <ele>283</ele>
        <time>2024-03-17T08:11:14Z</time>
      </trkpt>
      <trkpt lat="50.01179" lon="4.31907">
        <ele>281.8</ele>
        <time>2024-03-17T08:11:15Z</time>
      </trkpt>
      <trkpt lat="50.0117" lon="4.31904">
        <ele>281.4</ele>
        <time>2024-03-17T08:11:16Z</time>
      </trkpt>
      <trkpt lat="50.01161" lon="4.31902">
        <ele>281</ele>
        <time>2024-03-17T08:11:17Z</time>
      </trkpt>
      <trkpt lat="50.01152" lon="4.31901">
        <ele>280.2</ele>
        <time>2024-03-17T08:11:18Z</time>
      </trkpt>
      <trkpt lat="50.01143" lon="4.31901">
        <ele>280.2</ele>
        <time>2024-03-17T08:11:19Z</time>
      </trkpt>
      <trkpt lat="50.01134" lon="4.31902">
        <ele>279.6</ele>
        <time>2024-03-17T08:11:20Z</time>
      </trkpt>
      <trkpt lat="50.01124" lon="4.31904">
        <ele>279</ele>
        <time>2024-03-17T08:11:21Z</time>
      </trkpt>
      <trkpt lat="50.01115" lon="4.31905">
        <ele>278.4</ele>
        <time>2024-03-17T08:11:22Z</time>
      </trkpt>
      <trkpt lat="50.01105" lon="4.31907">
        <ele>278.2</ele>
        <time>2024-03-17T08:11:23Z</time>
      </trkpt>
      <trkpt lat="50.01097" lon="4.31907">
        <ele>277.8</ele>
        <time>2024-03-17T08:11:24Z</time>
      </trkpt>
      <trkpt lat="50.01089" lon="4.31907">
        <ele>277.2</ele>
        <time>2024-03-17T08:11:25Z</time>
      </trkpt>
      <trkpt lat="50.0108" lon="4.31907">
        <ele>276.2</ele>
        <time>2024-03-17T08:11:26Z</time>
      </trkpt>
      <trkpt lat="50.01072" lon="4.31906">
        <ele>276</ele>
        <time>2024-03-17T08:11:27Z</time>
      </trkpt>
      <trkpt lat="50.01065" lon="4.31905">
        <ele>275.8</ele>
        <time>2024-03-17T08:11:28Z</time>
      </trkpt>
      <trkpt lat="50.01059" lon="4.31903">
        <ele>275.6</ele>
        <time>2024-03-17T08:11:29Z</time>
      </trkpt>
      <trkpt lat="50.01053" lon="4.31902">
        <ele>275.6</ele>
        <time>2024-03-17T08:11:30Z</time>
      </trkpt>
      <trkpt lat="50.01047" lon="4.31901">
        <ele>275.6</ele>
        <time>2024-03-17T08:11:31Z</time>
      </trkpt>
      <trkpt lat="50.01042" lon="4.319">
        <ele>275.6</ele>
        <time>2024-03-17T08:11:32Z</time>
      </trkpt>
      <trkpt lat="50.01036" lon="4.31899">
        <ele>275.6</ele>
        <time>2024-03-17T08:11:33Z</time>
      </trkpt>
      <trkpt lat="50.01031" lon="4.31897">
        <ele>275.6</ele>
        <time>2024-03-17T08:11:34Z</time>
      </trkpt>
      <trkpt lat="50.01026" lon="4.31896">
        <ele>275.6</ele>
        <time>2024-03-17T08:11:35Z</time>
      </trkpt>
      <trkpt lat="50.01021" lon="4.31895">
        <ele>275.8</ele>
        <time>2024-03-17T08:11:36Z</time>
      </trkpt>
      <trkpt lat="50.01016" lon="4.31895">
        <ele>275.8</ele>
        <time>2024-03-17T08:11:37Z</time>
      </trkpt>
      <trkpt lat="50.01011" lon="4.31894">
        <ele>276</ele>
        <time>2024-03-17T08:11:38Z</time>
      </trkpt>
      <trkpt lat="50.01007" lon="4.31893">
        <ele>276.4</ele>
        <time>2024-03-17T08:11:39Z</time>
      </trkpt>
      <trkpt lat="50.01002" lon="4.31892">
        <ele>277</ele>
        <time>2024-03-17T08:11:40Z</time>
      </trkpt>
      <trkpt lat="50.00997" lon="4.31891">
        <ele>277.4</ele>
        <time>2024-03-17T08:11:41Z</time>
      </trkpt>
      <trkpt lat="50.00992" lon="4.3189">
        <ele>277.8</ele>
        <time>2024-03-17T08:11:42Z</time>
      </trkpt>
      <trkpt lat="50.00988" lon="4.31889">
        <ele>278.2</ele>
        <time>2024-03-17T08:11:43Z</time>
      </trkpt>
      <trkpt lat="50.00983" lon="4.31888">
        <ele>278.2</ele>
        <time>2024-03-17T08:11:44Z</time>
      </trkpt>
      <trkpt lat="50.00979" lon="4.31886">
        <ele>278.6</ele>
        <time>2024-03-17T08:11:45Z</time>
      </trkpt>
      <trkpt lat="50.00974" lon="4.31885">
        <ele>278.8</ele>
        <time>2024-03-17T08:11:46Z</time>
      </trkpt>
      <trkpt lat="50.0097" lon="4.31883">
        <ele>279</ele>
        <time>2024-03-17T08:11:47Z</time>
      </trkpt>
      <trkpt lat="50.00966" lon="4.31881">
        <ele>279.2</ele>
        <time>2024-03-17T08:11:48Z</time>
      </trkpt>
      <trkpt lat="50.00962" lon="4.3188">
        <ele>279.2</ele>
        <time>2024-03-17T08:11:49Z</time>
      </trkpt>
      <trkpt lat="50.00957" lon="4.31879">
        <ele>279.4</ele>
        <time>2024-03-17T08:11:50Z</time>
      </trkpt>
      <trkpt lat="50.00954" lon="4.31878">
        <ele>279.6</ele>
        <time>2024-03-17T08:11:51Z</time>
      </trkpt>
      <trkpt lat="50.0095" lon="4.31877">
        <ele>279.8</ele>
        <time>2024-03-17T08:11:52Z</time>
      </trkpt>
      <trkpt lat="50.00946" lon="4.31876">
        <ele>280.2</ele>
        <time>2024-03-17T08:11:53Z</time>
      </trkpt>
      <trkpt lat="50.00942" lon="4.31875">
        <ele>280.2</ele>
        <time>2024-03-17T08:11:54Z</time>
      </trkpt>
      <trkpt lat="50.00938" lon="4.31873">
        <ele>280.8</ele>
        <time>2024-03-17T08:11:55Z</time>
      </trkpt>
      <trkpt lat="50.00935" lon="4.31872">
        <ele>281.4</ele>
        <time>2024-03-17T08:11:56Z</time>
      </trkpt>
      <trkpt lat="50.00931" lon="4.31871">
        <ele>282</ele>
        <time>2024-03-17T08:11:57Z</time>
      </trkpt>
      <trkpt lat="50.00927" lon="4.31869">
        <ele>282.4</ele>
        <time>2024-03-17T08:11:58Z</time>
      </trkpt>
      <trkpt lat="50.00923" lon="4.31869">
        <ele>282.6</ele>
        <time>2024-03-17T08:11:59Z</time>
      </trkpt>
      <trkpt lat="50.00919" lon="4.31869">
        <ele>283</ele>
        <time>2024-03-17T08:12:00Z</time>
      </trkpt>
      <trkpt lat="50.00915" lon="4.31869">
        <ele>283.4</ele>
        <time>2024-03-17T08:12:01Z</time>
      </trkpt>
      <trkpt lat="50.0091" lon="4.31869">
        <ele>283.8</ele>
        <time>2024-03-17T08:12:02Z</time>
      </trkpt>
      <trkpt lat="50.00906" lon="4.31869">
        <ele>284</ele>
        <time>2024-03-17T08:12:03Z</time>
      </trkpt>
      <trkpt lat="50.00902" lon="4.3187">
        <ele>284</ele>
        <time>2024-03-17T08:12:04Z</time>
      </trkpt>
      <trkpt lat="50.00898" lon="4.31872">
        <ele>284.2</ele>
        <time>2024-03-17T08:12:05Z</time>
      </trkpt>
      <trkpt lat="50.00894" lon="4.31873">
        <ele>284.4</ele>
        <time>2024-03-17T08:12:06Z</time>
      </trkpt>
      <trkpt lat="50.0089" lon="4.31875">
        <ele>284.6</ele>
        <time>2024-03-17T08:12:07Z</time>
      </trkpt>
      <trkpt lat="50.00886" lon="4.31877">
        <ele>285</ele>
        <time>2024-03-17T08:12:08Z</time>
      </trkpt>
      <trkpt lat="50.00882" lon="4.3188">
        <ele>285.4</ele>
        <time>2024-03-17T08:12:09Z</time>
      </trkpt>
      <trkpt lat="50.00879" lon="4.31882">
        <ele>285.4</ele>
        <time>2024-03-17T08:12:10Z</time>
      </trkpt>
      <trkpt lat="50.00876" lon="4.31884">
        <ele>285.6</ele>
        <time>2024-03-17T08:12:11Z</time>
      </trkpt>
      <trkpt lat="50.00873" lon="4.31886">
        <ele>285.6</ele>
        <time>2024-03-17T08:12:12Z</time>
      </trkpt>
      <trkpt lat="50.0087" lon="4.31888">
        <ele>285.8</ele>
        <time>2024-03-17T08:12:13Z</time>
      </trkpt>
      <trkpt lat="50.00868" lon="4.31891">
        <ele>286.2</ele>
        <time>2024-03-17T08:12:14Z</time>
      </trkpt>
      <trkpt lat="50.00866" lon="4.31894">
        <ele>286.4</ele>
        <time>2024-03-17T08:12:15Z</time>
      </trkpt>
      <trkpt lat="50.00864" lon="4.31897">
        <ele>286.4</ele>
        <time>2024-03-17T08:12:16Z</time>
      </trkpt>
      <trkpt lat="50.00862" lon="4.31901">
        <ele>286.6</ele>
        <time>2024-03-17T08:12:17Z</time>
      </trkpt>
      <trkpt lat="50.00859" lon="4.31904">
        <ele>286.6</ele>
        <time>2024-03-17T08:12:18Z</time>
      </trkpt>
      <trkpt lat="50.00857" lon="4.31907">
        <ele>286.8</ele>
        <time>2024-03-17T08:12:19Z</time>
      </trkpt>
      <trkpt lat="50.00855" lon="4.31911">
        <ele>287</ele>
        <time>2024-03-17T08:12:20Z</time>
      </trkpt>
      <trkpt lat="50.00853" lon="4.31915">
        <ele>287.4</ele>
        <time>2024-03-17T08:12:21Z</time>
      </trkpt>
      <trkpt lat="50.00851" lon="4.31919">
        <ele>287.4</ele>
        <time>2024-03-17T08:12:22Z</time>
      </trkpt>
      <trkpt lat="50.00848" lon="4.31923">
        <ele>287.8</ele>
        <time>2024-03-17T08:12:23Z</time>
      </trkpt>
      <trkpt lat="50.00846" lon="4.31927">
        <ele>288</ele>
        <time>2024-03-17T08:12:24Z</time>
      </trkpt>
      <trkpt lat="50.00844" lon="4.31931">
        <ele>288</ele>
        <time>2024-03-17T08:12:25Z</time>
      </trkpt>
      <trkpt lat="50.00843" lon="4.31936">
        <ele>288.4</ele>
        <time>2024-03-17T08:12:26Z</time>
      </trkpt>
      <trkpt lat="50.0084" lon="4.3194">
        <ele>288.8</ele>
        <time>2024-03-17T08:12:27Z</time>
      </trkpt>
      <trkpt lat="50.00838" lon="4.31945">
        <ele>289</ele>
        <time>2024-03-17T08:12:28Z</time>
      </trkpt>
      <trkpt lat="50.00836" lon="4.31949">
        <ele>289.2</ele>
        <time>2024-03-17T08:12:29Z</time>
      </trkpt>
      <trkpt lat="50.00833" lon="4.31953">
        <ele>289.2</ele>
        <time>2024-03-17T08:12:30Z</time>
      </trkpt>
      <trkpt lat="50.0083" lon="4.31957">
        <ele>289.4</ele>
        <time>2024-03-17T08:12:31Z</time>
      </trkpt>
      <trkpt lat="50.00828" lon="4.31961">
        <ele>289.8</ele>
        <time>2024-03-17T08:12:32Z</time>
      </trkpt>
      <trkpt lat="50.00825" lon="4.31965">
        <ele>289.8</ele>
        <time>2024-03-17T08:12:33Z</time>
      </trkpt>
      <trkpt lat="50.00823" lon="4.31969">
        <ele>290</ele>
        <time>2024-03-17T08:12:34Z</time>
      </trkpt>
      <trkpt lat="50.00821" lon="4.31973">
        <ele>290</ele>
        <time>2024-03-17T08:12:35Z</time>
      </trkpt>
      <trkpt lat="50.00818" lon="4.31978">
        <ele>290.4</ele>
        <time>2024-03-17T08:12:36Z</time>
      </trkpt>
      <trkpt lat="50.00816" lon="4.31982">
        <ele>290.6</ele>
        <time>2024-03-17T08:12:37Z</time>
      </trkpt>
      <trkpt lat="50.00813" lon="4.31987">
        <ele>290.6</ele>
        <time>2024-03-17T08:12:38Z</time>
      </trkpt>
      <trkpt lat="50.0081" lon="4.31991">
        <ele>290.6</ele>
        <time>2024-03-17T08:12:39Z</time>
      </trkpt>
      <trkpt lat="50.00808" lon="4.31996">
        <ele>290.8</ele>
        <time>2024-03-17T08:12:40Z</time>
      </trkpt>
      <trkpt lat="50.00805" lon="4.32">
        <ele>291</ele>
        <time>2024-03-17T08:12:41Z</time>
      </trkpt>
      <trkpt lat="50.00802" lon="4.32004">
        <ele>291.2</ele>
        <time>2024-03-17T08:12:42Z</time>
      </trkpt>
      <trkpt lat="50.00799" lon="4.32008">
        <ele>291.6</ele>
        <time>2024-03-17T08:12:43Z</time>
      </trkpt>
      <trkpt lat="50.00797" lon="4.32012">
        <ele>291.6</ele>
        <time>2024-03-17T08:12:44Z</time>
      </trkpt>
      <trkpt lat="50.00795" lon="4.32016">
        <ele>292</ele>
        <time>2024-03-17T08:12:45Z</time>
      </trkpt>
      <trkpt lat="50.00792" lon="4.3202">
        <ele>292</ele>
        <time>2024-03-17T08:12:46Z</time>
      </trkpt>
      <trkpt lat="50.0079" lon="4.32023">
        <ele>292.4</ele>
        <time>2024-03-17T08:12:47Z</time>
      </trkpt>
      <trkpt lat="50.00788" lon="4.32026">
        <ele>292.6</ele>
        <time>2024-03-17T08:12:48Z</time>
      </trkpt>
      <trkpt lat="50.00786" lon="4.3203">
        <ele>292.8</ele>
        <time>2024-03-17T08:12:49Z</time>
      </trkpt>
      <trkpt lat="50.00784" lon="4.32034">
        <ele>293</ele>
        <time>2024-03-17T08:12:50Z</time>
      </trkpt>
      <trkpt lat="50.00782" lon="4.32038">
        <ele>293</ele>
        <time>2024-03-17T08:12:51Z</time>
      </trkpt>
      <trkpt lat="50.00779" lon="4.32042">
        <ele>293.2</ele>
        <time>2024-03-17T08:12:52Z</time>
      </trkpt>
      <trkpt lat="50.00777" lon="4.32047">
        <ele>293.4</ele>
        <time>2024-03-17T08:12:53Z</time>
      </trkpt>
      <trkpt lat="50.00775" lon="4.32051">
        <ele>293.6</ele>
        <time>2024-03-17T08:12:54Z</time>
      </trkpt>
      <trkpt lat="50.00773" lon="4.32055">
        <ele>293.8</ele>
        <time>2024-03-17T08:12:55Z</time>
      </trkpt>
      <trkpt lat="50.00771" lon="4.32059">
        <ele>294</ele>
        <time>2024-03-17T08:12:56Z</time>
      </trkpt>
      <trkpt lat="50.00769" lon="4.32063">
        <ele>294.2</ele>
        <time>2024-03-17T08:12:57Z</time>
      </trkpt>
      <trkpt lat="50.00768" lon="4.32067">
        <ele>294.2</ele>
        <time>2024-03-17T08:12:58Z</time>
      </trkpt>
      <trkpt lat="50.00765" lon="4.32072">
        <ele>294</ele>
        <time>2024-03-17T08:12:59Z</time>
      </trkpt>
      <trkpt lat="50.00763" lon="4.32076">
        <ele>294.2</ele>
        <time>2024-03-17T08:13:00Z</time>
      </trkpt>
      <trkpt lat="50.00762" lon="4.3208">
        <ele>294.4</ele>
        <time>2024-03-17T08:13:01Z</time>
      </trkpt>
      <trkpt lat="50.00759" lon="4.32084">
        <ele>294.4</ele>
        <time>2024-03-17T08:13:02Z</time>
      </trkpt>
      <trkpt lat="50.00758" lon="4.32088">
        <ele>294.6</ele>
        <time>2024-03-17T08:13:03Z</time>
      </trkpt>
      <trkpt lat="50.00757" lon="4.32092">
        <ele>294.8</ele>
        <time>2024-03-17T08:13:04Z</time>
      </trkpt>
      <trkpt lat="50.00755" lon="4.32096">
        <ele>294.8</ele>
        <time>2024-03-17T08:13:05Z</time>
      </trkpt>
      <trkpt lat="50.00753" lon="4.321">
        <ele>295.4</ele>
        <time>2024-03-17T08:13:06Z</time>
      </trkpt>
      <trkpt lat="50.00751" lon="4.32104">
        <ele>295.4</ele>
        <time>2024-03-17T08:13:07Z</time>
      </trkpt>
      <trkpt lat="50.0075" lon="4.32107">
        <ele>295.4</ele>
        <time>2024-03-17T08:13:08Z</time>
      </trkpt>
      <trkpt lat="50.00748" lon="4.32111">
        <ele>295.6</ele>
        <time>2024-03-17T08:13:09Z</time>
      </trkpt>
      <trkpt lat="50.00747" lon="4.32115">
        <ele>296</ele>
        <time>2024-03-17T08:13:10Z</time>
      </trkpt>
      <trkpt lat="50.00746" lon="4.32119">
        <ele>296.2</ele>
        <time>2024-03-17T08:13:11Z</time>
      </trkpt>
      <trkpt lat="50.00745" lon="4.32123">
        <ele>296.2</ele>
        <time>2024-03-17T08:13:12Z</time>
      </trkpt>
      <trkpt lat="50.00744" lon="4.32127">
        <ele>296.4</ele>
        <time>2024-03-17T08:13:13Z</time>
      </trkpt>
      <trkpt lat="50.00743" lon="4.3213">
        <ele>296.4</ele>
        <time>2024-03-17T08:13:14Z</time>
      </trkpt>
      <trkpt lat="50.00742" lon="4.32135">
        <ele>296.4</ele>
        <time>2024-03-17T08:13:15Z</time>
      </trkpt>
      <trkpt lat="50.0074" lon="4.32139">
        <ele>296.4</ele>
        <time>2024-03-17T08:13:16Z</time>
      </trkpt>
      <trkpt lat="50.00738" lon="4.32143">
        <ele>297</ele>
        <time>2024-03-17T08:13:17Z</time>
      </trkpt>
      <trkpt lat="50.00736" lon="4.32148">
        <ele>297.4</ele>
        <time>2024-03-17T08:13:18Z</time>
      </trkpt>
      <trkpt lat="50.00734" lon="4.32153">
        <ele>297.6</ele>
        <time>2024-03-17T08:13:19Z</time>
      </trkpt>
      <trkpt lat="50.00732" lon="4.32158">
        <ele>298</ele>
        <time>2024-03-17T08:13:20Z</time>
      </trkpt>
      <trkpt lat="50.00732" lon="4.32161">
        <ele>298.2</ele>
        <time>2024-03-17T08:13:21Z</time>
      </trkpt>
      <trkpt lat="50.0073" lon="4.32166">
        <ele>298.6</ele>
        <time>2024-03-17T08:13:22Z</time>
      </trkpt>
      <trkpt lat="50.00728" lon="4.32171">
        <ele>298.8</ele>
        <time>2024-03-17T08:13:23Z</time>
      </trkpt>
      <trkpt lat="50.00726" lon="4.32176">
        <ele>298.8</ele>
        <time>2024-03-17T08:13:24Z</time>
      </trkpt>
      <trkpt lat="50.00724" lon="4.32181">
        <ele>299</ele>
        <time>2024-03-17T08:13:25Z</time>
      </trkpt>
      <trkpt lat="50.00722" lon="4.32185">
        <ele>299</ele>
        <time>2024-03-17T08:13:26Z</time>
      </trkpt>
      <trkpt lat="50.00719" lon="4.3219">
        <ele>299.2</ele>
        <time>2024-03-17T08:13:27Z</time>
      </trkpt>
      <trkpt lat="50.00717" lon="4.32195">
        <ele>299.4</ele>
        <time>2024-03-17T08:13:28Z</time>
      </trkpt>
      <trkpt lat="50.00715" lon="4.322">
        <ele>299.2</ele>
        <time>2024-03-17T08:13:29Z</time>
      </trkpt>
      <trkpt lat="50.00713" lon="4.32205">
        <ele>299.4</ele>
        <time>2024-03-17T08:13:30Z</time>
      </trkpt>
      <trkpt lat="50.0071" lon="4.3221">
        <ele>299.6</ele>
        <time>2024-03-17T08:13:31Z</time>
      </trkpt>
      <trkpt lat="50.00708" lon="4.32216">
        <ele>299.6</ele>
        <time>2024-03-17T08:13:32Z</time>
      </trkpt>
      <trkpt lat="50.00706" lon="4.3222">
        <ele>299.6</ele>
        <time>2024-03-17T08:13:33Z</time>
      </trkpt>
      <trkpt lat="50.00704" lon="4.32226">
        <ele>299.6</ele>
        <time>2024-03-17T08:13:34Z</time>
      </trkpt>
      <trkpt lat="50.00702" lon="4.32231">
        <ele>299.8</ele>
        <time>2024-03-17T08:13:35Z</time>
      </trkpt>
      <trkpt lat="50.00701" lon="4.32236">
        <ele>300</ele>
        <time>2024-03-17T08:13:36Z</time>
      </trkpt>
      <trkpt lat="50.00699" lon="4.32241">
        <ele>300</ele>
        <time>2024-03-17T08:13:37Z</time>
      </trkpt>
      <trkpt lat="50.00697" lon="4.32245">
        <ele>300.2</ele>
        <time>2024-03-17T08:13:38Z</time>
      </trkpt>
      <trkpt lat="50.00696" lon="4.3225">
        <ele>300</ele>
        <time>2024-03-17T08:13:39Z</time>
      </trkpt>
      <trkpt lat="50.00694" lon="4.32254">
        <ele>300</ele>
        <time>2024-03-17T08:13:40Z</time>
      </trkpt>
      <trkpt lat="50.00692" lon="4.32258">
        <ele>300</ele>
        <time>2024-03-17T08:13:41Z</time>
      </trkpt>
      <trkpt lat="50.0069" lon="4.32263">
        <ele>300.2</ele>
        <time>2024-03-17T08:13:42Z</time>
      </trkpt>
      <trkpt lat="50.00688" lon="4.32267">
        <ele>300.2</ele>
        <time>2024-03-17T08:13:43Z</time>
      </trkpt>
      <trkpt lat="50.00686" lon="4.32272">
        <ele>300.2</ele>
        <time>2024-03-17T08:13:44Z</time>
      </trkpt>
      <trkpt lat="50.00684" lon="4.32277">
        <ele>300.4</ele>
        <time>2024-03-17T08:13:45Z</time>
      </trkpt>
      <trkpt lat="50.00682" lon="4.32282">
        <ele>300.8</ele>
        <time>2024-03-17T08:13:46Z</time>
      </trkpt>
      <trkpt lat="50.00681" lon="4.32287">
        <ele>300.8</ele>
        <time>2024-03-17T08:13:47Z</time>
      </trkpt>
      <trkpt lat="50.0068" lon="4.32292">
        <ele>301</ele>
        <time>2024-03-17T08:13:48Z</time>
      </trkpt>
      <trkpt lat="50.00678" lon="4.32297">
        <ele>301.2</ele>
        <time>2024-03-17T08:13:49Z</time>
      </trkpt>
      <trkpt lat="50.00676" lon="4.32302">
        <ele>301.2</ele>
        <time>2024-03-17T08:13:50Z</time>
      </trkpt>
      <trkpt lat="50.00675" lon="4.32306">
        <ele>301.4</ele>
        <time>2024-03-17T08:13:51Z</time>
      </trkpt>
      <trkpt lat="50.00673" lon="4.32311">
        <ele>301.6</ele>
        <time>2024-03-17T08:13:52Z</time>
      </trkpt>
      <trkpt lat="50.00671" lon="4.32316">
        <ele>302</ele>
        <time>2024-03-17T08:13:53Z</time>
      </trkpt>
      <trkpt lat="50.00668" lon="4.32321">
        <ele>302.2</ele>
        <time>2024-03-17T08:13:54Z</time>
      </trkpt>
      <trkpt lat="50.00666" lon="4.32327">
        <ele>302.6</ele>
        <time>2024-03-17T08:13:55Z</time>
      </trkpt>
      <trkpt lat="50.00664" lon="4.32331">
        <ele>302.8</ele>
        <time>2024-03-17T08:13:56Z</time>
      </trkpt>
      <trkpt lat="50.00662" lon="4.32337">
        <ele>303</ele>
        <time>2024-03-17T08:13:57Z</time>
      </trkpt>
      <trkpt lat="50.00659" lon="4.32342">
        <ele>303</ele>
        <time>2024-03-17T08:13:58Z</time>
      </trkpt>
      <trkpt lat="50.00657" lon="4.32347">
        <ele>303.2</ele>
        <time>2024-03-17T08:13:59Z</time>
      </trkpt>
      <trkpt lat="50.00655" lon="4.32352">
        <ele>303.2</ele>
        <time>2024-03-17T08:14:00Z</time>
      </trkpt>
      <trkpt lat="50.00653" lon="4.32358">
        <ele>303.2</ele>
        <time>2024-03-17T08:14:01Z</time>
      </trkpt>
      <trkpt lat="50.0065" lon="4.32364">
        <ele>303.2</ele>
        <time>2024-03-17T08:14:02Z</time>
      </trkpt>
      <trkpt lat="50.00649" lon="4.32369">
        <ele>303.4</ele>
        <time>2024-03-17T08:14:03Z</time>
      </trkpt>
      <trkpt lat="50.00647" lon="4.32374">
        <ele>303.2</ele>
        <time>2024-03-17T08:14:04Z</time>
      </trkpt>
      <trkpt lat="50.00645" lon="4.32379">
        <ele>303.2</ele>
        <time>2024-03-17T08:14:05Z</time>
      </trkpt>
      <trkpt lat="50.00643" lon="4.32385">
        <ele>303.4</ele>
        <time>2024-03-17T08:14:06Z</time>
      </trkpt>
      <trkpt lat="50.00641" lon="4.32391">
        <ele>303.4</ele>
        <time>2024-03-17T08:14:07Z</time>
      </trkpt>
      <trkpt lat="50.00639" lon="4.32397">
        <ele>303.4</ele>
        <time>2024-03-17T08:14:08Z</time>
      </trkpt>
      <trkpt lat="50.00637" lon="4.32402">
        <ele>303.6</ele>
        <time>2024-03-17T08:14:09Z</time>
      </trkpt>
      <trkpt lat="50.00635" lon="4.32407">
        <ele>303.6</ele>
        <time>2024-03-17T08:14:10Z</time>
      </trkpt>
      <trkpt lat="50.00633" lon="4.32412">
        <ele>303.6</ele>
        <time>2024-03-17T08:14:11Z</time>
      </trkpt>
      <trkpt lat="50.00631" lon="4.32418">
        <ele>303.6</ele>
        <time>2024-03-17T08:14:12Z</time>
      </trkpt>
      <trkpt lat="50.00629" lon="4.32424">
        <ele>303.4</ele>
        <time>2024-03-17T08:14:13Z</time>
      </trkpt>
      <trkpt lat="50.00628" lon="4.32429">
        <ele>303.6</ele>
        <time>2024-03-17T08:14:14Z</time>
      </trkpt>
      <trkpt lat="50.00625" lon="4.32435">
        <ele>303.6</ele>
        <time>2024-03-17T08:14:15Z</time>
      </trkpt>
      <trkpt lat="50.00623" lon="4.3244">
        <ele>303.4</ele>
        <time>2024-03-17T08:14:16Z</time>
      </trkpt>
      <trkpt lat="50.0062" lon="4.32446">
        <ele>303.6</ele>
        <time>2024-03-17T08:14:17Z</time>
      </trkpt>
      <trkpt lat="50.00618" lon="4.32452">
        <ele>303.6</ele>
        <time>2024-03-17T08:14:18Z</time>
      </trkpt>
      <trkpt lat="50.00615" lon="4.32458">
        <ele>303.8</ele>
        <time>2024-03-17T08:14:19Z</time>
      </trkpt>
      <trkpt lat="50.00613" lon="4.32463">
        <ele>303.6</ele>
        <time>2024-03-17T08:14:20Z</time>
      </trkpt>
      <trkpt lat="50.00611" lon="4.32468">
        <ele>303.8</ele>
        <time>2024-03-17T08:14:21Z</time>
      </trkpt>
      <trkpt lat="50.00609" lon="4.32474">
        <ele>303.8</ele>
        <time>2024-03-17T08:14:22Z</time>
      </trkpt>
      <trkpt lat="50.00607" lon="4.3248">
        <ele>303.8</ele>
        <time>2024-03-17T08:14:23Z</time>
      </trkpt>
      <trkpt lat="50.00604" lon="4.32486">
        <ele>303.8</ele>
        <time>2024-03-17T08:14:24Z</time>
      </trkpt>
      <trkpt lat="50.00602" lon="4.32492">
        <ele>303.8</ele>
        <time>2024-03-17T08:14:25Z</time>
      </trkpt>
      <trkpt lat="50.00599" lon="4.32498">
        <ele>303.8</ele>
        <time>2024-03-17T08:14:26Z</time>
      </trkpt>
      <trkpt lat="50.00597" lon="4.32504">
        <ele>303.8</ele>
        <time>2024-03-17T08:14:27Z</time>
      </trkpt>
      <trkpt lat="50.00594" lon="4.3251">
        <ele>303.6</ele>
        <time>2024-03-17T08:14:28Z</time>
      </trkpt>
      <trkpt lat="50.00591" lon="4.32516">
        <ele>303.4</ele>
        <time>2024-03-17T08:14:29Z</time>
      </trkpt>
      <trkpt lat="50.00588" lon="4.32521">
        <ele>303.4</ele>
        <time>2024-03-17T08:14:30Z</time>
      </trkpt>
      <trkpt lat="50.00586" lon="4.32526">
        <ele>303.2</ele>
        <time>2024-03-17T08:14:31Z</time>
      </trkpt>
      <trkpt lat="50.00583" lon="4.32531">
        <ele>303.2</ele>
        <time>2024-03-17T08:14:32Z</time>
      </trkpt>
      <trkpt lat="50.0058" lon="4.32536">
        <ele>303.2</ele>
        <time>2024-03-17T08:14:33Z</time>
      </trkpt>
      <trkpt lat="50.00577" lon="4.32541">
        <ele>303.2</ele>
        <time>2024-03-17T08:14:34Z</time>
      </trkpt>
      <trkpt lat="50.00573" lon="4.32546">
        <ele>303.2</ele>
        <time>2024-03-17T08:14:35Z</time>
      </trkpt>
      <trkpt lat="50.0057" lon="4.3255">
        <ele>303</ele>
        <time>2024-03-17T08:14:36Z</time>
      </trkpt>
      <trkpt lat="50.00567" lon="4.32554">
        <ele>303.2</ele>
        <time>2024-03-17T08:14:37Z</time>
      </trkpt>
      <trkpt lat="50.00564" lon="4.32558">
        <ele>303.2</ele>
        <time>2024-03-17T08:14:38Z</time>
      </trkpt>
      <trkpt lat="50.00561" lon="4.32561">
        <ele>303.2</ele>
        <time>2024-03-17T08:14:39Z</time>
      </trkpt>
      <trkpt lat="50.00557" lon="4.32564">
        <ele>303.2</ele>
        <time>2024-03-17T08:14:40Z</time>
      </trkpt>
      <trkpt lat="50.00554" lon="4.32568">
        <ele>303.2</ele>
        <time>2024-03-17T08:14:41Z</time>
      </trkpt>
      <trkpt lat="50.00551" lon="4.32571">
        <ele>303.2</ele>
        <time>2024-03-17T08:14:42Z</time>
      </trkpt>
      <trkpt lat="50.00548" lon="4.32574">
        <ele>303.4</ele>
        <time>2024-03-17T08:14:43Z</time>
      </trkpt>
      <trkpt lat="50.00545" lon="4.32578">
        <ele>303.6</ele>
        <time>2024-03-17T08:14:44Z</time>
      </trkpt>
      <trkpt lat="50.00541" lon="4.32581">
        <ele>303.6</ele>
        <time>2024-03-17T08:14:45Z</time>
      </trkpt>
      <trkpt lat="50.00538" lon="4.32584">
        <ele>303.8</ele>
        <time>2024-03-17T08:14:46Z</time>
      </trkpt>
      <trkpt lat="50.00535" lon="4.32588">
        <ele>304</ele>
        <time>2024-03-17T08:14:47Z</time>
      </trkpt>
      <trkpt lat="50.00532" lon="4.32591">
        <ele>304.2</ele>
        <time>2024-03-17T08:14:48Z</time>
      </trkpt>
      <trkpt lat="50.00528" lon="4.32594">
        <ele>304.4</ele>
        <time>2024-03-17T08:14:49Z</time>
      </trkpt>
      <trkpt lat="50.00525" lon="4.32598">
        <ele>304.4</ele>
        <time>2024-03-17T08:14:50Z</time>
      </trkpt>
      <trkpt lat="50.00522" lon="4.32601">
        <ele>304.4</ele>
        <time>2024-03-17T08:14:51Z</time>
      </trkpt>
      <trkpt lat="50.00519" lon="4.32604">
        <ele>304.4</ele>
        <time>2024-03-17T08:14:52Z</time>
      </trkpt>
      <trkpt lat="50.00516" lon="4.32607">
        <ele>304.6</ele>
        <time>2024-03-17T08:14:53Z</time>
      </trkpt>
      <trkpt lat="50.00512" lon="4.3261">
        <ele>304.8</ele>
        <time>2024-03-17T08:14:54Z</time>
      </trkpt>
      <trkpt lat="50.00509" lon="4.32613">
        <ele>305.2</ele>
        <time>2024-03-17T08:14:55Z</time>
      </trkpt>
      <trkpt lat="50.00506" lon="4.32617">
        <ele>306</ele>
        <time>2024-03-17T08:14:56Z</time>
      </trkpt>
      <trkpt lat="50.00503" lon="4.3262">
        <ele>306.4</ele>
        <time>2024-03-17T08:14:57Z</time>
      </trkpt>
      <trkpt lat="50.005" lon="4.32623">
        <ele>306.8</ele>
        <time>2024-03-17T08:14:58Z</time>
      </trkpt>
      <trkpt lat="50.00497" lon="4.32626">
        <ele>307.4</ele>
        <time>2024-03-17T08:14:59Z</time>
      </trkpt>
      <trkpt lat="50.00494" lon="4.32629">
        <ele>307.6</ele>
        <time>2024-03-17T08:15:00Z</time>
      </trkpt>
      <trkpt lat="50.00491" lon="4.32632">
        <ele>307.8</ele>
        <time>2024-03-17T08:15:01Z</time>
      </trkpt>
      <trkpt lat="50.00487" lon="4.32635">
        <ele>308</ele>
        <time>2024-03-17T08:15:02Z</time>
      </trkpt>
      <trkpt lat="50.00484" lon="4.32638">
        <ele>308.2</ele>
        <time>2024-03-17T08:15:03Z</time>
      </trkpt>
      <trkpt lat="50.00481" lon="4.32641">
        <ele>308.4</ele>
        <time>2024-03-17T08:15:04Z</time>
      </trkpt>
      <trkpt lat="50.00478" lon="4.32645">
        <ele>308.4</ele>
        <time>2024-03-17T08:15:05Z</time>
      </trkpt>
      <trkpt lat="50.00475" lon="4.32648">
        <ele>308.6</ele>
        <time>2024-03-17T08:15:06Z</time>
      </trkpt>
      <trkpt lat="50.00471" lon="4.32651">
        <ele>308.6</ele>
        <time>2024-03-17T08:15:07Z</time>
      </trkpt>
      <trkpt lat="50.00468" lon="4.32654">
        <ele>308.8</ele>
        <time>2024-03-17T08:15:08Z</time>
      </trkpt>
      <trkpt lat="50.00465" lon="4.32658">
        <ele>308.8</ele>
        <time>2024-03-17T08:15:09Z</time>
      </trkpt>
      <trkpt lat="50.00462" lon="4.32661">
        <ele>309</ele>
        <time>2024-03-17T08:15:10Z</time>
      </trkpt>
      <trkpt lat="50.00459" lon="4.32664">
        <ele>309</ele>
        <time>2024-03-17T08:15:11Z</time>
      </trkpt>
      <trkpt lat="50.00456" lon="4.32667">
        <ele>309</ele>
        <time>2024-03-17T08:15:12Z</time>
      </trkpt>
      <trkpt lat="50.00453" lon="4.3267">
        <ele>309</ele>
        <time>2024-03-17T08:15:13Z</time>
      </trkpt>
      <trkpt lat="50.0045" lon="4.32673">
        <ele>309</ele>
        <time>2024-03-17T08:15:14Z</time>
      </trkpt>
      <trkpt lat="50.00447" lon="4.32676">
        <ele>309.2</ele>
        <time>2024-03-17T08:15:15Z</time>
      </trkpt>
      <trkpt lat="50.00444" lon="4.32679">
        <ele>309.2</ele>
        <time>2024-03-17T08:15:16Z</time>
      </trkpt>
      <trkpt lat="50.00441" lon="4.32681">
        <ele>309.4</ele>
        <time>2024-03-17T08:15:17Z</time>
      </trkpt>
      <trkpt lat="50.00438" lon="4.32684">
        <ele>309.6</ele>
        <time>2024-03-17T08:15:18Z</time>
      </trkpt>
      <trkpt lat="50.00434" lon="4.32687">
        <ele>309.6</ele>
        <time>2024-03-17T08:15:19Z</time>
      </trkpt>
      <trkpt lat="50.00431" lon="4.3269">
        <ele>309.6</ele>
        <time>2024-03-17T08:15:20Z</time>
      </trkpt>
      <trkpt lat="50.00428" lon="4.32693">
        <ele>309.8</ele>
        <time>2024-03-17T08:15:21Z</time>
      </trkpt>
      <trkpt lat="50.00425" lon="4.32696">
        <ele>309.8</ele>
        <time>2024-03-17T08:15:22Z</time>
      </trkpt>
      <trkpt lat="50.00422" lon="4.327">
        <ele>309.8</ele>
        <time>2024-03-17T08:15:23Z</time>
      </trkpt>
      <trkpt lat="50.00419" lon="4.32703">
        <ele>309.8</ele>
        <time>2024-03-17T08:15:24Z</time>
      </trkpt>
      <trkpt lat="50.00416" lon="4.32706">
        <ele>309.8</ele>
        <time>2024-03-17T08:15:25Z</time>
      </trkpt>
      <trkpt lat="50.00413" lon="4.32709">
        <ele>310</ele>
        <time>2024-03-17T08:15:26Z</time>
      </trkpt>
      <trkpt lat="50.0041" lon="4.32712">
        <ele>310</ele>
        <time>2024-03-17T08:15:27Z</time>
      </trkpt>
      <trkpt lat="50.00406" lon="4.32715">
        <ele>310.4</ele>
        <time>2024-03-17T08:15:28Z</time>
      </trkpt>
      <trkpt lat="50.00403" lon="4.32718">
        <ele>310.4</ele>
        <time>2024-03-17T08:15:29Z</time>
      </trkpt>
      <trkpt lat="50.004" lon="4.32721">
        <ele>310.6</ele>
        <time>2024-03-17T08:15:30Z</time>
      </trkpt>
      <trkpt lat="50.00397" lon="4.32724">
        <ele>310.8</ele>
        <time>2024-03-17T08:15:31Z</time>
      </trkpt>
      <trkpt lat="50.00394" lon="4.32727">
        <ele>311</ele>
        <time>2024-03-17T08:15:32Z</time>
      </trkpt>
      <trkpt lat="50.00391" lon="4.3273">
        <ele>311</ele>
        <time>2024-03-17T08:15:33Z</time>
      </trkpt>
      <trkpt lat="50.00388" lon="4.32733">
        <ele>311</ele>
        <time>2024-03-17T08:15:34Z</time>
      </trkpt>
      <trkpt lat="50.00385" lon="4.32736">
        <ele>311.2</ele>
        <time>2024-03-17T08:15:35Z</time>
      </trkpt>
      <trkpt lat="50.00381" lon="4.32739">
        <ele>311.4</ele>
        <time>2024-03-17T08:15:36Z</time>
      </trkpt>
      <trkpt lat="50.00378" lon="4.32742">
        <ele>311.6</ele>
        <time>2024-03-17T08:15:37Z</time>
      </trkpt>
      <trkpt lat="50.00375" lon="4.32745">
        <ele>311.6</ele>
        <time>2024-03-17T08:15:38Z</time>
      </trkpt>
      <trkpt lat="50.00372" lon="4.32748">
        <ele>311.6</ele>
        <time>2024-03-17T08:15:39Z</time>
      </trkpt>
      <trkpt lat="50.00369" lon="4.32751">
        <ele>311.8</ele>
        <time>2024-03-17T08:15:40Z</time>
      </trkpt>
      <trkpt lat="50.00366" lon="4.32754">
        <ele>312</ele>
        <time>2024-03-17T08:15:41Z</time>
      </trkpt>
      <trkpt lat="50.00363" lon="4.32757">
        <ele>312</ele>
        <time>2024-03-17T08:15:42Z</time>
      </trkpt>
      <trkpt lat="50.00359" lon="4.32761">
        <ele>312</ele>
        <time>2024-03-17T08:15:43Z</time>
      </trkpt>
      <trkpt lat="50.00356" lon="4.32764">
        <ele>312.2</ele>
        <time>2024-03-17T08:15:44Z</time>
      </trkpt>
      <trkpt lat="50.00353" lon="4.32767">
        <ele>312.4</ele>
        <time>2024-03-17T08:15:45Z</time>
      </trkpt>
      <trkpt lat="50.0035" lon="4.3277">
        <ele>312.8</ele>
        <time>2024-03-17T08:15:46Z</time>
      </trkpt>
      <trkpt lat="50.00347" lon="4.32773">
        <ele>312.6</ele>
        <time>2024-03-17T08:15:47Z</time>
      </trkpt>
      <trkpt lat="50.00344" lon="4.32776">
        <ele>312.8</ele>
        <time>2024-03-17T08:15:48Z</time>
      </trkpt>
      <trkpt lat="50.0034" lon="4.32779">
        <ele>312.8</ele>
        <time>2024-03-17T08:15:49Z</time>
      </trkpt>
      <trkpt lat="50.00337" lon="4.32782">
        <ele>312.8</ele>
        <time>2024-03-17T08:15:50Z</time>
      </trkpt>
      <trkpt lat="50.00334" lon="4.32786">
        <ele>312.8</ele>
        <time>2024-03-17T08:15:51Z</time>
      </trkpt>
      <trkpt lat="50.0033" lon="4.32789">
        <ele>313</ele>
        <time>2024-03-17T08:15:52Z</time>
      </trkpt>
      <trkpt lat="50.00327" lon="4.32792">
        <ele>313</ele>
        <time>2024-03-17T08:15:53Z</time>
      </trkpt>
      <trkpt lat="50.00324" lon="4.32795">
        <ele>313</ele>
        <time>2024-03-17T08:15:54Z</time>
      </trkpt>
      <trkpt lat="50.0032" lon="4.32798">
        <ele>313</ele>
        <time>2024-03-17T08:15:55Z</time>
      </trkpt>
      <trkpt lat="50.00317" lon="4.32802">
        <ele>313</ele>
        <time>2024-03-17T08:15:56Z</time>
      </trkpt>
      <trkpt lat="50.00313" lon="4.32805">
        <ele>313.2</ele>
        <time>2024-03-17T08:15:57Z</time>
      </trkpt>
      <trkpt lat="50.0031" lon="4.32808">
        <ele>313.2</ele>
        <time>2024-03-17T08:15:58Z</time>
      </trkpt>
      <trkpt lat="50.00307" lon="4.32812">
        <ele>313.2</ele>
        <time>2024-03-17T08:15:59Z</time>
      </trkpt>
      <trkpt lat="50.00303" lon="4.32815">
        <ele>313.2</ele>
        <time>2024-03-17T08:16:00Z</time>
      </trkpt>
      <trkpt lat="50.003" lon="4.32818">
        <ele>313.4</ele>
        <time>2024-03-17T08:16:01Z</time>
      </trkpt>
      <trkpt lat="50.00297" lon="4.32822">
        <ele>313.2</ele>
        <time>2024-03-17T08:16:02Z</time>
      </trkpt>
      <trkpt lat="50.00293" lon="4.32825">
        <ele>313.6</ele>
        <time>2024-03-17T08:16:03Z</time>
      </trkpt>
      <trkpt lat="50.00289" lon="4.32828">
        <ele>313.8</ele>
        <time>2024-03-17T08:16:04Z</time>
      </trkpt>
      <trkpt lat="50.00286" lon="4.32832">
        <ele>314</ele>
        <time>2024-03-17T08:16:05Z</time>
      </trkpt>
      <trkpt lat="50.00282" lon="4.32835">
        <ele>314</ele>
        <time>2024-03-17T08:16:06Z</time>
      </trkpt>
      <trkpt lat="50.00278" lon="4.32839">
        <ele>314.2</ele>
        <time>2024-03-17T08:16:07Z</time>
      </trkpt>
      <trkpt lat="50.00275" lon="4.32843">
        <ele>314.2</ele>
        <time>2024-03-17T08:16:08Z</time>
      </trkpt>
      <trkpt lat="50.00271" lon="4.32846">
        <ele>314.4</ele>
        <time>2024-03-17T08:16:09Z</time>
      </trkpt>
      <trkpt lat="50.00267" lon="4.3285">
        <ele>314.6</ele>
        <time>2024-03-17T08:16:10Z</time>
      </trkpt>
      <trkpt lat="50.00263" lon="4.32855">
        <ele>314.6</ele>
        <time>2024-03-17T08:16:11Z</time>
      </trkpt>
      <trkpt lat="50.00259" lon="4.32859">
        <ele>314.6</ele>
        <time>2024-03-17T08:16:12Z</time>
      </trkpt>
      <trkpt lat="50.00255" lon="4.32863">
        <ele>314.6</ele>
        <time>2024-03-17T08:16:13Z</time>
      </trkpt>
      <trkpt lat="50.0025" lon="4.32867">
        <ele>314.8</ele>
        <time>2024-03-17T08:16:14Z</time>
      </trkpt>
      <trkpt lat="50.00246" lon="4.32871">
        <ele>314.8</ele>
        <time>2024-03-17T08:16:15Z</time>
      </trkpt>
      <trkpt lat="50.00242" lon="4.32876">
        <ele>314.6</ele>
        <time>2024-03-17T08:16:16Z</time>
      </trkpt>
      <trkpt lat="50.00238" lon="4.3288">
        <ele>314.6</ele>
        <time>2024-03-17T08:16:17Z</time>
      </trkpt>
      <trkpt lat="50.00233" lon="4.32884">
        <ele>314.8</ele>
        <time>2024-03-17T08:16:18Z</time>
      </trkpt>
      <trkpt lat="50.00229" lon="4.32888">
        <ele>314.8</ele>
        <time>2024-03-17T08:16:19Z</time>
      </trkpt>
      <trkpt lat="50.00225" lon="4.32893">
        <ele>314.4</ele>
        <time>2024-03-17T08:16:20Z</time>
      </trkpt>
      <trkpt lat="50.0022" lon="4.32897">
        <ele>314.6</ele>
        <time>2024-03-17T08:16:21Z</time>
      </trkpt>
      <trkpt lat="50.00216" lon="4.32901">
        <ele>314.4</ele>
        <time>2024-03-17T08:16:22Z</time>
      </trkpt>
      <trkpt lat="50.00212" lon="4.32906">
        <ele>314.2</ele>
        <time>2024-03-17T08:16:23Z</time>
      </trkpt>
      <trkpt lat="50.00207" lon="4.3291">
        <ele>314</ele>
        <time>2024-03-17T08:16:24Z</time>
      </trkpt>
      <trkpt lat="50.00203" lon="4.32914">
        <ele>314</ele>
        <time>2024-03-17T08:16:25Z</time>
      </trkpt>
      <trkpt lat="50.00198" lon="4.32919">
        <ele>313.8</ele>
        <time>2024-03-17T08:16:26Z</time>
      </trkpt>
      <trkpt lat="50.00194" lon="4.32923">
        <ele>313.8</ele>
        <time>2024-03-17T08:16:27Z</time>
      </trkpt>
      <trkpt lat="50.00189" lon="4.32928">
        <ele>313.6</ele>
        <time>2024-03-17T08:16:28Z</time>
      </trkpt>
      <trkpt lat="50.00185" lon="4.32932">
        <ele>313.6</ele>
        <time>2024-03-17T08:16:29Z</time>
      </trkpt>
      <trkpt lat="50.0018" lon="4.32936">
        <ele>313.6</ele>
        <time>2024-03-17T08:16:30Z</time>
      </trkpt>
      <trkpt lat="50.00175" lon="4.32941">
        <ele>313.4</ele>
        <time>2024-03-17T08:16:31Z</time>
      </trkpt>
      <trkpt lat="50.00171" lon="4.32945">
        <ele>313.4</ele>
        <time>2024-03-17T08:16:32Z</time>
      </trkpt>
      <trkpt lat="50.00167" lon="4.3295">
        <ele>313.6</ele>
        <time>2024-03-17T08:16:33Z</time>
      </trkpt>
      <trkpt lat="50.00162" lon="4.32954">
        <ele>313.4</ele>
        <time>2024-03-17T08:16:34Z</time>
      </trkpt>
      <trkpt lat="50.00157" lon="4.32959">
        <ele>313.6</ele>
        <time>2024-03-17T08:16:35Z</time>
      </trkpt>
      <trkpt lat="50.00153" lon="4.32963">
        <ele>313.4</ele>
        <time>2024-03-17T08:16:36Z</time>
      </trkpt>
      <trkpt lat="50.00148" lon="4.32968">
        <ele>313.4</ele>
        <time>2024-03-17T08:16:37Z</time>
      </trkpt>
      <trkpt lat="50.00143" lon="4.32972">
        <ele>313.4</ele>
        <time>2024-03-17T08:16:38Z</time>
      </trkpt>
      <trkpt lat="50.00139" lon="4.32977">
        <ele>313.6</ele>
        <time>2024-03-17T08:16:39Z</time>
      </trkpt>
      <trkpt lat="50.00134" lon="4.32981">
        <ele>313.4</ele>
        <time>2024-03-17T08:16:40Z</time>
      </trkpt>
      <trkpt lat="50.00129" lon="4.32986">
        <ele>313.4</ele>
        <time>2024-03-17T08:16:41Z</time>
      </trkpt>
      <trkpt lat="50.00124" lon="4.3299">
        <ele>313.4</ele>
        <time>2024-03-17T08:16:42Z</time>
      </trkpt>
      <trkpt lat="50.00119" lon="4.32995">
        <ele>313.6</ele>
        <time>2024-03-17T08:16:43Z</time>
      </trkpt>
      <trkpt lat="50.00115" lon="4.32999">
        <ele>313.6</ele>
        <time>2024-03-17T08:16:44Z</time>
      </trkpt>
      <trkpt lat="50.0011" lon="4.33003">
        <ele>313.6</ele>
        <time>2024-03-17T08:16:45Z</time>
      </trkpt>
      <trkpt lat="50.00105" lon="4.33008">
        <ele>313.6</ele>
        <time>2024-03-17T08:16:46Z</time>
      </trkpt>
      <trkpt lat="50.001" lon="4.33012">
        <ele>313.6</ele>
        <time>2024-03-17T08:16:47Z</time>
      </trkpt>
      <trkpt lat="50.00095" lon="4.33017">
        <ele>313.6</ele>
        <time>2024-03-17T08:16:48Z</time>
      </trkpt>
      <trkpt lat="50.0009" lon="4.33021">
        <ele>313.6</ele>
        <time>2024-03-17T08:16:49Z</time>
      </trkpt>
      <trkpt lat="50.00085" lon="4.33026">
        <ele>313.6</ele>
        <time>2024-03-17T08:16:50Z</time>
      </trkpt>
      <trkpt lat="50.0008" lon="4.33031">
        <ele>313.8</ele>
        <time>2024-03-17T08:16:51Z</time>
      </trkpt>
      <trkpt lat="50.00075" lon="4.33035">
        <ele>313.6</ele>
        <time>2024-03-17T08:16:52Z</time>
      </trkpt>
      <trkpt lat="50.0007" lon="4.3304">
        <ele>313.6</ele>
        <time>2024-03-17T08:16:53Z</time>
      </trkpt>
      <trkpt lat="50.00065" lon="4.33045">
        <ele>313.8</ele>
        <time>2024-03-17T08:16:54Z</time>
      </trkpt>
      <trkpt lat="50.00059" lon="4.3305">
        <ele>313.8</ele>
        <time>2024-03-17T08:16:55Z</time>
      </trkpt>
      <trkpt lat="50.00054" lon="4.33056">
        <ele>313.6</ele>
        <time>2024-03-17T08:16:56Z</time>
      </trkpt>
      <trkpt lat="50.00049" lon="4.33061">
        <ele>313.6</ele>
        <time>2024-03-17T08:16:57Z</time>
      </trkpt>
      <trkpt lat="50.00043" lon="4.33067">
        <ele>313.6</ele>
        <time>2024-03-17T08:16:58Z</time>
      </trkpt>
      <trkpt lat="50.00037" lon="4.33072">
        <ele>313.6</ele>
        <time>2024-03-17T08:16:59Z</time>
      </trkpt>
      <trkpt lat="50.00031" lon="4.33078">
        <ele>313.6</ele>
        <time>2024-03-17T08:17:00Z</time>
      </trkpt>
      <trkpt lat="50.00025" lon="4.33084">
        <ele>313.4</ele>
        <time>2024-03-17T08:17:01Z</time>
      </trkpt>
      <trkpt lat="50.00019" lon="4.3309">
        <ele>313.4</ele>
        <time>2024-03-17T08:17:02Z</time>
      </trkpt>
      <trkpt lat="50.00013" lon="4.33096">
        <ele>313.4</ele>
        <time>2024-03-17T08:17:03Z</time>
      </trkpt>
      <trkpt lat="50.00007" lon="4.33102">
        <ele>313.2</ele>
        <time>2024-03-17T08:17:04Z</time>
      </trkpt>
      <trkpt lat="50.00001" lon="4.33108">
        <ele>313</ele>
        <time>2024-03-17T08:17:05Z</time>
      </trkpt>
      <trkpt lat="49.99994" lon="4.33113">
        <ele>312.6</ele>
        <time>2024-03-17T08:17:06Z</time>
      </trkpt>
      <trkpt lat="49.99988" lon="4.33119">
        <ele>312.6</ele>
        <time>2024-03-17T08:17:07Z</time>
      </trkpt>
      <trkpt lat="49.99982" lon="4.33124">
        <ele>312</ele>
        <time>2024-03-17T08:17:08Z</time>
      </trkpt>
      <trkpt lat="49.99976" lon="4.3313">
        <ele>311.8</ele>
        <time>2024-03-17T08:17:09Z</time>
      </trkpt>
      <trkpt lat="49.9997" lon="4.33136">
        <ele>311.4</ele>
        <time>2024-03-17T08:17:10Z</time>
      </trkpt>
      <trkpt lat="49.99964" lon="4.33142">
        <ele>310.8</ele>
        <time>2024-03-17T08:17:11Z</time>
      </trkpt>
      <trkpt lat="49.99957" lon="4.33147">
        <ele>310.4</ele>
        <time>2024-03-17T08:17:12Z</time>
      </trkpt>
      <trkpt lat="49.99951" lon="4.33153">
        <ele>310.2</ele>
        <time>2024-03-17T08:17:13Z</time>
      </trkpt>
      <trkpt lat="49.99945" lon="4.33159">
        <ele>310</ele>
        <time>2024-03-17T08:17:14Z</time>
      </trkpt>
      <trkpt lat="49.99938" lon="4.33165">
        <ele>310</ele>
        <time>2024-03-17T08:17:15Z</time>
      </trkpt>
      <trkpt lat="49.99932" lon="4.33171">
        <ele>309.8</ele>
        <time>2024-03-17T08:17:16Z</time>
      </trkpt>
      <trkpt lat="49.99925" lon="4.33177">
        <ele>309.4</ele>
        <time>2024-03-17T08:17:17Z</time>
      </trkpt>
      <trkpt lat="49.99919" lon="4.33184">
        <ele>309</ele>
        <time>2024-03-17T08:17:18Z</time>
      </trkpt>
      <trkpt lat="49.99912" lon="4.3319">
        <ele>308.8</ele>
        <time>2024-03-17T08:17:19Z</time>
      </trkpt>
      <trkpt lat="49.99905" lon="4.33197">
        <ele>308.6</ele>
        <time>2024-03-17T08:17:20Z</time>
      </trkpt>
      <trkpt lat="49.99898" lon="4.33203">
        <ele>308.2</ele>
        <time>2024-03-17T08:17:21Z</time>
      </trkpt>
      <trkpt lat="49.99891" lon="4.33211">
        <ele>308</ele>
        <time>2024-03-17T08:17:22Z</time>
      </trkpt>
      <trkpt lat="49.99884" lon="4.33218">
        <ele>307.8</ele>
        <time>2024-03-17T08:17:23Z</time>
      </trkpt>
      <trkpt lat="49.99877" lon="4.33225">
        <ele>307.8</ele>
        <time>2024-03-17T08:17:24Z</time>
      </trkpt>
      <trkpt lat="49.9987" lon="4.33232">
        <ele>307.8</ele>
        <time>2024-03-17T08:17:25Z</time>
      </trkpt>
      <trkpt lat="49.99862" lon="4.33239">
        <ele>307.2</ele>
        <time>2024-03-17T08:17:26Z</time>
      </trkpt>
      <trkpt lat="49.99854" lon="4.33246">
        <ele>306.8</ele>
        <time>2024-03-17T08:17:27Z</time>
      </trkpt>
      <trkpt lat="49.99847" lon="4.33254">
        <ele>306.4</ele>
        <time>2024-03-17T08:17:28Z</time>
      </trkpt>
      <trkpt lat="49.99839" lon="4.33261">
        <ele>306.2</ele>
        <time>2024-03-17T08:17:29Z</time>
      </trkpt>
      <trkpt lat="49.99832" lon="4.33269">
        <ele>305.6</ele>
        <time>2024-03-17T08:17:30Z</time>
      </trkpt>
      <trkpt lat="49.99824" lon="4.33277">
        <ele>305.2</ele>
        <time>2024-03-17T08:17:31Z</time>
      </trkpt>
      <trkpt lat="49.99815" lon="4.33285">
        <ele>305.2</ele>
        <time>2024-03-17T08:17:32Z</time>
      </trkpt>
      <trkpt lat="49.99807" lon="4.33293">
        <ele>305</ele>
        <time>2024-03-17T08:17:33Z</time>
      </trkpt>
      <trkpt lat="49.99798" lon="4.33301">
        <ele>304.4</ele>
        <time>2024-03-17T08:17:34Z</time>
      </trkpt>
      <trkpt lat="49.9979" lon="4.3331">
        <ele>304</ele>
        <time>2024-03-17T08:17:35Z</time>
      </trkpt>
      <trkpt lat="49.99781" lon="4.33318">
        <ele>303.4</ele>
        <time>2024-03-17T08:17:36Z</time>
      </trkpt>
      <trkpt lat="49.99772" lon="4.33327">
        <ele>302.6</ele>
        <time>2024-03-17T08:17:37Z</time>
      </trkpt>
      <trkpt lat="49.99763" lon="4.33336">
        <ele>301.6</ele>
        <time>2024-03-17T08:17:38Z</time>
      </trkpt>
      <trkpt lat="49.99754" lon="4.33345">
        <ele>301</ele>
        <time>2024-03-17T08:17:39Z</time>
      </trkpt>
      <trkpt lat="49.99744" lon="4.33354">
        <ele>301</ele>
        <time>2024-03-17T08:17:40Z</time>
      </trkpt>
      <trkpt lat="49.99735" lon="4.33363">
        <ele>300.2</ele>
        <time>2024-03-17T08:17:41Z</time>
      </trkpt>
      <trkpt lat="49.99725" lon="4.33373">
        <ele>299.2</ele>
        <time>2024-03-17T08:17:42Z</time>
      </trkpt>
      <trkpt lat="49.99716" lon="4.33382">
        <ele>298.2</ele>
        <time>2024-03-17T08:17:43Z</time>
      </trkpt>
      <trkpt lat="49.99707" lon="4.33391">
        <ele>297.4</ele>
        <time>2024-03-17T08:17:44Z</time>
      </trkpt>
      <trkpt lat="49.99698" lon="4.334">
        <ele>296.6</ele>
        <time>2024-03-17T08:17:45Z</time>
      </trkpt>
      <trkpt lat="49.99689" lon="4.33409">
        <ele>296.2</ele>
        <time>2024-03-17T08:17:46Z</time>
      </trkpt>
      <trkpt lat="49.9968" lon="4.33417">
        <ele>295</ele>
        <time>2024-03-17T08:17:47Z</time>
      </trkpt>
      <trkpt lat="49.99672" lon="4.33424">
        <ele>294.4</ele>
        <time>2024-03-17T08:17:48Z</time>
      </trkpt>
      <trkpt lat="49.99664" lon="4.33432">
        <ele>294</ele>
        <time>2024-03-17T08:17:49Z</time>
      </trkpt>
      <trkpt lat="49.99657" lon="4.33439">
        <ele>293</ele>
        <time>2024-03-17T08:17:50Z</time>
      </trkpt>
      <trkpt lat="49.9965" lon="4.33447">
        <ele>293</ele>
        <time>2024-03-17T08:17:51Z</time>
      </trkpt>
      <trkpt lat="49.99644" lon="4.33453">
        <ele>292.4</ele>
        <time>2024-03-17T08:17:52Z</time>
      </trkpt>
      <trkpt lat="49.99637" lon="4.3346">
        <ele>292.2</ele>
        <time>2024-03-17T08:17:53Z</time>
      </trkpt>
      <trkpt lat="49.99631" lon="4.33466">
        <ele>292.2</ele>
        <time>2024-03-17T08:17:54Z</time>
      </trkpt>
      <trkpt lat="49.99625" lon="4.33472">
        <ele>291.8</ele>
        <time>2024-03-17T08:17:55Z</time>
      </trkpt>
      <trkpt lat="49.99619" lon="4.33477">
        <ele>292</ele>
        <time>2024-03-17T08:17:56Z</time>
      </trkpt>
      <trkpt lat="49.99613" lon="4.33483">
        <ele>292</ele>
        <time>2024-03-17T08:17:57Z</time>
      </trkpt>
      <trkpt lat="49.99608" lon="4.33489">
        <ele>291.8</ele>
        <time>2024-03-17T08:17:58Z</time>
      </trkpt>
      <trkpt lat="49.99602" lon="4.33494">
        <ele>292</ele>
        <time>2024-03-17T08:17:59Z</time>
      </trkpt>
      <trkpt lat="49.99597" lon="4.33499">
        <ele>291.8</ele>
        <time>2024-03-17T08:18:00Z</time>
      </trkpt>
      <trkpt lat="49.99592" lon="4.33504">
        <ele>292</ele>
        <time>2024-03-17T08:18:01Z</time>
      </trkpt>
      <trkpt lat="49.99587" lon="4.33509">
        <ele>292.2</ele>
        <time>2024-03-17T08:18:02Z</time>
      </trkpt>
      <trkpt lat="49.99583" lon="4.33514">
        <ele>292.6</ele>
        <time>2024-03-17T08:18:03Z</time>
      </trkpt>
      <trkpt lat="49.99578" lon="4.33519">
        <ele>293</ele>
        <time>2024-03-17T08:18:04Z</time>
      </trkpt>
      <trkpt lat="49.99573" lon="4.33523">
        <ele>293.4</ele>
        <time>2024-03-17T08:18:05Z</time>
      </trkpt>
      <trkpt lat="49.99569" lon="4.33528">
        <ele>294</ele>
        <time>2024-03-17T08:18:06Z</time>
      </trkpt>
      <trkpt lat="49.99565" lon="4.33532">
        <ele>294.6</ele>
        <time>2024-03-17T08:18:07Z</time>
      </trkpt>
      <trkpt lat="49.9956" lon="4.33536">
        <ele>294.6</ele>
        <time>2024-03-17T08:18:08Z</time>
      </trkpt>
      <trkpt lat="49.99556" lon="4.3354">
        <ele>294.8</ele>
        <time>2024-03-17T08:18:09Z</time>
      </trkpt>
      <trkpt lat="49.99552" lon="4.33544">
        <ele>295.4</ele>
        <time>2024-03-17T08:18:10Z</time>
      </trkpt>
      <trkpt lat="49.99548" lon="4.33548">
        <ele>295.4</ele>
        <time>2024-03-17T08:18:11Z</time>
      </trkpt>
      <trkpt lat="49.99545" lon="4.33552">
        <ele>295.8</ele>
        <time>2024-03-17T08:18:12Z</time>
      </trkpt>
      <trkpt lat="49.99541" lon="4.33556">
        <ele>296.2</ele>
        <time>2024-03-17T08:18:13Z</time>
      </trkpt>
      <trkpt lat="49.99537" lon="4.3356">
        <ele>296.2</ele>
        <time>2024-03-17T08:18:14Z</time>
      </trkpt>
      <trkpt lat="49.99533" lon="4.33563">
        <ele>296.6</ele>
        <time>2024-03-17T08:18:15Z</time>
      </trkpt>
      <trkpt lat="49.9953" lon="4.33567">
        <ele>296.4</ele>
        <time>2024-03-17T08:18:16Z</time>
      </trkpt>
      <trkpt lat="49.99526" lon="4.3357">
        <ele>296.6</ele>
        <time>2024-03-17T08:18:17Z</time>
      </trkpt>
      <trkpt lat="49.99523" lon="4.33574">
        <ele>297</ele>
        <time>2024-03-17T08:18:18Z</time>
      </trkpt>
      <trkpt lat="49.99519" lon="4.33577">
        <ele>297</ele>
        <time>2024-03-17T08:18:19Z</time>
      </trkpt>
      <trkpt lat="49.99516" lon="4.33581">
        <ele>297.2</ele>
        <time>2024-03-17T08:18:20Z</time>
      </trkpt>
      <trkpt lat="49.99512" lon="4.33584">
        <ele>297.2</ele>
        <time>2024-03-17T08:18:21Z</time>
      </trkpt>
      <trkpt lat="49.99509" lon="4.33588">
        <ele>297.4</ele>
        <time>2024-03-17T08:18:22Z</time>
      </trkpt>
      <trkpt lat="49.99505" lon="4.33591">
        <ele>297.4</ele>
        <time>2024-03-17T08:18:23Z</time>
      </trkpt>
      <trkpt lat="49.99502" lon="4.33595">
        <ele>297.8</ele>
        <time>2024-03-17T08:18:24Z</time>
      </trkpt>
      <trkpt lat="49.99499" lon="4.33598">
        <ele>297.8</ele>
        <time>2024-03-17T08:18:25Z</time>
      </trkpt>
      <trkpt lat="49.99495" lon="4.33601">
        <ele>297.8</ele>
        <time>2024-03-17T08:18:26Z</time>
      </trkpt>
      <trkpt lat="49.99492" lon="4.33604">
        <ele>298.4</ele>
        <time>2024-03-17T08:18:27Z</time>
      </trkpt>
      <trkpt lat="49.99489" lon="4.33608">
        <ele>298.8</ele>
        <time>2024-03-17T08:18:28Z</time>
      </trkpt>
      <trkpt lat="49.99485" lon="4.33611">
        <ele>299</ele>
        <time>2024-03-17T08:18:29Z</time>
      </trkpt>
      <trkpt lat="49.99482" lon="4.33615">
        <ele>299.6</ele>
        <time>2024-03-17T08:18:30Z</time>
      </trkpt>
      <trkpt lat="49.99479" lon="4.33618">
        <ele>299.8</ele>
        <time>2024-03-17T08:18:31Z</time>
      </trkpt>
      <trkpt lat="49.99476" lon="4.33621">
        <ele>300.2</ele>
        <time>2024-03-17T08:18:32Z</time>
      </trkpt>
      <trkpt lat="49.99473" lon="4.33624">
        <ele>300.4</ele>
        <time>2024-03-17T08:18:33Z</time>
      </trkpt>
      <trkpt lat="49.99469" lon="4.33627">
        <ele>300.8</ele>
        <time>2024-03-17T08:18:34Z</time>
      </trkpt>
      <trkpt lat="49.99466" lon="4.33631">
        <ele>301.4</ele>
        <time>2024-03-17T08:18:35Z</time>
      </trkpt>
      <trkpt lat="49.99462" lon="4.33634">
        <ele>301.6</ele>
        <time>2024-03-17T08:18:36Z</time>
      </trkpt>
      <trkpt lat="49.99458" lon="4.33638">
        <ele>301.8</ele>
        <time>2024-03-17T08:18:37Z</time>
      </trkpt>
      <trkpt lat="49.99455" lon="4.33641">
        <ele>301.8</ele>
        <time>2024-03-17T08:18:38Z</time>
      </trkpt>
      <trkpt lat="49.99451" lon="4.33645">
        <ele>302</ele>
        <time>2024-03-17T08:18:39Z</time>
      </trkpt>
      <trkpt lat="49.99447" lon="4.33648">
        <ele>302.2</ele>
        <time>2024-03-17T08:18:40Z</time>
      </trkpt>
      <trkpt lat="49.99443" lon="4.33652">
        <ele>302</ele>
        <time>2024-03-17T08:18:41Z</time>
      </trkpt>
      <trkpt lat="49.9944" lon="4.33655">
        <ele>302</ele>
        <time>2024-03-17T08:18:42Z</time>
      </trkpt>
      <trkpt lat="49.99436" lon="4.33659">
        <ele>302</ele>
        <time>2024-03-17T08:18:43Z</time>
      </trkpt>
      <trkpt lat="49.99432" lon="4.33663">
        <ele>302</ele>
        <time>2024-03-17T08:18:44Z</time>
      </trkpt>
      <trkpt lat="49.99428" lon="4.33667">
        <ele>302.2</ele>
        <time>2024-03-17T08:18:45Z</time>
      </trkpt>
      <trkpt lat="49.99423" lon="4.33671">
        <ele>302</ele>
        <time>2024-03-17T08:18:46Z</time>
      </trkpt>
      <trkpt lat="49.99419" lon="4.33675">
        <ele>302</ele>
        <time>2024-03-17T08:18:47Z</time>
      </trkpt>
      <trkpt lat="49.99415" lon="4.33678">
        <ele>302</ele>
        <time>2024-03-17T08:18:48Z</time>
      </trkpt>
      <trkpt lat="49.99411" lon="4.33682">
        <ele>302</ele>
        <time>2024-03-17T08:18:49Z</time>
      </trkpt>
      <trkpt lat="49.99406" lon="4.33686">
        <ele>301.8</ele>
        <time>2024-03-17T08:18:50Z</time>
      </trkpt>
      <trkpt lat="49.99402" lon="4.33689">
        <ele>302</ele>
        <time>2024-03-17T08:18:51Z</time>
      </trkpt>
      <trkpt lat="49.99397" lon="4.33692">
        <ele>302</ele>
        <time>2024-03-17T08:18:52Z</time>
      </trkpt>
      <trkpt lat="49.99393" lon="4.33695">
        <ele>302</ele>
        <time>2024-03-17T08:18:53Z</time>
      </trkpt>
      <trkpt lat="49.99389" lon="4.33698">
        <ele>302</ele>
        <time>2024-03-17T08:18:54Z</time>
      </trkpt>
      <trkpt lat="49.99384" lon="4.33701">
        <ele>302</ele>
        <time>2024-03-17T08:18:55Z</time>
      </trkpt>
      <trkpt lat="49.9938" lon="4.33703">
        <ele>302</ele>
        <time>2024-03-17T08:18:56Z</time>
      </trkpt>
      <trkpt lat="49.99375" lon="4.33705">
        <ele>302</ele>
        <time>2024-03-17T08:18:57Z</time>
      </trkpt>
      <trkpt lat="49.99371" lon="4.33707">
        <ele>302.2</ele>
        <time>2024-03-17T08:18:58Z</time>
      </trkpt>
      <trkpt lat="49.99366" lon="4.33708">
        <ele>302.4</ele>
        <time>2024-03-17T08:18:59Z</time>
      </trkpt>
      <trkpt lat="49.99362" lon="4.3371">
        <ele>302.4</ele>
        <time>2024-03-17T08:19:00Z</time>
      </trkpt>
      <trkpt lat="49.99357" lon="4.33711">
        <ele>302.4</ele>
        <time>2024-03-17T08:19:01Z</time>
      </trkpt>
      <trkpt lat="49.99353" lon="4.33713">
        <ele>302.4</ele>
        <time>2024-03-17T08:19:02Z</time>
      </trkpt>
      <trkpt lat="49.99348" lon="4.33715">
        <ele>302.6</ele>
        <time>2024-03-17T08:19:03Z</time>
      </trkpt>
      <trkpt lat="49.99344" lon="4.33716">
        <ele>303</ele>
        <time>2024-03-17T08:19:04Z</time>
      </trkpt>
      <trkpt lat="49.9934" lon="4.33718">
        <ele>303.4</ele>
        <time>2024-03-17T08:19:05Z</time>
      </trkpt>
      <trkpt lat="49.99335" lon="4.33719">
        <ele>303.8</ele>
        <time>2024-03-17T08:19:06Z</time>
      </trkpt>
      <trkpt lat="49.99331" lon="4.3372">
        <ele>304</ele>
        <time>2024-03-17T08:19:07Z</time>
      </trkpt>
      <trkpt lat="49.99327" lon="4.33721">
        <ele>304.2</ele>
        <time>2024-03-17T08:19:08Z</time>
      </trkpt>
      <trkpt lat="49.99323" lon="4.33722">
        <ele>304.4</ele>
        <time>2024-03-17T08:19:09Z</time>
      </trkpt>
      <trkpt lat="49.99318" lon="4.33724">
        <ele>304.6</ele>
        <time>2024-03-17T08:19:10Z</time>
      </trkpt>
      <trkpt lat="49.99314" lon="4.33725">
        <ele>304.6</ele>
        <time>2024-03-17T08:19:11Z</time>
      </trkpt>
      <trkpt lat="49.9931" lon="4.33727">
        <ele>304.8</ele>
        <time>2024-03-17T08:19:12Z</time>
      </trkpt>
      <trkpt lat="49.99305" lon="4.33728">
        <ele>304.6</ele>
        <time>2024-03-17T08:19:13Z</time>
      </trkpt>
      <trkpt lat="49.99301" lon="4.33729">
        <ele>304.8</ele>
        <time>2024-03-17T08:19:14Z</time>
      </trkpt>
      <trkpt lat="49.99297" lon="4.33731">
        <ele>304.8</ele>
        <time>2024-03-17T08:19:15Z</time>
      </trkpt>
      <trkpt lat="49.99293" lon="4.33732">
        <ele>304.8</ele>
        <time>2024-03-17T08:19:16Z</time>
      </trkpt>
      <trkpt lat="49.99288" lon="4.33733">
        <ele>305</ele>
        <time>2024-03-17T08:19:17Z</time>
      </trkpt>
      <trkpt lat="49.99284" lon="4.33735">
        <ele>304.8</ele>
        <time>2024-03-17T08:19:18Z</time>
      </trkpt>
      <trkpt lat="49.9928" lon="4.33736">
        <ele>305.2</ele>
        <time>2024-03-17T08:19:19Z</time>
      </trkpt>
      <trkpt lat="49.99276" lon="4.33737">
        <ele>305.2</ele>
        <time>2024-03-17T08:19:20Z</time>
      </trkpt>
      <trkpt lat="49.99271" lon="4.33738">
        <ele>305</ele>
        <time>2024-03-17T08:19:21Z</time>
      </trkpt>
      <trkpt lat="49.99267" lon="4.3374">
        <ele>305.2</ele>
        <time>2024-03-17T08:19:22Z</time>
      </trkpt>
      <trkpt lat="49.99262" lon="4.33741">
        <ele>305.2</ele>
        <time>2024-03-17T08:19:23Z</time>
      </trkpt>
      <trkpt lat="49.99258" lon="4.33743">
        <ele>305.2</ele>
        <time>2024-03-17T08:19:24Z</time>
      </trkpt>
      <trkpt lat="49.99253" lon="4.33744">
        <ele>305.4</ele>
        <time>2024-03-17T08:19:25Z</time>
      </trkpt>
      <trkpt lat="49.99249" lon="4.33745">
        <ele>305.6</ele>
        <time>2024-03-17T08:19:26Z</time>
      </trkpt>
      <trkpt lat="49.99245" lon="4.33746">
        <ele>305.8</ele>
        <time>2024-03-17T08:19:27Z</time>
      </trkpt>
      <trkpt lat="49.9924" lon="4.33748">
        <ele>306.2</ele>
        <time>2024-03-17T08:19:28Z</time>
      </trkpt>
      <trkpt lat="49.99235" lon="4.3375">
        <ele>306.4</ele>
        <time>2024-03-17T08:19:29Z</time>
      </trkpt>
      <trkpt lat="49.99231" lon="4.33751">
        <ele>306.4</ele>
        <time>2024-03-17T08:19:30Z</time>
      </trkpt>
      <trkpt lat="49.99226" lon="4.33753">
        <ele>306.4</ele>
        <time>2024-03-17T08:19:31Z</time>
      </trkpt>
      <trkpt lat="49.99221" lon="4.33755">
        <ele>306.8</ele>
        <time>2024-03-17T08:19:32Z</time>
      </trkpt>
      <trkpt lat="49.99217" lon="4.33756">
        <ele>306.6</ele>
        <time>2024-03-17T08:19:33Z</time>
      </trkpt>
      <trkpt lat="49.99212" lon="4.33758">
        <ele>306.6</ele>
        <time>2024-03-17T08:19:34Z</time>
      </trkpt>
      <trkpt lat="49.99207" lon="4.33759">
        <ele>306.8</ele>
        <time>2024-03-17T08:19:35Z</time>
      </trkpt>
      <trkpt lat="49.99202" lon="4.33761">
        <ele>307</ele>
        <time>2024-03-17T08:19:36Z</time>
      </trkpt>
      <trkpt lat="49.99197" lon="4.33763">
        <ele>307</ele>
        <time>2024-03-17T08:19:37Z</time>
      </trkpt>
      <trkpt lat="49.99192" lon="4.33765">
        <ele>307</ele>
        <time>2024-03-17T08:19:38Z</time>
      </trkpt>
      <trkpt lat="49.99187" lon="4.33766">
        <ele>307</ele>
        <time>2024-03-17T08:19:39Z</time>
      </trkpt>
      <trkpt lat="49.99182" lon="4.33769">
        <ele>307</ele>
        <time>2024-03-17T08:19:40Z</time>
      </trkpt>
      <trkpt lat="49.99177" lon="4.33771">
        <ele>307</ele>
        <time>2024-03-17T08:19:41Z</time>
      </trkpt>
      <trkpt lat="49.99172" lon="4.33774">
        <ele>307</ele>
        <time>2024-03-17T08:19:42Z</time>
      </trkpt>
      <trkpt lat="49.99167" lon="4.33776">
        <ele>307.2</ele>
        <time>2024-03-17T08:19:43Z</time>
      </trkpt>
      <trkpt lat="49.99162" lon="4.33778">
        <ele>307.2</ele>
        <time>2024-03-17T08:19:44Z</time>
      </trkpt>
      <trkpt lat="49.99157" lon="4.33781">
        <ele>307.2</ele>
        <time>2024-03-17T08:19:45Z</time>
      </trkpt>
      <trkpt lat="49.99152" lon="4.33783">
        <ele>307</ele>
        <time>2024-03-17T08:19:46Z</time>
      </trkpt>
      <trkpt lat="49.99147" lon="4.33786">
        <ele>307.2</ele>
        <time>2024-03-17T08:19:47Z</time>
      </trkpt>
      <trkpt lat="49.99142" lon="4.33789">
        <ele>307.2</ele>
        <time>2024-03-17T08:19:48Z</time>
      </trkpt>
      <trkpt lat="49.99138" lon="4.33792">
        <ele>307.2</ele>
        <time>2024-03-17T08:19:49Z</time>
      </trkpt>
      <trkpt lat="49.99133" lon="4.33795">
        <ele>307.4</ele>
        <time>2024-03-17T08:19:50Z</time>
      </trkpt>
      <trkpt lat="49.99129" lon="4.33798">
        <ele>307.4</ele>
        <time>2024-03-17T08:19:51Z</time>
      </trkpt>
      <trkpt lat="49.99124" lon="4.33802">
        <ele>307.4</ele>
        <time>2024-03-17T08:19:52Z</time>
      </trkpt>
      <trkpt lat="49.99119" lon="4.33805">
        <ele>307.4</ele>
        <time>2024-03-17T08:19:53Z</time>
      </trkpt>
      <trkpt lat="49.99115" lon="4.33808">
        <ele>307.6</ele>
        <time>2024-03-17T08:19:54Z</time>
      </trkpt>
      <trkpt lat="49.9911" lon="4.33811">
        <ele>307.8</ele>
        <time>2024-03-17T08:19:55Z</time>
      </trkpt>
      <trkpt lat="49.99106" lon="4.33815">
        <ele>308</ele>
        <time>2024-03-17T08:19:56Z</time>
      </trkpt>
      <trkpt lat="49.99101" lon="4.33818">
        <ele>308.2</ele>
        <time>2024-03-17T08:19:57Z</time>
      </trkpt>
      <trkpt lat="49.99097" lon="4.33821">
        <ele>308.4</ele>
        <time>2024-03-17T08:19:58Z</time>
      </trkpt>
      <trkpt lat="49.99093" lon="4.33825">
        <ele>308.2</ele>
        <time>2024-03-17T08:19:59Z</time>
      </trkpt>
      <trkpt lat="49.99088" lon="4.33829">
        <ele>308.4</ele>
        <time>2024-03-17T08:20:00Z</time>
      </trkpt>
      <trkpt lat="49.99084" lon="4.33833">
        <ele>308.4</ele>
        <time>2024-03-17T08:20:01Z</time>
      </trkpt>
      <trkpt lat="49.9908" lon="4.33836">
        <ele>308.4</ele>
        <time>2024-03-17T08:20:02Z</time>
      </trkpt>
      <trkpt lat="49.99076" lon="4.3384">
        <ele>308.4</ele>
        <time>2024-03-17T08:20:03Z</time>
      </trkpt>
      <trkpt lat="49.99072" lon="4.33844">
        <ele>308.6</ele>
        <time>2024-03-17T08:20:04Z</time>
      </trkpt>
      <trkpt lat="49.99068" lon="4.33848">
        <ele>308.8</ele>
        <time>2024-03-17T08:20:05Z</time>
      </trkpt>
      <trkpt lat="49.99064" lon="4.33852">
        <ele>309</ele>
        <time>2024-03-17T08:20:06Z</time>
      </trkpt>
      <trkpt lat="49.9906" lon="4.33856">
        <ele>309</ele>
        <time>2024-03-17T08:20:07Z</time>
      </trkpt>
      <trkpt lat="49.99057" lon="4.3386">
        <ele>309.2</ele>
        <time>2024-03-17T08:20:08Z</time>
      </trkpt>
      <trkpt lat="49.99053" lon="4.33864">
        <ele>309.2</ele>
        <time>2024-03-17T08:20:09Z</time>
      </trkpt>
      <trkpt lat="49.99049" lon="4.33869">
        <ele>309.4</ele>
        <time>2024-03-17T08:20:10Z</time>
      </trkpt>
      <trkpt lat="49.99045" lon="4.33873">
        <ele>309.6</ele>
        <time>2024-03-17T08:20:11Z</time>
      </trkpt>
      <trkpt lat="49.99042" lon="4.33877">
        <ele>309.8</ele>
        <time>2024-03-17T08:20:12Z</time>
      </trkpt>
      <trkpt lat="49.99038" lon="4.33882">
        <ele>309.8</ele>
        <time>2024-03-17T08:20:13Z</time>
      </trkpt>
      <trkpt lat="49.99034" lon="4.33887">
        <ele>309.8</ele>
        <time>2024-03-17T08:20:14Z</time>
      </trkpt>
      <trkpt lat="49.99031" lon="4.33892">
        <ele>309.8</ele>
        <time>2024-03-17T08:20:15Z</time>
      </trkpt>
      <trkpt lat="49.99027" lon="4.33897">
        <ele>309.8</ele>
        <time>2024-03-17T08:20:16Z</time>
      </trkpt>
      <trkpt lat="49.99024" lon="4.33902">
        <ele>309.8</ele>
        <time>2024-03-17T08:20:17Z</time>
      </trkpt>
      <trkpt lat="49.9902" lon="4.33907">
        <ele>310</ele>
        <time>2024-03-17T08:20:18Z</time>
      </trkpt>
      <trkpt lat="49.99017" lon="4.33912">
        <ele>310.2</ele>
        <time>2024-03-17T08:20:19Z</time>
      </trkpt>
      <trkpt lat="49.99013" lon="4.33917">
        <ele>310.2</ele>
        <time>2024-03-17T08:20:20Z</time>
      </trkpt>
      <trkpt lat="49.9901" lon="4.33923">
        <ele>310.2</ele>
        <time>2024-03-17T08:20:21Z</time>
      </trkpt>
      <trkpt lat="49.99007" lon="4.33928">
        <ele>310.2</ele>
        <time>2024-03-17T08:20:22Z</time>
      </trkpt>
      <trkpt lat="49.99004" lon="4.33934">
        <ele>310.2</ele>
        <time>2024-03-17T08:20:23Z</time>
      </trkpt>
      <trkpt lat="49.99001" lon="4.3394">
        <ele>310.2</ele>
        <time>2024-03-17T08:20:24Z</time>
      </trkpt>
      <trkpt lat="49.98997" lon="4.33945">
        <ele>310.4</ele>
        <time>2024-03-17T08:20:25Z</time>
      </trkpt>
      <trkpt lat="49.98994" lon="4.33951">
        <ele>310.4</ele>
        <time>2024-03-17T08:20:26Z</time>
      </trkpt>
      <trkpt lat="49.98991" lon="4.33957">
        <ele>310.4</ele>
        <time>2024-03-17T08:20:27Z</time>
      </trkpt>
      <trkpt lat="49.98987" lon="4.33963">
        <ele>310.6</ele>
        <time>2024-03-17T08:20:28Z</time>
      </trkpt>
      <trkpt lat="49.98984" lon="4.33969">
        <ele>310.6</ele>
        <time>2024-03-17T08:20:29Z</time>
      </trkpt>
      <trkpt lat="49.98981" lon="4.33975">
        <ele>310.8</ele>
        <time>2024-03-17T08:20:30Z</time>
      </trkpt>
      <trkpt lat="49.98977" lon="4.33981">
        <ele>311</ele>
        <time>2024-03-17T08:20:31Z</time>
      </trkpt>
      <trkpt lat="49.98974" lon="4.33987">
        <ele>311</ele>
        <time>2024-03-17T08:20:32Z</time>
      </trkpt>
      <trkpt lat="49.9897" lon="4.33992">
        <ele>311.2</ele>
        <time>2024-03-17T08:20:33Z</time>
      </trkpt>
      <trkpt lat="49.98967" lon="4.33998">
        <ele>311.4</ele>
        <time>2024-03-17T08:20:34Z</time>
      </trkpt>
      <trkpt lat="49.98963" lon="4.34004">
        <ele>311.4</ele>
        <time>2024-03-17T08:20:35Z</time>
      </trkpt>
      <trkpt lat="49.9896" lon="4.3401">
        <ele>311.4</ele>
        <time>2024-03-17T08:20:36Z</time>
      </trkpt>
      <trkpt lat="49.98956" lon="4.34016">
        <ele>311.4</ele>
        <time>2024-03-17T08:20:37Z</time>
      </trkpt>
      <trkpt lat="49.98953" lon="4.34022">
        <ele>311.4</ele>
        <time>2024-03-17T08:20:38Z</time>
      </trkpt>
      <trkpt lat="49.98949" lon="4.34028">
        <ele>311.4</ele>
        <time>2024-03-17T08:20:39Z</time>
      </trkpt>
      <trkpt lat="49.98946" lon="4.34034">
        <ele>311.6</ele>
        <time>2024-03-17T08:20:40Z</time>
      </trkpt>
      <trkpt lat="49.98942" lon="4.34041">
        <ele>311.8</ele>
        <time>2024-03-17T08:20:41Z</time>
      </trkpt>
      <trkpt lat="49.98938" lon="4.34047">
        <ele>311.8</ele>
        <time>2024-03-17T08:20:42Z</time>
      </trkpt>
      <trkpt lat="49.98935" lon="4.34053">
        <ele>311.8</ele>
        <time>2024-03-17T08:20:43Z</time>
      </trkpt>
      <trkpt lat="49.98931" lon="4.34059">
        <ele>311.8</ele>
        <time>2024-03-17T08:20:44Z</time>
      </trkpt>
      <trkpt lat="49.98928" lon="4.34065">
        <ele>311.6</ele>
        <time>2024-03-17T08:20:45Z</time>
      </trkpt>
      <trkpt lat="49.98925" lon="4.34071">
        <ele>311.8</ele>
        <time>2024-03-17T08:20:46Z</time>
      </trkpt>
      <trkpt lat="49.98921" lon="4.34077">
        <ele>311.8</ele>
        <time>2024-03-17T08:20:47Z</time>
      </trkpt>
      <trkpt lat="49.98918" lon="4.34083">
        <ele>311.8</ele>
        <time>2024-03-17T08:20:48Z</time>
      </trkpt>
      <trkpt lat="49.98914" lon="4.34088">
        <ele>311.8</ele>
        <time>2024-03-17T08:20:49Z</time>
      </trkpt>
      <trkpt lat="49.98911" lon="4.34094">
        <ele>312</ele>
        <time>2024-03-17T08:20:50Z</time>
      </trkpt>
      <trkpt lat="49.98907" lon="4.341">
        <ele>312</ele>
        <time>2024-03-17T08:20:51Z</time>
      </trkpt>
      <trkpt lat="49.98903" lon="4.34105">
        <ele>312</ele>
        <time>2024-03-17T08:20:52Z</time>
      </trkpt>
      <trkpt lat="49.989" lon="4.34111">
        <ele>312</ele>
        <time>2024-03-17T08:20:53Z</time>
      </trkpt>
      <trkpt lat="49.98897" lon="4.34117">
        <ele>312</ele>
        <time>2024-03-17T08:20:54Z</time>
      </trkpt>
      <trkpt lat="49.98893" lon="4.34123">
        <ele>312</ele>
        <time>2024-03-17T08:20:55Z</time>
      </trkpt>
      <trkpt lat="49.9889" lon="4.34128">
        <ele>312</ele>
        <time>2024-03-17T08:20:56Z</time>
      </trkpt>
      <trkpt lat="49.98886" lon="4.34134">
        <ele>312.2</ele>
        <time>2024-03-17T08:20:57Z</time>
      </trkpt>
      <trkpt lat="49.98883" lon="4.3414">
        <ele>312</ele>
        <time>2024-03-17T08:20:58Z</time>
      </trkpt>
      <trkpt lat="49.9888" lon="4.34146">
        <ele>312.2</ele>
        <time>2024-03-17T08:20:59Z</time>
      </trkpt>
      <trkpt lat="49.98876" lon="4.34151">
        <ele>312.2</ele>
        <time>2024-03-17T08:21:00Z</time>
      </trkpt>
      <trkpt lat="49.98873" lon="4.34157">
        <ele>312.4</ele>
        <time>2024-03-17T08:21:01Z</time>
      </trkpt>
      <trkpt lat="49.98869" lon="4.34163">
        <ele>312.4</ele>
        <time>2024-03-17T08:21:02Z</time>
      </trkpt>
      <trkpt lat="49.98866" lon="4.34168">
        <ele>312.4</ele>
        <time>2024-03-17T08:21:03Z</time>
      </trkpt>
      <trkpt lat="49.98862" lon="4.34174">
        <ele>312.8</ele>
        <time>2024-03-17T08:21:04Z</time>
      </trkpt>
      <trkpt lat="49.98858" lon="4.34179">
        <ele>312.8</ele>
        <time>2024-03-17T08:21:05Z</time>
      </trkpt>
      <trkpt lat="49.98855" lon="4.34184">
        <ele>312.8</ele>
        <time>2024-03-17T08:21:06Z</time>
      </trkpt>
      <trkpt lat="49.98851" lon="4.3419">
        <ele>312.8</ele>
        <time>2024-03-17T08:21:07Z</time>
      </trkpt>
      <trkpt lat="49.98848" lon="4.34196">
        <ele>313</ele>
        <time>2024-03-17T08:21:08Z</time>
      </trkpt>
      <trkpt lat="49.98844" lon="4.34201">
        <ele>312.8</ele>
        <time>2024-03-17T08:21:09Z</time>
      </trkpt>
      <trkpt lat="49.98841" lon="4.34207">
        <ele>312.8</ele>
        <time>2024-03-17T08:21:10Z</time>
      </trkpt>
      <trkpt lat="49.98837" lon="4.34212">
        <ele>313</ele>
        <time>2024-03-17T08:21:11Z</time>
      </trkpt>
      <trkpt lat="49.98833" lon="4.34217">
        <ele>312.8</ele>
        <time>2024-03-17T08:21:12Z</time>
      </trkpt>
      <trkpt lat="49.9883" lon="4.34222">
        <ele>313</ele>
        <time>2024-03-17T08:21:13Z</time>
      </trkpt>
      <trkpt lat="49.98826" lon="4.34226">
        <ele>313</ele>
        <time>2024-03-17T08:21:14Z</time>
      </trkpt>
      <trkpt lat="49.98823" lon="4.3423">
        <ele>313</ele>
        <time>2024-03-17T08:21:15Z</time>
      </trkpt>
      <trkpt lat="49.9882" lon="4.34234">
        <ele>313</ele>
        <time>2024-03-17T08:21:16Z</time>
      </trkpt>
      <trkpt lat="49.98817" lon="4.34238">
        <ele>313</ele>
        <time>2024-03-17T08:21:17Z</time>
      </trkpt>
      <trkpt lat="49.98814" lon="4.34244">
        <ele>313.2</ele>
        <time>2024-03-17T08:21:18Z</time>
      </trkpt>
      <trkpt lat="49.98811" lon="4.34248">
        <ele>313.2</ele>
        <time>2024-03-17T08:21:19Z</time>
      </trkpt>
      <trkpt lat="49.98808" lon="4.34253">
        <ele>313.2</ele>
        <time>2024-03-17T08:21:20Z</time>
      </trkpt>
      <trkpt lat="49.98804" lon="4.34258">
        <ele>313.2</ele>
        <time>2024-03-17T08:21:21Z</time>
      </trkpt>
      <trkpt lat="49.98801" lon="4.34262">
        <ele>313.2</ele>
        <time>2024-03-17T08:21:22Z</time>
      </trkpt>
      <trkpt lat="49.98798" lon="4.34266">
        <ele>313.2</ele>
        <time>2024-03-17T08:21:23Z</time>
      </trkpt>
      <trkpt lat="49.98795" lon="4.3427">
        <ele>313.2</ele>
        <time>2024-03-17T08:21:24Z</time>
      </trkpt>
      <trkpt lat="49.98792" lon="4.34275">
        <ele>313.2</ele>
        <time>2024-03-17T08:21:25Z</time>
      </trkpt>
      <trkpt lat="49.98788" lon="4.3428">
        <ele>313.4</ele>
        <time>2024-03-17T08:21:26Z</time>
      </trkpt>
      <trkpt lat="49.98785" lon="4.34283">
        <ele>313.6</ele>
        <time>2024-03-17T08:21:27Z</time>
      </trkpt>
      <trkpt lat="49.98782" lon="4.34287">
        <ele>313.6</ele>
        <time>2024-03-17T08:21:28Z</time>
      </trkpt>
      <trkpt lat="49.98778" lon="4.34293">
        <ele>313.6</ele>
        <time>2024-03-17T08:21:29Z</time>
      </trkpt>
      <trkpt lat="49.98775" lon="4.34297">
        <ele>313.8</ele>
        <time>2024-03-17T08:21:30Z</time>
      </trkpt>
      <trkpt lat="49.98772" lon="4.343">
        <ele>313.8</ele>
        <time>2024-03-17T08:21:31Z</time>
      </trkpt>
      <trkpt lat="49.98768" lon="4.34304">
        <ele>314.2</ele>
        <time>2024-03-17T08:21:32Z</time>
      </trkpt>
      <trkpt lat="49.98765" lon="4.34308">
        <ele>314.4</ele>
        <time>2024-03-17T08:21:33Z</time>
      </trkpt>
      <trkpt lat="49.98762" lon="4.34312">
        <ele>314.4</ele>
        <time>2024-03-17T08:21:34Z</time>
      </trkpt>
      <trkpt lat="49.98758" lon="4.34315">
        <ele>315.4</ele>
        <time>2024-03-17T08:21:35Z</time>
      </trkpt>
      <trkpt lat="49.98754" lon="4.34319">
        <ele>316</ele>
        <time>2024-03-17T08:21:36Z</time>
      </trkpt>
      <trkpt lat="49.98751" lon="4.34322">
        <ele>316.4</ele>
        <time>2024-03-17T08:21:37Z</time>
      </trkpt>
      <trkpt lat="49.98747" lon="4.34326">
        <ele>316.4</ele>
        <time>2024-03-17T08:21:38Z</time>
      </trkpt>
      <trkpt lat="49.98743" lon="4.3433">
        <ele>316.6</ele>
        <time>2024-03-17T08:21:39Z</time>
      </trkpt>
      <trkpt lat="49.98739" lon="4.34334">
        <ele>316.6</ele>
        <time>2024-03-17T08:21:40Z</time>
      </trkpt>
      <trkpt lat="49.98735" lon="4.34338">
        <ele>316.6</ele>
        <time>2024-03-17T08:21:41Z</time>
      </trkpt>
      <trkpt lat="49.98731" lon="4.34342">
        <ele>316.8</ele>
        <time>2024-03-17T08:21:42Z</time>
      </trkpt>
      <trkpt lat="49.98727" lon="4.34345">
        <ele>317</ele>
        <time>2024-03-17T08:21:43Z</time>
      </trkpt>
      <trkpt lat="49.98723" lon="4.34348">
        <ele>317</ele>
        <time>2024-03-17T08:21:44Z</time>
      </trkpt>
      <trkpt lat="49.98719" lon="4.34351">
        <ele>317.2</ele>
        <time>2024-03-17T08:21:45Z</time>
      </trkpt>
      <trkpt lat="49.98715" lon="4.34354">
        <ele>317</ele>
        <time>2024-03-17T08:21:46Z</time>
      </trkpt>
      <trkpt lat="49.98711" lon="4.34358">
        <ele>317.2</ele>
        <time>2024-03-17T08:21:47Z</time>
      </trkpt>
      <trkpt lat="49.98707" lon="4.34363">
        <ele>317.4</ele>
        <time>2024-03-17T08:21:48Z</time>
      </trkpt>
      <trkpt lat="49.98703" lon="4.34366">
        <ele>317.4</ele>
        <time>2024-03-17T08:21:49Z</time>
      </trkpt>
      <trkpt lat="49.98699" lon="4.34369">
        <ele>317.4</ele>
        <time>2024-03-17T08:21:50Z</time>
      </trkpt>
      <trkpt lat="49.98695" lon="4.34373">
        <ele>317.6</ele>
        <time>2024-03-17T08:21:51Z</time>
      </trkpt>
      <trkpt lat="49.98691" lon="4.34377">
        <ele>317.6</ele>
        <time>2024-03-17T08:21:52Z</time>
      </trkpt>
      <trkpt lat="49.98687" lon="4.34382">
        <ele>318</ele>
        <time>2024-03-17T08:21:53Z</time>
      </trkpt>
      <trkpt lat="49.98682" lon="4.34385">
        <ele>317.8</ele>
        <time>2024-03-17T08:21:54Z</time>
      </trkpt>
      <trkpt lat="49.98678" lon="4.34387">
        <ele>318</ele>
        <time>2024-03-17T08:21:55Z</time>
      </trkpt>
      <trkpt lat="49.98674" lon="4.34391">
        <ele>318.2</ele>
        <time>2024-03-17T08:21:56Z</time>
      </trkpt>
      <trkpt lat="49.98669" lon="4.34394">
        <ele>318.4</ele>
        <time>2024-03-17T08:21:57Z</time>
      </trkpt>
      <trkpt lat="49.98665" lon="4.34397">
        <ele>318.4</ele>
        <time>2024-03-17T08:21:58Z</time>
      </trkpt>
      <trkpt lat="49.9866" lon="4.34401">
        <ele>318.4</ele>
        <time>2024-03-17T08:21:59Z</time>
      </trkpt>
      <trkpt lat="49.98656" lon="4.34407">
        <ele>318.4</ele>
        <time>2024-03-17T08:22:00Z</time>
      </trkpt>
      <trkpt lat="49.98651" lon="4.34411">
        <ele>318.6</ele>
        <time>2024-03-17T08:22:01Z</time>
      </trkpt>
      <trkpt lat="49.98647" lon="4.34414">
        <ele>318.4</ele>
        <time>2024-03-17T08:22:02Z</time>
      </trkpt>
      <trkpt lat="49.98642" lon="4.34417">
        <ele>318.6</ele>
        <time>2024-03-17T08:22:03Z</time>
      </trkpt>
      <trkpt lat="49.98637" lon="4.34421">
        <ele>318.4</ele>
        <time>2024-03-17T08:22:04Z</time>
      </trkpt>
      <trkpt lat="49.98633" lon="4.34425">
        <ele>318.4</ele>
        <time>2024-03-17T08:22:05Z</time>
      </trkpt>
      <trkpt lat="49.98628" lon="4.34428">
        <ele>318.4</ele>
        <time>2024-03-17T08:22:06Z</time>
      </trkpt>
      <trkpt lat="49.98623" lon="4.34432">
        <ele>318.4</ele>
        <time>2024-03-17T08:22:07Z</time>
      </trkpt>
      <trkpt lat="49.98619" lon="4.34436">
        <ele>318.4</ele>
        <time>2024-03-17T08:22:08Z</time>
      </trkpt>
      <trkpt lat="49.98614" lon="4.34439">
        <ele>318.4</ele>
        <time>2024-03-17T08:22:09Z</time>
      </trkpt>
      <trkpt lat="49.98609" lon="4.34443">
        <ele>318.2</ele>
        <time>2024-03-17T08:22:10Z</time>
      </trkpt>
      <trkpt lat="49.98603" lon="4.34445">
        <ele>318.2</ele>
        <time>2024-03-17T08:22:11Z</time>
      </trkpt>
      <trkpt lat="49.98598" lon="4.34448">
        <ele>318.2</ele>
        <time>2024-03-17T08:22:12Z</time>
      </trkpt>
      <trkpt lat="49.98593" lon="4.3445">
        <ele>318</ele>
        <time>2024-03-17T08:22:13Z</time>
      </trkpt>
      <trkpt lat="49.98589" lon="4.34455">
        <ele>318</ele>
        <time>2024-03-17T08:22:14Z</time>
      </trkpt>
      <trkpt lat="49.98583" lon="4.34458">
        <ele>318</ele>
        <time>2024-03-17T08:22:15Z</time>
      </trkpt>
      <trkpt lat="49.98578" lon="4.34459">
        <ele>318</ele>
        <time>2024-03-17T08:22:16Z</time>
      </trkpt>
      <trkpt lat="49.98573" lon="4.34462">
        <ele>318</ele>
        <time>2024-03-17T08:22:17Z</time>
      </trkpt>
      <trkpt lat="49.98568" lon="4.34464">
        <ele>318</ele>
        <time>2024-03-17T08:22:18Z</time>
      </trkpt>
      <trkpt lat="49.98563" lon="4.34467">
        <ele>317.8</ele>
        <time>2024-03-17T08:22:19Z</time>
      </trkpt>
      <trkpt lat="49.98558" lon="4.3447">
        <ele>317.8</ele>
        <time>2024-03-17T08:22:20Z</time>
      </trkpt>
      <trkpt lat="49.98554" lon="4.34472">
        <ele>317.8</ele>
        <time>2024-03-17T08:22:21Z</time>
      </trkpt>
      <trkpt lat="49.98549" lon="4.34474">
        <ele>317.8</ele>
        <time>2024-03-17T08:22:22Z</time>
      </trkpt>
      <trkpt lat="49.98545" lon="4.34476">
        <ele>317.8</ele>
        <time>2024-03-17T08:22:23Z</time>
      </trkpt>
      <trkpt lat="49.9854" lon="4.34477">
        <ele>318</ele>
        <time>2024-03-17T08:22:24Z</time>
      </trkpt>
      <trkpt lat="49.98535" lon="4.34479">
        <ele>318</ele>
        <time>2024-03-17T08:22:25Z</time>
      </trkpt>
      <trkpt lat="49.9853" lon="4.34481">
        <ele>318.2</ele>
        <time>2024-03-17T08:22:26Z</time>
      </trkpt>
      <trkpt lat="49.98526" lon="4.34483">
        <ele>318.2</ele>
        <time>2024-03-17T08:22:27Z</time>
      </trkpt>
      <trkpt lat="49.98521" lon="4.34484">
        <ele>318.4</ele>
        <time>2024-03-17T08:22:28Z</time>
      </trkpt>
      <trkpt lat="49.98517" lon="4.34486">
        <ele>318.4</ele>
        <time>2024-03-17T08:22:29Z</time>
      </trkpt>
      <trkpt lat="49.98512" lon="4.34487">
        <ele>318.4</ele>
        <time>2024-03-17T08:22:30Z</time>
      </trkpt>
      <trkpt lat="49.98507" lon="4.34488">
        <ele>318.6</ele>
        <time>2024-03-17T08:22:31Z</time>
      </trkpt>
      <trkpt lat="49.98502" lon="4.34489">
        <ele>318.6</ele>
        <time>2024-03-17T08:22:32Z</time>
      </trkpt>
      <trkpt lat="49.98498" lon="4.34491">
        <ele>318.6</ele>
        <time>2024-03-17T08:22:33Z</time>
      </trkpt>
      <trkpt lat="49.98493" lon="4.34492">
        <ele>318.6</ele>
        <time>2024-03-17T08:22:34Z</time>
      </trkpt>
      <trkpt lat="49.98488" lon="4.34494">
        <ele>318.8</ele>
        <time>2024-03-17T08:22:35Z</time>
      </trkpt>
      <trkpt lat="49.98483" lon="4.34498">
        <ele>318.8</ele>
        <time>2024-03-17T08:22:36Z</time>
      </trkpt>
      <trkpt lat="49.98479" lon="4.34501">
        <ele>319</ele>
        <time>2024-03-17T08:22:37Z</time>
      </trkpt>
      <trkpt lat="49.98474" lon="4.34504">
        <ele>318.8</ele>
        <time>2024-03-17T08:22:38Z</time>
      </trkpt>
      <trkpt lat="49.9847" lon="4.34507">
        <ele>319</ele>
        <time>2024-03-17T08:22:39Z</time>
      </trkpt>
      <trkpt lat="49.98465" lon="4.34509">
        <ele>319</ele>
        <time>2024-03-17T08:22:40Z</time>
      </trkpt>
      <trkpt lat="49.9846" lon="4.34512">
        <ele>319.2</ele>
        <time>2024-03-17T08:22:41Z</time>
      </trkpt>
      <trkpt lat="49.98456" lon="4.34514">
        <ele>319.2</ele>
        <time>2024-03-17T08:22:42Z</time>
      </trkpt>
      <trkpt lat="49.98451" lon="4.34516">
        <ele>319.4</ele>
        <time>2024-03-17T08:22:43Z</time>
      </trkpt>
      <trkpt lat="49.98446" lon="4.34518">
        <ele>320.2</ele>
        <time>2024-03-17T08:22:44Z</time>
      </trkpt>
      <trkpt lat="49.98441" lon="4.3452">
        <ele>320.4</ele>
        <time>2024-03-17T08:22:45Z</time>
      </trkpt>
      <trkpt lat="49.98436" lon="4.34523">
        <ele>320.6</ele>
        <time>2024-03-17T08:22:46Z</time>
      </trkpt>
      <trkpt lat="49.98432" lon="4.34525">
        <ele>320.8</ele>
        <time>2024-03-17T08:22:47Z</time>
      </trkpt>
      <trkpt lat="49.98427" lon="4.34527">
        <ele>320.8</ele>
        <time>2024-03-17T08:22:48Z</time>
      </trkpt>
      <trkpt lat="49.98422" lon="4.34529">
        <ele>320.8</ele>
        <time>2024-03-17T08:22:49Z</time>
      </trkpt>
      <trkpt lat="49.98417" lon="4.34532">
        <ele>320.8</ele>
        <time>2024-03-17T08:22:50Z</time>
      </trkpt>
      <trkpt lat="49.98411" lon="4.34534">
        <ele>320.8</ele>
        <time>2024-03-17T08:22:51Z</time>
      </trkpt>
      <trkpt lat="49.98406" lon="4.34536">
        <ele>320.8</ele>
        <time>2024-03-17T08:22:52Z</time>
      </trkpt>
      <trkpt lat="49.984" lon="4.34538">
        <ele>320.8</ele>
        <time>2024-03-17T08:22:53Z</time>
      </trkpt>
      <trkpt lat="49.98395" lon="4.34541">
        <ele>321</ele>
        <time>2024-03-17T08:22:54Z</time>
      </trkpt>
      <trkpt lat="49.98389" lon="4.34543">
        <ele>320.6</ele>
        <time>2024-03-17T08:22:55Z</time>
      </trkpt>
      <trkpt lat="49.98383" lon="4.34546">
        <ele>320.4</ele>
        <time>2024-03-17T08:22:56Z</time>
      </trkpt>
      <trkpt lat="49.98377" lon="4.34549">
        <ele>320.4</ele>
        <time>2024-03-17T08:22:57Z</time>
      </trkpt>
      <trkpt lat="49.98371" lon="4.34552">
        <ele>320.2</ele>
        <time>2024-03-17T08:22:58Z</time>
      </trkpt>
      <trkpt lat="49.98365" lon="4.34554">
        <ele>320</ele>
        <time>2024-03-17T08:22:59Z</time>
      </trkpt>
      <trkpt lat="49.98359" lon="4.34557">
        <ele>320</ele>
        <time>2024-03-17T08:23:00Z</time>
      </trkpt>
      <trkpt lat="49.98353" lon="4.3456">
        <ele>320</ele>
        <time>2024-03-17T08:23:01Z</time>
      </trkpt>
      <trkpt lat="49.98346" lon="4.34562">
        <ele>319.8</ele>
        <time>2024-03-17T08:23:02Z</time>
      </trkpt>
      <trkpt lat="49.98339" lon="4.34564">
        <ele>319.6</ele>
        <time>2024-03-17T08:23:03Z</time>
      </trkpt>
      <trkpt lat="49.98333" lon="4.34567">
        <ele>319.8</ele>
        <time>2024-03-17T08:23:04Z</time>
      </trkpt>
      <trkpt lat="49.98326" lon="4.34569">
        <ele>319.4</ele>
        <time>2024-03-17T08:23:05Z</time>
      </trkpt>
      <trkpt lat="49.98319" lon="4.34572">
        <ele>319.4</ele>
        <time>2024-03-17T08:23:06Z</time>
      </trkpt>
      <trkpt lat="49.98312" lon="4.34574">
        <ele>319</ele>
        <time>2024-03-17T08:23:07Z</time>
      </trkpt>
      <trkpt lat="49.98305" lon="4.34577">
        <ele>319</ele>
        <time>2024-03-17T08:23:08Z</time>
      </trkpt>
      <trkpt lat="49.98298" lon="4.3458">
        <ele>319</ele>
        <time>2024-03-17T08:23:09Z</time>
      </trkpt>
      <trkpt lat="49.98291" lon="4.34583">
        <ele>318.4</ele>
        <time>2024-03-17T08:23:10Z</time>
      </trkpt>
      <trkpt lat="49.98284" lon="4.34586">
        <ele>318.4</ele>
        <time>2024-03-17T08:23:11Z</time>
      </trkpt>
      <trkpt lat="49.98276" lon="4.34589">
        <ele>318.2</ele>
        <time>2024-03-17T08:23:12Z</time>
      </trkpt>
      <trkpt lat="49.98268" lon="4.34593">
        <ele>317.2</ele>
        <time>2024-03-17T08:23:13Z</time>
      </trkpt>
      <trkpt lat="49.9826" lon="4.34596">
        <ele>316.6</ele>
        <time>2024-03-17T08:23:14Z</time>
      </trkpt>
      <trkpt lat="49.98252" lon="4.346">
        <ele>316.2</ele>
        <time>2024-03-17T08:23:15Z</time>
      </trkpt>
      <trkpt lat="49.98244" lon="4.34603">
        <ele>315.2</ele>
        <time>2024-03-17T08:23:16Z</time>
      </trkpt>
      <trkpt lat="49.98236" lon="4.34607">
        <ele>315</ele>
        <time>2024-03-17T08:23:17Z</time>
      </trkpt>
      <trkpt lat="49.98228" lon="4.3461">
        <ele>314.6</ele>
        <time>2024-03-17T08:23:18Z</time>
      </trkpt>
      <trkpt lat="49.98219" lon="4.34613">
        <ele>313.8</ele>
        <time>2024-03-17T08:23:19Z</time>
      </trkpt>
      <trkpt lat="49.98211" lon="4.34616">
        <ele>313.4</ele>
        <time>2024-03-17T08:23:20Z</time>
      </trkpt>
      <trkpt lat="49.98202" lon="4.3462">
        <ele>313</ele>
        <time>2024-03-17T08:23:21Z</time>
      </trkpt>
      <trkpt lat="49.98193" lon="4.34623">
        <ele>312.6</ele>
        <time>2024-03-17T08:23:22Z</time>
      </trkpt>
      <trkpt lat="49.98183" lon="4.34627">
        <ele>312</ele>
        <time>2024-03-17T08:23:23Z</time>
      </trkpt>
      <trkpt lat="49.98174" lon="4.3463">
        <ele>311.6</ele>
        <time>2024-03-17T08:23:24Z</time>
      </trkpt>
      <trkpt lat="49.98165" lon="4.34634">
        <ele>311.6</ele>
        <time>2024-03-17T08:23:25Z</time>
      </trkpt>
      <trkpt lat="49.98155" lon="4.34638">
        <ele>311.6</ele>
        <time>2024-03-17T08:23:26Z</time>
      </trkpt>
      <trkpt lat="49.98145" lon="4.34642">
        <ele>311.2</ele>
        <time>2024-03-17T08:23:27Z</time>
      </trkpt>
      <trkpt lat="49.98135" lon="4.34645">
        <ele>310.4</ele>
        <time>2024-03-17T08:23:28Z</time>
      </trkpt>
      <trkpt lat="49.98125" lon="4.34649">
        <ele>310.4</ele>
        <time>2024-03-17T08:23:29Z</time>
      </trkpt>
      <trkpt lat="49.98115" lon="4.34653">
        <ele>309.8</ele>
        <time>2024-03-17T08:23:30Z</time>
      </trkpt>
      <trkpt lat="49.98105" lon="4.34657">
        <ele>309.4</ele>
        <time>2024-03-17T08:23:31Z</time>
      </trkpt>
      <trkpt lat="49.98094" lon="4.34661">
        <ele>309</ele>
        <time>2024-03-17T08:23:32Z</time>
      </trkpt>
      <trkpt lat="49.98084" lon="4.34665">
        <ele>308.6</ele>
        <time>2024-03-17T08:23:33Z</time>
      </trkpt>
      <trkpt lat="49.98073" lon="4.34669">
        <ele>307.8</ele>
        <time>2024-03-17T08:23:34Z</time>
      </trkpt>
      <trkpt lat="49.98063" lon="4.34673">
        <ele>307</ele>
        <time>2024-03-17T08:23:35Z</time>
      </trkpt>
      <trkpt lat="49.98052" lon="4.34678">
        <ele>306.2</ele>
        <time>2024-03-17T08:23:36Z</time>
      </trkpt>
      <trkpt lat="49.98041" lon="4.34682">
        <ele>305.8</ele>
        <time>2024-03-17T08:23:37Z</time>
      </trkpt>
      <trkpt lat="49.98031" lon="4.34687">
        <ele>304.4</ele>
        <time>2024-03-17T08:23:38Z</time>
      </trkpt>
      <trkpt lat="49.9802" lon="4.34691">
        <ele>303.6</ele>
        <time>2024-03-17T08:23:39Z</time>
      </trkpt>
      <trkpt lat="49.98009" lon="4.34695">
        <ele>303</ele>
        <time>2024-03-17T08:23:40Z</time>
      </trkpt>
      <trkpt lat="49.97998" lon="4.34699">
        <ele>301.8</ele>
        <time>2024-03-17T08:23:41Z</time>
      </trkpt>
      <trkpt lat="49.97987" lon="4.34703">
        <ele>301</ele>
        <time>2024-03-17T08:23:42Z</time>
      </trkpt>
      <trkpt lat="49.97976" lon="4.34707">
        <ele>300.4</ele>
        <time>2024-03-17T08:23:43Z</time>
      </trkpt>
      <trkpt lat="49.97965" lon="4.34712">
        <ele>299.4</ele>
        <time>2024-03-17T08:23:44Z</time>
      </trkpt>
      <trkpt lat="49.97955" lon="4.34716">
        <ele>298.6</ele>
        <time>2024-03-17T08:23:45Z</time>
      </trkpt>
      <trkpt lat="49.97945" lon="4.34719">
        <ele>298.6</ele>
        <time>2024-03-17T08:23:46Z</time>
      </trkpt>
      <trkpt lat="49.97935" lon="4.34723">
        <ele>298.2</ele>
        <time>2024-03-17T08:23:47Z</time>
      </trkpt>
      <trkpt lat="49.97925" lon="4.34726">
        <ele>297.4</ele>
        <time>2024-03-17T08:23:48Z</time>
      </trkpt>
      <trkpt lat="49.97916" lon="4.34729">
        <ele>297.2</ele>
        <time>2024-03-17T08:23:49Z</time>
      </trkpt>
      <trkpt lat="49.97907" lon="4.34733">
        <ele>296.6</ele>
        <time>2024-03-17T08:23:50Z</time>
      </trkpt>
      <trkpt lat="49.97899" lon="4.34736">
        <ele>296.2</ele>
        <time>2024-03-17T08:23:51Z</time>
      </trkpt>
      <trkpt lat="49.9789" lon="4.34739">
        <ele>296</ele>
        <time>2024-03-17T08:23:52Z</time>
      </trkpt>
      <trkpt lat="49.97882" lon="4.34742">
        <ele>295.8</ele>
        <time>2024-03-17T08:23:53Z</time>
      </trkpt>
      <trkpt lat="49.97874" lon="4.34744">
        <ele>295.6</ele>
        <time>2024-03-17T08:23:54Z</time>
      </trkpt>
      <trkpt lat="49.97866" lon="4.34747">
        <ele>295.6</ele>
        <time>2024-03-17T08:23:55Z</time>
      </trkpt>
      <trkpt lat="49.97858" lon="4.3475">
        <ele>295.4</ele>
        <time>2024-03-17T08:23:56Z</time>
      </trkpt>
      <trkpt lat="49.9785" lon="4.34753">
        <ele>295.4</ele>
        <time>2024-03-17T08:23:57Z</time>
      </trkpt>
      <trkpt lat="49.97843" lon="4.34755">
        <ele>295.2</ele>
        <time>2024-03-17T08:23:58Z</time>
      </trkpt>
      <trkpt lat="49.97836" lon="4.34758">
        <ele>295.4</ele>
        <time>2024-03-17T08:23:59Z</time>
      </trkpt>
      <trkpt lat="49.97829" lon="4.34761">
        <ele>295.4</ele>
        <time>2024-03-17T08:24:00Z</time>
      </trkpt>
      <trkpt lat="49.97822" lon="4.34763">
        <ele>295.4</ele>
        <time>2024-03-17T08:24:01Z</time>
      </trkpt>
      <trkpt lat="49.97815" lon="4.34765">
        <ele>295.6</ele>
        <time>2024-03-17T08:24:02Z</time>
      </trkpt>
      <trkpt lat="49.97808" lon="4.34767">
        <ele>295.6</ele>
        <time>2024-03-17T08:24:03Z</time>
      </trkpt>
      <trkpt lat="49.97802" lon="4.34769">
        <ele>295.6</ele>
        <time>2024-03-17T08:24:04Z</time>
      </trkpt>
      <trkpt lat="49.97796" lon="4.34771">
        <ele>295.6</ele>
        <time>2024-03-17T08:24:05Z</time>
      </trkpt>
      <trkpt lat="49.9779" lon="4.34773">
        <ele>295.6</ele>
        <time>2024-03-17T08:24:06Z</time>
      </trkpt>
      <trkpt lat="49.97784" lon="4.34775">
        <ele>295.6</ele>
        <time>2024-03-17T08:24:07Z</time>
      </trkpt>
      <trkpt lat="49.97779" lon="4.34777">
        <ele>295.8</ele>
        <time>2024-03-17T08:24:08Z</time>
      </trkpt>
      <trkpt lat="49.97773" lon="4.34778">
        <ele>296</ele>
        <time>2024-03-17T08:24:09Z</time>
      </trkpt>
      <trkpt lat="49.97768" lon="4.34779">
        <ele>296</ele>
        <time>2024-03-17T08:24:10Z</time>
      </trkpt>
      <trkpt lat="49.97763" lon="4.34781">
        <ele>296</ele>
        <time>2024-03-17T08:24:11Z</time>
      </trkpt>
      <trkpt lat="49.97757" lon="4.34783">
        <ele>296.2</ele>
        <time>2024-03-17T08:24:12Z</time>
      </trkpt>
      <trkpt lat="49.97752" lon="4.34785">
        <ele>296.4</ele>
        <time>2024-03-17T08:24:13Z</time>
      </trkpt>
      <trkpt lat="49.97747" lon="4.34787">
        <ele>296.6</ele>
        <time>2024-03-17T08:24:14Z</time>
      </trkpt>
      <trkpt lat="49.97742" lon="4.34789">
        <ele>296.6</ele>
        <time>2024-03-17T08:24:15Z</time>
      </trkpt>
      <trkpt lat="49.97737" lon="4.34791">
        <ele>296.8</ele>
        <time>2024-03-17T08:24:16Z</time>
      </trkpt>
      <trkpt lat="49.97732" lon="4.34793">
        <ele>297</ele>
        <time>2024-03-17T08:24:17Z</time>
      </trkpt>
      <trkpt lat="49.97727" lon="4.34795">
        <ele>297</ele>
        <time>2024-03-17T08:24:18Z</time>
      </trkpt>
      <trkpt lat="49.97722" lon="4.34798">
        <ele>296.8</ele>
        <time>2024-03-17T08:24:19Z</time>
      </trkpt>
      <trkpt lat="49.97717" lon="4.348">
        <ele>297</ele>
        <time>2024-03-17T08:24:20Z</time>
      </trkpt>
      <trkpt lat="49.97712" lon="4.34801">
        <ele>297.2</ele>
        <time>2024-03-17T08:24:21Z</time>
      </trkpt>
      <trkpt lat="49.97707" lon="4.34803">
        <ele>297</ele>
        <time>2024-03-17T08:24:22Z</time>
      </trkpt>
      <trkpt lat="49.97702" lon="4.34805">
        <ele>297</ele>
        <time>2024-03-17T08:24:23Z</time>
      </trkpt>
      <trkpt lat="49.97697" lon="4.34807">
        <ele>297</ele>
        <time>2024-03-17T08:24:24Z</time>
      </trkpt>
      <trkpt lat="49.97692" lon="4.34809">
        <ele>297</ele>
        <time>2024-03-17T08:24:25Z</time>
      </trkpt>
      <trkpt lat="49.97687" lon="4.34811">
        <ele>297</ele>
        <time>2024-03-17T08:24:26Z</time>
      </trkpt>
      <trkpt lat="49.97683" lon="4.34813">
        <ele>297.2</ele>
        <time>2024-03-17T08:24:27Z</time>
      </trkpt>
      <trkpt lat="49.97678" lon="4.34815">
        <ele>297.2</ele>
        <time>2024-03-17T08:24:28Z</time>
      </trkpt>
      <trkpt lat="49.97673" lon="4.34817">
        <ele>297.4</ele>
        <time>2024-03-17T08:24:29Z</time>
      </trkpt>
      <trkpt lat="49.97668" lon="4.34819">
        <ele>297.4</ele>
        <time>2024-03-17T08:24:30Z</time>
      </trkpt>
      <trkpt lat="49.97664" lon="4.34821">
        <ele>297.4</ele>
        <time>2024-03-17T08:24:31Z</time>
      </trkpt>
      <trkpt lat="49.97659" lon="4.34823">
        <ele>297.4</ele>
        <time>2024-03-17T08:24:32Z</time>
      </trkpt>
      <trkpt lat="49.97654" lon="4.34825">
        <ele>298.2</ele>
        <time>2024-03-17T08:24:33Z</time>
      </trkpt>
      <trkpt lat="49.97648" lon="4.34827">
        <ele>298.6</ele>
        <time>2024-03-17T08:24:34Z</time>
      </trkpt>
      <trkpt lat="49.97643" lon="4.34828">
        <ele>299</ele>
        <time>2024-03-17T08:24:35Z</time>
      </trkpt>
      <trkpt lat="49.97639" lon="4.3483">
        <ele>299.2</ele>
        <time>2024-03-17T08:24:36Z</time>
      </trkpt>
      <trkpt lat="49.97635" lon="4.34832">
        <ele>299.4</ele>
        <time>2024-03-17T08:24:37Z</time>
      </trkpt>
      <trkpt lat="49.9763" lon="4.34834">
        <ele>299.6</ele>
        <time>2024-03-17T08:24:38Z</time>
      </trkpt>
      <trkpt lat="49.97625" lon="4.34836">
        <ele>299.8</ele>
        <time>2024-03-17T08:24:39Z</time>
      </trkpt>
      <trkpt lat="49.9762" lon="4.34838">
        <ele>299.8</ele>
        <time>2024-03-17T08:24:40Z</time>
      </trkpt>
      <trkpt lat="49.97616" lon="4.34841">
        <ele>300</ele>
        <time>2024-03-17T08:24:41Z</time>
      </trkpt>
      <trkpt lat="49.97612" lon="4.34843">
        <ele>300</ele>
        <time>2024-03-17T08:24:42Z</time>
      </trkpt>
      <trkpt lat="49.97607" lon="4.34845">
        <ele>300.4</ele>
        <time>2024-03-17T08:24:43Z</time>
      </trkpt>
      <trkpt lat="49.97603" lon="4.34846">
        <ele>300.6</ele>
        <time>2024-03-17T08:24:44Z</time>
      </trkpt>
      <trkpt lat="49.97598" lon="4.34848">
        <ele>300.8</ele>
        <time>2024-03-17T08:24:45Z</time>
      </trkpt>
      <trkpt lat="49.97594" lon="4.34851">
        <ele>300.8</ele>
        <time>2024-03-17T08:24:46Z</time>
      </trkpt>
      <trkpt lat="49.9759" lon="4.34853">
        <ele>301</ele>
        <time>2024-03-17T08:24:47Z</time>
      </trkpt>
      <trkpt lat="49.97585" lon="4.34855">
        <ele>301.2</ele>
        <time>2024-03-17T08:24:48Z</time>
      </trkpt>
      <trkpt lat="49.97581" lon="4.34857">
        <ele>301.4</ele>
        <time>2024-03-17T08:24:49Z</time>
      </trkpt>
      <trkpt lat="49.97577" lon="4.34859">
        <ele>301.4</ele>
        <time>2024-03-17T08:24:50Z</time>
      </trkpt>
      <trkpt lat="49.97572" lon="4.34861">
        <ele>301.4</ele>
        <time>2024-03-17T08:24:51Z</time>
      </trkpt>
      <trkpt lat="49.97568" lon="4.34864">
        <ele>301.6</ele>
        <time>2024-03-17T08:24:52Z</time>
      </trkpt>
      <trkpt lat="49.97563" lon="4.34866">
        <ele>301.8</ele>
        <time>2024-03-17T08:24:53Z</time>
      </trkpt>
      <trkpt lat="49.97559" lon="4.34868">
        <ele>302</ele>
        <time>2024-03-17T08:24:54Z</time>
      </trkpt>
      <trkpt lat="49.97554" lon="4.3487">
        <ele>302</ele>
        <time>2024-03-17T08:24:55Z</time>
      </trkpt>
      <trkpt lat="49.9755" lon="4.34872">
        <ele>302</ele>
        <time>2024-03-17T08:24:56Z</time>
      </trkpt>
      <trkpt lat="49.97545" lon="4.34874">
        <ele>302</ele>
        <time>2024-03-17T08:24:57Z</time>
      </trkpt>
      <trkpt lat="49.97541" lon="4.34876">
        <ele>302.2</ele>
        <time>2024-03-17T08:24:58Z</time>
      </trkpt>
      <trkpt lat="49.97536" lon="4.34879">
        <ele>302.2</ele>
        <time>2024-03-17T08:24:59Z</time>
      </trkpt>
      <trkpt lat="49.97532" lon="4.34881">
        <ele>302.4</ele>
        <time>2024-03-17T08:25:00Z</time>
      </trkpt>
      <trkpt lat="49.97528" lon="4.34883">
        <ele>302.4</ele>
        <time>2024-03-17T08:25:01Z</time>
      </trkpt>
      <trkpt lat="49.97524" lon="4.34885">
        <ele>302.4</ele>
        <time>2024-03-17T08:25:02Z</time>
      </trkpt>
      <trkpt lat="49.97519" lon="4.34887">
        <ele>302.6</ele>
        <time>2024-03-17T08:25:03Z</time>
      </trkpt>
      <trkpt lat="49.97515" lon="4.34889">
        <ele>302.6</ele>
        <time>2024-03-17T08:25:04Z</time>
      </trkpt>
      <trkpt lat="49.97511" lon="4.34891">
        <ele>302.6</ele>
        <time>2024-03-17T08:25:05Z</time>
      </trkpt>
      <trkpt lat="49.97507" lon="4.34893">
        <ele>302.8</ele>
        <time>2024-03-17T08:25:06Z</time>
      </trkpt>
      <trkpt lat="49.97503" lon="4.34894">
        <ele>303</ele>
        <time>2024-03-17T08:25:07Z</time>
      </trkpt>
      <trkpt lat="49.97499" lon="4.34896">
        <ele>303.2</ele>
        <time>2024-03-17T08:25:08Z</time>
      </trkpt>
      <trkpt lat="49.97495" lon="4.34898">
        <ele>303.2</ele>
        <time>2024-03-17T08:25:09Z</time>
      </trkpt>
      <trkpt lat="49.97491" lon="4.34899">
        <ele>303.4</ele>
        <time>2024-03-17T08:25:10Z</time>
      </trkpt>
      <trkpt lat="49.97487" lon="4.349">
        <ele>303.6</ele>
        <time>2024-03-17T08:25:11Z</time>
      </trkpt>
      <trkpt lat="49.97483" lon="4.34901">
        <ele>303.6</ele>
        <time>2024-03-17T08:25:12Z</time>
      </trkpt>
      <trkpt lat="49.97479" lon="4.34903">
        <ele>303.6</ele>
        <time>2024-03-17T08:25:13Z</time>
      </trkpt>
      <trkpt lat="49.97475" lon="4.34904">
        <ele>303.6</ele>
        <time>2024-03-17T08:25:14Z</time>
      </trkpt>
      <trkpt lat="49.97471" lon="4.34906">
        <ele>303.6</ele>
        <time>2024-03-17T08:25:15Z</time>
      </trkpt>
      <trkpt lat="49.97468" lon="4.34907">
        <ele>303.8</ele>
        <time>2024-03-17T08:25:16Z</time>
      </trkpt>
      <trkpt lat="49.97464" lon="4.34909">
        <ele>304</ele>
        <time>2024-03-17T08:25:17Z</time>
      </trkpt>
      <trkpt lat="49.9746" lon="4.34911">
        <ele>304</ele>
        <time>2024-03-17T08:25:18Z</time>
      </trkpt>
      <trkpt lat="49.97456" lon="4.34912">
        <ele>304.2</ele>
        <time>2024-03-17T08:25:19Z</time>
      </trkpt>
      <trkpt lat="49.97452" lon="4.34914">
        <ele>304.2</ele>
        <time>2024-03-17T08:25:20Z</time>
      </trkpt>
      <trkpt lat="49.97448" lon="4.34916">
        <ele>304.6</ele>
        <time>2024-03-17T08:25:21Z</time>
      </trkpt>
      <trkpt lat="49.97444" lon="4.34917">
        <ele>304.8</ele>
        <time>2024-03-17T08:25:22Z</time>
      </trkpt>
      <trkpt lat="49.9744" lon="4.34919">
        <ele>304.8</ele>
        <time>2024-03-17T08:25:23Z</time>
      </trkpt>
      <trkpt lat="49.97436" lon="4.34921">
        <ele>305</ele>
        <time>2024-03-17T08:25:24Z</time>
      </trkpt>
      <trkpt lat="49.97433" lon="4.34923">
        <ele>305.4</ele>
        <time>2024-03-17T08:25:25Z</time>
      </trkpt>
      <trkpt lat="49.97429" lon="4.34924">
        <ele>305.2</ele>
        <time>2024-03-17T08:25:26Z</time>
      </trkpt>
      <trkpt lat="49.97425" lon="4.34926">
        <ele>305.4</ele>
        <time>2024-03-17T08:25:27Z</time>
      </trkpt>
      <trkpt lat="49.97422" lon="4.34928">
        <ele>305.6</ele>
        <time>2024-03-17T08:25:28Z</time>
      </trkpt>
      <trkpt lat="49.97419" lon="4.3493">
        <ele>305.6</ele>
        <time>2024-03-17T08:25:29Z</time>
      </trkpt>
      <trkpt lat="49.97414" lon="4.34933">
        <ele>305.6</ele>
        <time>2024-03-17T08:25:30Z</time>
      </trkpt>
      <trkpt lat="49.97411" lon="4.34935">
        <ele>305.8</ele>
        <time>2024-03-17T08:25:31Z</time>
      </trkpt>
      <trkpt lat="49.97407" lon="4.34937">
        <ele>305.8</ele>
        <time>2024-03-17T08:25:32Z</time>
      </trkpt>
      <trkpt lat="49.97403" lon="4.34939">
        <ele>305.8</ele>
        <time>2024-03-17T08:25:33Z</time>
      </trkpt>
      <trkpt lat="49.97399" lon="4.3494">
        <ele>306</ele>
        <time>2024-03-17T08:25:34Z</time>
      </trkpt>
      <trkpt lat="49.97395" lon="4.34942">
        <ele>305.8</ele>
        <time>2024-03-17T08:25:35Z</time>
      </trkpt>
      <trkpt lat="49.97391" lon="4.34943">
        <ele>306</ele>
        <time>2024-03-17T08:25:36Z</time>
      </trkpt>
      <trkpt lat="49.97388" lon="4.34944">
        <ele>306</ele>
        <time>2024-03-17T08:25:37Z</time>
      </trkpt>
      <trkpt lat="49.97384" lon="4.34946">
        <ele>306.2</ele>
        <time>2024-03-17T08:25:38Z</time>
      </trkpt>
      <trkpt lat="49.9738" lon="4.34948">
        <ele>306.4</ele>
        <time>2024-03-17T08:25:39Z</time>
      </trkpt>
      <trkpt lat="49.97376" lon="4.3495">
        <ele>306.8</ele>
        <time>2024-03-17T08:25:40Z</time>
      </trkpt>
      <trkpt lat="49.97372" lon="4.34952">
        <ele>306.8</ele>
        <time>2024-03-17T08:25:41Z</time>
      </trkpt>
      <trkpt lat="49.97368" lon="4.34954">
        <ele>306.8</ele>
        <time>2024-03-17T08:25:42Z</time>
      </trkpt>
      <trkpt lat="49.97364" lon="4.34955">
        <ele>307</ele>
        <time>2024-03-17T08:25:43Z</time>
      </trkpt>
      <trkpt lat="49.97361" lon="4.34957">
        <ele>307</ele>
        <time>2024-03-17T08:25:44Z</time>
      </trkpt>
      <trkpt lat="49.97357" lon="4.34959">
        <ele>307</ele>
        <time>2024-03-17T08:25:45Z</time>
      </trkpt>
      <trkpt lat="49.97353" lon="4.34961">
        <ele>307</ele>
        <time>2024-03-17T08:25:46Z</time>
      </trkpt>
      <trkpt lat="49.97349" lon="4.34963">
        <ele>307</ele>
        <time>2024-03-17T08:25:47Z</time>
      </trkpt>
      <trkpt lat="49.97345" lon="4.34965">
        <ele>307</ele>
        <time>2024-03-17T08:25:48Z</time>
      </trkpt>
      <trkpt lat="49.97341" lon="4.34967">
        <ele>307.2</ele>
        <time>2024-03-17T08:25:49Z</time>
      </trkpt>
      <trkpt lat="49.97337" lon="4.3497">
        <ele>307.2</ele>
        <time>2024-03-17T08:25:50Z</time>
      </trkpt>
      <trkpt lat="49.97333" lon="4.34972">
        <ele>307.4</ele>
        <time>2024-03-17T08:25:51Z</time>
      </trkpt>
      <trkpt lat="49.97329" lon="4.34974">
        <ele>307.6</ele>
        <time>2024-03-17T08:25:52Z</time>
      </trkpt>
      <trkpt lat="49.97325" lon="4.34975">
        <ele>307.4</ele>
        <time>2024-03-17T08:25:53Z</time>
      </trkpt>
      <trkpt lat="49.97321" lon="4.34977">
        <ele>307.6</ele>
        <time>2024-03-17T08:25:54Z</time>
      </trkpt>
      <trkpt lat="49.97317" lon="4.34979">
        <ele>307.6</ele>
        <time>2024-03-17T08:25:55Z</time>
      </trkpt>
      <trkpt lat="49.97313" lon="4.34981">
        <ele>307.8</ele>
        <time>2024-03-17T08:25:56Z</time>
      </trkpt>
      <trkpt lat="49.97309" lon="4.34983">
        <ele>307.8</ele>
        <time>2024-03-17T08:25:57Z</time>
      </trkpt>
      <trkpt lat="49.97305" lon="4.34985">
        <ele>308</ele>
        <time>2024-03-17T08:25:58Z</time>
      </trkpt>
      <trkpt lat="49.97302" lon="4.34987">
        <ele>308</ele>
        <time>2024-03-17T08:25:59Z</time>
      </trkpt>
      <trkpt lat="49.97298" lon="4.34989">
        <ele>308.2</ele>
        <time>2024-03-17T08:26:00Z</time>
      </trkpt>
      <trkpt lat="49.97294" lon="4.34991">
        <ele>308.4</ele>
        <time>2024-03-17T08:26:01Z</time>
      </trkpt>
      <trkpt lat="49.9729" lon="4.34992">
        <ele>308.4</ele>
        <time>2024-03-17T08:26:02Z</time>
      </trkpt>
      <trkpt lat="49.97286" lon="4.34994">
        <ele>308.4</ele>
        <time>2024-03-17T08:26:03Z</time>
      </trkpt>
      <trkpt lat="49.97283" lon="4.34996">
        <ele>308.6</ele>
        <time>2024-03-17T08:26:04Z</time>
      </trkpt>
      <trkpt lat="49.97279" lon="4.34997">
        <ele>308.6</ele>
        <time>2024-03-17T08:26:05Z</time>
      </trkpt>
      <trkpt lat="49.97275" lon="4.34999">
        <ele>309</ele>
        <time>2024-03-17T08:26:06Z</time>
      </trkpt>
      <trkpt lat="49.97272" lon="4.35">
        <ele>309.4</ele>
        <time>2024-03-17T08:26:07Z</time>
      </trkpt>
      <trkpt lat="49.97268" lon="4.35002">
        <ele>309.6</ele>
        <time>2024-03-17T08:26:08Z</time>
      </trkpt>
      <trkpt lat="49.97264" lon="4.35003">
        <ele>309.8</ele>
        <time>2024-03-17T08:26:09Z</time>
      </trkpt>
      <trkpt lat="49.97261" lon="4.35005">
        <ele>309.6</ele>
        <time>2024-03-17T08:26:10Z</time>
      </trkpt>
      <trkpt lat="49.97257" lon="4.35007">
        <ele>309.6</ele>
        <time>2024-03-17T08:26:11Z</time>
      </trkpt>
      <trkpt lat="49.97254" lon="4.35008">
        <ele>309.8</ele>
        <time>2024-03-17T08:26:12Z</time>
      </trkpt>
      <trkpt lat="49.9725" lon="4.3501">
        <ele>309.8</ele>
        <time>2024-03-17T08:26:13Z</time>
      </trkpt>
      <trkpt lat="49.97247" lon="4.35012">
        <ele>310</ele>
        <time>2024-03-17T08:26:14Z</time>
      </trkpt>
      <trkpt lat="49.97243" lon="4.35013">
        <ele>309.8</ele>
        <time>2024-03-17T08:26:15Z</time>
      </trkpt>
      <trkpt lat="49.9724" lon="4.35015">
        <ele>310</ele>
        <time>2024-03-17T08:26:16Z</time>
      </trkpt>
      <trkpt lat="49.97236" lon="4.35017">
        <ele>310</ele>
        <time>2024-03-17T08:26:17Z</time>
      </trkpt>
      <trkpt lat="49.97233" lon="4.35018">
        <ele>310</ele>
        <time>2024-03-17T08:26:18Z</time>
      </trkpt>
      <trkpt lat="49.97229" lon="4.3502">
        <ele>310</ele>
        <time>2024-03-17T08:26:19Z</time>
      </trkpt>
      <trkpt lat="49.97225" lon="4.35021">
        <ele>310.4</ele>
        <time>2024-03-17T08:26:20Z</time>
      </trkpt>
      <trkpt lat="49.97222" lon="4.35023">
        <ele>310.4</ele>
        <time>2024-03-17T08:26:21Z</time>
      </trkpt>
      <trkpt lat="49.97218" lon="4.35025">
        <ele>310.6</ele>
        <time>2024-03-17T08:26:22Z</time>
      </trkpt>
      <trkpt lat="49.97214" lon="4.35026">
        <ele>310.6</ele>
        <time>2024-03-17T08:26:23Z</time>
      </trkpt>
      <trkpt lat="49.97211" lon="4.35028">
        <ele>310.6</ele>
        <time>2024-03-17T08:26:24Z</time>
      </trkpt>
      <trkpt lat="49.97207" lon="4.3503">
        <ele>310.8</ele>
        <time>2024-03-17T08:26:25Z</time>
      </trkpt>
      <trkpt lat="49.97204" lon="4.35031">
        <ele>310.8</ele>
        <time>2024-03-17T08:26:26Z</time>
      </trkpt>
      <trkpt lat="49.972" lon="4.35033">
        <ele>310.8</ele>
        <time>2024-03-17T08:26:27Z</time>
      </trkpt>
      <trkpt lat="49.97197" lon="4.35035">
        <ele>310.8</ele>
        <time>2024-03-17T08:26:28Z</time>
      </trkpt>
      <trkpt lat="49.97193" lon="4.35036">
        <ele>311</ele>
        <time>2024-03-17T08:26:29Z</time>
      </trkpt>
      <trkpt lat="49.9719" lon="4.35038">
        <ele>311</ele>
        <time>2024-03-17T08:26:30Z</time>
      </trkpt>
      <trkpt lat="49.97186" lon="4.35039">
        <ele>311.2</ele>
        <time>2024-03-17T08:26:31Z</time>
      </trkpt>
      <trkpt lat="49.97183" lon="4.35041">
        <ele>311.2</ele>
        <time>2024-03-17T08:26:32Z</time>
      </trkpt>
      <trkpt lat="49.9718" lon="4.35042">
        <ele>311.4</ele>
        <time>2024-03-17T08:26:33Z</time>
      </trkpt>
      <trkpt lat="49.97176" lon="4.35044">
        <ele>311.4</ele>
        <time>2024-03-17T08:26:34Z</time>
      </trkpt>
      <trkpt lat="49.97173" lon="4.35045">
        <ele>311.4</ele>
        <time>2024-03-17T08:26:35Z</time>
      </trkpt>
      <trkpt lat="49.9717" lon="4.35047">
        <ele>311.4</ele>
        <time>2024-03-17T08:26:36Z</time>
      </trkpt>
      <trkpt lat="49.97166" lon="4.35048">
        <ele>311.6</ele>
        <time>2024-03-17T08:26:37Z</time>
      </trkpt>
      <trkpt lat="49.97163" lon="4.3505">
        <ele>311.8</ele>
        <time>2024-03-17T08:26:38Z</time>
      </trkpt>
      <trkpt lat="49.9716" lon="4.35051">
        <ele>312</ele>
        <time>2024-03-17T08:26:39Z</time>
      </trkpt>
      <trkpt lat="49.97157" lon="4.35053">
        <ele>312.2</ele>
        <time>2024-03-17T08:26:40Z</time>
      </trkpt>
      <trkpt lat="49.97154" lon="4.35054">
        <ele>312.4</ele>
        <time>2024-03-17T08:26:41Z</time>
      </trkpt>
      <trkpt lat="49.9715" lon="4.35056">
        <ele>312.6</ele>
        <time>2024-03-17T08:26:42Z</time>
      </trkpt>
      <trkpt lat="49.97147" lon="4.35057">
        <ele>312.8</ele>
        <time>2024-03-17T08:26:43Z</time>
      </trkpt>
      <trkpt lat="49.97144" lon="4.35058">
        <ele>313</ele>
        <time>2024-03-17T08:26:44Z</time>
      </trkpt>
      <trkpt lat="49.97141" lon="4.3506">
        <ele>313.2</ele>
        <time>2024-03-17T08:26:45Z</time>
      </trkpt>
      <trkpt lat="49.97138" lon="4.35061">
        <ele>313.6</ele>
        <time>2024-03-17T08:26:46Z</time>
      </trkpt>
      <trkpt lat="49.97135" lon="4.35063">
        <ele>313.8</ele>
        <time>2024-03-17T08:26:47Z</time>
      </trkpt>
      <trkpt lat="49.97132" lon="4.35064">
        <ele>314</ele>
        <time>2024-03-17T08:26:48Z</time>
      </trkpt>
      <trkpt lat="49.97129" lon="4.35065">
        <ele>314.4</ele>
        <time>2024-03-17T08:26:49Z</time>
      </trkpt>
      <trkpt lat="49.97126" lon="4.35067">
        <ele>314.6</ele>
        <time>2024-03-17T08:26:50Z</time>
      </trkpt>
      <trkpt lat="49.97123" lon="4.35068">
        <ele>314.6</ele>
        <time>2024-03-17T08:26:51Z</time>
      </trkpt>
      <trkpt lat="49.9712" lon="4.3507">
        <ele>315</ele>
        <time>2024-03-17T08:26:52Z</time>
      </trkpt>
      <trkpt lat="49.97117" lon="4.35071">
        <ele>315</ele>
        <time>2024-03-17T08:26:53Z</time>
      </trkpt>
      <trkpt lat="49.97114" lon="4.35072">
        <ele>315</ele>
        <time>2024-03-17T08:26:54Z</time>
      </trkpt>
      <trkpt lat="49.97111" lon="4.35074">
        <ele>315.4</ele>
        <time>2024-03-17T08:26:55Z</time>
      </trkpt>
      <trkpt lat="49.97107" lon="4.35075">
        <ele>316</ele>
        <time>2024-03-17T08:26:56Z</time>
      </trkpt>
      <trkpt lat="49.97104" lon="4.35077">
        <ele>316.8</ele>
        <time>2024-03-17T08:26:57Z</time>
      </trkpt>
      <trkpt lat="49.97101" lon="4.35078">
        <ele>317.4</ele>
        <time>2024-03-17T08:26:58Z</time>
      </trkpt>
      <trkpt lat="49.97098" lon="4.3508">
        <ele>317.6</ele>
        <time>2024-03-17T08:26:59Z</time>
      </trkpt>
      <trkpt lat="49.97095" lon="4.35081">
        <ele>317.6</ele>
        <time>2024-03-17T08:27:00Z</time>
      </trkpt>
      <trkpt lat="49.97092" lon="4.35083">
        <ele>318</ele>
        <time>2024-03-17T08:27:01Z</time>
      </trkpt>
      <trkpt lat="49.97089" lon="4.35084">
        <ele>318</ele>
        <time>2024-03-17T08:27:02Z</time>
      </trkpt>
      <trkpt lat="49.97086" lon="4.35086">
        <ele>318</ele>
        <time>2024-03-17T08:27:03Z</time>
      </trkpt>
      <trkpt lat="49.97083" lon="4.35087">
        <ele>318.2</ele>
        <time>2024-03-17T08:27:04Z</time>
      </trkpt>
      <trkpt lat="49.9708" lon="4.35088">
        <ele>318.6</ele>
        <time>2024-03-17T08:27:05Z</time>
      </trkpt>
      <trkpt lat="49.97077" lon="4.3509">
        <ele>318.6</ele>
        <time>2024-03-17T08:27:06Z</time>
      </trkpt>
      <trkpt lat="49.97074" lon="4.35091">
        <ele>319</ele>
        <time>2024-03-17T08:27:07Z</time>
      </trkpt>
      <trkpt lat="49.97071" lon="4.35092">
        <ele>319</ele>
        <time>2024-03-17T08:27:08Z</time>
      </trkpt>
      <trkpt lat="49.97068" lon="4.35094">
        <ele>319</ele>
        <time>2024-03-17T08:27:09Z</time>
      </trkpt>
      <trkpt lat="49.97065" lon="4.35095">
        <ele>319</ele>
        <time>2024-03-17T08:27:10Z</time>
      </trkpt>
      <trkpt lat="49.97062" lon="4.35097">
        <ele>319.2</ele>
        <time>2024-03-17T08:27:11Z</time>
      </trkpt>
      <trkpt lat="49.97059" lon="4.35098">
        <ele>319.2</ele>
        <time>2024-03-17T08:27:12Z</time>
      </trkpt>
      <trkpt lat="49.97056" lon="4.35099">
        <ele>319.4</ele>
        <time>2024-03-17T08:27:13Z</time>
      </trkpt>
      <trkpt lat="49.97053" lon="4.35101">
        <ele>319.6</ele>
        <time>2024-03-17T08:27:14Z</time>
      </trkpt>
      <trkpt lat="49.9705" lon="4.35102">
        <ele>319.6</ele>
        <time>2024-03-17T08:27:15Z</time>
      </trkpt>
      <trkpt lat="49.97047" lon="4.35104">
        <ele>319.8</ele>
        <time>2024-03-17T08:27:16Z</time>
      </trkpt>
      <trkpt lat="49.97043" lon="4.35105">
        <ele>320</ele>
        <time>2024-03-17T08:27:17Z</time>
      </trkpt>
      <trkpt lat="49.9704" lon="4.35107">
        <ele>320.2</ele>
        <time>2024-03-17T08:27:18Z</time>
      </trkpt>
      <trkpt lat="49.97037" lon="4.35108">
        <ele>320.2</ele>
        <time>2024-03-17T08:27:19Z</time>
      </trkpt>
      <trkpt lat="49.97034" lon="4.35109">
        <ele>320.2</ele>
        <time>2024-03-17T08:27:20Z</time>
      </trkpt>
      <trkpt lat="49.97031" lon="4.35111">
        <ele>320.4</ele>
        <time>2024-03-17T08:27:21Z</time>
      </trkpt>
      <trkpt lat="49.97028" lon="4.35112">
        <ele>320.6</ele>
        <time>2024-03-17T08:27:22Z</time>
      </trkpt>
      <trkpt lat="49.97025" lon="4.35114">
        <ele>320.6</ele>
        <time>2024-03-17T08:27:23Z</time>
      </trkpt>
      <trkpt lat="49.97021" lon="4.35115">
        <ele>320.8</ele>
        <time>2024-03-17T08:27:24Z</time>
      </trkpt>
      <trkpt lat="49.97018" lon="4.35117">
        <ele>321</ele>
        <time>2024-03-17T08:27:25Z</time>
      </trkpt>
      <trkpt lat="49.97015" lon="4.35118">
        <ele>321.2</ele>
        <time>2024-03-17T08:27:26Z</time>
      </trkpt>
      <trkpt lat="49.97011" lon="4.3512">
        <ele>321.4</ele>
        <time>2024-03-17T08:27:27Z</time>
      </trkpt>
      <trkpt lat="49.97008" lon="4.35121">
        <ele>321.6</ele>
        <time>2024-03-17T08:27:28Z</time>
      </trkpt>
      <trkpt lat="49.97005" lon="4.35122">
        <ele>321.8</ele>
        <time>2024-03-17T08:27:29Z</time>
      </trkpt>
      <trkpt lat="49.97001" lon="4.35124">
        <ele>321.8</ele>
        <time>2024-03-17T08:27:30Z</time>
      </trkpt>
      <trkpt lat="49.96998" lon="4.35125">
        <ele>322.2</ele>
        <time>2024-03-17T08:27:31Z</time>
      </trkpt>
      <trkpt lat="49.96994" lon="4.35126">
        <ele>322.6</ele>
        <time>2024-03-17T08:27:32Z</time>
      </trkpt>
      <trkpt lat="49.9699" lon="4.35128">
        <ele>322.6</ele>
        <time>2024-03-17T08:27:33Z</time>
      </trkpt>
      <trkpt lat="49.96986" lon="4.35129">
        <ele>322.8</ele>
        <time>2024-03-17T08:27:34Z</time>
      </trkpt>
      <trkpt lat="49.96983" lon="4.3513">
        <ele>322.8</ele>
        <time>2024-03-17T08:27:35Z</time>
      </trkpt>
      <trkpt lat="49.96979" lon="4.35131">
        <ele>323</ele>
        <time>2024-03-17T08:27:36Z</time>
      </trkpt>
      <trkpt lat="49.96975" lon="4.35132">
        <ele>323</ele>
        <time>2024-03-17T08:27:37Z</time>
      </trkpt>
      <trkpt lat="49.96971" lon="4.35133">
        <ele>323.2</ele>
        <time>2024-03-17T08:27:38Z</time>
      </trkpt>
      <trkpt lat="49.96967" lon="4.35134">
        <ele>323.2</ele>
        <time>2024-03-17T08:27:39Z</time>
      </trkpt>
      <trkpt lat="49.96963" lon="4.35134">
        <ele>323.4</ele>
        <time>2024-03-17T08:27:40Z</time>
      </trkpt>
      <trkpt lat="49.96958" lon="4.35135">
        <ele>323.2</ele>
        <time>2024-03-17T08:27:41Z</time>
      </trkpt>
      <trkpt lat="49.96954" lon="4.35137">
        <ele>323.2</ele>
        <time>2024-03-17T08:27:42Z</time>
      </trkpt>
      <trkpt lat="49.9695" lon="4.3514">
        <ele>323.2</ele>
        <time>2024-03-17T08:27:43Z</time>
      </trkpt>
      <trkpt lat="49.96947" lon="4.35144">
        <ele>323.2</ele>
        <time>2024-03-17T08:27:44Z</time>
      </trkpt>
      <trkpt lat="49.96944" lon="4.35149">
        <ele>323.4</ele>
        <time>2024-03-17T08:27:45Z</time>
      </trkpt>
      <trkpt lat="49.96941" lon="4.35155">
        <ele>323.2</ele>
        <time>2024-03-17T08:27:46Z</time>
      </trkpt>
      <trkpt lat="49.96939" lon="4.35161">
        <ele>323.4</ele>
        <time>2024-03-17T08:27:47Z</time>
      </trkpt>
      <trkpt lat="49.96938" lon="4.35168">
        <ele>323.4</ele>
        <time>2024-03-17T08:27:48Z</time>
      </trkpt>
      <trkpt lat="49.96937" lon="4.35176">
        <ele>323.2</ele>
        <time>2024-03-17T08:27:49Z</time>
      </trkpt>
      <trkpt lat="49.96936" lon="4.35182">
        <ele>323.2</ele>
        <time>2024-03-17T08:27:50Z</time>
      </trkpt>
      <trkpt lat="49.96935" lon="4.3519">
        <ele>323</ele>
        <time>2024-03-17T08:27:51Z</time>
      </trkpt>
      <trkpt lat="49.96934" lon="4.35197">
        <ele>323</ele>
        <time>2024-03-17T08:27:52Z</time>
      </trkpt>
      <trkpt lat="49.96933" lon="4.35204">
        <ele>323</ele>
        <time>2024-03-17T08:27:53Z</time>
      </trkpt>
      <trkpt lat="49.96932" lon="4.35211">
        <ele>323</ele>
        <time>2024-03-17T08:27:54Z</time>
      </trkpt>
      <trkpt lat="49.96931" lon="4.35218">
        <ele>322.8</ele>
        <time>2024-03-17T08:27:55Z</time>
      </trkpt>
      <trkpt lat="49.9693" lon="4.35226">
        <ele>322.8</ele>
        <time>2024-03-17T08:27:56Z</time>
      </trkpt>
      <trkpt lat="49.96929" lon="4.35233">
        <ele>323</ele>
        <time>2024-03-17T08:27:57Z</time>
      </trkpt>
      <trkpt lat="49.96928" lon="4.3524">
        <ele>323</ele>
        <time>2024-03-17T08:27:58Z</time>
      </trkpt>
      <trkpt lat="49.96927" lon="4.35248">
        <ele>322.8</ele>
        <time>2024-03-17T08:27:59Z</time>
      </trkpt>
      <trkpt lat="49.96926" lon="4.35255">
        <ele>323</ele>
        <time>2024-03-17T08:28:00Z</time>
      </trkpt>
      <trkpt lat="49.96925" lon="4.35263">
        <ele>323</ele>
        <time>2024-03-17T08:28:01Z</time>
      </trkpt>
      <trkpt lat="49.96924" lon="4.3527">
        <ele>323.2</ele>
        <time>2024-03-17T08:28:02Z</time>
      </trkpt>
      <trkpt lat="49.96923" lon="4.35278">
        <ele>323</ele>
        <time>2024-03-17T08:28:03Z</time>
      </trkpt>
      <trkpt lat="49.96922" lon="4.35286">
        <ele>323</ele>
        <time>2024-03-17T08:28:04Z</time>
      </trkpt>
      <trkpt lat="49.96921" lon="4.35293">
        <ele>323</ele>
        <time>2024-03-17T08:28:05Z</time>
      </trkpt>
      <trkpt lat="49.9692" lon="4.35301">
        <ele>323</ele>
        <time>2024-03-17T08:28:06Z</time>
      </trkpt>
      <trkpt lat="49.96919" lon="4.35308">
        <ele>323.2</ele>
        <time>2024-03-17T08:28:07Z</time>
      </trkpt>
      <trkpt lat="49.96918" lon="4.35316">
        <ele>323</ele>
        <time>2024-03-17T08:28:08Z</time>
      </trkpt>
      <trkpt lat="49.96917" lon="4.35323">
        <ele>323</ele>
        <time>2024-03-17T08:28:09Z</time>
      </trkpt>
      <trkpt lat="49.96916" lon="4.3533">
        <ele>323</ele>
        <time>2024-03-17T08:28:10Z</time>
      </trkpt>
      <trkpt lat="49.96915" lon="4.35338">
        <ele>323.2</ele>
        <time>2024-03-17T08:28:11Z</time>
      </trkpt>
      <trkpt lat="49.96914" lon="4.35345">
        <ele>323.2</ele>
        <time>2024-03-17T08:28:12Z</time>
      </trkpt>
      <trkpt lat="49.96913" lon="4.35353">
        <ele>323.2</ele>
        <time>2024-03-17T08:28:13Z</time>
      </trkpt>
      <trkpt lat="49.96912" lon="4.35361">
        <ele>323.2</ele>
        <time>2024-03-17T08:28:14Z</time>
      </trkpt>
      <trkpt lat="49.96911" lon="4.35368">
        <ele>323.4</ele>
        <time>2024-03-17T08:28:15Z</time>
      </trkpt>
      <trkpt lat="49.9691" lon="4.35376">
        <ele>323.4</ele>
        <time>2024-03-17T08:28:16Z</time>
      </trkpt>
      <trkpt lat="49.96909" lon="4.35383">
        <ele>323.4</ele>
        <time>2024-03-17T08:28:17Z</time>
      </trkpt>
      <trkpt lat="49.96908" lon="4.3539">
        <ele>323.4</ele>
        <time>2024-03-17T08:28:18Z</time>
      </trkpt>
      <trkpt lat="49.96907" lon="4.35398">
        <ele>323.4</ele>
        <time>2024-03-17T08:28:19Z</time>
      </trkpt>
      <trkpt lat="49.96906" lon="4.35405">
        <ele>323.4</ele>
        <time>2024-03-17T08:28:20Z</time>
      </trkpt>
      <trkpt lat="49.96905" lon="4.35413">
        <ele>323.4</ele>
        <time>2024-03-17T08:28:21Z</time>
      </trkpt>
      <trkpt lat="49.96904" lon="4.3542">
        <ele>323.4</ele>
        <time>2024-03-17T08:28:22Z</time>
      </trkpt>
      <trkpt lat="49.96903" lon="4.35427">
        <ele>323.4</ele>
        <time>2024-03-17T08:28:23Z</time>
      </trkpt>
      <trkpt lat="49.96902" lon="4.35435">
        <ele>323</ele>
        <time>2024-03-17T08:28:24Z</time>
      </trkpt>
      <trkpt lat="49.96901" lon="4.35442">
        <ele>323</ele>
        <time>2024-03-17T08:28:25Z</time>
      </trkpt>
      <trkpt lat="49.969" lon="4.3545">
        <ele>322.8</ele>
        <time>2024-03-17T08:28:26Z</time>
      </trkpt>
      <trkpt lat="49.96899" lon="4.35457">
        <ele>323</ele>
        <time>2024-03-17T08:28:27Z</time>
      </trkpt>
      <trkpt lat="49.96898" lon="4.35465">
        <ele>322.8</ele>
        <time>2024-03-17T08:28:28Z</time>
      </trkpt>
      <trkpt lat="49.96896" lon="4.35472">
        <ele>322.8</ele>
        <time>2024-03-17T08:28:29Z</time>
      </trkpt>
      <trkpt lat="49.96895" lon="4.3548">
        <ele>322.8</ele>
        <time>2024-03-17T08:28:30Z</time>
      </trkpt>
      <trkpt lat="49.96894" lon="4.35488">
        <ele>322.8</ele>
        <time>2024-03-17T08:28:31Z</time>
      </trkpt>
      <trkpt lat="49.96893" lon="4.35495">
        <ele>322.8</ele>
        <time>2024-03-17T08:28:32Z</time>
      </trkpt>
      <trkpt lat="49.96892" lon="4.35504">
        <ele>322.8</ele>
        <time>2024-03-17T08:28:33Z</time>
      </trkpt>
      <trkpt lat="49.96891" lon="4.35512">
        <ele>322.6</ele>
        <time>2024-03-17T08:28:34Z</time>
      </trkpt>
      <trkpt lat="49.96889" lon="4.3552">
        <ele>322.6</ele>
        <time>2024-03-17T08:28:35Z</time>
      </trkpt>
      <trkpt lat="49.96888" lon="4.35528">
        <ele>322.6</ele>
        <time>2024-03-17T08:28:36Z</time>
      </trkpt>
      <trkpt lat="49.96887" lon="4.35537">
        <ele>322.4</ele>
        <time>2024-03-17T08:28:37Z</time>
      </trkpt>
      <trkpt lat="49.96886" lon="4.35545">
        <ele>322.4</ele>
        <time>2024-03-17T08:28:38Z</time>
      </trkpt>
      <trkpt lat="49.96885" lon="4.35554">
        <ele>322.4</ele>
        <time>2024-03-17T08:28:39Z</time>
      </trkpt>
      <trkpt lat="49.96884" lon="4.35563">
        <ele>322.4</ele>
        <time>2024-03-17T08:28:40Z</time>
      </trkpt>
      <trkpt lat="49.96883" lon="4.35572">
        <ele>322.4</ele>
        <time>2024-03-17T08:28:41Z</time>
      </trkpt>
      <trkpt lat="49.96883" lon="4.3558">
        <ele>322.4</ele>
        <time>2024-03-17T08:28:42Z</time>
      </trkpt>
      <trkpt lat="49.96882" lon="4.35589">
        <ele>322.2</ele>
        <time>2024-03-17T08:28:43Z</time>
      </trkpt>
      <trkpt lat="49.9688" lon="4.35597">
        <ele>322.4</ele>
        <time>2024-03-17T08:28:44Z</time>
      </trkpt>
      <trkpt lat="49.96879" lon="4.35606">
        <ele>322.2</ele>
        <time>2024-03-17T08:28:45Z</time>
      </trkpt>
      <trkpt lat="49.96878" lon="4.35615">
        <ele>322.4</ele>
        <time>2024-03-17T08:28:46Z</time>
      </trkpt>
      <trkpt lat="49.96877" lon="4.35624">
        <ele>322.2</ele>
        <time>2024-03-17T08:28:47Z</time>
      </trkpt>
      <trkpt lat="49.96877" lon="4.35634">
        <ele>322.4</ele>
        <time>2024-03-17T08:28:48Z</time>
      </trkpt>
      <trkpt lat="49.96876" lon="4.35643">
        <ele>322.4</ele>
        <time>2024-03-17T08:28:49Z</time>
      </trkpt>
      <trkpt lat="49.96876" lon="4.35653">
        <ele>322.4</ele>
        <time>2024-03-17T08:28:50Z</time>
      </trkpt>
      <trkpt lat="49.96876" lon="4.35662">
        <ele>322.4</ele>
        <time>2024-03-17T08:28:51Z</time>
      </trkpt>
      <trkpt lat="49.96875" lon="4.35671">
        <ele>322.4</ele>
        <time>2024-03-17T08:28:52Z</time>
      </trkpt>
      <trkpt lat="49.96874" lon="4.3568">
        <ele>322.4</ele>
        <time>2024-03-17T08:28:53Z</time>
      </trkpt>
      <trkpt lat="49.96874" lon="4.35689">
        <ele>322.6</ele>
        <time>2024-03-17T08:28:54Z</time>
      </trkpt>
      <trkpt lat="49.96873" lon="4.35698">
        <ele>322.8</ele>
        <time>2024-03-17T08:28:55Z</time>
      </trkpt>
      <trkpt lat="49.96872" lon="4.35706">
        <ele>322.8</ele>
        <time>2024-03-17T08:28:56Z</time>
      </trkpt>
      <trkpt lat="49.96872" lon="4.35715">
        <ele>323</ele>
        <time>2024-03-17T08:28:57Z</time>
      </trkpt>
      <trkpt lat="49.96871" lon="4.35723">
        <ele>323</ele>
        <time>2024-03-17T08:28:58Z</time>
      </trkpt>
      <trkpt lat="49.96871" lon="4.35732">
        <ele>322.8</ele>
        <time>2024-03-17T08:28:59Z</time>
      </trkpt>
      <trkpt lat="49.96871" lon="4.3574">
        <ele>323</ele>
        <time>2024-03-17T08:29:00Z</time>
      </trkpt>
      <trkpt lat="49.96871" lon="4.35749">
        <ele>323.2</ele>
        <time>2024-03-17T08:29:01Z</time>
      </trkpt>
      <trkpt lat="49.96871" lon="4.35757">
        <ele>323.2</ele>
        <time>2024-03-17T08:29:02Z</time>
      </trkpt>
      <trkpt lat="49.96871" lon="4.35765">
        <ele>323.2</ele>
        <time>2024-03-17T08:29:03Z</time>
      </trkpt>
      <trkpt lat="49.96871" lon="4.35773">
        <ele>323.2</ele>
        <time>2024-03-17T08:29:04Z</time>
      </trkpt>
      <trkpt lat="49.9687" lon="4.35781">
        <ele>323.4</ele>
        <time>2024-03-17T08:29:05Z</time>
      </trkpt>
      <trkpt lat="49.9687" lon="4.3579">
        <ele>323.4</ele>
        <time>2024-03-17T08:29:06Z</time>
      </trkpt>
      <trkpt lat="49.96869" lon="4.35798">
        <ele>323.2</ele>
        <time>2024-03-17T08:29:07Z</time>
      </trkpt>
      <trkpt lat="49.96868" lon="4.35806">
        <ele>323.4</ele>
        <time>2024-03-17T08:29:08Z</time>
      </trkpt>
      <trkpt lat="49.96868" lon="4.35814">
        <ele>323.6</ele>
        <time>2024-03-17T08:29:09Z</time>
      </trkpt>
      <trkpt lat="49.96867" lon="4.35822">
        <ele>323.4</ele>
        <time>2024-03-17T08:29:10Z</time>
      </trkpt>
      <trkpt lat="49.96867" lon="4.3583">
        <ele>323.8</ele>
        <time>2024-03-17T08:29:11Z</time>
      </trkpt>
      <trkpt lat="49.96867" lon="4.35839">
        <ele>323.8</ele>
        <time>2024-03-17T08:29:12Z</time>
      </trkpt>
      <trkpt lat="49.96866" lon="4.35848">
        <ele>323.8</ele>
        <time>2024-03-17T08:29:13Z</time>
      </trkpt>
      <trkpt lat="49.96866" lon="4.35856">
        <ele>323.8</ele>
        <time>2024-03-17T08:29:14Z</time>
      </trkpt>
      <trkpt lat="49.96865" lon="4.35865">
        <ele>324</ele>
        <time>2024-03-17T08:29:15Z</time>
      </trkpt>
      <trkpt lat="49.96864" lon="4.35873">
        <ele>324</ele>
        <time>2024-03-17T08:29:16Z</time>
      </trkpt>
      <trkpt lat="49.96863" lon="4.35882">
        <ele>324</ele>
        <time>2024-03-17T08:29:17Z</time>
      </trkpt>
      <trkpt lat="49.96863" lon="4.3589">
        <ele>324</ele>
        <time>2024-03-17T08:29:18Z</time>
      </trkpt>
      <trkpt lat="49.96862" lon="4.35899">
        <ele>324.2</ele>
        <time>2024-03-17T08:29:19Z</time>
      </trkpt>
      <trkpt lat="49.96861" lon="4.35907">
        <ele>324.2</ele>
        <time>2024-03-17T08:29:20Z</time>
      </trkpt>
      <trkpt lat="49.9686" lon="4.35915">
        <ele>324.2</ele>
        <time>2024-03-17T08:29:21Z</time>
      </trkpt>
      <trkpt lat="49.96859" lon="4.35924">
        <ele>324.4</ele>
        <time>2024-03-17T08:29:22Z</time>
      </trkpt>
      <trkpt lat="49.96858" lon="4.35932">
        <ele>324.6</ele>
        <time>2024-03-17T08:29:23Z</time>
      </trkpt>
      <trkpt lat="49.96856" lon="4.3594">
        <ele>324.4</ele>
        <time>2024-03-17T08:29:24Z</time>
      </trkpt>
      <trkpt lat="49.96855" lon="4.35948">
        <ele>324.4</ele>
        <time>2024-03-17T08:29:25Z</time>
      </trkpt>
      <trkpt lat="49.96854" lon="4.35956">
        <ele>324.4</ele>
        <time>2024-03-17T08:29:26Z</time>
      </trkpt>
      <trkpt lat="49.96853" lon="4.35964">
        <ele>324.6</ele>
        <time>2024-03-17T08:29:27Z</time>
      </trkpt>
      <trkpt lat="49.96851" lon="4.35972">
        <ele>324.8</ele>
        <time>2024-03-17T08:29:28Z</time>
      </trkpt>
      <trkpt lat="49.9685" lon="4.35979">
        <ele>324.6</ele>
        <time>2024-03-17T08:29:29Z</time>
      </trkpt>
      <trkpt lat="49.96848" lon="4.35987">
        <ele>324.6</ele>
        <time>2024-03-17T08:29:30Z</time>
      </trkpt>
      <trkpt lat="49.96847" lon="4.35994">
        <ele>324.6</ele>
        <time>2024-03-17T08:29:31Z</time>
      </trkpt>
      <trkpt lat="49.96845" lon="4.36002">
        <ele>324.8</ele>
        <time>2024-03-17T08:29:32Z</time>
      </trkpt>
      <trkpt lat="49.96843" lon="4.36009">
        <ele>324.8</ele>
        <time>2024-03-17T08:29:33Z</time>
      </trkpt>
      <trkpt lat="49.96841" lon="4.36017">
        <ele>325</ele>
        <time>2024-03-17T08:29:34Z</time>
      </trkpt>
      <trkpt lat="49.96839" lon="4.36024">
        <ele>325.6</ele>
        <time>2024-03-17T08:29:35Z</time>
      </trkpt>
      <trkpt lat="49.96836" lon="4.36031">
        <ele>326</ele>
        <time>2024-03-17T08:29:36Z</time>
      </trkpt>
      <trkpt lat="49.96834" lon="4.36038">
        <ele>326</ele>
        <time>2024-03-17T08:29:37Z</time>
      </trkpt>
      <trkpt lat="49.96831" lon="4.36046">
        <ele>326.4</ele>
        <time>2024-03-17T08:29:38Z</time>
      </trkpt>
      <trkpt lat="49.96828" lon="4.36053">
        <ele>326.6</ele>
        <time>2024-03-17T08:29:39Z</time>
      </trkpt>
      <trkpt lat="49.96826" lon="4.3606">
        <ele>326.6</ele>
        <time>2024-03-17T08:29:40Z</time>
      </trkpt>
      <trkpt lat="49.96823" lon="4.36067">
        <ele>326.8</ele>
        <time>2024-03-17T08:29:41Z</time>
      </trkpt>
      <trkpt lat="49.9682" lon="4.36074">
        <ele>327</ele>
        <time>2024-03-17T08:29:42Z</time>
      </trkpt>
      <trkpt lat="49.96818" lon="4.36082">
        <ele>327</ele>
        <time>2024-03-17T08:29:43Z</time>
      </trkpt>
      <trkpt lat="49.96816" lon="4.36089">
        <ele>327</ele>
        <time>2024-03-17T08:29:44Z</time>
      </trkpt>
      <trkpt lat="49.96813" lon="4.36096">
        <ele>327.2</ele>
        <time>2024-03-17T08:29:45Z</time>
      </trkpt>
      <trkpt lat="49.96811" lon="4.36103">
        <ele>327.2</ele>
        <time>2024-03-17T08:29:46Z</time>
      </trkpt>
      <trkpt lat="49.96808" lon="4.36111">
        <ele>327.4</ele>
        <time>2024-03-17T08:29:47Z</time>
      </trkpt>
      <trkpt lat="49.96806" lon="4.36118">
        <ele>327.4</ele>
        <time>2024-03-17T08:29:48Z</time>
      </trkpt>
      <trkpt lat="49.96804" lon="4.36125">
        <ele>327.4</ele>
        <time>2024-03-17T08:29:49Z</time>
      </trkpt>
      <trkpt lat="49.96802" lon="4.36133">
        <ele>327.6</ele>
        <time>2024-03-17T08:29:50Z</time>
      </trkpt>
      <trkpt lat="49.968" lon="4.3614">
        <ele>327.6</ele>
        <time>2024-03-17T08:29:51Z</time>
      </trkpt>
      <trkpt lat="49.96798" lon="4.36148">
        <ele>327.6</ele>
        <time>2024-03-17T08:29:52Z</time>
      </trkpt>
      <trkpt lat="49.96796" lon="4.36155">
        <ele>327.8</ele>
        <time>2024-03-17T08:29:53Z</time>
      </trkpt>
      <trkpt lat="49.96794" lon="4.36162">
        <ele>328</ele>
        <time>2024-03-17T08:29:54Z</time>
      </trkpt>
      <trkpt lat="49.96792" lon="4.3617">
        <ele>328</ele>
        <time>2024-03-17T08:29:55Z</time>
      </trkpt>
      <trkpt lat="49.9679" lon="4.36177">
        <ele>328.2</ele>
        <time>2024-03-17T08:29:56Z</time>
      </trkpt>
      <trkpt lat="49.96788" lon="4.36185">
        <ele>328.2</ele>
        <time>2024-03-17T08:29:57Z</time>
      </trkpt>
      <trkpt lat="49.96786" lon="4.36192">
        <ele>328.4</ele>
        <time>2024-03-17T08:29:58Z</time>
      </trkpt>
      <trkpt lat="49.96784" lon="4.36199">
        <ele>328.4</ele>
        <time>2024-03-17T08:29:59Z</time>
      </trkpt>
      <trkpt lat="49.96782" lon="4.36206">
        <ele>328.6</ele>
        <time>2024-03-17T08:30:00Z</time>
      </trkpt>
      <trkpt lat="49.9678" lon="4.36213">
        <ele>328.6</ele>
        <time>2024-03-17T08:30:01Z</time>
      </trkpt>
      <trkpt lat="49.96778" lon="4.36221">
        <ele>328.6</ele>
        <time>2024-03-17T08:30:02Z</time>
      </trkpt>
      <trkpt lat="49.96776" lon="4.36228">
        <ele>328.6</ele>
        <time>2024-03-17T08:30:03Z</time>
      </trkpt>
      <trkpt lat="49.96774" lon="4.36235">
        <ele>328.8</ele>
        <time>2024-03-17T08:30:04Z</time>
      </trkpt>
      <trkpt lat="49.96772" lon="4.36243">
        <ele>329.2</ele>
        <time>2024-03-17T08:30:05Z</time>
      </trkpt>
      <trkpt lat="49.9677" lon="4.3625">
        <ele>329</ele>
        <time>2024-03-17T08:30:06Z</time>
      </trkpt>
      <trkpt lat="49.96768" lon="4.36257">
        <ele>329.2</ele>
        <time>2024-03-17T08:30:07Z</time>
      </trkpt>
      <trkpt lat="49.96766" lon="4.36265">
        <ele>329.2</ele>
        <time>2024-03-17T08:30:08Z</time>
      </trkpt>
      <trkpt lat="49.96765" lon="4.36272">
        <ele>329.2</ele>
        <time>2024-03-17T08:30:09Z</time>
      </trkpt>
      <trkpt lat="49.96763" lon="4.3628">
        <ele>329.4</ele>
        <time>2024-03-17T08:30:10Z</time>
      </trkpt>
      <trkpt lat="49.96761" lon="4.36287">
        <ele>329.4</ele>
        <time>2024-03-17T08:30:11Z</time>
      </trkpt>
      <trkpt lat="49.96759" lon="4.36295">
        <ele>329.6</ele>
        <time>2024-03-17T08:30:12Z</time>
      </trkpt>
      <trkpt lat="49.96758" lon="4.36302">
        <ele>329.4</ele>
        <time>2024-03-17T08:30:13Z</time>
      </trkpt>
      <trkpt lat="49.96756" lon="4.3631">
        <ele>329.6</ele>
        <time>2024-03-17T08:30:14Z</time>
      </trkpt>
      <trkpt lat="49.96755" lon="4.36317">
        <ele>329.4</ele>
        <time>2024-03-17T08:30:15Z</time>
      </trkpt>
      <trkpt lat="49.96753" lon="4.36324">
        <ele>329.6</ele>
        <time>2024-03-17T08:30:16Z</time>
      </trkpt>
      <trkpt lat="49.96751" lon="4.36332">
        <ele>329.8</ele>
        <time>2024-03-17T08:30:17Z</time>
      </trkpt>
      <trkpt lat="49.9675" lon="4.3634">
        <ele>330</ele>
        <time>2024-03-17T08:30:18Z</time>
      </trkpt>
      <trkpt lat="49.96749" lon="4.36348">
        <ele>330</ele>
        <time>2024-03-17T08:30:19Z</time>
      </trkpt>
      <trkpt lat="49.96747" lon="4.36356">
        <ele>330.2</ele>
        <time>2024-03-17T08:30:20Z</time>
      </trkpt>
      <trkpt lat="49.96746" lon="4.36364">
        <ele>330.2</ele>
        <time>2024-03-17T08:30:21Z</time>
      </trkpt>
      <trkpt lat="49.96744" lon="4.36372">
        <ele>330.2</ele>
        <time>2024-03-17T08:30:22Z</time>
      </trkpt>
      <trkpt lat="49.96743" lon="4.3638">
        <ele>330.2</ele>
        <time>2024-03-17T08:30:23Z</time>
      </trkpt>
      <trkpt lat="49.96742" lon="4.36388">
        <ele>330.4</ele>
        <time>2024-03-17T08:30:24Z</time>
      </trkpt>
      <trkpt lat="49.9674" lon="4.36397">
        <ele>330.4</ele>
        <time>2024-03-17T08:30:25Z</time>
      </trkpt>
      <trkpt lat="49.96739" lon="4.36405">
        <ele>330.4</ele>
        <time>2024-03-17T08:30:26Z</time>
      </trkpt>
      <trkpt lat="49.96738" lon="4.36413">
        <ele>330.4</ele>
        <time>2024-03-17T08:30:27Z</time>
      </trkpt>
      <trkpt lat="49.96736" lon="4.36421">
        <ele>330.4</ele>
        <time>2024-03-17T08:30:28Z</time>
      </trkpt>
      <trkpt lat="49.96735" lon="4.3643">
        <ele>330.6</ele>
        <time>2024-03-17T08:30:29Z</time>
      </trkpt>
      <trkpt lat="49.96734" lon="4.36438">
        <ele>330.6</ele>
        <time>2024-03-17T08:30:30Z</time>
      </trkpt>
      <trkpt lat="49.96732" lon="4.36446">
        <ele>330.4</ele>
        <time>2024-03-17T08:30:31Z</time>
      </trkpt>
      <trkpt lat="49.96731" lon="4.36455">
        <ele>330.6</ele>
        <time>2024-03-17T08:30:32Z</time>
      </trkpt>
      <trkpt lat="49.96729" lon="4.36463">
        <ele>330.4</ele>
        <time>2024-03-17T08:30:33Z</time>
      </trkpt>
      <trkpt lat="49.96728" lon="4.36471">
        <ele>330.4</ele>
        <time>2024-03-17T08:30:34Z</time>
      </trkpt>
      <trkpt lat="49.96727" lon="4.36479">
        <ele>330.4</ele>
        <time>2024-03-17T08:30:35Z</time>
      </trkpt>
      <trkpt lat="49.96725" lon="4.36487">
        <ele>330.4</ele>
        <time>2024-03-17T08:30:36Z</time>
      </trkpt>
      <trkpt lat="49.96724" lon="4.36495">
        <ele>330.4</ele>
        <time>2024-03-17T08:30:37Z</time>
      </trkpt>
      <trkpt lat="49.96722" lon="4.36503">
        <ele>330.4</ele>
        <time>2024-03-17T08:30:38Z</time>
      </trkpt>
      <trkpt lat="49.96721" lon="4.36511">
        <ele>330.4</ele>
        <time>2024-03-17T08:30:39Z</time>
      </trkpt>
      <trkpt lat="49.96719" lon="4.36519">
        <ele>330.4</ele>
        <time>2024-03-17T08:30:40Z</time>
      </trkpt>
      <trkpt lat="49.96718" lon="4.36527">
        <ele>330.6</ele>
        <time>2024-03-17T08:30:41Z</time>
      </trkpt>
      <trkpt lat="49.96716" lon="4.36536">
        <ele>330.6</ele>
        <time>2024-03-17T08:30:42Z</time>
      </trkpt>
      <trkpt lat="49.96715" lon="4.36544">
        <ele>330.6</ele>
        <time>2024-03-17T08:30:43Z</time>
      </trkpt>
      <trkpt lat="49.96714" lon="4.36552">
        <ele>330.6</ele>
        <time>2024-03-17T08:30:44Z</time>
      </trkpt>
      <trkpt lat="49.96712" lon="4.3656">
        <ele>330.6</ele>
        <time>2024-03-17T08:30:45Z</time>
      </trkpt>
      <trkpt lat="49.96711" lon="4.36568">
        <ele>330.8</ele>
        <time>2024-03-17T08:30:46Z</time>
      </trkpt>
      <trkpt lat="49.96709" lon="4.36576">
        <ele>330.6</ele>
        <time>2024-03-17T08:30:47Z</time>
      </trkpt>
      <trkpt lat="49.96708" lon="4.36584">
        <ele>330.6</ele>
        <time>2024-03-17T08:30:48Z</time>
      </trkpt>
      <trkpt lat="49.96706" lon="4.36592">
        <ele>330.8</ele>
        <time>2024-03-17T08:30:49Z</time>
      </trkpt>
      <trkpt lat="49.96704" lon="4.366">
        <ele>330.8</ele>
        <time>2024-03-17T08:30:50Z</time>
      </trkpt>
      <trkpt lat="49.96701" lon="4.36608">
        <ele>330.8</ele>
        <time>2024-03-17T08:30:51Z</time>
      </trkpt>
      <trkpt lat="49.96698" lon="4.36615">
        <ele>330.8</ele>
        <time>2024-03-17T08:30:52Z</time>
      </trkpt>
      <trkpt lat="49.96696" lon="4.36622">
        <ele>330.8</ele>
        <time>2024-03-17T08:30:53Z</time>
      </trkpt>
      <trkpt lat="49.96693" lon="4.36629">
        <ele>330.8</ele>
        <time>2024-03-17T08:30:54Z</time>
      </trkpt>
      <trkpt lat="49.9669" lon="4.36636">
        <ele>331</ele>
        <time>2024-03-17T08:30:55Z</time>
      </trkpt>
      <trkpt lat="49.96686" lon="4.36643">
        <ele>330.8</ele>
        <time>2024-03-17T08:30:56Z</time>
      </trkpt>
      <trkpt lat="49.96683" lon="4.36649">
        <ele>331</ele>
        <time>2024-03-17T08:30:57Z</time>
      </trkpt>
      <trkpt lat="49.96681" lon="4.36656">
        <ele>331</ele>
        <time>2024-03-17T08:30:58Z</time>
      </trkpt>
      <trkpt lat="49.96678" lon="4.36663">
        <ele>331</ele>
        <time>2024-03-17T08:30:59Z</time>
      </trkpt>
      <trkpt lat="49.96675" lon="4.36669">
        <ele>331</ele>
        <time>2024-03-17T08:31:00Z</time>
      </trkpt>
      <trkpt lat="49.96672" lon="4.36676">
        <ele>331</ele>
        <time>2024-03-17T08:31:01Z</time>
      </trkpt>
      <trkpt lat="49.96669" lon="4.36682">
        <ele>331.2</ele>
        <time>2024-03-17T08:31:02Z</time>
      </trkpt>
      <trkpt lat="49.96666" lon="4.36689">
        <ele>331.2</ele>
        <time>2024-03-17T08:31:03Z</time>
      </trkpt>
      <trkpt lat="49.96663" lon="4.36695">
        <ele>331.2</ele>
        <time>2024-03-17T08:31:04Z</time>
      </trkpt>
      <trkpt lat="49.9666" lon="4.36702">
        <ele>331.2</ele>
        <time>2024-03-17T08:31:05Z</time>
      </trkpt>
      <trkpt lat="49.96657" lon="4.36708">
        <ele>331.4</ele>
        <time>2024-03-17T08:31:06Z</time>
      </trkpt>
      <trkpt lat="49.96654" lon="4.36715">
        <ele>331.4</ele>
        <time>2024-03-17T08:31:07Z</time>
      </trkpt>
      <trkpt lat="49.96652" lon="4.36722">
        <ele>331.4</ele>
        <time>2024-03-17T08:31:08Z</time>
      </trkpt>
      <trkpt lat="49.96649" lon="4.36728">
        <ele>331.4</ele>
        <time>2024-03-17T08:31:09Z</time>
      </trkpt>
      <trkpt lat="49.96646" lon="4.36735">
        <ele>331.6</ele>
        <time>2024-03-17T08:31:10Z</time>
      </trkpt>
      <trkpt lat="49.96643" lon="4.36742">
        <ele>331.6</ele>
        <time>2024-03-17T08:31:11Z</time>
      </trkpt>
      <trkpt lat="49.9664" lon="4.36749">
        <ele>331.6</ele>
        <time>2024-03-17T08:31:12Z</time>
      </trkpt>
      <trkpt lat="49.96637" lon="4.36756">
        <ele>331.6</ele>
        <time>2024-03-17T08:31:13Z</time>
      </trkpt>
      <trkpt lat="49.96634" lon="4.36763">
        <ele>331.6</ele>
        <time>2024-03-17T08:31:14Z</time>
      </trkpt>
      <trkpt lat="49.96631" lon="4.3677">
        <ele>331.8</ele>
        <time>2024-03-17T08:31:15Z</time>
      </trkpt>
      <trkpt lat="49.96628" lon="4.36776">
        <ele>331.8</ele>
        <time>2024-03-17T08:31:16Z</time>
      </trkpt>
      <trkpt lat="49.96625" lon="4.36783">
        <ele>331.8</ele>
        <time>2024-03-17T08:31:17Z</time>
      </trkpt>
      <trkpt lat="49.96622" lon="4.3679">
        <ele>332</ele>
        <time>2024-03-17T08:31:18Z</time>
      </trkpt>
      <trkpt lat="49.96619" lon="4.36797">
        <ele>331.8</ele>
        <time>2024-03-17T08:31:19Z</time>
      </trkpt>
      <trkpt lat="49.96616" lon="4.36804">
        <ele>332.2</ele>
        <time>2024-03-17T08:31:20Z</time>
      </trkpt>
      <trkpt lat="49.96612" lon="4.36811">
        <ele>332.2</ele>
        <time>2024-03-17T08:31:21Z</time>
      </trkpt>
      <trkpt lat="49.96609" lon="4.36819">
        <ele>332</ele>
        <time>2024-03-17T08:31:22Z</time>
      </trkpt>
      <trkpt lat="49.96605" lon="4.36826">
        <ele>332.4</ele>
        <time>2024-03-17T08:31:23Z</time>
      </trkpt>
      <trkpt lat="49.96602" lon="4.36834">
        <ele>332.2</ele>
        <time>2024-03-17T08:31:24Z</time>
      </trkpt>
      <trkpt lat="49.96599" lon="4.36841">
        <ele>332.4</ele>
        <time>2024-03-17T08:31:25Z</time>
      </trkpt>
      <trkpt lat="49.96595" lon="4.36849">
        <ele>332.4</ele>
        <time>2024-03-17T08:31:26Z</time>
      </trkpt>
      <trkpt lat="49.96592" lon="4.36857">
        <ele>332.4</ele>
        <time>2024-03-17T08:31:27Z</time>
      </trkpt>
      <trkpt lat="49.96588" lon="4.36864">
        <ele>332.4</ele>
        <time>2024-03-17T08:31:28Z</time>
      </trkpt>
      <trkpt lat="49.96585" lon="4.36872">
        <ele>332.6</ele>
        <time>2024-03-17T08:31:29Z</time>
      </trkpt>
      <trkpt lat="49.96581" lon="4.3688">
        <ele>332.6</ele>
        <time>2024-03-17T08:31:30Z</time>
      </trkpt>
      <trkpt lat="49.96578" lon="4.36888">
        <ele>332.8</ele>
        <time>2024-03-17T08:31:31Z</time>
      </trkpt>
      <trkpt lat="49.96575" lon="4.36895">
        <ele>332.6</ele>
        <time>2024-03-17T08:31:32Z</time>
      </trkpt>
      <trkpt lat="49.96571" lon="4.36903">
        <ele>332.6</ele>
        <time>2024-03-17T08:31:33Z</time>
      </trkpt>
      <trkpt lat="49.96568" lon="4.36911">
        <ele>332.6</ele>
        <time>2024-03-17T08:31:34Z</time>
      </trkpt>
      <trkpt lat="49.96564" lon="4.36919">
        <ele>332.6</ele>
        <time>2024-03-17T08:31:35Z</time>
      </trkpt>
      <trkpt lat="49.96561" lon="4.36927">
        <ele>332.6</ele>
        <time>2024-03-17T08:31:36Z</time>
      </trkpt>
      <trkpt lat="49.96558" lon="4.36935">
        <ele>332.4</ele>
        <time>2024-03-17T08:31:37Z</time>
      </trkpt>
      <trkpt lat="49.96554" lon="4.36943">
        <ele>332.4</ele>
        <time>2024-03-17T08:31:38Z</time>
      </trkpt>
      <trkpt lat="49.96551" lon="4.36951">
        <ele>332.2</ele>
        <time>2024-03-17T08:31:39Z</time>
      </trkpt>
      <trkpt lat="49.96548" lon="4.36959">
        <ele>332.2</ele>
        <time>2024-03-17T08:31:40Z</time>
      </trkpt>
      <trkpt lat="49.96545" lon="4.36967">
        <ele>332.2</ele>
        <time>2024-03-17T08:31:41Z</time>
      </trkpt>
      <trkpt lat="49.96542" lon="4.36975">
        <ele>332</ele>
        <time>2024-03-17T08:31:42Z</time>
      </trkpt>
      <trkpt lat="49.96539" lon="4.36984">
        <ele>332.2</ele>
        <time>2024-03-17T08:31:43Z</time>
      </trkpt>
      <trkpt lat="49.96536" lon="4.36992">
        <ele>332</ele>
        <time>2024-03-17T08:31:44Z</time>
      </trkpt>
      <trkpt lat="49.96533" lon="4.36999">
        <ele>331.8</ele>
        <time>2024-03-17T08:31:45Z</time>
      </trkpt>
      <trkpt lat="49.9653" lon="4.37007">
        <ele>331.8</ele>
        <time>2024-03-17T08:31:46Z</time>
      </trkpt>
      <trkpt lat="49.96527" lon="4.37015">
        <ele>331.8</ele>
        <time>2024-03-17T08:31:47Z</time>
      </trkpt>
      <trkpt lat="49.96524" lon="4.37023">
        <ele>331.8</ele>
        <time>2024-03-17T08:31:48Z</time>
      </trkpt>
      <trkpt lat="49.9652" lon="4.37032">
        <ele>331.8</ele>
        <time>2024-03-17T08:31:49Z</time>
      </trkpt>
      <trkpt lat="49.96517" lon="4.3704">
        <ele>331.8</ele>
        <time>2024-03-17T08:31:50Z</time>
      </trkpt>
      <trkpt lat="49.96514" lon="4.37049">
        <ele>331.8</ele>
        <time>2024-03-17T08:31:51Z</time>
      </trkpt>
      <trkpt lat="49.9651" lon="4.37058">
        <ele>331.8</ele>
        <time>2024-03-17T08:31:52Z</time>
      </trkpt>
      <trkpt lat="49.96507" lon="4.37067">
        <ele>331.6</ele>
        <time>2024-03-17T08:31:53Z</time>
      </trkpt>
      <trkpt lat="49.96504" lon="4.37077">
        <ele>331.6</ele>
        <time>2024-03-17T08:31:54Z</time>
      </trkpt>
      <trkpt lat="49.965" lon="4.37086">
        <ele>331.8</ele>
        <time>2024-03-17T08:31:55Z</time>
      </trkpt>
      <trkpt lat="49.96496" lon="4.37096">
        <ele>331.6</ele>
        <time>2024-03-17T08:31:56Z</time>
      </trkpt>
      <trkpt lat="49.96493" lon="4.37105">
        <ele>331.6</ele>
        <time>2024-03-17T08:31:57Z</time>
      </trkpt>
      <trkpt lat="49.96489" lon="4.37115">
        <ele>331.2</ele>
        <time>2024-03-17T08:31:58Z</time>
      </trkpt>
      <trkpt lat="49.96485" lon="4.37125">
        <ele>331</ele>
        <time>2024-03-17T08:31:59Z</time>
      </trkpt>
      <trkpt lat="49.96482" lon="4.37135">
        <ele>330.6</ele>
        <time>2024-03-17T08:32:00Z</time>
      </trkpt>
      <trkpt lat="49.96478" lon="4.37146">
        <ele>330.4</ele>
        <time>2024-03-17T08:32:01Z</time>
      </trkpt>
      <trkpt lat="49.96474" lon="4.37156">
        <ele>330.2</ele>
        <time>2024-03-17T08:32:02Z</time>
      </trkpt>
      <trkpt lat="49.9647" lon="4.37166">
        <ele>330</ele>
        <time>2024-03-17T08:32:03Z</time>
      </trkpt>
      <trkpt lat="49.96466" lon="4.37177">
        <ele>329.6</ele>
        <time>2024-03-17T08:32:04Z</time>
      </trkpt>
      <trkpt lat="49.96462" lon="4.37188">
        <ele>329.4</ele>
        <time>2024-03-17T08:32:05Z</time>
      </trkpt>
      <trkpt lat="49.96459" lon="4.37199">
        <ele>329</ele>
        <time>2024-03-17T08:32:06Z</time>
      </trkpt>
      <trkpt lat="49.96455" lon="4.3721">
        <ele>328.8</ele>
        <time>2024-03-17T08:32:07Z</time>
      </trkpt>
      <trkpt lat="49.9645" lon="4.37221">
        <ele>328.8</ele>
        <time>2024-03-17T08:32:08Z</time>
      </trkpt>
      <trkpt lat="49.96446" lon="4.37232">
        <ele>328.4</ele>
        <time>2024-03-17T08:32:09Z</time>
      </trkpt>
      <trkpt lat="49.96442" lon="4.37243">
        <ele>328</ele>
        <time>2024-03-17T08:32:10Z</time>
      </trkpt>
      <trkpt lat="49.96438" lon="4.37254">
        <ele>327.4</ele>
        <time>2024-03-17T08:32:11Z</time>
      </trkpt>
      <trkpt lat="49.96434" lon="4.37265">
        <ele>327</ele>
        <time>2024-03-17T08:32:12Z</time>
      </trkpt>
      <trkpt lat="49.96429" lon="4.37277">
        <ele>326.8</ele>
        <time>2024-03-17T08:32:13Z</time>
      </trkpt>
      <trkpt lat="49.96425" lon="4.37288">
        <ele>326.4</ele>
        <time>2024-03-17T08:32:14Z</time>
      </trkpt>
      <trkpt lat="49.96421" lon="4.373">
        <ele>326.2</ele>
        <time>2024-03-17T08:32:15Z</time>
      </trkpt>
      <trkpt lat="49.96416" lon="4.37311">
        <ele>326</ele>
        <time>2024-03-17T08:32:16Z</time>
      </trkpt>
      <trkpt lat="49.96412" lon="4.37323">
        <ele>325.6</ele>
        <time>2024-03-17T08:32:17Z</time>
      </trkpt>
      <trkpt lat="49.96408" lon="4.37335">
        <ele>325</ele>
        <time>2024-03-17T08:32:18Z</time>
      </trkpt>
      <trkpt lat="49.96403" lon="4.37347">
        <ele>324.2</ele>
        <time>2024-03-17T08:32:19Z</time>
      </trkpt>
      <trkpt lat="49.96399" lon="4.37358">
        <ele>323.8</ele>
        <time>2024-03-17T08:32:20Z</time>
      </trkpt>
      <trkpt lat="49.96395" lon="4.3737">
        <ele>323.4</ele>
        <time>2024-03-17T08:32:21Z</time>
      </trkpt>
      <trkpt lat="49.9639" lon="4.37382">
        <ele>322.8</ele>
        <time>2024-03-17T08:32:22Z</time>
      </trkpt>
      <trkpt lat="49.96386" lon="4.37394">
        <ele>322.4</ele>
        <time>2024-03-17T08:32:23Z</time>
      </trkpt>
      <trkpt lat="49.96381" lon="4.37406">
        <ele>322</ele>
        <time>2024-03-17T08:32:24Z</time>
      </trkpt>
      <trkpt lat="49.96377" lon="4.37418">
        <ele>322</ele>
        <time>2024-03-17T08:32:25Z</time>
      </trkpt>
      <trkpt lat="49.96373" lon="4.3743">
        <ele>321.8</ele>
        <time>2024-03-17T08:32:26Z</time>
      </trkpt>
      <trkpt lat="49.96368" lon="4.37442">
        <ele>321.6</ele>
        <time>2024-03-17T08:32:27Z</time>
      </trkpt>
      <trkpt lat="49.96364" lon="4.37454">
        <ele>321.4</ele>
        <time>2024-03-17T08:32:28Z</time>
      </trkpt>
      <trkpt lat="49.9636" lon="4.37466">
        <ele>320.8</ele>
        <time>2024-03-17T08:32:29Z</time>
      </trkpt>
      <trkpt lat="49.96355" lon="4.37477">
        <ele>320.2</ele>
        <time>2024-03-17T08:32:30Z</time>
      </trkpt>
      <trkpt lat="49.9635" lon="4.37489">
        <ele>319.8</ele>
        <time>2024-03-17T08:32:31Z</time>
      </trkpt>
      <trkpt lat="49.96346" lon="4.37501">
        <ele>319.4</ele>
        <time>2024-03-17T08:32:32Z</time>
      </trkpt>
      <trkpt lat="49.96342" lon="4.37513">
        <ele>319.2</ele>
        <time>2024-03-17T08:32:33Z</time>
      </trkpt>
      <trkpt lat="49.96337" lon="4.37525">
        <ele>318.4</ele>
        <time>2024-03-17T08:32:34Z</time>
      </trkpt>
      <trkpt lat="49.96333" lon="4.37536">
        <ele>318.2</ele>
        <time>2024-03-17T08:32:35Z</time>
      </trkpt>
      <trkpt lat="49.96328" lon="4.37548">
        <ele>318</ele>
        <time>2024-03-17T08:32:36Z</time>
      </trkpt>
      <trkpt lat="49.96324" lon="4.3756">
        <ele>317.8</ele>
        <time>2024-03-17T08:32:37Z</time>
      </trkpt>
      <trkpt lat="49.96319" lon="4.37572">
        <ele>317.4</ele>
        <time>2024-03-17T08:32:38Z</time>
      </trkpt>
      <trkpt lat="49.96314" lon="4.37584">
        <ele>317</ele>
        <time>2024-03-17T08:32:39Z</time>
      </trkpt>
      <trkpt lat="49.9631" lon="4.37596">
        <ele>316.8</ele>
        <time>2024-03-17T08:32:40Z</time>
      </trkpt>
      <trkpt lat="49.96305" lon="4.37608">
        <ele>316.2</ele>
        <time>2024-03-17T08:32:41Z</time>
      </trkpt>
      <trkpt lat="49.963" lon="4.3762">
        <ele>316</ele>
        <time>2024-03-17T08:32:42Z</time>
      </trkpt>
      <trkpt lat="49.96295" lon="4.37633">
        <ele>315.8</ele>
        <time>2024-03-17T08:32:43Z</time>
      </trkpt>
      <trkpt lat="49.96289" lon="4.37645">
        <ele>315.8</ele>
        <time>2024-03-17T08:32:44Z</time>
      </trkpt>
      <trkpt lat="49.96283" lon="4.37658">
        <ele>315.8</ele>
        <time>2024-03-17T08:32:45Z</time>
      </trkpt>
      <trkpt lat="49.96278" lon="4.3767">
        <ele>315.2</ele>
        <time>2024-03-17T08:32:46Z</time>
      </trkpt>
      <trkpt lat="49.96272" lon="4.37683">
        <ele>314.8</ele>
        <time>2024-03-17T08:32:47Z</time>
      </trkpt>
      <trkpt lat="49.96266" lon="4.37696">
        <ele>314.6</ele>
        <time>2024-03-17T08:32:48Z</time>
      </trkpt>
      <trkpt lat="49.9626" lon="4.37709">
        <ele>314.6</ele>
        <time>2024-03-17T08:32:49Z</time>
      </trkpt>
      <trkpt lat="49.96254" lon="4.37722">
        <ele>314.4</ele>
        <time>2024-03-17T08:32:50Z</time>
      </trkpt>
      <trkpt lat="49.96248" lon="4.37735">
        <ele>313.8</ele>
        <time>2024-03-17T08:32:51Z</time>
      </trkpt>
      <trkpt lat="49.96243" lon="4.37748">
        <ele>313</ele>
        <time>2024-03-17T08:32:52Z</time>
      </trkpt>
      <trkpt lat="49.96237" lon="4.37761">
        <ele>312.4</ele>
        <time>2024-03-17T08:32:53Z</time>
      </trkpt>
      <trkpt lat="49.96231" lon="4.37775">
        <ele>311.6</ele>
        <time>2024-03-17T08:32:54Z</time>
      </trkpt>
      <trkpt lat="49.96225" lon="4.37789">
        <ele>310.8</ele>
        <time>2024-03-17T08:32:55Z</time>
      </trkpt>
      <trkpt lat="49.96219" lon="4.37802">
        <ele>310.2</ele>
        <time>2024-03-17T08:32:56Z</time>
      </trkpt>
      <trkpt lat="49.96212" lon="4.37816">
        <ele>309.8</ele>
        <time>2024-03-17T08:32:57Z</time>
      </trkpt>
      <trkpt lat="49.96206" lon="4.3783">
        <ele>309.4</ele>
        <time>2024-03-17T08:32:58Z</time>
      </trkpt>
      <trkpt lat="49.962" lon="4.37844">
        <ele>308.6</ele>
        <time>2024-03-17T08:32:59Z</time>
      </trkpt>
      <trkpt lat="49.96194" lon="4.37858">
        <ele>308.6</ele>
        <time>2024-03-17T08:33:00Z</time>
      </trkpt>
      <trkpt lat="49.96187" lon="4.37872">
        <ele>307.8</ele>
        <time>2024-03-17T08:33:01Z</time>
      </trkpt>
      <trkpt lat="49.96181" lon="4.37886">
        <ele>307.2</ele>
        <time>2024-03-17T08:33:02Z</time>
      </trkpt>
      <trkpt lat="49.96175" lon="4.379">
        <ele>306.6</ele>
        <time>2024-03-17T08:33:03Z</time>
      </trkpt>
      <trkpt lat="49.96168" lon="4.37914">
        <ele>306.2</ele>
        <time>2024-03-17T08:33:04Z</time>
      </trkpt>
      <trkpt lat="49.96162" lon="4.37928">
        <ele>305.6</ele>
        <time>2024-03-17T08:33:05Z</time>
      </trkpt>
      <trkpt lat="49.96155" lon="4.37942">
        <ele>304.8</ele>
        <time>2024-03-17T08:33:06Z</time>
      </trkpt>
      <trkpt lat="49.96148" lon="4.37955">
        <ele>304</ele>
        <time>2024-03-17T08:33:07Z</time>
      </trkpt>
      <trkpt lat="49.96141" lon="4.37968">
        <ele>303.4</ele>
        <time>2024-03-17T08:33:08Z</time>
      </trkpt>
      <trkpt lat="49.96133" lon="4.3798">
        <ele>302.6</ele>
        <time>2024-03-17T08:33:09Z</time>
      </trkpt>
      <trkpt lat="49.96125" lon="4.37993">
        <ele>302.2</ele>
        <time>2024-03-17T08:33:10Z</time>
      </trkpt>
      <trkpt lat="49.96117" lon="4.38005">
        <ele>301.6</ele>
        <time>2024-03-17T08:33:11Z</time>
      </trkpt>
      <trkpt lat="49.96109" lon="4.38016">
        <ele>300.8</ele>
        <time>2024-03-17T08:33:12Z</time>
      </trkpt>
      <trkpt lat="49.961" lon="4.38027">
        <ele>300.2</ele>
        <time>2024-03-17T08:33:13Z</time>
      </trkpt>
      <trkpt lat="49.96091" lon="4.38036">
        <ele>299.8</ele>
        <time>2024-03-17T08:33:14Z</time>
      </trkpt>
      <trkpt lat="49.96082" lon="4.38043">
        <ele>299.8</ele>
        <time>2024-03-17T08:33:15Z</time>
      </trkpt>
      <trkpt lat="49.96073" lon="4.38049">
        <ele>299.2</ele>
        <time>2024-03-17T08:33:16Z</time>
      </trkpt>
      <trkpt lat="49.96064" lon="4.38054">
        <ele>298.6</ele>
        <time>2024-03-17T08:33:17Z</time>
      </trkpt>
      <trkpt lat="49.96055" lon="4.38058">
        <ele>297.8</ele>
        <time>2024-03-17T08:33:18Z</time>
      </trkpt>
      <trkpt lat="49.96047" lon="4.38061">
        <ele>297</ele>
        <time>2024-03-17T08:33:19Z</time>
      </trkpt>
      <trkpt lat="49.96038" lon="4.38064">
        <ele>296</ele>
        <time>2024-03-17T08:33:20Z</time>
      </trkpt>
      <trkpt lat="49.96029" lon="4.38067">
        <ele>295.4</ele>
        <time>2024-03-17T08:33:21Z</time>
      </trkpt>
      <trkpt lat="49.9602" lon="4.3807">
        <ele>295.2</ele>
        <time>2024-03-17T08:33:22Z</time>
      </trkpt>
      <trkpt lat="49.96011" lon="4.38072">
        <ele>295</ele>
        <time>2024-03-17T08:33:23Z</time>
      </trkpt>
      <trkpt lat="49.96002" lon="4.38075">
        <ele>294.8</ele>
        <time>2024-03-17T08:33:24Z</time>
      </trkpt>
      <trkpt lat="49.95992" lon="4.38077">
        <ele>294.6</ele>
        <time>2024-03-17T08:33:25Z</time>
      </trkpt>
      <trkpt lat="49.95982" lon="4.3808">
        <ele>294.4</ele>
        <time>2024-03-17T08:33:26Z</time>
      </trkpt>
      <trkpt lat="49.95972" lon="4.38082">
        <ele>294.4</ele>
        <time>2024-03-17T08:33:27Z</time>
      </trkpt>
      <trkpt lat="49.95962" lon="4.38084">
        <ele>294.2</ele>
        <time>2024-03-17T08:33:28Z</time>
      </trkpt>
      <trkpt lat="49.95953" lon="4.38086">
        <ele>294</ele>
        <time>2024-03-17T08:33:29Z</time>
      </trkpt>
      <trkpt lat="49.95944" lon="4.38089">
        <ele>293.6</ele>
        <time>2024-03-17T08:33:30Z</time>
      </trkpt>
      <trkpt lat="49.95935" lon="4.38092">
        <ele>293.6</ele>
        <time>2024-03-17T08:33:31Z</time>
      </trkpt>
      <trkpt lat="49.95926" lon="4.38095">
        <ele>293.6</ele>
        <time>2024-03-17T08:33:32Z</time>
      </trkpt>
      <trkpt lat="49.95917" lon="4.38097">
        <ele>293</ele>
        <time>2024-03-17T08:33:33Z</time>
      </trkpt>
      <trkpt lat="49.95908" lon="4.381">
        <ele>292.8</ele>
        <time>2024-03-17T08:33:34Z</time>
      </trkpt>
      <trkpt lat="49.95899" lon="4.38103">
        <ele>292.4</ele>
        <time>2024-03-17T08:33:35Z</time>
      </trkpt>
      <trkpt lat="49.95891" lon="4.38105">
        <ele>292.2</ele>
        <time>2024-03-17T08:33:36Z</time>
      </trkpt>
      <trkpt lat="49.95883" lon="4.38108">
        <ele>291.8</ele>
        <time>2024-03-17T08:33:37Z</time>
      </trkpt>
      <trkpt lat="49.95874" lon="4.3811">
        <ele>291.8</ele>
        <time>2024-03-17T08:33:38Z</time>
      </trkpt>
      <trkpt lat="49.95866" lon="4.38112">
        <ele>291.6</ele>
        <time>2024-03-17T08:33:39Z</time>
      </trkpt>
      <trkpt lat="49.95858" lon="4.38114">
        <ele>291.6</ele>
        <time>2024-03-17T08:33:40Z</time>
      </trkpt>
      <trkpt lat="49.95851" lon="4.38117">
        <ele>291.8</ele>
        <time>2024-03-17T08:33:41Z</time>
      </trkpt>
      <trkpt lat="49.95843" lon="4.38119">
        <ele>291.8</ele>
        <time>2024-03-17T08:33:42Z</time>
      </trkpt>
      <trkpt lat="49.95836" lon="4.38121">
        <ele>291.8</ele>
        <time>2024-03-17T08:33:43Z</time>
      </trkpt>
      <trkpt lat="49.95829" lon="4.38123">
        <ele>291.8</ele>
        <time>2024-03-17T08:33:44Z</time>
      </trkpt>
      <trkpt lat="49.95822" lon="4.38125">
        <ele>291.8</ele>
        <time>2024-03-17T08:33:45Z</time>
      </trkpt>
      <trkpt lat="49.95816" lon="4.38126">
        <ele>291.6</ele>
        <time>2024-03-17T08:33:46Z</time>
      </trkpt>
      <trkpt lat="49.95809" lon="4.38128">
        <ele>291.8</ele>
        <time>2024-03-17T08:33:47Z</time>
      </trkpt>
      <trkpt lat="49.95803" lon="4.3813">
        <ele>291.8</ele>
        <time>2024-03-17T08:33:48Z</time>
      </trkpt>
      <trkpt lat="49.95798" lon="4.38133">
        <ele>292.2</ele>
        <time>2024-03-17T08:33:49Z</time>
      </trkpt>
      <trkpt lat="49.95792" lon="4.38135">
        <ele>292.6</ele>
        <time>2024-03-17T08:33:50Z</time>
      </trkpt>
      <trkpt lat="49.95787" lon="4.38136">
        <ele>292.6</ele>
        <time>2024-03-17T08:33:51Z</time>
      </trkpt>
      <trkpt lat="49.95782" lon="4.38138">
        <ele>293</ele>
        <time>2024-03-17T08:33:52Z</time>
      </trkpt>
      <trkpt lat="49.95777" lon="4.3814">
        <ele>293.2</ele>
        <time>2024-03-17T08:33:53Z</time>
      </trkpt>
      <trkpt lat="49.95772" lon="4.38142">
        <ele>293.6</ele>
        <time>2024-03-17T08:33:54Z</time>
      </trkpt>
      <trkpt lat="49.95768" lon="4.38144">
        <ele>293.6</ele>
        <time>2024-03-17T08:33:55Z</time>
      </trkpt>
      <trkpt lat="49.95764" lon="4.38146">
        <ele>294.2</ele>
        <time>2024-03-17T08:33:56Z</time>
      </trkpt>
      <trkpt lat="49.9576" lon="4.38149">
        <ele>294.6</ele>
        <time>2024-03-17T08:33:57Z</time>
      </trkpt>
      <trkpt lat="49.95756" lon="4.38152">
        <ele>294.8</ele>
        <time>2024-03-17T08:33:58Z</time>
      </trkpt>
      <trkpt lat="49.95753" lon="4.38155">
        <ele>295.6</ele>
        <time>2024-03-17T08:33:59Z</time>
      </trkpt>
      <trkpt lat="49.95749" lon="4.38158">
        <ele>296</ele>
        <time>2024-03-17T08:34:00Z</time>
      </trkpt>
      <trkpt lat="49.95746" lon="4.38161">
        <ele>296.4</ele>
        <time>2024-03-17T08:34:01Z</time>
      </trkpt>
      <trkpt lat="49.95743" lon="4.38165">
        <ele>296.6</ele>
        <time>2024-03-17T08:34:02Z</time>
      </trkpt>
      <trkpt lat="49.95739" lon="4.38169">
        <ele>296.8</ele>
        <time>2024-03-17T08:34:03Z</time>
      </trkpt>
      <trkpt lat="49.95736" lon="4.38173">
        <ele>297</ele>
        <time>2024-03-17T08:34:04Z</time>
      </trkpt>
      <trkpt lat="49.95733" lon="4.38177">
        <ele>297.2</ele>
        <time>2024-03-17T08:34:05Z</time>
      </trkpt>
      <trkpt lat="49.9573" lon="4.38181">
        <ele>297.4</ele>
        <time>2024-03-17T08:34:06Z</time>
      </trkpt>
      <trkpt lat="49.95727" lon="4.38186">
        <ele>297.6</ele>
        <time>2024-03-17T08:34:07Z</time>
      </trkpt>
      <trkpt lat="49.95723" lon="4.3819">
        <ele>297.6</ele>
        <time>2024-03-17T08:34:08Z</time>
      </trkpt>
      <trkpt lat="49.9572" lon="4.38193">
        <ele>297.8</ele>
        <time>2024-03-17T08:34:09Z</time>
      </trkpt>
      <trkpt lat="49.95717" lon="4.38197">
        <ele>298.6</ele>
        <time>2024-03-17T08:34:10Z</time>
      </trkpt>
      <trkpt lat="49.95714" lon="4.38201">
        <ele>299.2</ele>
        <time>2024-03-17T08:34:11Z</time>
      </trkpt>
      <trkpt lat="49.95711" lon="4.38205">
        <ele>299.6</ele>
        <time>2024-03-17T08:34:12Z</time>
      </trkpt>
      <trkpt lat="49.95708" lon="4.38209">
        <ele>299.8</ele>
        <time>2024-03-17T08:34:13Z</time>
      </trkpt>
      <trkpt lat="49.95705" lon="4.38213">
        <ele>300</ele>
        <time>2024-03-17T08:34:14Z</time>
      </trkpt>
      <trkpt lat="49.95702" lon="4.38217">
        <ele>300.2</ele>
        <time>2024-03-17T08:34:15Z</time>
      </trkpt>
      <trkpt lat="49.95699" lon="4.38222">
        <ele>300.2</ele>
        <time>2024-03-17T08:34:16Z</time>
      </trkpt>
      <trkpt lat="49.95696" lon="4.38226">
        <ele>300.4</ele>
        <time>2024-03-17T08:34:17Z</time>
      </trkpt>
      <trkpt lat="49.95693" lon="4.3823">
        <ele>300.6</ele>
        <time>2024-03-17T08:34:18Z</time>
      </trkpt>
      <trkpt lat="49.9569" lon="4.38235">
        <ele>300.8</ele>
        <time>2024-03-17T08:34:19Z</time>
      </trkpt>
      <trkpt lat="49.95687" lon="4.38239">
        <ele>300.8</ele>
        <time>2024-03-17T08:34:20Z</time>
      </trkpt>
      <trkpt lat="49.95683" lon="4.38243">
        <ele>301</ele>
        <time>2024-03-17T08:34:21Z</time>
      </trkpt>
      <trkpt lat="49.9568" lon="4.38247">
        <ele>301.4</ele>
        <time>2024-03-17T08:34:22Z</time>
      </trkpt>
      <trkpt lat="49.95677" lon="4.38251">
        <ele>301.6</ele>
        <time>2024-03-17T08:34:23Z</time>
      </trkpt>
      <trkpt lat="49.95674" lon="4.38255">
        <ele>301.6</ele>
        <time>2024-03-17T08:34:24Z</time>
      </trkpt>
      <trkpt lat="49.95671" lon="4.38259">
        <ele>302</ele>
        <time>2024-03-17T08:34:25Z</time>
      </trkpt>
      <trkpt lat="49.95668" lon="4.38264">
        <ele>302</ele>
        <time>2024-03-17T08:34:26Z</time>
      </trkpt>
      <trkpt lat="49.95665" lon="4.38269">
        <ele>302</ele>
        <time>2024-03-17T08:34:27Z</time>
      </trkpt>
      <trkpt lat="49.95661" lon="4.38274">
        <ele>302.2</ele>
        <time>2024-03-17T08:34:28Z</time>
      </trkpt>
      <trkpt lat="49.95658" lon="4.38278">
        <ele>302.4</ele>
        <time>2024-03-17T08:34:29Z</time>
      </trkpt>
      <trkpt lat="49.95654" lon="4.38283">
        <ele>302.4</ele>
        <time>2024-03-17T08:34:30Z</time>
      </trkpt>
      <trkpt lat="49.95651" lon="4.38288">
        <ele>302.8</ele>
        <time>2024-03-17T08:34:31Z</time>
      </trkpt>
      <trkpt lat="49.95647" lon="4.38293">
        <ele>302.8</ele>
        <time>2024-03-17T08:34:32Z</time>
      </trkpt>
      <trkpt lat="49.95643" lon="4.38298">
        <ele>303</ele>
        <time>2024-03-17T08:34:33Z</time>
      </trkpt>
      <trkpt lat="49.95639" lon="4.38303">
        <ele>303.2</ele>
        <time>2024-03-17T08:34:34Z</time>
      </trkpt>
      <trkpt lat="49.95635" lon="4.38308">
        <ele>303</ele>
        <time>2024-03-17T08:34:35Z</time>
      </trkpt>
      <trkpt lat="49.95631" lon="4.38314">
        <ele>303.2</ele>
        <time>2024-03-17T08:34:36Z</time>
      </trkpt>
      <trkpt lat="49.95626" lon="4.3832">
        <ele>303</ele>
        <time>2024-03-17T08:34:37Z</time>
      </trkpt>
      <trkpt lat="49.95622" lon="4.38326">
        <ele>303.2</ele>
        <time>2024-03-17T08:34:38Z</time>
      </trkpt>
      <trkpt lat="49.95617" lon="4.38332">
        <ele>303</ele>
        <time>2024-03-17T08:34:39Z</time>
      </trkpt>
      <trkpt lat="49.95612" lon="4.38338">
        <ele>303</ele>
        <time>2024-03-17T08:34:40Z</time>
      </trkpt>
      <trkpt lat="49.95607" lon="4.38344">
        <ele>303</ele>
        <time>2024-03-17T08:34:41Z</time>
      </trkpt>
      <trkpt lat="49.95602" lon="4.3835">
        <ele>303</ele>
        <time>2024-03-17T08:34:42Z</time>
      </trkpt>
      <trkpt lat="49.95597" lon="4.38357">
        <ele>303</ele>
        <time>2024-03-17T08:34:43Z</time>
      </trkpt>
      <trkpt lat="49.95592" lon="4.38363">
        <ele>303</ele>
        <time>2024-03-17T08:34:44Z</time>
      </trkpt>
      <trkpt lat="49.95586" lon="4.3837">
        <ele>302.8</ele>
        <time>2024-03-17T08:34:45Z</time>
      </trkpt>
      <trkpt lat="49.95581" lon="4.38377">
        <ele>302.8</ele>
        <time>2024-03-17T08:34:46Z</time>
      </trkpt>
      <trkpt lat="49.95575" lon="4.38385">
        <ele>302.4</ele>
        <time>2024-03-17T08:34:47Z</time>
      </trkpt>
      <trkpt lat="49.95569" lon="4.38392">
        <ele>301.4</ele>
        <time>2024-03-17T08:34:48Z</time>
      </trkpt>
      <trkpt lat="49.95564" lon="4.38399">
        <ele>300.8</ele>
        <time>2024-03-17T08:34:49Z</time>
      </trkpt>
      <trkpt lat="49.95557" lon="4.38407">
        <ele>300.4</ele>
        <time>2024-03-17T08:34:50Z</time>
      </trkpt>
      <trkpt lat="49.95551" lon="4.38415">
        <ele>300.2</ele>
        <time>2024-03-17T08:34:51Z</time>
      </trkpt>
      <trkpt lat="49.95545" lon="4.38422">
        <ele>300</ele>
        <time>2024-03-17T08:34:52Z</time>
      </trkpt>
      <trkpt lat="49.95538" lon="4.3843">
        <ele>299.6</ele>
        <time>2024-03-17T08:34:53Z</time>
      </trkpt>
      <trkpt lat="49.95532" lon="4.38437">
        <ele>299.6</ele>
        <time>2024-03-17T08:34:54Z</time>
      </trkpt>
      <trkpt lat="49.95525" lon="4.38445">
        <ele>299.2</ele>
        <time>2024-03-17T08:34:55Z</time>
      </trkpt>
      <trkpt lat="49.95519" lon="4.38452">
        <ele>298.6</ele>
        <time>2024-03-17T08:34:56Z</time>
      </trkpt>
      <trkpt lat="49.95512" lon="4.38459">
        <ele>298.2</ele>
        <time>2024-03-17T08:34:57Z</time>
      </trkpt>
      <trkpt lat="49.95506" lon="4.38464">
        <ele>298</ele>
        <time>2024-03-17T08:34:58Z</time>
      </trkpt>
      <trkpt lat="49.95499" lon="4.3847">
        <ele>298</ele>
        <time>2024-03-17T08:34:59Z</time>
      </trkpt>
      <trkpt lat="49.95493" lon="4.38475">
        <ele>297.6</ele>
        <time>2024-03-17T08:35:00Z</time>
      </trkpt>
      <trkpt lat="49.95487" lon="4.38479">
        <ele>297.6</ele>
        <time>2024-03-17T08:35:01Z</time>
      </trkpt>
      <trkpt lat="49.95481" lon="4.38484">
        <ele>297.6</ele>
        <time>2024-03-17T08:35:02Z</time>
      </trkpt>
      <trkpt lat="49.95475" lon="4.38488">
        <ele>297.6</ele>
        <time>2024-03-17T08:35:03Z</time>
      </trkpt>
      <trkpt lat="49.9547" lon="4.38492">
        <ele>297.4</ele>
        <time>2024-03-17T08:35:04Z</time>
      </trkpt>
      <trkpt lat="49.95464" lon="4.38496">
        <ele>297.6</ele>
        <time>2024-03-17T08:35:05Z</time>
      </trkpt>
      <trkpt lat="49.95458" lon="4.385">
        <ele>297.6</ele>
        <time>2024-03-17T08:35:06Z</time>
      </trkpt>
      <trkpt lat="49.95453" lon="4.38505">
        <ele>297.6</ele>
        <time>2024-03-17T08:35:07Z</time>
      </trkpt>
      <trkpt lat="49.95447" lon="4.38509">
        <ele>297.6</ele>
        <time>2024-03-17T08:35:08Z</time>
      </trkpt>
      <trkpt lat="49.95442" lon="4.38513">
        <ele>297.6</ele>
        <time>2024-03-17T08:35:09Z</time>
      </trkpt>
      <trkpt lat="49.95437" lon="4.38516">
        <ele>297.6</ele>
        <time>2024-03-17T08:35:10Z</time>
      </trkpt>
      <trkpt lat="49.95432" lon="4.3852">
        <ele>297.6</ele>
        <time>2024-03-17T08:35:11Z</time>
      </trkpt>
      <trkpt lat="49.95427" lon="4.38523">
        <ele>297.8</ele>
        <time>2024-03-17T08:35:12Z</time>
      </trkpt>
      <trkpt lat="49.95422" lon="4.38527">
        <ele>297.8</ele>
        <time>2024-03-17T08:35:13Z</time>
      </trkpt>
      <trkpt lat="49.95417" lon="4.38531">
        <ele>298</ele>
        <time>2024-03-17T08:35:14Z</time>
      </trkpt>
      <trkpt lat="49.95412" lon="4.38535">
        <ele>298</ele>
        <time>2024-03-17T08:35:15Z</time>
      </trkpt>
      <trkpt lat="49.95408" lon="4.38539">
        <ele>298.2</ele>
        <time>2024-03-17T08:35:16Z</time>
      </trkpt>
      <trkpt lat="49.95403" lon="4.38542">
        <ele>298.2</ele>
        <time>2024-03-17T08:35:17Z</time>
      </trkpt>
      <trkpt lat="49.95398" lon="4.38546">
        <ele>298</ele>
        <time>2024-03-17T08:35:18Z</time>
      </trkpt>
      <trkpt lat="49.95394" lon="4.38549">
        <ele>298.2</ele>
        <time>2024-03-17T08:35:19Z</time>
      </trkpt>
      <trkpt lat="49.95389" lon="4.38553">
        <ele>298.2</ele>
        <time>2024-03-17T08:35:20Z</time>
      </trkpt>
      <trkpt lat="49.95384" lon="4.38556">
        <ele>298.2</ele>
        <time>2024-03-17T08:35:21Z</time>
      </trkpt>
      <trkpt lat="49.9538" lon="4.3856">
        <ele>298.4</ele>
        <time>2024-03-17T08:35:22Z</time>
      </trkpt>
      <trkpt lat="49.95376" lon="4.38563">
        <ele>298.4</ele>
        <time>2024-03-17T08:35:23Z</time>
      </trkpt>
      <trkpt lat="49.95372" lon="4.38567">
        <ele>298.6</ele>
        <time>2024-03-17T08:35:24Z</time>
      </trkpt>
      <trkpt lat="49.95368" lon="4.3857">
        <ele>298.6</ele>
        <time>2024-03-17T08:35:25Z</time>
      </trkpt>
      <trkpt lat="49.95364" lon="4.38573">
        <ele>298.6</ele>
        <time>2024-03-17T08:35:26Z</time>
      </trkpt>
      <trkpt lat="49.9536" lon="4.38577">
        <ele>298.8</ele>
        <time>2024-03-17T08:35:27Z</time>
      </trkpt>
      <trkpt lat="49.95356" lon="4.3858">
        <ele>298.8</ele>
        <time>2024-03-17T08:35:28Z</time>
      </trkpt>
      <trkpt lat="49.95352" lon="4.38583">
        <ele>299</ele>
        <time>2024-03-17T08:35:29Z</time>
      </trkpt>
      <trkpt lat="49.95348" lon="4.38586">
        <ele>298.8</ele>
        <time>2024-03-17T08:35:30Z</time>
      </trkpt>
      <trkpt lat="49.95344" lon="4.38589">
        <ele>299</ele>
        <time>2024-03-17T08:35:31Z</time>
      </trkpt>
      <trkpt lat="49.95339" lon="4.38593">
        <ele>299.4</ele>
        <time>2024-03-17T08:35:32Z</time>
      </trkpt>
      <trkpt lat="49.95334" lon="4.38597">
        <ele>299.4</ele>
        <time>2024-03-17T08:35:33Z</time>
      </trkpt>
      <trkpt lat="49.9533" lon="4.38601">
        <ele>299.6</ele>
        <time>2024-03-17T08:35:34Z</time>
      </trkpt>
      <trkpt lat="49.95326" lon="4.38605">
        <ele>300</ele>
        <time>2024-03-17T08:35:35Z</time>
      </trkpt>
      <trkpt lat="49.95321" lon="4.38609">
        <ele>300</ele>
        <time>2024-03-17T08:35:36Z</time>
      </trkpt>
      <trkpt lat="49.95317" lon="4.38613">
        <ele>300</ele>
        <time>2024-03-17T08:35:37Z</time>
      </trkpt>
      <trkpt lat="49.95312" lon="4.38618">
        <ele>300</ele>
        <time>2024-03-17T08:35:38Z</time>
      </trkpt>
      <trkpt lat="49.95308" lon="4.38622">
        <ele>300</ele>
        <time>2024-03-17T08:35:39Z</time>
      </trkpt>
      <trkpt lat="49.95303" lon="4.38626">
        <ele>300.2</ele>
        <time>2024-03-17T08:35:40Z</time>
      </trkpt>
      <trkpt lat="49.95299" lon="4.38631">
        <ele>300.2</ele>
        <time>2024-03-17T08:35:41Z</time>
      </trkpt>
      <trkpt lat="49.95295" lon="4.38635">
        <ele>300.6</ele>
        <time>2024-03-17T08:35:42Z</time>
      </trkpt>
      <trkpt lat="49.95291" lon="4.38639">
        <ele>300.8</ele>
        <time>2024-03-17T08:35:43Z</time>
      </trkpt>
      <trkpt lat="49.95286" lon="4.38644">
        <ele>300.8</ele>
        <time>2024-03-17T08:35:44Z</time>
      </trkpt>
      <trkpt lat="49.95282" lon="4.38649">
        <ele>300.8</ele>
        <time>2024-03-17T08:35:45Z</time>
      </trkpt>
      <trkpt lat="49.95277" lon="4.38653">
        <ele>301</ele>
        <time>2024-03-17T08:35:46Z</time>
      </trkpt>
      <trkpt lat="49.95273" lon="4.38658">
        <ele>301.2</ele>
        <time>2024-03-17T08:35:47Z</time>
      </trkpt>
      <trkpt lat="49.95269" lon="4.38662">
        <ele>301.2</ele>
        <time>2024-03-17T08:35:48Z</time>
      </trkpt>
      <trkpt lat="49.95265" lon="4.38667">
        <ele>301.4</ele>
        <time>2024-03-17T08:35:49Z</time>
      </trkpt>
      <trkpt lat="49.9526" lon="4.38672">
        <ele>301.4</ele>
        <time>2024-03-17T08:35:50Z</time>
      </trkpt>
      <trkpt lat="49.95256" lon="4.38676">
        <ele>301.4</ele>
        <time>2024-03-17T08:35:51Z</time>
      </trkpt>
      <trkpt lat="49.95252" lon="4.38681">
        <ele>301.4</ele>
        <time>2024-03-17T08:35:52Z</time>
      </trkpt>
      <trkpt lat="49.95248" lon="4.38686">
        <ele>301.4</ele>
        <time>2024-03-17T08:35:53Z</time>
      </trkpt>
      <trkpt lat="49.95244" lon="4.38691">
        <ele>301.4</ele>
        <time>2024-03-17T08:35:54Z</time>
      </trkpt>
      <trkpt lat="49.9524" lon="4.38696">
        <ele>301.4</ele>
        <time>2024-03-17T08:35:55Z</time>
      </trkpt>
      <trkpt lat="49.95236" lon="4.38702">
        <ele>301.4</ele>
        <time>2024-03-17T08:35:56Z</time>
      </trkpt>
      <trkpt lat="49.95231" lon="4.38707">
        <ele>301.6</ele>
        <time>2024-03-17T08:35:57Z</time>
      </trkpt>
      <trkpt lat="49.95227" lon="4.38712">
        <ele>301.4</ele>
        <time>2024-03-17T08:35:58Z</time>
      </trkpt>
      <trkpt lat="49.95223" lon="4.38718">
        <ele>301.6</ele>
        <time>2024-03-17T08:35:59Z</time>
      </trkpt>
      <trkpt lat="49.95219" lon="4.38722">
        <ele>301.4</ele>
        <time>2024-03-17T08:36:00Z</time>
      </trkpt>
      <trkpt lat="49.95215" lon="4.38727">
        <ele>301.4</ele>
        <time>2024-03-17T08:36:01Z</time>
      </trkpt>
      <trkpt lat="49.95212" lon="4.38732">
        <ele>301.4</ele>
        <time>2024-03-17T08:36:02Z</time>
      </trkpt>
      <trkpt lat="49.95209" lon="4.38737">
        <ele>301.4</ele>
        <time>2024-03-17T08:36:03Z</time>
      </trkpt>
      <trkpt lat="49.95206" lon="4.38742">
        <ele>301.4</ele>
        <time>2024-03-17T08:36:04Z</time>
      </trkpt>
      <trkpt lat="49.95202" lon="4.38746">
        <ele>301.6</ele>
        <time>2024-03-17T08:36:05Z</time>
      </trkpt>
      <trkpt lat="49.952" lon="4.3875">
        <ele>301.6</ele>
        <time>2024-03-17T08:36:06Z</time>
      </trkpt>
      <trkpt lat="49.95197" lon="4.38754">
        <ele>301.6</ele>
        <time>2024-03-17T08:36:07Z</time>
      </trkpt>
      <trkpt lat="49.95194" lon="4.38758">
        <ele>301.6</ele>
        <time>2024-03-17T08:36:08Z</time>
      </trkpt>
      <trkpt lat="49.95191" lon="4.38763">
        <ele>301.8</ele>
        <time>2024-03-17T08:36:09Z</time>
      </trkpt>
      <trkpt lat="49.95188" lon="4.38767">
        <ele>302</ele>
        <time>2024-03-17T08:36:10Z</time>
      </trkpt>
      <trkpt lat="49.95184" lon="4.38771">
        <ele>302.4</ele>
        <time>2024-03-17T08:36:11Z</time>
      </trkpt>
      <trkpt lat="49.95181" lon="4.38775">
        <ele>302.8</ele>
        <time>2024-03-17T08:36:12Z</time>
      </trkpt>
      <trkpt lat="49.95178" lon="4.38779">
        <ele>302.8</ele>
        <time>2024-03-17T08:36:13Z</time>
      </trkpt>
      <trkpt lat="49.95175" lon="4.38783">
        <ele>302.8</ele>
        <time>2024-03-17T08:36:14Z</time>
      </trkpt>
      <trkpt lat="49.95172" lon="4.38788">
        <ele>303.2</ele>
        <time>2024-03-17T08:36:15Z</time>
      </trkpt>
      <trkpt lat="49.95169" lon="4.38792">
        <ele>303</ele>
        <time>2024-03-17T08:36:16Z</time>
      </trkpt>
      <trkpt lat="49.95165" lon="4.38796">
        <ele>303.4</ele>
        <time>2024-03-17T08:36:17Z</time>
      </trkpt>
      <trkpt lat="49.95162" lon="4.38799">
        <ele>303.4</ele>
        <time>2024-03-17T08:36:18Z</time>
      </trkpt>
      <trkpt lat="49.95159" lon="4.38803">
        <ele>303.4</ele>
        <time>2024-03-17T08:36:19Z</time>
      </trkpt>
      <trkpt lat="49.95156" lon="4.38808">
        <ele>303.6</ele>
        <time>2024-03-17T08:36:20Z</time>
      </trkpt>
      <trkpt lat="49.95152" lon="4.38812">
        <ele>303.6</ele>
        <time>2024-03-17T08:36:21Z</time>
      </trkpt>
      <trkpt lat="49.95148" lon="4.38817">
        <ele>303.6</ele>
        <time>2024-03-17T08:36:22Z</time>
      </trkpt>
      <trkpt lat="49.95144" lon="4.38821">
        <ele>303.6</ele>
        <time>2024-03-17T08:36:23Z</time>
      </trkpt>
      <trkpt lat="49.9514" lon="4.38826">
        <ele>303.6</ele>
        <time>2024-03-17T08:36:24Z</time>
      </trkpt>
      <trkpt lat="49.95136" lon="4.38831">
        <ele>303.6</ele>
        <time>2024-03-17T08:36:25Z</time>
      </trkpt>
      <trkpt lat="49.95131" lon="4.38836">
        <ele>303.6</ele>
        <time>2024-03-17T08:36:26Z</time>
      </trkpt>
      <trkpt lat="49.95127" lon="4.38841">
        <ele>303.8</ele>
        <time>2024-03-17T08:36:27Z</time>
      </trkpt>
      <trkpt lat="49.95123" lon="4.38845">
        <ele>303.6</ele>
        <time>2024-03-17T08:36:28Z</time>
      </trkpt>
      <trkpt lat="49.95119" lon="4.3885">
        <ele>303.6</ele>
        <time>2024-03-17T08:36:29Z</time>
      </trkpt>
      <trkpt lat="49.95115" lon="4.38856">
        <ele>303.6</ele>
        <time>2024-03-17T08:36:30Z</time>
      </trkpt>
      <trkpt lat="49.95111" lon="4.38861">
        <ele>303.6</ele>
        <time>2024-03-17T08:36:31Z</time>
      </trkpt>
      <trkpt lat="49.95106" lon="4.38866">
        <ele>303.4</ele>
        <time>2024-03-17T08:36:32Z</time>
      </trkpt>
      <trkpt lat="49.95102" lon="4.38871">
        <ele>303.4</ele>
        <time>2024-03-17T08:36:33Z</time>
      </trkpt>
      <trkpt lat="49.95098" lon="4.38876">
        <ele>303.4</ele>
        <time>2024-03-17T08:36:34Z</time>
      </trkpt>
      <trkpt lat="49.95093" lon="4.38881">
        <ele>303.6</ele>
        <time>2024-03-17T08:36:35Z</time>
      </trkpt>
      <trkpt lat="49.95089" lon="4.38886">
        <ele>303.6</ele>
        <time>2024-03-17T08:36:36Z</time>
      </trkpt>
      <trkpt lat="49.95084" lon="4.38892">
        <ele>303.4</ele>
        <time>2024-03-17T08:36:37Z</time>
      </trkpt>
      <trkpt lat="49.9508" lon="4.38897">
        <ele>303.4</ele>
        <time>2024-03-17T08:36:38Z</time>
      </trkpt>
      <trkpt lat="49.95075" lon="4.38902">
        <ele>303.4</ele>
        <time>2024-03-17T08:36:39Z</time>
      </trkpt>
      <trkpt lat="49.95071" lon="4.38907">
        <ele>303.4</ele>
        <time>2024-03-17T08:36:40Z</time>
      </trkpt>
      <trkpt lat="49.95067" lon="4.38913">
        <ele>303.4</ele>
        <time>2024-03-17T08:36:41Z</time>
      </trkpt>
      <trkpt lat="49.95062" lon="4.38918">
        <ele>303.4</ele>
        <time>2024-03-17T08:36:42Z</time>
      </trkpt>
      <trkpt lat="49.95058" lon="4.38923">
        <ele>303.2</ele>
        <time>2024-03-17T08:36:43Z</time>
      </trkpt>
      <trkpt lat="49.95053" lon="4.38928">
        <ele>303.2</ele>
        <time>2024-03-17T08:36:44Z</time>
      </trkpt>
      <trkpt lat="49.95049" lon="4.38933">
        <ele>303.2</ele>
        <time>2024-03-17T08:36:45Z</time>
      </trkpt>
      <trkpt lat="49.95044" lon="4.38938">
        <ele>303.2</ele>
        <time>2024-03-17T08:36:46Z</time>
      </trkpt>
      <trkpt lat="49.9504" lon="4.38943">
        <ele>303.2</ele>
        <time>2024-03-17T08:36:47Z</time>
      </trkpt>
      <trkpt lat="49.95036" lon="4.38948">
        <ele>303.2</ele>
        <time>2024-03-17T08:36:48Z</time>
      </trkpt>
      <trkpt lat="49.95032" lon="4.38953">
        <ele>303.2</ele>
        <time>2024-03-17T08:36:49Z</time>
      </trkpt>
      <trkpt lat="49.95029" lon="4.38958">
        <ele>303.2</ele>
        <time>2024-03-17T08:36:50Z</time>
      </trkpt>
      <trkpt lat="49.95025" lon="4.38964">
        <ele>303</ele>
        <time>2024-03-17T08:36:51Z</time>
      </trkpt>
      <trkpt lat="49.95022" lon="4.38969">
        <ele>303</ele>
        <time>2024-03-17T08:36:52Z</time>
      </trkpt>
      <trkpt lat="49.95018" lon="4.38974">
        <ele>303</ele>
        <time>2024-03-17T08:36:53Z</time>
      </trkpt>
      <trkpt lat="49.95014" lon="4.3898">
        <ele>303</ele>
        <time>2024-03-17T08:36:54Z</time>
      </trkpt>
      <trkpt lat="49.9501" lon="4.38985">
        <ele>303</ele>
        <time>2024-03-17T08:36:55Z</time>
      </trkpt>
      <trkpt lat="49.95006" lon="4.3899">
        <ele>302.8</ele>
        <time>2024-03-17T08:36:56Z</time>
      </trkpt>
      <trkpt lat="49.95001" lon="4.38996">
        <ele>302.8</ele>
        <time>2024-03-17T08:36:57Z</time>
      </trkpt>
      <trkpt lat="49.94997" lon="4.39001">
        <ele>303</ele>
        <time>2024-03-17T08:36:58Z</time>
      </trkpt>
      <trkpt lat="49.94993" lon="4.39006">
        <ele>302.8</ele>
        <time>2024-03-17T08:36:59Z</time>
      </trkpt>
      <trkpt lat="49.94989" lon="4.39012">
        <ele>302.8</ele>
        <time>2024-03-17T08:37:00Z</time>
      </trkpt>
      <trkpt lat="49.94984" lon="4.39018">
        <ele>302.8</ele>
        <time>2024-03-17T08:37:01Z</time>
      </trkpt>
      <trkpt lat="49.9498" lon="4.39024">
        <ele>302.8</ele>
        <time>2024-03-17T08:37:02Z</time>
      </trkpt>
      <trkpt lat="49.94976" lon="4.3903">
        <ele>303</ele>
        <time>2024-03-17T08:37:03Z</time>
      </trkpt>
      <trkpt lat="49.94972" lon="4.39036">
        <ele>302.8</ele>
        <time>2024-03-17T08:37:04Z</time>
      </trkpt>
      <trkpt lat="49.94969" lon="4.39043">
        <ele>303</ele>
        <time>2024-03-17T08:37:05Z</time>
      </trkpt>
      <trkpt lat="49.94965" lon="4.39049">
        <ele>303</ele>
        <time>2024-03-17T08:37:06Z</time>
      </trkpt>
      <trkpt lat="49.94962" lon="4.39055">
        <ele>303.2</ele>
        <time>2024-03-17T08:37:07Z</time>
      </trkpt>
      <trkpt lat="49.9496" lon="4.3906">
        <ele>303</ele>
        <time>2024-03-17T08:37:08Z</time>
      </trkpt>
      <trkpt lat="49.94957" lon="4.39065">
        <ele>303</ele>
        <time>2024-03-17T08:37:09Z</time>
      </trkpt>
      <trkpt lat="49.94954" lon="4.39071">
        <ele>303</ele>
        <time>2024-03-17T08:37:10Z</time>
      </trkpt>
      <trkpt lat="49.94952" lon="4.39077">
        <ele>303.2</ele>
        <time>2024-03-17T08:37:11Z</time>
      </trkpt>
      <trkpt lat="49.94949" lon="4.39083">
        <ele>303</ele>
        <time>2024-03-17T08:37:12Z</time>
      </trkpt>
      <trkpt lat="49.94946" lon="4.39089">
        <ele>303.2</ele>
        <time>2024-03-17T08:37:13Z</time>
      </trkpt>
      <trkpt lat="49.94944" lon="4.39095">
        <ele>303.2</ele>
        <time>2024-03-17T08:37:14Z</time>
      </trkpt>
      <trkpt lat="49.94941" lon="4.39102">
        <ele>303.2</ele>
        <time>2024-03-17T08:37:15Z</time>
      </trkpt>
      <trkpt lat="49.94939" lon="4.39109">
        <ele>303.2</ele>
        <time>2024-03-17T08:37:16Z</time>
      </trkpt>
      <trkpt lat="49.94937" lon="4.39116">
        <ele>303.6</ele>
        <time>2024-03-17T08:37:17Z</time>
      </trkpt>
      <trkpt lat="49.94935" lon="4.39122">
        <ele>304</ele>
        <time>2024-03-17T08:37:18Z</time>
      </trkpt>
      <trkpt lat="49.94933" lon="4.39129">
        <ele>304</ele>
        <time>2024-03-17T08:37:19Z</time>
      </trkpt>
      <trkpt lat="49.94931" lon="4.39135">
        <ele>304.2</ele>
        <time>2024-03-17T08:37:20Z</time>
      </trkpt>
      <trkpt lat="49.9493" lon="4.39142">
        <ele>304.4</ele>
        <time>2024-03-17T08:37:21Z</time>
      </trkpt>
      <trkpt lat="49.94928" lon="4.3915">
        <ele>304.6</ele>
        <time>2024-03-17T08:37:22Z</time>
      </trkpt>
      <trkpt lat="49.94927" lon="4.39158">
        <ele>304.6</ele>
        <time>2024-03-17T08:37:23Z</time>
      </trkpt>
      <trkpt lat="49.94925" lon="4.39167">
        <ele>304.6</ele>
        <time>2024-03-17T08:37:24Z</time>
      </trkpt>
      <trkpt lat="49.94923" lon="4.39175">
        <ele>304.8</ele>
        <time>2024-03-17T08:37:25Z</time>
      </trkpt>
      <trkpt lat="49.94922" lon="4.39183">
        <ele>305.2</ele>
        <time>2024-03-17T08:37:26Z</time>
      </trkpt>
      <trkpt lat="49.94921" lon="4.3919">
        <ele>305.4</ele>
        <time>2024-03-17T08:37:27Z</time>
      </trkpt>
      <trkpt lat="49.9492" lon="4.39198">
        <ele>305.8</ele>
        <time>2024-03-17T08:37:28Z</time>
      </trkpt>
      <trkpt lat="49.94919" lon="4.39205">
        <ele>306</ele>
        <time>2024-03-17T08:37:29Z</time>
      </trkpt>
      <trkpt lat="49.94918" lon="4.39212">
        <ele>306.2</ele>
        <time>2024-03-17T08:37:30Z</time>
      </trkpt>
      <trkpt lat="49.94917" lon="4.39219">
        <ele>306.6</ele>
        <time>2024-03-17T08:37:31Z</time>
      </trkpt>
      <trkpt lat="49.94916" lon="4.39226">
        <ele>306.8</ele>
        <time>2024-03-17T08:37:32Z</time>
      </trkpt>
      <trkpt lat="49.94916" lon="4.39233">
        <ele>307.2</ele>
        <time>2024-03-17T08:37:33Z</time>
      </trkpt>
      <trkpt lat="49.94915" lon="4.3924">
        <ele>307.4</ele>
        <time>2024-03-17T08:37:34Z</time>
      </trkpt>
      <trkpt lat="49.94914" lon="4.39247">
        <ele>307.4</ele>
        <time>2024-03-17T08:37:35Z</time>
      </trkpt>
      <trkpt lat="49.94914" lon="4.39255">
        <ele>307.6</ele>
        <time>2024-03-17T08:37:36Z</time>
      </trkpt>
      <trkpt lat="49.94914" lon="4.39262">
        <ele>308.2</ele>
        <time>2024-03-17T08:37:37Z</time>
      </trkpt>
      <trkpt lat="49.94913" lon="4.3927">
        <ele>308.6</ele>
        <time>2024-03-17T08:37:38Z</time>
      </trkpt>
      <trkpt lat="49.94913" lon="4.39278">
        <ele>308.6</ele>
        <time>2024-03-17T08:37:39Z</time>
      </trkpt>
      <trkpt lat="49.94914" lon="4.39286">
        <ele>308.6</ele>
        <time>2024-03-17T08:37:40Z</time>
      </trkpt>
      <trkpt lat="49.94914" lon="4.39295">
        <ele>308.8</ele>
        <time>2024-03-17T08:37:41Z</time>
      </trkpt>
      <trkpt lat="49.94914" lon="4.39303">
        <ele>309.2</ele>
        <time>2024-03-17T08:37:42Z</time>
      </trkpt>
      <trkpt lat="49.94915" lon="4.39312">
        <ele>309.2</ele>
        <time>2024-03-17T08:37:43Z</time>
      </trkpt>
      <trkpt lat="49.94915" lon="4.39321">
        <ele>309.2</ele>
        <time>2024-03-17T08:37:44Z</time>
      </trkpt>
      <trkpt lat="49.94916" lon="4.3933">
        <ele>309.2</ele>
        <time>2024-03-17T08:37:45Z</time>
      </trkpt>
      <trkpt lat="49.94917" lon="4.39339">
        <ele>309.2</ele>
        <time>2024-03-17T08:37:46Z</time>
      </trkpt>
      <trkpt lat="49.94918" lon="4.39348">
        <ele>309.2</ele>
        <time>2024-03-17T08:37:47Z</time>
      </trkpt>
      <trkpt lat="49.94919" lon="4.39359">
        <ele>309.2</ele>
        <time>2024-03-17T08:37:48Z</time>
      </trkpt>
      <trkpt lat="49.94921" lon="4.39369">
        <ele>309.4</ele>
        <time>2024-03-17T08:37:49Z</time>
      </trkpt>
      <trkpt lat="49.94922" lon="4.3938">
        <ele>309.4</ele>
        <time>2024-03-17T08:37:50Z</time>
      </trkpt>
      <trkpt lat="49.94924" lon="4.39392">
        <ele>309.4</ele>
        <time>2024-03-17T08:37:51Z</time>
      </trkpt>
      <trkpt lat="49.94925" lon="4.39403">
        <ele>309.2</ele>
        <time>2024-03-17T08:37:52Z</time>
      </trkpt>
      <trkpt lat="49.94928" lon="4.39415">
        <ele>309.2</ele>
        <time>2024-03-17T08:37:53Z</time>
      </trkpt>
      <trkpt lat="49.9493" lon="4.39428">
        <ele>308.6</ele>
        <time>2024-03-17T08:37:54Z</time>
      </trkpt>
      <trkpt lat="49.94933" lon="4.39441">
        <ele>308.2</ele>
        <time>2024-03-17T08:37:55Z</time>
      </trkpt>
      <trkpt lat="49.94935" lon="4.39454">
        <ele>307.8</ele>
        <time>2024-03-17T08:37:56Z</time>
      </trkpt>
      <trkpt lat="49.94937" lon="4.39468">
        <ele>307.8</ele>
        <time>2024-03-17T08:37:57Z</time>
      </trkpt>
      <trkpt lat="49.9494" lon="4.39481">
        <ele>307.6</ele>
        <time>2024-03-17T08:37:58Z</time>
      </trkpt>
      <trkpt lat="49.94943" lon="4.39494">
        <ele>307.2</ele>
        <time>2024-03-17T08:37:59Z</time>
      </trkpt>
      <trkpt lat="49.94946" lon="4.39507">
        <ele>306.8</ele>
        <time>2024-03-17T08:38:00Z</time>
      </trkpt>
      <trkpt lat="49.94948" lon="4.3952">
        <ele>306.2</ele>
        <time>2024-03-17T08:38:01Z</time>
      </trkpt>
      <trkpt lat="49.94951" lon="4.39532">
        <ele>305.4</ele>
        <time>2024-03-17T08:38:02Z</time>
      </trkpt>
      <trkpt lat="49.94953" lon="4.39544">
        <ele>304.8</ele>
        <time>2024-03-17T08:38:03Z</time>
      </trkpt>
      <trkpt lat="49.94955" lon="4.39556">
        <ele>304</ele>
        <time>2024-03-17T08:38:04Z</time>
      </trkpt>
      <trkpt lat="49.94958" lon="4.39568">
        <ele>303.6</ele>
        <time>2024-03-17T08:38:05Z</time>
      </trkpt>
      <trkpt lat="49.9496" lon="4.39579">
        <ele>303.2</ele>
        <time>2024-03-17T08:38:06Z</time>
      </trkpt>
      <trkpt lat="49.94962" lon="4.3959">
        <ele>303.2</ele>
        <time>2024-03-17T08:38:07Z</time>
      </trkpt>
      <trkpt lat="49.94965" lon="4.39601">
        <ele>303</ele>
        <time>2024-03-17T08:38:08Z</time>
      </trkpt>
      <trkpt lat="49.94967" lon="4.39611">
        <ele>303</ele>
        <time>2024-03-17T08:38:09Z</time>
      </trkpt>
      <trkpt lat="49.94969" lon="4.39622">
        <ele>303</ele>
        <time>2024-03-17T08:38:10Z</time>
      </trkpt>
      <trkpt lat="49.9497" lon="4.39632">
        <ele>303</ele>
        <time>2024-03-17T08:38:11Z</time>
      </trkpt>
      <trkpt lat="49.94972" lon="4.39642">
        <ele>303</ele>
        <time>2024-03-17T08:38:12Z</time>
      </trkpt>
      <trkpt lat="49.94974" lon="4.39652">
        <ele>303</ele>
        <time>2024-03-17T08:38:13Z</time>
      </trkpt>
      <trkpt lat="49.94975" lon="4.39662">
        <ele>302.8</ele>
        <time>2024-03-17T08:38:14Z</time>
      </trkpt>
      <trkpt lat="49.94976" lon="4.39672">
        <ele>302.8</ele>
        <time>2024-03-17T08:38:15Z</time>
      </trkpt>
      <trkpt lat="49.94977" lon="4.39681">
        <ele>303</ele>
        <time>2024-03-17T08:38:16Z</time>
      </trkpt>
      <trkpt lat="49.94978" lon="4.39691">
        <ele>303.4</ele>
        <time>2024-03-17T08:38:17Z</time>
      </trkpt>
      <trkpt lat="49.94978" lon="4.397">
        <ele>303.6</ele>
        <time>2024-03-17T08:38:18Z</time>
      </trkpt>
      <trkpt lat="49.94979" lon="4.3971">
        <ele>303.8</ele>
        <time>2024-03-17T08:38:19Z</time>
      </trkpt>
      <trkpt lat="49.94979" lon="4.39719">
        <ele>303.8</ele>
        <time>2024-03-17T08:38:20Z</time>
      </trkpt>
      <trkpt lat="49.94979" lon="4.39729">
        <ele>304</ele>
        <time>2024-03-17T08:38:21Z</time>
      </trkpt>
      <trkpt lat="49.94979" lon="4.39738">
        <ele>304</ele>
        <time>2024-03-17T08:38:22Z</time>
      </trkpt>
      <trkpt lat="49.94979" lon="4.39747">
        <ele>304.2</ele>
        <time>2024-03-17T08:38:23Z</time>
      </trkpt>
      <trkpt lat="49.94978" lon="4.39756">
        <ele>304.4</ele>
        <time>2024-03-17T08:38:24Z</time>
      </trkpt>
      <trkpt lat="49.94978" lon="4.39765">
        <ele>304.4</ele>
        <time>2024-03-17T08:38:25Z</time>
      </trkpt>
      <trkpt lat="49.94977" lon="4.39773">
        <ele>304.6</ele>
        <time>2024-03-17T08:38:26Z</time>
      </trkpt>
      <trkpt lat="49.94977" lon="4.39782">
        <ele>304.8</ele>
        <time>2024-03-17T08:38:27Z</time>
      </trkpt>
      <trkpt lat="49.94976" lon="4.3979">
        <ele>305</ele>
        <time>2024-03-17T08:38:28Z</time>
      </trkpt>
      <trkpt lat="49.94975" lon="4.39799">
        <ele>305</ele>
        <time>2024-03-17T08:38:29Z</time>
      </trkpt>
      <trkpt lat="49.94975" lon="4.39807">
        <ele>305.2</ele>
        <time>2024-03-17T08:38:30Z</time>
      </trkpt>
      <trkpt lat="49.94974" lon="4.39815">
        <ele>305.4</ele>
        <time>2024-03-17T08:38:31Z</time>
      </trkpt>
      <trkpt lat="49.94973" lon="4.39823">
        <ele>305.4</ele>
        <time>2024-03-17T08:38:32Z</time>
      </trkpt>
      <trkpt lat="49.94973" lon="4.39832">
        <ele>305.6</ele>
        <time>2024-03-17T08:38:33Z</time>
      </trkpt>
      <trkpt lat="49.94972" lon="4.3984">
        <ele>305.6</ele>
        <time>2024-03-17T08:38:34Z</time>
      </trkpt>
      <trkpt lat="49.94972" lon="4.39848">
        <ele>305.6</ele>
        <time>2024-03-17T08:38:35Z</time>
      </trkpt>
      <trkpt lat="49.94971" lon="4.39856">
        <ele>305.8</ele>
        <time>2024-03-17T08:38:36Z</time>
      </trkpt>
      <trkpt lat="49.94971" lon="4.39864">
        <ele>305.8</ele>
        <time>2024-03-17T08:38:37Z</time>
      </trkpt>
      <trkpt lat="49.9497" lon="4.39872">
        <ele>305.8</ele>
        <time>2024-03-17T08:38:38Z</time>
      </trkpt>
      <trkpt lat="49.94969" lon="4.3988">
        <ele>306.2</ele>
        <time>2024-03-17T08:38:39Z</time>
      </trkpt>
      <trkpt lat="49.94968" lon="4.39889">
        <ele>306.2</ele>
        <time>2024-03-17T08:38:40Z</time>
      </trkpt>
      <trkpt lat="49.94967" lon="4.39897">
        <ele>306.4</ele>
        <time>2024-03-17T08:38:41Z</time>
      </trkpt>
      <trkpt lat="49.94966" lon="4.39905">
        <ele>306.6</ele>
        <time>2024-03-17T08:38:42Z</time>
      </trkpt>
      <trkpt lat="49.94965" lon="4.39914">
        <ele>306.4</ele>
        <time>2024-03-17T08:38:43Z</time>
      </trkpt>
      <trkpt lat="49.94964" lon="4.39922">
        <ele>306.6</ele>
        <time>2024-03-17T08:38:44Z</time>
      </trkpt>
      <trkpt lat="49.94963" lon="4.39931">
        <ele>306.6</ele>
        <time>2024-03-17T08:38:45Z</time>
      </trkpt>
      <trkpt lat="49.94962" lon="4.39939">
        <ele>306.6</ele>
        <time>2024-03-17T08:38:46Z</time>
      </trkpt>
      <trkpt lat="49.94962" lon="4.39948">
        <ele>306.8</ele>
        <time>2024-03-17T08:38:47Z</time>
      </trkpt>
      <trkpt lat="49.94961" lon="4.39957">
        <ele>306.6</ele>
        <time>2024-03-17T08:38:48Z</time>
      </trkpt>
      <trkpt lat="49.94961" lon="4.39966">
        <ele>306.8</ele>
        <time>2024-03-17T08:38:49Z</time>
      </trkpt>
      <trkpt lat="49.9496" lon="4.39975">
        <ele>306.8</ele>
        <time>2024-03-17T08:38:50Z</time>
      </trkpt>
      <trkpt lat="49.9496" lon="4.39984">
        <ele>306.6</ele>
        <time>2024-03-17T08:38:51Z</time>
      </trkpt>
      <trkpt lat="49.9496" lon="4.39993">
        <ele>306.6</ele>
        <time>2024-03-17T08:38:52Z</time>
      </trkpt>
      <trkpt lat="49.9496" lon="4.40001">
        <ele>306.8</ele>
        <time>2024-03-17T08:38:53Z</time>
      </trkpt>
      <trkpt lat="49.9496" lon="4.4001">
        <ele>306.8</ele>
        <time>2024-03-17T08:38:54Z</time>
      </trkpt>
      <trkpt lat="49.94959" lon="4.4002">
        <ele>306.6</ele>
        <time>2024-03-17T08:38:55Z</time>
      </trkpt>
      <trkpt lat="49.94959" lon="4.4003">
        <ele>306.6</ele>
        <time>2024-03-17T08:38:56Z</time>
      </trkpt>
      <trkpt lat="49.94958" lon="4.40041">
        <ele>306.8</ele>
        <time>2024-03-17T08:38:57Z</time>
      </trkpt>
      <trkpt lat="49.94957" lon="4.40051">
        <ele>306.6</ele>
        <time>2024-03-17T08:38:58Z</time>
      </trkpt>
      <trkpt lat="49.94957" lon="4.40062">
        <ele>306.6</ele>
        <time>2024-03-17T08:38:59Z</time>
      </trkpt>
      <trkpt lat="49.94957" lon="4.40072">
        <ele>306.6</ele>
        <time>2024-03-17T08:39:00Z</time>
      </trkpt>
      <trkpt lat="49.94958" lon="4.40083">
        <ele>306.4</ele>
        <time>2024-03-17T08:39:01Z</time>
      </trkpt>
      <trkpt lat="49.94958" lon="4.40094">
        <ele>305.6</ele>
        <time>2024-03-17T08:39:02Z</time>
      </trkpt>
      <trkpt lat="49.94958" lon="4.40104">
        <ele>305.2</ele>
        <time>2024-03-17T08:39:03Z</time>
      </trkpt>
      <trkpt lat="49.94959" lon="4.40114">
        <ele>305.2</ele>
        <time>2024-03-17T08:39:04Z</time>
      </trkpt>
      <trkpt lat="49.94959" lon="4.40124">
        <ele>305</ele>
        <time>2024-03-17T08:39:05Z</time>
      </trkpt>
      <trkpt lat="49.9496" lon="4.40134">
        <ele>304.6</ele>
        <time>2024-03-17T08:39:06Z</time>
      </trkpt>
      <trkpt lat="49.9496" lon="4.40144">
        <ele>304.6</ele>
        <time>2024-03-17T08:39:07Z</time>
      </trkpt>
      <trkpt lat="49.94961" lon="4.40153">
        <ele>304.4</ele>
        <time>2024-03-17T08:39:08Z</time>
      </trkpt>
      <trkpt lat="49.94962" lon="4.40163">
        <ele>304.4</ele>
        <time>2024-03-17T08:39:09Z</time>
      </trkpt>
      <trkpt lat="49.94963" lon="4.40173">
        <ele>304.4</ele>
        <time>2024-03-17T08:39:10Z</time>
      </trkpt>
      <trkpt lat="49.94964" lon="4.40183">
        <ele>304.4</ele>
        <time>2024-03-17T08:39:11Z</time>
      </trkpt>
      <trkpt lat="49.94964" lon="4.40193">
        <ele>304.4</ele>
        <time>2024-03-17T08:39:12Z</time>
      </trkpt>
      <trkpt lat="49.94965" lon="4.40202">
        <ele>304.4</ele>
        <time>2024-03-17T08:39:13Z</time>
      </trkpt>
      <trkpt lat="49.94967" lon="4.40212">
        <ele>304.4</ele>
        <time>2024-03-17T08:39:14Z</time>
      </trkpt>
      <trkpt lat="49.94968" lon="4.40221">
        <ele>304.4</ele>
        <time>2024-03-17T08:39:15Z</time>
      </trkpt>
      <trkpt lat="49.94969" lon="4.4023">
        <ele>304.4</ele>
        <time>2024-03-17T08:39:16Z</time>
      </trkpt>
      <trkpt lat="49.9497" lon="4.40239">
        <ele>304.4</ele>
        <time>2024-03-17T08:39:17Z</time>
      </trkpt>
      <trkpt lat="49.94971" lon="4.40248">
        <ele>304.4</ele>
        <time>2024-03-17T08:39:18Z</time>
      </trkpt>
      <trkpt lat="49.94972" lon="4.40257">
        <ele>304.4</ele>
        <time>2024-03-17T08:39:19Z</time>
      </trkpt>
      <trkpt lat="49.94972" lon="4.40267">
        <ele>304.6</ele>
        <time>2024-03-17T08:39:20Z</time>
      </trkpt>
      <trkpt lat="49.94972" lon="4.40277">
        <ele>304.6</ele>
        <time>2024-03-17T08:39:21Z</time>
      </trkpt>
      <trkpt lat="49.94973" lon="4.40286">
        <ele>304.8</ele>
        <time>2024-03-17T08:39:22Z</time>
      </trkpt>
      <trkpt lat="49.94974" lon="4.40296">
        <ele>304.6</ele>
        <time>2024-03-17T08:39:23Z</time>
      </trkpt>
      <trkpt lat="49.94974" lon="4.40305">
        <ele>304.6</ele>
        <time>2024-03-17T08:39:24Z</time>
      </trkpt>
      <trkpt lat="49.94974" lon="4.40315">
        <ele>304.6</ele>
        <time>2024-03-17T08:39:25Z</time>
      </trkpt>
      <trkpt lat="49.94973" lon="4.40324">
        <ele>304.8</ele>
        <time>2024-03-17T08:39:26Z</time>
      </trkpt>
      <trkpt lat="49.94973" lon="4.40334">
        <ele>304.8</ele>
        <time>2024-03-17T08:39:27Z</time>
      </trkpt>
      <trkpt lat="49.94973" lon="4.40343">
        <ele>305</ele>
        <time>2024-03-17T08:39:28Z</time>
      </trkpt>
      <trkpt lat="49.94972" lon="4.40354">
        <ele>304.8</ele>
        <time>2024-03-17T08:39:29Z</time>
      </trkpt>
      <trkpt lat="49.94972" lon="4.40363">
        <ele>304.8</ele>
        <time>2024-03-17T08:39:30Z</time>
      </trkpt>
      <trkpt lat="49.94972" lon="4.40373">
        <ele>305</ele>
        <time>2024-03-17T08:39:31Z</time>
      </trkpt>
      <trkpt lat="49.94972" lon="4.40382">
        <ele>305</ele>
        <time>2024-03-17T08:39:32Z</time>
      </trkpt>
      <trkpt lat="49.94971" lon="4.40391">
        <ele>305</ele>
        <time>2024-03-17T08:39:33Z</time>
      </trkpt>
      <trkpt lat="49.94971" lon="4.404">
        <ele>305</ele>
        <time>2024-03-17T08:39:34Z</time>
      </trkpt>
      <trkpt lat="49.9497" lon="4.4041">
        <ele>305.2</ele>
        <time>2024-03-17T08:39:35Z</time>
      </trkpt>
      <trkpt lat="49.9497" lon="4.40419">
        <ele>305.2</ele>
        <time>2024-03-17T08:39:36Z</time>
      </trkpt>
      <trkpt lat="49.94969" lon="4.40429">
        <ele>305.2</ele>
        <time>2024-03-17T08:39:37Z</time>
      </trkpt>
      <trkpt lat="49.94968" lon="4.40439">
        <ele>305.2</ele>
        <time>2024-03-17T08:39:38Z</time>
      </trkpt>
      <trkpt lat="49.94968" lon="4.40448">
        <ele>305.2</ele>
        <time>2024-03-17T08:39:39Z</time>
      </trkpt>
      <trkpt lat="49.94967" lon="4.40458">
        <ele>305.2</ele>
        <time>2024-03-17T08:39:40Z</time>
      </trkpt>
      <trkpt lat="49.94966" lon="4.40467">
        <ele>305.4</ele>
        <time>2024-03-17T08:39:41Z</time>
      </trkpt>
      <trkpt lat="49.94966" lon="4.40477">
        <ele>305.4</ele>
        <time>2024-03-17T08:39:42Z</time>
      </trkpt>
      <trkpt lat="49.94965" lon="4.40486">
        <ele>305.4</ele>
        <time>2024-03-17T08:39:43Z</time>
      </trkpt>
      <trkpt lat="49.94965" lon="4.40496">
        <ele>305.4</ele>
        <time>2024-03-17T08:39:44Z</time>
      </trkpt>
      <trkpt lat="49.94964" lon="4.40506">
        <ele>305.6</ele>
        <time>2024-03-17T08:39:45Z</time>
      </trkpt>
      <trkpt lat="49.94964" lon="4.40515">
        <ele>306</ele>
        <time>2024-03-17T08:39:46Z</time>
      </trkpt>
      <trkpt lat="49.94964" lon="4.40524">
        <ele>306</ele>
        <time>2024-03-17T08:39:47Z</time>
      </trkpt>
      <trkpt lat="49.94963" lon="4.40534">
        <ele>306.2</ele>
        <time>2024-03-17T08:39:48Z</time>
      </trkpt>
      <trkpt lat="49.94963" lon="4.40543">
        <ele>306.2</ele>
        <time>2024-03-17T08:39:49Z</time>
      </trkpt>
      <trkpt lat="49.94963" lon="4.40552">
        <ele>306.2</ele>
        <time>2024-03-17T08:39:50Z</time>
      </trkpt>
      <trkpt lat="49.94963" lon="4.40562">
        <ele>306.2</ele>
        <time>2024-03-17T08:39:51Z</time>
      </trkpt>
      <trkpt lat="49.94963" lon="4.40571">
        <ele>306.2</ele>
        <time>2024-03-17T08:39:52Z</time>
      </trkpt>
      <trkpt lat="49.94963" lon="4.4058">
        <ele>306.2</ele>
        <time>2024-03-17T08:39:53Z</time>
      </trkpt>
      <trkpt lat="49.94963" lon="4.4059">
        <ele>306.4</ele>
        <time>2024-03-17T08:39:54Z</time>
      </trkpt>
      <trkpt lat="49.94963" lon="4.40599">
        <ele>306.2</ele>
        <time>2024-03-17T08:39:55Z</time>
      </trkpt>
      <trkpt lat="49.94963" lon="4.40608">
        <ele>306.2</ele>
        <time>2024-03-17T08:39:56Z</time>
      </trkpt>
      <trkpt lat="49.94963" lon="4.40617">
        <ele>306.2</ele>
        <time>2024-03-17T08:39:57Z</time>
      </trkpt>
      <trkpt lat="49.94963" lon="4.40627">
        <ele>306.4</ele>
        <time>2024-03-17T08:39:58Z</time>
      </trkpt>
      <trkpt lat="49.94963" lon="4.40636">
        <ele>306.2</ele>
        <time>2024-03-17T08:39:59Z</time>
      </trkpt>
      <trkpt lat="49.94963" lon="4.40645">
        <ele>306.4</ele>
        <time>2024-03-17T08:40:00Z</time>
      </trkpt>
      <trkpt lat="49.94963" lon="4.40654">
        <ele>306.4</ele>
        <time>2024-03-17T08:40:01Z</time>
      </trkpt>
      <trkpt lat="49.94962" lon="4.40663">
        <ele>306.4</ele>
        <time>2024-03-17T08:40:02Z</time>
      </trkpt>
      <trkpt lat="49.94963" lon="4.40672">
        <ele>306.4</ele>
        <time>2024-03-17T08:40:03Z</time>
      </trkpt>
      <trkpt lat="49.94963" lon="4.40681">
        <ele>306.4</ele>
        <time>2024-03-17T08:40:04Z</time>
      </trkpt>
      <trkpt lat="49.94963" lon="4.4069">
        <ele>306.4</ele>
        <time>2024-03-17T08:40:05Z</time>
      </trkpt>
      <trkpt lat="49.94963" lon="4.40698">
        <ele>306.4</ele>
        <time>2024-03-17T08:40:06Z</time>
      </trkpt>
      <trkpt lat="49.94964" lon="4.40708">
        <ele>306.4</ele>
        <time>2024-03-17T08:40:07Z</time>
      </trkpt>
      <trkpt lat="49.94964" lon="4.40717">
        <ele>306.4</ele>
        <time>2024-03-17T08:40:08Z</time>
      </trkpt>
      <trkpt lat="49.94964" lon="4.40726">
        <ele>306.6</ele>
        <time>2024-03-17T08:40:09Z</time>
      </trkpt>
      <trkpt lat="49.94965" lon="4.40735">
        <ele>306.8</ele>
        <time>2024-03-17T08:40:10Z</time>
      </trkpt>
      <trkpt lat="49.94965" lon="4.40744">
        <ele>307.4</ele>
        <time>2024-03-17T08:40:11Z</time>
      </trkpt>
      <trkpt lat="49.94966" lon="4.40753">
        <ele>307.8</ele>
        <time>2024-03-17T08:40:12Z</time>
      </trkpt>
      <trkpt lat="49.94966" lon="4.40762">
        <ele>308</ele>
        <time>2024-03-17T08:40:13Z</time>
      </trkpt>
      <trkpt lat="49.94967" lon="4.40771">
        <ele>308.2</ele>
        <time>2024-03-17T08:40:14Z</time>
      </trkpt>
      <trkpt lat="49.94967" lon="4.4078">
        <ele>308</ele>
        <time>2024-03-17T08:40:15Z</time>
      </trkpt>
      <trkpt lat="49.94968" lon="4.40788">
        <ele>308.2</ele>
        <time>2024-03-17T08:40:16Z</time>
      </trkpt>
      <trkpt lat="49.94968" lon="4.40798">
        <ele>308.2</ele>
        <time>2024-03-17T08:40:17Z</time>
      </trkpt>
      <trkpt lat="49.94969" lon="4.40807">
        <ele>308.4</ele>
        <time>2024-03-17T08:40:18Z</time>
      </trkpt>
      <trkpt lat="49.94969" lon="4.40816">
        <ele>308.6</ele>
        <time>2024-03-17T08:40:19Z</time>
      </trkpt>
      <trkpt lat="49.9497" lon="4.40825">
        <ele>308.6</ele>
        <time>2024-03-17T08:40:20Z</time>
      </trkpt>
      <trkpt lat="49.94971" lon="4.40833">
        <ele>308.8</ele>
        <time>2024-03-17T08:40:21Z</time>
      </trkpt>
      <trkpt lat="49.94972" lon="4.40842">
        <ele>309.2</ele>
        <time>2024-03-17T08:40:22Z</time>
      </trkpt>
      <trkpt lat="49.94972" lon="4.40851">
        <ele>309.4</ele>
        <time>2024-03-17T08:40:23Z</time>
      </trkpt>
      <trkpt lat="49.94973" lon="4.40859">
        <ele>309.4</ele>
        <time>2024-03-17T08:40:24Z</time>
      </trkpt>
      <trkpt lat="49.94973" lon="4.40868">
        <ele>309.6</ele>
        <time>2024-03-17T08:40:25Z</time>
      </trkpt>
      <trkpt lat="49.94974" lon="4.40876">
        <ele>309.6</ele>
        <time>2024-03-17T08:40:26Z</time>
      </trkpt>
      <trkpt lat="49.94974" lon="4.40885">
        <ele>309.8</ele>
        <time>2024-03-17T08:40:27Z</time>
      </trkpt>
      <trkpt lat="49.94974" lon="4.40893">
        <ele>309.8</ele>
        <time>2024-03-17T08:40:28Z</time>
      </trkpt>
      <trkpt lat="49.94974" lon="4.40902">
        <ele>310</ele>
        <time>2024-03-17T08:40:29Z</time>
      </trkpt>
      <trkpt lat="49.94973" lon="4.4091">
        <ele>310</ele>
        <time>2024-03-17T08:40:30Z</time>
      </trkpt>
      <trkpt lat="49.94973" lon="4.40918">
        <ele>310</ele>
        <time>2024-03-17T08:40:31Z</time>
      </trkpt>
      <trkpt lat="49.94971" lon="4.40927">
        <ele>309.8</ele>
        <time>2024-03-17T08:40:32Z</time>
      </trkpt>
      <trkpt lat="49.9497" lon="4.40936">
        <ele>310</ele>
        <time>2024-03-17T08:40:33Z</time>
      </trkpt>
      <trkpt lat="49.94968" lon="4.40944">
        <ele>310</ele>
        <time>2024-03-17T08:40:34Z</time>
      </trkpt>
      <trkpt lat="49.94966" lon="4.40953">
        <ele>310</ele>
        <time>2024-03-17T08:40:35Z</time>
      </trkpt>
      <trkpt lat="49.94963" lon="4.40961">
        <ele>309.8</ele>
        <time>2024-03-17T08:40:36Z</time>
      </trkpt>
      <trkpt lat="49.9496" lon="4.40969">
        <ele>310</ele>
        <time>2024-03-17T08:40:37Z</time>
      </trkpt>
      <trkpt lat="49.94957" lon="4.40978">
        <ele>309.8</ele>
        <time>2024-03-17T08:40:38Z</time>
      </trkpt>
      <trkpt lat="49.94955" lon="4.40987">
        <ele>310</ele>
        <time>2024-03-17T08:40:39Z</time>
      </trkpt>
      <trkpt lat="49.94952" lon="4.40995">
        <ele>310</ele>
        <time>2024-03-17T08:40:40Z</time>
      </trkpt>
      <trkpt lat="49.94949" lon="4.41004">
        <ele>309.8</ele>
        <time>2024-03-17T08:40:41Z</time>
      </trkpt>
      <trkpt lat="49.94946" lon="4.41012">
        <ele>309.8</ele>
        <time>2024-03-17T08:40:42Z</time>
      </trkpt>
      <trkpt lat="49.94943" lon="4.41021">
        <ele>309.8</ele>
        <time>2024-03-17T08:40:43Z</time>
      </trkpt>
      <trkpt lat="49.9494" lon="4.4103">
        <ele>309.8</ele>
        <time>2024-03-17T08:40:44Z</time>
      </trkpt>
      <trkpt lat="49.94938" lon="4.41039">
        <ele>309.8</ele>
        <time>2024-03-17T08:40:45Z</time>
      </trkpt>
      <trkpt lat="49.94934" lon="4.41048">
        <ele>309.8</ele>
        <time>2024-03-17T08:40:46Z</time>
      </trkpt>
      <trkpt lat="49.94932" lon="4.41056">
        <ele>309.8</ele>
        <time>2024-03-17T08:40:47Z</time>
      </trkpt>
      <trkpt lat="49.94928" lon="4.41065">
        <ele>309.8</ele>
        <time>2024-03-17T08:40:48Z</time>
      </trkpt>
      <trkpt lat="49.94925" lon="4.41074">
        <ele>309.6</ele>
        <time>2024-03-17T08:40:49Z</time>
      </trkpt>
      <trkpt lat="49.94922" lon="4.41083">
        <ele>309.6</ele>
        <time>2024-03-17T08:40:50Z</time>
      </trkpt>
      <trkpt lat="49.94919" lon="4.41092">
        <ele>309.6</ele>
        <time>2024-03-17T08:40:51Z</time>
      </trkpt>
      <trkpt lat="49.94916" lon="4.41101">
        <ele>309.6</ele>
        <time>2024-03-17T08:40:52Z</time>
      </trkpt>
      <trkpt lat="49.94913" lon="4.41109">
        <ele>309.6</ele>
        <time>2024-03-17T08:40:53Z</time>
      </trkpt>
      <trkpt lat="49.9491" lon="4.41118">
        <ele>309.6</ele>
        <time>2024-03-17T08:40:54Z</time>
      </trkpt>
      <trkpt lat="49.94907" lon="4.41127">
        <ele>309.6</ele>
        <time>2024-03-17T08:40:55Z</time>
      </trkpt>
      <trkpt lat="49.94904" lon="4.41136">
        <ele>309.6</ele>
        <time>2024-03-17T08:40:56Z</time>
      </trkpt>
      <trkpt lat="49.94901" lon="4.41145">
        <ele>309.4</ele>
        <time>2024-03-17T08:40:57Z</time>
      </trkpt>
      <trkpt lat="49.94898" lon="4.41153">
        <ele>309.4</ele>
        <time>2024-03-17T08:40:58Z</time>
      </trkpt>
      <trkpt lat="49.94895" lon="4.41162">
        <ele>309.4</ele>
        <time>2024-03-17T08:40:59Z</time>
      </trkpt>
      <trkpt lat="49.94892" lon="4.41171">
        <ele>309.4</ele>
        <time>2024-03-17T08:41:00Z</time>
      </trkpt>
      <trkpt lat="49.94889" lon="4.4118">
        <ele>309.4</ele>
        <time>2024-03-17T08:41:01Z</time>
      </trkpt>
      <trkpt lat="49.94886" lon="4.4119">
        <ele>309.4</ele>
        <time>2024-03-17T08:41:02Z</time>
      </trkpt>
      <trkpt lat="49.94884" lon="4.41199">
        <ele>309.4</ele>
        <time>2024-03-17T08:41:03Z</time>
      </trkpt>
      <trkpt lat="49.94881" lon="4.41209">
        <ele>309.4</ele>
        <time>2024-03-17T08:41:04Z</time>
      </trkpt>
      <trkpt lat="49.94879" lon="4.41218">
        <ele>309.2</ele>
        <time>2024-03-17T08:41:05Z</time>
      </trkpt>
      <trkpt lat="49.94877" lon="4.41228">
        <ele>309.4</ele>
        <time>2024-03-17T08:41:06Z</time>
      </trkpt>
      <trkpt lat="49.94875" lon="4.41238">
        <ele>309.2</ele>
        <time>2024-03-17T08:41:07Z</time>
      </trkpt>
      <trkpt lat="49.94873" lon="4.41248">
        <ele>309.2</ele>
        <time>2024-03-17T08:41:08Z</time>
      </trkpt>
      <trkpt lat="49.94871" lon="4.41258">
        <ele>309.2</ele>
        <time>2024-03-17T08:41:09Z</time>
      </trkpt>
      <trkpt lat="49.94869" lon="4.41267">
        <ele>309.2</ele>
        <time>2024-03-17T08:41:10Z</time>
      </trkpt>
      <trkpt lat="49.94868" lon="4.41277">
        <ele>309.4</ele>
        <time>2024-03-17T08:41:11Z</time>
      </trkpt>
      <trkpt lat="49.94867" lon="4.41287">
        <ele>309.2</ele>
        <time>2024-03-17T08:41:12Z</time>
      </trkpt>
      <trkpt lat="49.94866" lon="4.41296">
        <ele>309.2</ele>
        <time>2024-03-17T08:41:13Z</time>
      </trkpt>
      <trkpt lat="49.94864" lon="4.41306">
        <ele>309.4</ele>
        <time>2024-03-17T08:41:14Z</time>
      </trkpt>
      <trkpt lat="49.94863" lon="4.41317">
        <ele>309.4</ele>
        <time>2024-03-17T08:41:15Z</time>
      </trkpt>
      <trkpt lat="49.94862" lon="4.41327">
        <ele>309.2</ele>
        <time>2024-03-17T08:41:16Z</time>
      </trkpt>
      <trkpt lat="49.94861" lon="4.41337">
        <ele>309.2</ele>
        <time>2024-03-17T08:41:17Z</time>
      </trkpt>
      <trkpt lat="49.9486" lon="4.41347">
        <ele>309.4</ele>
        <time>2024-03-17T08:41:18Z</time>
      </trkpt>
      <trkpt lat="49.9486" lon="4.41358">
        <ele>309.2</ele>
        <time>2024-03-17T08:41:19Z</time>
      </trkpt>
      <trkpt lat="49.9486" lon="4.41368">
        <ele>309.2</ele>
        <time>2024-03-17T08:41:20Z</time>
      </trkpt>
      <trkpt lat="49.94859" lon="4.41379">
        <ele>309.2</ele>
        <time>2024-03-17T08:41:21Z</time>
      </trkpt>
      <trkpt lat="49.9486" lon="4.41389">
        <ele>308.8</ele>
        <time>2024-03-17T08:41:22Z</time>
      </trkpt>
      <trkpt lat="49.9486" lon="4.414">
        <ele>309</ele>
        <time>2024-03-17T08:41:23Z</time>
      </trkpt>
      <trkpt lat="49.9486" lon="4.4141">
        <ele>308.8</ele>
        <time>2024-03-17T08:41:24Z</time>
      </trkpt>
      <trkpt lat="49.9486" lon="4.41421">
        <ele>308.6</ele>
        <time>2024-03-17T08:41:25Z</time>
      </trkpt>
      <trkpt lat="49.9486" lon="4.41431">
        <ele>308.6</ele>
        <time>2024-03-17T08:41:26Z</time>
      </trkpt>
      <trkpt lat="49.9486" lon="4.41442">
        <ele>308.6</ele>
        <time>2024-03-17T08:41:27Z</time>
      </trkpt>
      <trkpt lat="49.9486" lon="4.41453">
        <ele>308.6</ele>
        <time>2024-03-17T08:41:28Z</time>
      </trkpt>
      <trkpt lat="49.94861" lon="4.41463">
        <ele>308.4</ele>
        <time>2024-03-17T08:41:29Z</time>
      </trkpt>
      <trkpt lat="49.94861" lon="4.41473">
        <ele>308.4</ele>
        <time>2024-03-17T08:41:30Z</time>
      </trkpt>
      <trkpt lat="49.94861" lon="4.41484">
        <ele>308.4</ele>
        <time>2024-03-17T08:41:31Z</time>
      </trkpt>
      <trkpt lat="49.94861" lon="4.41494">
        <ele>308.4</ele>
        <time>2024-03-17T08:41:32Z</time>
      </trkpt>
      <trkpt lat="49.94862" lon="4.41505">
        <ele>308.4</ele>
        <time>2024-03-17T08:41:33Z</time>
      </trkpt>
      <trkpt lat="49.94862" lon="4.41515">
        <ele>308.4</ele>
        <time>2024-03-17T08:41:34Z</time>
      </trkpt>
      <trkpt lat="49.94862" lon="4.41526">
        <ele>308.4</ele>
        <time>2024-03-17T08:41:35Z</time>
      </trkpt>
      <trkpt lat="49.94862" lon="4.41536">
        <ele>308.4</ele>
        <time>2024-03-17T08:41:36Z</time>
      </trkpt>
      <trkpt lat="49.94863" lon="4.41547">
        <ele>308.4</ele>
        <time>2024-03-17T08:41:37Z</time>
      </trkpt>
      <trkpt lat="49.94863" lon="4.41557">
        <ele>308.4</ele>
        <time>2024-03-17T08:41:38Z</time>
      </trkpt>
      <trkpt lat="49.94863" lon="4.41567">
        <ele>308.4</ele>
        <time>2024-03-17T08:41:39Z</time>
      </trkpt>
      <trkpt lat="49.94863" lon="4.41578">
        <ele>308.4</ele>
        <time>2024-03-17T08:41:40Z</time>
      </trkpt>
      <trkpt lat="49.94864" lon="4.41588">
        <ele>308.4</ele>
        <time>2024-03-17T08:41:41Z</time>
      </trkpt>
      <trkpt lat="49.94864" lon="4.41598">
        <ele>308.4</ele>
        <time>2024-03-17T08:41:42Z</time>
      </trkpt>
      <trkpt lat="49.94864" lon="4.41608">
        <ele>308.2</ele>
        <time>2024-03-17T08:41:43Z</time>
      </trkpt>
      <trkpt lat="49.94864" lon="4.41618">
        <ele>308.4</ele>
        <time>2024-03-17T08:41:44Z</time>
      </trkpt>
      <trkpt lat="49.94865" lon="4.41629">
        <ele>308.4</ele>
        <time>2024-03-17T08:41:45Z</time>
      </trkpt>
      <trkpt lat="49.94865" lon="4.41639">
        <ele>308.4</ele>
        <time>2024-03-17T08:41:46Z</time>
      </trkpt>
      <trkpt lat="49.94865" lon="4.41649">
        <ele>308.2</ele>
        <time>2024-03-17T08:41:47Z</time>
      </trkpt>
      <trkpt lat="49.94865" lon="4.41659">
        <ele>308.2</ele>
        <time>2024-03-17T08:41:48Z</time>
      </trkpt>
      <trkpt lat="49.94866" lon="4.4167">
        <ele>308.2</ele>
        <time>2024-03-17T08:41:49Z</time>
      </trkpt>
      <trkpt lat="49.94866" lon="4.4168">
        <ele>308.2</ele>
        <time>2024-03-17T08:41:50Z</time>
      </trkpt>
      <trkpt lat="49.94866" lon="4.4169">
        <ele>308.2</ele>
        <time>2024-03-17T08:41:51Z</time>
      </trkpt>
      <trkpt lat="49.94866" lon="4.41701">
        <ele>308.2</ele>
        <time>2024-03-17T08:41:52Z</time>
      </trkpt>
      <trkpt lat="49.94866" lon="4.4171">
        <ele>308</ele>
        <time>2024-03-17T08:41:53Z</time>
      </trkpt>
      <trkpt lat="49.94867" lon="4.4172">
        <ele>308</ele>
        <time>2024-03-17T08:41:54Z</time>
      </trkpt>
      <trkpt lat="49.94867" lon="4.4173">
        <ele>308.2</ele>
        <time>2024-03-17T08:41:55Z</time>
      </trkpt>
      <trkpt lat="49.94867" lon="4.4174">
        <ele>308</ele>
        <time>2024-03-17T08:41:56Z</time>
      </trkpt>
      <trkpt lat="49.94868" lon="4.4175">
        <ele>308.2</ele>
        <time>2024-03-17T08:41:57Z</time>
      </trkpt>
      <trkpt lat="49.94868" lon="4.4176">
        <ele>308.2</ele>
        <time>2024-03-17T08:41:58Z</time>
      </trkpt>
      <trkpt lat="49.94868" lon="4.4177">
        <ele>308</ele>
        <time>2024-03-17T08:41:59Z</time>
      </trkpt>
      <trkpt lat="49.94868" lon="4.41779">
        <ele>308</ele>
        <time>2024-03-17T08:42:00Z</time>
      </trkpt>
      <trkpt lat="49.94867" lon="4.41789">
        <ele>308</ele>
        <time>2024-03-17T08:42:01Z</time>
      </trkpt>
      <trkpt lat="49.94867" lon="4.41798">
        <ele>307.8</ele>
        <time>2024-03-17T08:42:02Z</time>
      </trkpt>
      <trkpt lat="49.94866" lon="4.41807">
        <ele>308</ele>
        <time>2024-03-17T08:42:03Z</time>
      </trkpt>
      <trkpt lat="49.94866" lon="4.41816">
        <ele>307.8</ele>
        <time>2024-03-17T08:42:04Z</time>
      </trkpt>
      <trkpt lat="49.94865" lon="4.41825">
        <ele>308</ele>
        <time>2024-03-17T08:42:05Z</time>
      </trkpt>
      <trkpt lat="49.94864" lon="4.41834">
        <ele>308</ele>
        <time>2024-03-17T08:42:06Z</time>
      </trkpt>
      <trkpt lat="49.94863" lon="4.41843">
        <ele>308</ele>
        <time>2024-03-17T08:42:07Z</time>
      </trkpt>
      <trkpt lat="49.94861" lon="4.41852">
        <ele>308</ele>
        <time>2024-03-17T08:42:08Z</time>
      </trkpt>
      <trkpt lat="49.9486" lon="4.4186">
        <ele>308</ele>
        <time>2024-03-17T08:42:09Z</time>
      </trkpt>
      <trkpt lat="49.94858" lon="4.41869">
        <ele>308.2</ele>
        <time>2024-03-17T08:42:10Z</time>
      </trkpt>
      <trkpt lat="49.94856" lon="4.41877">
        <ele>308.2</ele>
        <time>2024-03-17T08:42:11Z</time>
      </trkpt>
      <trkpt lat="49.94854" lon="4.41885">
        <ele>308.2</ele>
        <time>2024-03-17T08:42:12Z</time>
      </trkpt>
      <trkpt lat="49.94852" lon="4.41894">
        <ele>308.4</ele>
        <time>2024-03-17T08:42:13Z</time>
      </trkpt>
      <trkpt lat="49.9485" lon="4.41902">
        <ele>308.2</ele>
        <time>2024-03-17T08:42:14Z</time>
      </trkpt>
      <trkpt lat="49.94848" lon="4.4191">
        <ele>308.4</ele>
        <time>2024-03-17T08:42:15Z</time>
      </trkpt>
      <trkpt lat="49.94845" lon="4.41918">
        <ele>308.4</ele>
        <time>2024-03-17T08:42:16Z</time>
      </trkpt>
      <trkpt lat="49.94843" lon="4.41925">
        <ele>308.4</ele>
        <time>2024-03-17T08:42:17Z</time>
      </trkpt>
      <trkpt lat="49.9484" lon="4.41933">
        <ele>308.6</ele>
        <time>2024-03-17T08:42:18Z</time>
      </trkpt>
      <trkpt lat="49.94838" lon="4.4194">
        <ele>308.8</ele>
        <time>2024-03-17T08:42:19Z</time>
      </trkpt>
      <trkpt lat="49.94835" lon="4.41948">
        <ele>309</ele>
        <time>2024-03-17T08:42:20Z</time>
      </trkpt>
      <trkpt lat="49.94832" lon="4.41955">
        <ele>309.4</ele>
        <time>2024-03-17T08:42:21Z</time>
      </trkpt>
      <trkpt lat="49.9483" lon="4.41963">
        <ele>309.6</ele>
        <time>2024-03-17T08:42:22Z</time>
      </trkpt>
      <trkpt lat="49.94826" lon="4.4197">
        <ele>309.6</ele>
        <time>2024-03-17T08:42:23Z</time>
      </trkpt>
      <trkpt lat="49.94823" lon="4.41976">
        <ele>309.8</ele>
        <time>2024-03-17T08:42:24Z</time>
      </trkpt>
      <trkpt lat="49.9482" lon="4.41983">
        <ele>309.8</ele>
        <time>2024-03-17T08:42:25Z</time>
      </trkpt>
      <trkpt lat="49.94816" lon="4.41989">
        <ele>309.8</ele>
        <time>2024-03-17T08:42:26Z</time>
      </trkpt>
      <trkpt lat="49.94812" lon="4.41996">
        <ele>310</ele>
        <time>2024-03-17T08:42:27Z</time>
      </trkpt>
      <trkpt lat="49.94809" lon="4.42002">
        <ele>310</ele>
        <time>2024-03-17T08:42:28Z</time>
      </trkpt>
      <trkpt lat="49.94805" lon="4.42008">
        <ele>310.2</ele>
        <time>2024-03-17T08:42:29Z</time>
      </trkpt>
      <trkpt lat="49.94801" lon="4.42014">
        <ele>310.2</ele>
        <time>2024-03-17T08:42:30Z</time>
      </trkpt>
      <trkpt lat="49.94797" lon="4.4202">
        <ele>310.4</ele>
        <time>2024-03-17T08:42:31Z</time>
      </trkpt>
      <trkpt lat="49.94794" lon="4.42026">
        <ele>310.4</ele>
        <time>2024-03-17T08:42:32Z</time>
      </trkpt>
      <trkpt lat="49.9479" lon="4.42031">
        <ele>310.6</ele>
        <time>2024-03-17T08:42:33Z</time>
      </trkpt>
      <trkpt lat="49.94786" lon="4.42036">
        <ele>310.8</ele>
        <time>2024-03-17T08:42:34Z</time>
      </trkpt>
      <trkpt lat="49.94782" lon="4.42042">
        <ele>310.8</ele>
        <time>2024-03-17T08:42:35Z</time>
      </trkpt>
      <trkpt lat="49.94778" lon="4.42047">
        <ele>311</ele>
        <time>2024-03-17T08:42:36Z</time>
      </trkpt>
      <trkpt lat="49.94773" lon="4.42052">
        <ele>311.4</ele>
        <time>2024-03-17T08:42:37Z</time>
      </trkpt>
      <trkpt lat="49.9477" lon="4.42057">
        <ele>311.6</ele>
        <time>2024-03-17T08:42:38Z</time>
      </trkpt>
      <trkpt lat="49.94766" lon="4.42063">
        <ele>311.6</ele>
        <time>2024-03-17T08:42:39Z</time>
      </trkpt>
      <trkpt lat="49.94762" lon="4.42068">
        <ele>311.6</ele>
        <time>2024-03-17T08:42:40Z</time>
      </trkpt>
      <trkpt lat="49.94758" lon="4.42073">
        <ele>311.8</ele>
        <time>2024-03-17T08:42:41Z</time>
      </trkpt>
      <trkpt lat="49.94754" lon="4.42079">
        <ele>311.8</ele>
        <time>2024-03-17T08:42:42Z</time>
      </trkpt>
      <trkpt lat="49.9475" lon="4.42084">
        <ele>311.8</ele>
        <time>2024-03-17T08:42:43Z</time>
      </trkpt>
      <trkpt lat="49.94746" lon="4.42089">
        <ele>311.8</ele>
        <time>2024-03-17T08:42:44Z</time>
      </trkpt>
      <trkpt lat="49.94742" lon="4.42095">
        <ele>311.8</ele>
        <time>2024-03-17T08:42:45Z</time>
      </trkpt>
      <trkpt lat="49.94738" lon="4.421">
        <ele>311.8</ele>
        <time>2024-03-17T08:42:46Z</time>
      </trkpt>
      <trkpt lat="49.94734" lon="4.42106">
        <ele>312</ele>
        <time>2024-03-17T08:42:47Z</time>
      </trkpt>
      <trkpt lat="49.94729" lon="4.42111">
        <ele>312</ele>
        <time>2024-03-17T08:42:48Z</time>
      </trkpt>
      <trkpt lat="49.94725" lon="4.42117">
        <ele>311.8</ele>
        <time>2024-03-17T08:42:49Z</time>
      </trkpt>
      <trkpt lat="49.94721" lon="4.42123">
        <ele>311.8</ele>
        <time>2024-03-17T08:42:50Z</time>
      </trkpt>
      <trkpt lat="49.94716" lon="4.42128">
        <ele>311.8</ele>
        <time>2024-03-17T08:42:51Z</time>
      </trkpt>
      <trkpt lat="49.94712" lon="4.42134">
        <ele>311.6</ele>
        <time>2024-03-17T08:42:52Z</time>
      </trkpt>
      <trkpt lat="49.94708" lon="4.42139">
        <ele>311.8</ele>
        <time>2024-03-17T08:42:53Z</time>
      </trkpt>
      <trkpt lat="49.94703" lon="4.42145">
        <ele>311.6</ele>
        <time>2024-03-17T08:42:54Z</time>
      </trkpt>
      <trkpt lat="49.94699" lon="4.4215">
        <ele>311.8</ele>
        <time>2024-03-17T08:42:55Z</time>
      </trkpt>
      <trkpt lat="49.94695" lon="4.42156">
        <ele>311.6</ele>
        <time>2024-03-17T08:42:56Z</time>
      </trkpt>
      <trkpt lat="49.9469" lon="4.42162">
        <ele>311.8</ele>
        <time>2024-03-17T08:42:57Z</time>
      </trkpt>
      <trkpt lat="49.94686" lon="4.42168">
        <ele>311.8</ele>
        <time>2024-03-17T08:42:58Z</time>
      </trkpt>
      <trkpt lat="49.94682" lon="4.42173">
        <ele>311.8</ele>
        <time>2024-03-17T08:42:59Z</time>
      </trkpt>
      <trkpt lat="49.94677" lon="4.42179">
        <ele>311.8</ele>
        <time>2024-03-17T08:43:00Z</time>
      </trkpt>
      <trkpt lat="49.94673" lon="4.42184">
        <ele>311.8</ele>
        <time>2024-03-17T08:43:01Z</time>
      </trkpt>
      <trkpt lat="49.94669" lon="4.4219">
        <ele>312</ele>
        <time>2024-03-17T08:43:02Z</time>
      </trkpt>
      <trkpt lat="49.94664" lon="4.42196">
        <ele>312</ele>
        <time>2024-03-17T08:43:03Z</time>
      </trkpt>
      <trkpt lat="49.9466" lon="4.42201">
        <ele>312</ele>
        <time>2024-03-17T08:43:04Z</time>
      </trkpt>
      <trkpt lat="49.94655" lon="4.42207">
        <ele>312</ele>
        <time>2024-03-17T08:43:05Z</time>
      </trkpt>
      <trkpt lat="49.94651" lon="4.42213">
        <ele>312</ele>
        <time>2024-03-17T08:43:06Z</time>
      </trkpt>
      <trkpt lat="49.94646" lon="4.42219">
        <ele>312</ele>
        <time>2024-03-17T08:43:07Z</time>
      </trkpt>
      <trkpt lat="49.94642" lon="4.42225">
        <ele>312</ele>
        <time>2024-03-17T08:43:08Z</time>
      </trkpt>
      <trkpt lat="49.94638" lon="4.42231">
        <ele>312.2</ele>
        <time>2024-03-17T08:43:09Z</time>
      </trkpt>
      <trkpt lat="49.94633" lon="4.42238">
        <ele>312</ele>
        <time>2024-03-17T08:43:10Z</time>
      </trkpt>
      <trkpt lat="49.94629" lon="4.42244">
        <ele>312.2</ele>
        <time>2024-03-17T08:43:11Z</time>
      </trkpt>
      <trkpt lat="49.94625" lon="4.4225">
        <ele>312</ele>
        <time>2024-03-17T08:43:12Z</time>
      </trkpt>
      <trkpt lat="49.94621" lon="4.42257">
        <ele>312</ele>
        <time>2024-03-17T08:43:13Z</time>
      </trkpt>
      <trkpt lat="49.94617" lon="4.42264">
        <ele>312</ele>
        <time>2024-03-17T08:43:14Z</time>
      </trkpt>
      <trkpt lat="49.94613" lon="4.4227">
        <ele>312</ele>
        <time>2024-03-17T08:43:15Z</time>
      </trkpt>
      <trkpt lat="49.94609" lon="4.42277">
        <ele>312</ele>
        <time>2024-03-17T08:43:16Z</time>
      </trkpt>
      <trkpt lat="49.94604" lon="4.42284">
        <ele>312</ele>
        <time>2024-03-17T08:43:17Z</time>
      </trkpt>
      <trkpt lat="49.946" lon="4.4229">
        <ele>312</ele>
        <time>2024-03-17T08:43:18Z</time>
      </trkpt>
      <trkpt lat="49.94596" lon="4.42297">
        <ele>312</ele>
        <time>2024-03-17T08:43:19Z</time>
      </trkpt>
      <trkpt lat="49.94593" lon="4.42304">
        <ele>312</ele>
        <time>2024-03-17T08:43:20Z</time>
      </trkpt>
      <trkpt lat="49.94589" lon="4.42311">
        <ele>312</ele>
        <time>2024-03-17T08:43:21Z</time>
      </trkpt>
      <trkpt lat="49.94585" lon="4.42318">
        <ele>312</ele>
        <time>2024-03-17T08:43:22Z</time>
      </trkpt>
      <trkpt lat="49.94581" lon="4.42324">
        <ele>312.2</ele>
        <time>2024-03-17T08:43:23Z</time>
      </trkpt>
      <trkpt lat="49.94578" lon="4.42331">
        <ele>311.8</ele>
        <time>2024-03-17T08:43:24Z</time>
      </trkpt>
      <trkpt lat="49.94574" lon="4.42338">
        <ele>312</ele>
        <time>2024-03-17T08:43:25Z</time>
      </trkpt>
      <trkpt lat="49.94571" lon="4.42345">
        <ele>312</ele>
        <time>2024-03-17T08:43:26Z</time>
      </trkpt>
      <trkpt lat="49.94567" lon="4.42353">
        <ele>312</ele>
        <time>2024-03-17T08:43:27Z</time>
      </trkpt>
      <trkpt lat="49.94564" lon="4.42361">
        <ele>311.8</ele>
        <time>2024-03-17T08:43:28Z</time>
      </trkpt>
      <trkpt lat="49.94561" lon="4.42368">
        <ele>311.8</ele>
        <time>2024-03-17T08:43:29Z</time>
      </trkpt>
      <trkpt lat="49.94558" lon="4.42376">
        <ele>311.8</ele>
        <time>2024-03-17T08:43:30Z</time>
      </trkpt>
      <trkpt lat="49.94555" lon="4.42384">
        <ele>311.8</ele>
        <time>2024-03-17T08:43:31Z</time>
      </trkpt>
      <trkpt lat="49.94552" lon="4.42392">
        <ele>311.6</ele>
        <time>2024-03-17T08:43:32Z</time>
      </trkpt>
      <trkpt lat="49.94549" lon="4.424">
        <ele>311.6</ele>
        <time>2024-03-17T08:43:33Z</time>
      </trkpt>
      <trkpt lat="49.94546" lon="4.42408">
        <ele>311.6</ele>
        <time>2024-03-17T08:43:34Z</time>
      </trkpt>
      <trkpt lat="49.94544" lon="4.42416">
        <ele>311.4</ele>
        <time>2024-03-17T08:43:35Z</time>
      </trkpt>
      <trkpt lat="49.94541" lon="4.42424">
        <ele>311.4</ele>
        <time>2024-03-17T08:43:36Z</time>
      </trkpt>
      <trkpt lat="49.94539" lon="4.42433">
        <ele>311.4</ele>
        <time>2024-03-17T08:43:37Z</time>
      </trkpt>
      <trkpt lat="49.94537" lon="4.42442">
        <ele>311.2</ele>
        <time>2024-03-17T08:43:38Z</time>
      </trkpt>
      <trkpt lat="49.94536" lon="4.42451">
        <ele>311.4</ele>
        <time>2024-03-17T08:43:39Z</time>
      </trkpt>
      <trkpt lat="49.94535" lon="4.42458">
        <ele>311.4</ele>
        <time>2024-03-17T08:43:40Z</time>
      </trkpt>
      <trkpt lat="49.94534" lon="4.42466">
        <ele>311.4</ele>
        <time>2024-03-17T08:43:41Z</time>
      </trkpt>
      <trkpt lat="49.94532" lon="4.42474">
        <ele>311.4</ele>
        <time>2024-03-17T08:43:42Z</time>
      </trkpt>
      <trkpt lat="49.94531" lon="4.42482">
        <ele>311.4</ele>
        <time>2024-03-17T08:43:43Z</time>
      </trkpt>
      <trkpt lat="49.9453" lon="4.42491">
        <ele>311.4</ele>
        <time>2024-03-17T08:43:44Z</time>
      </trkpt>
      <trkpt lat="49.94529" lon="4.42499">
        <ele>311.4</ele>
        <time>2024-03-17T08:43:45Z</time>
      </trkpt>
      <trkpt lat="49.94528" lon="4.42508">
        <ele>311.4</ele>
        <time>2024-03-17T08:43:46Z</time>
      </trkpt>
      <trkpt lat="49.94527" lon="4.42517">
        <ele>311.4</ele>
        <time>2024-03-17T08:43:47Z</time>
      </trkpt>
      <trkpt lat="49.94526" lon="4.42527">
        <ele>311.4</ele>
        <time>2024-03-17T08:43:48Z</time>
      </trkpt>
      <trkpt lat="49.94524" lon="4.42536">
        <ele>311.4</ele>
        <time>2024-03-17T08:43:49Z</time>
      </trkpt>
      <trkpt lat="49.94523" lon="4.42546">
        <ele>311.4</ele>
        <time>2024-03-17T08:43:50Z</time>
      </trkpt>
      <trkpt lat="49.94522" lon="4.42555">
        <ele>311.4</ele>
        <time>2024-03-17T08:43:51Z</time>
      </trkpt>
      <trkpt lat="49.94521" lon="4.42564">
        <ele>311.6</ele>
        <time>2024-03-17T08:43:52Z</time>
      </trkpt>
      <trkpt lat="49.94521" lon="4.42573">
        <ele>311.4</ele>
        <time>2024-03-17T08:43:53Z</time>
      </trkpt>
      <trkpt lat="49.9452" lon="4.42583">
        <ele>311.6</ele>
        <time>2024-03-17T08:43:54Z</time>
      </trkpt>
      <trkpt lat="49.9452" lon="4.42592">
        <ele>311.6</ele>
        <time>2024-03-17T08:43:55Z</time>
      </trkpt>
      <trkpt lat="49.94519" lon="4.42601">
        <ele>311.4</ele>
        <time>2024-03-17T08:43:56Z</time>
      </trkpt>
      <trkpt lat="49.94519" lon="4.4261">
        <ele>311.8</ele>
        <time>2024-03-17T08:43:57Z</time>
      </trkpt>
      <trkpt lat="49.94518" lon="4.42619">
        <ele>311.8</ele>
        <time>2024-03-17T08:43:58Z</time>
      </trkpt>
      <trkpt lat="49.94518" lon="4.42627">
        <ele>311.8</ele>
        <time>2024-03-17T08:43:59Z</time>
      </trkpt>
      <trkpt lat="49.94517" lon="4.42636">
        <ele>311.6</ele>
        <time>2024-03-17T08:44:00Z</time>
      </trkpt>
      <trkpt lat="49.94517" lon="4.42644">
        <ele>312</ele>
        <time>2024-03-17T08:44:01Z</time>
      </trkpt>
      <trkpt lat="49.94517" lon="4.42652">
        <ele>312.2</ele>
        <time>2024-03-17T08:44:02Z</time>
      </trkpt>
      <trkpt lat="49.94516" lon="4.42661">
        <ele>312.4</ele>
        <time>2024-03-17T08:44:03Z</time>
      </trkpt>
      <trkpt lat="49.94516" lon="4.42669">
        <ele>312.4</ele>
        <time>2024-03-17T08:44:04Z</time>
      </trkpt>
      <trkpt lat="49.94516" lon="4.42677">
        <ele>312.6</ele>
        <time>2024-03-17T08:44:05Z</time>
      </trkpt>
      <trkpt lat="49.94516" lon="4.42685">
        <ele>312.6</ele>
        <time>2024-03-17T08:44:06Z</time>
      </trkpt>
      <trkpt lat="49.94516" lon="4.42693">
        <ele>312.8</ele>
        <time>2024-03-17T08:44:07Z</time>
      </trkpt>
      <trkpt lat="49.94516" lon="4.42701">
        <ele>313</ele>
        <time>2024-03-17T08:44:08Z</time>
      </trkpt>
      <trkpt lat="49.94516" lon="4.42709">
        <ele>313</ele>
        <time>2024-03-17T08:44:09Z</time>
      </trkpt>
      <trkpt lat="49.94516" lon="4.42717">
        <ele>313.2</ele>
        <time>2024-03-17T08:44:10Z</time>
      </trkpt>
      <trkpt lat="49.94516" lon="4.42725">
        <ele>313.2</ele>
        <time>2024-03-17T08:44:11Z</time>
      </trkpt>
      <trkpt lat="49.94516" lon="4.42733">
        <ele>313.2</ele>
        <time>2024-03-17T08:44:12Z</time>
      </trkpt>
      <trkpt lat="49.94516" lon="4.42741">
        <ele>313.4</ele>
        <time>2024-03-17T08:44:13Z</time>
      </trkpt>
      <trkpt lat="49.94516" lon="4.42749">
        <ele>313.2</ele>
        <time>2024-03-17T08:44:14Z</time>
      </trkpt>
      <trkpt lat="49.94517" lon="4.42757">
        <ele>313.2</ele>
        <time>2024-03-17T08:44:15Z</time>
      </trkpt>
      <trkpt lat="49.94517" lon="4.42765">
        <ele>313.2</ele>
        <time>2024-03-17T08:44:16Z</time>
      </trkpt>
      <trkpt lat="49.94517" lon="4.42773">
        <ele>313.4</ele>
        <time>2024-03-17T08:44:17Z</time>
      </trkpt>
      <trkpt lat="49.94518" lon="4.42781">
        <ele>313.4</ele>
        <time>2024-03-17T08:44:18Z</time>
      </trkpt>
      <trkpt lat="49.94518" lon="4.42789">
        <ele>313.6</ele>
        <time>2024-03-17T08:44:19Z</time>
      </trkpt>
      <trkpt lat="49.94517" lon="4.42796">
        <ele>313.6</ele>
        <time>2024-03-17T08:44:20Z</time>
      </trkpt>
      <trkpt lat="49.94517" lon="4.42803">
        <ele>313.8</ele>
        <time>2024-03-17T08:44:21Z</time>
      </trkpt>
      <trkpt lat="49.94518" lon="4.42811">
        <ele>313.8</ele>
        <time>2024-03-17T08:44:22Z</time>
      </trkpt>
      <trkpt lat="49.94518" lon="4.42819">
        <ele>313.8</ele>
        <time>2024-03-17T08:44:23Z</time>
      </trkpt>
      <trkpt lat="49.94518" lon="4.42826">
        <ele>314</ele>
        <time>2024-03-17T08:44:24Z</time>
      </trkpt>
      <trkpt lat="49.94518" lon="4.42834">
        <ele>314</ele>
        <time>2024-03-17T08:44:25Z</time>
      </trkpt>
      <trkpt lat="49.94518" lon="4.42841">
        <ele>314.2</ele>
        <time>2024-03-17T08:44:26Z</time>
      </trkpt>
      <trkpt lat="49.94518" lon="4.42849">
        <ele>314.4</ele>
        <time>2024-03-17T08:44:27Z</time>
      </trkpt>
      <trkpt lat="49.94518" lon="4.42856">
        <ele>314.4</ele>
        <time>2024-03-17T08:44:28Z</time>
      </trkpt>
      <trkpt lat="49.94517" lon="4.42863">
        <ele>314.4</ele>
        <time>2024-03-17T08:44:29Z</time>
      </trkpt>
      <trkpt lat="49.94517" lon="4.42871">
        <ele>314.6</ele>
        <time>2024-03-17T08:44:30Z</time>
      </trkpt>
      <trkpt lat="49.94516" lon="4.42878">
        <ele>314.6</ele>
        <time>2024-03-17T08:44:31Z</time>
      </trkpt>
      <trkpt lat="49.94515" lon="4.42886">
        <ele>314.6</ele>
        <time>2024-03-17T08:44:32Z</time>
      </trkpt>
      <trkpt lat="49.94515" lon="4.42894">
        <ele>315.4</ele>
        <time>2024-03-17T08:44:33Z</time>
      </trkpt>
      <trkpt lat="49.94513" lon="4.42901">
        <ele>315.6</ele>
        <time>2024-03-17T08:44:34Z</time>
      </trkpt>
      <trkpt lat="49.94512" lon="4.42909">
        <ele>316</ele>
        <time>2024-03-17T08:44:35Z</time>
      </trkpt>
      <trkpt lat="49.94511" lon="4.42916">
        <ele>316.2</ele>
        <time>2024-03-17T08:44:36Z</time>
      </trkpt>
      <trkpt lat="49.9451" lon="4.42923">
        <ele>316.2</ele>
        <time>2024-03-17T08:44:37Z</time>
      </trkpt>
      <trkpt lat="49.94509" lon="4.42931">
        <ele>316.4</ele>
        <time>2024-03-17T08:44:38Z</time>
      </trkpt>
      <trkpt lat="49.94508" lon="4.42939">
        <ele>316.8</ele>
        <time>2024-03-17T08:44:39Z</time>
      </trkpt>
      <trkpt lat="49.94507" lon="4.42946">
        <ele>317</ele>
        <time>2024-03-17T08:44:40Z</time>
      </trkpt>
      <trkpt lat="49.94506" lon="4.42954">
        <ele>317.2</ele>
        <time>2024-03-17T08:44:41Z</time>
      </trkpt>
      <trkpt lat="49.94505" lon="4.42961">
        <ele>317.4</ele>
        <time>2024-03-17T08:44:42Z</time>
      </trkpt>
      <trkpt lat="49.94503" lon="4.42969">
        <ele>317.2</ele>
        <time>2024-03-17T08:44:43Z</time>
      </trkpt>
      <trkpt lat="49.94502" lon="4.42977">
        <ele>317.4</ele>
        <time>2024-03-17T08:44:44Z</time>
      </trkpt>
      <trkpt lat="49.94501" lon="4.42985">
        <ele>317.4</ele>
        <time>2024-03-17T08:44:45Z</time>
      </trkpt>
      <trkpt lat="49.945" lon="4.42992">
        <ele>317.6</ele>
        <time>2024-03-17T08:44:46Z</time>
      </trkpt>
      <trkpt lat="49.94499" lon="4.43001">
        <ele>317.6</ele>
        <time>2024-03-17T08:44:47Z</time>
      </trkpt>
      <trkpt lat="49.94497" lon="4.43009">
        <ele>317.6</ele>
        <time>2024-03-17T08:44:48Z</time>
      </trkpt>
      <trkpt lat="49.94496" lon="4.43017">
        <ele>317.6</ele>
        <time>2024-03-17T08:44:49Z</time>
      </trkpt>
      <trkpt lat="49.94494" lon="4.43025">
        <ele>317.8</ele>
        <time>2024-03-17T08:44:50Z</time>
      </trkpt>
      <trkpt lat="49.94493" lon="4.43033">
        <ele>317.6</ele>
        <time>2024-03-17T08:44:51Z</time>
      </trkpt>
      <trkpt lat="49.94492" lon="4.43041">
        <ele>317.8</ele>
        <time>2024-03-17T08:44:52Z</time>
      </trkpt>
      <trkpt lat="49.9449" lon="4.43049">
        <ele>317.8</ele>
        <time>2024-03-17T08:44:53Z</time>
      </trkpt>
      <trkpt lat="49.94488" lon="4.43057">
        <ele>318</ele>
        <time>2024-03-17T08:44:54Z</time>
      </trkpt>
      <trkpt lat="49.94486" lon="4.43066">
        <ele>318.2</ele>
        <time>2024-03-17T08:44:55Z</time>
      </trkpt>
      <trkpt lat="49.94484" lon="4.43075">
        <ele>318.2</ele>
        <time>2024-03-17T08:44:56Z</time>
      </trkpt>
      <trkpt lat="49.94481" lon="4.43084">
        <ele>318.4</ele>
        <time>2024-03-17T08:44:57Z</time>
      </trkpt>
      <trkpt lat="49.94478" lon="4.43093">
        <ele>318.6</ele>
        <time>2024-03-17T08:44:58Z</time>
      </trkpt>
      <trkpt lat="49.94475" lon="4.43103">
        <ele>318.8</ele>
        <time>2024-03-17T08:44:59Z</time>
      </trkpt>
      <trkpt lat="49.94471" lon="4.43112">
        <ele>319</ele>
        <time>2024-03-17T08:45:00Z</time>
      </trkpt>
      <trkpt lat="49.94468" lon="4.43122">
        <ele>319.2</ele>
        <time>2024-03-17T08:45:01Z</time>
      </trkpt>
      <trkpt lat="49.94464" lon="4.43131">
        <ele>319</ele>
        <time>2024-03-17T08:45:02Z</time>
      </trkpt>
      <trkpt lat="49.94459" lon="4.43139">
        <ele>319.2</ele>
        <time>2024-03-17T08:45:03Z</time>
      </trkpt>
      <trkpt lat="49.94454" lon="4.43147">
        <ele>319.4</ele>
        <time>2024-03-17T08:45:04Z</time>
      </trkpt>
      <trkpt lat="49.94449" lon="4.43156">
        <ele>319.4</ele>
        <time>2024-03-17T08:45:05Z</time>
      </trkpt>
      <trkpt lat="49.94444" lon="4.43164">
        <ele>319.4</ele>
        <time>2024-03-17T08:45:06Z</time>
      </trkpt>
      <trkpt lat="49.94438" lon="4.43171">
        <ele>319.6</ele>
        <time>2024-03-17T08:45:07Z</time>
      </trkpt>
      <trkpt lat="49.94433" lon="4.43179">
        <ele>319.4</ele>
        <time>2024-03-17T08:45:08Z</time>
      </trkpt>
      <trkpt lat="49.94427" lon="4.43186">
        <ele>319.4</ele>
        <time>2024-03-17T08:45:09Z</time>
      </trkpt>
      <trkpt lat="49.94421" lon="4.43194">
        <ele>319.6</ele>
        <time>2024-03-17T08:45:10Z</time>
      </trkpt>
      <trkpt lat="49.94415" lon="4.43201">
        <ele>319.6</ele>
        <time>2024-03-17T08:45:11Z</time>
      </trkpt>
      <trkpt lat="49.94408" lon="4.43208">
        <ele>319.6</ele>
        <time>2024-03-17T08:45:12Z</time>
      </trkpt>
      <trkpt lat="49.94402" lon="4.43216">
        <ele>319.6</ele>
        <time>2024-03-17T08:45:13Z</time>
      </trkpt>
      <trkpt lat="49.94395" lon="4.43224">
        <ele>319.4</ele>
        <time>2024-03-17T08:45:14Z</time>
      </trkpt>
      <trkpt lat="49.94389" lon="4.43232">
        <ele>319.6</ele>
        <time>2024-03-17T08:45:15Z</time>
      </trkpt>
      <trkpt lat="49.94382" lon="4.4324">
        <ele>319.4</ele>
        <time>2024-03-17T08:45:16Z</time>
      </trkpt>
      <trkpt lat="49.94375" lon="4.43248">
        <ele>319.4</ele>
        <time>2024-03-17T08:45:17Z</time>
      </trkpt>
      <trkpt lat="49.94367" lon="4.43256">
        <ele>319.2</ele>
        <time>2024-03-17T08:45:18Z</time>
      </trkpt>
      <trkpt lat="49.9436" lon="4.43265">
        <ele>319</ele>
        <time>2024-03-17T08:45:19Z</time>
      </trkpt>
      <trkpt lat="49.94353" lon="4.43273">
        <ele>318.6</ele>
        <time>2024-03-17T08:45:20Z</time>
      </trkpt>
      <trkpt lat="49.94346" lon="4.43282">
        <ele>318.4</ele>
        <time>2024-03-17T08:45:21Z</time>
      </trkpt>
      <trkpt lat="49.94339" lon="4.43291">
        <ele>318.4</ele>
        <time>2024-03-17T08:45:22Z</time>
      </trkpt>
      <trkpt lat="49.94331" lon="4.433">
        <ele>318.4</ele>
        <time>2024-03-17T08:45:23Z</time>
      </trkpt>
      <trkpt lat="49.94324" lon="4.43308">
        <ele>318.2</ele>
        <time>2024-03-17T08:45:24Z</time>
      </trkpt>
      <trkpt lat="49.94316" lon="4.43317">
        <ele>317.8</ele>
        <time>2024-03-17T08:45:25Z</time>
      </trkpt>
      <trkpt lat="49.94309" lon="4.43326">
        <ele>317.6</ele>
        <time>2024-03-17T08:45:26Z</time>
      </trkpt>
      <trkpt lat="49.94302" lon="4.43335">
        <ele>317.2</ele>
        <time>2024-03-17T08:45:27Z</time>
      </trkpt>
      <trkpt lat="49.94295" lon="4.43344">
        <ele>317</ele>
        <time>2024-03-17T08:45:28Z</time>
      </trkpt>
      <trkpt lat="49.94288" lon="4.43352">
        <ele>316.6</ele>
        <time>2024-03-17T08:45:29Z</time>
      </trkpt>
      <trkpt lat="49.94281" lon="4.43361">
        <ele>316.8</ele>
        <time>2024-03-17T08:45:30Z</time>
      </trkpt>
      <trkpt lat="49.94274" lon="4.4337">
        <ele>316.4</ele>
        <time>2024-03-17T08:45:31Z</time>
      </trkpt>
      <trkpt lat="49.94267" lon="4.43378">
        <ele>316</ele>
        <time>2024-03-17T08:45:32Z</time>
      </trkpt>
      <trkpt lat="49.9426" lon="4.43386">
        <ele>315.4</ele>
        <time>2024-03-17T08:45:33Z</time>
      </trkpt>
      <trkpt lat="49.94253" lon="4.43394">
        <ele>315.2</ele>
        <time>2024-03-17T08:45:34Z</time>
      </trkpt>
      <trkpt lat="49.94246" lon="4.43403">
        <ele>315</ele>
        <time>2024-03-17T08:45:35Z</time>
      </trkpt>
      <trkpt lat="49.94239" lon="4.43411">
        <ele>314.8</ele>
        <time>2024-03-17T08:45:36Z</time>
      </trkpt>
      <trkpt lat="49.94232" lon="4.43419">
        <ele>314.6</ele>
        <time>2024-03-17T08:45:37Z</time>
      </trkpt>
      <trkpt lat="49.94226" lon="4.43427">
        <ele>314.4</ele>
        <time>2024-03-17T08:45:38Z</time>
      </trkpt>
      <trkpt lat="49.94219" lon="4.43435">
        <ele>314.4</ele>
        <time>2024-03-17T08:45:39Z</time>
      </trkpt>
      <trkpt lat="49.94212" lon="4.43442">
        <ele>314.2</ele>
        <time>2024-03-17T08:45:40Z</time>
      </trkpt>
      <trkpt lat="49.94206" lon="4.4345">
        <ele>314</ele>
        <time>2024-03-17T08:45:41Z</time>
      </trkpt>
      <trkpt lat="49.942" lon="4.43459">
        <ele>314</ele>
        <time>2024-03-17T08:45:42Z</time>
      </trkpt>
      <trkpt lat="49.94193" lon="4.43467">
        <ele>313.8</ele>
        <time>2024-03-17T08:45:43Z</time>
      </trkpt>
      <trkpt lat="49.94187" lon="4.43475">
        <ele>313.8</ele>
        <time>2024-03-17T08:45:44Z</time>
      </trkpt>
      <trkpt lat="49.94181" lon="4.43482">
        <ele>313.6</ele>
        <time>2024-03-17T08:45:45Z</time>
      </trkpt>
      <trkpt lat="49.94175" lon="4.43489">
        <ele>313.6</ele>
        <time>2024-03-17T08:45:46Z</time>
      </trkpt>
      <trkpt lat="49.94168" lon="4.43496">
        <ele>313.6</ele>
        <time>2024-03-17T08:45:47Z</time>
      </trkpt>
      <trkpt lat="49.94161" lon="4.43501">
        <ele>313.4</ele>
        <time>2024-03-17T08:45:48Z</time>
      </trkpt>
      <trkpt lat="49.94155" lon="4.43504">
        <ele>313.2</ele>
        <time>2024-03-17T08:45:49Z</time>
      </trkpt>
      <trkpt lat="49.94147" lon="4.43503">
        <ele>313.4</ele>
        <time>2024-03-17T08:45:50Z</time>
      </trkpt>
      <trkpt lat="49.9414" lon="4.43499">
        <ele>313.2</ele>
        <time>2024-03-17T08:45:51Z</time>
      </trkpt>
      <trkpt lat="49.94133" lon="4.43494">
        <ele>313.4</ele>
        <time>2024-03-17T08:45:52Z</time>
      </trkpt>
      <trkpt lat="49.94127" lon="4.43487">
        <ele>313.2</ele>
        <time>2024-03-17T08:45:53Z</time>
      </trkpt>
      <trkpt lat="49.94121" lon="4.4348">
        <ele>313</ele>
        <time>2024-03-17T08:45:54Z</time>
      </trkpt>
      <trkpt lat="49.94115" lon="4.43472">
        <ele>313</ele>
        <time>2024-03-17T08:45:55Z</time>
      </trkpt>
      <trkpt lat="49.94109" lon="4.43465">
        <ele>312.8</ele>
        <time>2024-03-17T08:45:56Z</time>
      </trkpt>
      <trkpt lat="49.94103" lon="4.43457">
        <ele>313</ele>
        <time>2024-03-17T08:45:57Z</time>
      </trkpt>
      <trkpt lat="49.94097" lon="4.4345">
        <ele>313</ele>
        <time>2024-03-17T08:45:58Z</time>
      </trkpt>
      <trkpt lat="49.94091" lon="4.43443">
        <ele>313</ele>
        <time>2024-03-17T08:45:59Z</time>
      </trkpt>
      <trkpt lat="49.94085" lon="4.43436">
        <ele>313</ele>
        <time>2024-03-17T08:46:00Z</time>
      </trkpt>
      <trkpt lat="49.94079" lon="4.43428">
        <ele>313</ele>
        <time>2024-03-17T08:46:01Z</time>
      </trkpt>
      <trkpt lat="49.94073" lon="4.43422">
        <ele>313.2</ele>
        <time>2024-03-17T08:46:02Z</time>
      </trkpt>
      <trkpt lat="49.94067" lon="4.43414">
        <ele>313.4</ele>
        <time>2024-03-17T08:46:03Z</time>
      </trkpt>
      <trkpt lat="49.94061" lon="4.43407">
        <ele>313.4</ele>
        <time>2024-03-17T08:46:04Z</time>
      </trkpt>
      <trkpt lat="49.94056" lon="4.43401">
        <ele>313.4</ele>
        <time>2024-03-17T08:46:05Z</time>
      </trkpt>
      <trkpt lat="49.9405" lon="4.43395">
        <ele>313.6</ele>
        <time>2024-03-17T08:46:06Z</time>
      </trkpt>
      <trkpt lat="49.94045" lon="4.4339">
        <ele>313.8</ele>
        <time>2024-03-17T08:46:07Z</time>
      </trkpt>
      <trkpt lat="49.9404" lon="4.43385">
        <ele>313.8</ele>
        <time>2024-03-17T08:46:08Z</time>
      </trkpt>
      <trkpt lat="49.94034" lon="4.43379">
        <ele>314</ele>
        <time>2024-03-17T08:46:09Z</time>
      </trkpt>
      <trkpt lat="49.94029" lon="4.43374">
        <ele>314</ele>
        <time>2024-03-17T08:46:10Z</time>
      </trkpt>
      <trkpt lat="49.94024" lon="4.43369">
        <ele>314</ele>
        <time>2024-03-17T08:46:11Z</time>
      </trkpt>
      <trkpt lat="49.94019" lon="4.43364">
        <ele>314.4</ele>
        <time>2024-03-17T08:46:12Z</time>
      </trkpt>
      <trkpt lat="49.94014" lon="4.4336">
        <ele>314.8</ele>
        <time>2024-03-17T08:46:13Z</time>
      </trkpt>
      <trkpt lat="49.94009" lon="4.43355">
        <ele>315.4</ele>
        <time>2024-03-17T08:46:14Z</time>
      </trkpt>
      <trkpt lat="49.94005" lon="4.43351">
        <ele>316</ele>
        <time>2024-03-17T08:46:15Z</time>
      </trkpt>
      <trkpt lat="49.94" lon="4.43346">
        <ele>316</ele>
        <time>2024-03-17T08:46:16Z</time>
      </trkpt>
      <trkpt lat="49.93996" lon="4.43342">
        <ele>316.4</ele>
        <time>2024-03-17T08:46:17Z</time>
      </trkpt>
      <trkpt lat="49.93992" lon="4.43337">
        <ele>316.6</ele>
        <time>2024-03-17T08:46:18Z</time>
      </trkpt>
      <trkpt lat="49.93988" lon="4.43332">
        <ele>316.8</ele>
        <time>2024-03-17T08:46:19Z</time>
      </trkpt>
      <trkpt lat="49.93985" lon="4.43326">
        <ele>316.8</ele>
        <time>2024-03-17T08:46:20Z</time>
      </trkpt>
      <trkpt lat="49.93981" lon="4.4332">
        <ele>317</ele>
        <time>2024-03-17T08:46:21Z</time>
      </trkpt>
      <trkpt lat="49.93978" lon="4.43315">
        <ele>317.2</ele>
        <time>2024-03-17T08:46:22Z</time>
      </trkpt>
      <trkpt lat="49.93976" lon="4.43309">
        <ele>317.4</ele>
        <time>2024-03-17T08:46:23Z</time>
      </trkpt>
      <trkpt lat="49.93973" lon="4.43302">
        <ele>317.6</ele>
        <time>2024-03-17T08:46:24Z</time>
      </trkpt>
      <trkpt lat="49.93971" lon="4.43295">
        <ele>318</ele>
        <time>2024-03-17T08:46:25Z</time>
      </trkpt>
      <trkpt lat="49.93969" lon="4.43289">
        <ele>318.2</ele>
        <time>2024-03-17T08:46:26Z</time>
      </trkpt>
      <trkpt lat="49.93967" lon="4.43282">
        <ele>318.4</ele>
        <time>2024-03-17T08:46:27Z</time>
      </trkpt>
      <trkpt lat="49.93966" lon="4.43275">
        <ele>318.8</ele>
        <time>2024-03-17T08:46:28Z</time>
      </trkpt>
      <trkpt lat="49.93964" lon="4.43268">
        <ele>319</ele>
        <time>2024-03-17T08:46:29Z</time>
      </trkpt>
      <trkpt lat="49.93962" lon="4.43262">
        <ele>319.4</ele>
        <time>2024-03-17T08:46:30Z</time>
      </trkpt>
      <trkpt lat="49.93959" lon="4.43255">
        <ele>319.6</ele>
        <time>2024-03-17T08:46:31Z</time>
      </trkpt>
      <trkpt lat="49.93957" lon="4.43249">
        <ele>320</ele>
        <time>2024-03-17T08:46:32Z</time>
      </trkpt>
      <trkpt lat="49.93955" lon="4.43243">
        <ele>320</ele>
        <time>2024-03-17T08:46:33Z</time>
      </trkpt>
      <trkpt lat="49.93952" lon="4.43237">
        <ele>320.4</ele>
        <time>2024-03-17T08:46:34Z</time>
      </trkpt>
      <trkpt lat="49.9395" lon="4.43231">
        <ele>320.6</ele>
        <time>2024-03-17T08:46:35Z</time>
      </trkpt>
      <trkpt lat="49.93947" lon="4.43225">
        <ele>321.2</ele>
        <time>2024-03-17T08:46:36Z</time>
      </trkpt>
      <trkpt lat="49.93944" lon="4.4322">
        <ele>322.2</ele>
        <time>2024-03-17T08:46:37Z</time>
      </trkpt>
      <trkpt lat="49.93941" lon="4.43215">
        <ele>322.8</ele>
        <time>2024-03-17T08:46:38Z</time>
      </trkpt>
      <trkpt lat="49.93938" lon="4.43209">
        <ele>323</ele>
        <time>2024-03-17T08:46:39Z</time>
      </trkpt>
      <trkpt lat="49.93935" lon="4.43204">
        <ele>323.2</ele>
        <time>2024-03-17T08:46:40Z</time>
      </trkpt>
      <trkpt lat="49.93931" lon="4.43199">
        <ele>323.6</ele>
        <time>2024-03-17T08:46:41Z</time>
      </trkpt>
      <trkpt lat="49.93928" lon="4.43195">
        <ele>324</ele>
        <time>2024-03-17T08:46:42Z</time>
      </trkpt>
      <trkpt lat="49.93924" lon="4.4319">
        <ele>324.6</ele>
        <time>2024-03-17T08:46:43Z</time>
      </trkpt>
      <trkpt lat="49.93921" lon="4.43186">
        <ele>325</ele>
        <time>2024-03-17T08:46:44Z</time>
      </trkpt>
      <trkpt lat="49.93917" lon="4.43181">
        <ele>325.2</ele>
        <time>2024-03-17T08:46:45Z</time>
      </trkpt>
      <trkpt lat="49.93913" lon="4.43177">
        <ele>325.4</ele>
        <time>2024-03-17T08:46:46Z</time>
      </trkpt>
      <trkpt lat="49.93909" lon="4.43173">
        <ele>325.4</ele>
        <time>2024-03-17T08:46:47Z</time>
      </trkpt>
      <trkpt lat="49.93905" lon="4.43169">
        <ele>325.6</ele>
        <time>2024-03-17T08:46:48Z</time>
      </trkpt>
      <trkpt lat="49.93901" lon="4.43164">
        <ele>326</ele>
        <time>2024-03-17T08:46:49Z</time>
      </trkpt>
      <trkpt lat="49.93897" lon="4.4316">
        <ele>326</ele>
        <time>2024-03-17T08:46:50Z</time>
      </trkpt>
      <trkpt lat="49.93892" lon="4.43156">
        <ele>326.2</ele>
        <time>2024-03-17T08:46:51Z</time>
      </trkpt>
      <trkpt lat="49.93888" lon="4.43152">
        <ele>326.8</ele>
        <time>2024-03-17T08:46:52Z</time>
      </trkpt>
      <trkpt lat="49.93885" lon="4.43148">
        <ele>326.8</ele>
        <time>2024-03-17T08:46:53Z</time>
      </trkpt>
      <trkpt lat="49.9388" lon="4.43144">
        <ele>327</ele>
        <time>2024-03-17T08:46:54Z</time>
      </trkpt>
      <trkpt lat="49.93876" lon="4.4314">
        <ele>327.2</ele>
        <time>2024-03-17T08:46:55Z</time>
      </trkpt>
      <trkpt lat="49.93872" lon="4.43136">
        <ele>327.4</ele>
        <time>2024-03-17T08:46:56Z</time>
      </trkpt>
      <trkpt lat="49.93868" lon="4.43132">
        <ele>327.6</ele>
        <time>2024-03-17T08:46:57Z</time>
      </trkpt>
      <trkpt lat="49.93865" lon="4.43128">
        <ele>327.8</ele>
        <time>2024-03-17T08:46:58Z</time>
      </trkpt>
      <trkpt lat="49.93861" lon="4.43124">
        <ele>328</ele>
        <time>2024-03-17T08:46:59Z</time>
      </trkpt>
      <trkpt lat="49.93857" lon="4.4312">
        <ele>328</ele>
        <time>2024-03-17T08:47:00Z</time>
      </trkpt>
      <trkpt lat="49.93853" lon="4.43116">
        <ele>328</ele>
        <time>2024-03-17T08:47:01Z</time>
      </trkpt>
      <trkpt lat="49.9385" lon="4.43112">
        <ele>328.2</ele>
        <time>2024-03-17T08:47:02Z</time>
      </trkpt>
      <trkpt lat="49.93846" lon="4.43108">
        <ele>328.4</ele>
        <time>2024-03-17T08:47:03Z</time>
      </trkpt>
      <trkpt lat="49.93842" lon="4.43104">
        <ele>328.6</ele>
        <time>2024-03-17T08:47:04Z</time>
      </trkpt>
      <trkpt lat="49.93838" lon="4.431">
        <ele>328.6</ele>
        <time>2024-03-17T08:47:05Z</time>
      </trkpt>
      <trkpt lat="49.93834" lon="4.43097">
        <ele>328.6</ele>
        <time>2024-03-17T08:47:06Z</time>
      </trkpt>
      <trkpt lat="49.9383" lon="4.43093">
        <ele>328.6</ele>
        <time>2024-03-17T08:47:07Z</time>
      </trkpt>
      <trkpt lat="49.93827" lon="4.43089">
        <ele>328.8</ele>
        <time>2024-03-17T08:47:08Z</time>
      </trkpt>
      <trkpt lat="49.93823" lon="4.43086">
        <ele>328.8</ele>
        <time>2024-03-17T08:47:09Z</time>
      </trkpt>
      <trkpt lat="49.9382" lon="4.43082">
        <ele>329</ele>
        <time>2024-03-17T08:47:10Z</time>
      </trkpt>
      <trkpt lat="49.93816" lon="4.43078">
        <ele>329</ele>
        <time>2024-03-17T08:47:11Z</time>
      </trkpt>
      <trkpt lat="49.93812" lon="4.43075">
        <ele>329</ele>
        <time>2024-03-17T08:47:12Z</time>
      </trkpt>
      <trkpt lat="49.93809" lon="4.43071">
        <ele>329.2</ele>
        <time>2024-03-17T08:47:13Z</time>
      </trkpt>
      <trkpt lat="49.93806" lon="4.43067">
        <ele>329.6</ele>
        <time>2024-03-17T08:47:14Z</time>
      </trkpt>
      <trkpt lat="49.93802" lon="4.43064">
        <ele>329.8</ele>
        <time>2024-03-17T08:47:15Z</time>
      </trkpt>
      <trkpt lat="49.93798" lon="4.4306">
        <ele>329.8</ele>
        <time>2024-03-17T08:47:16Z</time>
      </trkpt>
      <trkpt lat="49.93795" lon="4.43057">
        <ele>330.4</ele>
        <time>2024-03-17T08:47:17Z</time>
      </trkpt>
      <trkpt lat="49.93791" lon="4.43053">
        <ele>330.8</ele>
        <time>2024-03-17T08:47:18Z</time>
      </trkpt>
      <trkpt lat="49.93787" lon="4.43049">
        <ele>331</ele>
        <time>2024-03-17T08:47:19Z</time>
      </trkpt>
      <trkpt lat="49.93784" lon="4.43046">
        <ele>331.2</ele>
        <time>2024-03-17T08:47:20Z</time>
      </trkpt>
      <trkpt lat="49.9378" lon="4.43042">
        <ele>331.2</ele>
        <time>2024-03-17T08:47:21Z</time>
      </trkpt>
      <trkpt lat="49.93776" lon="4.43038">
        <ele>331.4</ele>
        <time>2024-03-17T08:47:22Z</time>
      </trkpt>
      <trkpt lat="49.93773" lon="4.43034">
        <ele>331.8</ele>
        <time>2024-03-17T08:47:23Z</time>
      </trkpt>
      <trkpt lat="49.93769" lon="4.43031">
        <ele>332</ele>
        <time>2024-03-17T08:47:24Z</time>
      </trkpt>
      <trkpt lat="49.93765" lon="4.43027">
        <ele>332.4</ele>
        <time>2024-03-17T08:47:25Z</time>
      </trkpt>
      <trkpt lat="49.93761" lon="4.43023">
        <ele>332.6</ele>
        <time>2024-03-17T08:47:26Z</time>
      </trkpt>
      <trkpt lat="49.93758" lon="4.43019">
        <ele>332.6</ele>
        <time>2024-03-17T08:47:27Z</time>
      </trkpt>
      <trkpt lat="49.93754" lon="4.43015">
        <ele>332.8</ele>
        <time>2024-03-17T08:47:28Z</time>
      </trkpt>
      <trkpt lat="49.9375" lon="4.43011">
        <ele>333.2</ele>
        <time>2024-03-17T08:47:29Z</time>
      </trkpt>
      <trkpt lat="49.93746" lon="4.43007">
        <ele>333.2</ele>
        <time>2024-03-17T08:47:30Z</time>
      </trkpt>
      <trkpt lat="49.93742" lon="4.43003">
        <ele>333.2</ele>
        <time>2024-03-17T08:47:31Z</time>
      </trkpt>
      <trkpt lat="49.93738" lon="4.42999">
        <ele>333.4</ele>
        <time>2024-03-17T08:47:32Z</time>
      </trkpt>
      <trkpt lat="49.93734" lon="4.42995">
        <ele>333.6</ele>
        <time>2024-03-17T08:47:33Z</time>
      </trkpt>
      <trkpt lat="49.9373" lon="4.42991">
        <ele>333.6</ele>
        <time>2024-03-17T08:47:34Z</time>
      </trkpt>
      <trkpt lat="49.93726" lon="4.42987">
        <ele>334</ele>
        <time>2024-03-17T08:47:35Z</time>
      </trkpt>
      <trkpt lat="49.93722" lon="4.42983">
        <ele>334.2</ele>
        <time>2024-03-17T08:47:36Z</time>
      </trkpt>
      <trkpt lat="49.93718" lon="4.42979">
        <ele>334.4</ele>
        <time>2024-03-17T08:47:37Z</time>
      </trkpt>
      <trkpt lat="49.93714" lon="4.42975">
        <ele>334.6</ele>
        <time>2024-03-17T08:47:38Z</time>
      </trkpt>
      <trkpt lat="49.9371" lon="4.42972">
        <ele>334.6</ele>
        <time>2024-03-17T08:47:39Z</time>
      </trkpt>
      <trkpt lat="49.93705" lon="4.42969">
        <ele>334.6</ele>
        <time>2024-03-17T08:47:40Z</time>
      </trkpt>
      <trkpt lat="49.937" lon="4.42966">
        <ele>335</ele>
        <time>2024-03-17T08:47:41Z</time>
      </trkpt>
      <trkpt lat="49.93696" lon="4.42963">
        <ele>335.2</ele>
        <time>2024-03-17T08:47:42Z</time>
      </trkpt>
      <trkpt lat="49.93691" lon="4.4296">
        <ele>335.4</ele>
        <time>2024-03-17T08:47:43Z</time>
      </trkpt>
      <trkpt lat="49.93686" lon="4.42958">
        <ele>335.4</ele>
        <time>2024-03-17T08:47:44Z</time>
      </trkpt>
      <trkpt lat="49.93681" lon="4.42955">
        <ele>335.6</ele>
        <time>2024-03-17T08:47:45Z</time>
      </trkpt>
      <trkpt lat="49.93676" lon="4.42953">
        <ele>335.6</ele>
        <time>2024-03-17T08:47:46Z</time>
      </trkpt>
      <trkpt lat="49.93671" lon="4.42951">
        <ele>335.8</ele>
        <time>2024-03-17T08:47:47Z</time>
      </trkpt>
      <trkpt lat="49.93666" lon="4.42949">
        <ele>335.8</ele>
        <time>2024-03-17T08:47:48Z</time>
      </trkpt>
      <trkpt lat="49.93661" lon="4.42948">
        <ele>335.8</ele>
        <time>2024-03-17T08:47:49Z</time>
      </trkpt>
      <trkpt lat="49.93656" lon="4.42946">
        <ele>336</ele>
        <time>2024-03-17T08:47:50Z</time>
      </trkpt>
      <trkpt lat="49.93651" lon="4.42944">
        <ele>336</ele>
        <time>2024-03-17T08:47:51Z</time>
      </trkpt>
      <trkpt lat="49.93646" lon="4.42943">
        <ele>336</ele>
        <time>2024-03-17T08:47:52Z</time>
      </trkpt>
      <trkpt lat="49.9364" lon="4.42941">
        <ele>336.2</ele>
        <time>2024-03-17T08:47:53Z</time>
      </trkpt>
      <trkpt lat="49.93634" lon="4.42939">
        <ele>336.4</ele>
        <time>2024-03-17T08:47:54Z</time>
      </trkpt>
      <trkpt lat="49.93629" lon="4.42937">
        <ele>336.4</ele>
        <time>2024-03-17T08:47:55Z</time>
      </trkpt>
      <trkpt lat="49.93623" lon="4.42935">
        <ele>336.6</ele>
        <time>2024-03-17T08:47:56Z</time>
      </trkpt>
      <trkpt lat="49.93617" lon="4.42933">
        <ele>336.6</ele>
        <time>2024-03-17T08:47:57Z</time>
      </trkpt>
      <trkpt lat="49.9361" lon="4.42931">
        <ele>336.6</ele>
        <time>2024-03-17T08:47:58Z</time>
      </trkpt>
      <trkpt lat="49.93604" lon="4.42929">
        <ele>336.6</ele>
        <time>2024-03-17T08:47:59Z</time>
      </trkpt>
      <trkpt lat="49.93597" lon="4.42926">
        <ele>336.6</ele>
        <time>2024-03-17T08:48:00Z</time>
      </trkpt>
      <trkpt lat="49.93591" lon="4.42924">
        <ele>336.6</ele>
        <time>2024-03-17T08:48:01Z</time>
      </trkpt>
      <trkpt lat="49.93584" lon="4.42922">
        <ele>336.6</ele>
        <time>2024-03-17T08:48:02Z</time>
      </trkpt>
      <trkpt lat="49.93578" lon="4.4292">
        <ele>336.8</ele>
        <time>2024-03-17T08:48:03Z</time>
      </trkpt>
      <trkpt lat="49.93572" lon="4.42918">
        <ele>336.8</ele>
        <time>2024-03-17T08:48:04Z</time>
      </trkpt>
      <trkpt lat="49.93566" lon="4.42916">
        <ele>336.8</ele>
        <time>2024-03-17T08:48:05Z</time>
      </trkpt>
      <trkpt lat="49.93559" lon="4.42914">
        <ele>336.6</ele>
        <time>2024-03-17T08:48:06Z</time>
      </trkpt>
      <trkpt lat="49.93553" lon="4.42912">
        <ele>336.8</ele>
        <time>2024-03-17T08:48:07Z</time>
      </trkpt>
      <trkpt lat="49.93546" lon="4.4291">
        <ele>336.8</ele>
        <time>2024-03-17T08:48:08Z</time>
      </trkpt>
      <trkpt lat="49.9354" lon="4.42908">
        <ele>336.8</ele>
        <time>2024-03-17T08:48:09Z</time>
      </trkpt>
      <trkpt lat="49.93533" lon="4.42906">
        <ele>336.8</ele>
        <time>2024-03-17T08:48:10Z</time>
      </trkpt>
      <trkpt lat="49.93526" lon="4.42904">
        <ele>336.8</ele>
        <time>2024-03-17T08:48:11Z</time>
      </trkpt>
      <trkpt lat="49.93519" lon="4.42902">
        <ele>336.8</ele>
        <time>2024-03-17T08:48:12Z</time>
      </trkpt>
      <trkpt lat="49.93512" lon="4.429">
        <ele>336.8</ele>
        <time>2024-03-17T08:48:13Z</time>
      </trkpt>
      <trkpt lat="49.93505" lon="4.42898">
        <ele>336.8</ele>
        <time>2024-03-17T08:48:14Z</time>
      </trkpt>
      <trkpt lat="49.93498" lon="4.42897">
        <ele>336.8</ele>
        <time>2024-03-17T08:48:15Z</time>
      </trkpt>
      <trkpt lat="49.93491" lon="4.42897">
        <ele>336.8</ele>
        <time>2024-03-17T08:48:16Z</time>
      </trkpt>
      <trkpt lat="49.93484" lon="4.42897">
        <ele>336.8</ele>
        <time>2024-03-17T08:48:17Z</time>
      </trkpt>
      <trkpt lat="49.93477" lon="4.42898">
        <ele>336.8</ele>
        <time>2024-03-17T08:48:18Z</time>
      </trkpt>
      <trkpt lat="49.9347" lon="4.429">
        <ele>336.8</ele>
        <time>2024-03-17T08:48:19Z</time>
      </trkpt>
      <trkpt lat="49.93463" lon="4.42904">
        <ele>336.8</ele>
        <time>2024-03-17T08:48:20Z</time>
      </trkpt>
      <trkpt lat="49.93456" lon="4.42907">
        <ele>336.8</ele>
        <time>2024-03-17T08:48:21Z</time>
      </trkpt>
      <trkpt lat="49.93449" lon="4.42912">
        <ele>336.8</ele>
        <time>2024-03-17T08:48:22Z</time>
      </trkpt>
      <trkpt lat="49.93442" lon="4.42916">
        <ele>336.8</ele>
        <time>2024-03-17T08:48:23Z</time>
      </trkpt>
      <trkpt lat="49.93436" lon="4.42922">
        <ele>336.8</ele>
        <time>2024-03-17T08:48:24Z</time>
      </trkpt>
      <trkpt lat="49.93429" lon="4.42928">
        <ele>336.6</ele>
        <time>2024-03-17T08:48:25Z</time>
      </trkpt>
      <trkpt lat="49.93423" lon="4.42935">
        <ele>336.4</ele>
        <time>2024-03-17T08:48:26Z</time>
      </trkpt>
      <trkpt lat="49.93418" lon="4.42943">
        <ele>336.4</ele>
        <time>2024-03-17T08:48:27Z</time>
      </trkpt>
      <trkpt lat="49.93412" lon="4.4295">
        <ele>336.4</ele>
        <time>2024-03-17T08:48:28Z</time>
      </trkpt>
      <trkpt lat="49.93407" lon="4.42958">
        <ele>336.4</ele>
        <time>2024-03-17T08:48:29Z</time>
      </trkpt>
      <trkpt lat="49.93402" lon="4.42966">
        <ele>336.4</ele>
        <time>2024-03-17T08:48:30Z</time>
      </trkpt>
      <trkpt lat="49.93397" lon="4.42975">
        <ele>336.6</ele>
        <time>2024-03-17T08:48:31Z</time>
      </trkpt>
      <trkpt lat="49.93393" lon="4.42984">
        <ele>336.6</ele>
        <time>2024-03-17T08:48:32Z</time>
      </trkpt>
      <trkpt lat="49.93389" lon="4.42993">
        <ele>336.6</ele>
        <time>2024-03-17T08:48:33Z</time>
      </trkpt>
      <trkpt lat="49.93385" lon="4.43002">
        <ele>336.6</ele>
        <time>2024-03-17T08:48:34Z</time>
      </trkpt>
      <trkpt lat="49.9338" lon="4.4301">
        <ele>336.6</ele>
        <time>2024-03-17T08:48:35Z</time>
      </trkpt>
      <trkpt lat="49.93376" lon="4.43018">
        <ele>336.6</ele>
        <time>2024-03-17T08:48:36Z</time>
      </trkpt>
      <trkpt lat="49.9337" lon="4.43026">
        <ele>336.8</ele>
        <time>2024-03-17T08:48:37Z</time>
      </trkpt>
      <trkpt lat="49.93365" lon="4.43032">
        <ele>336.8</ele>
        <time>2024-03-17T08:48:38Z</time>
      </trkpt>
      <trkpt lat="49.93359" lon="4.43038">
        <ele>336.8</ele>
        <time>2024-03-17T08:48:39Z</time>
      </trkpt>
      <trkpt lat="49.93353" lon="4.43042">
        <ele>337</ele>
        <time>2024-03-17T08:48:40Z</time>
      </trkpt>
      <trkpt lat="49.93346" lon="4.43046">
        <ele>337</ele>
        <time>2024-03-17T08:48:41Z</time>
      </trkpt>
      <trkpt lat="49.9334" lon="4.4305">
        <ele>337.2</ele>
        <time>2024-03-17T08:48:42Z</time>
      </trkpt>
      <trkpt lat="49.93334" lon="4.43054">
        <ele>337.2</ele>
        <time>2024-03-17T08:48:43Z</time>
      </trkpt>
      <trkpt lat="49.93328" lon="4.43057">
        <ele>337.2</ele>
        <time>2024-03-17T08:48:44Z</time>
      </trkpt>
      <trkpt lat="49.93322" lon="4.43061">
        <ele>337.2</ele>
        <time>2024-03-17T08:48:45Z</time>
      </trkpt>
      <trkpt lat="49.93315" lon="4.43064">
        <ele>337.4</ele>
        <time>2024-03-17T08:48:46Z</time>
      </trkpt>
      <trkpt lat="49.9331" lon="4.43068">
        <ele>337.4</ele>
        <time>2024-03-17T08:48:47Z</time>
      </trkpt>
      <trkpt lat="49.93304" lon="4.43072">
        <ele>337.6</ele>
        <time>2024-03-17T08:48:48Z</time>
      </trkpt>
      <trkpt lat="49.93299" lon="4.43077">
        <ele>337.8</ele>
        <time>2024-03-17T08:48:49Z</time>
      </trkpt>
      <trkpt lat="49.93293" lon="4.43082">
        <ele>338</ele>
        <time>2024-03-17T08:48:50Z</time>
      </trkpt>
      <trkpt lat="49.93288" lon="4.43087">
        <ele>338.2</ele>
        <time>2024-03-17T08:48:51Z</time>
      </trkpt>
      <trkpt lat="49.93284" lon="4.43093">
        <ele>338.4</ele>
        <time>2024-03-17T08:48:52Z</time>
      </trkpt>
      <trkpt lat="49.93279" lon="4.43098">
        <ele>338.6</ele>
        <time>2024-03-17T08:48:53Z</time>
      </trkpt>
      <trkpt lat="49.93275" lon="4.43104">
        <ele>338.6</ele>
        <time>2024-03-17T08:48:54Z</time>
      </trkpt>
      <trkpt lat="49.9327" lon="4.4311">
        <ele>338.8</ele>
        <time>2024-03-17T08:48:55Z</time>
      </trkpt>
      <trkpt lat="49.93266" lon="4.43116">
        <ele>339.2</ele>
        <time>2024-03-17T08:48:56Z</time>
      </trkpt>
      <trkpt lat="49.93263" lon="4.43123">
        <ele>339.2</ele>
        <time>2024-03-17T08:48:57Z</time>
      </trkpt>
      <trkpt lat="49.93259" lon="4.4313">
        <ele>339.2</ele>
        <time>2024-03-17T08:48:58Z</time>
      </trkpt>
      <trkpt lat="49.93256" lon="4.43136">
        <ele>339.4</ele>
        <time>2024-03-17T08:48:59Z</time>
      </trkpt>
      <trkpt lat="49.93253" lon="4.43143">
        <ele>339.4</ele>
        <time>2024-03-17T08:49:00Z</time>
      </trkpt>
      <trkpt lat="49.9325" lon="4.4315">
        <ele>339.4</ele>
        <time>2024-03-17T08:49:01Z</time>
      </trkpt>
      <trkpt lat="49.93248" lon="4.43158">
        <ele>339.6</ele>
        <time>2024-03-17T08:49:02Z</time>
      </trkpt>
      <trkpt lat="49.93245" lon="4.43165">
        <ele>339.8</ele>
        <time>2024-03-17T08:49:03Z</time>
      </trkpt>
      <trkpt lat="49.93243" lon="4.43173">
        <ele>340.2</ele>
        <time>2024-03-17T08:49:04Z</time>
      </trkpt>
      <trkpt lat="49.93241" lon="4.43181">
        <ele>340.2</ele>
        <time>2024-03-17T08:49:05Z</time>
      </trkpt>
      <trkpt lat="49.93239" lon="4.43189">
        <ele>340.4</ele>
        <time>2024-03-17T08:49:06Z</time>
      </trkpt>
      <trkpt lat="49.93237" lon="4.43198">
        <ele>340.6</ele>
        <time>2024-03-17T08:49:07Z</time>
      </trkpt>
      <trkpt lat="49.93235" lon="4.43206">
        <ele>340.6</ele>
        <time>2024-03-17T08:49:08Z</time>
      </trkpt>
      <trkpt lat="49.93233" lon="4.43215">
        <ele>340.6</ele>
        <time>2024-03-17T08:49:09Z</time>
      </trkpt>
      <trkpt lat="49.93231" lon="4.43223">
        <ele>340.6</ele>
        <time>2024-03-17T08:49:10Z</time>
      </trkpt>
      <trkpt lat="49.93229" lon="4.43232">
        <ele>340.8</ele>
        <time>2024-03-17T08:49:11Z</time>
      </trkpt>
      <trkpt lat="49.93227" lon="4.43241">
        <ele>340.8</ele>
        <time>2024-03-17T08:49:12Z</time>
      </trkpt>
      <trkpt lat="49.93226" lon="4.4325">
        <ele>340.8</ele>
        <time>2024-03-17T08:49:13Z</time>
      </trkpt>
      <trkpt lat="49.93224" lon="4.43259">
        <ele>340.8</ele>
        <time>2024-03-17T08:49:14Z</time>
      </trkpt>
      <trkpt lat="49.93223" lon="4.43267">
        <ele>341</ele>
        <time>2024-03-17T08:49:15Z</time>
      </trkpt>
      <trkpt lat="49.93221" lon="4.43276">
        <ele>341.2</ele>
        <time>2024-03-17T08:49:16Z</time>
      </trkpt>
      <trkpt lat="49.93219" lon="4.43285">
        <ele>341.2</ele>
        <time>2024-03-17T08:49:17Z</time>
      </trkpt>
      <trkpt lat="49.93218" lon="4.43295">
        <ele>341.2</ele>
        <time>2024-03-17T08:49:18Z</time>
      </trkpt>
      <trkpt lat="49.93216" lon="4.43304">
        <ele>341.4</ele>
        <time>2024-03-17T08:49:19Z</time>
      </trkpt>
      <trkpt lat="49.93215" lon="4.43313">
        <ele>341.4</ele>
        <time>2024-03-17T08:49:20Z</time>
      </trkpt>
      <trkpt lat="49.93213" lon="4.43322">
        <ele>341.4</ele>
        <time>2024-03-17T08:49:21Z</time>
      </trkpt>
      <trkpt lat="49.93211" lon="4.43331">
        <ele>341.4</ele>
        <time>2024-03-17T08:49:22Z</time>
      </trkpt>
      <trkpt lat="49.9321" lon="4.4334">
        <ele>341.2</ele>
        <time>2024-03-17T08:49:23Z</time>
      </trkpt>
      <trkpt lat="49.93208" lon="4.43349">
        <ele>341.4</ele>
        <time>2024-03-17T08:49:24Z</time>
      </trkpt>
      <trkpt lat="49.93206" lon="4.43358">
        <ele>341.2</ele>
        <time>2024-03-17T08:49:25Z</time>
      </trkpt>
      <trkpt lat="49.93205" lon="4.43368">
        <ele>341.4</ele>
        <time>2024-03-17T08:49:26Z</time>
      </trkpt>
      <trkpt lat="49.93203" lon="4.43377">
        <ele>341.4</ele>
        <time>2024-03-17T08:49:27Z</time>
      </trkpt>
      <trkpt lat="49.93201" lon="4.43386">
        <ele>341.4</ele>
        <time>2024-03-17T08:49:28Z</time>
      </trkpt>
      <trkpt lat="49.932" lon="4.43396">
        <ele>341.4</ele>
        <time>2024-03-17T08:49:29Z</time>
      </trkpt>
      <trkpt lat="49.93198" lon="4.43405">
        <ele>341.4</ele>
        <time>2024-03-17T08:49:30Z</time>
      </trkpt>
      <trkpt lat="49.93196" lon="4.43414">
        <ele>341.4</ele>
        <time>2024-03-17T08:49:31Z</time>
      </trkpt>
      <trkpt lat="49.93195" lon="4.43424">
        <ele>341.4</ele>
        <time>2024-03-17T08:49:32Z</time>
      </trkpt>
      <trkpt lat="49.93193" lon="4.43434">
        <ele>341.4</ele>
        <time>2024-03-17T08:49:33Z</time>
      </trkpt>
      <trkpt lat="49.93191" lon="4.43443">
        <ele>341.6</ele>
        <time>2024-03-17T08:49:34Z</time>
      </trkpt>
      <trkpt lat="49.93189" lon="4.43453">
        <ele>341.6</ele>
        <time>2024-03-17T08:49:35Z</time>
      </trkpt>
      <trkpt lat="49.93187" lon="4.43463">
        <ele>341.6</ele>
        <time>2024-03-17T08:49:36Z</time>
      </trkpt>
      <trkpt lat="49.93185" lon="4.43473">
        <ele>341.6</ele>
        <time>2024-03-17T08:49:37Z</time>
      </trkpt>
      <trkpt lat="49.93183" lon="4.43483">
        <ele>341.4</ele>
        <time>2024-03-17T08:49:38Z</time>
      </trkpt>
      <trkpt lat="49.93181" lon="4.43493">
        <ele>341.6</ele>
        <time>2024-03-17T08:49:39Z</time>
      </trkpt>
      <trkpt lat="49.9318" lon="4.43503">
        <ele>341.4</ele>
        <time>2024-03-17T08:49:40Z</time>
      </trkpt>
      <trkpt lat="49.93178" lon="4.43514">
        <ele>341.6</ele>
        <time>2024-03-17T08:49:41Z</time>
      </trkpt>
      <trkpt lat="49.93176" lon="4.43524">
        <ele>341.6</ele>
        <time>2024-03-17T08:49:42Z</time>
      </trkpt>
      <trkpt lat="49.93174" lon="4.43535">
        <ele>341.6</ele>
        <time>2024-03-17T08:49:43Z</time>
      </trkpt>
      <trkpt lat="49.93172" lon="4.43545">
        <ele>341.6</ele>
        <time>2024-03-17T08:49:44Z</time>
      </trkpt>
      <trkpt lat="49.9317" lon="4.43556">
        <ele>341.4</ele>
        <time>2024-03-17T08:49:45Z</time>
      </trkpt>
      <trkpt lat="49.93168" lon="4.43566">
        <ele>341.6</ele>
        <time>2024-03-17T08:49:46Z</time>
      </trkpt>
      <trkpt lat="49.93166" lon="4.43576">
        <ele>341.4</ele>
        <time>2024-03-17T08:49:47Z</time>
      </trkpt>
      <trkpt lat="49.93164" lon="4.43587">
        <ele>341.4</ele>
        <time>2024-03-17T08:49:48Z</time>
      </trkpt>
      <trkpt lat="49.93162" lon="4.43598">
        <ele>341.4</ele>
        <time>2024-03-17T08:49:49Z</time>
      </trkpt>
      <trkpt lat="49.93161" lon="4.43608">
        <ele>341.2</ele>
        <time>2024-03-17T08:49:50Z</time>
      </trkpt>
      <trkpt lat="49.93159" lon="4.43619">
        <ele>341.2</ele>
        <time>2024-03-17T08:49:51Z</time>
      </trkpt>
      <trkpt lat="49.93157" lon="4.4363">
        <ele>341.2</ele>
        <time>2024-03-17T08:49:52Z</time>
      </trkpt>
      <trkpt lat="49.93155" lon="4.4364">
        <ele>341.2</ele>
        <time>2024-03-17T08:49:53Z</time>
      </trkpt>
      <trkpt lat="49.93153" lon="4.43651">
        <ele>341.2</ele>
        <time>2024-03-17T08:49:54Z</time>
      </trkpt>
      <trkpt lat="49.93151" lon="4.43662">
        <ele>341.2</ele>
        <time>2024-03-17T08:49:55Z</time>
      </trkpt>
      <trkpt lat="49.93149" lon="4.43673">
        <ele>341.2</ele>
        <time>2024-03-17T08:49:56Z</time>
      </trkpt>
      <trkpt lat="49.93147" lon="4.43684">
        <ele>341.2</ele>
        <time>2024-03-17T08:49:57Z</time>
      </trkpt>
      <trkpt lat="49.93145" lon="4.43695">
        <ele>341.2</ele>
        <time>2024-03-17T08:49:58Z</time>
      </trkpt>
      <trkpt lat="49.93143" lon="4.43706">
        <ele>341.2</ele>
        <time>2024-03-17T08:49:59Z</time>
      </trkpt>
      <trkpt lat="49.93141" lon="4.43717">
        <ele>341</ele>
        <time>2024-03-17T08:50:00Z</time>
      </trkpt>
      <trkpt lat="49.93139" lon="4.43728">
        <ele>341</ele>
        <time>2024-03-17T08:50:01Z</time>
      </trkpt>
      <trkpt lat="49.93137" lon="4.4374">
        <ele>341</ele>
        <time>2024-03-17T08:50:02Z</time>
      </trkpt>
      <trkpt lat="49.93135" lon="4.43751">
        <ele>341</ele>
        <time>2024-03-17T08:50:03Z</time>
      </trkpt>
      <trkpt lat="49.93133" lon="4.43762">
        <ele>341</ele>
        <time>2024-03-17T08:50:04Z</time>
      </trkpt>
      <trkpt lat="49.93131" lon="4.43773">
        <ele>340.8</ele>
        <time>2024-03-17T08:50:05Z</time>
      </trkpt>
      <trkpt lat="49.93129" lon="4.43785">
        <ele>340.8</ele>
        <time>2024-03-17T08:50:06Z</time>
      </trkpt>
      <trkpt lat="49.93127" lon="4.43796">
        <ele>340.8</ele>
        <time>2024-03-17T08:50:07Z</time>
      </trkpt>
      <trkpt lat="49.93125" lon="4.43807">
        <ele>340.6</ele>
        <time>2024-03-17T08:50:08Z</time>
      </trkpt>
      <trkpt lat="49.93123" lon="4.43819">
        <ele>340.6</ele>
        <time>2024-03-17T08:50:09Z</time>
      </trkpt>
      <trkpt lat="49.93121" lon="4.4383">
        <ele>340.6</ele>
        <time>2024-03-17T08:50:10Z</time>
      </trkpt>
      <trkpt lat="49.93118" lon="4.43842">
        <ele>340.8</ele>
        <time>2024-03-17T08:50:11Z</time>
      </trkpt>
      <trkpt lat="49.93116" lon="4.43853">
        <ele>340.6</ele>
        <time>2024-03-17T08:50:12Z</time>
      </trkpt>
      <trkpt lat="49.93114" lon="4.43864">
        <ele>340.6</ele>
        <time>2024-03-17T08:50:13Z</time>
      </trkpt>
      <trkpt lat="49.93112" lon="4.43876">
        <ele>340.6</ele>
        <time>2024-03-17T08:50:14Z</time>
      </trkpt>
      <trkpt lat="49.9311" lon="4.43887">
        <ele>340.6</ele>
        <time>2024-03-17T08:50:15Z</time>
      </trkpt>
      <trkpt lat="49.93108" lon="4.43898">
        <ele>340.6</ele>
        <time>2024-03-17T08:50:16Z</time>
      </trkpt>
      <trkpt lat="49.93106" lon="4.43909">
        <ele>340.4</ele>
        <time>2024-03-17T08:50:17Z</time>
      </trkpt>
      <trkpt lat="49.93104" lon="4.4392">
        <ele>340.4</ele>
        <time>2024-03-17T08:50:18Z</time>
      </trkpt>
      <trkpt lat="49.93102" lon="4.43931">
        <ele>340.4</ele>
        <time>2024-03-17T08:50:19Z</time>
      </trkpt>
      <trkpt lat="49.931" lon="4.43942">
        <ele>340.4</ele>
        <time>2024-03-17T08:50:20Z</time>
      </trkpt>
      <trkpt lat="49.93098" lon="4.43953">
        <ele>340.2</ele>
        <time>2024-03-17T08:50:21Z</time>
      </trkpt>
      <trkpt lat="49.93096" lon="4.43964">
        <ele>340.2</ele>
        <time>2024-03-17T08:50:22Z</time>
      </trkpt>
      <trkpt lat="49.93094" lon="4.43975">
        <ele>340.4</ele>
        <time>2024-03-17T08:50:23Z</time>
      </trkpt>
      <trkpt lat="49.93092" lon="4.43986">
        <ele>340.2</ele>
        <time>2024-03-17T08:50:24Z</time>
      </trkpt>
      <trkpt lat="49.9309" lon="4.43996">
        <ele>340.2</ele>
        <time>2024-03-17T08:50:25Z</time>
      </trkpt>
      <trkpt lat="49.93089" lon="4.44006">
        <ele>340.4</ele>
        <time>2024-03-17T08:50:26Z</time>
      </trkpt>
      <trkpt lat="49.93087" lon="4.44017">
        <ele>340.4</ele>
        <time>2024-03-17T08:50:27Z</time>
      </trkpt>
      <trkpt lat="49.93085" lon="4.44027">
        <ele>340.4</ele>
        <time>2024-03-17T08:50:28Z</time>
      </trkpt>
      <trkpt lat="49.93083" lon="4.44036">
        <ele>340.4</ele>
        <time>2024-03-17T08:50:29Z</time>
      </trkpt>
      <trkpt lat="49.93081" lon="4.44046">
        <ele>340.4</ele>
        <time>2024-03-17T08:50:30Z</time>
      </trkpt>
      <trkpt lat="49.93079" lon="4.44056">
        <ele>340.6</ele>
        <time>2024-03-17T08:50:31Z</time>
      </trkpt>
      <trkpt lat="49.93077" lon="4.44066">
        <ele>340.8</ele>
        <time>2024-03-17T08:50:32Z</time>
      </trkpt>
      <trkpt lat="49.93076" lon="4.44076">
        <ele>340.8</ele>
        <time>2024-03-17T08:50:33Z</time>
      </trkpt>
      <trkpt lat="49.93074" lon="4.44085">
        <ele>341.2</ele>
        <time>2024-03-17T08:50:34Z</time>
      </trkpt>
      <trkpt lat="49.93072" lon="4.44095">
        <ele>341.4</ele>
        <time>2024-03-17T08:50:35Z</time>
      </trkpt>
      <trkpt lat="49.9307" lon="4.44105">
        <ele>341.6</ele>
        <time>2024-03-17T08:50:36Z</time>
      </trkpt>
      <trkpt lat="49.93069" lon="4.44115">
        <ele>341.6</ele>
        <time>2024-03-17T08:50:37Z</time>
      </trkpt>
      <trkpt lat="49.93067" lon="4.44125">
        <ele>341.6</ele>
        <time>2024-03-17T08:50:38Z</time>
      </trkpt>
      <trkpt lat="49.93065" lon="4.44134">
        <ele>341.6</ele>
        <time>2024-03-17T08:50:39Z</time>
      </trkpt>
      <trkpt lat="49.93063" lon="4.44144">
        <ele>342</ele>
        <time>2024-03-17T08:50:40Z</time>
      </trkpt>
      <trkpt lat="49.93062" lon="4.44153">
        <ele>342.2</ele>
        <time>2024-03-17T08:50:41Z</time>
      </trkpt>
      <trkpt lat="49.9306" lon="4.44162">
        <ele>342.4</ele>
        <time>2024-03-17T08:50:42Z</time>
      </trkpt>
      <trkpt lat="49.93058" lon="4.44172">
        <ele>342.4</ele>
        <time>2024-03-17T08:50:43Z</time>
      </trkpt>
      <trkpt lat="49.93057" lon="4.44181">
        <ele>342.6</ele>
        <time>2024-03-17T08:50:44Z</time>
      </trkpt>
      <trkpt lat="49.93055" lon="4.44191">
        <ele>342.6</ele>
        <time>2024-03-17T08:50:45Z</time>
      </trkpt>
      <trkpt lat="49.93053" lon="4.442">
        <ele>342.8</ele>
        <time>2024-03-17T08:50:46Z</time>
      </trkpt>
      <trkpt lat="49.93052" lon="4.44209">
        <ele>342.8</ele>
        <time>2024-03-17T08:50:47Z</time>
      </trkpt>
      <trkpt lat="49.9305" lon="4.44219">
        <ele>342.8</ele>
        <time>2024-03-17T08:50:48Z</time>
      </trkpt>
      <trkpt lat="49.93048" lon="4.44228">
        <ele>342.8</ele>
        <time>2024-03-17T08:50:49Z</time>
      </trkpt>
      <trkpt lat="49.93046" lon="4.44237">
        <ele>342.8</ele>
        <time>2024-03-17T08:50:50Z</time>
      </trkpt>
      <trkpt lat="49.93045" lon="4.44247">
        <ele>342.8</ele>
        <time>2024-03-17T08:50:51Z</time>
      </trkpt>
      <trkpt lat="49.93043" lon="4.44257">
        <ele>342.8</ele>
        <time>2024-03-17T08:50:52Z</time>
      </trkpt>
      <trkpt lat="49.93041" lon="4.44267">
        <ele>342.8</ele>
        <time>2024-03-17T08:50:53Z</time>
      </trkpt>
      <trkpt lat="49.93039" lon="4.44276">
        <ele>342.8</ele>
        <time>2024-03-17T08:50:54Z</time>
      </trkpt>
      <trkpt lat="49.93037" lon="4.44286">
        <ele>342.8</ele>
        <time>2024-03-17T08:50:55Z</time>
      </trkpt>
      <trkpt lat="49.93036" lon="4.44296">
        <ele>342.8</ele>
        <time>2024-03-17T08:50:56Z</time>
      </trkpt>
      <trkpt lat="49.93034" lon="4.44307">
        <ele>342.6</ele>
        <time>2024-03-17T08:50:57Z</time>
      </trkpt>
      <trkpt lat="49.93032" lon="4.44317">
        <ele>342.8</ele>
        <time>2024-03-17T08:50:58Z</time>
      </trkpt>
      <trkpt lat="49.9303" lon="4.44327">
        <ele>342.6</ele>
        <time>2024-03-17T08:50:59Z</time>
      </trkpt>
      <trkpt lat="49.93028" lon="4.44338">
        <ele>342.8</ele>
        <time>2024-03-17T08:51:00Z</time>
      </trkpt>
      <trkpt lat="49.93026" lon="4.44348">
        <ele>342.6</ele>
        <time>2024-03-17T08:51:01Z</time>
      </trkpt>
      <trkpt lat="49.93024" lon="4.44359">
        <ele>342.6</ele>
        <time>2024-03-17T08:51:02Z</time>
      </trkpt>
      <trkpt lat="49.93022" lon="4.44369">
        <ele>342.6</ele>
        <time>2024-03-17T08:51:03Z</time>
      </trkpt>
      <trkpt lat="49.9302" lon="4.4438">
        <ele>342.4</ele>
        <time>2024-03-17T08:51:04Z</time>
      </trkpt>
      <trkpt lat="49.93018" lon="4.44391">
        <ele>342.2</ele>
        <time>2024-03-17T08:51:05Z</time>
      </trkpt>
      <trkpt lat="49.93016" lon="4.44401">
        <ele>342.2</ele>
        <time>2024-03-17T08:51:06Z</time>
      </trkpt>
      <trkpt lat="49.93014" lon="4.44412">
        <ele>342.2</ele>
        <time>2024-03-17T08:51:07Z</time>
      </trkpt>
      <trkpt lat="49.93012" lon="4.44423">
        <ele>342.2</ele>
        <time>2024-03-17T08:51:08Z</time>
      </trkpt>
      <trkpt lat="49.93009" lon="4.44433">
        <ele>342</ele>
        <time>2024-03-17T08:51:09Z</time>
      </trkpt>
      <trkpt lat="49.93007" lon="4.44444">
        <ele>341.8</ele>
        <time>2024-03-17T08:51:10Z</time>
      </trkpt>
      <trkpt lat="49.93005" lon="4.44454">
        <ele>341.4</ele>
        <time>2024-03-17T08:51:11Z</time>
      </trkpt>
      <trkpt lat="49.93002" lon="4.44465">
        <ele>341.4</ele>
        <time>2024-03-17T08:51:12Z</time>
      </trkpt>
      <trkpt lat="49.92999" lon="4.44475">
        <ele>341.2</ele>
        <time>2024-03-17T08:51:13Z</time>
      </trkpt>
      <trkpt lat="49.92997" lon="4.44486">
        <ele>341.2</ele>
        <time>2024-03-17T08:51:14Z</time>
      </trkpt>
      <trkpt lat="49.92994" lon="4.44496">
        <ele>341</ele>
        <time>2024-03-17T08:51:15Z</time>
      </trkpt>
      <trkpt lat="49.92992" lon="4.44506">
        <ele>341</ele>
        <time>2024-03-17T08:51:16Z</time>
      </trkpt>
      <trkpt lat="49.92989" lon="4.44517">
        <ele>340.8</ele>
        <time>2024-03-17T08:51:17Z</time>
      </trkpt>
      <trkpt lat="49.92986" lon="4.44527">
        <ele>340.6</ele>
        <time>2024-03-17T08:51:18Z</time>
      </trkpt>
      <trkpt lat="49.92983" lon="4.44537">
        <ele>340.4</ele>
        <time>2024-03-17T08:51:19Z</time>
      </trkpt>
      <trkpt lat="49.9298" lon="4.44548">
        <ele>340.4</ele>
        <time>2024-03-17T08:51:20Z</time>
      </trkpt>
      <trkpt lat="49.92976" lon="4.44558">
        <ele>340.2</ele>
        <time>2024-03-17T08:51:21Z</time>
      </trkpt>
      <trkpt lat="49.92973" lon="4.44568">
        <ele>340.2</ele>
        <time>2024-03-17T08:51:22Z</time>
      </trkpt>
      <trkpt lat="49.9297" lon="4.44578">
        <ele>340</ele>
        <time>2024-03-17T08:51:23Z</time>
      </trkpt>
      <trkpt lat="49.92966" lon="4.44588">
        <ele>340</ele>
        <time>2024-03-17T08:51:24Z</time>
      </trkpt>
      <trkpt lat="49.92963" lon="4.44598">
        <ele>339.8</ele>
        <time>2024-03-17T08:51:25Z</time>
      </trkpt>
      <trkpt lat="49.92959" lon="4.44608">
        <ele>339.6</ele>
        <time>2024-03-17T08:51:26Z</time>
      </trkpt>
      <trkpt lat="49.92956" lon="4.44618">
        <ele>339.6</ele>
        <time>2024-03-17T08:51:27Z</time>
      </trkpt>
      <trkpt lat="49.92953" lon="4.44627">
        <ele>339.4</ele>
        <time>2024-03-17T08:51:28Z</time>
      </trkpt>
      <trkpt lat="49.92949" lon="4.44636">
        <ele>339.4</ele>
        <time>2024-03-17T08:51:29Z</time>
      </trkpt>
      <trkpt lat="49.92946" lon="4.44645">
        <ele>339.6</ele>
        <time>2024-03-17T08:51:30Z</time>
      </trkpt>
      <trkpt lat="49.92942" lon="4.44654">
        <ele>339.4</ele>
        <time>2024-03-17T08:51:31Z</time>
      </trkpt>
      <trkpt lat="49.92939" lon="4.44663">
        <ele>339.4</ele>
        <time>2024-03-17T08:51:32Z</time>
      </trkpt>
      <trkpt lat="49.92935" lon="4.44671">
        <ele>339.6</ele>
        <time>2024-03-17T08:51:33Z</time>
      </trkpt>
      <trkpt lat="49.92931" lon="4.44679">
        <ele>339.4</ele>
        <time>2024-03-17T08:51:34Z</time>
      </trkpt>
      <trkpt lat="49.92928" lon="4.44687">
        <ele>339.4</ele>
        <time>2024-03-17T08:51:35Z</time>
      </trkpt>
      <trkpt lat="49.92924" lon="4.44696">
        <ele>339.4</ele>
        <time>2024-03-17T08:51:36Z</time>
      </trkpt>
      <trkpt lat="49.9292" lon="4.44704">
        <ele>339.4</ele>
        <time>2024-03-17T08:51:37Z</time>
      </trkpt>
      <trkpt lat="49.92916" lon="4.44712">
        <ele>339.6</ele>
        <time>2024-03-17T08:51:38Z</time>
      </trkpt>
      <trkpt lat="49.92913" lon="4.4472">
        <ele>339.6</ele>
        <time>2024-03-17T08:51:39Z</time>
      </trkpt>
      <trkpt lat="49.92909" lon="4.44727">
        <ele>339.6</ele>
        <time>2024-03-17T08:51:40Z</time>
      </trkpt>
      <trkpt lat="49.92905" lon="4.44735">
        <ele>339.6</ele>
        <time>2024-03-17T08:51:41Z</time>
      </trkpt>
      <trkpt lat="49.92902" lon="4.44743">
        <ele>339.6</ele>
        <time>2024-03-17T08:51:42Z</time>
      </trkpt>
      <trkpt lat="49.92898" lon="4.44751">
        <ele>339.8</ele>
        <time>2024-03-17T08:51:43Z</time>
      </trkpt>
      <trkpt lat="49.92894" lon="4.44759">
        <ele>340</ele>
        <time>2024-03-17T08:51:44Z</time>
      </trkpt>
      <trkpt lat="49.92891" lon="4.44766">
        <ele>340.2</ele>
        <time>2024-03-17T08:51:45Z</time>
      </trkpt>
      <trkpt lat="49.92887" lon="4.44774">
        <ele>340.2</ele>
        <time>2024-03-17T08:51:46Z</time>
      </trkpt>
      <trkpt lat="49.92883" lon="4.44782">
        <ele>340.4</ele>
        <time>2024-03-17T08:51:47Z</time>
      </trkpt>
      <trkpt lat="49.9288" lon="4.4479">
        <ele>340.8</ele>
        <time>2024-03-17T08:51:48Z</time>
      </trkpt>
      <trkpt lat="49.92876" lon="4.44798">
        <ele>341.2</ele>
        <time>2024-03-17T08:51:49Z</time>
      </trkpt>
      <trkpt lat="49.92872" lon="4.44806">
        <ele>341.4</ele>
        <time>2024-03-17T08:51:50Z</time>
      </trkpt>
      <trkpt lat="49.92868" lon="4.44814">
        <ele>341.4</ele>
        <time>2024-03-17T08:51:51Z</time>
      </trkpt>
      <trkpt lat="49.92864" lon="4.44823">
        <ele>341.8</ele>
        <time>2024-03-17T08:51:52Z</time>
      </trkpt>
      <trkpt lat="49.9286" lon="4.44831">
        <ele>342</ele>
        <time>2024-03-17T08:51:53Z</time>
      </trkpt>
      <trkpt lat="49.92856" lon="4.4484">
        <ele>342.2</ele>
        <time>2024-03-17T08:51:54Z</time>
      </trkpt>
      <trkpt lat="49.92852" lon="4.44849">
        <ele>342.2</ele>
        <time>2024-03-17T08:51:55Z</time>
      </trkpt>
      <trkpt lat="49.92848" lon="4.44858">
        <ele>342.2</ele>
        <time>2024-03-17T08:51:56Z</time>
      </trkpt>
      <trkpt lat="49.92844" lon="4.44867">
        <ele>342.4</ele>
        <time>2024-03-17T08:51:57Z</time>
      </trkpt>
      <trkpt lat="49.92839" lon="4.44876">
        <ele>342.6</ele>
        <time>2024-03-17T08:51:58Z</time>
      </trkpt>
      <trkpt lat="49.92835" lon="4.44885">
        <ele>342.6</ele>
        <time>2024-03-17T08:51:59Z</time>
      </trkpt>
      <trkpt lat="49.92831" lon="4.44894">
        <ele>342.8</ele>
        <time>2024-03-17T08:52:00Z</time>
      </trkpt>
      <trkpt lat="49.92826" lon="4.44903">
        <ele>343</ele>
        <time>2024-03-17T08:52:01Z</time>
      </trkpt>
      <trkpt lat="49.92822" lon="4.44912">
        <ele>343</ele>
        <time>2024-03-17T08:52:02Z</time>
      </trkpt>
      <trkpt lat="49.92817" lon="4.44922">
        <ele>343</ele>
        <time>2024-03-17T08:52:03Z</time>
      </trkpt>
      <trkpt lat="49.92813" lon="4.44931">
        <ele>343.2</ele>
        <time>2024-03-17T08:52:04Z</time>
      </trkpt>
      <trkpt lat="49.92808" lon="4.4494">
        <ele>343.2</ele>
        <time>2024-03-17T08:52:05Z</time>
      </trkpt>
      <trkpt lat="49.92804" lon="4.4495">
        <ele>343.2</ele>
        <time>2024-03-17T08:52:06Z</time>
      </trkpt>
      <trkpt lat="49.92799" lon="4.4496">
        <ele>343.2</ele>
        <time>2024-03-17T08:52:07Z</time>
      </trkpt>
      <trkpt lat="49.92794" lon="4.4497">
        <ele>343.2</ele>
        <time>2024-03-17T08:52:08Z</time>
      </trkpt>
      <trkpt lat="49.9279" lon="4.4498">
        <ele>343.2</ele>
        <time>2024-03-17T08:52:09Z</time>
      </trkpt>
      <trkpt lat="49.92785" lon="4.4499">
        <ele>343.4</ele>
        <time>2024-03-17T08:52:10Z</time>
      </trkpt>
      <trkpt lat="49.9278" lon="4.45">
        <ele>343.4</ele>
        <time>2024-03-17T08:52:11Z</time>
      </trkpt>
      <trkpt lat="49.92775" lon="4.45011">
        <ele>343.2</ele>
        <time>2024-03-17T08:52:12Z</time>
      </trkpt>
      <trkpt lat="49.9277" lon="4.45021">
        <ele>343.2</ele>
        <time>2024-03-17T08:52:13Z</time>
      </trkpt>
      <trkpt lat="49.92765" lon="4.45032">
        <ele>343.2</ele>
        <time>2024-03-17T08:52:14Z</time>
      </trkpt>
      <trkpt lat="49.92759" lon="4.45043">
        <ele>343.2</ele>
        <time>2024-03-17T08:52:15Z</time>
      </trkpt>
      <trkpt lat="49.92754" lon="4.45054">
        <ele>343</ele>
        <time>2024-03-17T08:52:16Z</time>
      </trkpt>
      <trkpt lat="49.92749" lon="4.45066">
        <ele>342.6</ele>
        <time>2024-03-17T08:52:17Z</time>
      </trkpt>
      <trkpt lat="49.92744" lon="4.45077">
        <ele>342.4</ele>
        <time>2024-03-17T08:52:18Z</time>
      </trkpt>
      <trkpt lat="49.92738" lon="4.45088">
        <ele>342</ele>
        <time>2024-03-17T08:52:19Z</time>
      </trkpt>
      <trkpt lat="49.92733" lon="4.45099">
        <ele>342</ele>
        <time>2024-03-17T08:52:20Z</time>
      </trkpt>
      <trkpt lat="49.92727" lon="4.45111">
        <ele>341.6</ele>
        <time>2024-03-17T08:52:21Z</time>
      </trkpt>
      <trkpt lat="49.92722" lon="4.45122">
        <ele>341.4</ele>
        <time>2024-03-17T08:52:22Z</time>
      </trkpt>
      <trkpt lat="49.92717" lon="4.45133">
        <ele>341</ele>
        <time>2024-03-17T08:52:23Z</time>
      </trkpt>
      <trkpt lat="49.92712" lon="4.45144">
        <ele>340.4</ele>
        <time>2024-03-17T08:52:24Z</time>
      </trkpt>
      <trkpt lat="49.92707" lon="4.45155">
        <ele>339.8</ele>
        <time>2024-03-17T08:52:25Z</time>
      </trkpt>
      <trkpt lat="49.92703" lon="4.45165">
        <ele>339.6</ele>
        <time>2024-03-17T08:52:26Z</time>
      </trkpt>
      <trkpt lat="49.92698" lon="4.45175">
        <ele>339.4</ele>
        <time>2024-03-17T08:52:27Z</time>
      </trkpt>
      <trkpt lat="49.92694" lon="4.45185">
        <ele>339.6</ele>
        <time>2024-03-17T08:52:28Z</time>
      </trkpt>
      <trkpt lat="49.92689" lon="4.45193">
        <ele>339.4</ele>
        <time>2024-03-17T08:52:29Z</time>
      </trkpt>
      <trkpt lat="49.92685" lon="4.45201">
        <ele>339.4</ele>
        <time>2024-03-17T08:52:30Z</time>
      </trkpt>
      <trkpt lat="49.92682" lon="4.45209">
        <ele>339.4</ele>
        <time>2024-03-17T08:52:31Z</time>
      </trkpt>
      <trkpt lat="49.92678" lon="4.45216">
        <ele>339.2</ele>
        <time>2024-03-17T08:52:32Z</time>
      </trkpt>
      <trkpt lat="49.92675" lon="4.45224">
        <ele>339.2</ele>
        <time>2024-03-17T08:52:33Z</time>
      </trkpt>
      <trkpt lat="49.92671" lon="4.45231">
        <ele>339.4</ele>
        <time>2024-03-17T08:52:34Z</time>
      </trkpt>
      <trkpt lat="49.92668" lon="4.45238">
        <ele>339.4</ele>
        <time>2024-03-17T08:52:35Z</time>
      </trkpt>
      <trkpt lat="49.92665" lon="4.45244">
        <ele>339.4</ele>
        <time>2024-03-17T08:52:36Z</time>
      </trkpt>
      <trkpt lat="49.92662" lon="4.4525">
        <ele>339.4</ele>
        <time>2024-03-17T08:52:37Z</time>
      </trkpt>
      <trkpt lat="49.92659" lon="4.45256">
        <ele>339.4</ele>
        <time>2024-03-17T08:52:38Z</time>
      </trkpt>
      <trkpt lat="49.92656" lon="4.45263">
        <ele>339.6</ele>
        <time>2024-03-17T08:52:39Z</time>
      </trkpt>
      <trkpt lat="49.92652" lon="4.4527">
        <ele>339.8</ele>
        <time>2024-03-17T08:52:40Z</time>
      </trkpt>
      <trkpt lat="49.92649" lon="4.45277">
        <ele>340.2</ele>
        <time>2024-03-17T08:52:41Z</time>
      </trkpt>
      <trkpt lat="49.92646" lon="4.45283">
        <ele>340.2</ele>
        <time>2024-03-17T08:52:42Z</time>
      </trkpt>
      <trkpt lat="49.92643" lon="4.4529">
        <ele>340.4</ele>
        <time>2024-03-17T08:52:43Z</time>
      </trkpt>
      <trkpt lat="49.9264" lon="4.45297">
        <ele>340.8</ele>
        <time>2024-03-17T08:52:44Z</time>
      </trkpt>
      <trkpt lat="49.92636" lon="4.45304">
        <ele>341</ele>
        <time>2024-03-17T08:52:45Z</time>
      </trkpt>
      <trkpt lat="49.92633" lon="4.45312">
        <ele>341.2</ele>
        <time>2024-03-17T08:52:46Z</time>
      </trkpt>
      <trkpt lat="49.92629" lon="4.45319">
        <ele>341.4</ele>
        <time>2024-03-17T08:52:47Z</time>
      </trkpt>
      <trkpt lat="49.92626" lon="4.45326">
        <ele>341.6</ele>
        <time>2024-03-17T08:52:48Z</time>
      </trkpt>
      <trkpt lat="49.92623" lon="4.45334">
        <ele>341.8</ele>
        <time>2024-03-17T08:52:49Z</time>
      </trkpt>
      <trkpt lat="49.92619" lon="4.45341">
        <ele>342.2</ele>
        <time>2024-03-17T08:52:50Z</time>
      </trkpt>
      <trkpt lat="49.92615" lon="4.45349">
        <ele>342</ele>
        <time>2024-03-17T08:52:51Z</time>
      </trkpt>
      <trkpt lat="49.92612" lon="4.45356">
        <ele>342</ele>
        <time>2024-03-17T08:52:52Z</time>
      </trkpt>
      <trkpt lat="49.92608" lon="4.45364">
        <ele>342</ele>
        <time>2024-03-17T08:52:53Z</time>
      </trkpt>
      <trkpt lat="49.92605" lon="4.45371">
        <ele>342.2</ele>
        <time>2024-03-17T08:52:54Z</time>
      </trkpt>
      <trkpt lat="49.92601" lon="4.45379">
        <ele>342.2</ele>
        <time>2024-03-17T08:52:55Z</time>
      </trkpt>
      <trkpt lat="49.92598" lon="4.45387">
        <ele>342.4</ele>
        <time>2024-03-17T08:52:56Z</time>
      </trkpt>
      <trkpt lat="49.92594" lon="4.45394">
        <ele>342.4</ele>
        <time>2024-03-17T08:52:57Z</time>
      </trkpt>
      <trkpt lat="49.9259" lon="4.45401">
        <ele>342.4</ele>
        <time>2024-03-17T08:52:58Z</time>
      </trkpt>
      <trkpt lat="49.92587" lon="4.45409">
        <ele>342.4</ele>
        <time>2024-03-17T08:52:59Z</time>
      </trkpt>
      <trkpt lat="49.92583" lon="4.45417">
        <ele>342.4</ele>
        <time>2024-03-17T08:53:00Z</time>
      </trkpt>
      <trkpt lat="49.9258" lon="4.45425">
        <ele>342.4</ele>
        <time>2024-03-17T08:53:01Z</time>
      </trkpt>
      <trkpt lat="49.92576" lon="4.45432">
        <ele>342.6</ele>
        <time>2024-03-17T08:53:02Z</time>
      </trkpt>
      <trkpt lat="49.92572" lon="4.4544">
        <ele>342.6</ele>
        <time>2024-03-17T08:53:03Z</time>
      </trkpt>
      <trkpt lat="49.92569" lon="4.45448">
        <ele>342.6</ele>
        <time>2024-03-17T08:53:04Z</time>
      </trkpt>
      <trkpt lat="49.92565" lon="4.45456">
        <ele>342.6</ele>
        <time>2024-03-17T08:53:05Z</time>
      </trkpt>
      <trkpt lat="49.92561" lon="4.45464">
        <ele>342.6</ele>
        <time>2024-03-17T08:53:06Z</time>
      </trkpt>
      <trkpt lat="49.92557" lon="4.45472">
        <ele>342.6</ele>
        <time>2024-03-17T08:53:07Z</time>
      </trkpt>
      <trkpt lat="49.92553" lon="4.4548">
        <ele>342.6</ele>
        <time>2024-03-17T08:53:08Z</time>
      </trkpt>
      <trkpt lat="49.9255" lon="4.45488">
        <ele>342.6</ele>
        <time>2024-03-17T08:53:09Z</time>
      </trkpt>
      <trkpt lat="49.92546" lon="4.45495">
        <ele>342.4</ele>
        <time>2024-03-17T08:53:10Z</time>
      </trkpt>
      <trkpt lat="49.92542" lon="4.45503">
        <ele>342.4</ele>
        <time>2024-03-17T08:53:11Z</time>
      </trkpt>
      <trkpt lat="49.92538" lon="4.45511">
        <ele>342.6</ele>
        <time>2024-03-17T08:53:12Z</time>
      </trkpt>
      <trkpt lat="49.92535" lon="4.45519">
        <ele>342.4</ele>
        <time>2024-03-17T08:53:13Z</time>
      </trkpt>
      <trkpt lat="49.92531" lon="4.45528">
        <ele>342.4</ele>
        <time>2024-03-17T08:53:14Z</time>
      </trkpt>
      <trkpt lat="49.92527" lon="4.45536">
        <ele>342.4</ele>
        <time>2024-03-17T08:53:15Z</time>
      </trkpt>
      <trkpt lat="49.92524" lon="4.45544">
        <ele>342.4</ele>
        <time>2024-03-17T08:53:16Z</time>
      </trkpt>
      <trkpt lat="49.9252" lon="4.45553">
        <ele>342.6</ele>
        <time>2024-03-17T08:53:17Z</time>
      </trkpt>
      <trkpt lat="49.92517" lon="4.45562">
        <ele>342.6</ele>
        <time>2024-03-17T08:53:18Z</time>
      </trkpt>
      <trkpt lat="49.92513" lon="4.45571">
        <ele>342.6</ele>
        <time>2024-03-17T08:53:19Z</time>
      </trkpt>
      <trkpt lat="49.9251" lon="4.4558">
        <ele>342.6</ele>
        <time>2024-03-17T08:53:20Z</time>
      </trkpt>
      <trkpt lat="49.92507" lon="4.4559">
        <ele>342.6</ele>
        <time>2024-03-17T08:53:21Z</time>
      </trkpt>
      <trkpt lat="49.92505" lon="4.456">
        <ele>342.4</ele>
        <time>2024-03-17T08:53:22Z</time>
      </trkpt>
      <trkpt lat="49.92502" lon="4.4561">
        <ele>342.2</ele>
        <time>2024-03-17T08:53:23Z</time>
      </trkpt>
      <trkpt lat="49.92501" lon="4.4562">
        <ele>342.2</ele>
        <time>2024-03-17T08:53:24Z</time>
      </trkpt>
      <trkpt lat="49.92499" lon="4.45631">
        <ele>342</ele>
        <time>2024-03-17T08:53:25Z</time>
      </trkpt>
      <trkpt lat="49.92497" lon="4.45641">
        <ele>342</ele>
        <time>2024-03-17T08:53:26Z</time>
      </trkpt>
      <trkpt lat="49.92496" lon="4.45651">
        <ele>342</ele>
        <time>2024-03-17T08:53:27Z</time>
      </trkpt>
      <trkpt lat="49.92496" lon="4.45662">
        <ele>342</ele>
        <time>2024-03-17T08:53:28Z</time>
      </trkpt>
      <trkpt lat="49.92495" lon="4.45672">
        <ele>342</ele>
        <time>2024-03-17T08:53:29Z</time>
      </trkpt>
      <trkpt lat="49.92494" lon="4.45683">
        <ele>342</ele>
        <time>2024-03-17T08:53:30Z</time>
      </trkpt>
      <trkpt lat="49.92494" lon="4.45693">
        <ele>342</ele>
        <time>2024-03-17T08:53:31Z</time>
      </trkpt>
      <trkpt lat="49.92494" lon="4.45704">
        <ele>342</ele>
        <time>2024-03-17T08:53:32Z</time>
      </trkpt>
      <trkpt lat="49.92494" lon="4.45714">
        <ele>342.2</ele>
        <time>2024-03-17T08:53:33Z</time>
      </trkpt>
      <trkpt lat="49.92493" lon="4.45724">
        <ele>342.2</ele>
        <time>2024-03-17T08:53:34Z</time>
      </trkpt>
      <trkpt lat="49.92493" lon="4.45734">
        <ele>342</ele>
        <time>2024-03-17T08:53:35Z</time>
      </trkpt>
      <trkpt lat="49.92493" lon="4.45744">
        <ele>342</ele>
        <time>2024-03-17T08:53:36Z</time>
      </trkpt>
      <trkpt lat="49.92492" lon="4.45754">
        <ele>342</ele>
        <time>2024-03-17T08:53:37Z</time>
      </trkpt>
      <trkpt lat="49.92492" lon="4.45763">
        <ele>342</ele>
        <time>2024-03-17T08:53:38Z</time>
      </trkpt>
      <trkpt lat="49.92492" lon="4.45772">
        <ele>342</ele>
        <time>2024-03-17T08:53:39Z</time>
      </trkpt>
      <trkpt lat="49.92491" lon="4.45781">
        <ele>342.2</ele>
        <time>2024-03-17T08:53:40Z</time>
      </trkpt>
      <trkpt lat="49.92491" lon="4.45789">
        <ele>342</ele>
        <time>2024-03-17T08:53:41Z</time>
      </trkpt>
      <trkpt lat="49.9249" lon="4.45798">
        <ele>342.2</ele>
        <time>2024-03-17T08:53:42Z</time>
      </trkpt>
      <trkpt lat="49.9249" lon="4.45806">
        <ele>342.2</ele>
        <time>2024-03-17T08:53:43Z</time>
      </trkpt>
      <trkpt lat="49.9249" lon="4.45814">
        <ele>342.2</ele>
        <time>2024-03-17T08:53:44Z</time>
      </trkpt>
      <trkpt lat="49.92489" lon="4.45822">
        <ele>342.4</ele>
        <time>2024-03-17T08:53:45Z</time>
      </trkpt>
      <trkpt lat="49.92489" lon="4.4583">
        <ele>342.4</ele>
        <time>2024-03-17T08:53:46Z</time>
      </trkpt>
      <trkpt lat="49.92488" lon="4.45838">
        <ele>342.4</ele>
        <time>2024-03-17T08:53:47Z</time>
      </trkpt>
      <trkpt lat="49.92488" lon="4.45846">
        <ele>343</ele>
        <time>2024-03-17T08:53:48Z</time>
      </trkpt>
      <trkpt lat="49.92488" lon="4.45853">
        <ele>343.2</ele>
        <time>2024-03-17T08:53:49Z</time>
      </trkpt>
      <trkpt lat="49.92487" lon="4.4586">
        <ele>343.6</ele>
        <time>2024-03-17T08:53:50Z</time>
      </trkpt>
      <trkpt lat="49.92487" lon="4.45867">
        <ele>343.8</ele>
        <time>2024-03-17T08:53:51Z</time>
      </trkpt>
      <trkpt lat="49.92487" lon="4.45874">
        <ele>344</ele>
        <time>2024-03-17T08:53:52Z</time>
      </trkpt>
      <trkpt lat="49.92486" lon="4.45881">
        <ele>344.6</ele>
        <time>2024-03-17T08:53:53Z</time>
      </trkpt>
      <trkpt lat="49.92486" lon="4.45889">
        <ele>344.8</ele>
        <time>2024-03-17T08:53:54Z</time>
      </trkpt>
      <trkpt lat="49.92486" lon="4.45896">
        <ele>345.2</ele>
        <time>2024-03-17T08:53:55Z</time>
      </trkpt>
      <trkpt lat="49.92485" lon="4.45903">
        <ele>345.4</ele>
        <time>2024-03-17T08:53:56Z</time>
      </trkpt>
      <trkpt lat="49.92485" lon="4.4591">
        <ele>345.6</ele>
        <time>2024-03-17T08:53:57Z</time>
      </trkpt>
      <trkpt lat="49.92485" lon="4.45917">
        <ele>345.8</ele>
        <time>2024-03-17T08:53:58Z</time>
      </trkpt>
      <trkpt lat="49.92485" lon="4.45925">
        <ele>346.2</ele>
        <time>2024-03-17T08:53:59Z</time>
      </trkpt>
      <trkpt lat="49.92485" lon="4.45932">
        <ele>346.6</ele>
        <time>2024-03-17T08:54:00Z</time>
      </trkpt>
      <trkpt lat="49.92485" lon="4.45939">
        <ele>346.8</ele>
        <time>2024-03-17T08:54:01Z</time>
      </trkpt>
      <trkpt lat="49.92485" lon="4.45946">
        <ele>346.8</ele>
        <time>2024-03-17T08:54:02Z</time>
      </trkpt>
      <trkpt lat="49.92485" lon="4.45953">
        <ele>347.2</ele>
        <time>2024-03-17T08:54:03Z</time>
      </trkpt>
      <trkpt lat="49.92485" lon="4.45961">
        <ele>347.4</ele>
        <time>2024-03-17T08:54:04Z</time>
      </trkpt>
      <trkpt lat="49.92486" lon="4.45968">
        <ele>347.4</ele>
        <time>2024-03-17T08:54:05Z</time>
      </trkpt>
      <trkpt lat="49.92486" lon="4.45976">
        <ele>347.6</ele>
        <time>2024-03-17T08:54:06Z</time>
      </trkpt>
      <trkpt lat="49.92487" lon="4.45983">
        <ele>347.6</ele>
        <time>2024-03-17T08:54:07Z</time>
      </trkpt>
      <trkpt lat="49.92487" lon="4.45991">
        <ele>347.8</ele>
        <time>2024-03-17T08:54:08Z</time>
      </trkpt>
      <trkpt lat="49.92488" lon="4.45998">
        <ele>348.2</ele>
        <time>2024-03-17T08:54:09Z</time>
      </trkpt>
      <trkpt lat="49.92488" lon="4.46006">
        <ele>349</ele>
        <time>2024-03-17T08:54:10Z</time>
      </trkpt>
      <trkpt lat="49.92489" lon="4.46014">
        <ele>349.2</ele>
        <time>2024-03-17T08:54:11Z</time>
      </trkpt>
      <trkpt lat="49.9249" lon="4.46021">
        <ele>349.8</ele>
        <time>2024-03-17T08:54:12Z</time>
      </trkpt>
      <trkpt lat="49.9249" lon="4.46029">
        <ele>350</ele>
        <time>2024-03-17T08:54:13Z</time>
      </trkpt>
      <trkpt lat="49.92491" lon="4.46037">
        <ele>350.2</ele>
        <time>2024-03-17T08:54:14Z</time>
      </trkpt>
      <trkpt lat="49.92491" lon="4.46045">
        <ele>350.2</ele>
        <time>2024-03-17T08:54:15Z</time>
      </trkpt>
      <trkpt lat="49.92491" lon="4.46053">
        <ele>350.8</ele>
        <time>2024-03-17T08:54:16Z</time>
      </trkpt>
      <trkpt lat="49.92492" lon="4.46061">
        <ele>350.8</ele>
        <time>2024-03-17T08:54:17Z</time>
      </trkpt>
      <trkpt lat="49.92492" lon="4.46069">
        <ele>351</ele>
        <time>2024-03-17T08:54:18Z</time>
      </trkpt>
      <trkpt lat="49.92492" lon="4.46077">
        <ele>351</ele>
        <time>2024-03-17T08:54:19Z</time>
      </trkpt>
      <trkpt lat="49.92492" lon="4.46085">
        <ele>351</ele>
        <time>2024-03-17T08:54:20Z</time>
      </trkpt>
      <trkpt lat="49.92492" lon="4.46094">
        <ele>351.2</ele>
        <time>2024-03-17T08:54:21Z</time>
      </trkpt>
      <trkpt lat="49.92492" lon="4.46102">
        <ele>351.2</ele>
        <time>2024-03-17T08:54:22Z</time>
      </trkpt>
      <trkpt lat="49.92492" lon="4.4611">
        <ele>351.2</ele>
        <time>2024-03-17T08:54:23Z</time>
      </trkpt>
      <trkpt lat="49.92491" lon="4.46119">
        <ele>351.4</ele>
        <time>2024-03-17T08:54:24Z</time>
      </trkpt>
      <trkpt lat="49.92491" lon="4.46127">
        <ele>351.6</ele>
        <time>2024-03-17T08:54:25Z</time>
      </trkpt>
      <trkpt lat="49.92491" lon="4.46136">
        <ele>351.6</ele>
        <time>2024-03-17T08:54:26Z</time>
      </trkpt>
      <trkpt lat="49.9249" lon="4.46144">
        <ele>351.6</ele>
        <time>2024-03-17T08:54:27Z</time>
      </trkpt>
      <trkpt lat="49.9249" lon="4.46153">
        <ele>351.6</ele>
        <time>2024-03-17T08:54:28Z</time>
      </trkpt>
      <trkpt lat="49.9249" lon="4.46162">
        <ele>351.8</ele>
        <time>2024-03-17T08:54:29Z</time>
      </trkpt>
      <trkpt lat="49.92489" lon="4.46171">
        <ele>351.6</ele>
        <time>2024-03-17T08:54:30Z</time>
      </trkpt>
      <trkpt lat="49.92489" lon="4.4618">
        <ele>351.8</ele>
        <time>2024-03-17T08:54:31Z</time>
      </trkpt>
      <trkpt lat="49.92488" lon="4.46189">
        <ele>351.8</ele>
        <time>2024-03-17T08:54:32Z</time>
      </trkpt>
      <trkpt lat="49.92488" lon="4.46198">
        <ele>351.8</ele>
        <time>2024-03-17T08:54:33Z</time>
      </trkpt>
      <trkpt lat="49.92487" lon="4.46206">
        <ele>351.8</ele>
        <time>2024-03-17T08:54:34Z</time>
      </trkpt>
      <trkpt lat="49.92487" lon="4.46215">
        <ele>351.8</ele>
        <time>2024-03-17T08:54:35Z</time>
      </trkpt>
      <trkpt lat="49.92486" lon="4.46224">
        <ele>352</ele>
        <time>2024-03-17T08:54:36Z</time>
      </trkpt>
      <trkpt lat="49.92486" lon="4.46233">
        <ele>352.4</ele>
        <time>2024-03-17T08:54:37Z</time>
      </trkpt>
      <trkpt lat="49.92485" lon="4.46243">
        <ele>352.4</ele>
        <time>2024-03-17T08:54:38Z</time>
      </trkpt>
      <trkpt lat="49.92485" lon="4.46252">
        <ele>352.6</ele>
        <time>2024-03-17T08:54:39Z</time>
      </trkpt>
      <trkpt lat="49.92484" lon="4.46261">
        <ele>352.6</ele>
        <time>2024-03-17T08:54:40Z</time>
      </trkpt>
      <trkpt lat="49.92484" lon="4.4627">
        <ele>352.4</ele>
        <time>2024-03-17T08:54:41Z</time>
      </trkpt>
      <trkpt lat="49.92483" lon="4.4628">
        <ele>352.6</ele>
        <time>2024-03-17T08:54:42Z</time>
      </trkpt>
      <trkpt lat="49.92483" lon="4.46289">
        <ele>352.6</ele>
        <time>2024-03-17T08:54:43Z</time>
      </trkpt>
      <trkpt lat="49.92482" lon="4.46298">
        <ele>352.4</ele>
        <time>2024-03-17T08:54:44Z</time>
      </trkpt>
      <trkpt lat="49.92482" lon="4.46307">
        <ele>352.6</ele>
        <time>2024-03-17T08:54:45Z</time>
      </trkpt>
      <trkpt lat="49.92481" lon="4.46317">
        <ele>352.6</ele>
        <time>2024-03-17T08:54:46Z</time>
      </trkpt>
      <trkpt lat="49.92481" lon="4.46326">
        <ele>352.6</ele>
        <time>2024-03-17T08:54:47Z</time>
      </trkpt>
      <trkpt lat="49.9248" lon="4.46335">
        <ele>352.6</ele>
        <time>2024-03-17T08:54:48Z</time>
      </trkpt>
      <trkpt lat="49.9248" lon="4.46344">
        <ele>352.6</ele>
        <time>2024-03-17T08:54:49Z</time>
      </trkpt>
      <trkpt lat="49.92479" lon="4.46353">
        <ele>352.8</ele>
        <time>2024-03-17T08:54:50Z</time>
      </trkpt>
      <trkpt lat="49.92479" lon="4.46363">
        <ele>352.8</ele>
        <time>2024-03-17T08:54:51Z</time>
      </trkpt>
      <trkpt lat="49.92479" lon="4.46372">
        <ele>352.8</ele>
        <time>2024-03-17T08:54:52Z</time>
      </trkpt>
      <trkpt lat="49.92478" lon="4.46381">
        <ele>352.8</ele>
        <time>2024-03-17T08:54:53Z</time>
      </trkpt>
      <trkpt lat="49.92478" lon="4.46391">
        <ele>352.6</ele>
        <time>2024-03-17T08:54:54Z</time>
      </trkpt>
      <trkpt lat="49.92478" lon="4.46401">
        <ele>352.8</ele>
        <time>2024-03-17T08:54:55Z</time>
      </trkpt>
      <trkpt lat="49.92478" lon="4.4641">
        <ele>352.8</ele>
        <time>2024-03-17T08:54:56Z</time>
      </trkpt>
      <trkpt lat="49.92479" lon="4.4642">
        <ele>352.6</ele>
        <time>2024-03-17T08:54:57Z</time>
      </trkpt>
      <trkpt lat="49.92479" lon="4.4643">
        <ele>352.8</ele>
        <time>2024-03-17T08:54:58Z</time>
      </trkpt>
      <trkpt lat="49.92479" lon="4.46439">
        <ele>352.8</ele>
        <time>2024-03-17T08:54:59Z</time>
      </trkpt>
      <trkpt lat="49.9248" lon="4.46449">
        <ele>352.8</ele>
        <time>2024-03-17T08:55:00Z</time>
      </trkpt>
      <trkpt lat="49.92481" lon="4.46459">
        <ele>352.8</ele>
        <time>2024-03-17T08:55:01Z</time>
      </trkpt>
      <trkpt lat="49.92482" lon="4.46468">
        <ele>352.8</ele>
        <time>2024-03-17T08:55:02Z</time>
      </trkpt>
      <trkpt lat="49.92482" lon="4.46478">
        <ele>352.8</ele>
        <time>2024-03-17T08:55:03Z</time>
      </trkpt>
      <trkpt lat="49.92483" lon="4.46488">
        <ele>352.6</ele>
        <time>2024-03-17T08:55:04Z</time>
      </trkpt>
      <trkpt lat="49.92484" lon="4.46498">
        <ele>352.8</ele>
        <time>2024-03-17T08:55:05Z</time>
      </trkpt>
      <trkpt lat="49.92485" lon="4.46508">
        <ele>352.6</ele>
        <time>2024-03-17T08:55:06Z</time>
      </trkpt>
      <trkpt lat="49.92486" lon="4.46519">
        <ele>352.6</ele>
        <time>2024-03-17T08:55:07Z</time>
      </trkpt>
      <trkpt lat="49.92488" lon="4.46529">
        <ele>352.4</ele>
        <time>2024-03-17T08:55:08Z</time>
      </trkpt>
      <trkpt lat="49.92489" lon="4.4654">
        <ele>352.2</ele>
        <time>2024-03-17T08:55:09Z</time>
      </trkpt>
      <trkpt lat="49.9249" lon="4.4655">
        <ele>351.8</ele>
        <time>2024-03-17T08:55:10Z</time>
      </trkpt>
      <trkpt lat="49.92491" lon="4.46561">
        <ele>351.8</ele>
        <time>2024-03-17T08:55:11Z</time>
      </trkpt>
      <trkpt lat="49.92492" lon="4.46572">
        <ele>351.4</ele>
        <time>2024-03-17T08:55:12Z</time>
      </trkpt>
      <trkpt lat="49.92493" lon="4.46583">
        <ele>351.4</ele>
        <time>2024-03-17T08:55:13Z</time>
      </trkpt>
      <trkpt lat="49.92494" lon="4.46594">
        <ele>351.4</ele>
        <time>2024-03-17T08:55:14Z</time>
      </trkpt>
      <trkpt lat="49.92495" lon="4.46606">
        <ele>351.4</ele>
        <time>2024-03-17T08:55:15Z</time>
      </trkpt>
      <trkpt lat="49.92495" lon="4.46617">
        <ele>351.4</ele>
        <time>2024-03-17T08:55:16Z</time>
      </trkpt>
      <trkpt lat="49.92495" lon="4.46629">
        <ele>351.2</ele>
        <time>2024-03-17T08:55:17Z</time>
      </trkpt>
      <trkpt lat="49.92495" lon="4.46641">
        <ele>351.2</ele>
        <time>2024-03-17T08:55:18Z</time>
      </trkpt>
      <trkpt lat="49.92495" lon="4.46653">
        <ele>351.2</ele>
        <time>2024-03-17T08:55:19Z</time>
      </trkpt>
      <trkpt lat="49.92494" lon="4.46665">
        <ele>351</ele>
        <time>2024-03-17T08:55:20Z</time>
      </trkpt>
      <trkpt lat="49.92493" lon="4.46676">
        <ele>350.8</ele>
        <time>2024-03-17T08:55:21Z</time>
      </trkpt>
      <trkpt lat="49.92491" lon="4.46688">
        <ele>350.4</ele>
        <time>2024-03-17T08:55:22Z</time>
      </trkpt>
      <trkpt lat="49.9249" lon="4.46699">
        <ele>350.2</ele>
        <time>2024-03-17T08:55:23Z</time>
      </trkpt>
      <trkpt lat="49.92488" lon="4.46711">
        <ele>350.2</ele>
        <time>2024-03-17T08:55:24Z</time>
      </trkpt>
      <trkpt lat="49.92485" lon="4.46722">
        <ele>350</ele>
        <time>2024-03-17T08:55:25Z</time>
      </trkpt>
      <trkpt lat="49.92483" lon="4.46734">
        <ele>349.6</ele>
        <time>2024-03-17T08:55:26Z</time>
      </trkpt>
      <trkpt lat="49.9248" lon="4.46745">
        <ele>349.6</ele>
        <time>2024-03-17T08:55:27Z</time>
      </trkpt>
      <trkpt lat="49.92478" lon="4.46757">
        <ele>349.2</ele>
        <time>2024-03-17T08:55:28Z</time>
      </trkpt>
      <trkpt lat="49.92475" lon="4.46768">
        <ele>349</ele>
        <time>2024-03-17T08:55:29Z</time>
      </trkpt>
      <trkpt lat="49.92472" lon="4.4678">
        <ele>349</ele>
        <time>2024-03-17T08:55:30Z</time>
      </trkpt>
      <trkpt lat="49.92469" lon="4.46791">
        <ele>349</ele>
        <time>2024-03-17T08:55:31Z</time>
      </trkpt>
      <trkpt lat="49.92467" lon="4.46803">
        <ele>348.8</ele>
        <time>2024-03-17T08:55:32Z</time>
      </trkpt>
      <trkpt lat="49.92464" lon="4.46815">
        <ele>348.8</ele>
        <time>2024-03-17T08:55:33Z</time>
      </trkpt>
      <trkpt lat="49.92461" lon="4.46828">
        <ele>348.6</ele>
        <time>2024-03-17T08:55:34Z</time>
      </trkpt>
      <trkpt lat="49.92458" lon="4.4684">
        <ele>348.4</ele>
        <time>2024-03-17T08:55:35Z</time>
      </trkpt>
      <trkpt lat="49.92455" lon="4.46852">
        <ele>348.4</ele>
        <time>2024-03-17T08:55:36Z</time>
      </trkpt>
      <trkpt lat="49.92452" lon="4.46865">
        <ele>348.2</ele>
        <time>2024-03-17T08:55:37Z</time>
      </trkpt>
      <trkpt lat="49.92449" lon="4.46878">
        <ele>347.8</ele>
        <time>2024-03-17T08:55:38Z</time>
      </trkpt>
      <trkpt lat="49.92446" lon="4.4689">
        <ele>347.4</ele>
        <time>2024-03-17T08:55:39Z</time>
      </trkpt>
      <trkpt lat="49.92442" lon="4.46903">
        <ele>347.4</ele>
        <time>2024-03-17T08:55:40Z</time>
      </trkpt>
      <trkpt lat="49.92439" lon="4.46916">
        <ele>347</ele>
        <time>2024-03-17T08:55:41Z</time>
      </trkpt>
      <trkpt lat="49.92435" lon="4.46928">
        <ele>346.8</ele>
        <time>2024-03-17T08:55:42Z</time>
      </trkpt>
      <trkpt lat="49.92431" lon="4.46941">
        <ele>346.4</ele>
        <time>2024-03-17T08:55:43Z</time>
      </trkpt>
      <trkpt lat="49.92427" lon="4.46954">
        <ele>346.2</ele>
        <time>2024-03-17T08:55:44Z</time>
      </trkpt>
      <trkpt lat="49.92424" lon="4.46966">
        <ele>345.6</ele>
        <time>2024-03-17T08:55:45Z</time>
      </trkpt>
      <trkpt lat="49.9242" lon="4.46978">
        <ele>345.2</ele>
        <time>2024-03-17T08:55:46Z</time>
      </trkpt>
      <trkpt lat="49.92416" lon="4.4699">
        <ele>345.2</ele>
        <time>2024-03-17T08:55:47Z</time>
      </trkpt>
      <trkpt lat="49.92413" lon="4.47001">
        <ele>345</ele>
        <time>2024-03-17T08:55:48Z</time>
      </trkpt>
      <trkpt lat="49.92409" lon="4.47013">
        <ele>344.6</ele>
        <time>2024-03-17T08:55:49Z</time>
      </trkpt>
      <trkpt lat="49.92406" lon="4.47024">
        <ele>344</ele>
        <time>2024-03-17T08:55:50Z</time>
      </trkpt>
      <trkpt lat="49.92402" lon="4.47035">
        <ele>343.2</ele>
        <time>2024-03-17T08:55:51Z</time>
      </trkpt>
      <trkpt lat="49.92399" lon="4.47046">
        <ele>342.6</ele>
        <time>2024-03-17T08:55:52Z</time>
      </trkpt>
      <trkpt lat="49.92395" lon="4.47057">
        <ele>342.2</ele>
        <time>2024-03-17T08:55:53Z</time>
      </trkpt>
      <trkpt lat="49.92392" lon="4.47067">
        <ele>342.2</ele>
        <time>2024-03-17T08:55:54Z</time>
      </trkpt>
      <trkpt lat="49.92388" lon="4.47077">
        <ele>342.2</ele>
        <time>2024-03-17T08:55:55Z</time>
      </trkpt>
      <trkpt lat="49.92385" lon="4.47087">
        <ele>342.2</ele>
        <time>2024-03-17T08:55:56Z</time>
      </trkpt>
      <trkpt lat="49.92381" lon="4.47096">
        <ele>342</ele>
        <time>2024-03-17T08:55:57Z</time>
      </trkpt>
      <trkpt lat="49.92377" lon="4.47105">
        <ele>342</ele>
        <time>2024-03-17T08:55:58Z</time>
      </trkpt>
      <trkpt lat="49.92374" lon="4.47114">
        <ele>342</ele>
        <time>2024-03-17T08:55:59Z</time>
      </trkpt>
      <trkpt lat="49.92371" lon="4.47122">
        <ele>342</ele>
        <time>2024-03-17T08:56:00Z</time>
      </trkpt>
      <trkpt lat="49.92367" lon="4.4713">
        <ele>342</ele>
        <time>2024-03-17T08:56:01Z</time>
      </trkpt>
      <trkpt lat="49.92364" lon="4.47138">
        <ele>342</ele>
        <time>2024-03-17T08:56:02Z</time>
      </trkpt>
      <trkpt lat="49.92361" lon="4.47146">
        <ele>342</ele>
        <time>2024-03-17T08:56:03Z</time>
      </trkpt>
      <trkpt lat="49.92358" lon="4.47154">
        <ele>342.2</ele>
        <time>2024-03-17T08:56:04Z</time>
      </trkpt>
      <trkpt lat="49.92355" lon="4.47161">
        <ele>342.4</ele>
        <time>2024-03-17T08:56:05Z</time>
      </trkpt>
      <trkpt lat="49.92352" lon="4.47169">
        <ele>342.4</ele>
        <time>2024-03-17T08:56:06Z</time>
      </trkpt>
      <trkpt lat="49.92349" lon="4.47176">
        <ele>342.8</ele>
        <time>2024-03-17T08:56:07Z</time>
      </trkpt>
      <trkpt lat="49.92346" lon="4.47184">
        <ele>343</ele>
        <time>2024-03-17T08:56:08Z</time>
      </trkpt>
      <trkpt lat="49.92344" lon="4.47191">
        <ele>343.2</ele>
        <time>2024-03-17T08:56:09Z</time>
      </trkpt>
      <trkpt lat="49.92341" lon="4.47198">
        <ele>343.4</ele>
        <time>2024-03-17T08:56:10Z</time>
      </trkpt>
      <trkpt lat="49.92338" lon="4.47205">
        <ele>343.4</ele>
        <time>2024-03-17T08:56:11Z</time>
      </trkpt>
      <trkpt lat="49.92336" lon="4.47212">
        <ele>343.6</ele>
        <time>2024-03-17T08:56:12Z</time>
      </trkpt>
      <trkpt lat="49.92333" lon="4.47219">
        <ele>344.2</ele>
        <time>2024-03-17T08:56:13Z</time>
      </trkpt>
      <trkpt lat="49.92331" lon="4.47226">
        <ele>344.6</ele>
        <time>2024-03-17T08:56:14Z</time>
      </trkpt>
      <trkpt lat="49.92328" lon="4.47232">
        <ele>345.4</ele>
        <time>2024-03-17T08:56:15Z</time>
      </trkpt>
      <trkpt lat="49.92326" lon="4.47239">
        <ele>346.4</ele>
        <time>2024-03-17T08:56:16Z</time>
      </trkpt>
      <trkpt lat="49.92323" lon="4.47246">
        <ele>347.2</ele>
        <time>2024-03-17T08:56:17Z</time>
      </trkpt>
      <trkpt lat="49.92321" lon="4.47252">
        <ele>347.4</ele>
        <time>2024-03-17T08:56:18Z</time>
      </trkpt>
      <trkpt lat="49.92319" lon="4.47259">
        <ele>347.6</ele>
        <time>2024-03-17T08:56:19Z</time>
      </trkpt>
      <trkpt lat="49.92317" lon="4.47266">
        <ele>348.2</ele>
        <time>2024-03-17T08:56:20Z</time>
      </trkpt>
      <trkpt lat="49.92314" lon="4.47273">
        <ele>348.2</ele>
        <time>2024-03-17T08:56:21Z</time>
      </trkpt>
      <trkpt lat="49.92312" lon="4.4728">
        <ele>348.6</ele>
        <time>2024-03-17T08:56:22Z</time>
      </trkpt>
      <trkpt lat="49.9231" lon="4.47287">
        <ele>348.8</ele>
        <time>2024-03-17T08:56:23Z</time>
      </trkpt>
      <trkpt lat="49.92309" lon="4.47294">
        <ele>349.2</ele>
        <time>2024-03-17T08:56:24Z</time>
      </trkpt>
      <trkpt lat="49.92307" lon="4.47302">
        <ele>349.4</ele>
        <time>2024-03-17T08:56:25Z</time>
      </trkpt>
      <trkpt lat="49.92305" lon="4.47309">
        <ele>349.6</ele>
        <time>2024-03-17T08:56:26Z</time>
      </trkpt>
      <trkpt lat="49.92303" lon="4.47316">
        <ele>349.6</ele>
        <time>2024-03-17T08:56:27Z</time>
      </trkpt>
      <trkpt lat="49.92301" lon="4.47324">
        <ele>349.8</ele>
        <time>2024-03-17T08:56:28Z</time>
      </trkpt>
      <trkpt lat="49.923" lon="4.47331">
        <ele>350.2</ele>
        <time>2024-03-17T08:56:29Z</time>
      </trkpt>
      <trkpt lat="49.92298" lon="4.47339">
        <ele>350.2</ele>
        <time>2024-03-17T08:56:30Z</time>
      </trkpt>
      <trkpt lat="49.92296" lon="4.47346">
        <ele>350.4</ele>
        <time>2024-03-17T08:56:31Z</time>
      </trkpt>
      <trkpt lat="49.92293" lon="4.47354">
        <ele>350.4</ele>
        <time>2024-03-17T08:56:32Z</time>
      </trkpt>
      <trkpt lat="49.92291" lon="4.47361">
        <ele>350.4</ele>
        <time>2024-03-17T08:56:33Z</time>
      </trkpt>
      <trkpt lat="49.92289" lon="4.47369">
        <ele>350.4</ele>
        <time>2024-03-17T08:56:34Z</time>
      </trkpt>
      <trkpt lat="49.92286" lon="4.47376">
        <ele>350.4</ele>
        <time>2024-03-17T08:56:35Z</time>
      </trkpt>
      <trkpt lat="49.92284" lon="4.47384">
        <ele>350.6</ele>
        <time>2024-03-17T08:56:36Z</time>
      </trkpt>
      <trkpt lat="49.92281" lon="4.47391">
        <ele>350.6</ele>
        <time>2024-03-17T08:56:37Z</time>
      </trkpt>
      <trkpt lat="49.92279" lon="4.47398">
        <ele>350.8</ele>
        <time>2024-03-17T08:56:38Z</time>
      </trkpt>
      <trkpt lat="49.92277" lon="4.47406">
        <ele>350.8</ele>
        <time>2024-03-17T08:56:39Z</time>
      </trkpt>
      <trkpt lat="49.92274" lon="4.47413">
        <ele>350.8</ele>
        <time>2024-03-17T08:56:40Z</time>
      </trkpt>
      <trkpt lat="49.92271" lon="4.4742">
        <ele>351</ele>
        <time>2024-03-17T08:56:41Z</time>
      </trkpt>
      <trkpt lat="49.92269" lon="4.47427">
        <ele>351.2</ele>
        <time>2024-03-17T08:56:42Z</time>
      </trkpt>
      <trkpt lat="49.92266" lon="4.47434">
        <ele>351.6</ele>
        <time>2024-03-17T08:56:43Z</time>
      </trkpt>
      <trkpt lat="49.92264" lon="4.47441">
        <ele>351.6</ele>
        <time>2024-03-17T08:56:44Z</time>
      </trkpt>
      <trkpt lat="49.92261" lon="4.47448">
        <ele>351.6</ele>
        <time>2024-03-17T08:56:45Z</time>
      </trkpt>
      <trkpt lat="49.92258" lon="4.47455">
        <ele>351.6</ele>
        <time>2024-03-17T08:56:46Z</time>
      </trkpt>
      <trkpt lat="49.92256" lon="4.47462">
        <ele>351.6</ele>
        <time>2024-03-17T08:56:47Z</time>
      </trkpt>
      <trkpt lat="49.92253" lon="4.47469">
        <ele>351.8</ele>
        <time>2024-03-17T08:56:48Z</time>
      </trkpt>
      <trkpt lat="49.92251" lon="4.47476">
        <ele>351.8</ele>
        <time>2024-03-17T08:56:49Z</time>
      </trkpt>
      <trkpt lat="49.92248" lon="4.47483">
        <ele>351.8</ele>
        <time>2024-03-17T08:56:50Z</time>
      </trkpt>
      <trkpt lat="49.92246" lon="4.4749">
        <ele>352</ele>
        <time>2024-03-17T08:56:51Z</time>
      </trkpt>
      <trkpt lat="49.92243" lon="4.47496">
        <ele>352</ele>
        <time>2024-03-17T08:56:52Z</time>
      </trkpt>
      <trkpt lat="49.92241" lon="4.47503">
        <ele>351.8</ele>
        <time>2024-03-17T08:56:53Z</time>
      </trkpt>
      <trkpt lat="49.92238" lon="4.4751">
        <ele>352</ele>
        <time>2024-03-17T08:56:54Z</time>
      </trkpt>
      <trkpt lat="49.92236" lon="4.47516">
        <ele>352</ele>
        <time>2024-03-17T08:56:55Z</time>
      </trkpt>
      <trkpt lat="49.92233" lon="4.47523">
        <ele>352</ele>
        <time>2024-03-17T08:56:56Z</time>
      </trkpt>
      <trkpt lat="49.92231" lon="4.4753">
        <ele>352</ele>
        <time>2024-03-17T08:56:57Z</time>
      </trkpt>
      <trkpt lat="49.92228" lon="4.47537">
        <ele>352.2</ele>
        <time>2024-03-17T08:56:58Z</time>
      </trkpt>
      <trkpt lat="49.92226" lon="4.47544">
        <ele>352.2</ele>
        <time>2024-03-17T08:56:59Z</time>
      </trkpt>
      <trkpt lat="49.92223" lon="4.47551">
        <ele>352.2</ele>
        <time>2024-03-17T08:57:00Z</time>
      </trkpt>
      <trkpt lat="49.92221" lon="4.47558">
        <ele>352.2</ele>
        <time>2024-03-17T08:57:01Z</time>
      </trkpt>
      <trkpt lat="49.92218" lon="4.47565">
        <ele>352.4</ele>
        <time>2024-03-17T08:57:02Z</time>
      </trkpt>
      <trkpt lat="49.92216" lon="4.47572">
        <ele>352.6</ele>
        <time>2024-03-17T08:57:03Z</time>
      </trkpt>
      <trkpt lat="49.92213" lon="4.47579">
        <ele>352.8</ele>
        <time>2024-03-17T08:57:04Z</time>
      </trkpt>
      <trkpt lat="49.9221" lon="4.47586">
        <ele>353.2</ele>
        <time>2024-03-17T08:57:05Z</time>
      </trkpt>
      <trkpt lat="49.92208" lon="4.47594">
        <ele>353.6</ele>
        <time>2024-03-17T08:57:06Z</time>
      </trkpt>
      <trkpt lat="49.92205" lon="4.47601">
        <ele>353.6</ele>
        <time>2024-03-17T08:57:07Z</time>
      </trkpt>
      <trkpt lat="49.92203" lon="4.47609">
        <ele>353.8</ele>
        <time>2024-03-17T08:57:08Z</time>
      </trkpt>
      <trkpt lat="49.922" lon="4.47617">
        <ele>354.2</ele>
        <time>2024-03-17T08:57:09Z</time>
      </trkpt>
      <trkpt lat="49.92197" lon="4.47624">
        <ele>354.2</ele>
        <time>2024-03-17T08:57:10Z</time>
      </trkpt>
      <trkpt lat="49.92195" lon="4.47632">
        <ele>354.6</ele>
        <time>2024-03-17T08:57:11Z</time>
      </trkpt>
      <trkpt lat="49.92192" lon="4.4764">
        <ele>354.6</ele>
        <time>2024-03-17T08:57:12Z</time>
      </trkpt>
      <trkpt lat="49.92189" lon="4.47648">
        <ele>354.6</ele>
        <time>2024-03-17T08:57:13Z</time>
      </trkpt>
      <trkpt lat="49.92187" lon="4.47657">
        <ele>354.8</ele>
        <time>2024-03-17T08:57:14Z</time>
      </trkpt>
      <trkpt lat="49.92184" lon="4.47665">
        <ele>354.8</ele>
        <time>2024-03-17T08:57:15Z</time>
      </trkpt>
      <trkpt lat="49.92181" lon="4.47673">
        <ele>355</ele>
        <time>2024-03-17T08:57:16Z</time>
      </trkpt>
      <trkpt lat="49.92179" lon="4.47682">
        <ele>355.2</ele>
        <time>2024-03-17T08:57:17Z</time>
      </trkpt>
      <trkpt lat="49.92177" lon="4.4769">
        <ele>355.2</ele>
        <time>2024-03-17T08:57:18Z</time>
      </trkpt>
      <trkpt lat="49.92174" lon="4.47699">
        <ele>355.2</ele>
        <time>2024-03-17T08:57:19Z</time>
      </trkpt>
      <trkpt lat="49.92172" lon="4.47707">
        <ele>355.2</ele>
        <time>2024-03-17T08:57:20Z</time>
      </trkpt>
      <trkpt lat="49.9217" lon="4.47716">
        <ele>355.2</ele>
        <time>2024-03-17T08:57:21Z</time>
      </trkpt>
      <trkpt lat="49.92168" lon="4.47725">
        <ele>355.2</ele>
        <time>2024-03-17T08:57:22Z</time>
      </trkpt>
      <trkpt lat="49.92166" lon="4.47735">
        <ele>355.2</ele>
        <time>2024-03-17T08:57:23Z</time>
      </trkpt>
      <trkpt lat="49.92164" lon="4.47744">
        <ele>355.2</ele>
        <time>2024-03-17T08:57:24Z</time>
      </trkpt>
      <trkpt lat="49.92162" lon="4.47754">
        <ele>355.2</ele>
        <time>2024-03-17T08:57:25Z</time>
      </trkpt>
      <trkpt lat="49.9216" lon="4.47764">
        <ele>355</ele>
        <time>2024-03-17T08:57:26Z</time>
      </trkpt>
      <trkpt lat="49.92158" lon="4.47774">
        <ele>355</ele>
        <time>2024-03-17T08:57:27Z</time>
      </trkpt>
      <trkpt lat="49.92156" lon="4.47784">
        <ele>355</ele>
        <time>2024-03-17T08:57:28Z</time>
      </trkpt>
      <trkpt lat="49.92155" lon="4.47794">
        <ele>355</ele>
        <time>2024-03-17T08:57:29Z</time>
      </trkpt>
      <trkpt lat="49.92153" lon="4.47805">
        <ele>355</ele>
        <time>2024-03-17T08:57:30Z</time>
      </trkpt>
      <trkpt lat="49.92151" lon="4.47816">
        <ele>354.8</ele>
        <time>2024-03-17T08:57:31Z</time>
      </trkpt>
      <trkpt lat="49.92149" lon="4.47827">
        <ele>354.6</ele>
        <time>2024-03-17T08:57:32Z</time>
      </trkpt>
      <trkpt lat="49.92147" lon="4.47838">
        <ele>354.4</ele>
        <time>2024-03-17T08:57:33Z</time>
      </trkpt>
      <trkpt lat="49.92145" lon="4.4785">
        <ele>354.4</ele>
        <time>2024-03-17T08:57:34Z</time>
      </trkpt>
      <trkpt lat="49.92143" lon="4.47861">
        <ele>354.4</ele>
        <time>2024-03-17T08:57:35Z</time>
      </trkpt>
      <trkpt lat="49.92141" lon="4.47873">
        <ele>354</ele>
        <time>2024-03-17T08:57:36Z</time>
      </trkpt>
      <trkpt lat="49.92139" lon="4.47885">
        <ele>353.8</ele>
        <time>2024-03-17T08:57:37Z</time>
      </trkpt>
      <trkpt lat="49.92137" lon="4.47897">
        <ele>353.4</ele>
        <time>2024-03-17T08:57:38Z</time>
      </trkpt>
      <trkpt lat="49.92135" lon="4.47909">
        <ele>353.2</ele>
        <time>2024-03-17T08:57:39Z</time>
      </trkpt>
      <trkpt lat="49.92133" lon="4.47921">
        <ele>353</ele>
        <time>2024-03-17T08:57:40Z</time>
      </trkpt>
      <trkpt lat="49.92131" lon="4.47934">
        <ele>352.8</ele>
        <time>2024-03-17T08:57:41Z</time>
      </trkpt>
      <trkpt lat="49.92128" lon="4.47946">
        <ele>352.4</ele>
        <time>2024-03-17T08:57:42Z</time>
      </trkpt>
      <trkpt lat="49.92126" lon="4.47959">
        <ele>352</ele>
        <time>2024-03-17T08:57:43Z</time>
      </trkpt>
      <trkpt lat="49.92124" lon="4.47971">
        <ele>351.6</ele>
        <time>2024-03-17T08:57:44Z</time>
      </trkpt>
      <trkpt lat="49.92122" lon="4.47984">
        <ele>351.6</ele>
        <time>2024-03-17T08:57:45Z</time>
      </trkpt>
      <trkpt lat="49.9212" lon="4.47996">
        <ele>350.8</ele>
        <time>2024-03-17T08:57:46Z</time>
      </trkpt>
      <trkpt lat="49.92118" lon="4.48009">
        <ele>350.2</ele>
        <time>2024-03-17T08:57:47Z</time>
      </trkpt>
      <trkpt lat="49.92116" lon="4.48021">
        <ele>350</ele>
        <time>2024-03-17T08:57:48Z</time>
      </trkpt>
      <trkpt lat="49.92114" lon="4.48033">
        <ele>349.8</ele>
        <time>2024-03-17T08:57:49Z</time>
      </trkpt>
      <trkpt lat="49.92112" lon="4.48045">
        <ele>349.8</ele>
        <time>2024-03-17T08:57:50Z</time>
      </trkpt>
      <trkpt lat="49.92111" lon="4.48057">
        <ele>349.4</ele>
        <time>2024-03-17T08:57:51Z</time>
      </trkpt>
      <trkpt lat="49.9211" lon="4.48069">
        <ele>349.2</ele>
        <time>2024-03-17T08:57:52Z</time>
      </trkpt>
      <trkpt lat="49.9211" lon="4.48081">
        <ele>348.8</ele>
        <time>2024-03-17T08:57:53Z</time>
      </trkpt>
      <trkpt lat="49.9211" lon="4.48092">
        <ele>348.6</ele>
        <time>2024-03-17T08:57:54Z</time>
      </trkpt>
      <trkpt lat="49.92111" lon="4.48103">
        <ele>348.4</ele>
        <time>2024-03-17T08:57:55Z</time>
      </trkpt>
      <trkpt lat="49.92111" lon="4.48114">
        <ele>348.4</ele>
        <time>2024-03-17T08:57:56Z</time>
      </trkpt>
      <trkpt lat="49.92112" lon="4.48125">
        <ele>348.4</ele>
        <time>2024-03-17T08:57:57Z</time>
      </trkpt>
      <trkpt lat="49.92113" lon="4.48135">
        <ele>348.4</ele>
        <time>2024-03-17T08:57:58Z</time>
      </trkpt>
      <trkpt lat="49.92114" lon="4.48145">
        <ele>348.4</ele>
        <time>2024-03-17T08:57:59Z</time>
      </trkpt>
      <trkpt lat="49.92116" lon="4.48155">
        <ele>348.4</ele>
        <time>2024-03-17T08:58:00Z</time>
      </trkpt>
      <trkpt lat="49.92117" lon="4.48165">
        <ele>348.4</ele>
        <time>2024-03-17T08:58:01Z</time>
      </trkpt>
      <trkpt lat="49.92118" lon="4.48174">
        <ele>348.4</ele>
        <time>2024-03-17T08:58:02Z</time>
      </trkpt>
      <trkpt lat="49.92119" lon="4.48184">
        <ele>348.4</ele>
        <time>2024-03-17T08:58:03Z</time>
      </trkpt>
      <trkpt lat="49.9212" lon="4.48193">
        <ele>348.6</ele>
        <time>2024-03-17T08:58:04Z</time>
      </trkpt>
      <trkpt lat="49.92121" lon="4.48203">
        <ele>348.4</ele>
        <time>2024-03-17T08:58:05Z</time>
      </trkpt>
      <trkpt lat="49.92122" lon="4.48212">
        <ele>348.6</ele>
        <time>2024-03-17T08:58:06Z</time>
      </trkpt>
      <trkpt lat="49.92123" lon="4.48221">
        <ele>348.8</ele>
        <time>2024-03-17T08:58:07Z</time>
      </trkpt>
      <trkpt lat="49.92124" lon="4.48231">
        <ele>348.8</ele>
        <time>2024-03-17T08:58:08Z</time>
      </trkpt>
      <trkpt lat="49.92125" lon="4.4824">
        <ele>349.2</ele>
        <time>2024-03-17T08:58:09Z</time>
      </trkpt>
      <trkpt lat="49.92126" lon="4.48249">
        <ele>349.4</ele>
        <time>2024-03-17T08:58:10Z</time>
      </trkpt>
      <trkpt lat="49.92127" lon="4.48258">
        <ele>349.6</ele>
        <time>2024-03-17T08:58:11Z</time>
      </trkpt>
      <trkpt lat="49.92128" lon="4.48267">
        <ele>349.8</ele>
        <time>2024-03-17T08:58:12Z</time>
      </trkpt>
      <trkpt lat="49.9213" lon="4.48276">
        <ele>350</ele>
        <time>2024-03-17T08:58:13Z</time>
      </trkpt>
      <trkpt lat="49.92131" lon="4.48285">
        <ele>350.2</ele>
        <time>2024-03-17T08:58:14Z</time>
      </trkpt>
      <trkpt lat="49.92132" lon="4.48295">
        <ele>350.4</ele>
        <time>2024-03-17T08:58:15Z</time>
      </trkpt>
      <trkpt lat="49.92133" lon="4.48304">
        <ele>350.6</ele>
        <time>2024-03-17T08:58:16Z</time>
      </trkpt>
      <trkpt lat="49.92134" lon="4.48312">
        <ele>350.6</ele>
        <time>2024-03-17T08:58:17Z</time>
      </trkpt>
      <trkpt lat="49.92135" lon="4.48321">
        <ele>351</ele>
        <time>2024-03-17T08:58:18Z</time>
      </trkpt>
      <trkpt lat="49.92136" lon="4.4833">
        <ele>351</ele>
        <time>2024-03-17T08:58:19Z</time>
      </trkpt>
      <trkpt lat="49.92137" lon="4.48339">
        <ele>351</ele>
        <time>2024-03-17T08:58:20Z</time>
      </trkpt>
      <trkpt lat="49.92138" lon="4.48348">
        <ele>351</ele>
        <time>2024-03-17T08:58:21Z</time>
      </trkpt>
      <trkpt lat="49.92139" lon="4.48357">
        <ele>351</ele>
        <time>2024-03-17T08:58:22Z</time>
      </trkpt>
      <trkpt lat="49.9214" lon="4.48366">
        <ele>351.2</ele>
        <time>2024-03-17T08:58:23Z</time>
      </trkpt>
      <trkpt lat="49.92141" lon="4.48374">
        <ele>351.6</ele>
        <time>2024-03-17T08:58:24Z</time>
      </trkpt>
      <trkpt lat="49.92141" lon="4.48383">
        <ele>351.6</ele>
        <time>2024-03-17T08:58:25Z</time>
      </trkpt>
      <trkpt lat="49.92142" lon="4.48392">
        <ele>351.8</ele>
        <time>2024-03-17T08:58:26Z</time>
      </trkpt>
      <trkpt lat="49.92143" lon="4.48401">
        <ele>352</ele>
        <time>2024-03-17T08:58:27Z</time>
      </trkpt>
      <trkpt lat="49.92144" lon="4.4841">
        <ele>352.2</ele>
        <time>2024-03-17T08:58:28Z</time>
      </trkpt>
      <trkpt lat="49.92144" lon="4.48418">
        <ele>352.2</ele>
        <time>2024-03-17T08:58:29Z</time>
      </trkpt>
      <trkpt lat="49.92145" lon="4.48427">
        <ele>352.2</ele>
        <time>2024-03-17T08:58:30Z</time>
      </trkpt>
      <trkpt lat="49.92145" lon="4.48436">
        <ele>352.4</ele>
        <time>2024-03-17T08:58:31Z</time>
      </trkpt>
      <trkpt lat="49.92145" lon="4.48445">
        <ele>352.6</ele>
        <time>2024-03-17T08:58:32Z</time>
      </trkpt>
      <trkpt lat="49.92145" lon="4.48453">
        <ele>352.8</ele>
        <time>2024-03-17T08:58:33Z</time>
      </trkpt>
      <trkpt lat="49.92146" lon="4.48462">
        <ele>353</ele>
        <time>2024-03-17T08:58:34Z</time>
      </trkpt>
      <trkpt lat="49.92145" lon="4.48471">
        <ele>352.8</ele>
        <time>2024-03-17T08:58:35Z</time>
      </trkpt>
      <trkpt lat="49.92145" lon="4.4848">
        <ele>352.8</ele>
        <time>2024-03-17T08:58:36Z</time>
      </trkpt>
      <trkpt lat="49.92145" lon="4.48489">
        <ele>353</ele>
        <time>2024-03-17T08:58:37Z</time>
      </trkpt>
      <trkpt lat="49.92145" lon="4.48498">
        <ele>353</ele>
        <time>2024-03-17T08:58:38Z</time>
      </trkpt>
      <trkpt lat="49.92144" lon="4.48507">
        <ele>353</ele>
        <time>2024-03-17T08:58:39Z</time>
      </trkpt>
      <trkpt lat="49.92144" lon="4.48515">
        <ele>353.2</ele>
        <time>2024-03-17T08:58:40Z</time>
      </trkpt>
      <trkpt lat="49.92143" lon="4.48524">
        <ele>353.2</ele>
        <time>2024-03-17T08:58:41Z</time>
      </trkpt>
      <trkpt lat="49.92143" lon="4.48533">
        <ele>353.2</ele>
        <time>2024-03-17T08:58:42Z</time>
      </trkpt>
      <trkpt lat="49.92142" lon="4.48541">
        <ele>353.4</ele>
        <time>2024-03-17T08:58:43Z</time>
      </trkpt>
      <trkpt lat="49.92142" lon="4.4855">
        <ele>353.4</ele>
        <time>2024-03-17T08:58:44Z</time>
      </trkpt>
      <trkpt lat="49.92141" lon="4.48559">
        <ele>353.6</ele>
        <time>2024-03-17T08:58:45Z</time>
      </trkpt>
      <trkpt lat="49.9214" lon="4.48568">
        <ele>353.6</ele>
        <time>2024-03-17T08:58:46Z</time>
      </trkpt>
      <trkpt lat="49.9214" lon="4.48576">
        <ele>353.8</ele>
        <time>2024-03-17T08:58:47Z</time>
      </trkpt>
      <trkpt lat="49.92139" lon="4.48585">
        <ele>354</ele>
        <time>2024-03-17T08:58:48Z</time>
      </trkpt>
      <trkpt lat="49.92138" lon="4.48594">
        <ele>354</ele>
        <time>2024-03-17T08:58:49Z</time>
      </trkpt>
      <trkpt lat="49.92138" lon="4.48603">
        <ele>354</ele>
        <time>2024-03-17T08:58:50Z</time>
      </trkpt>
      <trkpt lat="49.92137" lon="4.48612">
        <ele>354</ele>
        <time>2024-03-17T08:58:51Z</time>
      </trkpt>
      <trkpt lat="49.92136" lon="4.48621">
        <ele>354</ele>
        <time>2024-03-17T08:58:52Z</time>
      </trkpt>
      <trkpt lat="49.92136" lon="4.48629">
        <ele>354.6</ele>
        <time>2024-03-17T08:58:53Z</time>
      </trkpt>
      <trkpt lat="49.92135" lon="4.48639">
        <ele>354.8</ele>
        <time>2024-03-17T08:58:54Z</time>
      </trkpt>
      <trkpt lat="49.92134" lon="4.48648">
        <ele>354.8</ele>
        <time>2024-03-17T08:58:55Z</time>
      </trkpt>
      <trkpt lat="49.92133" lon="4.48657">
        <ele>355</ele>
        <time>2024-03-17T08:58:56Z</time>
      </trkpt>
      <trkpt lat="49.92132" lon="4.48666">
        <ele>355.2</ele>
        <time>2024-03-17T08:58:57Z</time>
      </trkpt>
      <trkpt lat="49.92131" lon="4.48676">
        <ele>355</ele>
        <time>2024-03-17T08:58:58Z</time>
      </trkpt>
      <trkpt lat="49.9213" lon="4.48686">
        <ele>355.2</ele>
        <time>2024-03-17T08:58:59Z</time>
      </trkpt>
      <trkpt lat="49.92128" lon="4.48695">
        <ele>355.2</ele>
        <time>2024-03-17T08:59:00Z</time>
      </trkpt>
      <trkpt lat="49.92127" lon="4.48705">
        <ele>355.4</ele>
        <time>2024-03-17T08:59:01Z</time>
      </trkpt>
      <trkpt lat="49.92125" lon="4.48715">
        <ele>355.2</ele>
        <time>2024-03-17T08:59:02Z</time>
      </trkpt>
      <trkpt lat="49.92122" lon="4.48724">
        <ele>355.4</ele>
        <time>2024-03-17T08:59:03Z</time>
      </trkpt>
      <trkpt lat="49.9212" lon="4.48734">
        <ele>355.4</ele>
        <time>2024-03-17T08:59:04Z</time>
      </trkpt>
      <trkpt lat="49.92117" lon="4.48744">
        <ele>355.2</ele>
        <time>2024-03-17T08:59:05Z</time>
      </trkpt>
      <trkpt lat="49.92114" lon="4.48754">
        <ele>355.2</ele>
        <time>2024-03-17T08:59:06Z</time>
      </trkpt>
      <trkpt lat="49.9211" lon="4.48764">
        <ele>355.2</ele>
        <time>2024-03-17T08:59:07Z</time>
      </trkpt>
      <trkpt lat="49.92107" lon="4.48774">
        <ele>355</ele>
        <time>2024-03-17T08:59:08Z</time>
      </trkpt>
      <trkpt lat="49.92103" lon="4.48783">
        <ele>354.8</ele>
        <time>2024-03-17T08:59:09Z</time>
      </trkpt>
      <trkpt lat="49.92099" lon="4.48793">
        <ele>354.8</ele>
        <time>2024-03-17T08:59:10Z</time>
      </trkpt>
      <trkpt lat="49.92095" lon="4.48803">
        <ele>354.8</ele>
        <time>2024-03-17T08:59:11Z</time>
      </trkpt>
      <trkpt lat="49.9209" lon="4.48812">
        <ele>354.2</ele>
        <time>2024-03-17T08:59:12Z</time>
      </trkpt>
      <trkpt lat="49.92086" lon="4.4882">
        <ele>354.2</ele>
        <time>2024-03-17T08:59:13Z</time>
      </trkpt>
      <trkpt lat="49.92081" lon="4.48829">
        <ele>353.8</ele>
        <time>2024-03-17T08:59:14Z</time>
      </trkpt>
      <trkpt lat="49.92076" lon="4.48837">
        <ele>353.4</ele>
        <time>2024-03-17T08:59:15Z</time>
      </trkpt>
      <trkpt lat="49.92071" lon="4.48845">
        <ele>353.4</ele>
        <time>2024-03-17T08:59:16Z</time>
      </trkpt>
      <trkpt lat="49.92065" lon="4.48852">
        <ele>353</ele>
        <time>2024-03-17T08:59:17Z</time>
      </trkpt>
      <trkpt lat="49.92059" lon="4.4886">
        <ele>353</ele>
        <time>2024-03-17T08:59:18Z</time>
      </trkpt>
      <trkpt lat="49.92054" lon="4.48867">
        <ele>352.6</ele>
        <time>2024-03-17T08:59:19Z</time>
      </trkpt>
      <trkpt lat="49.92048" lon="4.48874">
        <ele>352.6</ele>
        <time>2024-03-17T08:59:20Z</time>
      </trkpt>
      <trkpt lat="49.92042" lon="4.48881">
        <ele>352.8</ele>
        <time>2024-03-17T08:59:21Z</time>
      </trkpt>
      <trkpt lat="49.92036" lon="4.48889">
        <ele>352.4</ele>
        <time>2024-03-17T08:59:22Z</time>
      </trkpt>
      <trkpt lat="49.9203" lon="4.48896">
        <ele>351.8</ele>
        <time>2024-03-17T08:59:23Z</time>
      </trkpt>
      <trkpt lat="49.92025" lon="4.48903">
        <ele>351.8</ele>
        <time>2024-03-17T08:59:24Z</time>
      </trkpt>
      <trkpt lat="49.92019" lon="4.4891">
        <ele>351</ele>
        <time>2024-03-17T08:59:25Z</time>
      </trkpt>
      <trkpt lat="49.92013" lon="4.48918">
        <ele>350.4</ele>
        <time>2024-03-17T08:59:26Z</time>
      </trkpt>
      <trkpt lat="49.92008" lon="4.48925">
        <ele>350</ele>
        <time>2024-03-17T08:59:27Z</time>
      </trkpt>
      <trkpt lat="49.92002" lon="4.48932">
        <ele>349.8</ele>
        <time>2024-03-17T08:59:28Z</time>
      </trkpt>
      <trkpt lat="49.91997" lon="4.48939">
        <ele>349.4</ele>
        <time>2024-03-17T08:59:29Z</time>
      </trkpt>
      <trkpt lat="49.91992" lon="4.48945">
        <ele>349</ele>
        <time>2024-03-17T08:59:30Z</time>
      </trkpt>
      <trkpt lat="49.91987" lon="4.48951">
        <ele>348.8</ele>
        <time>2024-03-17T08:59:31Z</time>
      </trkpt>
      <trkpt lat="49.91981" lon="4.48955">
        <ele>348.8</ele>
        <time>2024-03-17T08:59:32Z</time>
      </trkpt>
      <trkpt lat="49.91976" lon="4.48956">
        <ele>348.8</ele>
        <time>2024-03-17T08:59:33Z</time>
      </trkpt>
      <trkpt lat="49.91971" lon="4.48954">
        <ele>348.8</ele>
        <time>2024-03-17T08:59:34Z</time>
      </trkpt>
      <trkpt lat="49.91968" lon="4.4895">
        <ele>348.8</ele>
        <time>2024-03-17T08:59:35Z</time>
      </trkpt>
      <trkpt lat="49.91966" lon="4.48944">
        <ele>348.8</ele>
        <time>2024-03-17T08:59:36Z</time>
      </trkpt>
      <trkpt lat="49.91964" lon="4.48938">
        <ele>348.6</ele>
        <time>2024-03-17T08:59:37Z</time>
      </trkpt>
      <trkpt lat="49.91961" lon="4.48932">
        <ele>348.6</ele>
        <time>2024-03-17T08:59:38Z</time>
      </trkpt>
      <trkpt lat="49.91958" lon="4.48928">
        <ele>348.8</ele>
        <time>2024-03-17T08:59:39Z</time>
      </trkpt>
      <trkpt lat="49.91955" lon="4.48926">
        <ele>348.8</ele>
        <time>2024-03-17T08:59:40Z</time>
      </trkpt>
      <trkpt lat="49.91952" lon="4.48926">
        <ele>348.6</ele>
        <time>2024-03-17T08:59:41Z</time>
      </trkpt>
      <trkpt lat="49.91949" lon="4.48927">
        <ele>349</ele>
        <time>2024-03-17T08:59:42Z</time>
      </trkpt>
      <trkpt lat="49.91945" lon="4.48928">
        <ele>349.6</ele>
        <time>2024-03-17T08:59:43Z</time>
      </trkpt>
      <trkpt lat="49.91941" lon="4.4893">
        <ele>349.8</ele>
        <time>2024-03-17T08:59:44Z</time>
      </trkpt>
      <trkpt lat="49.91937" lon="4.48932">
        <ele>350</ele>
        <time>2024-03-17T08:59:45Z</time>
      </trkpt>
      <trkpt lat="49.91932" lon="4.48935">
        <ele>350.4</ele>
        <time>2024-03-17T08:59:46Z</time>
      </trkpt>
      <trkpt lat="49.91928" lon="4.48939">
        <ele>350.4</ele>
        <time>2024-03-17T08:59:47Z</time>
      </trkpt>
      <trkpt lat="49.91923" lon="4.48944">
        <ele>350.4</ele>
        <time>2024-03-17T08:59:48Z</time>
      </trkpt>
      <trkpt lat="49.91919" lon="4.48948">
        <ele>350.6</ele>
        <time>2024-03-17T08:59:49Z</time>
      </trkpt>
      <trkpt lat="49.91914" lon="4.48953">
        <ele>350.8</ele>
        <time>2024-03-17T08:59:50Z</time>
      </trkpt>
      <trkpt lat="49.91909" lon="4.48958">
        <ele>350.8</ele>
        <time>2024-03-17T08:59:51Z</time>
      </trkpt>
      <trkpt lat="49.91905" lon="4.48964">
        <ele>350.6</ele>
        <time>2024-03-17T08:59:52Z</time>
      </trkpt>
      <trkpt lat="49.919" lon="4.48969">
        <ele>350.6</ele>
        <time>2024-03-17T08:59:53Z</time>
      </trkpt>
      <trkpt lat="49.91896" lon="4.48975">
        <ele>350.6</ele>
        <time>2024-03-17T08:59:54Z</time>
      </trkpt>
      <trkpt lat="49.91891" lon="4.48981">
        <ele>350.8</ele>
        <time>2024-03-17T08:59:55Z</time>
      </trkpt>
      <trkpt lat="49.91887" lon="4.48987">
        <ele>350.8</ele>
        <time>2024-03-17T08:59:56Z</time>
      </trkpt>
      <trkpt lat="49.91882" lon="4.48993">
        <ele>350.8</ele>
        <time>2024-03-17T08:59:57Z</time>
      </trkpt>
      <trkpt lat="49.91878" lon="4.48998">
        <ele>350.8</ele>
        <time>2024-03-17T08:59:58Z</time>
      </trkpt>
      <trkpt lat="49.91873" lon="4.49004">
        <ele>350.6</ele>
        <time>2024-03-17T08:59:59Z</time>
      </trkpt>
      <trkpt lat="49.91869" lon="4.4901">
        <ele>350.6</ele>
        <time>2024-03-17T09:00:00Z</time>
      </trkpt>
      <trkpt lat="49.91865" lon="4.49016">
        <ele>350.4</ele>
        <time>2024-03-17T09:00:01Z</time>
      </trkpt>
      <trkpt lat="49.91861" lon="4.49022">
        <ele>350.4</ele>
        <time>2024-03-17T09:00:02Z</time>
      </trkpt>
      <trkpt lat="49.91857" lon="4.49027">
        <ele>350.6</ele>
        <time>2024-03-17T09:00:03Z</time>
      </trkpt>
      <trkpt lat="49.91853" lon="4.49033">
        <ele>350.6</ele>
        <time>2024-03-17T09:00:04Z</time>
      </trkpt>
      <trkpt lat="49.91849" lon="4.49039">
        <ele>350.6</ele>
        <time>2024-03-17T09:00:05Z</time>
      </trkpt>
      <trkpt lat="49.91845" lon="4.49045">
        <ele>350.6</ele>
        <time>2024-03-17T09:00:06Z</time>
      </trkpt>
      <trkpt lat="49.91842" lon="4.4905">
        <ele>350.6</ele>
        <time>2024-03-17T09:00:07Z</time>
      </trkpt>
      <trkpt lat="49.91838" lon="4.49056">
        <ele>350.4</ele>
        <time>2024-03-17T09:00:08Z</time>
      </trkpt>
      <trkpt lat="49.91834" lon="4.49062">
        <ele>350.6</ele>
        <time>2024-03-17T09:00:09Z</time>
      </trkpt>
      <trkpt lat="49.91831" lon="4.49068">
        <ele>350.6</ele>
        <time>2024-03-17T09:00:10Z</time>
      </trkpt>
      <trkpt lat="49.91827" lon="4.49074">
        <ele>350.6</ele>
        <time>2024-03-17T09:00:11Z</time>
      </trkpt>
      <trkpt lat="49.91824" lon="4.4908">
        <ele>350.6</ele>
        <time>2024-03-17T09:00:12Z</time>
      </trkpt>
      <trkpt lat="49.9182" lon="4.49086">
        <ele>350.8</ele>
        <time>2024-03-17T09:00:13Z</time>
      </trkpt>
      <trkpt lat="49.91817" lon="4.49093">
        <ele>350.8</ele>
        <time>2024-03-17T09:00:14Z</time>
      </trkpt>
      <trkpt lat="49.91813" lon="4.49099">
        <ele>351</ele>
        <time>2024-03-17T09:00:15Z</time>
      </trkpt>
      <trkpt lat="49.91809" lon="4.49105">
        <ele>351</ele>
        <time>2024-03-17T09:00:16Z</time>
      </trkpt>
      <trkpt lat="49.91806" lon="4.49111">
        <ele>351.2</ele>
        <time>2024-03-17T09:00:17Z</time>
      </trkpt>
      <trkpt lat="49.91802" lon="4.49116">
        <ele>351.2</ele>
        <time>2024-03-17T09:00:18Z</time>
      </trkpt>
      <trkpt lat="49.91798" lon="4.49122">
        <ele>351.4</ele>
        <time>2024-03-17T09:00:19Z</time>
      </trkpt>
      <trkpt lat="49.91794" lon="4.49128">
        <ele>351.4</ele>
        <time>2024-03-17T09:00:20Z</time>
      </trkpt>
      <trkpt lat="49.91791" lon="4.49135">
        <ele>351.4</ele>
        <time>2024-03-17T09:00:21Z</time>
      </trkpt>
      <trkpt lat="49.91787" lon="4.49141">
        <ele>351.4</ele>
        <time>2024-03-17T09:00:22Z</time>
      </trkpt>
      <trkpt lat="49.91783" lon="4.49147">
        <ele>351.6</ele>
        <time>2024-03-17T09:00:23Z</time>
      </trkpt>
      <trkpt lat="49.9178" lon="4.49153">
        <ele>351.6</ele>
        <time>2024-03-17T09:00:24Z</time>
      </trkpt>
      <trkpt lat="49.91777" lon="4.49159">
        <ele>351.6</ele>
        <time>2024-03-17T09:00:25Z</time>
      </trkpt>
      <trkpt lat="49.91773" lon="4.49165">
        <ele>351.8</ele>
        <time>2024-03-17T09:00:26Z</time>
      </trkpt>
      <trkpt lat="49.9177" lon="4.49171">
        <ele>351.8</ele>
        <time>2024-03-17T09:00:27Z</time>
      </trkpt>
      <trkpt lat="49.91766" lon="4.49177">
        <ele>352</ele>
        <time>2024-03-17T09:00:28Z</time>
      </trkpt>
      <trkpt lat="49.91763" lon="4.49183">
        <ele>352</ele>
        <time>2024-03-17T09:00:29Z</time>
      </trkpt>
      <trkpt lat="49.91759" lon="4.49189">
        <ele>352</ele>
        <time>2024-03-17T09:00:30Z</time>
      </trkpt>
      <trkpt lat="49.91755" lon="4.49195">
        <ele>352</ele>
        <time>2024-03-17T09:00:31Z</time>
      </trkpt>
      <trkpt lat="49.91752" lon="4.49201">
        <ele>352</ele>
        <time>2024-03-17T09:00:32Z</time>
      </trkpt>
      <trkpt lat="49.91748" lon="4.49207">
        <ele>352.2</ele>
        <time>2024-03-17T09:00:33Z</time>
      </trkpt>
      <trkpt lat="49.91745" lon="4.49213">
        <ele>352.2</ele>
        <time>2024-03-17T09:00:34Z</time>
      </trkpt>
      <trkpt lat="49.91741" lon="4.4922">
        <ele>352.4</ele>
        <time>2024-03-17T09:00:35Z</time>
      </trkpt>
      <trkpt lat="49.91738" lon="4.49226">
        <ele>352.6</ele>
        <time>2024-03-17T09:00:36Z</time>
      </trkpt>
      <trkpt lat="49.91734" lon="4.49232">
        <ele>352.6</ele>
        <time>2024-03-17T09:00:37Z</time>
      </trkpt>
      <trkpt lat="49.91731" lon="4.49238">
        <ele>352.6</ele>
        <time>2024-03-17T09:00:38Z</time>
      </trkpt>
      <trkpt lat="49.91727" lon="4.49244">
        <ele>352.8</ele>
        <time>2024-03-17T09:00:39Z</time>
      </trkpt>
      <trkpt lat="49.91724" lon="4.4925">
        <ele>352.8</ele>
        <time>2024-03-17T09:00:40Z</time>
      </trkpt>
      <trkpt lat="49.9172" lon="4.49256">
        <ele>352.8</ele>
        <time>2024-03-17T09:00:41Z</time>
      </trkpt>
      <trkpt lat="49.91717" lon="4.49263">
        <ele>353</ele>
        <time>2024-03-17T09:00:42Z</time>
      </trkpt>
      <trkpt lat="49.91713" lon="4.49269">
        <ele>353.2</ele>
        <time>2024-03-17T09:00:43Z</time>
      </trkpt>
      <trkpt lat="49.9171" lon="4.49275">
        <ele>353.6</ele>
        <time>2024-03-17T09:00:44Z</time>
      </trkpt>
      <trkpt lat="49.91707" lon="4.49281">
        <ele>353.8</ele>
        <time>2024-03-17T09:00:45Z</time>
      </trkpt>
      <trkpt lat="49.91703" lon="4.49287">
        <ele>354</ele>
        <time>2024-03-17T09:00:46Z</time>
      </trkpt>
      <trkpt lat="49.917" lon="4.49293">
        <ele>354</ele>
        <time>2024-03-17T09:00:47Z</time>
      </trkpt>
      <trkpt lat="49.91697" lon="4.49299">
        <ele>354.2</ele>
        <time>2024-03-17T09:00:48Z</time>
      </trkpt>
      <trkpt lat="49.91694" lon="4.49305">
        <ele>354.4</ele>
        <time>2024-03-17T09:00:49Z</time>
      </trkpt>
      <trkpt lat="49.91691" lon="4.49312">
        <ele>354.2</ele>
        <time>2024-03-17T09:00:50Z</time>
      </trkpt>
      <trkpt lat="49.91687" lon="4.49318">
        <ele>354.2</ele>
        <time>2024-03-17T09:00:51Z</time>
      </trkpt>
      <trkpt lat="49.91684" lon="4.49324">
        <ele>354.4</ele>
        <time>2024-03-17T09:00:52Z</time>
      </trkpt>
      <trkpt lat="49.91681" lon="4.49331">
        <ele>354.4</ele>
        <time>2024-03-17T09:00:53Z</time>
      </trkpt>
      <trkpt lat="49.91678" lon="4.49337">
        <ele>354.4</ele>
        <time>2024-03-17T09:00:54Z</time>
      </trkpt>
      <trkpt lat="49.91675" lon="4.49344">
        <ele>354.4</ele>
        <time>2024-03-17T09:00:55Z</time>
      </trkpt>
      <trkpt lat="49.91672" lon="4.49351">
        <ele>354.6</ele>
        <time>2024-03-17T09:00:56Z</time>
      </trkpt>
      <trkpt lat="49.91669" lon="4.49358">
        <ele>354.6</ele>
        <time>2024-03-17T09:00:57Z</time>
      </trkpt>
      <trkpt lat="49.91667" lon="4.49365">
        <ele>354.6</ele>
        <time>2024-03-17T09:00:58Z</time>
      </trkpt>
      <trkpt lat="49.91664" lon="4.49372">
        <ele>354.6</ele>
        <time>2024-03-17T09:00:59Z</time>
      </trkpt>
      <trkpt lat="49.91661" lon="4.49379">
        <ele>354.6</ele>
        <time>2024-03-17T09:01:00Z</time>
      </trkpt>
      <trkpt lat="49.91659" lon="4.49386">
        <ele>354.6</ele>
        <time>2024-03-17T09:01:01Z</time>
      </trkpt>
      <trkpt lat="49.91656" lon="4.49393">
        <ele>354.6</ele>
        <time>2024-03-17T09:01:02Z</time>
      </trkpt>
      <trkpt lat="49.91654" lon="4.494">
        <ele>355</ele>
        <time>2024-03-17T09:01:03Z</time>
      </trkpt>
      <trkpt lat="49.91651" lon="4.49407">
        <ele>355.4</ele>
        <time>2024-03-17T09:01:04Z</time>
      </trkpt>
      <trkpt lat="49.91648" lon="4.49413">
        <ele>355.8</ele>
        <time>2024-03-17T09:01:05Z</time>
      </trkpt>
      <trkpt lat="49.91646" lon="4.4942">
        <ele>356.4</ele>
        <time>2024-03-17T09:01:06Z</time>
      </trkpt>
      <trkpt lat="49.91643" lon="4.49427">
        <ele>356.8</ele>
        <time>2024-03-17T09:01:07Z</time>
      </trkpt>
      <trkpt lat="49.9164" lon="4.49434">
        <ele>356.8</ele>
        <time>2024-03-17T09:01:08Z</time>
      </trkpt>
      <trkpt lat="49.91638" lon="4.49441">
        <ele>357</ele>
        <time>2024-03-17T09:01:09Z</time>
      </trkpt>
      <trkpt lat="49.91635" lon="4.49448">
        <ele>357.2</ele>
        <time>2024-03-17T09:01:10Z</time>
      </trkpt>
      <trkpt lat="49.91633" lon="4.49455">
        <ele>357.4</ele>
        <time>2024-03-17T09:01:11Z</time>
      </trkpt>
      <trkpt lat="49.9163" lon="4.49462">
        <ele>357.8</ele>
        <time>2024-03-17T09:01:12Z</time>
      </trkpt>
      <trkpt lat="49.91628" lon="4.49468">
        <ele>358.2</ele>
        <time>2024-03-17T09:01:13Z</time>
      </trkpt>
      <trkpt lat="49.91625" lon="4.49475">
        <ele>358.2</ele>
        <time>2024-03-17T09:01:14Z</time>
      </trkpt>
      <trkpt lat="49.91623" lon="4.49482">
        <ele>358.2</ele>
        <time>2024-03-17T09:01:15Z</time>
      </trkpt>
      <trkpt lat="49.91621" lon="4.49489">
        <ele>358.2</ele>
        <time>2024-03-17T09:01:16Z</time>
      </trkpt>
      <trkpt lat="49.91618" lon="4.49496">
        <ele>358.4</ele>
        <time>2024-03-17T09:01:17Z</time>
      </trkpt>
      <trkpt lat="49.91616" lon="4.49503">
        <ele>358.4</ele>
        <time>2024-03-17T09:01:18Z</time>
      </trkpt>
      <trkpt lat="49.91614" lon="4.4951">
        <ele>358.8</ele>
        <time>2024-03-17T09:01:19Z</time>
      </trkpt>
      <trkpt lat="49.91612" lon="4.49517">
        <ele>359</ele>
        <time>2024-03-17T09:01:20Z</time>
      </trkpt>
      <trkpt lat="49.91611" lon="4.49523">
        <ele>359</ele>
        <time>2024-03-17T09:01:21Z</time>
      </trkpt>
      <trkpt lat="49.91608" lon="4.4953">
        <ele>359.2</ele>
        <time>2024-03-17T09:01:22Z</time>
      </trkpt>
      <trkpt lat="49.91607" lon="4.49537">
        <ele>359.4</ele>
        <time>2024-03-17T09:01:23Z</time>
      </trkpt>
      <trkpt lat="49.91605" lon="4.49544">
        <ele>359.6</ele>
        <time>2024-03-17T09:01:24Z</time>
      </trkpt>
      <trkpt lat="49.91603" lon="4.4955">
        <ele>359.6</ele>
        <time>2024-03-17T09:01:25Z</time>
      </trkpt>
      <trkpt lat="49.91601" lon="4.49557">
        <ele>359.6</ele>
        <time>2024-03-17T09:01:26Z</time>
      </trkpt>
      <trkpt lat="49.916" lon="4.49563">
        <ele>359.8</ele>
        <time>2024-03-17T09:01:27Z</time>
      </trkpt>
      <trkpt lat="49.91598" lon="4.4957">
        <ele>359.8</ele>
        <time>2024-03-17T09:01:28Z</time>
      </trkpt>
      <trkpt lat="49.91597" lon="4.49576">
        <ele>360</ele>
        <time>2024-03-17T09:01:29Z</time>
      </trkpt>
      <trkpt lat="49.91595" lon="4.49583">
        <ele>360</ele>
        <time>2024-03-17T09:01:30Z</time>
      </trkpt>
      <trkpt lat="49.91593" lon="4.49589">
        <ele>360</ele>
        <time>2024-03-17T09:01:31Z</time>
      </trkpt>
      <trkpt lat="49.91592" lon="4.49596">
        <ele>360.2</ele>
        <time>2024-03-17T09:01:32Z</time>
      </trkpt>
      <trkpt lat="49.9159" lon="4.49602">
        <ele>360.2</ele>
        <time>2024-03-17T09:01:33Z</time>
      </trkpt>
      <trkpt lat="49.91588" lon="4.49608">
        <ele>360.2</ele>
        <time>2024-03-17T09:01:34Z</time>
      </trkpt>
      <trkpt lat="49.91586" lon="4.49615">
        <ele>360.4</ele>
        <time>2024-03-17T09:01:35Z</time>
      </trkpt>
      <trkpt lat="49.91585" lon="4.49621">
        <ele>360.6</ele>
        <time>2024-03-17T09:01:36Z</time>
      </trkpt>
      <trkpt lat="49.91583" lon="4.49627">
        <ele>360.8</ele>
        <time>2024-03-17T09:01:37Z</time>
      </trkpt>
      <trkpt lat="49.91581" lon="4.49633">
        <ele>360.8</ele>
        <time>2024-03-17T09:01:38Z</time>
      </trkpt>
      <trkpt lat="49.91579" lon="4.4964">
        <ele>361</ele>
        <time>2024-03-17T09:01:39Z</time>
      </trkpt>
      <trkpt lat="49.91578" lon="4.49646">
        <ele>361.2</ele>
        <time>2024-03-17T09:01:40Z</time>
      </trkpt>
      <trkpt lat="49.91576" lon="4.49652">
        <ele>361.4</ele>
        <time>2024-03-17T09:01:41Z</time>
      </trkpt>
      <trkpt lat="49.91574" lon="4.49658">
        <ele>361.6</ele>
        <time>2024-03-17T09:01:42Z</time>
      </trkpt>
      <trkpt lat="49.91573" lon="4.49664">
        <ele>362.2</ele>
        <time>2024-03-17T09:01:43Z</time>
      </trkpt>
      <trkpt lat="49.91571" lon="4.4967">
        <ele>362.6</ele>
        <time>2024-03-17T09:01:44Z</time>
      </trkpt>
      <trkpt lat="49.9157" lon="4.49676">
        <ele>363</ele>
        <time>2024-03-17T09:01:45Z</time>
      </trkpt>
      <trkpt lat="49.91568" lon="4.49682">
        <ele>363</ele>
        <time>2024-03-17T09:01:46Z</time>
      </trkpt>
      <trkpt lat="49.91567" lon="4.49689">
        <ele>363.4</ele>
        <time>2024-03-17T09:01:47Z</time>
      </trkpt>
      <trkpt lat="49.91565" lon="4.49695">
        <ele>363.4</ele>
        <time>2024-03-17T09:01:48Z</time>
      </trkpt>
      <trkpt lat="49.91563" lon="4.49701">
        <ele>363.4</ele>
        <time>2024-03-17T09:01:49Z</time>
      </trkpt>
      <trkpt lat="49.91562" lon="4.49707">
        <ele>363.6</ele>
        <time>2024-03-17T09:01:50Z</time>
      </trkpt>
      <trkpt lat="49.9156" lon="4.49713">
        <ele>363.6</ele>
        <time>2024-03-17T09:01:51Z</time>
      </trkpt>
      <trkpt lat="49.91558" lon="4.4972">
        <ele>363.6</ele>
        <time>2024-03-17T09:01:52Z</time>
      </trkpt>
      <trkpt lat="49.91557" lon="4.49726">
        <ele>363.8</ele>
        <time>2024-03-17T09:01:53Z</time>
      </trkpt>
      <trkpt lat="49.91555" lon="4.49732">
        <ele>363.8</ele>
        <time>2024-03-17T09:01:54Z</time>
      </trkpt>
      <trkpt lat="49.91554" lon="4.49738">
        <ele>364</ele>
        <time>2024-03-17T09:01:55Z</time>
      </trkpt>
      <trkpt lat="49.91552" lon="4.49744">
        <ele>364</ele>
        <time>2024-03-17T09:01:56Z</time>
      </trkpt>
      <trkpt lat="49.9155" lon="4.4975">
        <ele>364.6</ele>
        <time>2024-03-17T09:01:57Z</time>
      </trkpt>
      <trkpt lat="49.91549" lon="4.49756">
        <ele>364.8</ele>
        <time>2024-03-17T09:01:58Z</time>
      </trkpt>
      <trkpt lat="49.91547" lon="4.49763">
        <ele>365</ele>
        <time>2024-03-17T09:01:59Z</time>
      </trkpt>
      <trkpt lat="49.91545" lon="4.49769">
        <ele>365</ele>
        <time>2024-03-17T09:02:00Z</time>
      </trkpt>
      <trkpt lat="49.91544" lon="4.49775">
        <ele>365.2</ele>
        <time>2024-03-17T09:02:01Z</time>
      </trkpt>
      <trkpt lat="49.91542" lon="4.49781">
        <ele>365.2</ele>
        <time>2024-03-17T09:02:02Z</time>
      </trkpt>
      <trkpt lat="49.91541" lon="4.49787">
        <ele>365.4</ele>
        <time>2024-03-17T09:02:03Z</time>
      </trkpt>
      <trkpt lat="49.91539" lon="4.49793">
        <ele>365.6</ele>
        <time>2024-03-17T09:02:04Z</time>
      </trkpt>
      <trkpt lat="49.91537" lon="4.49799">
        <ele>365.8</ele>
        <time>2024-03-17T09:02:05Z</time>
      </trkpt>
      <trkpt lat="49.91536" lon="4.49805">
        <ele>365.8</ele>
        <time>2024-03-17T09:02:06Z</time>
      </trkpt>
      <trkpt lat="49.91534" lon="4.49811">
        <ele>365.8</ele>
        <time>2024-03-17T09:02:07Z</time>
      </trkpt>
      <trkpt lat="49.91533" lon="4.49817">
        <ele>365.8</ele>
        <time>2024-03-17T09:02:08Z</time>
      </trkpt>
      <trkpt lat="49.91531" lon="4.49823">
        <ele>366</ele>
        <time>2024-03-17T09:02:09Z</time>
      </trkpt>
      <trkpt lat="49.9153" lon="4.49829">
        <ele>366</ele>
        <time>2024-03-17T09:02:10Z</time>
      </trkpt>
      <trkpt lat="49.91528" lon="4.49835">
        <ele>366.8</ele>
        <time>2024-03-17T09:02:11Z</time>
      </trkpt>
      <trkpt lat="49.91526" lon="4.49841">
        <ele>367</ele>
        <time>2024-03-17T09:02:12Z</time>
      </trkpt>
      <trkpt lat="49.91524" lon="4.49847">
        <ele>367.4</ele>
        <time>2024-03-17T09:02:13Z</time>
      </trkpt>
      <trkpt lat="49.91522" lon="4.49852">
        <ele>367.6</ele>
        <time>2024-03-17T09:02:14Z</time>
      </trkpt>
      <trkpt lat="49.91518" lon="4.49856">
        <ele>367.8</ele>
        <time>2024-03-17T09:02:15Z</time>
      </trkpt>
      <trkpt lat="49.91514" lon="4.49859">
        <ele>368</ele>
        <time>2024-03-17T09:02:16Z</time>
      </trkpt>
      <trkpt lat="49.9151" lon="4.49861">
        <ele>368.4</ele>
        <time>2024-03-17T09:02:17Z</time>
      </trkpt>
      <trkpt lat="49.91506" lon="4.49863">
        <ele>368.4</ele>
        <time>2024-03-17T09:02:18Z</time>
      </trkpt>
      <trkpt lat="49.91503" lon="4.49867">
        <ele>368.4</ele>
        <time>2024-03-17T09:02:19Z</time>
      </trkpt>
      <trkpt lat="49.915" lon="4.49872">
        <ele>368.6</ele>
        <time>2024-03-17T09:02:20Z</time>
      </trkpt>
      <trkpt lat="49.91497" lon="4.49877">
        <ele>368.6</ele>
        <time>2024-03-17T09:02:21Z</time>
      </trkpt>
      <trkpt lat="49.91495" lon="4.49883">
        <ele>368.6</ele>
        <time>2024-03-17T09:02:22Z</time>
      </trkpt>
      <trkpt lat="49.91494" lon="4.4989">
        <ele>368.8</ele>
        <time>2024-03-17T09:02:23Z</time>
      </trkpt>
      <trkpt lat="49.91494" lon="4.49897">
        <ele>368.8</ele>
        <time>2024-03-17T09:02:24Z</time>
      </trkpt>
      <trkpt lat="49.91494" lon="4.49904">
        <ele>368.8</ele>
        <time>2024-03-17T09:02:25Z</time>
      </trkpt>
      <trkpt lat="49.91493" lon="4.49911">
        <ele>369</ele>
        <time>2024-03-17T09:02:26Z</time>
      </trkpt>
      <trkpt lat="49.91493" lon="4.49918">
        <ele>369.2</ele>
        <time>2024-03-17T09:02:27Z</time>
      </trkpt>
      <trkpt lat="49.91493" lon="4.49925">
        <ele>369.4</ele>
        <time>2024-03-17T09:02:28Z</time>
      </trkpt>
      <trkpt lat="49.91492" lon="4.49933">
        <ele>369.4</ele>
        <time>2024-03-17T09:02:29Z</time>
      </trkpt>
      <trkpt lat="49.91492" lon="4.4994">
        <ele>369.4</ele>
        <time>2024-03-17T09:02:30Z</time>
      </trkpt>
      <trkpt lat="49.91491" lon="4.49947">
        <ele>369.4</ele>
        <time>2024-03-17T09:02:31Z</time>
      </trkpt>
      <trkpt lat="49.91491" lon="4.49955">
        <ele>369.6</ele>
        <time>2024-03-17T09:02:32Z</time>
      </trkpt>
      <trkpt lat="49.9149" lon="4.49962">
        <ele>369.8</ele>
        <time>2024-03-17T09:02:33Z</time>
      </trkpt>
      <trkpt lat="49.9149" lon="4.4997">
        <ele>370</ele>
        <time>2024-03-17T09:02:34Z</time>
      </trkpt>
      <trkpt lat="49.91489" lon="4.49978">
        <ele>370</ele>
        <time>2024-03-17T09:02:35Z</time>
      </trkpt>
      <trkpt lat="49.91488" lon="4.49985">
        <ele>370.2</ele>
        <time>2024-03-17T09:02:36Z</time>
      </trkpt>
      <trkpt lat="49.91488" lon="4.49992">
        <ele>370.4</ele>
        <time>2024-03-17T09:02:37Z</time>
      </trkpt>
      <trkpt lat="49.91487" lon="4.5">
        <ele>370.6</ele>
        <time>2024-03-17T09:02:38Z</time>
      </trkpt>
      <trkpt lat="49.91487" lon="4.50007">
        <ele>370.8</ele>
        <time>2024-03-17T09:02:39Z</time>
      </trkpt>
      <trkpt lat="49.91486" lon="4.50014">
        <ele>370.8</ele>
        <time>2024-03-17T09:02:40Z</time>
      </trkpt>
      <trkpt lat="49.91485" lon="4.50022">
        <ele>370.8</ele>
        <time>2024-03-17T09:02:41Z</time>
      </trkpt>
      <trkpt lat="49.91485" lon="4.50029">
        <ele>371.2</ele>
        <time>2024-03-17T09:02:42Z</time>
      </trkpt>
      <trkpt lat="49.91484" lon="4.50036">
        <ele>371.2</ele>
        <time>2024-03-17T09:02:43Z</time>
      </trkpt>
      <trkpt lat="49.91484" lon="4.50043">
        <ele>371.2</ele>
        <time>2024-03-17T09:02:44Z</time>
      </trkpt>
      <trkpt lat="49.91483" lon="4.50051">
        <ele>371.4</ele>
        <time>2024-03-17T09:02:45Z</time>
      </trkpt>
      <trkpt lat="49.91483" lon="4.50058">
        <ele>371.4</ele>
        <time>2024-03-17T09:02:46Z</time>
      </trkpt>
      <trkpt lat="49.91482" lon="4.50066">
        <ele>372.4</ele>
        <time>2024-03-17T09:02:47Z</time>
      </trkpt>
      <trkpt lat="49.91482" lon="4.50073">
        <ele>372.4</ele>
        <time>2024-03-17T09:02:48Z</time>
      </trkpt>
      <trkpt lat="49.91481" lon="4.50081">
        <ele>373</ele>
        <time>2024-03-17T09:02:49Z</time>
      </trkpt>
      <trkpt lat="49.91481" lon="4.50088">
        <ele>373</ele>
        <time>2024-03-17T09:02:50Z</time>
      </trkpt>
      <trkpt lat="49.9148" lon="4.50096">
        <ele>373</ele>
        <time>2024-03-17T09:02:51Z</time>
      </trkpt>
      <trkpt lat="49.91479" lon="4.50103">
        <ele>373.4</ele>
        <time>2024-03-17T09:02:52Z</time>
      </trkpt>
      <trkpt lat="49.91479" lon="4.50111">
        <ele>373.4</ele>
        <time>2024-03-17T09:02:53Z</time>
      </trkpt>
      <trkpt lat="49.91478" lon="4.50118">
        <ele>373.4</ele>
        <time>2024-03-17T09:02:54Z</time>
      </trkpt>
      <trkpt lat="49.91478" lon="4.50126">
        <ele>373.6</ele>
        <time>2024-03-17T09:02:55Z</time>
      </trkpt>
      <trkpt lat="49.91477" lon="4.50134">
        <ele>373.6</ele>
        <time>2024-03-17T09:02:56Z</time>
      </trkpt>
      <trkpt lat="49.91476" lon="4.50141">
        <ele>373.6</ele>
        <time>2024-03-17T09:02:57Z</time>
      </trkpt>
      <trkpt lat="49.91476" lon="4.50148">
        <ele>373.6</ele>
        <time>2024-03-17T09:02:58Z</time>
      </trkpt>
      <trkpt lat="49.91475" lon="4.50155">
        <ele>373.8</ele>
        <time>2024-03-17T09:02:59Z</time>
      </trkpt>
      <trkpt lat="49.91475" lon="4.50162">
        <ele>374</ele>
        <time>2024-03-17T09:03:00Z</time>
      </trkpt>
      <trkpt lat="49.91474" lon="4.50169">
        <ele>374</ele>
        <time>2024-03-17T09:03:01Z</time>
      </trkpt>
      <trkpt lat="49.91474" lon="4.50177">
        <ele>374.2</ele>
        <time>2024-03-17T09:03:02Z</time>
      </trkpt>
      <trkpt lat="49.91473" lon="4.50184">
        <ele>374.2</ele>
        <time>2024-03-17T09:03:03Z</time>
      </trkpt>
      <trkpt lat="49.91473" lon="4.50191">
        <ele>374.6</ele>
        <time>2024-03-17T09:03:04Z</time>
      </trkpt>
      <trkpt lat="49.91472" lon="4.50199">
        <ele>374.6</ele>
        <time>2024-03-17T09:03:05Z</time>
      </trkpt>
      <trkpt lat="49.91472" lon="4.50206">
        <ele>374.6</ele>
        <time>2024-03-17T09:03:06Z</time>
      </trkpt>
      <trkpt lat="49.91471" lon="4.50214">
        <ele>375</ele>
        <time>2024-03-17T09:03:07Z</time>
      </trkpt>
      <trkpt lat="49.9147" lon="4.50221">
        <ele>375</ele>
        <time>2024-03-17T09:03:08Z</time>
      </trkpt>
      <trkpt lat="49.9147" lon="4.5023">
        <ele>375.2</ele>
        <time>2024-03-17T09:03:09Z</time>
      </trkpt>
      <trkpt lat="49.91469" lon="4.50238">
        <ele>375.2</ele>
        <time>2024-03-17T09:03:10Z</time>
      </trkpt>
      <trkpt lat="49.91469" lon="4.50246">
        <ele>375.4</ele>
        <time>2024-03-17T09:03:11Z</time>
      </trkpt>
      <trkpt lat="49.91468" lon="4.50254">
        <ele>375.4</ele>
        <time>2024-03-17T09:03:12Z</time>
      </trkpt>
      <trkpt lat="49.91468" lon="4.50262">
        <ele>375.6</ele>
        <time>2024-03-17T09:03:13Z</time>
      </trkpt>
      <trkpt lat="49.91467" lon="4.5027">
        <ele>375.8</ele>
        <time>2024-03-17T09:03:14Z</time>
      </trkpt>
      <trkpt lat="49.91467" lon="4.50278">
        <ele>375.8</ele>
        <time>2024-03-17T09:03:15Z</time>
      </trkpt>
      <trkpt lat="49.91466" lon="4.50286">
        <ele>376</ele>
        <time>2024-03-17T09:03:16Z</time>
      </trkpt>
      <trkpt lat="49.91466" lon="4.50294">
        <ele>376</ele>
        <time>2024-03-17T09:03:17Z</time>
      </trkpt>
      <trkpt lat="49.91465" lon="4.50302">
        <ele>376</ele>
        <time>2024-03-17T09:03:18Z</time>
      </trkpt>
      <trkpt lat="49.91465" lon="4.5031">
        <ele>376.2</ele>
        <time>2024-03-17T09:03:19Z</time>
      </trkpt>
      <trkpt lat="49.91464" lon="4.50317">
        <ele>376</ele>
        <time>2024-03-17T09:03:20Z</time>
      </trkpt>
      <trkpt lat="49.91463" lon="4.50325">
        <ele>376.2</ele>
        <time>2024-03-17T09:03:21Z</time>
      </trkpt>
      <trkpt lat="49.91463" lon="4.50333">
        <ele>376.2</ele>
        <time>2024-03-17T09:03:22Z</time>
      </trkpt>
      <trkpt lat="49.91462" lon="4.50341">
        <ele>376.2</ele>
        <time>2024-03-17T09:03:23Z</time>
      </trkpt>
      <trkpt lat="49.91462" lon="4.5035">
        <ele>376.4</ele>
        <time>2024-03-17T09:03:24Z</time>
      </trkpt>
      <trkpt lat="49.91462" lon="4.50358">
        <ele>376.6</ele>
        <time>2024-03-17T09:03:25Z</time>
      </trkpt>
      <trkpt lat="49.91461" lon="4.50367">
        <ele>376.6</ele>
        <time>2024-03-17T09:03:26Z</time>
      </trkpt>
      <trkpt lat="49.91461" lon="4.50375">
        <ele>376.6</ele>
        <time>2024-03-17T09:03:27Z</time>
      </trkpt>
      <trkpt lat="49.91461" lon="4.50384">
        <ele>376.6</ele>
        <time>2024-03-17T09:03:28Z</time>
      </trkpt>
      <trkpt lat="49.9146" lon="4.50393">
        <ele>376.8</ele>
        <time>2024-03-17T09:03:29Z</time>
      </trkpt>
      <trkpt lat="49.91459" lon="4.50402">
        <ele>376.8</ele>
        <time>2024-03-17T09:03:30Z</time>
      </trkpt>
      <trkpt lat="49.91459" lon="4.5041">
        <ele>376.8</ele>
        <time>2024-03-17T09:03:31Z</time>
      </trkpt>
      <trkpt lat="49.91458" lon="4.50419">
        <ele>376.8</ele>
        <time>2024-03-17T09:03:32Z</time>
      </trkpt>
      <trkpt lat="49.91457" lon="4.50428">
        <ele>376.8</ele>
        <time>2024-03-17T09:03:33Z</time>
      </trkpt>
      <trkpt lat="49.91457" lon="4.50437">
        <ele>376.8</ele>
        <time>2024-03-17T09:03:34Z</time>
      </trkpt>
      <trkpt lat="49.91456" lon="4.50446">
        <ele>376.8</ele>
        <time>2024-03-17T09:03:35Z</time>
      </trkpt>
      <trkpt lat="49.91456" lon="4.50455">
        <ele>376.8</ele>
        <time>2024-03-17T09:03:36Z</time>
      </trkpt>
      <trkpt lat="49.91455" lon="4.50464">
        <ele>376.8</ele>
        <time>2024-03-17T09:03:37Z</time>
      </trkpt>
      <trkpt lat="49.91454" lon="4.50474">
        <ele>376.8</ele>
        <time>2024-03-17T09:03:38Z</time>
      </trkpt>
      <trkpt lat="49.91453" lon="4.50482">
        <ele>376.8</ele>
        <time>2024-03-17T09:03:39Z</time>
      </trkpt>
      <trkpt lat="49.91453" lon="4.50491">
        <ele>376.8</ele>
        <time>2024-03-17T09:03:40Z</time>
      </trkpt>
      <trkpt lat="49.91452" lon="4.505">
        <ele>376.8</ele>
        <time>2024-03-17T09:03:41Z</time>
      </trkpt>
      <trkpt lat="49.91451" lon="4.50509">
        <ele>376.6</ele>
        <time>2024-03-17T09:03:42Z</time>
      </trkpt>
      <trkpt lat="49.9145" lon="4.50518">
        <ele>376.8</ele>
        <time>2024-03-17T09:03:43Z</time>
      </trkpt>
      <trkpt lat="49.9145" lon="4.50527">
        <ele>376.8</ele>
        <time>2024-03-17T09:03:44Z</time>
      </trkpt>
      <trkpt lat="49.91449" lon="4.50536">
        <ele>376.6</ele>
        <time>2024-03-17T09:03:45Z</time>
      </trkpt>
      <trkpt lat="49.91448" lon="4.50545">
        <ele>376.8</ele>
        <time>2024-03-17T09:03:46Z</time>
      </trkpt>
      <trkpt lat="49.91447" lon="4.50554">
        <ele>376.8</ele>
        <time>2024-03-17T09:03:47Z</time>
      </trkpt>
      <trkpt lat="49.91447" lon="4.50562">
        <ele>376.8</ele>
        <time>2024-03-17T09:03:48Z</time>
      </trkpt>
      <trkpt lat="49.91446" lon="4.50571">
        <ele>377</ele>
        <time>2024-03-17T09:03:49Z</time>
      </trkpt>
      <trkpt lat="49.91446" lon="4.5058">
        <ele>377</ele>
        <time>2024-03-17T09:03:50Z</time>
      </trkpt>
      <trkpt lat="49.91445" lon="4.50589">
        <ele>377</ele>
        <time>2024-03-17T09:03:51Z</time>
      </trkpt>
      <trkpt lat="49.91444" lon="4.50598">
        <ele>377.2</ele>
        <time>2024-03-17T09:03:52Z</time>
      </trkpt>
      <trkpt lat="49.91443" lon="4.50607">
        <ele>377.2</ele>
        <time>2024-03-17T09:03:53Z</time>
      </trkpt>
      <trkpt lat="49.91443" lon="4.50616">
        <ele>377.2</ele>
        <time>2024-03-17T09:03:54Z</time>
      </trkpt>
      <trkpt lat="49.91442" lon="4.50625">
        <ele>377.4</ele>
        <time>2024-03-17T09:03:55Z</time>
      </trkpt>
      <trkpt lat="49.91441" lon="4.50633">
        <ele>377.6</ele>
        <time>2024-03-17T09:03:56Z</time>
      </trkpt>
      <trkpt lat="49.91441" lon="4.50642">
        <ele>377.8</ele>
        <time>2024-03-17T09:03:57Z</time>
      </trkpt>
      <trkpt lat="49.9144" lon="4.50651">
        <ele>377.8</ele>
        <time>2024-03-17T09:03:58Z</time>
      </trkpt>
      <trkpt lat="49.91439" lon="4.5066">
        <ele>377.8</ele>
        <time>2024-03-17T09:03:59Z</time>
      </trkpt>
      <trkpt lat="49.91439" lon="4.5067">
        <ele>378</ele>
        <time>2024-03-17T09:04:00Z</time>
      </trkpt>
      <trkpt lat="49.91438" lon="4.50679">
        <ele>378</ele>
        <time>2024-03-17T09:04:01Z</time>
      </trkpt>
      <trkpt lat="49.91437" lon="4.50688">
        <ele>378</ele>
        <time>2024-03-17T09:04:02Z</time>
      </trkpt>
      <trkpt lat="49.91437" lon="4.50697">
        <ele>378</ele>
        <time>2024-03-17T09:04:03Z</time>
      </trkpt>
      <trkpt lat="49.91436" lon="4.50706">
        <ele>378</ele>
        <time>2024-03-17T09:04:04Z</time>
      </trkpt>
      <trkpt lat="49.91435" lon="4.50715">
        <ele>378.2</ele>
        <time>2024-03-17T09:04:05Z</time>
      </trkpt>
      <trkpt lat="49.91435" lon="4.50724">
        <ele>378</ele>
        <time>2024-03-17T09:04:06Z</time>
      </trkpt>
      <trkpt lat="49.91434" lon="4.50733">
        <ele>378</ele>
        <time>2024-03-17T09:04:07Z</time>
      </trkpt>
      <trkpt lat="49.91434" lon="4.50742">
        <ele>378</ele>
        <time>2024-03-17T09:04:08Z</time>
      </trkpt>
      <trkpt lat="49.91433" lon="4.5075">
        <ele>377.8</ele>
        <time>2024-03-17T09:04:09Z</time>
      </trkpt>
      <trkpt lat="49.91432" lon="4.50759">
        <ele>378</ele>
        <time>2024-03-17T09:04:10Z</time>
      </trkpt>
      <trkpt lat="49.91432" lon="4.50768">
        <ele>378</ele>
        <time>2024-03-17T09:04:11Z</time>
      </trkpt>
      <trkpt lat="49.91431" lon="4.50777">
        <ele>378</ele>
        <time>2024-03-17T09:04:12Z</time>
      </trkpt>
      <trkpt lat="49.9143" lon="4.50786">
        <ele>377.8</ele>
        <time>2024-03-17T09:04:13Z</time>
      </trkpt>
      <trkpt lat="49.9143" lon="4.50795">
        <ele>378</ele>
        <time>2024-03-17T09:04:14Z</time>
      </trkpt>
      <trkpt lat="49.91429" lon="4.50804">
        <ele>378</ele>
        <time>2024-03-17T09:04:15Z</time>
      </trkpt>
      <trkpt lat="49.91429" lon="4.50812">
        <ele>378</ele>
        <time>2024-03-17T09:04:16Z</time>
      </trkpt>
      <trkpt lat="49.91428" lon="4.50821">
        <ele>378</ele>
        <time>2024-03-17T09:04:17Z</time>
      </trkpt>
      <trkpt lat="49.91428" lon="4.5083">
        <ele>377.8</ele>
        <time>2024-03-17T09:04:18Z</time>
      </trkpt>
      <trkpt lat="49.91427" lon="4.50839">
        <ele>378</ele>
        <time>2024-03-17T09:04:19Z</time>
      </trkpt>
      <trkpt lat="49.91426" lon="4.50848">
        <ele>378</ele>
        <time>2024-03-17T09:04:20Z</time>
      </trkpt>
      <trkpt lat="49.91426" lon="4.50857">
        <ele>378</ele>
        <time>2024-03-17T09:04:21Z</time>
      </trkpt>
      <trkpt lat="49.91425" lon="4.50866">
        <ele>378.2</ele>
        <time>2024-03-17T09:04:22Z</time>
      </trkpt>
      <trkpt lat="49.91424" lon="4.50875">
        <ele>378.2</ele>
        <time>2024-03-17T09:04:23Z</time>
      </trkpt>
      <trkpt lat="49.91424" lon="4.50884">
        <ele>378.2</ele>
        <time>2024-03-17T09:04:24Z</time>
      </trkpt>
      <trkpt lat="49.91423" lon="4.50894">
        <ele>378.2</ele>
        <time>2024-03-17T09:04:25Z</time>
      </trkpt>
      <trkpt lat="49.91423" lon="4.50903">
        <ele>378.4</ele>
        <time>2024-03-17T09:04:26Z</time>
      </trkpt>
      <trkpt lat="49.91422" lon="4.50912">
        <ele>378.4</ele>
        <time>2024-03-17T09:04:27Z</time>
      </trkpt>
      <trkpt lat="49.91422" lon="4.50921">
        <ele>378.4</ele>
        <time>2024-03-17T09:04:28Z</time>
      </trkpt>
      <trkpt lat="49.91422" lon="4.50931">
        <ele>378.4</ele>
        <time>2024-03-17T09:04:29Z</time>
      </trkpt>
      <trkpt lat="49.91421" lon="4.5094">
        <ele>378.4</ele>
        <time>2024-03-17T09:04:30Z</time>
      </trkpt>
      <trkpt lat="49.9142" lon="4.5095">
        <ele>378.2</ele>
        <time>2024-03-17T09:04:31Z</time>
      </trkpt>
      <trkpt lat="49.9142" lon="4.5096">
        <ele>378.2</ele>
        <time>2024-03-17T09:04:32Z</time>
      </trkpt>
      <trkpt lat="49.91419" lon="4.50969">
        <ele>378.4</ele>
        <time>2024-03-17T09:04:33Z</time>
      </trkpt>
      <trkpt lat="49.91418" lon="4.50979">
        <ele>378.6</ele>
        <time>2024-03-17T09:04:34Z</time>
      </trkpt>
      <trkpt lat="49.91417" lon="4.50988">
        <ele>378.6</ele>
        <time>2024-03-17T09:04:35Z</time>
      </trkpt>
      <trkpt lat="49.91417" lon="4.50998">
        <ele>378.6</ele>
        <time>2024-03-17T09:04:36Z</time>
      </trkpt>
      <trkpt lat="49.91416" lon="4.51007">
        <ele>378.6</ele>
        <time>2024-03-17T09:04:37Z</time>
      </trkpt>
      <trkpt lat="49.91416" lon="4.51017">
        <ele>378.6</ele>
        <time>2024-03-17T09:04:38Z</time>
      </trkpt>
      <trkpt lat="49.91415" lon="4.51027">
        <ele>378.6</ele>
        <time>2024-03-17T09:04:39Z</time>
      </trkpt>
      <trkpt lat="49.91414" lon="4.51037">
        <ele>378.6</ele>
        <time>2024-03-17T09:04:40Z</time>
      </trkpt>
      <trkpt lat="49.91414" lon="4.51046">
        <ele>378.8</ele>
        <time>2024-03-17T09:04:41Z</time>
      </trkpt>
      <trkpt lat="49.91413" lon="4.51056">
        <ele>378.8</ele>
        <time>2024-03-17T09:04:42Z</time>
      </trkpt>
      <trkpt lat="49.91412" lon="4.51066">
        <ele>378.8</ele>
        <time>2024-03-17T09:04:43Z</time>
      </trkpt>
      <trkpt lat="49.91411" lon="4.51076">
        <ele>378.8</ele>
        <time>2024-03-17T09:04:44Z</time>
      </trkpt>
      <trkpt lat="49.91411" lon="4.51086">
        <ele>379</ele>
        <time>2024-03-17T09:04:45Z</time>
      </trkpt>
      <trkpt lat="49.9141" lon="4.51096">
        <ele>379</ele>
        <time>2024-03-17T09:04:46Z</time>
      </trkpt>
      <trkpt lat="49.91409" lon="4.51105">
        <ele>379</ele>
        <time>2024-03-17T09:04:47Z</time>
      </trkpt>
      <trkpt lat="49.91409" lon="4.51115">
        <ele>379.2</ele>
        <time>2024-03-17T09:04:48Z</time>
      </trkpt>
      <trkpt lat="49.91408" lon="4.51124">
        <ele>379.4</ele>
        <time>2024-03-17T09:04:49Z</time>
      </trkpt>
      <trkpt lat="49.91407" lon="4.51134">
        <ele>379.4</ele>
        <time>2024-03-17T09:04:50Z</time>
      </trkpt>
      <trkpt lat="49.91407" lon="4.51143">
        <ele>379.4</ele>
        <time>2024-03-17T09:04:51Z</time>
      </trkpt>
      <trkpt lat="49.91406" lon="4.51153">
        <ele>379.6</ele>
        <time>2024-03-17T09:04:52Z</time>
      </trkpt>
      <trkpt lat="49.91405" lon="4.51162">
        <ele>379.4</ele>
        <time>2024-03-17T09:04:53Z</time>
      </trkpt>
      <trkpt lat="49.91404" lon="4.51172">
        <ele>379.4</ele>
        <time>2024-03-17T09:04:54Z</time>
      </trkpt>
      <trkpt lat="49.91404" lon="4.51181">
        <ele>379.6</ele>
        <time>2024-03-17T09:04:55Z</time>
      </trkpt>
      <trkpt lat="49.91403" lon="4.51191">
        <ele>379.6</ele>
        <time>2024-03-17T09:04:56Z</time>
      </trkpt>
      <trkpt lat="49.91402" lon="4.512">
        <ele>379.6</ele>
        <time>2024-03-17T09:04:57Z</time>
      </trkpt>
      <trkpt lat="49.91402" lon="4.5121">
        <ele>379.8</ele>
        <time>2024-03-17T09:04:58Z</time>
      </trkpt>
      <trkpt lat="49.91401" lon="4.51219">
        <ele>379.8</ele>
        <time>2024-03-17T09:04:59Z</time>
      </trkpt>
      <trkpt lat="49.914" lon="4.51229">
        <ele>379.8</ele>
        <time>2024-03-17T09:05:00Z</time>
      </trkpt>
      <trkpt lat="49.91399" lon="4.51238">
        <ele>379.8</ele>
        <time>2024-03-17T09:05:01Z</time>
      </trkpt>
      <trkpt lat="49.91399" lon="4.51247">
        <ele>380</ele>
        <time>2024-03-17T09:05:02Z</time>
      </trkpt>
      <trkpt lat="49.91398" lon="4.51257">
        <ele>380</ele>
        <time>2024-03-17T09:05:03Z</time>
      </trkpt>
      <trkpt lat="49.91398" lon="4.51266">
        <ele>380</ele>
        <time>2024-03-17T09:05:04Z</time>
      </trkpt>
      <trkpt lat="49.91397" lon="4.51276">
        <ele>380</ele>
        <time>2024-03-17T09:05:05Z</time>
      </trkpt>
      <trkpt lat="49.91396" lon="4.51285">
        <ele>379.8</ele>
        <time>2024-03-17T09:05:06Z</time>
      </trkpt>
      <trkpt lat="49.91396" lon="4.51294">
        <ele>380</ele>
        <time>2024-03-17T09:05:07Z</time>
      </trkpt>
      <trkpt lat="49.91395" lon="4.51304">
        <ele>379.8</ele>
        <time>2024-03-17T09:05:08Z</time>
      </trkpt>
      <trkpt lat="49.91394" lon="4.51313">
        <ele>380</ele>
        <time>2024-03-17T09:05:09Z</time>
      </trkpt>
      <trkpt lat="49.91394" lon="4.51323">
        <ele>380.2</ele>
        <time>2024-03-17T09:05:10Z</time>
      </trkpt>
      <trkpt lat="49.91393" lon="4.51332">
        <ele>380.2</ele>
        <time>2024-03-17T09:05:11Z</time>
      </trkpt>
      <trkpt lat="49.91392" lon="4.51341">
        <ele>380.4</ele>
        <time>2024-03-17T09:05:12Z</time>
      </trkpt>
      <trkpt lat="49.91392" lon="4.5135">
        <ele>380.4</ele>
        <time>2024-03-17T09:05:13Z</time>
      </trkpt>
      <trkpt lat="49.91391" lon="4.51359">
        <ele>380.2</ele>
        <time>2024-03-17T09:05:14Z</time>
      </trkpt>
      <trkpt lat="49.9139" lon="4.51369">
        <ele>380.2</ele>
        <time>2024-03-17T09:05:15Z</time>
      </trkpt>
      <trkpt lat="49.9139" lon="4.51378">
        <ele>380.4</ele>
        <time>2024-03-17T09:05:16Z</time>
      </trkpt>
      <trkpt lat="49.91389" lon="4.51387">
        <ele>380.4</ele>
        <time>2024-03-17T09:05:17Z</time>
      </trkpt>
      <trkpt lat="49.91388" lon="4.51396">
        <ele>380.4</ele>
        <time>2024-03-17T09:05:18Z</time>
      </trkpt>
      <trkpt lat="49.91388" lon="4.51406">
        <ele>380.4</ele>
        <time>2024-03-17T09:05:19Z</time>
      </trkpt>
      <trkpt lat="49.91387" lon="4.51415">
        <ele>380.4</ele>
        <time>2024-03-17T09:05:20Z</time>
      </trkpt>
      <trkpt lat="49.91386" lon="4.51424">
        <ele>380.4</ele>
        <time>2024-03-17T09:05:21Z</time>
      </trkpt>
      <trkpt lat="49.91386" lon="4.51433">
        <ele>380.4</ele>
        <time>2024-03-17T09:05:22Z</time>
      </trkpt>
      <trkpt lat="49.91385" lon="4.51442">
        <ele>380.6</ele>
        <time>2024-03-17T09:05:23Z</time>
      </trkpt>
      <trkpt lat="49.91384" lon="4.51451">
        <ele>380.6</ele>
        <time>2024-03-17T09:05:24Z</time>
      </trkpt>
      <trkpt lat="49.91384" lon="4.5146">
        <ele>380.8</ele>
        <time>2024-03-17T09:05:25Z</time>
      </trkpt>
      <trkpt lat="49.91383" lon="4.51468">
        <ele>381</ele>
        <time>2024-03-17T09:05:26Z</time>
      </trkpt>
      <trkpt lat="49.91382" lon="4.51476">
        <ele>381</ele>
        <time>2024-03-17T09:05:27Z</time>
      </trkpt>
      <trkpt lat="49.91381" lon="4.51484">
        <ele>381</ele>
        <time>2024-03-17T09:05:28Z</time>
      </trkpt>
      <trkpt lat="49.9138" lon="4.51492">
        <ele>381.2</ele>
        <time>2024-03-17T09:05:29Z</time>
      </trkpt>
      <trkpt lat="49.9138" lon="4.51499">
        <ele>381</ele>
        <time>2024-03-17T09:05:30Z</time>
      </trkpt>
      <trkpt lat="49.91379" lon="4.51507">
        <ele>381</ele>
        <time>2024-03-17T09:05:31Z</time>
      </trkpt>
      <trkpt lat="49.91379" lon="4.51514">
        <ele>381.2</ele>
        <time>2024-03-17T09:05:32Z</time>
      </trkpt>
      <trkpt lat="49.91378" lon="4.51521">
        <ele>381.2</ele>
        <time>2024-03-17T09:05:33Z</time>
      </trkpt>
      <trkpt lat="49.91378" lon="4.51529">
        <ele>381.2</ele>
        <time>2024-03-17T09:05:34Z</time>
      </trkpt>
      <trkpt lat="49.91377" lon="4.51537">
        <ele>381.2</ele>
        <time>2024-03-17T09:05:35Z</time>
      </trkpt>
      <trkpt lat="49.91377" lon="4.51544">
        <ele>381</ele>
        <time>2024-03-17T09:05:36Z</time>
      </trkpt>
      <trkpt lat="49.91376" lon="4.51551">
        <ele>381</ele>
        <time>2024-03-17T09:05:37Z</time>
      </trkpt>
      <trkpt lat="49.91376" lon="4.51558">
        <ele>380.8</ele>
        <time>2024-03-17T09:05:38Z</time>
      </trkpt>
      <trkpt lat="49.91375" lon="4.51564">
        <ele>380.8</ele>
        <time>2024-03-17T09:05:39Z</time>
      </trkpt>
      <trkpt lat="49.91376" lon="4.51568">
        <ele>380.8</ele>
        <time>2024-03-17T09:05:40Z</time>
      </trkpt>
      <trkpt lat="49.91378" lon="4.51572">
        <ele>380.8</ele>
        <time>2024-03-17T09:05:41Z</time>
      </trkpt>
      <trkpt lat="49.91382" lon="4.51576">
        <ele>381</ele>
        <time>2024-03-17T09:05:42Z</time>
      </trkpt>
      <trkpt lat="49.91386" lon="4.51579">
        <ele>380.8</ele>
        <time>2024-03-17T09:05:43Z</time>
      </trkpt>
      <trkpt lat="49.91391" lon="4.51582">
        <ele>380.8</ele>
        <time>2024-03-17T09:05:44Z</time>
      </trkpt>
      <trkpt lat="49.91396" lon="4.51586">
        <ele>380.8</ele>
        <time>2024-03-17T09:05:45Z</time>
      </trkpt>
      <trkpt lat="49.91402" lon="4.5159">
        <ele>380.6</ele>
        <time>2024-03-17T09:05:46Z</time>
      </trkpt>
      <trkpt lat="49.91408" lon="4.51594">
        <ele>380.6</ele>
        <time>2024-03-17T09:05:47Z</time>
      </trkpt>
      <trkpt lat="49.91413" lon="4.51597">
        <ele>380.6</ele>
        <time>2024-03-17T09:05:48Z</time>
      </trkpt>
      <trkpt lat="49.91419" lon="4.51602">
        <ele>380.6</ele>
        <time>2024-03-17T09:05:49Z</time>
      </trkpt>
      <trkpt lat="49.91425" lon="4.51606">
        <ele>380.8</ele>
        <time>2024-03-17T09:05:50Z</time>
      </trkpt>
      <trkpt lat="49.91431" lon="4.5161">
        <ele>380.8</ele>
        <time>2024-03-17T09:05:51Z</time>
      </trkpt>
      <trkpt lat="49.91437" lon="4.51614">
        <ele>381</ele>
        <time>2024-03-17T09:05:52Z</time>
      </trkpt>
      <trkpt lat="49.91443" lon="4.51618">
        <ele>381</ele>
        <time>2024-03-17T09:05:53Z</time>
      </trkpt>
      <trkpt lat="49.91449" lon="4.51622">
        <ele>381</ele>
        <time>2024-03-17T09:05:54Z</time>
      </trkpt>
      <trkpt lat="49.91454" lon="4.51627">
        <ele>381</ele>
        <time>2024-03-17T09:05:55Z</time>
      </trkpt>
      <trkpt lat="49.9146" lon="4.51631">
        <ele>381.2</ele>
        <time>2024-03-17T09:05:56Z</time>
      </trkpt>
      <trkpt lat="49.91466" lon="4.51636">
        <ele>381.2</ele>
        <time>2024-03-17T09:05:57Z</time>
      </trkpt>
      <trkpt lat="49.91472" lon="4.51641">
        <ele>381.4</ele>
        <time>2024-03-17T09:05:58Z</time>
      </trkpt>
      <trkpt lat="49.91478" lon="4.51645">
        <ele>381.4</ele>
        <time>2024-03-17T09:05:59Z</time>
      </trkpt>
      <trkpt lat="49.91484" lon="4.5165">
        <ele>381.6</ele>
        <time>2024-03-17T09:06:00Z</time>
      </trkpt>
      <trkpt lat="49.9149" lon="4.51655">
        <ele>381.6</ele>
        <time>2024-03-17T09:06:01Z</time>
      </trkpt>
      <trkpt lat="49.91496" lon="4.5166">
        <ele>381.8</ele>
        <time>2024-03-17T09:06:02Z</time>
      </trkpt>
      <trkpt lat="49.91502" lon="4.51664">
        <ele>381.8</ele>
        <time>2024-03-17T09:06:03Z</time>
      </trkpt>
      <trkpt lat="49.91508" lon="4.51669">
        <ele>381.6</ele>
        <time>2024-03-17T09:06:04Z</time>
      </trkpt>
      <trkpt lat="49.91514" lon="4.51674">
        <ele>381.6</ele>
        <time>2024-03-17T09:06:05Z</time>
      </trkpt>
      <trkpt lat="49.9152" lon="4.51679">
        <ele>381.8</ele>
        <time>2024-03-17T09:06:06Z</time>
      </trkpt>
      <trkpt lat="49.91526" lon="4.51685">
        <ele>381.8</ele>
        <time>2024-03-17T09:06:07Z</time>
      </trkpt>
      <trkpt lat="49.91532" lon="4.5169">
        <ele>381.8</ele>
        <time>2024-03-17T09:06:08Z</time>
      </trkpt>
      <trkpt lat="49.91537" lon="4.51696">
        <ele>381.8</ele>
        <time>2024-03-17T09:06:09Z</time>
      </trkpt>
      <trkpt lat="49.91543" lon="4.51702">
        <ele>381.6</ele>
        <time>2024-03-17T09:06:10Z</time>
      </trkpt>
      <trkpt lat="49.91548" lon="4.51708">
        <ele>381.6</ele>
        <time>2024-03-17T09:06:11Z</time>
      </trkpt>
      <trkpt lat="49.91554" lon="4.51715">
        <ele>381.6</ele>
        <time>2024-03-17T09:06:12Z</time>
      </trkpt>
      <trkpt lat="49.91559" lon="4.51722">
        <ele>381.8</ele>
        <time>2024-03-17T09:06:13Z</time>
      </trkpt>
      <trkpt lat="49.91564" lon="4.51729">
        <ele>381.6</ele>
        <time>2024-03-17T09:06:14Z</time>
      </trkpt>
      <trkpt lat="49.9157" lon="4.51735">
        <ele>381.4</ele>
        <time>2024-03-17T09:06:15Z</time>
      </trkpt>
      <trkpt lat="49.91575" lon="4.51742">
        <ele>381.4</ele>
        <time>2024-03-17T09:06:16Z</time>
      </trkpt>
      <trkpt lat="49.9158" lon="4.51749">
        <ele>381.6</ele>
        <time>2024-03-17T09:06:17Z</time>
      </trkpt>
      <trkpt lat="49.91585" lon="4.51756">
        <ele>381.4</ele>
        <time>2024-03-17T09:06:18Z</time>
      </trkpt>
      <trkpt lat="49.91591" lon="4.51763">
        <ele>381.2</ele>
        <time>2024-03-17T09:06:19Z</time>
      </trkpt>
      <trkpt lat="49.91596" lon="4.51769">
        <ele>381.4</ele>
        <time>2024-03-17T09:06:20Z</time>
      </trkpt>
      <trkpt lat="49.91601" lon="4.51776">
        <ele>381.4</ele>
        <time>2024-03-17T09:06:21Z</time>
      </trkpt>
      <trkpt lat="49.91606" lon="4.51783">
        <ele>381.4</ele>
        <time>2024-03-17T09:06:22Z</time>
      </trkpt>
      <trkpt lat="49.91611" lon="4.51789">
        <ele>381.4</ele>
        <time>2024-03-17T09:06:23Z</time>
      </trkpt>
      <trkpt lat="49.91616" lon="4.51796">
        <ele>381.4</ele>
        <time>2024-03-17T09:06:24Z</time>
      </trkpt>
      <trkpt lat="49.91621" lon="4.51803">
        <ele>381.2</ele>
        <time>2024-03-17T09:06:25Z</time>
      </trkpt>
      <trkpt lat="49.91627" lon="4.51809">
        <ele>381.2</ele>
        <time>2024-03-17T09:06:26Z</time>
      </trkpt>
      <trkpt lat="49.91632" lon="4.51816">
        <ele>381.4</ele>
        <time>2024-03-17T09:06:27Z</time>
      </trkpt>
      <trkpt lat="49.91637" lon="4.51823">
        <ele>381.4</ele>
        <time>2024-03-17T09:06:28Z</time>
      </trkpt>
      <trkpt lat="49.91642" lon="4.51829">
        <ele>381.4</ele>
        <time>2024-03-17T09:06:29Z</time>
      </trkpt>
      <trkpt lat="49.91647" lon="4.51836">
        <ele>381.4</ele>
        <time>2024-03-17T09:06:30Z</time>
      </trkpt>
      <trkpt lat="49.91652" lon="4.51842">
        <ele>381.4</ele>
        <time>2024-03-17T09:06:31Z</time>
      </trkpt>
      <trkpt lat="49.91657" lon="4.51849">
        <ele>381.4</ele>
        <time>2024-03-17T09:06:32Z</time>
      </trkpt>
      <trkpt lat="49.91662" lon="4.51856">
        <ele>381.6</ele>
        <time>2024-03-17T09:06:33Z</time>
      </trkpt>
      <trkpt lat="49.91667" lon="4.51862">
        <ele>381.6</ele>
        <time>2024-03-17T09:06:34Z</time>
      </trkpt>
      <trkpt lat="49.91672" lon="4.51869">
        <ele>381.8</ele>
        <time>2024-03-17T09:06:35Z</time>
      </trkpt>
      <trkpt lat="49.91677" lon="4.51875">
        <ele>381.8</ele>
        <time>2024-03-17T09:06:36Z</time>
      </trkpt>
      <trkpt lat="49.91682" lon="4.51881">
        <ele>381.8</ele>
        <time>2024-03-17T09:06:37Z</time>
      </trkpt>
      <trkpt lat="49.91686" lon="4.51888">
        <ele>381.8</ele>
        <time>2024-03-17T09:06:38Z</time>
      </trkpt>
      <trkpt lat="49.91691" lon="4.51894">
        <ele>381.8</ele>
        <time>2024-03-17T09:06:39Z</time>
      </trkpt>
      <trkpt lat="49.91696" lon="4.51901">
        <ele>382</ele>
        <time>2024-03-17T09:06:40Z</time>
      </trkpt>
      <trkpt lat="49.91701" lon="4.51907">
        <ele>382</ele>
        <time>2024-03-17T09:06:41Z</time>
      </trkpt>
      <trkpt lat="49.91706" lon="4.51913">
        <ele>382</ele>
        <time>2024-03-17T09:06:42Z</time>
      </trkpt>
      <trkpt lat="49.91711" lon="4.51919">
        <ele>382</ele>
        <time>2024-03-17T09:06:43Z</time>
      </trkpt>
      <trkpt lat="49.91715" lon="4.51925">
        <ele>382</ele>
        <time>2024-03-17T09:06:44Z</time>
      </trkpt>
      <trkpt lat="49.9172" lon="4.51931">
        <ele>382</ele>
        <time>2024-03-17T09:06:45Z</time>
      </trkpt>
      <trkpt lat="49.91724" lon="4.51937">
        <ele>382</ele>
        <time>2024-03-17T09:06:46Z</time>
      </trkpt>
      <trkpt lat="49.91728" lon="4.51943">
        <ele>382.2</ele>
        <time>2024-03-17T09:06:47Z</time>
      </trkpt>
      <trkpt lat="49.91729" lon="4.5195">
        <ele>382.2</ele>
        <time>2024-03-17T09:06:48Z</time>
      </trkpt>
      <trkpt lat="49.9173" lon="4.51955">
        <ele>382</ele>
        <time>2024-03-17T09:06:49Z</time>
      </trkpt>
      <trkpt lat="49.9173" lon="4.51958">
        <ele>382.2</ele>
        <time>2024-03-17T09:06:50Z</time>
      </trkpt>
      <trkpt lat="49.9173" lon="4.51959">
        <ele>382.4</ele>
        <time>2024-03-17T09:06:51Z</time>
      </trkpt>
      <trkpt lat="49.9173" lon="4.5196">
        <ele>382.4</ele>
        <time>2024-03-17T09:06:52Z</time>
      </trkpt>
      <trkpt lat="49.91729" lon="4.51962">
        <ele>382.8</ele>
        <time>2024-03-17T09:06:53Z</time>
      </trkpt>
      <trkpt lat="49.9173" lon="4.51964">
        <ele>382.8</ele>
        <time>2024-03-17T09:06:54Z</time>
      </trkpt>
      <trkpt lat="49.91732" lon="4.51966">
        <ele>383</ele>
        <time>2024-03-17T09:06:55Z</time>
      </trkpt>
      <trkpt lat="49.91735" lon="4.51967">
        <ele>383.2</ele>
        <time>2024-03-17T09:06:56Z</time>
      </trkpt>
      <trkpt lat="49.91739" lon="4.51968">
        <ele>383.2</ele>
        <time>2024-03-17T09:06:57Z</time>
      </trkpt>
      <trkpt lat="49.91743" lon="4.51968">
        <ele>383.6</ele>
        <time>2024-03-17T09:06:58Z</time>
      </trkpt>
      <trkpt lat="49.91748" lon="4.51969">
        <ele>383.8</ele>
        <time>2024-03-17T09:06:59Z</time>
      </trkpt>
      <trkpt lat="49.91754" lon="4.51969">
        <ele>384</ele>
        <time>2024-03-17T09:07:00Z</time>
      </trkpt>
      <trkpt lat="49.9176" lon="4.5197">
        <ele>384</ele>
        <time>2024-03-17T09:07:01Z</time>
      </trkpt>
      <trkpt lat="49.91766" lon="4.51971">
        <ele>384</ele>
        <time>2024-03-17T09:07:02Z</time>
      </trkpt>
      <trkpt lat="49.91772" lon="4.51972">
        <ele>384</ele>
        <time>2024-03-17T09:07:03Z</time>
      </trkpt>
      <trkpt lat="49.91778" lon="4.51973">
        <ele>384</ele>
        <time>2024-03-17T09:07:04Z</time>
      </trkpt>
      <trkpt lat="49.91784" lon="4.51974">
        <ele>384</ele>
        <time>2024-03-17T09:07:05Z</time>
      </trkpt>
      <trkpt lat="49.9179" lon="4.51975">
        <ele>384</ele>
        <time>2024-03-17T09:07:06Z</time>
      </trkpt>
      <trkpt lat="49.91796" lon="4.51976">
        <ele>384.2</ele>
        <time>2024-03-17T09:07:07Z</time>
      </trkpt>
      <trkpt lat="49.91802" lon="4.51977">
        <ele>384</ele>
        <time>2024-03-17T09:07:08Z</time>
      </trkpt>
      <trkpt lat="49.91808" lon="4.51978">
        <ele>384.2</ele>
        <time>2024-03-17T09:07:09Z</time>
      </trkpt>
      <trkpt lat="49.91814" lon="4.51979">
        <ele>384</ele>
        <time>2024-03-17T09:07:10Z</time>
      </trkpt>
      <trkpt lat="49.91821" lon="4.5198">
        <ele>383.8</ele>
        <time>2024-03-17T09:07:11Z</time>
      </trkpt>
      <trkpt lat="49.91827" lon="4.51981">
        <ele>383.6</ele>
        <time>2024-03-17T09:07:12Z</time>
      </trkpt>
      <trkpt lat="49.91833" lon="4.51983">
        <ele>383.6</ele>
        <time>2024-03-17T09:07:13Z</time>
      </trkpt>
      <trkpt lat="49.9184" lon="4.51984">
        <ele>383.6</ele>
        <time>2024-03-17T09:07:14Z</time>
      </trkpt>
      <trkpt lat="49.91846" lon="4.51984">
        <ele>383.6</ele>
        <time>2024-03-17T09:07:15Z</time>
      </trkpt>
      <trkpt lat="49.91853" lon="4.51986">
        <ele>383.6</ele>
        <time>2024-03-17T09:07:16Z</time>
      </trkpt>
      <trkpt lat="49.91859" lon="4.51987">
        <ele>383.4</ele>
        <time>2024-03-17T09:07:17Z</time>
      </trkpt>
      <trkpt lat="49.91866" lon="4.51988">
        <ele>383.4</ele>
        <time>2024-03-17T09:07:18Z</time>
      </trkpt>
      <trkpt lat="49.91872" lon="4.51989">
        <ele>383.4</ele>
        <time>2024-03-17T09:07:19Z</time>
      </trkpt>
      <trkpt lat="49.91878" lon="4.5199">
        <ele>383.4</ele>
        <time>2024-03-17T09:07:20Z</time>
      </trkpt>
      <trkpt lat="49.91885" lon="4.51991">
        <ele>383.4</ele>
        <time>2024-03-17T09:07:21Z</time>
      </trkpt>
      <trkpt lat="49.91891" lon="4.51992">
        <ele>383.4</ele>
        <time>2024-03-17T09:07:22Z</time>
      </trkpt>
      <trkpt lat="49.91897" lon="4.51993">
        <ele>383.6</ele>
        <time>2024-03-17T09:07:23Z</time>
      </trkpt>
      <trkpt lat="49.91904" lon="4.51994">
        <ele>383.4</ele>
        <time>2024-03-17T09:07:24Z</time>
      </trkpt>
      <trkpt lat="49.9191" lon="4.51996">
        <ele>383.4</ele>
        <time>2024-03-17T09:07:25Z</time>
      </trkpt>
      <trkpt lat="49.91917" lon="4.51997">
        <ele>383.6</ele>
        <time>2024-03-17T09:07:26Z</time>
      </trkpt>
      <trkpt lat="49.91923" lon="4.51997">
        <ele>383.4</ele>
        <time>2024-03-17T09:07:27Z</time>
      </trkpt>
      <trkpt lat="49.9193" lon="4.51998">
        <ele>383.6</ele>
        <time>2024-03-17T09:07:28Z</time>
      </trkpt>
      <trkpt lat="49.91937" lon="4.51998">
        <ele>383.6</ele>
        <time>2024-03-17T09:07:29Z</time>
      </trkpt>
      <trkpt lat="49.91944" lon="4.51999">
        <ele>383.6</ele>
        <time>2024-03-17T09:07:30Z</time>
      </trkpt>
      <trkpt lat="49.91951" lon="4.52">
        <ele>383.6</ele>
        <time>2024-03-17T09:07:31Z</time>
      </trkpt>
      <trkpt lat="49.91958" lon="4.52002">
        <ele>383.4</ele>
        <time>2024-03-17T09:07:32Z</time>
      </trkpt>
      <trkpt lat="49.91965" lon="4.52003">
        <ele>383.6</ele>
        <time>2024-03-17T09:07:33Z</time>
      </trkpt>
      <trkpt lat="49.91971" lon="4.52005">
        <ele>383.8</ele>
        <time>2024-03-17T09:07:34Z</time>
      </trkpt>
      <trkpt lat="49.91978" lon="4.52006">
        <ele>383.8</ele>
        <time>2024-03-17T09:07:35Z</time>
      </trkpt>
      <trkpt lat="49.91985" lon="4.52007">
        <ele>383.8</ele>
        <time>2024-03-17T09:07:36Z</time>
      </trkpt>
      <trkpt lat="49.91991" lon="4.52009">
        <ele>383.6</ele>
        <time>2024-03-17T09:07:37Z</time>
      </trkpt>
      <trkpt lat="49.91998" lon="4.5201">
        <ele>383.6</ele>
        <time>2024-03-17T09:07:38Z</time>
      </trkpt>
      <trkpt lat="49.92004" lon="4.52012">
        <ele>383.6</ele>
        <time>2024-03-17T09:07:39Z</time>
      </trkpt>
      <trkpt lat="49.9201" lon="4.52014">
        <ele>383.6</ele>
        <time>2024-03-17T09:07:40Z</time>
      </trkpt>
      <trkpt lat="49.92016" lon="4.52017">
        <ele>383.6</ele>
        <time>2024-03-17T09:07:41Z</time>
      </trkpt>
      <trkpt lat="49.92023" lon="4.52021">
        <ele>383.6</ele>
        <time>2024-03-17T09:07:42Z</time>
      </trkpt>
      <trkpt lat="49.92029" lon="4.52025">
        <ele>383.4</ele>
        <time>2024-03-17T09:07:43Z</time>
      </trkpt>
      <trkpt lat="49.92035" lon="4.52031">
        <ele>383.4</ele>
        <time>2024-03-17T09:07:44Z</time>
      </trkpt>
      <trkpt lat="49.92041" lon="4.52037">
        <ele>383.4</ele>
        <time>2024-03-17T09:07:45Z</time>
      </trkpt>
      <trkpt lat="49.92046" lon="4.52044">
        <ele>383.4</ele>
        <time>2024-03-17T09:07:46Z</time>
      </trkpt>
      <trkpt lat="49.92051" lon="4.52052">
        <ele>383.2</ele>
        <time>2024-03-17T09:07:47Z</time>
      </trkpt>
      <trkpt lat="49.92056" lon="4.5206">
        <ele>383.2</ele>
        <time>2024-03-17T09:07:48Z</time>
      </trkpt>
      <trkpt lat="49.9206" lon="4.52069">
        <ele>383.2</ele>
        <time>2024-03-17T09:07:49Z</time>
      </trkpt>
      <trkpt lat="49.92064" lon="4.52079">
        <ele>383.2</ele>
        <time>2024-03-17T09:07:50Z</time>
      </trkpt>
      <trkpt lat="49.92068" lon="4.52089">
        <ele>383.2</ele>
        <time>2024-03-17T09:07:51Z</time>
      </trkpt>
      <trkpt lat="49.92071" lon="4.52099">
        <ele>382.8</ele>
        <time>2024-03-17T09:07:52Z</time>
      </trkpt>
      <trkpt lat="49.92075" lon="4.52109">
        <ele>382</ele>
        <time>2024-03-17T09:07:53Z</time>
      </trkpt>
      <trkpt lat="49.92078" lon="4.52119">
        <ele>381.8</ele>
        <time>2024-03-17T09:07:54Z</time>
      </trkpt>
      <trkpt lat="49.92082" lon="4.52129">
        <ele>381.4</ele>
        <time>2024-03-17T09:07:55Z</time>
      </trkpt>
      <trkpt lat="49.92085" lon="4.5214">
        <ele>381.2</ele>
        <time>2024-03-17T09:07:56Z</time>
      </trkpt>
      <trkpt lat="49.92089" lon="4.52151">
        <ele>381</ele>
        <time>2024-03-17T09:07:57Z</time>
      </trkpt>
      <trkpt lat="49.92093" lon="4.52161">
        <ele>381</ele>
        <time>2024-03-17T09:07:58Z</time>
      </trkpt>
      <trkpt lat="49.92098" lon="4.52172">
        <ele>380.8</ele>
        <time>2024-03-17T09:07:59Z</time>
      </trkpt>
      <trkpt lat="49.92102" lon="4.52182">
        <ele>380.8</ele>
        <time>2024-03-17T09:08:00Z</time>
      </trkpt>
      <trkpt lat="49.92107" lon="4.52192">
        <ele>380.4</ele>
        <time>2024-03-17T09:08:01Z</time>
      </trkpt>
      <trkpt lat="49.92113" lon="4.52201">
        <ele>380.2</ele>
        <time>2024-03-17T09:08:02Z</time>
      </trkpt>
      <trkpt lat="49.92119" lon="4.5221">
        <ele>379.8</ele>
        <time>2024-03-17T09:08:03Z</time>
      </trkpt>
      <trkpt lat="49.92125" lon="4.52218">
        <ele>379.6</ele>
        <time>2024-03-17T09:08:04Z</time>
      </trkpt>
      <trkpt lat="49.92131" lon="4.52225">
        <ele>379.4</ele>
        <time>2024-03-17T09:08:05Z</time>
      </trkpt>
      <trkpt lat="49.92138" lon="4.52232">
        <ele>379.4</ele>
        <time>2024-03-17T09:08:06Z</time>
      </trkpt>
      <trkpt lat="49.92145" lon="4.52239">
        <ele>379.2</ele>
        <time>2024-03-17T09:08:07Z</time>
      </trkpt>
      <trkpt lat="49.92152" lon="4.52245">
        <ele>379.2</ele>
        <time>2024-03-17T09:08:08Z</time>
      </trkpt>
      <trkpt lat="49.92158" lon="4.52252">
        <ele>379</ele>
        <time>2024-03-17T09:08:09Z</time>
      </trkpt>
      <trkpt lat="49.92165" lon="4.52258">
        <ele>378.8</ele>
        <time>2024-03-17T09:08:10Z</time>
      </trkpt>
      <trkpt lat="49.92171" lon="4.52265">
        <ele>378.8</ele>
        <time>2024-03-17T09:08:11Z</time>
      </trkpt>
      <trkpt lat="49.92178" lon="4.52271">
        <ele>378.6</ele>
        <time>2024-03-17T09:08:12Z</time>
      </trkpt>
      <trkpt lat="49.92184" lon="4.52277">
        <ele>378.6</ele>
        <time>2024-03-17T09:08:13Z</time>
      </trkpt>
      <trkpt lat="49.9219" lon="4.52283">
        <ele>378.4</ele>
        <time>2024-03-17T09:08:14Z</time>
      </trkpt>
      <trkpt lat="49.92196" lon="4.52289">
        <ele>378.4</ele>
        <time>2024-03-17T09:08:15Z</time>
      </trkpt>
      <trkpt lat="49.92202" lon="4.52295">
        <ele>378.4</ele>
        <time>2024-03-17T09:08:16Z</time>
      </trkpt>
      <trkpt lat="49.92208" lon="4.52301">
        <ele>378.4</ele>
        <time>2024-03-17T09:08:17Z</time>
      </trkpt>
      <trkpt lat="49.92214" lon="4.52308">
        <ele>378.6</ele>
        <time>2024-03-17T09:08:18Z</time>
      </trkpt>
      <trkpt lat="49.9222" lon="4.52314">
        <ele>378.4</ele>
        <time>2024-03-17T09:08:19Z</time>
      </trkpt>
      <trkpt lat="49.92226" lon="4.52321">
        <ele>378.4</ele>
        <time>2024-03-17T09:08:20Z</time>
      </trkpt>
      <trkpt lat="49.92232" lon="4.52328">
        <ele>378.4</ele>
        <time>2024-03-17T09:08:21Z</time>
      </trkpt>
      <trkpt lat="49.92238" lon="4.52335">
        <ele>378.4</ele>
        <time>2024-03-17T09:08:22Z</time>
      </trkpt>
      <trkpt lat="49.92244" lon="4.52342">
        <ele>378.4</ele>
        <time>2024-03-17T09:08:23Z</time>
      </trkpt>
      <trkpt lat="49.9225" lon="4.5235">
        <ele>378.4</ele>
        <time>2024-03-17T09:08:24Z</time>
      </trkpt>
      <trkpt lat="49.92256" lon="4.52357">
        <ele>378.4</ele>
        <time>2024-03-17T09:08:25Z</time>
      </trkpt>
      <trkpt lat="49.92263" lon="4.52365">
        <ele>378.4</ele>
        <time>2024-03-17T09:08:26Z</time>
      </trkpt>
      <trkpt lat="49.9227" lon="4.52374">
        <ele>378.4</ele>
        <time>2024-03-17T09:08:27Z</time>
      </trkpt>
      <trkpt lat="49.92277" lon="4.52383">
        <ele>378.2</ele>
        <time>2024-03-17T09:08:28Z</time>
      </trkpt>
      <trkpt lat="49.92284" lon="4.52392">
        <ele>378.4</ele>
        <time>2024-03-17T09:08:29Z</time>
      </trkpt>
      <trkpt lat="49.9229" lon="4.52401">
        <ele>378.2</ele>
        <time>2024-03-17T09:08:30Z</time>
      </trkpt>
      <trkpt lat="49.92297" lon="4.5241">
        <ele>378.2</ele>
        <time>2024-03-17T09:08:31Z</time>
      </trkpt>
      <trkpt lat="49.92304" lon="4.5242">
        <ele>378.2</ele>
        <time>2024-03-17T09:08:32Z</time>
      </trkpt>
      <trkpt lat="49.9231" lon="4.5243">
        <ele>378.4</ele>
        <time>2024-03-17T09:08:33Z</time>
      </trkpt>
      <trkpt lat="49.92315" lon="4.52441">
        <ele>378.2</ele>
        <time>2024-03-17T09:08:34Z</time>
      </trkpt>
      <trkpt lat="49.9232" lon="4.52453">
        <ele>378.2</ele>
        <time>2024-03-17T09:08:35Z</time>
      </trkpt>
      <trkpt lat="49.92324" lon="4.52466">
        <ele>377.8</ele>
        <time>2024-03-17T09:08:36Z</time>
      </trkpt>
      <trkpt lat="49.92327" lon="4.52479">
        <ele>377.8</ele>
        <time>2024-03-17T09:08:37Z</time>
      </trkpt>
      <trkpt lat="49.9233" lon="4.52491">
        <ele>377.8</ele>
        <time>2024-03-17T09:08:38Z</time>
      </trkpt>
      <trkpt lat="49.92332" lon="4.52504">
        <ele>377.6</ele>
        <time>2024-03-17T09:08:39Z</time>
      </trkpt>
      <trkpt lat="49.92335" lon="4.52517">
        <ele>377.4</ele>
        <time>2024-03-17T09:08:40Z</time>
      </trkpt>
      <trkpt lat="49.92338" lon="4.5253">
        <ele>377.6</ele>
        <time>2024-03-17T09:08:41Z</time>
      </trkpt>
      <trkpt lat="49.9234" lon="4.52543">
        <ele>377.4</ele>
        <time>2024-03-17T09:08:42Z</time>
      </trkpt>
      <trkpt lat="49.92343" lon="4.52556">
        <ele>377.4</ele>
        <time>2024-03-17T09:08:43Z</time>
      </trkpt>
      <trkpt lat="49.92346" lon="4.52568">
        <ele>377</ele>
        <time>2024-03-17T09:08:44Z</time>
      </trkpt>
      <trkpt lat="49.9235" lon="4.5258">
        <ele>376.6</ele>
        <time>2024-03-17T09:08:45Z</time>
      </trkpt>
      <trkpt lat="49.92354" lon="4.52592">
        <ele>376.6</ele>
        <time>2024-03-17T09:08:46Z</time>
      </trkpt>
      <trkpt lat="49.92359" lon="4.52602">
        <ele>376.2</ele>
        <time>2024-03-17T09:08:47Z</time>
      </trkpt>
      <trkpt lat="49.92365" lon="4.52611">
        <ele>376.2</ele>
        <time>2024-03-17T09:08:48Z</time>
      </trkpt>
      <trkpt lat="49.92373" lon="4.52617">
        <ele>376.2</ele>
        <time>2024-03-17T09:08:49Z</time>
      </trkpt>
      <trkpt lat="49.92381" lon="4.5262">
        <ele>376</ele>
        <time>2024-03-17T09:08:50Z</time>
      </trkpt>
      <trkpt lat="49.9239" lon="4.52618">
        <ele>376</ele>
        <time>2024-03-17T09:08:51Z</time>
      </trkpt>
      <trkpt lat="49.92398" lon="4.52614">
        <ele>375.8</ele>
        <time>2024-03-17T09:08:52Z</time>
      </trkpt>
      <trkpt lat="49.92406" lon="4.52609">
        <ele>375.8</ele>
        <time>2024-03-17T09:08:53Z</time>
      </trkpt>
      <trkpt lat="49.92414" lon="4.52602">
        <ele>375.8</ele>
        <time>2024-03-17T09:08:54Z</time>
      </trkpt>
      <trkpt lat="49.92421" lon="4.52595">
        <ele>374.8</ele>
        <time>2024-03-17T09:08:55Z</time>
      </trkpt>
      <trkpt lat="49.92428" lon="4.52588">
        <ele>374.6</ele>
        <time>2024-03-17T09:08:56Z</time>
      </trkpt>
      <trkpt lat="49.92435" lon="4.52581">
        <ele>374.2</ele>
        <time>2024-03-17T09:08:57Z</time>
      </trkpt>
      <trkpt lat="49.92443" lon="4.52574">
        <ele>373.8</ele>
        <time>2024-03-17T09:08:58Z</time>
      </trkpt>
      <trkpt lat="49.9245" lon="4.52567">
        <ele>373.6</ele>
        <time>2024-03-17T09:08:59Z</time>
      </trkpt>
      <trkpt lat="49.92457" lon="4.5256">
        <ele>373.6</ele>
        <time>2024-03-17T09:09:00Z</time>
      </trkpt>
      <trkpt lat="49.92464" lon="4.52553">
        <ele>373.6</ele>
        <time>2024-03-17T09:09:01Z</time>
      </trkpt>
      <trkpt lat="49.9247" lon="4.52547">
        <ele>373.4</ele>
        <time>2024-03-17T09:09:02Z</time>
      </trkpt>
      <trkpt lat="49.92477" lon="4.5254">
        <ele>373.4</ele>
        <time>2024-03-17T09:09:03Z</time>
      </trkpt>
      <trkpt lat="49.92484" lon="4.52534">
        <ele>373.4</ele>
        <time>2024-03-17T09:09:04Z</time>
      </trkpt>
      <trkpt lat="49.9249" lon="4.52528">
        <ele>373.4</ele>
        <time>2024-03-17T09:09:05Z</time>
      </trkpt>
      <trkpt lat="49.92497" lon="4.52522">
        <ele>373.6</ele>
        <time>2024-03-17T09:09:06Z</time>
      </trkpt>
      <trkpt lat="49.92503" lon="4.52515">
        <ele>373.4</ele>
        <time>2024-03-17T09:09:07Z</time>
      </trkpt>
      <trkpt lat="49.92509" lon="4.52509">
        <ele>373.4</ele>
        <time>2024-03-17T09:09:08Z</time>
      </trkpt>
      <trkpt lat="49.92516" lon="4.52504">
        <ele>373.6</ele>
        <time>2024-03-17T09:09:09Z</time>
      </trkpt>
      <trkpt lat="49.92523" lon="4.52499">
        <ele>373.6</ele>
        <time>2024-03-17T09:09:10Z</time>
      </trkpt>
      <trkpt lat="49.92529" lon="4.52498">
        <ele>373.8</ele>
        <time>2024-03-17T09:09:11Z</time>
      </trkpt>
      <trkpt lat="49.92536" lon="4.52499">
        <ele>374</ele>
        <time>2024-03-17T09:09:12Z</time>
      </trkpt>
      <trkpt lat="49.92543" lon="4.52503">
        <ele>374</ele>
        <time>2024-03-17T09:09:13Z</time>
      </trkpt>
      <trkpt lat="49.92549" lon="4.52509">
        <ele>374.2</ele>
        <time>2024-03-17T09:09:14Z</time>
      </trkpt>
      <trkpt lat="49.92555" lon="4.52516">
        <ele>374.4</ele>
        <time>2024-03-17T09:09:15Z</time>
      </trkpt>
      <trkpt lat="49.92561" lon="4.52524">
        <ele>374.6</ele>
        <time>2024-03-17T09:09:16Z</time>
      </trkpt>
      <trkpt lat="49.92568" lon="4.52532">
        <ele>374.6</ele>
        <time>2024-03-17T09:09:17Z</time>
      </trkpt>
      <trkpt lat="49.92574" lon="4.5254">
        <ele>374.8</ele>
        <time>2024-03-17T09:09:18Z</time>
      </trkpt>
      <trkpt lat="49.9258" lon="4.52548">
        <ele>375</ele>
        <time>2024-03-17T09:09:19Z</time>
      </trkpt>
      <trkpt lat="49.92587" lon="4.52556">
        <ele>375.2</ele>
        <time>2024-03-17T09:09:20Z</time>
      </trkpt>
      <trkpt lat="49.92595" lon="4.52564">
        <ele>375.4</ele>
        <time>2024-03-17T09:09:21Z</time>
      </trkpt>
      <trkpt lat="49.92602" lon="4.52571">
        <ele>375.2</ele>
        <time>2024-03-17T09:09:22Z</time>
      </trkpt>
      <trkpt lat="49.9261" lon="4.52577">
        <ele>375.2</ele>
        <time>2024-03-17T09:09:23Z</time>
      </trkpt>
      <trkpt lat="49.92618" lon="4.5258">
        <ele>375.4</ele>
        <time>2024-03-17T09:09:24Z</time>
      </trkpt>
      <trkpt lat="49.92626" lon="4.52581">
        <ele>375.4</ele>
        <time>2024-03-17T09:09:25Z</time>
      </trkpt>
      <trkpt lat="49.92633" lon="4.52578">
        <ele>375.4</ele>
        <time>2024-03-17T09:09:26Z</time>
      </trkpt>
      <trkpt lat="49.9264" lon="4.52573">
        <ele>375.2</ele>
        <time>2024-03-17T09:09:27Z</time>
      </trkpt>
      <trkpt lat="49.92647" lon="4.52565">
        <ele>375.2</ele>
        <time>2024-03-17T09:09:28Z</time>
      </trkpt>
      <trkpt lat="49.92653" lon="4.52557">
        <ele>375</ele>
        <time>2024-03-17T09:09:29Z</time>
      </trkpt>
      <trkpt lat="49.9266" lon="4.52549">
        <ele>374.8</ele>
        <time>2024-03-17T09:09:30Z</time>
      </trkpt>
      <trkpt lat="49.92666" lon="4.52542">
        <ele>374.8</ele>
        <time>2024-03-17T09:09:31Z</time>
      </trkpt>
      <trkpt lat="49.92674" lon="4.52537">
        <ele>374.6</ele>
        <time>2024-03-17T09:09:32Z</time>
      </trkpt>
      <trkpt lat="49.92682" lon="4.52533">
        <ele>374.6</ele>
        <time>2024-03-17T09:09:33Z</time>
      </trkpt>
      <trkpt lat="49.9269" lon="4.52528">
        <ele>374.4</ele>
        <time>2024-03-17T09:09:34Z</time>
      </trkpt>
      <trkpt lat="49.92697" lon="4.52521">
        <ele>374.4</ele>
        <time>2024-03-17T09:09:35Z</time>
      </trkpt>
      <trkpt lat="49.92704" lon="4.52514">
        <ele>374.6</ele>
        <time>2024-03-17T09:09:36Z</time>
      </trkpt>
      <trkpt lat="49.92711" lon="4.52507">
        <ele>374.6</ele>
        <time>2024-03-17T09:09:37Z</time>
      </trkpt>
      <trkpt lat="49.92718" lon="4.52503">
        <ele>374.4</ele>
        <time>2024-03-17T09:09:38Z</time>
      </trkpt>
      <trkpt lat="49.92726" lon="4.52499">
        <ele>374.6</ele>
        <time>2024-03-17T09:09:39Z</time>
      </trkpt>
      <trkpt lat="49.92734" lon="4.52497">
        <ele>374.4</ele>
        <time>2024-03-17T09:09:40Z</time>
      </trkpt>
      <trkpt lat="49.92741" lon="4.52496">
        <ele>374.4</ele>
        <time>2024-03-17T09:09:41Z</time>
      </trkpt>
      <trkpt lat="49.92749" lon="4.52495">
        <ele>374.4</ele>
        <time>2024-03-17T09:09:42Z</time>
      </trkpt>
      <trkpt lat="49.92756" lon="4.52494">
        <ele>374.4</ele>
        <time>2024-03-17T09:09:43Z</time>
      </trkpt>
      <trkpt lat="49.92763" lon="4.52494">
        <ele>374.4</ele>
        <time>2024-03-17T09:09:44Z</time>
      </trkpt>
      <trkpt lat="49.9277" lon="4.52493">
        <ele>374.4</ele>
        <time>2024-03-17T09:09:45Z</time>
      </trkpt>
      <trkpt lat="49.92776" lon="4.52493">
        <ele>374.4</ele>
        <time>2024-03-17T09:09:46Z</time>
      </trkpt>
      <trkpt lat="49.92783" lon="4.52492">
        <ele>374.6</ele>
        <time>2024-03-17T09:09:47Z</time>
      </trkpt>
      <trkpt lat="49.92789" lon="4.52492">
        <ele>374.6</ele>
        <time>2024-03-17T09:09:48Z</time>
      </trkpt>
      <trkpt lat="49.92795" lon="4.52492">
        <ele>374.8</ele>
        <time>2024-03-17T09:09:49Z</time>
      </trkpt>
      <trkpt lat="49.92801" lon="4.52491">
        <ele>374.8</ele>
        <time>2024-03-17T09:09:50Z</time>
      </trkpt>
      <trkpt lat="49.92807" lon="4.52491">
        <ele>375</ele>
        <time>2024-03-17T09:09:51Z</time>
      </trkpt>
      <trkpt lat="49.92812" lon="4.52491">
        <ele>375.2</ele>
        <time>2024-03-17T09:09:52Z</time>
      </trkpt>
      <trkpt lat="49.92818" lon="4.52491">
        <ele>375.8</ele>
        <time>2024-03-17T09:09:53Z</time>
      </trkpt>
      <trkpt lat="49.92823" lon="4.5249">
        <ele>376.4</ele>
        <time>2024-03-17T09:09:54Z</time>
      </trkpt>
      <trkpt lat="49.92829" lon="4.5249">
        <ele>377</ele>
        <time>2024-03-17T09:09:55Z</time>
      </trkpt>
      <trkpt lat="49.92835" lon="4.5249">
        <ele>377.2</ele>
        <time>2024-03-17T09:09:56Z</time>
      </trkpt>
      <trkpt lat="49.9284" lon="4.52489">
        <ele>377.6</ele>
        <time>2024-03-17T09:09:57Z</time>
      </trkpt>
      <trkpt lat="49.92845" lon="4.52488">
        <ele>378</ele>
        <time>2024-03-17T09:09:58Z</time>
      </trkpt>
      <trkpt lat="49.92851" lon="4.52486">
        <ele>378</ele>
        <time>2024-03-17T09:09:59Z</time>
      </trkpt>
      <trkpt lat="49.92856" lon="4.52483">
        <ele>378.2</ele>
        <time>2024-03-17T09:10:00Z</time>
      </trkpt>
      <trkpt lat="49.9286" lon="4.52479">
        <ele>378.2</ele>
        <time>2024-03-17T09:10:01Z</time>
      </trkpt>
      <trkpt lat="49.92864" lon="4.52473">
        <ele>378.6</ele>
        <time>2024-03-17T09:10:02Z</time>
      </trkpt>
      <trkpt lat="49.92866" lon="4.52467">
        <ele>379.2</ele>
        <time>2024-03-17T09:10:03Z</time>
      </trkpt>
      <trkpt lat="49.92867" lon="4.52459">
        <ele>379.4</ele>
        <time>2024-03-17T09:10:04Z</time>
      </trkpt>
      <trkpt lat="49.92867" lon="4.52452">
        <ele>379.4</ele>
        <time>2024-03-17T09:10:05Z</time>
      </trkpt>
      <trkpt lat="49.92867" lon="4.52445">
        <ele>379.8</ele>
        <time>2024-03-17T09:10:06Z</time>
      </trkpt>
      <trkpt lat="49.92866" lon="4.52438">
        <ele>379.6</ele>
        <time>2024-03-17T09:10:07Z</time>
      </trkpt>
      <trkpt lat="49.92865" lon="4.52431">
        <ele>380</ele>
        <time>2024-03-17T09:10:08Z</time>
      </trkpt>
      <trkpt lat="49.92864" lon="4.52423">
        <ele>380</ele>
        <time>2024-03-17T09:10:09Z</time>
      </trkpt>
      <trkpt lat="49.92863" lon="4.52416">
        <ele>380</ele>
        <time>2024-03-17T09:10:10Z</time>
      </trkpt>
      <trkpt lat="49.92862" lon="4.52408">
        <ele>380</ele>
        <time>2024-03-17T09:10:11Z</time>
      </trkpt>
      <trkpt lat="49.92862" lon="4.524">
        <ele>380</ele>
        <time>2024-03-17T09:10:12Z</time>
      </trkpt>
      <trkpt lat="49.92861" lon="4.52392">
        <ele>380</ele>
        <time>2024-03-17T09:10:13Z</time>
      </trkpt>
      <trkpt lat="49.9286" lon="4.52384">
        <ele>380</ele>
        <time>2024-03-17T09:10:14Z</time>
      </trkpt>
      <trkpt lat="49.92859" lon="4.52377">
        <ele>380.2</ele>
        <time>2024-03-17T09:10:15Z</time>
      </trkpt>
      <trkpt lat="49.92858" lon="4.52369">
        <ele>380.2</ele>
        <time>2024-03-17T09:10:16Z</time>
      </trkpt>
      <trkpt lat="49.92858" lon="4.52361">
        <ele>380.2</ele>
        <time>2024-03-17T09:10:17Z</time>
      </trkpt>
      <trkpt lat="49.92857" lon="4.52353">
        <ele>380.2</ele>
        <time>2024-03-17T09:10:18Z</time>
      </trkpt>
      <trkpt lat="49.92856" lon="4.52345">
        <ele>380.2</ele>
        <time>2024-03-17T09:10:19Z</time>
      </trkpt>
      <trkpt lat="49.92855" lon="4.52337">
        <ele>380</ele>
        <time>2024-03-17T09:10:20Z</time>
      </trkpt>
      <trkpt lat="49.92854" lon="4.52329">
        <ele>380.2</ele>
        <time>2024-03-17T09:10:21Z</time>
      </trkpt>
      <trkpt lat="49.92853" lon="4.52321">
        <ele>380.2</ele>
        <time>2024-03-17T09:10:22Z</time>
      </trkpt>
      <trkpt lat="49.92853" lon="4.52313">
        <ele>380.4</ele>
        <time>2024-03-17T09:10:23Z</time>
      </trkpt>
      <trkpt lat="49.92852" lon="4.52305">
        <ele>380.4</ele>
        <time>2024-03-17T09:10:24Z</time>
      </trkpt>
      <trkpt lat="49.92851" lon="4.52297">
        <ele>380.2</ele>
        <time>2024-03-17T09:10:25Z</time>
      </trkpt>
      <trkpt lat="49.9285" lon="4.52289">
        <ele>380.4</ele>
        <time>2024-03-17T09:10:26Z</time>
      </trkpt>
      <trkpt lat="49.92849" lon="4.52281">
        <ele>380.6</ele>
        <time>2024-03-17T09:10:27Z</time>
      </trkpt>
      <trkpt lat="49.92849" lon="4.52272">
        <ele>380.4</ele>
        <time>2024-03-17T09:10:28Z</time>
      </trkpt>
      <trkpt lat="49.92849" lon="4.52264">
        <ele>380.6</ele>
        <time>2024-03-17T09:10:29Z</time>
      </trkpt>
      <trkpt lat="49.92849" lon="4.52255">
        <ele>380.4</ele>
        <time>2024-03-17T09:10:30Z</time>
      </trkpt>
      <trkpt lat="49.92849" lon="4.52246">
        <ele>380.6</ele>
        <time>2024-03-17T09:10:31Z</time>
      </trkpt>
      <trkpt lat="49.92851" lon="4.52238">
        <ele>380.8</ele>
        <time>2024-03-17T09:10:32Z</time>
      </trkpt>
      <trkpt lat="49.92852" lon="4.5223">
        <ele>381.2</ele>
        <time>2024-03-17T09:10:33Z</time>
      </trkpt>
      <trkpt lat="49.92854" lon="4.52222">
        <ele>381.4</ele>
        <time>2024-03-17T09:10:34Z</time>
      </trkpt>
      <trkpt lat="49.92857" lon="4.52215">
        <ele>381.4</ele>
        <time>2024-03-17T09:10:35Z</time>
      </trkpt>
      <trkpt lat="49.92861" lon="4.52209">
        <ele>381.4</ele>
        <time>2024-03-17T09:10:36Z</time>
      </trkpt>
      <trkpt lat="49.92865" lon="4.52204">
        <ele>381.6</ele>
        <time>2024-03-17T09:10:37Z</time>
      </trkpt>
      <trkpt lat="49.92871" lon="4.522">
        <ele>381.6</ele>
        <time>2024-03-17T09:10:38Z</time>
      </trkpt>
      <trkpt lat="49.92876" lon="4.52197">
        <ele>381.8</ele>
        <time>2024-03-17T09:10:39Z</time>
      </trkpt>
      <trkpt lat="49.92882" lon="4.52194">
        <ele>381.8</ele>
        <time>2024-03-17T09:10:40Z</time>
      </trkpt>
      <trkpt lat="49.92887" lon="4.52192">
        <ele>381.8</ele>
        <time>2024-03-17T09:10:41Z</time>
      </trkpt>
      <trkpt lat="49.92893" lon="4.52189">
        <ele>382</ele>
        <time>2024-03-17T09:10:42Z</time>
      </trkpt>
      <trkpt lat="49.92899" lon="4.52187">
        <ele>382</ele>
        <time>2024-03-17T09:10:43Z</time>
      </trkpt>
      <trkpt lat="49.92905" lon="4.52184">
        <ele>382</ele>
        <time>2024-03-17T09:10:44Z</time>
      </trkpt>
      <trkpt lat="49.9291" lon="4.52182">
        <ele>382.2</ele>
        <time>2024-03-17T09:10:45Z</time>
      </trkpt>
      <trkpt lat="49.92916" lon="4.52179">
        <ele>382.2</ele>
        <time>2024-03-17T09:10:46Z</time>
      </trkpt>
      <trkpt lat="49.92922" lon="4.52177">
        <ele>382.2</ele>
        <time>2024-03-17T09:10:47Z</time>
      </trkpt>
      <trkpt lat="49.92927" lon="4.52175">
        <ele>382.2</ele>
        <time>2024-03-17T09:10:48Z</time>
      </trkpt>
      <trkpt lat="49.92933" lon="4.52172">
        <ele>382.4</ele>
        <time>2024-03-17T09:10:49Z</time>
      </trkpt>
      <trkpt lat="49.92938" lon="4.5217">
        <ele>382.4</ele>
        <time>2024-03-17T09:10:50Z</time>
      </trkpt>
      <trkpt lat="49.92944" lon="4.52167">
        <ele>382.4</ele>
        <time>2024-03-17T09:10:51Z</time>
      </trkpt>
      <trkpt lat="49.92949" lon="4.52165">
        <ele>382.4</ele>
        <time>2024-03-17T09:10:52Z</time>
      </trkpt>
      <trkpt lat="49.92954" lon="4.52161">
        <ele>382.6</ele>
        <time>2024-03-17T09:10:53Z</time>
      </trkpt>
      <trkpt lat="49.9296" lon="4.52158">
        <ele>382.6</ele>
        <time>2024-03-17T09:10:54Z</time>
      </trkpt>
      <trkpt lat="49.92965" lon="4.52155">
        <ele>382.6</ele>
        <time>2024-03-17T09:10:55Z</time>
      </trkpt>
      <trkpt lat="49.9297" lon="4.52151">
        <ele>382.4</ele>
        <time>2024-03-17T09:10:56Z</time>
      </trkpt>
      <trkpt lat="49.92975" lon="4.52148">
        <ele>382.4</ele>
        <time>2024-03-17T09:10:57Z</time>
      </trkpt>
      <trkpt lat="49.9298" lon="4.52144">
        <ele>382.6</ele>
        <time>2024-03-17T09:10:58Z</time>
      </trkpt>
      <trkpt lat="49.92984" lon="4.52141">
        <ele>382.4</ele>
        <time>2024-03-17T09:10:59Z</time>
      </trkpt>
      <trkpt lat="49.92989" lon="4.52137">
        <ele>382.4</ele>
        <time>2024-03-17T09:11:00Z</time>
      </trkpt>
      <trkpt lat="49.92994" lon="4.52133">
        <ele>382.4</ele>
        <time>2024-03-17T09:11:01Z</time>
      </trkpt>
      <trkpt lat="49.92998" lon="4.5213">
        <ele>382.6</ele>
        <time>2024-03-17T09:11:02Z</time>
      </trkpt>
      <trkpt lat="49.93003" lon="4.52127">
        <ele>382.4</ele>
        <time>2024-03-17T09:11:03Z</time>
      </trkpt>
      <trkpt lat="49.93007" lon="4.52123">
        <ele>382.6</ele>
        <time>2024-03-17T09:11:04Z</time>
      </trkpt>
      <trkpt lat="49.93012" lon="4.5212">
        <ele>382.6</ele>
        <time>2024-03-17T09:11:05Z</time>
      </trkpt>
      <trkpt lat="49.93017" lon="4.52116">
        <ele>382.6</ele>
        <time>2024-03-17T09:11:06Z</time>
      </trkpt>
      <trkpt lat="49.93022" lon="4.52113">
        <ele>382.6</ele>
        <time>2024-03-17T09:11:07Z</time>
      </trkpt>
      <trkpt lat="49.93027" lon="4.52109">
        <ele>382.6</ele>
        <time>2024-03-17T09:11:08Z</time>
      </trkpt>
      <trkpt lat="49.93032" lon="4.52105">
        <ele>382.6</ele>
        <time>2024-03-17T09:11:09Z</time>
      </trkpt>
      <trkpt lat="49.93037" lon="4.52101">
        <ele>382.6</ele>
        <time>2024-03-17T09:11:10Z</time>
      </trkpt>
      <trkpt lat="49.93042" lon="4.52097">
        <ele>382.6</ele>
        <time>2024-03-17T09:11:11Z</time>
      </trkpt>
      <trkpt lat="49.93048" lon="4.52093">
        <ele>382.6</ele>
        <time>2024-03-17T09:11:12Z</time>
      </trkpt>
      <trkpt lat="49.93053" lon="4.52089">
        <ele>382.6</ele>
        <time>2024-03-17T09:11:13Z</time>
      </trkpt>
      <trkpt lat="49.93058" lon="4.52084">
        <ele>382.4</ele>
        <time>2024-03-17T09:11:14Z</time>
      </trkpt>
      <trkpt lat="49.93063" lon="4.52079">
        <ele>382.4</ele>
        <time>2024-03-17T09:11:15Z</time>
      </trkpt>
      <trkpt lat="49.93068" lon="4.52074">
        <ele>382.4</ele>
        <time>2024-03-17T09:11:16Z</time>
      </trkpt>
      <trkpt lat="49.93073" lon="4.52069">
        <ele>382.6</ele>
        <time>2024-03-17T09:11:17Z</time>
      </trkpt>
      <trkpt lat="49.93078" lon="4.52064">
        <ele>382.6</ele>
        <time>2024-03-17T09:11:18Z</time>
      </trkpt>
      <trkpt lat="49.93084" lon="4.52059">
        <ele>382.4</ele>
        <time>2024-03-17T09:11:19Z</time>
      </trkpt>
      <trkpt lat="49.93089" lon="4.52054">
        <ele>382.4</ele>
        <time>2024-03-17T09:11:20Z</time>
      </trkpt>
      <trkpt lat="49.93094" lon="4.52048">
        <ele>382.4</ele>
        <time>2024-03-17T09:11:21Z</time>
      </trkpt>
      <trkpt lat="49.93099" lon="4.52043">
        <ele>382.6</ele>
        <time>2024-03-17T09:11:22Z</time>
      </trkpt>
      <trkpt lat="49.93104" lon="4.52038">
        <ele>382.6</ele>
        <time>2024-03-17T09:11:23Z</time>
      </trkpt>
      <trkpt lat="49.93109" lon="4.52033">
        <ele>382.6</ele>
        <time>2024-03-17T09:11:24Z</time>
      </trkpt>
      <trkpt lat="49.93114" lon="4.52028">
        <ele>382.4</ele>
        <time>2024-03-17T09:11:25Z</time>
      </trkpt>
      <trkpt lat="49.9312" lon="4.52023">
        <ele>382.6</ele>
        <time>2024-03-17T09:11:26Z</time>
      </trkpt>
      <trkpt lat="49.93125" lon="4.52018">
        <ele>382.4</ele>
        <time>2024-03-17T09:11:27Z</time>
      </trkpt>
      <trkpt lat="49.9313" lon="4.52012">
        <ele>382.4</ele>
        <time>2024-03-17T09:11:28Z</time>
      </trkpt>
      <trkpt lat="49.93136" lon="4.52007">
        <ele>382.4</ele>
        <time>2024-03-17T09:11:29Z</time>
      </trkpt>
      <trkpt lat="49.93141" lon="4.52002">
        <ele>382.4</ele>
        <time>2024-03-17T09:11:30Z</time>
      </trkpt>
      <trkpt lat="49.93147" lon="4.51997">
        <ele>382.6</ele>
        <time>2024-03-17T09:11:31Z</time>
      </trkpt>
      <trkpt lat="49.93153" lon="4.51993">
        <ele>382.6</ele>
        <time>2024-03-17T09:11:32Z</time>
      </trkpt>
      <trkpt lat="49.93158" lon="4.51988">
        <ele>382.8</ele>
        <time>2024-03-17T09:11:33Z</time>
      </trkpt>
      <trkpt lat="49.93164" lon="4.51984">
        <ele>382.6</ele>
        <time>2024-03-17T09:11:34Z</time>
      </trkpt>
      <trkpt lat="49.9317" lon="4.51979">
        <ele>382.6</ele>
        <time>2024-03-17T09:11:35Z</time>
      </trkpt>
      <trkpt lat="49.93175" lon="4.51974">
        <ele>382.8</ele>
        <time>2024-03-17T09:11:36Z</time>
      </trkpt>
      <trkpt lat="49.93181" lon="4.51969">
        <ele>382.8</ele>
        <time>2024-03-17T09:11:37Z</time>
      </trkpt>
      <trkpt lat="49.93187" lon="4.51963">
        <ele>382.8</ele>
        <time>2024-03-17T09:11:38Z</time>
      </trkpt>
      <trkpt lat="49.93193" lon="4.51958">
        <ele>383</ele>
        <time>2024-03-17T09:11:39Z</time>
      </trkpt>
      <trkpt lat="49.93199" lon="4.51953">
        <ele>383</ele>
        <time>2024-03-17T09:11:40Z</time>
      </trkpt>
      <trkpt lat="49.93205" lon="4.51947">
        <ele>382.8</ele>
        <time>2024-03-17T09:11:41Z</time>
      </trkpt>
      <trkpt lat="49.93212" lon="4.51942">
        <ele>382.8</ele>
        <time>2024-03-17T09:11:42Z</time>
      </trkpt>
      <trkpt lat="49.93218" lon="4.51937">
        <ele>382.8</ele>
        <time>2024-03-17T09:11:43Z</time>
      </trkpt>
      <trkpt lat="49.93224" lon="4.51931">
        <ele>383</ele>
        <time>2024-03-17T09:11:44Z</time>
      </trkpt>
      <trkpt lat="49.9323" lon="4.51926">
        <ele>383</ele>
        <time>2024-03-17T09:11:45Z</time>
      </trkpt>
      <trkpt lat="49.93236" lon="4.5192">
        <ele>382.8</ele>
        <time>2024-03-17T09:11:46Z</time>
      </trkpt>
      <trkpt lat="49.93242" lon="4.51914">
        <ele>382.8</ele>
        <time>2024-03-17T09:11:47Z</time>
      </trkpt>
      <trkpt lat="49.93249" lon="4.51909">
        <ele>382.6</ele>
        <time>2024-03-17T09:11:48Z</time>
      </trkpt>
      <trkpt lat="49.93255" lon="4.51904">
        <ele>382.2</ele>
        <time>2024-03-17T09:11:49Z</time>
      </trkpt>
      <trkpt lat="49.93261" lon="4.51898">
        <ele>382</ele>
        <time>2024-03-17T09:11:50Z</time>
      </trkpt>
      <trkpt lat="49.93267" lon="4.51892">
        <ele>382</ele>
        <time>2024-03-17T09:11:51Z</time>
      </trkpt>
      <trkpt lat="49.93274" lon="4.51887">
        <ele>381.8</ele>
        <time>2024-03-17T09:11:52Z</time>
      </trkpt>
      <trkpt lat="49.9328" lon="4.51881">
        <ele>381.8</ele>
        <time>2024-03-17T09:11:53Z</time>
      </trkpt>
      <trkpt lat="49.93286" lon="4.51875">
        <ele>381.4</ele>
        <time>2024-03-17T09:11:54Z</time>
      </trkpt>
      <trkpt lat="49.93293" lon="4.5187">
        <ele>381.6</ele>
        <time>2024-03-17T09:11:55Z</time>
      </trkpt>
      <trkpt lat="49.93299" lon="4.51864">
        <ele>381.6</ele>
        <time>2024-03-17T09:11:56Z</time>
      </trkpt>
      <trkpt lat="49.93305" lon="4.51858">
        <ele>381.4</ele>
        <time>2024-03-17T09:11:57Z</time>
      </trkpt>
      <trkpt lat="49.93312" lon="4.51852">
        <ele>381.6</ele>
        <time>2024-03-17T09:11:58Z</time>
      </trkpt>
      <trkpt lat="49.93318" lon="4.51846">
        <ele>381.6</ele>
        <time>2024-03-17T09:11:59Z</time>
      </trkpt>
      <trkpt lat="49.93325" lon="4.5184">
        <ele>381.4</ele>
        <time>2024-03-17T09:12:00Z</time>
      </trkpt>
      <trkpt lat="49.93331" lon="4.51834">
        <ele>381.4</ele>
        <time>2024-03-17T09:12:01Z</time>
      </trkpt>
      <trkpt lat="49.93338" lon="4.51828">
        <ele>381.4</ele>
        <time>2024-03-17T09:12:02Z</time>
      </trkpt>
      <trkpt lat="49.93344" lon="4.51822">
        <ele>381.4</ele>
        <time>2024-03-17T09:12:03Z</time>
      </trkpt>
      <trkpt lat="49.93351" lon="4.51816">
        <ele>381.2</ele>
        <time>2024-03-17T09:12:04Z</time>
      </trkpt>
      <trkpt lat="49.93358" lon="4.5181">
        <ele>381.2</ele>
        <time>2024-03-17T09:12:05Z</time>
      </trkpt>
      <trkpt lat="49.93365" lon="4.51804">
        <ele>381.4</ele>
        <time>2024-03-17T09:12:06Z</time>
      </trkpt>
      <trkpt lat="49.93372" lon="4.51798">
        <ele>381.2</ele>
        <time>2024-03-17T09:12:07Z</time>
      </trkpt>
      <trkpt lat="49.93379" lon="4.51792">
        <ele>381</ele>
        <time>2024-03-17T09:12:08Z</time>
      </trkpt>
      <trkpt lat="49.93386" lon="4.51786">
        <ele>381</ele>
        <time>2024-03-17T09:12:09Z</time>
      </trkpt>
      <trkpt lat="49.93393" lon="4.5178">
        <ele>380.6</ele>
        <time>2024-03-17T09:12:10Z</time>
      </trkpt>
      <trkpt lat="49.934" lon="4.51776">
        <ele>380.6</ele>
        <time>2024-03-17T09:12:11Z</time>
      </trkpt>
      <trkpt lat="49.93408" lon="4.51773">
        <ele>380.6</ele>
        <time>2024-03-17T09:12:12Z</time>
      </trkpt>
      <trkpt lat="49.93415" lon="4.51771">
        <ele>380.4</ele>
        <time>2024-03-17T09:12:13Z</time>
      </trkpt>
      <trkpt lat="49.93423" lon="4.5177">
        <ele>380.4</ele>
        <time>2024-03-17T09:12:14Z</time>
      </trkpt>
      <trkpt lat="49.93431" lon="4.51771">
        <ele>380.2</ele>
        <time>2024-03-17T09:12:15Z</time>
      </trkpt>
      <trkpt lat="49.93439" lon="4.51772">
        <ele>380</ele>
        <time>2024-03-17T09:12:16Z</time>
      </trkpt>
      <trkpt lat="49.93447" lon="4.51775">
        <ele>380</ele>
        <time>2024-03-17T09:12:17Z</time>
      </trkpt>
      <trkpt lat="49.93454" lon="4.51779">
        <ele>379.8</ele>
        <time>2024-03-17T09:12:18Z</time>
      </trkpt>
      <trkpt lat="49.93462" lon="4.51784">
        <ele>379.6</ele>
        <time>2024-03-17T09:12:19Z</time>
      </trkpt>
      <trkpt lat="49.9347" lon="4.51789">
        <ele>379.6</ele>
        <time>2024-03-17T09:12:20Z</time>
      </trkpt>
      <trkpt lat="49.93478" lon="4.51794">
        <ele>379.4</ele>
        <time>2024-03-17T09:12:21Z</time>
      </trkpt>
      <trkpt lat="49.93486" lon="4.51799">
        <ele>379.2</ele>
        <time>2024-03-17T09:12:22Z</time>
      </trkpt>
      <trkpt lat="49.93494" lon="4.51803">
        <ele>379.2</ele>
        <time>2024-03-17T09:12:23Z</time>
      </trkpt>
      <trkpt lat="49.93502" lon="4.51806">
        <ele>379</ele>
        <time>2024-03-17T09:12:24Z</time>
      </trkpt>
      <trkpt lat="49.93511" lon="4.51807">
        <ele>379</ele>
        <time>2024-03-17T09:12:25Z</time>
      </trkpt>
      <trkpt lat="49.93519" lon="4.51807">
        <ele>378.6</ele>
        <time>2024-03-17T09:12:26Z</time>
      </trkpt>
      <trkpt lat="49.93527" lon="4.51806">
        <ele>378.2</ele>
        <time>2024-03-17T09:12:27Z</time>
      </trkpt>
      <trkpt lat="49.93536" lon="4.51804">
        <ele>378.2</ele>
        <time>2024-03-17T09:12:28Z</time>
      </trkpt>
      <trkpt lat="49.93544" lon="4.51801">
        <ele>378</ele>
        <time>2024-03-17T09:12:29Z</time>
      </trkpt>
      <trkpt lat="49.93552" lon="4.51798">
        <ele>378</ele>
        <time>2024-03-17T09:12:30Z</time>
      </trkpt>
      <trkpt lat="49.9356" lon="4.51795">
        <ele>377.8</ele>
        <time>2024-03-17T09:12:31Z</time>
      </trkpt>
      <trkpt lat="49.93568" lon="4.51791">
        <ele>377.6</ele>
        <time>2024-03-17T09:12:32Z</time>
      </trkpt>
      <trkpt lat="49.93576" lon="4.51787">
        <ele>377.6</ele>
        <time>2024-03-17T09:12:33Z</time>
      </trkpt>
      <trkpt lat="49.93585" lon="4.51783">
        <ele>377.6</ele>
        <time>2024-03-17T09:12:34Z</time>
      </trkpt>
      <trkpt lat="49.93592" lon="4.51779">
        <ele>377.6</ele>
        <time>2024-03-17T09:12:35Z</time>
      </trkpt>
      <trkpt lat="49.93601" lon="4.51774">
        <ele>377.6</ele>
        <time>2024-03-17T09:12:36Z</time>
      </trkpt>
      <trkpt lat="49.93609" lon="4.51769">
        <ele>377.4</ele>
        <time>2024-03-17T09:12:37Z</time>
      </trkpt>
      <trkpt lat="49.93617" lon="4.51763">
        <ele>377.4</ele>
        <time>2024-03-17T09:12:38Z</time>
      </trkpt>
      <trkpt lat="49.93625" lon="4.51758">
        <ele>377.6</ele>
        <time>2024-03-17T09:12:39Z</time>
      </trkpt>
      <trkpt lat="49.93633" lon="4.51752">
        <ele>377.4</ele>
        <time>2024-03-17T09:12:40Z</time>
      </trkpt>
      <trkpt lat="49.93642" lon="4.51747">
        <ele>377.4</ele>
        <time>2024-03-17T09:12:41Z</time>
      </trkpt>
      <trkpt lat="49.9365" lon="4.51741">
        <ele>377.2</ele>
        <time>2024-03-17T09:12:42Z</time>
      </trkpt>
      <trkpt lat="49.93659" lon="4.51735">
        <ele>377</ele>
        <time>2024-03-17T09:12:43Z</time>
      </trkpt>
      <trkpt lat="49.93667" lon="4.5173">
        <ele>376.6</ele>
        <time>2024-03-17T09:12:44Z</time>
      </trkpt>
      <trkpt lat="49.93676" lon="4.51724">
        <ele>376.6</ele>
        <time>2024-03-17T09:12:45Z</time>
      </trkpt>
      <trkpt lat="49.93685" lon="4.51719">
        <ele>375.8</ele>
        <time>2024-03-17T09:12:46Z</time>
      </trkpt>
      <trkpt lat="49.93694" lon="4.51714">
        <ele>375.6</ele>
        <time>2024-03-17T09:12:47Z</time>
      </trkpt>
      <trkpt lat="49.93703" lon="4.51711">
        <ele>375.6</ele>
        <time>2024-03-17T09:12:48Z</time>
      </trkpt>
      <trkpt lat="49.93712" lon="4.51708">
        <ele>375.4</ele>
        <time>2024-03-17T09:12:49Z</time>
      </trkpt>
      <trkpt lat="49.93722" lon="4.51705">
        <ele>375.2</ele>
        <time>2024-03-17T09:12:50Z</time>
      </trkpt>
      <trkpt lat="49.93732" lon="4.51704">
        <ele>375.2</ele>
        <time>2024-03-17T09:12:51Z</time>
      </trkpt>
      <trkpt lat="49.93742" lon="4.51704">
        <ele>374.8</ele>
        <time>2024-03-17T09:12:52Z</time>
      </trkpt>
      <trkpt lat="49.93751" lon="4.51705">
        <ele>374.6</ele>
        <time>2024-03-17T09:12:53Z</time>
      </trkpt>
      <trkpt lat="49.93761" lon="4.51706">
        <ele>374.2</ele>
        <time>2024-03-17T09:12:54Z</time>
      </trkpt>
      <trkpt lat="49.93771" lon="4.51706">
        <ele>373.8</ele>
        <time>2024-03-17T09:12:55Z</time>
      </trkpt>
      <trkpt lat="49.93781" lon="4.51707">
        <ele>373.4</ele>
        <time>2024-03-17T09:12:56Z</time>
      </trkpt>
      <trkpt lat="49.93791" lon="4.51708">
        <ele>373.4</ele>
        <time>2024-03-17T09:12:57Z</time>
      </trkpt>
      <trkpt lat="49.938" lon="4.51709">
        <ele>372.8</ele>
        <time>2024-03-17T09:12:58Z</time>
      </trkpt>
      <trkpt lat="49.9381" lon="4.51711">
        <ele>372.2</ele>
        <time>2024-03-17T09:12:59Z</time>
      </trkpt>
      <trkpt lat="49.9382" lon="4.51712">
        <ele>371.8</ele>
        <time>2024-03-17T09:13:00Z</time>
      </trkpt>
      <trkpt lat="49.93829" lon="4.51713">
        <ele>371.4</ele>
        <time>2024-03-17T09:13:01Z</time>
      </trkpt>
      <trkpt lat="49.93839" lon="4.51714">
        <ele>371.4</ele>
        <time>2024-03-17T09:13:02Z</time>
      </trkpt>
      <trkpt lat="49.93848" lon="4.51714">
        <ele>371.2</ele>
        <time>2024-03-17T09:13:03Z</time>
      </trkpt>
      <trkpt lat="49.93858" lon="4.51715">
        <ele>371.2</ele>
        <time>2024-03-17T09:13:04Z</time>
      </trkpt>
      <trkpt lat="49.93868" lon="4.51717">
        <ele>371</ele>
        <time>2024-03-17T09:13:05Z</time>
      </trkpt>
      <trkpt lat="49.93877" lon="4.51718">
        <ele>370.2</ele>
        <time>2024-03-17T09:13:06Z</time>
      </trkpt>
      <trkpt lat="49.93887" lon="4.51719">
        <ele>369.4</ele>
        <time>2024-03-17T09:13:07Z</time>
      </trkpt>
      <trkpt lat="49.93896" lon="4.5172">
        <ele>368.8</ele>
        <time>2024-03-17T09:13:08Z</time>
      </trkpt>
      <trkpt lat="49.93906" lon="4.51721">
        <ele>368.6</ele>
        <time>2024-03-17T09:13:09Z</time>
      </trkpt>
      <trkpt lat="49.93915" lon="4.51722">
        <ele>368.4</ele>
        <time>2024-03-17T09:13:10Z</time>
      </trkpt>
      <trkpt lat="49.93925" lon="4.51723">
        <ele>368</ele>
        <time>2024-03-17T09:13:11Z</time>
      </trkpt>
      <trkpt lat="49.93935" lon="4.51724">
        <ele>368</ele>
        <time>2024-03-17T09:13:12Z</time>
      </trkpt>
      <trkpt lat="49.93944" lon="4.51725">
        <ele>367.8</ele>
        <time>2024-03-17T09:13:13Z</time>
      </trkpt>
      <trkpt lat="49.93954" lon="4.51726">
        <ele>367.6</ele>
        <time>2024-03-17T09:13:14Z</time>
      </trkpt>
      <trkpt lat="49.93964" lon="4.51727">
        <ele>367.6</ele>
        <time>2024-03-17T09:13:15Z</time>
      </trkpt>
      <trkpt lat="49.93973" lon="4.51728">
        <ele>367.4</ele>
        <time>2024-03-17T09:13:16Z</time>
      </trkpt>
      <trkpt lat="49.93983" lon="4.51729">
        <ele>367.2</ele>
        <time>2024-03-17T09:13:17Z</time>
      </trkpt>
      <trkpt lat="49.93993" lon="4.5173">
        <ele>367</ele>
        <time>2024-03-17T09:13:18Z</time>
      </trkpt>
      <trkpt lat="49.94002" lon="4.51731">
        <ele>367</ele>
        <time>2024-03-17T09:13:19Z</time>
      </trkpt>
      <trkpt lat="49.94012" lon="4.51732">
        <ele>367</ele>
        <time>2024-03-17T09:13:20Z</time>
      </trkpt>
      <trkpt lat="49.94022" lon="4.51733">
        <ele>367</ele>
        <time>2024-03-17T09:13:21Z</time>
      </trkpt>
      <trkpt lat="49.94032" lon="4.51734">
        <ele>367</ele>
        <time>2024-03-17T09:13:22Z</time>
      </trkpt>
      <trkpt lat="49.94041" lon="4.51735">
        <ele>366.8</ele>
        <time>2024-03-17T09:13:23Z</time>
      </trkpt>
      <trkpt lat="49.94051" lon="4.51736">
        <ele>366.8</ele>
        <time>2024-03-17T09:13:24Z</time>
      </trkpt>
      <trkpt lat="49.94061" lon="4.51737">
        <ele>366.6</ele>
        <time>2024-03-17T09:13:25Z</time>
      </trkpt>
      <trkpt lat="49.94071" lon="4.51737">
        <ele>366.6</ele>
        <time>2024-03-17T09:13:26Z</time>
      </trkpt>
      <trkpt lat="49.94081" lon="4.51738">
        <ele>366.6</ele>
        <time>2024-03-17T09:13:27Z</time>
      </trkpt>
      <trkpt lat="49.94091" lon="4.51739">
        <ele>366.6</ele>
        <time>2024-03-17T09:13:28Z</time>
      </trkpt>
      <trkpt lat="49.941" lon="4.5174">
        <ele>366.2</ele>
        <time>2024-03-17T09:13:29Z</time>
      </trkpt>
      <trkpt lat="49.9411" lon="4.51741">
        <ele>366.2</ele>
        <time>2024-03-17T09:13:30Z</time>
      </trkpt>
      <trkpt lat="49.9412" lon="4.51742">
        <ele>366.2</ele>
        <time>2024-03-17T09:13:31Z</time>
      </trkpt>
      <trkpt lat="49.9413" lon="4.51743">
        <ele>366</ele>
        <time>2024-03-17T09:13:32Z</time>
      </trkpt>
      <trkpt lat="49.9414" lon="4.51744">
        <ele>365.6</ele>
        <time>2024-03-17T09:13:33Z</time>
      </trkpt>
      <trkpt lat="49.9415" lon="4.51745">
        <ele>365.4</ele>
        <time>2024-03-17T09:13:34Z</time>
      </trkpt>
      <trkpt lat="49.9416" lon="4.51746">
        <ele>364.8</ele>
        <time>2024-03-17T09:13:35Z</time>
      </trkpt>
      <trkpt lat="49.9417" lon="4.51747">
        <ele>364.8</ele>
        <time>2024-03-17T09:13:36Z</time>
      </trkpt>
      <trkpt lat="49.9418" lon="4.51748">
        <ele>364.6</ele>
        <time>2024-03-17T09:13:37Z</time>
      </trkpt>
      <trkpt lat="49.9419" lon="4.51749">
        <ele>364.4</ele>
        <time>2024-03-17T09:13:38Z</time>
      </trkpt>
      <trkpt lat="49.942" lon="4.5175">
        <ele>364.4</ele>
        <time>2024-03-17T09:13:39Z</time>
      </trkpt>
      <trkpt lat="49.9421" lon="4.51751">
        <ele>364</ele>
        <time>2024-03-17T09:13:40Z</time>
      </trkpt>
      <trkpt lat="49.9422" lon="4.51752">
        <ele>364</ele>
        <time>2024-03-17T09:13:41Z</time>
      </trkpt>
      <trkpt lat="49.9423" lon="4.51753">
        <ele>363.2</ele>
        <time>2024-03-17T09:13:42Z</time>
      </trkpt>
      <trkpt lat="49.94241" lon="4.51754">
        <ele>362.2</ele>
        <time>2024-03-17T09:13:43Z</time>
      </trkpt>
      <trkpt lat="49.94251" lon="4.51756">
        <ele>361.4</ele>
        <time>2024-03-17T09:13:44Z</time>
      </trkpt>
      <trkpt lat="49.94261" lon="4.51757">
        <ele>361</ele>
        <time>2024-03-17T09:13:45Z</time>
      </trkpt>
      <trkpt lat="49.94271" lon="4.51758">
        <ele>360.6</ele>
        <time>2024-03-17T09:13:46Z</time>
      </trkpt>
      <trkpt lat="49.94282" lon="4.51759">
        <ele>360.2</ele>
        <time>2024-03-17T09:13:47Z</time>
      </trkpt>
      <trkpt lat="49.94292" lon="4.5176">
        <ele>360</ele>
        <time>2024-03-17T09:13:48Z</time>
      </trkpt>
      <trkpt lat="49.94302" lon="4.5176">
        <ele>359.6</ele>
        <time>2024-03-17T09:13:49Z</time>
      </trkpt>
      <trkpt lat="49.94312" lon="4.51761">
        <ele>359.4</ele>
        <time>2024-03-17T09:13:50Z</time>
      </trkpt>
      <trkpt lat="49.94322" lon="4.51763">
        <ele>359</ele>
        <time>2024-03-17T09:13:51Z</time>
      </trkpt>
      <trkpt lat="49.94333" lon="4.51764">
        <ele>358.6</ele>
        <time>2024-03-17T09:13:52Z</time>
      </trkpt>
      <trkpt lat="49.94343" lon="4.51765">
        <ele>358.6</ele>
        <time>2024-03-17T09:13:53Z</time>
      </trkpt>
      <trkpt lat="49.94353" lon="4.51766">
        <ele>358.4</ele>
        <time>2024-03-17T09:13:54Z</time>
      </trkpt>
      <trkpt lat="49.94363" lon="4.51767">
        <ele>358.4</ele>
        <time>2024-03-17T09:13:55Z</time>
      </trkpt>
      <trkpt lat="49.94373" lon="4.51767">
        <ele>358.2</ele>
        <time>2024-03-17T09:13:56Z</time>
      </trkpt>
      <trkpt lat="49.94383" lon="4.51768">
        <ele>358</ele>
        <time>2024-03-17T09:13:57Z</time>
      </trkpt>
      <trkpt lat="49.94393" lon="4.51767">
        <ele>358</ele>
        <time>2024-03-17T09:13:58Z</time>
      </trkpt>
      <trkpt lat="49.94403" lon="4.51767">
        <ele>357.8</ele>
        <time>2024-03-17T09:13:59Z</time>
      </trkpt>
      <trkpt lat="49.94413" lon="4.51765">
        <ele>357.6</ele>
        <time>2024-03-17T09:14:00Z</time>
      </trkpt>
      <trkpt lat="49.94422" lon="4.51762">
        <ele>357.6</ele>
        <time>2024-03-17T09:14:01Z</time>
      </trkpt>
      <trkpt lat="49.94432" lon="4.51758">
        <ele>357.4</ele>
        <time>2024-03-17T09:14:02Z</time>
      </trkpt>
      <trkpt lat="49.94442" lon="4.51753">
        <ele>357.2</ele>
        <time>2024-03-17T09:14:03Z</time>
      </trkpt>
      <trkpt lat="49.94451" lon="4.51748">
        <ele>357.2</ele>
        <time>2024-03-17T09:14:04Z</time>
      </trkpt>
      <trkpt lat="49.94461" lon="4.51743">
        <ele>357</ele>
        <time>2024-03-17T09:14:05Z</time>
      </trkpt>
      <trkpt lat="49.9447" lon="4.51738">
        <ele>357</ele>
        <time>2024-03-17T09:14:06Z</time>
      </trkpt>
      <trkpt lat="49.9448" lon="4.51732">
        <ele>357</ele>
        <time>2024-03-17T09:14:07Z</time>
      </trkpt>
      <trkpt lat="49.94489" lon="4.51726">
        <ele>357</ele>
        <time>2024-03-17T09:14:08Z</time>
      </trkpt>
      <trkpt lat="49.94498" lon="4.5172">
        <ele>356.8</ele>
        <time>2024-03-17T09:14:09Z</time>
      </trkpt>
      <trkpt lat="49.94507" lon="4.51713">
        <ele>356.6</ele>
        <time>2024-03-17T09:14:10Z</time>
      </trkpt>
      <trkpt lat="49.94515" lon="4.51705">
        <ele>356.2</ele>
        <time>2024-03-17T09:14:11Z</time>
      </trkpt>
      <trkpt lat="49.94523" lon="4.51698">
        <ele>356.2</ele>
        <time>2024-03-17T09:14:12Z</time>
      </trkpt>
      <trkpt lat="49.94532" lon="4.5169">
        <ele>356.2</ele>
        <time>2024-03-17T09:14:13Z</time>
      </trkpt>
      <trkpt lat="49.9454" lon="4.51682">
        <ele>356</ele>
        <time>2024-03-17T09:14:14Z</time>
      </trkpt>
      <trkpt lat="49.94548" lon="4.51674">
        <ele>355.8</ele>
        <time>2024-03-17T09:14:15Z</time>
      </trkpt>
      <trkpt lat="49.94556" lon="4.51665">
        <ele>355.8</ele>
        <time>2024-03-17T09:14:16Z</time>
      </trkpt>
      <trkpt lat="49.94563" lon="4.51657">
        <ele>355.8</ele>
        <time>2024-03-17T09:14:17Z</time>
      </trkpt>
      <trkpt lat="49.94571" lon="4.5165">
        <ele>355.8</ele>
        <time>2024-03-17T09:14:18Z</time>
      </trkpt>
      <trkpt lat="49.94579" lon="4.51641">
        <ele>355.8</ele>
        <time>2024-03-17T09:14:19Z</time>
      </trkpt>
      <trkpt lat="49.94586" lon="4.51633">
        <ele>355.8</ele>
        <time>2024-03-17T09:14:20Z</time>
      </trkpt>
      <trkpt lat="49.94593" lon="4.51625">
        <ele>355.6</ele>
        <time>2024-03-17T09:14:21Z</time>
      </trkpt>
      <trkpt lat="49.946" lon="4.51616">
        <ele>355.6</ele>
        <time>2024-03-17T09:14:22Z</time>
      </trkpt>
      <trkpt lat="49.94607" lon="4.51607">
        <ele>355.8</ele>
        <time>2024-03-17T09:14:23Z</time>
      </trkpt>
      <trkpt lat="49.94613" lon="4.51597">
        <ele>355.6</ele>
        <time>2024-03-17T09:14:24Z</time>
      </trkpt>
      <trkpt lat="49.94618" lon="4.51586">
        <ele>355.4</ele>
        <time>2024-03-17T09:14:25Z</time>
      </trkpt>
      <trkpt lat="49.94623" lon="4.51576">
        <ele>355.4</ele>
        <time>2024-03-17T09:14:26Z</time>
      </trkpt>
      <trkpt lat="49.94628" lon="4.51565">
        <ele>355.4</ele>
        <time>2024-03-17T09:14:27Z</time>
      </trkpt>
      <trkpt lat="49.94633" lon="4.51554">
        <ele>355.4</ele>
        <time>2024-03-17T09:14:28Z</time>
      </trkpt>
      <trkpt lat="49.94637" lon="4.51542">
        <ele>355.4</ele>
        <time>2024-03-17T09:14:29Z</time>
      </trkpt>
      <trkpt lat="49.94641" lon="4.51531">
        <ele>355.2</ele>
        <time>2024-03-17T09:14:30Z</time>
      </trkpt>
      <trkpt lat="49.94645" lon="4.51519">
        <ele>355.2</ele>
        <time>2024-03-17T09:14:31Z</time>
      </trkpt>
      <trkpt lat="49.94648" lon="4.51508">
        <ele>355.4</ele>
        <time>2024-03-17T09:14:32Z</time>
      </trkpt>
      <trkpt lat="49.94651" lon="4.51495">
        <ele>355.2</ele>
        <time>2024-03-17T09:14:33Z</time>
      </trkpt>
      <trkpt lat="49.94653" lon="4.51483">
        <ele>355.2</ele>
        <time>2024-03-17T09:14:34Z</time>
      </trkpt>
      <trkpt lat="49.94655" lon="4.5147">
        <ele>355.4</ele>
        <time>2024-03-17T09:14:35Z</time>
      </trkpt>
      <trkpt lat="49.94656" lon="4.51457">
        <ele>355.2</ele>
        <time>2024-03-17T09:14:36Z</time>
      </trkpt>
      <trkpt lat="49.94657" lon="4.51444">
        <ele>355.2</ele>
        <time>2024-03-17T09:14:37Z</time>
      </trkpt>
      <trkpt lat="49.94658" lon="4.5143">
        <ele>355.2</ele>
        <time>2024-03-17T09:14:38Z</time>
      </trkpt>
      <trkpt lat="49.94659" lon="4.51417">
        <ele>355.4</ele>
        <time>2024-03-17T09:14:39Z</time>
      </trkpt>
      <trkpt lat="49.9466" lon="4.51404">
        <ele>355.4</ele>
        <time>2024-03-17T09:14:40Z</time>
      </trkpt>
      <trkpt lat="49.94661" lon="4.5139">
        <ele>355.6</ele>
        <time>2024-03-17T09:14:41Z</time>
      </trkpt>
      <trkpt lat="49.94662" lon="4.51376">
        <ele>355.6</ele>
        <time>2024-03-17T09:14:42Z</time>
      </trkpt>
      <trkpt lat="49.94662" lon="4.51363">
        <ele>355.6</ele>
        <time>2024-03-17T09:14:43Z</time>
      </trkpt>
      <trkpt lat="49.94663" lon="4.51349">
        <ele>355.6</ele>
        <time>2024-03-17T09:14:44Z</time>
      </trkpt>
      <trkpt lat="49.94663" lon="4.51335">
        <ele>355.6</ele>
        <time>2024-03-17T09:14:45Z</time>
      </trkpt>
      <trkpt lat="49.94664" lon="4.51321">
        <ele>355.6</ele>
        <time>2024-03-17T09:14:46Z</time>
      </trkpt>
      <trkpt lat="49.94665" lon="4.51308">
        <ele>355.6</ele>
        <time>2024-03-17T09:14:47Z</time>
      </trkpt>
      <trkpt lat="49.94666" lon="4.51294">
        <ele>355.8</ele>
        <time>2024-03-17T09:14:48Z</time>
      </trkpt>
      <trkpt lat="49.94668" lon="4.51281">
        <ele>355.8</ele>
        <time>2024-03-17T09:14:49Z</time>
      </trkpt>
      <trkpt lat="49.94669" lon="4.51267">
        <ele>355.6</ele>
        <time>2024-03-17T09:14:50Z</time>
      </trkpt>
      <trkpt lat="49.9467" lon="4.51253">
        <ele>355.6</ele>
        <time>2024-03-17T09:14:51Z</time>
      </trkpt>
      <trkpt lat="49.94672" lon="4.5124">
        <ele>355.6</ele>
        <time>2024-03-17T09:14:52Z</time>
      </trkpt>
      <trkpt lat="49.94673" lon="4.51226">
        <ele>355.2</ele>
        <time>2024-03-17T09:14:53Z</time>
      </trkpt>
      <trkpt lat="49.94674" lon="4.51212">
        <ele>355.2</ele>
        <time>2024-03-17T09:14:54Z</time>
      </trkpt>
      <trkpt lat="49.94676" lon="4.51199">
        <ele>355</ele>
        <time>2024-03-17T09:14:55Z</time>
      </trkpt>
      <trkpt lat="49.94678" lon="4.51187">
        <ele>355</ele>
        <time>2024-03-17T09:14:56Z</time>
      </trkpt>
      <trkpt lat="49.9468" lon="4.51175">
        <ele>354.8</ele>
        <time>2024-03-17T09:14:57Z</time>
      </trkpt>
      <trkpt lat="49.94683" lon="4.51163">
        <ele>354.6</ele>
        <time>2024-03-17T09:14:58Z</time>
      </trkpt>
      <trkpt lat="49.94686" lon="4.51153">
        <ele>354.4</ele>
        <time>2024-03-17T09:14:59Z</time>
      </trkpt>
      <trkpt lat="49.94691" lon="4.51145">
        <ele>354.2</ele>
        <time>2024-03-17T09:15:00Z</time>
      </trkpt>
      <trkpt lat="49.94696" lon="4.51137">
        <ele>354.2</ele>
        <time>2024-03-17T09:15:01Z</time>
      </trkpt>
      <trkpt lat="49.94701" lon="4.5113">
        <ele>354.2</ele>
        <time>2024-03-17T09:15:02Z</time>
      </trkpt>
      <trkpt lat="49.94706" lon="4.51122">
        <ele>354.2</ele>
        <time>2024-03-17T09:15:03Z</time>
      </trkpt>
      <trkpt lat="49.94712" lon="4.51114">
        <ele>354.4</ele>
        <time>2024-03-17T09:15:04Z</time>
      </trkpt>
      <trkpt lat="49.94717" lon="4.51107">
        <ele>354.4</ele>
        <time>2024-03-17T09:15:05Z</time>
      </trkpt>
      <trkpt lat="49.94722" lon="4.51099">
        <ele>354.2</ele>
        <time>2024-03-17T09:15:06Z</time>
      </trkpt>
      <trkpt lat="49.94727" lon="4.5109">
        <ele>354.4</ele>
        <time>2024-03-17T09:15:07Z</time>
      </trkpt>
      <trkpt lat="49.94732" lon="4.51082">
        <ele>354.4</ele>
        <time>2024-03-17T09:15:08Z</time>
      </trkpt>
      <trkpt lat="49.94737" lon="4.51073">
        <ele>354.4</ele>
        <time>2024-03-17T09:15:09Z</time>
      </trkpt>
      <trkpt lat="49.94742" lon="4.51065">
        <ele>354.4</ele>
        <time>2024-03-17T09:15:10Z</time>
      </trkpt>
      <trkpt lat="49.94748" lon="4.51057">
        <ele>354.4</ele>
        <time>2024-03-17T09:15:11Z</time>
      </trkpt>
      <trkpt lat="49.94753" lon="4.51049">
        <ele>354.8</ele>
        <time>2024-03-17T09:15:12Z</time>
      </trkpt>
      <trkpt lat="49.94758" lon="4.51041">
        <ele>355</ele>
        <time>2024-03-17T09:15:13Z</time>
      </trkpt>
      <trkpt lat="49.94762" lon="4.51032">
        <ele>355.2</ele>
        <time>2024-03-17T09:15:14Z</time>
      </trkpt>
      <trkpt lat="49.94767" lon="4.51024">
        <ele>355.4</ele>
        <time>2024-03-17T09:15:15Z</time>
      </trkpt>
      <trkpt lat="49.94772" lon="4.51016">
        <ele>355.6</ele>
        <time>2024-03-17T09:15:16Z</time>
      </trkpt>
      <trkpt lat="49.94777" lon="4.51008">
        <ele>355.6</ele>
        <time>2024-03-17T09:15:17Z</time>
      </trkpt>
      <trkpt lat="49.94783" lon="4.51">
        <ele>355.6</ele>
        <time>2024-03-17T09:15:18Z</time>
      </trkpt>
      <trkpt lat="49.94788" lon="4.50991">
        <ele>355.8</ele>
        <time>2024-03-17T09:15:19Z</time>
      </trkpt>
      <trkpt lat="49.94794" lon="4.50983">
        <ele>355.8</ele>
        <time>2024-03-17T09:15:20Z</time>
      </trkpt>
      <trkpt lat="49.94799" lon="4.50973">
        <ele>355.8</ele>
        <time>2024-03-17T09:15:21Z</time>
      </trkpt>
      <trkpt lat="49.94804" lon="4.50964">
        <ele>355.8</ele>
        <time>2024-03-17T09:15:22Z</time>
      </trkpt>
      <trkpt lat="49.9481" lon="4.50955">
        <ele>356</ele>
        <time>2024-03-17T09:15:23Z</time>
      </trkpt>
      <trkpt lat="49.94815" lon="4.50947">
        <ele>356</ele>
        <time>2024-03-17T09:15:24Z</time>
      </trkpt>
      <trkpt lat="49.9482" lon="4.50938">
        <ele>356</ele>
        <time>2024-03-17T09:15:25Z</time>
      </trkpt>
      <trkpt lat="49.94825" lon="4.5093">
        <ele>356</ele>
        <time>2024-03-17T09:15:26Z</time>
      </trkpt>
      <trkpt lat="49.9483" lon="4.50922">
        <ele>356.2</ele>
        <time>2024-03-17T09:15:27Z</time>
      </trkpt>
      <trkpt lat="49.94835" lon="4.50914">
        <ele>356</ele>
        <time>2024-03-17T09:15:28Z</time>
      </trkpt>
      <trkpt lat="49.9484" lon="4.50906">
        <ele>356.2</ele>
        <time>2024-03-17T09:15:29Z</time>
      </trkpt>
      <trkpt lat="49.94845" lon="4.50897">
        <ele>356.2</ele>
        <time>2024-03-17T09:15:30Z</time>
      </trkpt>
      <trkpt lat="49.9485" lon="4.50889">
        <ele>356.2</ele>
        <time>2024-03-17T09:15:31Z</time>
      </trkpt>
      <trkpt lat="49.94855" lon="4.50881">
        <ele>356.4</ele>
        <time>2024-03-17T09:15:32Z</time>
      </trkpt>
      <trkpt lat="49.9486" lon="4.50872">
        <ele>356.4</ele>
        <time>2024-03-17T09:15:33Z</time>
      </trkpt>
      <trkpt lat="49.94865" lon="4.50864">
        <ele>356.2</ele>
        <time>2024-03-17T09:15:34Z</time>
      </trkpt>
      <trkpt lat="49.9487" lon="4.50855">
        <ele>356.4</ele>
        <time>2024-03-17T09:15:35Z</time>
      </trkpt>
      <trkpt lat="49.94875" lon="4.50847">
        <ele>356.4</ele>
        <time>2024-03-17T09:15:36Z</time>
      </trkpt>
      <trkpt lat="49.9488" lon="4.50838">
        <ele>356.4</ele>
        <time>2024-03-17T09:15:37Z</time>
      </trkpt>
      <trkpt lat="49.94885" lon="4.5083">
        <ele>356.4</ele>
        <time>2024-03-17T09:15:38Z</time>
      </trkpt>
      <trkpt lat="49.94891" lon="4.50821">
        <ele>356.4</ele>
        <time>2024-03-17T09:15:39Z</time>
      </trkpt>
      <trkpt lat="49.94896" lon="4.50812">
        <ele>356.4</ele>
        <time>2024-03-17T09:15:40Z</time>
      </trkpt>
      <trkpt lat="49.949" lon="4.50804">
        <ele>356.4</ele>
        <time>2024-03-17T09:15:41Z</time>
      </trkpt>
      <trkpt lat="49.94905" lon="4.50795">
        <ele>356.4</ele>
        <time>2024-03-17T09:15:42Z</time>
      </trkpt>
      <trkpt lat="49.9491" lon="4.50786">
        <ele>356.4</ele>
        <time>2024-03-17T09:15:43Z</time>
      </trkpt>
      <trkpt lat="49.94915" lon="4.50777">
        <ele>356.6</ele>
        <time>2024-03-17T09:15:44Z</time>
      </trkpt>
      <trkpt lat="49.9492" lon="4.50768">
        <ele>356.4</ele>
        <time>2024-03-17T09:15:45Z</time>
      </trkpt>
      <trkpt lat="49.94924" lon="4.50759">
        <ele>356.6</ele>
        <time>2024-03-17T09:15:46Z</time>
      </trkpt>
      <trkpt lat="49.94929" lon="4.50749">
        <ele>356.6</ele>
        <time>2024-03-17T09:15:47Z</time>
      </trkpt>
      <trkpt lat="49.94933" lon="4.5074">
        <ele>356.8</ele>
        <time>2024-03-17T09:15:48Z</time>
      </trkpt>
      <trkpt lat="49.94937" lon="4.5073">
        <ele>356.6</ele>
        <time>2024-03-17T09:15:49Z</time>
      </trkpt>
      <trkpt lat="49.94942" lon="4.50721">
        <ele>356.6</ele>
        <time>2024-03-17T09:15:50Z</time>
      </trkpt>
      <trkpt lat="49.94946" lon="4.50711">
        <ele>356.6</ele>
        <time>2024-03-17T09:15:51Z</time>
      </trkpt>
      <trkpt lat="49.9495" lon="4.50701">
        <ele>356.6</ele>
        <time>2024-03-17T09:15:52Z</time>
      </trkpt>
      <trkpt lat="49.94953" lon="4.50691">
        <ele>356.6</ele>
        <time>2024-03-17T09:15:53Z</time>
      </trkpt>
      <trkpt lat="49.94957" lon="4.50682">
        <ele>356.6</ele>
        <time>2024-03-17T09:15:54Z</time>
      </trkpt>
      <trkpt lat="49.94961" lon="4.50672">
        <ele>356.6</ele>
        <time>2024-03-17T09:15:55Z</time>
      </trkpt>
      <trkpt lat="49.94965" lon="4.50662">
        <ele>356.6</ele>
        <time>2024-03-17T09:15:56Z</time>
      </trkpt>
      <trkpt lat="49.94968" lon="4.50651">
        <ele>356.6</ele>
        <time>2024-03-17T09:15:57Z</time>
      </trkpt>
      <trkpt lat="49.94971" lon="4.50641">
        <ele>356.8</ele>
        <time>2024-03-17T09:15:58Z</time>
      </trkpt>
      <trkpt lat="49.94974" lon="4.50631">
        <ele>356.8</ele>
        <time>2024-03-17T09:15:59Z</time>
      </trkpt>
      <trkpt lat="49.94977" lon="4.50622">
        <ele>356.8</ele>
        <time>2024-03-17T09:16:00Z</time>
      </trkpt>
      <trkpt lat="49.9498" lon="4.50612">
        <ele>357</ele>
        <time>2024-03-17T09:16:01Z</time>
      </trkpt>
      <trkpt lat="49.94983" lon="4.50602">
        <ele>357.2</ele>
        <time>2024-03-17T09:16:02Z</time>
      </trkpt>
      <trkpt lat="49.94986" lon="4.50592">
        <ele>357.2</ele>
        <time>2024-03-17T09:16:03Z</time>
      </trkpt>
      <trkpt lat="49.94989" lon="4.50583">
        <ele>357.2</ele>
        <time>2024-03-17T09:16:04Z</time>
      </trkpt>
      <trkpt lat="49.94992" lon="4.50573">
        <ele>357.4</ele>
        <time>2024-03-17T09:16:05Z</time>
      </trkpt>
      <trkpt lat="49.94995" lon="4.50563">
        <ele>357.8</ele>
        <time>2024-03-17T09:16:06Z</time>
      </trkpt>
      <trkpt lat="49.94998" lon="4.50554">
        <ele>358.2</ele>
        <time>2024-03-17T09:16:07Z</time>
      </trkpt>
      <trkpt lat="49.95002" lon="4.50544">
        <ele>358.4</ele>
        <time>2024-03-17T09:16:08Z</time>
      </trkpt>
      <trkpt lat="49.95005" lon="4.50534">
        <ele>358.4</ele>
        <time>2024-03-17T09:16:09Z</time>
      </trkpt>
      <trkpt lat="49.95008" lon="4.50525">
        <ele>358.4</ele>
        <time>2024-03-17T09:16:10Z</time>
      </trkpt>
      <trkpt lat="49.95011" lon="4.50515">
        <ele>358.6</ele>
        <time>2024-03-17T09:16:11Z</time>
      </trkpt>
      <trkpt lat="49.95015" lon="4.50506">
        <ele>358.8</ele>
        <time>2024-03-17T09:16:12Z</time>
      </trkpt>
      <trkpt lat="49.95019" lon="4.50497">
        <ele>358.8</ele>
        <time>2024-03-17T09:16:13Z</time>
      </trkpt>
      <trkpt lat="49.95022" lon="4.50487">
        <ele>359</ele>
        <time>2024-03-17T09:16:14Z</time>
      </trkpt>
      <trkpt lat="49.95026" lon="4.50477">
        <ele>358.8</ele>
        <time>2024-03-17T09:16:15Z</time>
      </trkpt>
      <trkpt lat="49.9503" lon="4.50467">
        <ele>359</ele>
        <time>2024-03-17T09:16:16Z</time>
      </trkpt>
      <trkpt lat="49.95034" lon="4.50457">
        <ele>359</ele>
        <time>2024-03-17T09:16:17Z</time>
      </trkpt>
      <trkpt lat="49.95037" lon="4.50447">
        <ele>359</ele>
        <time>2024-03-17T09:16:18Z</time>
      </trkpt>
      <trkpt lat="49.95041" lon="4.50437">
        <ele>359</ele>
        <time>2024-03-17T09:16:19Z</time>
      </trkpt>
      <trkpt lat="49.95045" lon="4.50427">
        <ele>359</ele>
        <time>2024-03-17T09:16:20Z</time>
      </trkpt>
      <trkpt lat="49.95049" lon="4.50416">
        <ele>359</ele>
        <time>2024-03-17T09:16:21Z</time>
      </trkpt>
      <trkpt lat="49.95052" lon="4.50406">
        <ele>359</ele>
        <time>2024-03-17T09:16:22Z</time>
      </trkpt>
      <trkpt lat="49.95056" lon="4.50396">
        <ele>358.8</ele>
        <time>2024-03-17T09:16:23Z</time>
      </trkpt>
      <trkpt lat="49.9506" lon="4.50386">
        <ele>358.8</ele>
        <time>2024-03-17T09:16:24Z</time>
      </trkpt>
      <trkpt lat="49.95064" lon="4.50376">
        <ele>358.6</ele>
        <time>2024-03-17T09:16:25Z</time>
      </trkpt>
      <trkpt lat="49.95067" lon="4.50366">
        <ele>358.6</ele>
        <time>2024-03-17T09:16:26Z</time>
      </trkpt>
      <trkpt lat="49.95071" lon="4.50356">
        <ele>358.6</ele>
        <time>2024-03-17T09:16:27Z</time>
      </trkpt>
      <trkpt lat="49.95074" lon="4.50345">
        <ele>358.6</ele>
        <time>2024-03-17T09:16:28Z</time>
      </trkpt>
      <trkpt lat="49.95078" lon="4.50335">
        <ele>358.6</ele>
        <time>2024-03-17T09:16:29Z</time>
      </trkpt>
      <trkpt lat="49.95082" lon="4.50325">
        <ele>358.8</ele>
        <time>2024-03-17T09:16:30Z</time>
      </trkpt>
      <trkpt lat="49.95085" lon="4.50315">
        <ele>358.6</ele>
        <time>2024-03-17T09:16:31Z</time>
      </trkpt>
      <trkpt lat="49.95089" lon="4.50305">
        <ele>358.6</ele>
        <time>2024-03-17T09:16:32Z</time>
      </trkpt>
      <trkpt lat="49.95092" lon="4.50295">
        <ele>358.6</ele>
        <time>2024-03-17T09:16:33Z</time>
      </trkpt>
      <trkpt lat="49.95095" lon="4.50285">
        <ele>358.6</ele>
        <time>2024-03-17T09:16:34Z</time>
      </trkpt>
      <trkpt lat="49.95099" lon="4.50275">
        <ele>358.6</ele>
        <time>2024-03-17T09:16:35Z</time>
      </trkpt>
      <trkpt lat="49.95102" lon="4.50265">
        <ele>358.6</ele>
        <time>2024-03-17T09:16:36Z</time>
      </trkpt>
      <trkpt lat="49.95105" lon="4.50255">
        <ele>358.6</ele>
        <time>2024-03-17T09:16:37Z</time>
      </trkpt>
      <trkpt lat="49.95109" lon="4.50245">
        <ele>358.6</ele>
        <time>2024-03-17T09:16:38Z</time>
      </trkpt>
      <trkpt lat="49.95112" lon="4.50235">
        <ele>358.6</ele>
        <time>2024-03-17T09:16:39Z</time>
      </trkpt>
      <trkpt lat="49.95115" lon="4.50225">
        <ele>358.6</ele>
        <time>2024-03-17T09:16:40Z</time>
      </trkpt>
      <trkpt lat="49.95118" lon="4.50215">
        <ele>358.6</ele>
        <time>2024-03-17T09:16:41Z</time>
      </trkpt>
      <trkpt lat="49.95121" lon="4.50205">
        <ele>358.6</ele>
        <time>2024-03-17T09:16:42Z</time>
      </trkpt>
      <trkpt lat="49.95125" lon="4.50195">
        <ele>358.6</ele>
        <time>2024-03-17T09:16:43Z</time>
      </trkpt>
      <trkpt lat="49.95128" lon="4.50184">
        <ele>358.8</ele>
        <time>2024-03-17T09:16:44Z</time>
      </trkpt>
      <trkpt lat="49.95131" lon="4.50174">
        <ele>358.8</ele>
        <time>2024-03-17T09:16:45Z</time>
      </trkpt>
      <trkpt lat="49.95134" lon="4.50163">
        <ele>359</ele>
        <time>2024-03-17T09:16:46Z</time>
      </trkpt>
      <trkpt lat="49.95138" lon="4.50153">
        <ele>358.8</ele>
        <time>2024-03-17T09:16:47Z</time>
      </trkpt>
      <trkpt lat="49.95141" lon="4.50142">
        <ele>359</ele>
        <time>2024-03-17T09:16:48Z</time>
      </trkpt>
      <trkpt lat="49.95144" lon="4.50131">
        <ele>358.8</ele>
        <time>2024-03-17T09:16:49Z</time>
      </trkpt>
      <trkpt lat="49.95148" lon="4.50121">
        <ele>358.8</ele>
        <time>2024-03-17T09:16:50Z</time>
      </trkpt>
      <trkpt lat="49.95151" lon="4.5011">
        <ele>358.8</ele>
        <time>2024-03-17T09:16:51Z</time>
      </trkpt>
      <trkpt lat="49.95155" lon="4.501">
        <ele>358.8</ele>
        <time>2024-03-17T09:16:52Z</time>
      </trkpt>
      <trkpt lat="49.95158" lon="4.5009">
        <ele>358.8</ele>
        <time>2024-03-17T09:16:53Z</time>
      </trkpt>
      <trkpt lat="49.95162" lon="4.5008">
        <ele>358.8</ele>
        <time>2024-03-17T09:16:54Z</time>
      </trkpt>
      <trkpt lat="49.95165" lon="4.50069">
        <ele>358.8</ele>
        <time>2024-03-17T09:16:55Z</time>
      </trkpt>
      <trkpt lat="49.95168" lon="4.50059">
        <ele>358.8</ele>
        <time>2024-03-17T09:16:56Z</time>
      </trkpt>
      <trkpt lat="49.95172" lon="4.50049">
        <ele>358.8</ele>
        <time>2024-03-17T09:16:57Z</time>
      </trkpt>
      <trkpt lat="49.95175" lon="4.50039">
        <ele>358.8</ele>
        <time>2024-03-17T09:16:58Z</time>
      </trkpt>
      <trkpt lat="49.95178" lon="4.50028">
        <ele>358.8</ele>
        <time>2024-03-17T09:16:59Z</time>
      </trkpt>
      <trkpt lat="49.95181" lon="4.50018">
        <ele>358.6</ele>
        <time>2024-03-17T09:17:00Z</time>
      </trkpt>
      <trkpt lat="49.95184" lon="4.50007">
        <ele>358.6</ele>
        <time>2024-03-17T09:17:01Z</time>
      </trkpt>
      <trkpt lat="49.95187" lon="4.49997">
        <ele>358.4</ele>
        <time>2024-03-17T09:17:02Z</time>
      </trkpt>
      <trkpt lat="49.95189" lon="4.49986">
        <ele>358.2</ele>
        <time>2024-03-17T09:17:03Z</time>
      </trkpt>
      <trkpt lat="49.95192" lon="4.49976">
        <ele>358.2</ele>
        <time>2024-03-17T09:17:04Z</time>
      </trkpt>
      <trkpt lat="49.95194" lon="4.49965">
        <ele>358.2</ele>
        <time>2024-03-17T09:17:05Z</time>
      </trkpt>
      <trkpt lat="49.95196" lon="4.49955">
        <ele>358</ele>
        <time>2024-03-17T09:17:06Z</time>
      </trkpt>
      <trkpt lat="49.95198" lon="4.49944">
        <ele>358</ele>
        <time>2024-03-17T09:17:07Z</time>
      </trkpt>
      <trkpt lat="49.952" lon="4.49934">
        <ele>358</ele>
        <time>2024-03-17T09:17:08Z</time>
      </trkpt>
      <trkpt lat="49.95201" lon="4.49924">
        <ele>357.8</ele>
        <time>2024-03-17T09:17:09Z</time>
      </trkpt>
      <trkpt lat="49.95203" lon="4.49913">
        <ele>357.8</ele>
        <time>2024-03-17T09:17:10Z</time>
      </trkpt>
      <trkpt lat="49.95204" lon="4.49903">
        <ele>357.8</ele>
        <time>2024-03-17T09:17:11Z</time>
      </trkpt>
      <trkpt lat="49.95205" lon="4.49892">
        <ele>358</ele>
        <time>2024-03-17T09:17:12Z</time>
      </trkpt>
      <trkpt lat="49.95206" lon="4.49881">
        <ele>358</ele>
        <time>2024-03-17T09:17:13Z</time>
      </trkpt>
      <trkpt lat="49.95208" lon="4.4987">
        <ele>358</ele>
        <time>2024-03-17T09:17:14Z</time>
      </trkpt>
      <trkpt lat="49.95209" lon="4.49859">
        <ele>358</ele>
        <time>2024-03-17T09:17:15Z</time>
      </trkpt>
      <trkpt lat="49.95211" lon="4.49847">
        <ele>358.2</ele>
        <time>2024-03-17T09:17:16Z</time>
      </trkpt>
      <trkpt lat="49.95212" lon="4.49836">
        <ele>358.2</ele>
        <time>2024-03-17T09:17:17Z</time>
      </trkpt>
      <trkpt lat="49.95213" lon="4.49825">
        <ele>358.2</ele>
        <time>2024-03-17T09:17:18Z</time>
      </trkpt>
      <trkpt lat="49.95215" lon="4.49813">
        <ele>358.6</ele>
        <time>2024-03-17T09:17:19Z</time>
      </trkpt>
      <trkpt lat="49.95216" lon="4.49802">
        <ele>358.6</ele>
        <time>2024-03-17T09:17:20Z</time>
      </trkpt>
      <trkpt lat="49.95218" lon="4.49791">
        <ele>358.6</ele>
        <time>2024-03-17T09:17:21Z</time>
      </trkpt>
      <trkpt lat="49.95219" lon="4.4978">
        <ele>358.6</ele>
        <time>2024-03-17T09:17:22Z</time>
      </trkpt>
      <trkpt lat="49.95221" lon="4.49769">
        <ele>358.6</ele>
        <time>2024-03-17T09:17:23Z</time>
      </trkpt>
      <trkpt lat="49.95222" lon="4.49758">
        <ele>358.6</ele>
        <time>2024-03-17T09:17:24Z</time>
      </trkpt>
      <trkpt lat="49.95224" lon="4.49747">
        <ele>358.8</ele>
        <time>2024-03-17T09:17:25Z</time>
      </trkpt>
      <trkpt lat="49.95225" lon="4.49735">
        <ele>358.6</ele>
        <time>2024-03-17T09:17:26Z</time>
      </trkpt>
      <trkpt lat="49.95227" lon="4.49724">
        <ele>358.8</ele>
        <time>2024-03-17T09:17:27Z</time>
      </trkpt>
      <trkpt lat="49.95228" lon="4.49713">
        <ele>358.8</ele>
        <time>2024-03-17T09:17:28Z</time>
      </trkpt>
      <trkpt lat="49.9523" lon="4.49703">
        <ele>358.8</ele>
        <time>2024-03-17T09:17:29Z</time>
      </trkpt>
      <trkpt lat="49.95231" lon="4.49691">
        <ele>358.8</ele>
        <time>2024-03-17T09:17:30Z</time>
      </trkpt>
      <trkpt lat="49.95233" lon="4.4968">
        <ele>358.8</ele>
        <time>2024-03-17T09:17:31Z</time>
      </trkpt>
      <trkpt lat="49.95234" lon="4.49669">
        <ele>358.8</ele>
        <time>2024-03-17T09:17:32Z</time>
      </trkpt>
      <trkpt lat="49.95236" lon="4.49658">
        <ele>358.6</ele>
        <time>2024-03-17T09:17:33Z</time>
      </trkpt>
      <trkpt lat="49.95237" lon="4.49646">
        <ele>358.6</ele>
        <time>2024-03-17T09:17:34Z</time>
      </trkpt>
      <trkpt lat="49.95239" lon="4.49635">
        <ele>358.8</ele>
        <time>2024-03-17T09:17:35Z</time>
      </trkpt>
      <trkpt lat="49.9524" lon="4.49624">
        <ele>358.8</ele>
        <time>2024-03-17T09:17:36Z</time>
      </trkpt>
      <trkpt lat="49.95241" lon="4.49612">
        <ele>358.8</ele>
        <time>2024-03-17T09:17:37Z</time>
      </trkpt>
      <trkpt lat="49.95243" lon="4.49601">
        <ele>358.8</ele>
        <time>2024-03-17T09:17:38Z</time>
      </trkpt>
      <trkpt lat="49.95245" lon="4.4959">
        <ele>358.8</ele>
        <time>2024-03-17T09:17:39Z</time>
      </trkpt>
      <trkpt lat="49.95246" lon="4.49579">
        <ele>358.8</ele>
        <time>2024-03-17T09:17:40Z</time>
      </trkpt>
      <trkpt lat="49.95248" lon="4.49568">
        <ele>358.8</ele>
        <time>2024-03-17T09:17:41Z</time>
      </trkpt>
      <trkpt lat="49.95249" lon="4.49556">
        <ele>359</ele>
        <time>2024-03-17T09:17:42Z</time>
      </trkpt>
      <trkpt lat="49.9525" lon="4.49546">
        <ele>359</ele>
        <time>2024-03-17T09:17:43Z</time>
      </trkpt>
      <trkpt lat="49.95252" lon="4.49535">
        <ele>359</ele>
        <time>2024-03-17T09:17:44Z</time>
      </trkpt>
      <trkpt lat="49.95253" lon="4.49524">
        <ele>359</ele>
        <time>2024-03-17T09:17:45Z</time>
      </trkpt>
      <trkpt lat="49.95255" lon="4.49513">
        <ele>359.2</ele>
        <time>2024-03-17T09:17:46Z</time>
      </trkpt>
      <trkpt lat="49.95256" lon="4.49502">
        <ele>359.2</ele>
        <time>2024-03-17T09:17:47Z</time>
      </trkpt>
      <trkpt lat="49.95257" lon="4.49491">
        <ele>359.4</ele>
        <time>2024-03-17T09:17:48Z</time>
      </trkpt>
      <trkpt lat="49.95259" lon="4.4948">
        <ele>359.4</ele>
        <time>2024-03-17T09:17:49Z</time>
      </trkpt>
      <trkpt lat="49.9526" lon="4.49469">
        <ele>359.6</ele>
        <time>2024-03-17T09:17:50Z</time>
      </trkpt>
      <trkpt lat="49.95262" lon="4.49458">
        <ele>359.6</ele>
        <time>2024-03-17T09:17:51Z</time>
      </trkpt>
      <trkpt lat="49.95263" lon="4.49447">
        <ele>359.6</ele>
        <time>2024-03-17T09:17:52Z</time>
      </trkpt>
      <trkpt lat="49.95265" lon="4.49436">
        <ele>359.8</ele>
        <time>2024-03-17T09:17:53Z</time>
      </trkpt>
      <trkpt lat="49.95266" lon="4.49426">
        <ele>359.8</ele>
        <time>2024-03-17T09:17:54Z</time>
      </trkpt>
      <trkpt lat="49.95267" lon="4.49415">
        <ele>360</ele>
        <time>2024-03-17T09:17:55Z</time>
      </trkpt>
      <trkpt lat="49.95269" lon="4.49404">
        <ele>360</ele>
        <time>2024-03-17T09:17:56Z</time>
      </trkpt>
      <trkpt lat="49.9527" lon="4.49393">
        <ele>360.2</ele>
        <time>2024-03-17T09:17:57Z</time>
      </trkpt>
      <trkpt lat="49.95272" lon="4.49382">
        <ele>360.4</ele>
        <time>2024-03-17T09:17:58Z</time>
      </trkpt>
      <trkpt lat="49.95273" lon="4.49371">
        <ele>360.2</ele>
        <time>2024-03-17T09:17:59Z</time>
      </trkpt>
      <trkpt lat="49.95275" lon="4.4936">
        <ele>360.4</ele>
        <time>2024-03-17T09:18:00Z</time>
      </trkpt>
      <trkpt lat="49.95276" lon="4.49349">
        <ele>360.6</ele>
        <time>2024-03-17T09:18:01Z</time>
      </trkpt>
      <trkpt lat="49.95278" lon="4.49338">
        <ele>360.8</ele>
        <time>2024-03-17T09:18:02Z</time>
      </trkpt>
      <trkpt lat="49.95279" lon="4.49327">
        <ele>360.6</ele>
        <time>2024-03-17T09:18:03Z</time>
      </trkpt>
      <trkpt lat="49.95281" lon="4.49316">
        <ele>360.6</ele>
        <time>2024-03-17T09:18:04Z</time>
      </trkpt>
      <trkpt lat="49.95282" lon="4.49305">
        <ele>360.8</ele>
        <time>2024-03-17T09:18:05Z</time>
      </trkpt>
      <trkpt lat="49.95284" lon="4.49294">
        <ele>360.8</ele>
        <time>2024-03-17T09:18:06Z</time>
      </trkpt>
      <trkpt lat="49.95285" lon="4.49283">
        <ele>361</ele>
        <time>2024-03-17T09:18:07Z</time>
      </trkpt>
      <trkpt lat="49.95287" lon="4.49271">
        <ele>361</ele>
        <time>2024-03-17T09:18:08Z</time>
      </trkpt>
      <trkpt lat="49.95289" lon="4.4926">
        <ele>361</ele>
        <time>2024-03-17T09:18:09Z</time>
      </trkpt>
      <trkpt lat="49.9529" lon="4.49249">
        <ele>361.2</ele>
        <time>2024-03-17T09:18:10Z</time>
      </trkpt>
      <trkpt lat="49.95292" lon="4.49238">
        <ele>361</ele>
        <time>2024-03-17T09:18:11Z</time>
      </trkpt>
      <trkpt lat="49.95294" lon="4.49226">
        <ele>361</ele>
        <time>2024-03-17T09:18:12Z</time>
      </trkpt>
      <trkpt lat="49.95295" lon="4.49215">
        <ele>361</ele>
        <time>2024-03-17T09:18:13Z</time>
      </trkpt>
      <trkpt lat="49.95297" lon="4.49204">
        <ele>361</ele>
        <time>2024-03-17T09:18:14Z</time>
      </trkpt>
      <trkpt lat="49.95298" lon="4.49192">
        <ele>361</ele>
        <time>2024-03-17T09:18:15Z</time>
      </trkpt>
      <trkpt lat="49.95299" lon="4.4918">
        <ele>360.8</ele>
        <time>2024-03-17T09:18:16Z</time>
      </trkpt>
      <trkpt lat="49.95301" lon="4.49168">
        <ele>360.8</ele>
        <time>2024-03-17T09:18:17Z</time>
      </trkpt>
      <trkpt lat="49.95301" lon="4.49156">
        <ele>360.8</ele>
        <time>2024-03-17T09:18:18Z</time>
      </trkpt>
      <trkpt lat="49.95302" lon="4.49144">
        <ele>360.8</ele>
        <time>2024-03-17T09:18:19Z</time>
      </trkpt>
      <trkpt lat="49.95303" lon="4.49131">
        <ele>360.8</ele>
        <time>2024-03-17T09:18:20Z</time>
      </trkpt>
      <trkpt lat="49.95304" lon="4.49117">
        <ele>360.8</ele>
        <time>2024-03-17T09:18:21Z</time>
      </trkpt>
      <trkpt lat="49.95305" lon="4.49103">
        <ele>360.4</ele>
        <time>2024-03-17T09:18:22Z</time>
      </trkpt>
      <trkpt lat="49.95306" lon="4.49089">
        <ele>360</ele>
        <time>2024-03-17T09:18:23Z</time>
      </trkpt>
      <trkpt lat="49.95307" lon="4.49075">
        <ele>359.2</ele>
        <time>2024-03-17T09:18:24Z</time>
      </trkpt>
      <trkpt lat="49.95307" lon="4.4906">
        <ele>359</ele>
        <time>2024-03-17T09:18:25Z</time>
      </trkpt>
      <trkpt lat="49.95308" lon="4.49045">
        <ele>358.4</ele>
        <time>2024-03-17T09:18:26Z</time>
      </trkpt>
      <trkpt lat="49.95309" lon="4.4903">
        <ele>358.2</ele>
        <time>2024-03-17T09:18:27Z</time>
      </trkpt>
      <trkpt lat="49.95309" lon="4.49015">
        <ele>357.8</ele>
        <time>2024-03-17T09:18:28Z</time>
      </trkpt>
      <trkpt lat="49.9531" lon="4.49">
        <ele>357.2</ele>
        <time>2024-03-17T09:18:29Z</time>
      </trkpt>
      <trkpt lat="49.9531" lon="4.48985">
        <ele>356.8</ele>
        <time>2024-03-17T09:18:30Z</time>
      </trkpt>
      <trkpt lat="49.95311" lon="4.4897">
        <ele>356.6</ele>
        <time>2024-03-17T09:18:31Z</time>
      </trkpt>
      <trkpt lat="49.95312" lon="4.48955">
        <ele>356.4</ele>
        <time>2024-03-17T09:18:32Z</time>
      </trkpt>
      <trkpt lat="49.95312" lon="4.4894">
        <ele>356.2</ele>
        <time>2024-03-17T09:18:33Z</time>
      </trkpt>
      <trkpt lat="49.95313" lon="4.48926">
        <ele>355.8</ele>
        <time>2024-03-17T09:18:34Z</time>
      </trkpt>
      <trkpt lat="49.95312" lon="4.48911">
        <ele>355.6</ele>
        <time>2024-03-17T09:18:35Z</time>
      </trkpt>
      <trkpt lat="49.9531" lon="4.48897">
        <ele>355.6</ele>
        <time>2024-03-17T09:18:36Z</time>
      </trkpt>
      <trkpt lat="49.95307" lon="4.48883">
        <ele>355</ele>
        <time>2024-03-17T09:18:37Z</time>
      </trkpt>
      <trkpt lat="49.95302" lon="4.4887">
        <ele>355</ele>
        <time>2024-03-17T09:18:38Z</time>
      </trkpt>
      <trkpt lat="49.95297" lon="4.48858">
        <ele>354.2</ele>
        <time>2024-03-17T09:18:39Z</time>
      </trkpt>
      <trkpt lat="49.95291" lon="4.48846">
        <ele>354</ele>
        <time>2024-03-17T09:18:40Z</time>
      </trkpt>
      <trkpt lat="49.95285" lon="4.48836">
        <ele>353.4</ele>
        <time>2024-03-17T09:18:41Z</time>
      </trkpt>
      <trkpt lat="49.95279" lon="4.48825">
        <ele>353.2</ele>
        <time>2024-03-17T09:18:42Z</time>
      </trkpt>
      <trkpt lat="49.95273" lon="4.48815">
        <ele>352.4</ele>
        <time>2024-03-17T09:18:43Z</time>
      </trkpt>
      <trkpt lat="49.95267" lon="4.48804">
        <ele>352</ele>
        <time>2024-03-17T09:18:44Z</time>
      </trkpt>
      <trkpt lat="49.95261" lon="4.48794">
        <ele>351.8</ele>
        <time>2024-03-17T09:18:45Z</time>
      </trkpt>
      <trkpt lat="49.95255" lon="4.48784">
        <ele>351.4</ele>
        <time>2024-03-17T09:18:46Z</time>
      </trkpt>
      <trkpt lat="49.95249" lon="4.48774">
        <ele>351.4</ele>
        <time>2024-03-17T09:18:47Z</time>
      </trkpt>
      <trkpt lat="49.95243" lon="4.48764">
        <ele>351.4</ele>
        <time>2024-03-17T09:18:48Z</time>
      </trkpt>
      <trkpt lat="49.95237" lon="4.48754">
        <ele>351.2</ele>
        <time>2024-03-17T09:18:49Z</time>
      </trkpt>
      <trkpt lat="49.95232" lon="4.48745">
        <ele>351</ele>
        <time>2024-03-17T09:18:50Z</time>
      </trkpt>
      <trkpt lat="49.95226" lon="4.48735">
        <ele>351</ele>
        <time>2024-03-17T09:18:51Z</time>
      </trkpt>
      <trkpt lat="49.95221" lon="4.48726">
        <ele>350.8</ele>
        <time>2024-03-17T09:18:52Z</time>
      </trkpt>
      <trkpt lat="49.95215" lon="4.48716">
        <ele>350.8</ele>
        <time>2024-03-17T09:18:53Z</time>
      </trkpt>
      <trkpt lat="49.95209" lon="4.48707">
        <ele>350.6</ele>
        <time>2024-03-17T09:18:54Z</time>
      </trkpt>
      <trkpt lat="49.95203" lon="4.48697">
        <ele>350.6</ele>
        <time>2024-03-17T09:18:55Z</time>
      </trkpt>
      <trkpt lat="49.95197" lon="4.48687">
        <ele>350.6</ele>
        <time>2024-03-17T09:18:56Z</time>
      </trkpt>
      <trkpt lat="49.95192" lon="4.48677">
        <ele>350.4</ele>
        <time>2024-03-17T09:18:57Z</time>
      </trkpt>
      <trkpt lat="49.95186" lon="4.48668">
        <ele>350.2</ele>
        <time>2024-03-17T09:18:58Z</time>
      </trkpt>
      <trkpt lat="49.9518" lon="4.48658">
        <ele>350.2</ele>
        <time>2024-03-17T09:18:59Z</time>
      </trkpt>
      <trkpt lat="49.95175" lon="4.48648">
        <ele>350.4</ele>
        <time>2024-03-17T09:19:00Z</time>
      </trkpt>
      <trkpt lat="49.95169" lon="4.48639">
        <ele>350.2</ele>
        <time>2024-03-17T09:19:01Z</time>
      </trkpt>
      <trkpt lat="49.95163" lon="4.48629">
        <ele>350.2</ele>
        <time>2024-03-17T09:19:02Z</time>
      </trkpt>
      <trkpt lat="49.95158" lon="4.48619">
        <ele>350.2</ele>
        <time>2024-03-17T09:19:03Z</time>
      </trkpt>
      <trkpt lat="49.95153" lon="4.48609">
        <ele>350</ele>
        <time>2024-03-17T09:19:04Z</time>
      </trkpt>
      <trkpt lat="49.95148" lon="4.486">
        <ele>349.8</ele>
        <time>2024-03-17T09:19:05Z</time>
      </trkpt>
      <trkpt lat="49.95142" lon="4.4859">
        <ele>349.6</ele>
        <time>2024-03-17T09:19:06Z</time>
      </trkpt>
      <trkpt lat="49.95137" lon="4.48579">
        <ele>349.6</ele>
        <time>2024-03-17T09:19:07Z</time>
      </trkpt>
      <trkpt lat="49.95133" lon="4.48569">
        <ele>349.4</ele>
        <time>2024-03-17T09:19:08Z</time>
      </trkpt>
      <trkpt lat="49.95128" lon="4.48559">
        <ele>349.2</ele>
        <time>2024-03-17T09:19:09Z</time>
      </trkpt>
      <trkpt lat="49.95124" lon="4.48549">
        <ele>349.2</ele>
        <time>2024-03-17T09:19:10Z</time>
      </trkpt>
      <trkpt lat="49.95119" lon="4.48538">
        <ele>349.2</ele>
        <time>2024-03-17T09:19:11Z</time>
      </trkpt>
      <trkpt lat="49.95115" lon="4.48528">
        <ele>349</ele>
        <time>2024-03-17T09:19:12Z</time>
      </trkpt>
      <trkpt lat="49.95111" lon="4.48517">
        <ele>349</ele>
        <time>2024-03-17T09:19:13Z</time>
      </trkpt>
      <trkpt lat="49.95107" lon="4.48507">
        <ele>348.8</ele>
        <time>2024-03-17T09:19:14Z</time>
      </trkpt>
      <trkpt lat="49.95103" lon="4.48496">
        <ele>348.8</ele>
        <time>2024-03-17T09:19:15Z</time>
      </trkpt>
      <trkpt lat="49.95099" lon="4.48486">
        <ele>348.6</ele>
        <time>2024-03-17T09:19:16Z</time>
      </trkpt>
      <trkpt lat="49.95095" lon="4.48475">
        <ele>348.6</ele>
        <time>2024-03-17T09:19:17Z</time>
      </trkpt>
      <trkpt lat="49.95091" lon="4.48465">
        <ele>348.8</ele>
        <time>2024-03-17T09:19:18Z</time>
      </trkpt>
      <trkpt lat="49.95087" lon="4.48454">
        <ele>348.6</ele>
        <time>2024-03-17T09:19:19Z</time>
      </trkpt>
      <trkpt lat="49.95083" lon="4.48444">
        <ele>348.6</ele>
        <time>2024-03-17T09:19:20Z</time>
      </trkpt>
      <trkpt lat="49.95079" lon="4.48433">
        <ele>348.4</ele>
        <time>2024-03-17T09:19:21Z</time>
      </trkpt>
      <trkpt lat="49.95074" lon="4.48422">
        <ele>348.4</ele>
        <time>2024-03-17T09:19:22Z</time>
      </trkpt>
      <trkpt lat="49.9507" lon="4.48412">
        <ele>348.4</ele>
        <time>2024-03-17T09:19:23Z</time>
      </trkpt>
      <trkpt lat="49.95066" lon="4.48401">
        <ele>348.4</ele>
        <time>2024-03-17T09:19:24Z</time>
      </trkpt>
      <trkpt lat="49.95061" lon="4.4839">
        <ele>348.4</ele>
        <time>2024-03-17T09:19:25Z</time>
      </trkpt>
      <trkpt lat="49.95057" lon="4.4838">
        <ele>348.2</ele>
        <time>2024-03-17T09:19:26Z</time>
      </trkpt>
      <trkpt lat="49.95053" lon="4.48369">
        <ele>348</ele>
        <time>2024-03-17T09:19:27Z</time>
      </trkpt>
      <trkpt lat="49.95049" lon="4.48358">
        <ele>347.6</ele>
        <time>2024-03-17T09:19:28Z</time>
      </trkpt>
      <trkpt lat="49.95045" lon="4.48347">
        <ele>347.6</ele>
        <time>2024-03-17T09:19:29Z</time>
      </trkpt>
      <trkpt lat="49.95041" lon="4.48336">
        <ele>347.6</ele>
        <time>2024-03-17T09:19:30Z</time>
      </trkpt>
      <trkpt lat="49.95037" lon="4.48325">
        <ele>347.2</ele>
        <time>2024-03-17T09:19:31Z</time>
      </trkpt>
      <trkpt lat="49.95032" lon="4.48313">
        <ele>347</ele>
        <time>2024-03-17T09:19:32Z</time>
      </trkpt>
      <trkpt lat="49.95027" lon="4.48302">
        <ele>346.8</ele>
        <time>2024-03-17T09:19:33Z</time>
      </trkpt>
      <trkpt lat="49.95023" lon="4.4829">
        <ele>346.4</ele>
        <time>2024-03-17T09:19:34Z</time>
      </trkpt>
      <trkpt lat="49.95018" lon="4.48279">
        <ele>346.4</ele>
        <time>2024-03-17T09:19:35Z</time>
      </trkpt>
      <trkpt lat="49.95013" lon="4.48268">
        <ele>346.2</ele>
        <time>2024-03-17T09:19:36Z</time>
      </trkpt>
      <trkpt lat="49.95007" lon="4.48257">
        <ele>346</ele>
        <time>2024-03-17T09:19:37Z</time>
      </trkpt>
      <trkpt lat="49.95002" lon="4.48246">
        <ele>346</ele>
        <time>2024-03-17T09:19:38Z</time>
      </trkpt>
      <trkpt lat="49.94995" lon="4.48235">
        <ele>345.8</ele>
        <time>2024-03-17T09:19:39Z</time>
      </trkpt>
      <trkpt lat="49.94989" lon="4.48226">
        <ele>345.8</ele>
        <time>2024-03-17T09:19:40Z</time>
      </trkpt>
      <trkpt lat="49.94982" lon="4.48216">
        <ele>345.6</ele>
        <time>2024-03-17T09:19:41Z</time>
      </trkpt>
      <trkpt lat="49.94974" lon="4.48207">
        <ele>345.2</ele>
        <time>2024-03-17T09:19:42Z</time>
      </trkpt>
      <trkpt lat="49.94967" lon="4.48198">
        <ele>344</ele>
        <time>2024-03-17T09:19:43Z</time>
      </trkpt>
      <trkpt lat="49.94958" lon="4.4819">
        <ele>343.2</ele>
        <time>2024-03-17T09:19:44Z</time>
      </trkpt>
      <trkpt lat="49.9495" lon="4.48182">
        <ele>342.4</ele>
        <time>2024-03-17T09:19:45Z</time>
      </trkpt>
      <trkpt lat="49.94942" lon="4.48174">
        <ele>342.4</ele>
        <time>2024-03-17T09:19:46Z</time>
      </trkpt>
      <trkpt lat="49.94933" lon="4.48166">
        <ele>342</ele>
        <time>2024-03-17T09:19:47Z</time>
      </trkpt>
      <trkpt lat="49.94924" lon="4.48158">
        <ele>341.8</ele>
        <time>2024-03-17T09:19:48Z</time>
      </trkpt>
      <trkpt lat="49.94915" lon="4.4815">
        <ele>341.4</ele>
        <time>2024-03-17T09:19:49Z</time>
      </trkpt>
      <trkpt lat="49.94906" lon="4.48141">
        <ele>341.2</ele>
        <time>2024-03-17T09:19:50Z</time>
      </trkpt>
      <trkpt lat="49.94898" lon="4.48131">
        <ele>341</ele>
        <time>2024-03-17T09:19:51Z</time>
      </trkpt>
      <trkpt lat="49.94889" lon="4.48121">
        <ele>340.8</ele>
        <time>2024-03-17T09:19:52Z</time>
      </trkpt>
      <trkpt lat="49.94881" lon="4.48111">
        <ele>340</ele>
        <time>2024-03-17T09:19:53Z</time>
      </trkpt>
      <trkpt lat="49.94874" lon="4.481">
        <ele>339</ele>
        <time>2024-03-17T09:19:54Z</time>
      </trkpt>
      <trkpt lat="49.94866" lon="4.48089">
        <ele>337.8</ele>
        <time>2024-03-17T09:19:55Z</time>
      </trkpt>
      <trkpt lat="49.94859" lon="4.48078">
        <ele>337.4</ele>
        <time>2024-03-17T09:19:56Z</time>
      </trkpt>
      <trkpt lat="49.94852" lon="4.48067">
        <ele>336.6</ele>
        <time>2024-03-17T09:19:57Z</time>
      </trkpt>
      <trkpt lat="49.94845" lon="4.48058">
        <ele>335.8</ele>
        <time>2024-03-17T09:19:58Z</time>
      </trkpt>
      <trkpt lat="49.94838" lon="4.48048">
        <ele>335.2</ele>
        <time>2024-03-17T09:19:59Z</time>
      </trkpt>
      <trkpt lat="49.94831" lon="4.48039">
        <ele>334.8</ele>
        <time>2024-03-17T09:20:00Z</time>
      </trkpt>
      <trkpt lat="49.94823" lon="4.48031">
        <ele>334.8</ele>
        <time>2024-03-17T09:20:01Z</time>
      </trkpt>
      <trkpt lat="49.94816" lon="4.48022">
        <ele>334.4</ele>
        <time>2024-03-17T09:20:02Z</time>
      </trkpt>
      <trkpt lat="49.94809" lon="4.48015">
        <ele>334.4</ele>
        <time>2024-03-17T09:20:03Z</time>
      </trkpt>
      <trkpt lat="49.94803" lon="4.48007">
        <ele>334.4</ele>
        <time>2024-03-17T09:20:04Z</time>
      </trkpt>
      <trkpt lat="49.94797" lon="4.47999">
        <ele>334.4</ele>
        <time>2024-03-17T09:20:05Z</time>
      </trkpt>
      <trkpt lat="49.94791" lon="4.47991">
        <ele>334.4</ele>
        <time>2024-03-17T09:20:06Z</time>
      </trkpt>
      <trkpt lat="49.94786" lon="4.47983">
        <ele>334.4</ele>
        <time>2024-03-17T09:20:07Z</time>
      </trkpt>
      <trkpt lat="49.94782" lon="4.47975">
        <ele>334.2</ele>
        <time>2024-03-17T09:20:08Z</time>
      </trkpt>
      <trkpt lat="49.94777" lon="4.47966">
        <ele>334.2</ele>
        <time>2024-03-17T09:20:09Z</time>
      </trkpt>
      <trkpt lat="49.94773" lon="4.47958">
        <ele>334.4</ele>
        <time>2024-03-17T09:20:10Z</time>
      </trkpt>
      <trkpt lat="49.9477" lon="4.47949">
        <ele>334.6</ele>
        <time>2024-03-17T09:20:11Z</time>
      </trkpt>
      <trkpt lat="49.94768" lon="4.4794">
        <ele>334.8</ele>
        <time>2024-03-17T09:20:12Z</time>
      </trkpt>
      <trkpt lat="49.94765" lon="4.4793">
        <ele>334.8</ele>
        <time>2024-03-17T09:20:13Z</time>
      </trkpt>
      <trkpt lat="49.94762" lon="4.47921">
        <ele>334.8</ele>
        <time>2024-03-17T09:20:14Z</time>
      </trkpt>
      <trkpt lat="49.94759" lon="4.47912">
        <ele>335.2</ele>
        <time>2024-03-17T09:20:15Z</time>
      </trkpt>
      <trkpt lat="49.94755" lon="4.47903">
        <ele>335.4</ele>
        <time>2024-03-17T09:20:16Z</time>
      </trkpt>
      <trkpt lat="49.94752" lon="4.47893">
        <ele>336</ele>
        <time>2024-03-17T09:20:17Z</time>
      </trkpt>
      <trkpt lat="49.94749" lon="4.47884">
        <ele>337.4</ele>
        <time>2024-03-17T09:20:18Z</time>
      </trkpt>
      <trkpt lat="49.94747" lon="4.47876">
        <ele>338.2</ele>
        <time>2024-03-17T09:20:19Z</time>
      </trkpt>
      <trkpt lat="49.94744" lon="4.47867">
        <ele>338.2</ele>
        <time>2024-03-17T09:20:20Z</time>
      </trkpt>
      <trkpt lat="49.94741" lon="4.47857">
        <ele>338.6</ele>
        <time>2024-03-17T09:20:21Z</time>
      </trkpt>
      <trkpt lat="49.94738" lon="4.47848">
        <ele>339</ele>
        <time>2024-03-17T09:20:22Z</time>
      </trkpt>
      <trkpt lat="49.94736" lon="4.4784">
        <ele>339.4</ele>
        <time>2024-03-17T09:20:23Z</time>
      </trkpt>
      <trkpt lat="49.94733" lon="4.47831">
        <ele>339.6</ele>
        <time>2024-03-17T09:20:24Z</time>
      </trkpt>
      <trkpt lat="49.94731" lon="4.47822">
        <ele>340</ele>
        <time>2024-03-17T09:20:25Z</time>
      </trkpt>
      <trkpt lat="49.94729" lon="4.47812">
        <ele>340</ele>
        <time>2024-03-17T09:20:26Z</time>
      </trkpt>
      <trkpt lat="49.94727" lon="4.47802">
        <ele>340.2</ele>
        <time>2024-03-17T09:20:27Z</time>
      </trkpt>
      <trkpt lat="49.94727" lon="4.47791">
        <ele>340.2</ele>
        <time>2024-03-17T09:20:28Z</time>
      </trkpt>
      <trkpt lat="49.94727" lon="4.47781">
        <ele>340.2</ele>
        <time>2024-03-17T09:20:29Z</time>
      </trkpt>
      <trkpt lat="49.94729" lon="4.4777">
        <ele>340.4</ele>
        <time>2024-03-17T09:20:30Z</time>
      </trkpt>
      <trkpt lat="49.94732" lon="4.47759">
        <ele>340.4</ele>
        <time>2024-03-17T09:20:31Z</time>
      </trkpt>
      <trkpt lat="49.94735" lon="4.47749">
        <ele>340.4</ele>
        <time>2024-03-17T09:20:32Z</time>
      </trkpt>
      <trkpt lat="49.94739" lon="4.4774">
        <ele>340.4</ele>
        <time>2024-03-17T09:20:33Z</time>
      </trkpt>
      <trkpt lat="49.94744" lon="4.4773">
        <ele>340.4</ele>
        <time>2024-03-17T09:20:34Z</time>
      </trkpt>
      <trkpt lat="49.94749" lon="4.47722">
        <ele>340.4</ele>
        <time>2024-03-17T09:20:35Z</time>
      </trkpt>
      <trkpt lat="49.94753" lon="4.47712">
        <ele>340.6</ele>
        <time>2024-03-17T09:20:36Z</time>
      </trkpt>
      <trkpt lat="49.94758" lon="4.47703">
        <ele>340.6</ele>
        <time>2024-03-17T09:20:37Z</time>
      </trkpt>
      <trkpt lat="49.94762" lon="4.47693">
        <ele>340.6</ele>
        <time>2024-03-17T09:20:38Z</time>
      </trkpt>
      <trkpt lat="49.94767" lon="4.47684">
        <ele>340.6</ele>
        <time>2024-03-17T09:20:39Z</time>
      </trkpt>
      <trkpt lat="49.94771" lon="4.47674">
        <ele>340.6</ele>
        <time>2024-03-17T09:20:40Z</time>
      </trkpt>
      <trkpt lat="49.94776" lon="4.47665">
        <ele>340.6</ele>
        <time>2024-03-17T09:20:41Z</time>
      </trkpt>
      <trkpt lat="49.9478" lon="4.47655">
        <ele>340.6</ele>
        <time>2024-03-17T09:20:42Z</time>
      </trkpt>
      <trkpt lat="49.94785" lon="4.47646">
        <ele>340.4</ele>
        <time>2024-03-17T09:20:43Z</time>
      </trkpt>
      <trkpt lat="49.94789" lon="4.47635">
        <ele>340.4</ele>
        <time>2024-03-17T09:20:44Z</time>
      </trkpt>
      <trkpt lat="49.94793" lon="4.47625">
        <ele>340.2</ele>
        <time>2024-03-17T09:20:45Z</time>
      </trkpt>
      <trkpt lat="49.94797" lon="4.47614">
        <ele>340</ele>
        <time>2024-03-17T09:20:46Z</time>
      </trkpt>
      <trkpt lat="49.94801" lon="4.47603">
        <ele>340</ele>
        <time>2024-03-17T09:20:47Z</time>
      </trkpt>
      <trkpt lat="49.94804" lon="4.47592">
        <ele>339.6</ele>
        <time>2024-03-17T09:20:48Z</time>
      </trkpt>
      <trkpt lat="49.94808" lon="4.4758">
        <ele>339.4</ele>
        <time>2024-03-17T09:20:49Z</time>
      </trkpt>
      <trkpt lat="49.94811" lon="4.47568">
        <ele>339</ele>
        <time>2024-03-17T09:20:50Z</time>
      </trkpt>
      <trkpt lat="49.94814" lon="4.47556">
        <ele>339</ele>
        <time>2024-03-17T09:20:51Z</time>
      </trkpt>
      <trkpt lat="49.94817" lon="4.47544">
        <ele>338.6</ele>
        <time>2024-03-17T09:20:52Z</time>
      </trkpt>
      <trkpt lat="49.94819" lon="4.47532">
        <ele>338.2</ele>
        <time>2024-03-17T09:20:53Z</time>
      </trkpt>
      <trkpt lat="49.94822" lon="4.47519">
        <ele>338.2</ele>
        <time>2024-03-17T09:20:54Z</time>
      </trkpt>
      <trkpt lat="49.94824" lon="4.47508">
        <ele>337.8</ele>
        <time>2024-03-17T09:20:55Z</time>
      </trkpt>
      <trkpt lat="49.94827" lon="4.47496">
        <ele>337.8</ele>
        <time>2024-03-17T09:20:56Z</time>
      </trkpt>
      <trkpt lat="49.9483" lon="4.47484">
        <ele>337.2</ele>
        <time>2024-03-17T09:20:57Z</time>
      </trkpt>
      <trkpt lat="49.94832" lon="4.47472">
        <ele>336.6</ele>
        <time>2024-03-17T09:20:58Z</time>
      </trkpt>
      <trkpt lat="49.94835" lon="4.4746">
        <ele>336</ele>
        <time>2024-03-17T09:20:59Z</time>
      </trkpt>
      <trkpt lat="49.94837" lon="4.47448">
        <ele>336</ele>
        <time>2024-03-17T09:21:00Z</time>
      </trkpt>
      <trkpt lat="49.9484" lon="4.47435">
        <ele>335.8</ele>
        <time>2024-03-17T09:21:01Z</time>
      </trkpt>
      <trkpt lat="49.94843" lon="4.47423">
        <ele>335.8</ele>
        <time>2024-03-17T09:21:02Z</time>
      </trkpt>
      <trkpt lat="49.94845" lon="4.4741">
        <ele>335.8</ele>
        <time>2024-03-17T09:21:03Z</time>
      </trkpt>
      <trkpt lat="49.94848" lon="4.47398">
        <ele>335.6</ele>
        <time>2024-03-17T09:21:04Z</time>
      </trkpt>
      <trkpt lat="49.94851" lon="4.47385">
        <ele>335.4</ele>
        <time>2024-03-17T09:21:05Z</time>
      </trkpt>
      <trkpt lat="49.94854" lon="4.47373">
        <ele>335.4</ele>
        <time>2024-03-17T09:21:06Z</time>
      </trkpt>
      <trkpt lat="49.94857" lon="4.4736">
        <ele>335.4</ele>
        <time>2024-03-17T09:21:07Z</time>
      </trkpt>
      <trkpt lat="49.9486" lon="4.47348">
        <ele>335.4</ele>
        <time>2024-03-17T09:21:08Z</time>
      </trkpt>
      <trkpt lat="49.94862" lon="4.47335">
        <ele>335.4</ele>
        <time>2024-03-17T09:21:09Z</time>
      </trkpt>
      <trkpt lat="49.94865" lon="4.47323">
        <ele>335.2</ele>
        <time>2024-03-17T09:21:10Z</time>
      </trkpt>
      <trkpt lat="49.94868" lon="4.47311">
        <ele>335</ele>
        <time>2024-03-17T09:21:11Z</time>
      </trkpt>
      <trkpt lat="49.94871" lon="4.47298">
        <ele>334.8</ele>
        <time>2024-03-17T09:21:12Z</time>
      </trkpt>
      <trkpt lat="49.94874" lon="4.47285">
        <ele>335</ele>
        <time>2024-03-17T09:21:13Z</time>
      </trkpt>
      <trkpt lat="49.94877" lon="4.47273">
        <ele>335</ele>
        <time>2024-03-17T09:21:14Z</time>
      </trkpt>
      <trkpt lat="49.9488" lon="4.4726">
        <ele>334.8</ele>
        <time>2024-03-17T09:21:15Z</time>
      </trkpt>
      <trkpt lat="49.94882" lon="4.47247">
        <ele>334.6</ele>
        <time>2024-03-17T09:21:16Z</time>
      </trkpt>
      <trkpt lat="49.94885" lon="4.47234">
        <ele>334.6</ele>
        <time>2024-03-17T09:21:17Z</time>
      </trkpt>
      <trkpt lat="49.94888" lon="4.47222">
        <ele>334.6</ele>
        <time>2024-03-17T09:21:18Z</time>
      </trkpt>
      <trkpt lat="49.94891" lon="4.47209">
        <ele>334.4</ele>
        <time>2024-03-17T09:21:19Z</time>
      </trkpt>
      <trkpt lat="49.94894" lon="4.47197">
        <ele>334.2</ele>
        <time>2024-03-17T09:21:20Z</time>
      </trkpt>
      <trkpt lat="49.94897" lon="4.47184">
        <ele>334.4</ele>
        <time>2024-03-17T09:21:21Z</time>
      </trkpt>
      <trkpt lat="49.949" lon="4.47171">
        <ele>334.2</ele>
        <time>2024-03-17T09:21:22Z</time>
      </trkpt>
      <trkpt lat="49.94903" lon="4.47158">
        <ele>334.2</ele>
        <time>2024-03-17T09:21:23Z</time>
      </trkpt>
      <trkpt lat="49.94906" lon="4.47145">
        <ele>334.4</ele>
        <time>2024-03-17T09:21:24Z</time>
      </trkpt>
      <trkpt lat="49.94909" lon="4.47132">
        <ele>334.2</ele>
        <time>2024-03-17T09:21:25Z</time>
      </trkpt>
      <trkpt lat="49.94912" lon="4.47119">
        <ele>334.4</ele>
        <time>2024-03-17T09:21:26Z</time>
      </trkpt>
      <trkpt lat="49.94915" lon="4.47106">
        <ele>334.2</ele>
        <time>2024-03-17T09:21:27Z</time>
      </trkpt>
      <trkpt lat="49.94918" lon="4.47093">
        <ele>334.2</ele>
        <time>2024-03-17T09:21:28Z</time>
      </trkpt>
      <trkpt lat="49.94921" lon="4.47079">
        <ele>333.8</ele>
        <time>2024-03-17T09:21:29Z</time>
      </trkpt>
      <trkpt lat="49.94924" lon="4.47066">
        <ele>333.8</ele>
        <time>2024-03-17T09:21:30Z</time>
      </trkpt>
      <trkpt lat="49.94927" lon="4.47053">
        <ele>333.8</ele>
        <time>2024-03-17T09:21:31Z</time>
      </trkpt>
      <trkpt lat="49.9493" lon="4.47039">
        <ele>333.8</ele>
        <time>2024-03-17T09:21:32Z</time>
      </trkpt>
      <trkpt lat="49.94933" lon="4.47026">
        <ele>333.6</ele>
        <time>2024-03-17T09:21:33Z</time>
      </trkpt>
      <trkpt lat="49.94936" lon="4.47013">
        <ele>333.6</ele>
        <time>2024-03-17T09:21:34Z</time>
      </trkpt>
      <trkpt lat="49.94939" lon="4.47">
        <ele>333.6</ele>
        <time>2024-03-17T09:21:35Z</time>
      </trkpt>
      <trkpt lat="49.94942" lon="4.46986">
        <ele>333.4</ele>
        <time>2024-03-17T09:21:36Z</time>
      </trkpt>
      <trkpt lat="49.94945" lon="4.46973">
        <ele>333.2</ele>
        <time>2024-03-17T09:21:37Z</time>
      </trkpt>
      <trkpt lat="49.94948" lon="4.46959">
        <ele>333.2</ele>
        <time>2024-03-17T09:21:38Z</time>
      </trkpt>
      <trkpt lat="49.94951" lon="4.46946">
        <ele>332.8</ele>
        <time>2024-03-17T09:21:39Z</time>
      </trkpt>
      <trkpt lat="49.94954" lon="4.46932">
        <ele>332.2</ele>
        <time>2024-03-17T09:21:40Z</time>
      </trkpt>
      <trkpt lat="49.94957" lon="4.46918">
        <ele>331.8</ele>
        <time>2024-03-17T09:21:41Z</time>
      </trkpt>
      <trkpt lat="49.9496" lon="4.46905">
        <ele>331.6</ele>
        <time>2024-03-17T09:21:42Z</time>
      </trkpt>
      <trkpt lat="49.94964" lon="4.46891">
        <ele>331.4</ele>
        <time>2024-03-17T09:21:43Z</time>
      </trkpt>
      <trkpt lat="49.94967" lon="4.46878">
        <ele>331</ele>
        <time>2024-03-17T09:21:44Z</time>
      </trkpt>
      <trkpt lat="49.9497" lon="4.46864">
        <ele>331</ele>
        <time>2024-03-17T09:21:45Z</time>
      </trkpt>
      <trkpt lat="49.94973" lon="4.46851">
        <ele>330.8</ele>
        <time>2024-03-17T09:21:46Z</time>
      </trkpt>
      <trkpt lat="49.94976" lon="4.46838">
        <ele>330.6</ele>
        <time>2024-03-17T09:21:47Z</time>
      </trkpt>
      <trkpt lat="49.94979" lon="4.46825">
        <ele>330.2</ele>
        <time>2024-03-17T09:21:48Z</time>
      </trkpt>
      <trkpt lat="49.94982" lon="4.46812">
        <ele>329.8</ele>
        <time>2024-03-17T09:21:49Z</time>
      </trkpt>
      <trkpt lat="49.94985" lon="4.46799">
        <ele>329.8</ele>
        <time>2024-03-17T09:21:50Z</time>
      </trkpt>
      <trkpt lat="49.94988" lon="4.46786">
        <ele>329.8</ele>
        <time>2024-03-17T09:21:51Z</time>
      </trkpt>
      <trkpt lat="49.94991" lon="4.46773">
        <ele>329.4</ele>
        <time>2024-03-17T09:21:52Z</time>
      </trkpt>
      <trkpt lat="49.94994" lon="4.4676">
        <ele>329.4</ele>
        <time>2024-03-17T09:21:53Z</time>
      </trkpt>
      <trkpt lat="49.94998" lon="4.46748">
        <ele>329.2</ele>
        <time>2024-03-17T09:21:54Z</time>
      </trkpt>
      <trkpt lat="49.95001" lon="4.46735">
        <ele>329.2</ele>
        <time>2024-03-17T09:21:55Z</time>
      </trkpt>
      <trkpt lat="49.95003" lon="4.46722">
        <ele>329.4</ele>
        <time>2024-03-17T09:21:56Z</time>
      </trkpt>
      <trkpt lat="49.95005" lon="4.4671">
        <ele>329.2</ele>
        <time>2024-03-17T09:21:57Z</time>
      </trkpt>
      <trkpt lat="49.95008" lon="4.46697">
        <ele>329</ele>
        <time>2024-03-17T09:21:58Z</time>
      </trkpt>
      <trkpt lat="49.9501" lon="4.46685">
        <ele>328.8</ele>
        <time>2024-03-17T09:21:59Z</time>
      </trkpt>
      <trkpt lat="49.95013" lon="4.46673">
        <ele>328.8</ele>
        <time>2024-03-17T09:22:00Z</time>
      </trkpt>
      <trkpt lat="49.95014" lon="4.4666">
        <ele>328.8</ele>
        <time>2024-03-17T09:22:01Z</time>
      </trkpt>
      <trkpt lat="49.95015" lon="4.46647">
        <ele>328.8</ele>
        <time>2024-03-17T09:22:02Z</time>
      </trkpt>
      <trkpt lat="49.95016" lon="4.46635">
        <ele>328.6</ele>
        <time>2024-03-17T09:22:03Z</time>
      </trkpt>
      <trkpt lat="49.95017" lon="4.46622">
        <ele>328.6</ele>
        <time>2024-03-17T09:22:04Z</time>
      </trkpt>
      <trkpt lat="49.95018" lon="4.4661">
        <ele>328.6</ele>
        <time>2024-03-17T09:22:05Z</time>
      </trkpt>
      <trkpt lat="49.95018" lon="4.46598">
        <ele>328.4</ele>
        <time>2024-03-17T09:22:06Z</time>
      </trkpt>
      <trkpt lat="49.95019" lon="4.46585">
        <ele>328.6</ele>
        <time>2024-03-17T09:22:07Z</time>
      </trkpt>
      <trkpt lat="49.9502" lon="4.46573">
        <ele>328.6</ele>
        <time>2024-03-17T09:22:08Z</time>
      </trkpt>
      <trkpt lat="49.9502" lon="4.46561">
        <ele>328.6</ele>
        <time>2024-03-17T09:22:09Z</time>
      </trkpt>
      <trkpt lat="49.95021" lon="4.4655">
        <ele>328.6</ele>
        <time>2024-03-17T09:22:10Z</time>
      </trkpt>
      <trkpt lat="49.95021" lon="4.46538">
        <ele>328.6</ele>
        <time>2024-03-17T09:22:11Z</time>
      </trkpt>
      <trkpt lat="49.95022" lon="4.46527">
        <ele>328.4</ele>
        <time>2024-03-17T09:22:12Z</time>
      </trkpt>
      <trkpt lat="49.95022" lon="4.46515">
        <ele>328.6</ele>
        <time>2024-03-17T09:22:13Z</time>
      </trkpt>
      <trkpt lat="49.95023" lon="4.46505">
        <ele>328.6</ele>
        <time>2024-03-17T09:22:14Z</time>
      </trkpt>
      <trkpt lat="49.95024" lon="4.46494">
        <ele>328.6</ele>
        <time>2024-03-17T09:22:15Z</time>
      </trkpt>
      <trkpt lat="49.95024" lon="4.46484">
        <ele>328.6</ele>
        <time>2024-03-17T09:22:16Z</time>
      </trkpt>
      <trkpt lat="49.95025" lon="4.46473">
        <ele>328.8</ele>
        <time>2024-03-17T09:22:17Z</time>
      </trkpt>
      <trkpt lat="49.95025" lon="4.46463">
        <ele>328.8</ele>
        <time>2024-03-17T09:22:18Z</time>
      </trkpt>
      <trkpt lat="49.95026" lon="4.46453">
        <ele>329</ele>
        <time>2024-03-17T09:22:19Z</time>
      </trkpt>
      <trkpt lat="49.95026" lon="4.46443">
        <ele>329.2</ele>
        <time>2024-03-17T09:22:20Z</time>
      </trkpt>
      <trkpt lat="49.95026" lon="4.46434">
        <ele>329</ele>
        <time>2024-03-17T09:22:21Z</time>
      </trkpt>
      <trkpt lat="49.95026" lon="4.46423">
        <ele>329.2</ele>
        <time>2024-03-17T09:22:22Z</time>
      </trkpt>
      <trkpt lat="49.95026" lon="4.46413">
        <ele>329.4</ele>
        <time>2024-03-17T09:22:23Z</time>
      </trkpt>
      <trkpt lat="49.95026" lon="4.46402">
        <ele>329.4</ele>
        <time>2024-03-17T09:22:24Z</time>
      </trkpt>
      <trkpt lat="49.95026" lon="4.46391">
        <ele>329.4</ele>
        <time>2024-03-17T09:22:25Z</time>
      </trkpt>
      <trkpt lat="49.95026" lon="4.4638">
        <ele>329.4</ele>
        <time>2024-03-17T09:22:26Z</time>
      </trkpt>
      <trkpt lat="49.95027" lon="4.46368">
        <ele>329.6</ele>
        <time>2024-03-17T09:22:27Z</time>
      </trkpt>
      <trkpt lat="49.95027" lon="4.46356">
        <ele>329.4</ele>
        <time>2024-03-17T09:22:28Z</time>
      </trkpt>
      <trkpt lat="49.95028" lon="4.46344">
        <ele>329.4</ele>
        <time>2024-03-17T09:22:29Z</time>
      </trkpt>
      <trkpt lat="49.95029" lon="4.46333">
        <ele>329.4</ele>
        <time>2024-03-17T09:22:30Z</time>
      </trkpt>
      <trkpt lat="49.95031" lon="4.46321">
        <ele>329.6</ele>
        <time>2024-03-17T09:22:31Z</time>
      </trkpt>
      <trkpt lat="49.95033" lon="4.46309">
        <ele>329.6</ele>
        <time>2024-03-17T09:22:32Z</time>
      </trkpt>
      <trkpt lat="49.95036" lon="4.46298">
        <ele>329.6</ele>
        <time>2024-03-17T09:22:33Z</time>
      </trkpt>
      <trkpt lat="49.95039" lon="4.46287">
        <ele>329.6</ele>
        <time>2024-03-17T09:22:34Z</time>
      </trkpt>
      <trkpt lat="49.95042" lon="4.46276">
        <ele>329.6</ele>
        <time>2024-03-17T09:22:35Z</time>
      </trkpt>
      <trkpt lat="49.95046" lon="4.46264">
        <ele>329.6</ele>
        <time>2024-03-17T09:22:36Z</time>
      </trkpt>
      <trkpt lat="49.9505" lon="4.46253">
        <ele>329.6</ele>
        <time>2024-03-17T09:22:37Z</time>
      </trkpt>
      <trkpt lat="49.95054" lon="4.46242">
        <ele>329.6</ele>
        <time>2024-03-17T09:22:38Z</time>
      </trkpt>
      <trkpt lat="49.95059" lon="4.46231">
        <ele>329.4</ele>
        <time>2024-03-17T09:22:39Z</time>
      </trkpt>
      <trkpt lat="49.95063" lon="4.4622">
        <ele>329.4</ele>
        <time>2024-03-17T09:22:40Z</time>
      </trkpt>
      <trkpt lat="49.95068" lon="4.46209">
        <ele>329.4</ele>
        <time>2024-03-17T09:22:41Z</time>
      </trkpt>
      <trkpt lat="49.95073" lon="4.46198">
        <ele>329</ele>
        <time>2024-03-17T09:22:42Z</time>
      </trkpt>
      <trkpt lat="49.95078" lon="4.46189">
        <ele>328.8</ele>
        <time>2024-03-17T09:22:43Z</time>
      </trkpt>
      <trkpt lat="49.95084" lon="4.4618">
        <ele>328.6</ele>
        <time>2024-03-17T09:22:44Z</time>
      </trkpt>
      <trkpt lat="49.9509" lon="4.46172">
        <ele>328.6</ele>
        <time>2024-03-17T09:22:45Z</time>
      </trkpt>
      <trkpt lat="49.95097" lon="4.46165">
        <ele>328.4</ele>
        <time>2024-03-17T09:22:46Z</time>
      </trkpt>
      <trkpt lat="49.95104" lon="4.4616">
        <ele>328.2</ele>
        <time>2024-03-17T09:22:47Z</time>
      </trkpt>
      <trkpt lat="49.95112" lon="4.46156">
        <ele>328</ele>
        <time>2024-03-17T09:22:48Z</time>
      </trkpt>
      <trkpt lat="49.95119" lon="4.46152">
        <ele>328</ele>
        <time>2024-03-17T09:22:49Z</time>
      </trkpt>
      <trkpt lat="49.95127" lon="4.4615">
        <ele>328</ele>
        <time>2024-03-17T09:22:50Z</time>
      </trkpt>
      <trkpt lat="49.95135" lon="4.46148">
        <ele>328</ele>
        <time>2024-03-17T09:22:51Z</time>
      </trkpt>
      <trkpt lat="49.95143" lon="4.46146">
        <ele>327.8</ele>
        <time>2024-03-17T09:22:52Z</time>
      </trkpt>
      <trkpt lat="49.9515" lon="4.46144">
        <ele>328</ele>
        <time>2024-03-17T09:22:53Z</time>
      </trkpt>
      <trkpt lat="49.95157" lon="4.46141">
        <ele>327.8</ele>
        <time>2024-03-17T09:22:54Z</time>
      </trkpt>
      <trkpt lat="49.95165" lon="4.46139">
        <ele>328</ele>
        <time>2024-03-17T09:22:55Z</time>
      </trkpt>
      <trkpt lat="49.95172" lon="4.46137">
        <ele>328</ele>
        <time>2024-03-17T09:22:56Z</time>
      </trkpt>
      <trkpt lat="49.9518" lon="4.46135">
        <ele>328.2</ele>
        <time>2024-03-17T09:22:57Z</time>
      </trkpt>
      <trkpt lat="49.95187" lon="4.46132">
        <ele>328.2</ele>
        <time>2024-03-17T09:22:58Z</time>
      </trkpt>
      <trkpt lat="49.95194" lon="4.46129">
        <ele>328.4</ele>
        <time>2024-03-17T09:22:59Z</time>
      </trkpt>
      <trkpt lat="49.95201" lon="4.46127">
        <ele>328.6</ele>
        <time>2024-03-17T09:23:00Z</time>
      </trkpt>
      <trkpt lat="49.95209" lon="4.46124">
        <ele>328.6</ele>
        <time>2024-03-17T09:23:01Z</time>
      </trkpt>
      <trkpt lat="49.95215" lon="4.4612">
        <ele>328.8</ele>
        <time>2024-03-17T09:23:02Z</time>
      </trkpt>
      <trkpt lat="49.95222" lon="4.46117">
        <ele>328.8</ele>
        <time>2024-03-17T09:23:03Z</time>
      </trkpt>
      <trkpt lat="49.95229" lon="4.46114">
        <ele>328.8</ele>
        <time>2024-03-17T09:23:04Z</time>
      </trkpt>
      <trkpt lat="49.95236" lon="4.46111">
        <ele>329</ele>
        <time>2024-03-17T09:23:05Z</time>
      </trkpt>
      <trkpt lat="49.95243" lon="4.46108">
        <ele>328.8</ele>
        <time>2024-03-17T09:23:06Z</time>
      </trkpt>
      <trkpt lat="49.9525" lon="4.46105">
        <ele>329.2</ele>
        <time>2024-03-17T09:23:07Z</time>
      </trkpt>
      <trkpt lat="49.95257" lon="4.46102">
        <ele>329.2</ele>
        <time>2024-03-17T09:23:08Z</time>
      </trkpt>
      <trkpt lat="49.95264" lon="4.46099">
        <ele>329.4</ele>
        <time>2024-03-17T09:23:09Z</time>
      </trkpt>
      <trkpt lat="49.9527" lon="4.46096">
        <ele>329.6</ele>
        <time>2024-03-17T09:23:10Z</time>
      </trkpt>
      <trkpt lat="49.95277" lon="4.46093">
        <ele>329.8</ele>
        <time>2024-03-17T09:23:11Z</time>
      </trkpt>
      <trkpt lat="49.95284" lon="4.4609">
        <ele>329.8</ele>
        <time>2024-03-17T09:23:12Z</time>
      </trkpt>
      <trkpt lat="49.95291" lon="4.46086">
        <ele>330</ele>
        <time>2024-03-17T09:23:13Z</time>
      </trkpt>
      <trkpt lat="49.95298" lon="4.46083">
        <ele>330.2</ele>
        <time>2024-03-17T09:23:14Z</time>
      </trkpt>
      <trkpt lat="49.95304" lon="4.4608">
        <ele>330.4</ele>
        <time>2024-03-17T09:23:15Z</time>
      </trkpt>
      <trkpt lat="49.95311" lon="4.46076">
        <ele>330.4</ele>
        <time>2024-03-17T09:23:16Z</time>
      </trkpt>
      <trkpt lat="49.95318" lon="4.46073">
        <ele>330.6</ele>
        <time>2024-03-17T09:23:17Z</time>
      </trkpt>
      <trkpt lat="49.95326" lon="4.46071">
        <ele>330.8</ele>
        <time>2024-03-17T09:23:18Z</time>
      </trkpt>
      <trkpt lat="49.95333" lon="4.46067">
        <ele>331</ele>
        <time>2024-03-17T09:23:19Z</time>
      </trkpt>
      <trkpt lat="49.9534" lon="4.46064">
        <ele>331.6</ele>
        <time>2024-03-17T09:23:20Z</time>
      </trkpt>
      <trkpt lat="49.95347" lon="4.4606">
        <ele>332</ele>
        <time>2024-03-17T09:23:21Z</time>
      </trkpt>
      <trkpt lat="49.95354" lon="4.46057">
        <ele>332</ele>
        <time>2024-03-17T09:23:22Z</time>
      </trkpt>
      <trkpt lat="49.95361" lon="4.46054">
        <ele>332.2</ele>
        <time>2024-03-17T09:23:23Z</time>
      </trkpt>
      <trkpt lat="49.95368" lon="4.46051">
        <ele>332.4</ele>
        <time>2024-03-17T09:23:24Z</time>
      </trkpt>
      <trkpt lat="49.95375" lon="4.46048">
        <ele>332.2</ele>
        <time>2024-03-17T09:23:25Z</time>
      </trkpt>
      <trkpt lat="49.95382" lon="4.46045">
        <ele>332.4</ele>
        <time>2024-03-17T09:23:26Z</time>
      </trkpt>
      <trkpt lat="49.95389" lon="4.46042">
        <ele>332.6</ele>
        <time>2024-03-17T09:23:27Z</time>
      </trkpt>
      <trkpt lat="49.95396" lon="4.46038">
        <ele>332.6</ele>
        <time>2024-03-17T09:23:28Z</time>
      </trkpt>
      <trkpt lat="49.95403" lon="4.46035">
        <ele>332.6</ele>
        <time>2024-03-17T09:23:29Z</time>
      </trkpt>
      <trkpt lat="49.9541" lon="4.46032">
        <ele>333</ele>
        <time>2024-03-17T09:23:30Z</time>
      </trkpt>
      <trkpt lat="49.95417" lon="4.46029">
        <ele>333.2</ele>
        <time>2024-03-17T09:23:31Z</time>
      </trkpt>
      <trkpt lat="49.95424" lon="4.46026">
        <ele>333.2</ele>
        <time>2024-03-17T09:23:32Z</time>
      </trkpt>
      <trkpt lat="49.95431" lon="4.46023">
        <ele>333.4</ele>
        <time>2024-03-17T09:23:33Z</time>
      </trkpt>
      <trkpt lat="49.95438" lon="4.4602">
        <ele>333.4</ele>
        <time>2024-03-17T09:23:34Z</time>
      </trkpt>
      <trkpt lat="49.95445" lon="4.46016">
        <ele>333.4</ele>
        <time>2024-03-17T09:23:35Z</time>
      </trkpt>
      <trkpt lat="49.95452" lon="4.46013">
        <ele>333.6</ele>
        <time>2024-03-17T09:23:36Z</time>
      </trkpt>
      <trkpt lat="49.95459" lon="4.4601">
        <ele>333.6</ele>
        <time>2024-03-17T09:23:37Z</time>
      </trkpt>
      <trkpt lat="49.95466" lon="4.46007">
        <ele>333.8</ele>
        <time>2024-03-17T09:23:38Z</time>
      </trkpt>
      <trkpt lat="49.95473" lon="4.46004">
        <ele>333.8</ele>
        <time>2024-03-17T09:23:39Z</time>
      </trkpt>
      <trkpt lat="49.9548" lon="4.46001">
        <ele>333.8</ele>
        <time>2024-03-17T09:23:40Z</time>
      </trkpt>
      <trkpt lat="49.95487" lon="4.45998">
        <ele>334.2</ele>
        <time>2024-03-17T09:23:41Z</time>
      </trkpt>
      <trkpt lat="49.95494" lon="4.45995">
        <ele>334.4</ele>
        <time>2024-03-17T09:23:42Z</time>
      </trkpt>
      <trkpt lat="49.95501" lon="4.45992">
        <ele>334.4</ele>
        <time>2024-03-17T09:23:43Z</time>
      </trkpt>
      <trkpt lat="49.95508" lon="4.45989">
        <ele>334.2</ele>
        <time>2024-03-17T09:23:44Z</time>
      </trkpt>
      <trkpt lat="49.95514" lon="4.45986">
        <ele>334.4</ele>
        <time>2024-03-17T09:23:45Z</time>
      </trkpt>
      <trkpt lat="49.95521" lon="4.45982">
        <ele>334.4</ele>
        <time>2024-03-17T09:23:46Z</time>
      </trkpt>
      <trkpt lat="49.95528" lon="4.45979">
        <ele>334.6</ele>
        <time>2024-03-17T09:23:47Z</time>
      </trkpt>
      <trkpt lat="49.95535" lon="4.45975">
        <ele>334.6</ele>
        <time>2024-03-17T09:23:48Z</time>
      </trkpt>
      <trkpt lat="49.95541" lon="4.45971">
        <ele>334.6</ele>
        <time>2024-03-17T09:23:49Z</time>
      </trkpt>
      <trkpt lat="49.95548" lon="4.45968">
        <ele>334.8</ele>
        <time>2024-03-17T09:23:50Z</time>
      </trkpt>
      <trkpt lat="49.95555" lon="4.45964">
        <ele>334.8</ele>
        <time>2024-03-17T09:23:51Z</time>
      </trkpt>
      <trkpt lat="49.95561" lon="4.45961">
        <ele>335</ele>
        <time>2024-03-17T09:23:52Z</time>
      </trkpt>
      <trkpt lat="49.95567" lon="4.45957">
        <ele>335.2</ele>
        <time>2024-03-17T09:23:53Z</time>
      </trkpt>
      <trkpt lat="49.95573" lon="4.45954">
        <ele>335</ele>
        <time>2024-03-17T09:23:54Z</time>
      </trkpt>
      <trkpt lat="49.9558" lon="4.4595">
        <ele>335</ele>
        <time>2024-03-17T09:23:55Z</time>
      </trkpt>
      <trkpt lat="49.95586" lon="4.45946">
        <ele>335.2</ele>
        <time>2024-03-17T09:23:56Z</time>
      </trkpt>
      <trkpt lat="49.95593" lon="4.45942">
        <ele>335.2</ele>
        <time>2024-03-17T09:23:57Z</time>
      </trkpt>
      <trkpt lat="49.95599" lon="4.45939">
        <ele>335.4</ele>
        <time>2024-03-17T09:23:58Z</time>
      </trkpt>
      <trkpt lat="49.95605" lon="4.45936">
        <ele>335.6</ele>
        <time>2024-03-17T09:23:59Z</time>
      </trkpt>
      <trkpt lat="49.95611" lon="4.45932">
        <ele>335.8</ele>
        <time>2024-03-17T09:24:00Z</time>
      </trkpt>
      <trkpt lat="49.95618" lon="4.45928">
        <ele>335.8</ele>
        <time>2024-03-17T09:24:01Z</time>
      </trkpt>
      <trkpt lat="49.95624" lon="4.45924">
        <ele>335.8</ele>
        <time>2024-03-17T09:24:02Z</time>
      </trkpt>
      <trkpt lat="49.9563" lon="4.4592">
        <ele>336</ele>
        <time>2024-03-17T09:24:03Z</time>
      </trkpt>
      <trkpt lat="49.95636" lon="4.45917">
        <ele>336</ele>
        <time>2024-03-17T09:24:04Z</time>
      </trkpt>
      <trkpt lat="49.95642" lon="4.45913">
        <ele>336.2</ele>
        <time>2024-03-17T09:24:05Z</time>
      </trkpt>
      <trkpt lat="49.95648" lon="4.4591">
        <ele>336.4</ele>
        <time>2024-03-17T09:24:06Z</time>
      </trkpt>
      <trkpt lat="49.95654" lon="4.45907">
        <ele>336.4</ele>
        <time>2024-03-17T09:24:07Z</time>
      </trkpt>
      <trkpt lat="49.9566" lon="4.45904">
        <ele>336.8</ele>
        <time>2024-03-17T09:24:08Z</time>
      </trkpt>
      <trkpt lat="49.95666" lon="4.45901">
        <ele>337</ele>
        <time>2024-03-17T09:24:09Z</time>
      </trkpt>
      <trkpt lat="49.95672" lon="4.45897">
        <ele>337.2</ele>
        <time>2024-03-17T09:24:10Z</time>
      </trkpt>
      <trkpt lat="49.95678" lon="4.45894">
        <ele>337.6</ele>
        <time>2024-03-17T09:24:11Z</time>
      </trkpt>
      <trkpt lat="49.95684" lon="4.4589">
        <ele>337.8</ele>
        <time>2024-03-17T09:24:12Z</time>
      </trkpt>
      <trkpt lat="49.9569" lon="4.45886">
        <ele>337.8</ele>
        <time>2024-03-17T09:24:13Z</time>
      </trkpt>
      <trkpt lat="49.95697" lon="4.45882">
        <ele>338</ele>
        <time>2024-03-17T09:24:14Z</time>
      </trkpt>
      <trkpt lat="49.95703" lon="4.45878">
        <ele>338.2</ele>
        <time>2024-03-17T09:24:15Z</time>
      </trkpt>
      <trkpt lat="49.95708" lon="4.45874">
        <ele>338.6</ele>
        <time>2024-03-17T09:24:16Z</time>
      </trkpt>
      <trkpt lat="49.95714" lon="4.4587">
        <ele>338.8</ele>
        <time>2024-03-17T09:24:17Z</time>
      </trkpt>
      <trkpt lat="49.9572" lon="4.45865">
        <ele>339.2</ele>
        <time>2024-03-17T09:24:18Z</time>
      </trkpt>
      <trkpt lat="49.95726" lon="4.45861">
        <ele>339.6</ele>
        <time>2024-03-17T09:24:19Z</time>
      </trkpt>
      <trkpt lat="49.95732" lon="4.45857">
        <ele>339.6</ele>
        <time>2024-03-17T09:24:20Z</time>
      </trkpt>
      <trkpt lat="49.95737" lon="4.45854">
        <ele>339.8</ele>
        <time>2024-03-17T09:24:21Z</time>
      </trkpt>
      <trkpt lat="49.95743" lon="4.4585">
        <ele>340</ele>
        <time>2024-03-17T09:24:22Z</time>
      </trkpt>
      <trkpt lat="49.95749" lon="4.45847">
        <ele>340</ele>
        <time>2024-03-17T09:24:23Z</time>
      </trkpt>
      <trkpt lat="49.95754" lon="4.45843">
        <ele>340</ele>
        <time>2024-03-17T09:24:24Z</time>
      </trkpt>
      <trkpt lat="49.9576" lon="4.45839">
        <ele>340.2</ele>
        <time>2024-03-17T09:24:25Z</time>
      </trkpt>
      <trkpt lat="49.95765" lon="4.45836">
        <ele>340.2</ele>
        <time>2024-03-17T09:24:26Z</time>
      </trkpt>
      <trkpt lat="49.9577" lon="4.45832">
        <ele>340.8</ele>
        <time>2024-03-17T09:24:27Z</time>
      </trkpt>
      <trkpt lat="49.95776" lon="4.45828">
        <ele>341.2</ele>
        <time>2024-03-17T09:24:28Z</time>
      </trkpt>
      <trkpt lat="49.95782" lon="4.45824">
        <ele>341.6</ele>
        <time>2024-03-17T09:24:29Z</time>
      </trkpt>
      <trkpt lat="49.95788" lon="4.45821">
        <ele>341.6</ele>
        <time>2024-03-17T09:24:30Z</time>
      </trkpt>
      <trkpt lat="49.95794" lon="4.45817">
        <ele>341.6</ele>
        <time>2024-03-17T09:24:31Z</time>
      </trkpt>
      <trkpt lat="49.95799" lon="4.45813">
        <ele>342</ele>
        <time>2024-03-17T09:24:32Z</time>
      </trkpt>
      <trkpt lat="49.95805" lon="4.45809">
        <ele>342.2</ele>
        <time>2024-03-17T09:24:33Z</time>
      </trkpt>
      <trkpt lat="49.95811" lon="4.45805">
        <ele>342.2</ele>
        <time>2024-03-17T09:24:34Z</time>
      </trkpt>
      <trkpt lat="49.95816" lon="4.45801">
        <ele>342.2</ele>
        <time>2024-03-17T09:24:35Z</time>
      </trkpt>
      <trkpt lat="49.95822" lon="4.45797">
        <ele>342.4</ele>
        <time>2024-03-17T09:24:36Z</time>
      </trkpt>
      <trkpt lat="49.95827" lon="4.45793">
        <ele>342.4</ele>
        <time>2024-03-17T09:24:37Z</time>
      </trkpt>
      <trkpt lat="49.95832" lon="4.45789">
        <ele>342.6</ele>
        <time>2024-03-17T09:24:38Z</time>
      </trkpt>
      <trkpt lat="49.95837" lon="4.45786">
        <ele>343</ele>
        <time>2024-03-17T09:24:39Z</time>
      </trkpt>
      <trkpt lat="49.95842" lon="4.45783">
        <ele>343.6</ele>
        <time>2024-03-17T09:24:40Z</time>
      </trkpt>
      <trkpt lat="49.95847" lon="4.4578">
        <ele>344</ele>
        <time>2024-03-17T09:24:41Z</time>
      </trkpt>
      <trkpt lat="49.95851" lon="4.45776">
        <ele>344.2</ele>
        <time>2024-03-17T09:24:42Z</time>
      </trkpt>
      <trkpt lat="49.95856" lon="4.45773">
        <ele>344.6</ele>
        <time>2024-03-17T09:24:43Z</time>
      </trkpt>
      <trkpt lat="49.9586" lon="4.4577">
        <ele>344.8</ele>
        <time>2024-03-17T09:24:44Z</time>
      </trkpt>
      <trkpt lat="49.95865" lon="4.45767">
        <ele>345.2</ele>
        <time>2024-03-17T09:24:45Z</time>
      </trkpt>
      <trkpt lat="49.95869" lon="4.45764">
        <ele>345.4</ele>
        <time>2024-03-17T09:24:46Z</time>
      </trkpt>
      <trkpt lat="49.95874" lon="4.45761">
        <ele>345.6</ele>
        <time>2024-03-17T09:24:47Z</time>
      </trkpt>
      <trkpt lat="49.95879" lon="4.45758">
        <ele>345.8</ele>
        <time>2024-03-17T09:24:48Z</time>
      </trkpt>
      <trkpt lat="49.95884" lon="4.45754">
        <ele>345.8</ele>
        <time>2024-03-17T09:24:49Z</time>
      </trkpt>
      <trkpt lat="49.95889" lon="4.45751">
        <ele>346.2</ele>
        <time>2024-03-17T09:24:50Z</time>
      </trkpt>
      <trkpt lat="49.95894" lon="4.45747">
        <ele>346.4</ele>
        <time>2024-03-17T09:24:51Z</time>
      </trkpt>
      <trkpt lat="49.95899" lon="4.45744">
        <ele>346.6</ele>
        <time>2024-03-17T09:24:52Z</time>
      </trkpt>
      <trkpt lat="49.95905" lon="4.45741">
        <ele>346.8</ele>
        <time>2024-03-17T09:24:53Z</time>
      </trkpt>
      <trkpt lat="49.9591" lon="4.45737">
        <ele>347</ele>
        <time>2024-03-17T09:24:54Z</time>
      </trkpt>
      <trkpt lat="49.95915" lon="4.45733">
        <ele>347.2</ele>
        <time>2024-03-17T09:24:55Z</time>
      </trkpt>
      <trkpt lat="49.9592" lon="4.4573">
        <ele>347.4</ele>
        <time>2024-03-17T09:24:56Z</time>
      </trkpt>
      <trkpt lat="49.95925" lon="4.45727">
        <ele>347.4</ele>
        <time>2024-03-17T09:24:57Z</time>
      </trkpt>
      <trkpt lat="49.9593" lon="4.45724">
        <ele>347.6</ele>
        <time>2024-03-17T09:24:58Z</time>
      </trkpt>
      <trkpt lat="49.95935" lon="4.4572">
        <ele>348</ele>
        <time>2024-03-17T09:24:59Z</time>
      </trkpt>
      <trkpt lat="49.95941" lon="4.45717">
        <ele>348.2</ele>
        <time>2024-03-17T09:25:00Z</time>
      </trkpt>
      <trkpt lat="49.95946" lon="4.45714">
        <ele>348.4</ele>
        <time>2024-03-17T09:25:01Z</time>
      </trkpt>
      <trkpt lat="49.95951" lon="4.45711">
        <ele>348.8</ele>
        <time>2024-03-17T09:25:02Z</time>
      </trkpt>
      <trkpt lat="49.95956" lon="4.45707">
        <ele>349.2</ele>
        <time>2024-03-17T09:25:03Z</time>
      </trkpt>
      <trkpt lat="49.95961" lon="4.45704">
        <ele>349.2</ele>
        <time>2024-03-17T09:25:04Z</time>
      </trkpt>
      <trkpt lat="49.95967" lon="4.457">
        <ele>349.2</ele>
        <time>2024-03-17T09:25:05Z</time>
      </trkpt>
      <trkpt lat="49.95972" lon="4.45697">
        <ele>349.2</ele>
        <time>2024-03-17T09:25:06Z</time>
      </trkpt>
      <trkpt lat="49.95977" lon="4.45693">
        <ele>349.4</ele>
        <time>2024-03-17T09:25:07Z</time>
      </trkpt>
      <trkpt lat="49.95982" lon="4.4569">
        <ele>349.8</ele>
        <time>2024-03-17T09:25:08Z</time>
      </trkpt>
      <trkpt lat="49.95987" lon="4.45686">
        <ele>350</ele>
        <time>2024-03-17T09:25:09Z</time>
      </trkpt>
      <trkpt lat="49.95992" lon="4.45683">
        <ele>350.2</ele>
        <time>2024-03-17T09:25:10Z</time>
      </trkpt>
      <trkpt lat="49.95997" lon="4.45679">
        <ele>350.4</ele>
        <time>2024-03-17T09:25:11Z</time>
      </trkpt>
      <trkpt lat="49.96002" lon="4.45676">
        <ele>350.8</ele>
        <time>2024-03-17T09:25:12Z</time>
      </trkpt>
      <trkpt lat="49.96007" lon="4.45673">
        <ele>351.4</ele>
        <time>2024-03-17T09:25:13Z</time>
      </trkpt>
      <trkpt lat="49.96012" lon="4.4567">
        <ele>351.6</ele>
        <time>2024-03-17T09:25:14Z</time>
      </trkpt>
      <trkpt lat="49.96017" lon="4.45666">
        <ele>352</ele>
        <time>2024-03-17T09:25:15Z</time>
      </trkpt>
      <trkpt lat="49.96022" lon="4.45663">
        <ele>351.8</ele>
        <time>2024-03-17T09:25:16Z</time>
      </trkpt>
      <trkpt lat="49.96026" lon="4.4566">
        <ele>352.2</ele>
        <time>2024-03-17T09:25:17Z</time>
      </trkpt>
      <trkpt lat="49.96031" lon="4.45657">
        <ele>352</ele>
        <time>2024-03-17T09:25:18Z</time>
      </trkpt>
      <trkpt lat="49.96036" lon="4.45653">
        <ele>352.2</ele>
        <time>2024-03-17T09:25:19Z</time>
      </trkpt>
      <trkpt lat="49.96041" lon="4.4565">
        <ele>352.4</ele>
        <time>2024-03-17T09:25:20Z</time>
      </trkpt>
      <trkpt lat="49.96046" lon="4.45647">
        <ele>352.6</ele>
        <time>2024-03-17T09:25:21Z</time>
      </trkpt>
      <trkpt lat="49.96051" lon="4.45644">
        <ele>352.6</ele>
        <time>2024-03-17T09:25:22Z</time>
      </trkpt>
      <trkpt lat="49.96055" lon="4.45641">
        <ele>352.6</ele>
        <time>2024-03-17T09:25:23Z</time>
      </trkpt>
      <trkpt lat="49.9606" lon="4.45638">
        <ele>353.2</ele>
        <time>2024-03-17T09:25:24Z</time>
      </trkpt>
      <trkpt lat="49.96065" lon="4.45635">
        <ele>353.4</ele>
        <time>2024-03-17T09:25:25Z</time>
      </trkpt>
      <trkpt lat="49.9607" lon="4.45632">
        <ele>353.8</ele>
        <time>2024-03-17T09:25:26Z</time>
      </trkpt>
      <trkpt lat="49.96074" lon="4.45628">
        <ele>354</ele>
        <time>2024-03-17T09:25:27Z</time>
      </trkpt>
      <trkpt lat="49.96079" lon="4.45625">
        <ele>354.2</ele>
        <time>2024-03-17T09:25:28Z</time>
      </trkpt>
      <trkpt lat="49.96083" lon="4.45621">
        <ele>354.6</ele>
        <time>2024-03-17T09:25:29Z</time>
      </trkpt>
      <trkpt lat="49.96088" lon="4.45617">
        <ele>354.8</ele>
        <time>2024-03-17T09:25:30Z</time>
      </trkpt>
      <trkpt lat="49.96092" lon="4.45613">
        <ele>355.2</ele>
        <time>2024-03-17T09:25:31Z</time>
      </trkpt>
      <trkpt lat="49.96097" lon="4.4561">
        <ele>355.2</ele>
        <time>2024-03-17T09:25:32Z</time>
      </trkpt>
      <trkpt lat="49.96101" lon="4.45606">
        <ele>355.2</ele>
        <time>2024-03-17T09:25:33Z</time>
      </trkpt>
      <trkpt lat="49.96106" lon="4.45602">
        <ele>355.4</ele>
        <time>2024-03-17T09:25:34Z</time>
      </trkpt>
      <trkpt lat="49.96111" lon="4.45599">
        <ele>355.4</ele>
        <time>2024-03-17T09:25:35Z</time>
      </trkpt>
      <trkpt lat="49.96115" lon="4.45595">
        <ele>355.6</ele>
        <time>2024-03-17T09:25:36Z</time>
      </trkpt>
      <trkpt lat="49.9612" lon="4.45591">
        <ele>356</ele>
        <time>2024-03-17T09:25:37Z</time>
      </trkpt>
      <trkpt lat="49.96124" lon="4.45587">
        <ele>356.2</ele>
        <time>2024-03-17T09:25:38Z</time>
      </trkpt>
      <trkpt lat="49.96129" lon="4.45583">
        <ele>356.2</ele>
        <time>2024-03-17T09:25:39Z</time>
      </trkpt>
      <trkpt lat="49.96133" lon="4.45579">
        <ele>356.4</ele>
        <time>2024-03-17T09:25:40Z</time>
      </trkpt>
      <trkpt lat="49.96138" lon="4.45575">
        <ele>356.6</ele>
        <time>2024-03-17T09:25:41Z</time>
      </trkpt>
      <trkpt lat="49.96142" lon="4.45571">
        <ele>356.6</ele>
        <time>2024-03-17T09:25:42Z</time>
      </trkpt>
      <trkpt lat="49.96146" lon="4.45567">
        <ele>356.8</ele>
        <time>2024-03-17T09:25:43Z</time>
      </trkpt>
      <trkpt lat="49.96151" lon="4.45563">
        <ele>356.8</ele>
        <time>2024-03-17T09:25:44Z</time>
      </trkpt>
      <trkpt lat="49.96155" lon="4.45558">
        <ele>357.2</ele>
        <time>2024-03-17T09:25:45Z</time>
      </trkpt>
      <trkpt lat="49.96159" lon="4.45553">
        <ele>357.2</ele>
        <time>2024-03-17T09:25:46Z</time>
      </trkpt>
      <trkpt lat="49.96163" lon="4.45548">
        <ele>357.4</ele>
        <time>2024-03-17T09:25:47Z</time>
      </trkpt>
      <trkpt lat="49.96167" lon="4.45544">
        <ele>357.4</ele>
        <time>2024-03-17T09:25:48Z</time>
      </trkpt>
      <trkpt lat="49.9617" lon="4.45538">
        <ele>357.6</ele>
        <time>2024-03-17T09:25:49Z</time>
      </trkpt>
      <trkpt lat="49.96174" lon="4.45533">
        <ele>357.4</ele>
        <time>2024-03-17T09:25:50Z</time>
      </trkpt>
      <trkpt lat="49.96177" lon="4.45528">
        <ele>357.4</ele>
        <time>2024-03-17T09:25:51Z</time>
      </trkpt>
      <trkpt lat="49.9618" lon="4.45523">
        <ele>357.6</ele>
        <time>2024-03-17T09:25:52Z</time>
      </trkpt>
      <trkpt lat="49.96183" lon="4.45518">
        <ele>357.8</ele>
        <time>2024-03-17T09:25:53Z</time>
      </trkpt>
      <trkpt lat="49.96185" lon="4.45513">
        <ele>357.8</ele>
        <time>2024-03-17T09:25:54Z</time>
      </trkpt>
      <trkpt lat="49.96188" lon="4.45508">
        <ele>357.8</ele>
        <time>2024-03-17T09:25:55Z</time>
      </trkpt>
      <trkpt lat="49.9619" lon="4.45502">
        <ele>358.2</ele>
        <time>2024-03-17T09:25:56Z</time>
      </trkpt>
      <trkpt lat="49.96193" lon="4.45497">
        <ele>358.2</ele>
        <time>2024-03-17T09:25:57Z</time>
      </trkpt>
      <trkpt lat="49.96195" lon="4.45493">
        <ele>358.4</ele>
        <time>2024-03-17T09:25:58Z</time>
      </trkpt>
      <trkpt lat="49.96197" lon="4.4549">
        <ele>358.4</ele>
        <time>2024-03-17T09:25:59Z</time>
      </trkpt>
      <trkpt lat="49.962" lon="4.45488">
        <ele>358.6</ele>
        <time>2024-03-17T09:26:00Z</time>
      </trkpt>
      <trkpt lat="49.96202" lon="4.45486">
        <ele>358.8</ele>
        <time>2024-03-17T09:26:01Z</time>
      </trkpt>
      <trkpt lat="49.96205" lon="4.45485">
        <ele>358.8</ele>
        <time>2024-03-17T09:26:02Z</time>
      </trkpt>
      <trkpt lat="49.96207" lon="4.45485">
        <ele>359</ele>
        <time>2024-03-17T09:26:03Z</time>
      </trkpt>
      <trkpt lat="49.96211" lon="4.45487">
        <ele>359.2</ele>
        <time>2024-03-17T09:26:04Z</time>
      </trkpt>
      <trkpt lat="49.96215" lon="4.45489">
        <ele>359.6</ele>
        <time>2024-03-17T09:26:05Z</time>
      </trkpt>
      <trkpt lat="49.96219" lon="4.45492">
        <ele>359.8</ele>
        <time>2024-03-17T09:26:06Z</time>
      </trkpt>
      <trkpt lat="49.96223" lon="4.45495">
        <ele>360</ele>
        <time>2024-03-17T09:26:07Z</time>
      </trkpt>
      <trkpt lat="49.96227" lon="4.45499">
        <ele>360.6</ele>
        <time>2024-03-17T09:26:08Z</time>
      </trkpt>
      <trkpt lat="49.96232" lon="4.45504">
        <ele>361</ele>
        <time>2024-03-17T09:26:09Z</time>
      </trkpt>
      <trkpt lat="49.96236" lon="4.45509">
        <ele>361</ele>
        <time>2024-03-17T09:26:10Z</time>
      </trkpt>
      <trkpt lat="49.9624" lon="4.45515">
        <ele>361.2</ele>
        <time>2024-03-17T09:26:11Z</time>
      </trkpt>
      <trkpt lat="49.96244" lon="4.4552">
        <ele>361.6</ele>
        <time>2024-03-17T09:26:12Z</time>
      </trkpt>
      <trkpt lat="49.96249" lon="4.45526">
        <ele>361.6</ele>
        <time>2024-03-17T09:26:13Z</time>
      </trkpt>
      <trkpt lat="49.96253" lon="4.45532">
        <ele>361.6</ele>
        <time>2024-03-17T09:26:14Z</time>
      </trkpt>
      <trkpt lat="49.96257" lon="4.45538">
        <ele>361.8</ele>
        <time>2024-03-17T09:26:15Z</time>
      </trkpt>
      <trkpt lat="49.96261" lon="4.45545">
        <ele>361.8</ele>
        <time>2024-03-17T09:26:16Z</time>
      </trkpt>
      <trkpt lat="49.96265" lon="4.45552">
        <ele>361.8</ele>
        <time>2024-03-17T09:26:17Z</time>
      </trkpt>
      <trkpt lat="49.96269" lon="4.4556">
        <ele>361.8</ele>
        <time>2024-03-17T09:26:18Z</time>
      </trkpt>
      <trkpt lat="49.96273" lon="4.45568">
        <ele>361.8</ele>
        <time>2024-03-17T09:26:19Z</time>
      </trkpt>
      <trkpt lat="49.96277" lon="4.45575">
        <ele>361.8</ele>
        <time>2024-03-17T09:26:20Z</time>
      </trkpt>
      <trkpt lat="49.96281" lon="4.45583">
        <ele>361.8</ele>
        <time>2024-03-17T09:26:21Z</time>
      </trkpt>
      <trkpt lat="49.96285" lon="4.45591">
        <ele>361.8</ele>
        <time>2024-03-17T09:26:22Z</time>
      </trkpt>
      <trkpt lat="49.96289" lon="4.45599">
        <ele>361.6</ele>
        <time>2024-03-17T09:26:23Z</time>
      </trkpt>
      <trkpt lat="49.96293" lon="4.45608">
        <ele>361.6</ele>
        <time>2024-03-17T09:26:24Z</time>
      </trkpt>
      <trkpt lat="49.96297" lon="4.45616">
        <ele>361.6</ele>
        <time>2024-03-17T09:26:25Z</time>
      </trkpt>
      <trkpt lat="49.963" lon="4.45625">
        <ele>361.6</ele>
        <time>2024-03-17T09:26:26Z</time>
      </trkpt>
      <trkpt lat="49.96303" lon="4.45634">
        <ele>361.6</ele>
        <time>2024-03-17T09:26:27Z</time>
      </trkpt>
      <trkpt lat="49.96306" lon="4.45643">
        <ele>361.4</ele>
        <time>2024-03-17T09:26:28Z</time>
      </trkpt>
      <trkpt lat="49.96309" lon="4.45653">
        <ele>361.6</ele>
        <time>2024-03-17T09:26:29Z</time>
      </trkpt>
      <trkpt lat="49.96311" lon="4.45663">
        <ele>361.2</ele>
        <time>2024-03-17T09:26:30Z</time>
      </trkpt>
      <trkpt lat="49.96313" lon="4.45674">
        <ele>361.2</ele>
        <time>2024-03-17T09:26:31Z</time>
      </trkpt>
      <trkpt lat="49.96314" lon="4.45684">
        <ele>361</ele>
        <time>2024-03-17T09:26:32Z</time>
      </trkpt>
      <trkpt lat="49.96316" lon="4.45695">
        <ele>360.8</ele>
        <time>2024-03-17T09:26:33Z</time>
      </trkpt>
      <trkpt lat="49.96317" lon="4.45705">
        <ele>360.8</ele>
        <time>2024-03-17T09:26:34Z</time>
      </trkpt>
      <trkpt lat="49.96318" lon="4.45716">
        <ele>360.6</ele>
        <time>2024-03-17T09:26:35Z</time>
      </trkpt>
      <trkpt lat="49.96319" lon="4.45726">
        <ele>360.6</ele>
        <time>2024-03-17T09:26:36Z</time>
      </trkpt>
      <trkpt lat="49.9632" lon="4.45737">
        <ele>360.4</ele>
        <time>2024-03-17T09:26:37Z</time>
      </trkpt>
      <trkpt lat="49.96321" lon="4.45747">
        <ele>360.4</ele>
        <time>2024-03-17T09:26:38Z</time>
      </trkpt>
      <trkpt lat="49.96322" lon="4.45758">
        <ele>360.2</ele>
        <time>2024-03-17T09:26:39Z</time>
      </trkpt>
      <trkpt lat="49.96323" lon="4.45769">
        <ele>360.2</ele>
        <time>2024-03-17T09:26:40Z</time>
      </trkpt>
      <trkpt lat="49.96325" lon="4.45779">
        <ele>360.2</ele>
        <time>2024-03-17T09:26:41Z</time>
      </trkpt>
      <trkpt lat="49.96326" lon="4.4579">
        <ele>360</ele>
        <time>2024-03-17T09:26:42Z</time>
      </trkpt>
      <trkpt lat="49.96327" lon="4.458">
        <ele>360.2</ele>
        <time>2024-03-17T09:26:43Z</time>
      </trkpt>
      <trkpt lat="49.96328" lon="4.45811">
        <ele>360</ele>
        <time>2024-03-17T09:26:44Z</time>
      </trkpt>
      <trkpt lat="49.96329" lon="4.45821">
        <ele>360</ele>
        <time>2024-03-17T09:26:45Z</time>
      </trkpt>
      <trkpt lat="49.9633" lon="4.45832">
        <ele>360</ele>
        <time>2024-03-17T09:26:46Z</time>
      </trkpt>
      <trkpt lat="49.96331" lon="4.45842">
        <ele>359.8</ele>
        <time>2024-03-17T09:26:47Z</time>
      </trkpt>
      <trkpt lat="49.96332" lon="4.45852">
        <ele>359.6</ele>
        <time>2024-03-17T09:26:48Z</time>
      </trkpt>
      <trkpt lat="49.96333" lon="4.45863">
        <ele>359.8</ele>
        <time>2024-03-17T09:26:49Z</time>
      </trkpt>
      <trkpt lat="49.96334" lon="4.45873">
        <ele>359.4</ele>
        <time>2024-03-17T09:26:50Z</time>
      </trkpt>
      <trkpt lat="49.96335" lon="4.45883">
        <ele>359.6</ele>
        <time>2024-03-17T09:26:51Z</time>
      </trkpt>
      <trkpt lat="49.96336" lon="4.45893">
        <ele>359.4</ele>
        <time>2024-03-17T09:26:52Z</time>
      </trkpt>
      <trkpt lat="49.96337" lon="4.45902">
        <ele>359.4</ele>
        <time>2024-03-17T09:26:53Z</time>
      </trkpt>
      <trkpt lat="49.96339" lon="4.45912">
        <ele>359.6</ele>
        <time>2024-03-17T09:26:54Z</time>
      </trkpt>
      <trkpt lat="49.9634" lon="4.45922">
        <ele>359.6</ele>
        <time>2024-03-17T09:26:55Z</time>
      </trkpt>
      <trkpt lat="49.96341" lon="4.45931">
        <ele>359.6</ele>
        <time>2024-03-17T09:26:56Z</time>
      </trkpt>
      <trkpt lat="49.96342" lon="4.4594">
        <ele>359.6</ele>
        <time>2024-03-17T09:26:57Z</time>
      </trkpt>
      <trkpt lat="49.96342" lon="4.4595">
        <ele>359.6</ele>
        <time>2024-03-17T09:26:58Z</time>
      </trkpt>
      <trkpt lat="49.96343" lon="4.45959">
        <ele>359.8</ele>
        <time>2024-03-17T09:26:59Z</time>
      </trkpt>
      <trkpt lat="49.96344" lon="4.45968">
        <ele>359.8</ele>
        <time>2024-03-17T09:27:00Z</time>
      </trkpt>
      <trkpt lat="49.96345" lon="4.45977">
        <ele>360.2</ele>
        <time>2024-03-17T09:27:01Z</time>
      </trkpt>
      <trkpt lat="49.96346" lon="4.45987">
        <ele>360.2</ele>
        <time>2024-03-17T09:27:02Z</time>
      </trkpt>
      <trkpt lat="49.96347" lon="4.45996">
        <ele>360.2</ele>
        <time>2024-03-17T09:27:03Z</time>
      </trkpt>
      <trkpt lat="49.96348" lon="4.46005">
        <ele>360.4</ele>
        <time>2024-03-17T09:27:04Z</time>
      </trkpt>
      <trkpt lat="49.96349" lon="4.46014">
        <ele>360.4</ele>
        <time>2024-03-17T09:27:05Z</time>
      </trkpt>
      <trkpt lat="49.9635" lon="4.46023">
        <ele>360.4</ele>
        <time>2024-03-17T09:27:06Z</time>
      </trkpt>
      <trkpt lat="49.96351" lon="4.46032">
        <ele>360.6</ele>
        <time>2024-03-17T09:27:07Z</time>
      </trkpt>
      <trkpt lat="49.96352" lon="4.46041">
        <ele>361</ele>
        <time>2024-03-17T09:27:08Z</time>
      </trkpt>
      <trkpt lat="49.96353" lon="4.46049">
        <ele>361.4</ele>
        <time>2024-03-17T09:27:09Z</time>
      </trkpt>
      <trkpt lat="49.96354" lon="4.46058">
        <ele>361.4</ele>
        <time>2024-03-17T09:27:10Z</time>
      </trkpt>
      <trkpt lat="49.96355" lon="4.46067">
        <ele>361.4</ele>
        <time>2024-03-17T09:27:11Z</time>
      </trkpt>
      <trkpt lat="49.96356" lon="4.46075">
        <ele>361.8</ele>
        <time>2024-03-17T09:27:12Z</time>
      </trkpt>
      <trkpt lat="49.96357" lon="4.46084">
        <ele>361.8</ele>
        <time>2024-03-17T09:27:13Z</time>
      </trkpt>
      <trkpt lat="49.96358" lon="4.46093">
        <ele>361.8</ele>
        <time>2024-03-17T09:27:14Z</time>
      </trkpt>
      <trkpt lat="49.9636" lon="4.46101">
        <ele>362</ele>
        <time>2024-03-17T09:27:15Z</time>
      </trkpt>
      <trkpt lat="49.96361" lon="4.4611">
        <ele>362.2</ele>
        <time>2024-03-17T09:27:16Z</time>
      </trkpt>
      <trkpt lat="49.96362" lon="4.46119">
        <ele>362.2</ele>
        <time>2024-03-17T09:27:17Z</time>
      </trkpt>
      <trkpt lat="49.96364" lon="4.46128">
        <ele>362.4</ele>
        <time>2024-03-17T09:27:18Z</time>
      </trkpt>
      <trkpt lat="49.96366" lon="4.46137">
        <ele>362.4</ele>
        <time>2024-03-17T09:27:19Z</time>
      </trkpt>
      <trkpt lat="49.96368" lon="4.46146">
        <ele>362.6</ele>
        <time>2024-03-17T09:27:20Z</time>
      </trkpt>
      <trkpt lat="49.9637" lon="4.46154">
        <ele>362.6</ele>
        <time>2024-03-17T09:27:21Z</time>
      </trkpt>
      <trkpt lat="49.96372" lon="4.46163">
        <ele>362.6</ele>
        <time>2024-03-17T09:27:22Z</time>
      </trkpt>
      <trkpt lat="49.96375" lon="4.46171">
        <ele>362.8</ele>
        <time>2024-03-17T09:27:23Z</time>
      </trkpt>
      <trkpt lat="49.96377" lon="4.46179">
        <ele>362.8</ele>
        <time>2024-03-17T09:27:24Z</time>
      </trkpt>
      <trkpt lat="49.9638" lon="4.46187">
        <ele>362.8</ele>
        <time>2024-03-17T09:27:25Z</time>
      </trkpt>
      <trkpt lat="49.96383" lon="4.46195">
        <ele>363</ele>
        <time>2024-03-17T09:27:26Z</time>
      </trkpt>
      <trkpt lat="49.96386" lon="4.46203">
        <ele>363</ele>
        <time>2024-03-17T09:27:27Z</time>
      </trkpt>
      <trkpt lat="49.9639" lon="4.4621">
        <ele>363</ele>
        <time>2024-03-17T09:27:28Z</time>
      </trkpt>
      <trkpt lat="49.96393" lon="4.46218">
        <ele>363.2</ele>
        <time>2024-03-17T09:27:29Z</time>
      </trkpt>
      <trkpt lat="49.96397" lon="4.46226">
        <ele>363.2</ele>
        <time>2024-03-17T09:27:30Z</time>
      </trkpt>
      <trkpt lat="49.964" lon="4.46234">
        <ele>363.2</ele>
        <time>2024-03-17T09:27:31Z</time>
      </trkpt>
      <trkpt lat="49.96403" lon="4.46242">
        <ele>363.4</ele>
        <time>2024-03-17T09:27:32Z</time>
      </trkpt>
      <trkpt lat="49.96406" lon="4.4625">
        <ele>363.4</ele>
        <time>2024-03-17T09:27:33Z</time>
      </trkpt>
      <trkpt lat="49.9641" lon="4.46257">
        <ele>363.6</ele>
        <time>2024-03-17T09:27:34Z</time>
      </trkpt>
      <trkpt lat="49.96413" lon="4.46265">
        <ele>363.6</ele>
        <time>2024-03-17T09:27:35Z</time>
      </trkpt>
      <trkpt lat="49.96417" lon="4.46273">
        <ele>363.8</ele>
        <time>2024-03-17T09:27:36Z</time>
      </trkpt>
      <trkpt lat="49.9642" lon="4.46281">
        <ele>364</ele>
        <time>2024-03-17T09:27:37Z</time>
      </trkpt>
      <trkpt lat="49.96423" lon="4.46288">
        <ele>364.2</ele>
        <time>2024-03-17T09:27:38Z</time>
      </trkpt>
      <trkpt lat="49.96427" lon="4.46296">
        <ele>364.4</ele>
        <time>2024-03-17T09:27:39Z</time>
      </trkpt>
      <trkpt lat="49.9643" lon="4.46304">
        <ele>364.4</ele>
        <time>2024-03-17T09:27:40Z</time>
      </trkpt>
      <trkpt lat="49.96434" lon="4.46312">
        <ele>364.4</ele>
        <time>2024-03-17T09:27:41Z</time>
      </trkpt>
      <trkpt lat="49.96437" lon="4.4632">
        <ele>364.6</ele>
        <time>2024-03-17T09:27:42Z</time>
      </trkpt>
      <trkpt lat="49.9644" lon="4.46328">
        <ele>364.6</ele>
        <time>2024-03-17T09:27:43Z</time>
      </trkpt>
      <trkpt lat="49.96444" lon="4.46336">
        <ele>364.8</ele>
        <time>2024-03-17T09:27:44Z</time>
      </trkpt>
      <trkpt lat="49.96447" lon="4.46344">
        <ele>364.8</ele>
        <time>2024-03-17T09:27:45Z</time>
      </trkpt>
      <trkpt lat="49.96451" lon="4.46352">
        <ele>365</ele>
        <time>2024-03-17T09:27:46Z</time>
      </trkpt>
      <trkpt lat="49.96455" lon="4.46359">
        <ele>365.2</ele>
        <time>2024-03-17T09:27:47Z</time>
      </trkpt>
      <trkpt lat="49.96459" lon="4.46367">
        <ele>365.4</ele>
        <time>2024-03-17T09:27:48Z</time>
      </trkpt>
      <trkpt lat="49.96462" lon="4.46375">
        <ele>365.6</ele>
        <time>2024-03-17T09:27:49Z</time>
      </trkpt>
      <trkpt lat="49.96466" lon="4.46383">
        <ele>365.6</ele>
        <time>2024-03-17T09:27:50Z</time>
      </trkpt>
      <trkpt lat="49.9647" lon="4.4639">
        <ele>365.8</ele>
        <time>2024-03-17T09:27:51Z</time>
      </trkpt>
      <trkpt lat="49.96474" lon="4.46397">
        <ele>365.8</ele>
        <time>2024-03-17T09:27:52Z</time>
      </trkpt>
      <trkpt lat="49.96478" lon="4.46404">
        <ele>366.2</ele>
        <time>2024-03-17T09:27:53Z</time>
      </trkpt>
      <trkpt lat="49.96483" lon="4.46411">
        <ele>366.2</ele>
        <time>2024-03-17T09:27:54Z</time>
      </trkpt>
      <trkpt lat="49.96487" lon="4.46417">
        <ele>366.4</ele>
        <time>2024-03-17T09:27:55Z</time>
      </trkpt>
      <trkpt lat="49.96491" lon="4.46424">
        <ele>366.4</ele>
        <time>2024-03-17T09:27:56Z</time>
      </trkpt>
      <trkpt lat="49.96496" lon="4.4643">
        <ele>366.6</ele>
        <time>2024-03-17T09:27:57Z</time>
      </trkpt>
      <trkpt lat="49.965" lon="4.46436">
        <ele>367.2</ele>
        <time>2024-03-17T09:27:58Z</time>
      </trkpt>
      <trkpt lat="49.96504" lon="4.46443">
        <ele>367.8</ele>
        <time>2024-03-17T09:27:59Z</time>
      </trkpt>
      <trkpt lat="49.96509" lon="4.46449">
        <ele>368</ele>
        <time>2024-03-17T09:28:00Z</time>
      </trkpt>
      <trkpt lat="49.96513" lon="4.46456">
        <ele>368.2</ele>
        <time>2024-03-17T09:28:01Z</time>
      </trkpt>
      <trkpt lat="49.96517" lon="4.46463">
        <ele>368.4</ele>
        <time>2024-03-17T09:28:02Z</time>
      </trkpt>
      <trkpt lat="49.96522" lon="4.46469">
        <ele>368.6</ele>
        <time>2024-03-17T09:28:03Z</time>
      </trkpt>
      <trkpt lat="49.96527" lon="4.46476">
        <ele>368.8</ele>
        <time>2024-03-17T09:28:04Z</time>
      </trkpt>
      <trkpt lat="49.96531" lon="4.46483">
        <ele>369</ele>
        <time>2024-03-17T09:28:05Z</time>
      </trkpt>
      <trkpt lat="49.96536" lon="4.4649">
        <ele>369</ele>
        <time>2024-03-17T09:28:06Z</time>
      </trkpt>
      <trkpt lat="49.9654" lon="4.46497">
        <ele>368.8</ele>
        <time>2024-03-17T09:28:07Z</time>
      </trkpt>
      <trkpt lat="49.96545" lon="4.46504">
        <ele>369</ele>
        <time>2024-03-17T09:28:08Z</time>
      </trkpt>
      <trkpt lat="49.96549" lon="4.46511">
        <ele>369</ele>
        <time>2024-03-17T09:28:09Z</time>
      </trkpt>
      <trkpt lat="49.96553" lon="4.46517">
        <ele>369</ele>
        <time>2024-03-17T09:28:10Z</time>
      </trkpt>
      <trkpt lat="49.96558" lon="4.46524">
        <ele>369</ele>
        <time>2024-03-17T09:28:11Z</time>
      </trkpt>
      <trkpt lat="49.96562" lon="4.46531">
        <ele>369.2</ele>
        <time>2024-03-17T09:28:12Z</time>
      </trkpt>
      <trkpt lat="49.96566" lon="4.46539">
        <ele>369.6</ele>
        <time>2024-03-17T09:28:13Z</time>
      </trkpt>
      <trkpt lat="49.9657" lon="4.46546">
        <ele>369.6</ele>
        <time>2024-03-17T09:28:14Z</time>
      </trkpt>
      <trkpt lat="49.96574" lon="4.46554">
        <ele>369.6</ele>
        <time>2024-03-17T09:28:15Z</time>
      </trkpt>
      <trkpt lat="49.96578" lon="4.46562">
        <ele>369.8</ele>
        <time>2024-03-17T09:28:16Z</time>
      </trkpt>
      <trkpt lat="49.96582" lon="4.4657">
        <ele>370</ele>
        <time>2024-03-17T09:28:17Z</time>
      </trkpt>
      <trkpt lat="49.96586" lon="4.46578">
        <ele>370.2</ele>
        <time>2024-03-17T09:28:18Z</time>
      </trkpt>
      <trkpt lat="49.9659" lon="4.46587">
        <ele>370.2</ele>
        <time>2024-03-17T09:28:19Z</time>
      </trkpt>
      <trkpt lat="49.96594" lon="4.46595">
        <ele>370.2</ele>
        <time>2024-03-17T09:28:20Z</time>
      </trkpt>
      <trkpt lat="49.96598" lon="4.46604">
        <ele>370.2</ele>
        <time>2024-03-17T09:28:21Z</time>
      </trkpt>
      <trkpt lat="49.96601" lon="4.46613">
        <ele>370.6</ele>
        <time>2024-03-17T09:28:22Z</time>
      </trkpt>
      <trkpt lat="49.96604" lon="4.46622">
        <ele>370.6</ele>
        <time>2024-03-17T09:28:23Z</time>
      </trkpt>
      <trkpt lat="49.96607" lon="4.46632">
        <ele>370.6</ele>
        <time>2024-03-17T09:28:24Z</time>
      </trkpt>
      <trkpt lat="49.9661" lon="4.46641">
        <ele>370.6</ele>
        <time>2024-03-17T09:28:25Z</time>
      </trkpt>
      <trkpt lat="49.96613" lon="4.4665">
        <ele>370.6</ele>
        <time>2024-03-17T09:28:26Z</time>
      </trkpt>
      <trkpt lat="49.96616" lon="4.4666">
        <ele>370.8</ele>
        <time>2024-03-17T09:28:27Z</time>
      </trkpt>
      <trkpt lat="49.96619" lon="4.46669">
        <ele>370.8</ele>
        <time>2024-03-17T09:28:28Z</time>
      </trkpt>
      <trkpt lat="49.96622" lon="4.46678">
        <ele>371</ele>
        <time>2024-03-17T09:28:29Z</time>
      </trkpt>
      <trkpt lat="49.96624" lon="4.46688">
        <ele>371</ele>
        <time>2024-03-17T09:28:30Z</time>
      </trkpt>
      <trkpt lat="49.96627" lon="4.46697">
        <ele>371</ele>
        <time>2024-03-17T09:28:31Z</time>
      </trkpt>
      <trkpt lat="49.96629" lon="4.46706">
        <ele>371</ele>
        <time>2024-03-17T09:28:32Z</time>
      </trkpt>
      <trkpt lat="49.96631" lon="4.46715">
        <ele>371</ele>
        <time>2024-03-17T09:28:33Z</time>
      </trkpt>
      <trkpt lat="49.96633" lon="4.46724">
        <ele>371</ele>
        <time>2024-03-17T09:28:34Z</time>
      </trkpt>
      <trkpt lat="49.96635" lon="4.46733">
        <ele>371.2</ele>
        <time>2024-03-17T09:28:35Z</time>
      </trkpt>
      <trkpt lat="49.96637" lon="4.46741">
        <ele>371.2</ele>
        <time>2024-03-17T09:28:36Z</time>
      </trkpt>
      <trkpt lat="49.96639" lon="4.46749">
        <ele>371.2</ele>
        <time>2024-03-17T09:28:37Z</time>
      </trkpt>
      <trkpt lat="49.96641" lon="4.46758">
        <ele>371.2</ele>
        <time>2024-03-17T09:28:38Z</time>
      </trkpt>
      <trkpt lat="49.96643" lon="4.46766">
        <ele>371.2</ele>
        <time>2024-03-17T09:28:39Z</time>
      </trkpt>
      <trkpt lat="49.96645" lon="4.46775">
        <ele>371.2</ele>
        <time>2024-03-17T09:28:40Z</time>
      </trkpt>
      <trkpt lat="49.96647" lon="4.46784">
        <ele>371.2</ele>
        <time>2024-03-17T09:28:41Z</time>
      </trkpt>
      <trkpt lat="49.96649" lon="4.46793">
        <ele>371.2</ele>
        <time>2024-03-17T09:28:42Z</time>
      </trkpt>
      <trkpt lat="49.96652" lon="4.46802">
        <ele>371.2</ele>
        <time>2024-03-17T09:28:43Z</time>
      </trkpt>
      <trkpt lat="49.96654" lon="4.46811">
        <ele>371</ele>
        <time>2024-03-17T09:28:44Z</time>
      </trkpt>
      <trkpt lat="49.96656" lon="4.4682">
        <ele>371.2</ele>
        <time>2024-03-17T09:28:45Z</time>
      </trkpt>
      <trkpt lat="49.96658" lon="4.46829">
        <ele>371.2</ele>
        <time>2024-03-17T09:28:46Z</time>
      </trkpt>
      <trkpt lat="49.9666" lon="4.46838">
        <ele>371</ele>
        <time>2024-03-17T09:28:47Z</time>
      </trkpt>
      <trkpt lat="49.96662" lon="4.46847">
        <ele>371</ele>
        <time>2024-03-17T09:28:48Z</time>
      </trkpt>
      <trkpt lat="49.96664" lon="4.46857">
        <ele>371</ele>
        <time>2024-03-17T09:28:49Z</time>
      </trkpt>
      <trkpt lat="49.96667" lon="4.46867">
        <ele>371.2</ele>
        <time>2024-03-17T09:28:50Z</time>
      </trkpt>
      <trkpt lat="49.96669" lon="4.46877">
        <ele>371</ele>
        <time>2024-03-17T09:28:51Z</time>
      </trkpt>
      <trkpt lat="49.96672" lon="4.46888">
        <ele>370.6</ele>
        <time>2024-03-17T09:28:52Z</time>
      </trkpt>
      <trkpt lat="49.96674" lon="4.46898">
        <ele>370.6</ele>
        <time>2024-03-17T09:28:53Z</time>
      </trkpt>
      <trkpt lat="49.96676" lon="4.46909">
        <ele>370.4</ele>
        <time>2024-03-17T09:28:54Z</time>
      </trkpt>
      <trkpt lat="49.96678" lon="4.46919">
        <ele>370.2</ele>
        <time>2024-03-17T09:28:55Z</time>
      </trkpt>
      <trkpt lat="49.9668" lon="4.46929">
        <ele>370.2</ele>
        <time>2024-03-17T09:28:56Z</time>
      </trkpt>
      <trkpt lat="49.96683" lon="4.46939">
        <ele>370.2</ele>
        <time>2024-03-17T09:28:57Z</time>
      </trkpt>
      <trkpt lat="49.96685" lon="4.46949">
        <ele>370.2</ele>
        <time>2024-03-17T09:28:58Z</time>
      </trkpt>
      <trkpt lat="49.96688" lon="4.4696">
        <ele>370.2</ele>
        <time>2024-03-17T09:28:59Z</time>
      </trkpt>
      <trkpt lat="49.9669" lon="4.4697">
        <ele>370.2</ele>
        <time>2024-03-17T09:29:00Z</time>
      </trkpt>
      <trkpt lat="49.96693" lon="4.4698">
        <ele>370.2</ele>
        <time>2024-03-17T09:29:01Z</time>
      </trkpt>
      <trkpt lat="49.96696" lon="4.46991">
        <ele>370.2</ele>
        <time>2024-03-17T09:29:02Z</time>
      </trkpt>
      <trkpt lat="49.96699" lon="4.47002">
        <ele>370.4</ele>
        <time>2024-03-17T09:29:03Z</time>
      </trkpt>
      <trkpt lat="49.96702" lon="4.47012">
        <ele>370.2</ele>
        <time>2024-03-17T09:29:04Z</time>
      </trkpt>
      <trkpt lat="49.96704" lon="4.47023">
        <ele>370.2</ele>
        <time>2024-03-17T09:29:05Z</time>
      </trkpt>
      <trkpt lat="49.96707" lon="4.47033">
        <ele>370.2</ele>
        <time>2024-03-17T09:29:06Z</time>
      </trkpt>
      <trkpt lat="49.9671" lon="4.47044">
        <ele>370.2</ele>
        <time>2024-03-17T09:29:07Z</time>
      </trkpt>
      <trkpt lat="49.96713" lon="4.47054">
        <ele>370.2</ele>
        <time>2024-03-17T09:29:08Z</time>
      </trkpt>
      <trkpt lat="49.96715" lon="4.47065">
        <ele>370.2</ele>
        <time>2024-03-17T09:29:09Z</time>
      </trkpt>
      <trkpt lat="49.96718" lon="4.47075">
        <ele>370.2</ele>
        <time>2024-03-17T09:29:10Z</time>
      </trkpt>
      <trkpt lat="49.96721" lon="4.47085">
        <ele>370</ele>
        <time>2024-03-17T09:29:11Z</time>
      </trkpt>
      <trkpt lat="49.96724" lon="4.47096">
        <ele>370</ele>
        <time>2024-03-17T09:29:12Z</time>
      </trkpt>
      <trkpt lat="49.96726" lon="4.47106">
        <ele>369.8</ele>
        <time>2024-03-17T09:29:13Z</time>
      </trkpt>
      <trkpt lat="49.96729" lon="4.47116">
        <ele>369.8</ele>
        <time>2024-03-17T09:29:14Z</time>
      </trkpt>
      <trkpt lat="49.96732" lon="4.47127">
        <ele>369.8</ele>
        <time>2024-03-17T09:29:15Z</time>
      </trkpt>
      <trkpt lat="49.96735" lon="4.47137">
        <ele>369.6</ele>
        <time>2024-03-17T09:29:16Z</time>
      </trkpt>
      <trkpt lat="49.96739" lon="4.47148">
        <ele>369.6</ele>
        <time>2024-03-17T09:29:17Z</time>
      </trkpt>
      <trkpt lat="49.96742" lon="4.47158">
        <ele>369.4</ele>
        <time>2024-03-17T09:29:18Z</time>
      </trkpt>
      <trkpt lat="49.96746" lon="4.47169">
        <ele>369.4</ele>
        <time>2024-03-17T09:29:19Z</time>
      </trkpt>
      <trkpt lat="49.96749" lon="4.47179">
        <ele>369.4</ele>
        <time>2024-03-17T09:29:20Z</time>
      </trkpt>
      <trkpt lat="49.96753" lon="4.47189">
        <ele>369.4</ele>
        <time>2024-03-17T09:29:21Z</time>
      </trkpt>
      <trkpt lat="49.96758" lon="4.47199">
        <ele>369.2</ele>
        <time>2024-03-17T09:29:22Z</time>
      </trkpt>
      <trkpt lat="49.96762" lon="4.47209">
        <ele>369.2</ele>
        <time>2024-03-17T09:29:23Z</time>
      </trkpt>
      <trkpt lat="49.96767" lon="4.47219">
        <ele>369.2</ele>
        <time>2024-03-17T09:29:24Z</time>
      </trkpt>
      <trkpt lat="49.96772" lon="4.47229">
        <ele>369.2</ele>
        <time>2024-03-17T09:29:25Z</time>
      </trkpt>
      <trkpt lat="49.96776" lon="4.47239">
        <ele>369.2</ele>
        <time>2024-03-17T09:29:26Z</time>
      </trkpt>
      <trkpt lat="49.96781" lon="4.47249">
        <ele>369.2</ele>
        <time>2024-03-17T09:29:27Z</time>
      </trkpt>
      <trkpt lat="49.96786" lon="4.47259">
        <ele>368.8</ele>
        <time>2024-03-17T09:29:28Z</time>
      </trkpt>
      <trkpt lat="49.96791" lon="4.47268">
        <ele>368.8</ele>
        <time>2024-03-17T09:29:29Z</time>
      </trkpt>
      <trkpt lat="49.96796" lon="4.47278">
        <ele>368.8</ele>
        <time>2024-03-17T09:29:30Z</time>
      </trkpt>
      <trkpt lat="49.96801" lon="4.47288">
        <ele>368.8</ele>
        <time>2024-03-17T09:29:31Z</time>
      </trkpt>
      <trkpt lat="49.96806" lon="4.47298">
        <ele>368.8</ele>
        <time>2024-03-17T09:29:32Z</time>
      </trkpt>
      <trkpt lat="49.96811" lon="4.47308">
        <ele>368.8</ele>
        <time>2024-03-17T09:29:33Z</time>
      </trkpt>
      <trkpt lat="49.96816" lon="4.47318">
        <ele>368.6</ele>
        <time>2024-03-17T09:29:34Z</time>
      </trkpt>
      <trkpt lat="49.96821" lon="4.47328">
        <ele>368.2</ele>
        <time>2024-03-17T09:29:35Z</time>
      </trkpt>
      <trkpt lat="49.96826" lon="4.47339">
        <ele>368.2</ele>
        <time>2024-03-17T09:29:36Z</time>
      </trkpt>
      <trkpt lat="49.96831" lon="4.47349">
        <ele>368</ele>
        <time>2024-03-17T09:29:37Z</time>
      </trkpt>
      <trkpt lat="49.96836" lon="4.4736">
        <ele>367.6</ele>
        <time>2024-03-17T09:29:38Z</time>
      </trkpt>
      <trkpt lat="49.96841" lon="4.4737">
        <ele>367.2</ele>
        <time>2024-03-17T09:29:39Z</time>
      </trkpt>
      <trkpt lat="49.96846" lon="4.47381">
        <ele>366.8</ele>
        <time>2024-03-17T09:29:40Z</time>
      </trkpt>
      <trkpt lat="49.96851" lon="4.47391">
        <ele>366.8</ele>
        <time>2024-03-17T09:29:41Z</time>
      </trkpt>
      <trkpt lat="49.96856" lon="4.47402">
        <ele>366.4</ele>
        <time>2024-03-17T09:29:42Z</time>
      </trkpt>
      <trkpt lat="49.96861" lon="4.47412">
        <ele>366.2</ele>
        <time>2024-03-17T09:29:43Z</time>
      </trkpt>
      <trkpt lat="49.96866" lon="4.47423">
        <ele>366</ele>
        <time>2024-03-17T09:29:44Z</time>
      </trkpt>
      <trkpt lat="49.96871" lon="4.47433">
        <ele>366</ele>
        <time>2024-03-17T09:29:45Z</time>
      </trkpt>
      <trkpt lat="49.96876" lon="4.47444">
        <ele>365.8</ele>
        <time>2024-03-17T09:29:46Z</time>
      </trkpt>
      <trkpt lat="49.96881" lon="4.47454">
        <ele>365.4</ele>
        <time>2024-03-17T09:29:47Z</time>
      </trkpt>
      <trkpt lat="49.96886" lon="4.47465">
        <ele>365.2</ele>
        <time>2024-03-17T09:29:48Z</time>
      </trkpt>
      <trkpt lat="49.96891" lon="4.47475">
        <ele>365.2</ele>
        <time>2024-03-17T09:29:49Z</time>
      </trkpt>
      <trkpt lat="49.96896" lon="4.47485">
        <ele>365</ele>
        <time>2024-03-17T09:29:50Z</time>
      </trkpt>
      <trkpt lat="49.96901" lon="4.47496">
        <ele>365</ele>
        <time>2024-03-17T09:29:51Z</time>
      </trkpt>
      <trkpt lat="49.96906" lon="4.47507">
        <ele>365</ele>
        <time>2024-03-17T09:29:52Z</time>
      </trkpt>
      <trkpt lat="49.96912" lon="4.47518">
        <ele>365</ele>
        <time>2024-03-17T09:29:53Z</time>
      </trkpt>
      <trkpt lat="49.96917" lon="4.47528">
        <ele>364.8</ele>
        <time>2024-03-17T09:29:54Z</time>
      </trkpt>
      <trkpt lat="49.96922" lon="4.47539">
        <ele>364.8</ele>
        <time>2024-03-17T09:29:55Z</time>
      </trkpt>
      <trkpt lat="49.96927" lon="4.4755">
        <ele>365</ele>
        <time>2024-03-17T09:29:56Z</time>
      </trkpt>
      <trkpt lat="49.96932" lon="4.47561">
        <ele>365</ele>
        <time>2024-03-17T09:29:57Z</time>
      </trkpt>
      <trkpt lat="49.96937" lon="4.47572">
        <ele>365</ele>
        <time>2024-03-17T09:29:58Z</time>
      </trkpt>
      <trkpt lat="49.96942" lon="4.47582">
        <ele>365</ele>
        <time>2024-03-17T09:29:59Z</time>
      </trkpt>
      <trkpt lat="49.96947" lon="4.47592">
        <ele>364.8</ele>
        <time>2024-03-17T09:30:00Z</time>
      </trkpt>
      <trkpt lat="49.96952" lon="4.47603">
        <ele>364.8</ele>
        <time>2024-03-17T09:30:01Z</time>
      </trkpt>
      <trkpt lat="49.96957" lon="4.47614">
        <ele>364.8</ele>
        <time>2024-03-17T09:30:02Z</time>
      </trkpt>
      <trkpt lat="49.96962" lon="4.47625">
        <ele>364.8</ele>
        <time>2024-03-17T09:30:03Z</time>
      </trkpt>
      <trkpt lat="49.96967" lon="4.47635">
        <ele>364.8</ele>
        <time>2024-03-17T09:30:04Z</time>
      </trkpt>
      <trkpt lat="49.96971" lon="4.47646">
        <ele>364.6</ele>
        <time>2024-03-17T09:30:05Z</time>
      </trkpt>
      <trkpt lat="49.96976" lon="4.47657">
        <ele>364.8</ele>
        <time>2024-03-17T09:30:06Z</time>
      </trkpt>
      <trkpt lat="49.96981" lon="4.47668">
        <ele>364.6</ele>
        <time>2024-03-17T09:30:07Z</time>
      </trkpt>
      <trkpt lat="49.96986" lon="4.47678">
        <ele>364.8</ele>
        <time>2024-03-17T09:30:08Z</time>
      </trkpt>
      <trkpt lat="49.96991" lon="4.47689">
        <ele>364.8</ele>
        <time>2024-03-17T09:30:09Z</time>
      </trkpt>
      <trkpt lat="49.96996" lon="4.477">
        <ele>364.6</ele>
        <time>2024-03-17T09:30:10Z</time>
      </trkpt>
      <trkpt lat="49.97001" lon="4.4771">
        <ele>364.8</ele>
        <time>2024-03-17T09:30:11Z</time>
      </trkpt>
      <trkpt lat="49.97006" lon="4.4772">
        <ele>364.6</ele>
        <time>2024-03-17T09:30:12Z</time>
      </trkpt>
      <trkpt lat="49.97011" lon="4.4773">
        <ele>364.6</ele>
        <time>2024-03-17T09:30:13Z</time>
      </trkpt>
      <trkpt lat="49.97015" lon="4.4774">
        <ele>364.8</ele>
        <time>2024-03-17T09:30:14Z</time>
      </trkpt>
      <trkpt lat="49.9702" lon="4.4775">
        <ele>364.6</ele>
        <time>2024-03-17T09:30:15Z</time>
      </trkpt>
      <trkpt lat="49.97025" lon="4.4776">
        <ele>364.8</ele>
        <time>2024-03-17T09:30:16Z</time>
      </trkpt>
      <trkpt lat="49.9703" lon="4.4777">
        <ele>364.6</ele>
        <time>2024-03-17T09:30:17Z</time>
      </trkpt>
      <trkpt lat="49.97036" lon="4.47779">
        <ele>364.6</ele>
        <time>2024-03-17T09:30:18Z</time>
      </trkpt>
      <trkpt lat="49.97042" lon="4.47788">
        <ele>364.6</ele>
        <time>2024-03-17T09:30:19Z</time>
      </trkpt>
      <trkpt lat="49.97048" lon="4.47796">
        <ele>364.8</ele>
        <time>2024-03-17T09:30:20Z</time>
      </trkpt>
      <trkpt lat="49.97054" lon="4.47804">
        <ele>364.6</ele>
        <time>2024-03-17T09:30:21Z</time>
      </trkpt>
      <trkpt lat="49.97059" lon="4.47811">
        <ele>364.8</ele>
        <time>2024-03-17T09:30:22Z</time>
      </trkpt>
      <trkpt lat="49.97065" lon="4.47818">
        <ele>364.8</ele>
        <time>2024-03-17T09:30:23Z</time>
      </trkpt>
      <trkpt lat="49.97071" lon="4.47825">
        <ele>365.4</ele>
        <time>2024-03-17T09:30:24Z</time>
      </trkpt>
      <trkpt lat="49.97077" lon="4.47832">
        <ele>365.4</ele>
        <time>2024-03-17T09:30:25Z</time>
      </trkpt>
      <trkpt lat="49.97083" lon="4.47838">
        <ele>365.8</ele>
        <time>2024-03-17T09:30:26Z</time>
      </trkpt>
      <trkpt lat="49.97089" lon="4.47844">
        <ele>365.8</ele>
        <time>2024-03-17T09:30:27Z</time>
      </trkpt>
      <trkpt lat="49.97095" lon="4.47849">
        <ele>366</ele>
        <time>2024-03-17T09:30:28Z</time>
      </trkpt>
      <trkpt lat="49.97101" lon="4.47855">
        <ele>366</ele>
        <time>2024-03-17T09:30:29Z</time>
      </trkpt>
      <trkpt lat="49.97106" lon="4.4786">
        <ele>366.2</ele>
        <time>2024-03-17T09:30:30Z</time>
      </trkpt>
      <trkpt lat="49.97112" lon="4.47865">
        <ele>366.2</ele>
        <time>2024-03-17T09:30:31Z</time>
      </trkpt>
      <trkpt lat="49.97118" lon="4.4787">
        <ele>366.4</ele>
        <time>2024-03-17T09:30:32Z</time>
      </trkpt>
      <trkpt lat="49.97125" lon="4.47875">
        <ele>366.4</ele>
        <time>2024-03-17T09:30:33Z</time>
      </trkpt>
      <trkpt lat="49.97131" lon="4.4788">
        <ele>366.6</ele>
        <time>2024-03-17T09:30:34Z</time>
      </trkpt>
      <trkpt lat="49.97137" lon="4.47885">
        <ele>366.6</ele>
        <time>2024-03-17T09:30:35Z</time>
      </trkpt>
      <trkpt lat="49.97143" lon="4.47889">
        <ele>366.8</ele>
        <time>2024-03-17T09:30:36Z</time>
      </trkpt>
      <trkpt lat="49.9715" lon="4.47894">
        <ele>366.8</ele>
        <time>2024-03-17T09:30:37Z</time>
      </trkpt>
      <trkpt lat="49.97156" lon="4.47899">
        <ele>367</ele>
        <time>2024-03-17T09:30:38Z</time>
      </trkpt>
      <trkpt lat="49.97163" lon="4.47904">
        <ele>367.4</ele>
        <time>2024-03-17T09:30:39Z</time>
      </trkpt>
      <trkpt lat="49.97169" lon="4.47909">
        <ele>367.8</ele>
        <time>2024-03-17T09:30:40Z</time>
      </trkpt>
      <trkpt lat="49.97176" lon="4.47914">
        <ele>368.8</ele>
        <time>2024-03-17T09:30:41Z</time>
      </trkpt>
      <trkpt lat="49.97182" lon="4.47919">
        <ele>369</ele>
        <time>2024-03-17T09:30:42Z</time>
      </trkpt>
      <trkpt lat="49.97189" lon="4.47923">
        <ele>369</ele>
        <time>2024-03-17T09:30:43Z</time>
      </trkpt>
      <trkpt lat="49.97195" lon="4.47928">
        <ele>369.4</ele>
        <time>2024-03-17T09:30:44Z</time>
      </trkpt>
      <trkpt lat="49.97201" lon="4.47933">
        <ele>369.4</ele>
        <time>2024-03-17T09:30:45Z</time>
      </trkpt>
      <trkpt lat="49.97208" lon="4.47937">
        <ele>369.4</ele>
        <time>2024-03-17T09:30:46Z</time>
      </trkpt>
      <trkpt lat="49.97214" lon="4.47942">
        <ele>369.6</ele>
        <time>2024-03-17T09:30:47Z</time>
      </trkpt>
      <trkpt lat="49.97221" lon="4.47947">
        <ele>369.6</ele>
        <time>2024-03-17T09:30:48Z</time>
      </trkpt>
      <trkpt lat="49.97227" lon="4.47951">
        <ele>370</ele>
        <time>2024-03-17T09:30:49Z</time>
      </trkpt>
      <trkpt lat="49.97233" lon="4.47956">
        <ele>370.4</ele>
        <time>2024-03-17T09:30:50Z</time>
      </trkpt>
      <trkpt lat="49.9724" lon="4.47961">
        <ele>370.6</ele>
        <time>2024-03-17T09:30:51Z</time>
      </trkpt>
      <trkpt lat="49.97246" lon="4.47966">
        <ele>370.8</ele>
        <time>2024-03-17T09:30:52Z</time>
      </trkpt>
      <trkpt lat="49.97252" lon="4.47971">
        <ele>371</ele>
        <time>2024-03-17T09:30:53Z</time>
      </trkpt>
      <trkpt lat="49.97259" lon="4.47975">
        <ele>371</ele>
        <time>2024-03-17T09:30:54Z</time>
      </trkpt>
      <trkpt lat="49.97265" lon="4.4798">
        <ele>371</ele>
        <time>2024-03-17T09:30:55Z</time>
      </trkpt>
      <trkpt lat="49.97272" lon="4.47985">
        <ele>371.2</ele>
        <time>2024-03-17T09:30:56Z</time>
      </trkpt>
      <trkpt lat="49.97278" lon="4.4799">
        <ele>371.2</ele>
        <time>2024-03-17T09:30:57Z</time>
      </trkpt>
      <trkpt lat="49.97285" lon="4.47995">
        <ele>371.6</ele>
        <time>2024-03-17T09:30:58Z</time>
      </trkpt>
      <trkpt lat="49.97291" lon="4.48">
        <ele>371.6</ele>
        <time>2024-03-17T09:30:59Z</time>
      </trkpt>
      <trkpt lat="49.97297" lon="4.48005">
        <ele>371.6</ele>
        <time>2024-03-17T09:31:00Z</time>
      </trkpt>
      <trkpt lat="49.97303" lon="4.4801">
        <ele>371.8</ele>
        <time>2024-03-17T09:31:01Z</time>
      </trkpt>
      <trkpt lat="49.97309" lon="4.48014">
        <ele>372.2</ele>
        <time>2024-03-17T09:31:02Z</time>
      </trkpt>
      <trkpt lat="49.97316" lon="4.48019">
        <ele>372.4</ele>
        <time>2024-03-17T09:31:03Z</time>
      </trkpt>
      <trkpt lat="49.97322" lon="4.48024">
        <ele>372.6</ele>
        <time>2024-03-17T09:31:04Z</time>
      </trkpt>
      <trkpt lat="49.97328" lon="4.48029">
        <ele>372.8</ele>
        <time>2024-03-17T09:31:05Z</time>
      </trkpt>
      <trkpt lat="49.97334" lon="4.48035">
        <ele>372.8</ele>
        <time>2024-03-17T09:31:06Z</time>
      </trkpt>
      <trkpt lat="49.9734" lon="4.4804">
        <ele>373</ele>
        <time>2024-03-17T09:31:07Z</time>
      </trkpt>
      <trkpt lat="49.97346" lon="4.48045">
        <ele>373</ele>
        <time>2024-03-17T09:31:08Z</time>
      </trkpt>
      <trkpt lat="49.97352" lon="4.4805">
        <ele>373.2</ele>
        <time>2024-03-17T09:31:09Z</time>
      </trkpt>
      <trkpt lat="49.97359" lon="4.48055">
        <ele>373.2</ele>
        <time>2024-03-17T09:31:10Z</time>
      </trkpt>
      <trkpt lat="49.97365" lon="4.48061">
        <ele>373.4</ele>
        <time>2024-03-17T09:31:11Z</time>
      </trkpt>
      <trkpt lat="49.97372" lon="4.48067">
        <ele>373.4</ele>
        <time>2024-03-17T09:31:12Z</time>
      </trkpt>
      <trkpt lat="49.97378" lon="4.48073">
        <ele>373.4</ele>
        <time>2024-03-17T09:31:13Z</time>
      </trkpt>
      <trkpt lat="49.97384" lon="4.48078">
        <ele>373.4</ele>
        <time>2024-03-17T09:31:14Z</time>
      </trkpt>
      <trkpt lat="49.97391" lon="4.48083">
        <ele>373.4</ele>
        <time>2024-03-17T09:31:15Z</time>
      </trkpt>
      <trkpt lat="49.97398" lon="4.48089">
        <ele>373.4</ele>
        <time>2024-03-17T09:31:16Z</time>
      </trkpt>
      <trkpt lat="49.97405" lon="4.48095">
        <ele>373.4</ele>
        <time>2024-03-17T09:31:17Z</time>
      </trkpt>
      <trkpt lat="49.97411" lon="4.481">
        <ele>373.6</ele>
        <time>2024-03-17T09:31:18Z</time>
      </trkpt>
      <trkpt lat="49.97418" lon="4.48106">
        <ele>373.6</ele>
        <time>2024-03-17T09:31:19Z</time>
      </trkpt>
      <trkpt lat="49.97425" lon="4.48112">
        <ele>373.6</ele>
        <time>2024-03-17T09:31:20Z</time>
      </trkpt>
      <trkpt lat="49.97431" lon="4.48117">
        <ele>373.6</ele>
        <time>2024-03-17T09:31:21Z</time>
      </trkpt>
      <trkpt lat="49.97438" lon="4.48123">
        <ele>373.6</ele>
        <time>2024-03-17T09:31:22Z</time>
      </trkpt>
      <trkpt lat="49.97445" lon="4.48129">
        <ele>373.8</ele>
        <time>2024-03-17T09:31:23Z</time>
      </trkpt>
      <trkpt lat="49.97451" lon="4.48134">
        <ele>373.6</ele>
        <time>2024-03-17T09:31:24Z</time>
      </trkpt>
      <trkpt lat="49.97459" lon="4.48139">
        <ele>373.6</ele>
        <time>2024-03-17T09:31:25Z</time>
      </trkpt>
      <trkpt lat="49.97466" lon="4.48145">
        <ele>373.8</ele>
        <time>2024-03-17T09:31:26Z</time>
      </trkpt>
      <trkpt lat="49.97473" lon="4.4815">
        <ele>373.6</ele>
        <time>2024-03-17T09:31:27Z</time>
      </trkpt>
      <trkpt lat="49.9748" lon="4.48156">
        <ele>373.4</ele>
        <time>2024-03-17T09:31:28Z</time>
      </trkpt>
      <trkpt lat="49.97487" lon="4.48162">
        <ele>373.4</ele>
        <time>2024-03-17T09:31:29Z</time>
      </trkpt>
      <trkpt lat="49.97493" lon="4.48168">
        <ele>373.4</ele>
        <time>2024-03-17T09:31:30Z</time>
      </trkpt>
      <trkpt lat="49.975" lon="4.48173">
        <ele>373.4</ele>
        <time>2024-03-17T09:31:31Z</time>
      </trkpt>
      <trkpt lat="49.97507" lon="4.48179">
        <ele>373.2</ele>
        <time>2024-03-17T09:31:32Z</time>
      </trkpt>
      <trkpt lat="49.97514" lon="4.48185">
        <ele>373</ele>
        <time>2024-03-17T09:31:33Z</time>
      </trkpt>
      <trkpt lat="49.9752" lon="4.48191">
        <ele>373</ele>
        <time>2024-03-17T09:31:34Z</time>
      </trkpt>
      <trkpt lat="49.97527" lon="4.48197">
        <ele>373</ele>
        <time>2024-03-17T09:31:35Z</time>
      </trkpt>
      <trkpt lat="49.97534" lon="4.48203">
        <ele>373</ele>
        <time>2024-03-17T09:31:36Z</time>
      </trkpt>
      <trkpt lat="49.97541" lon="4.48208">
        <ele>372.8</ele>
        <time>2024-03-17T09:31:37Z</time>
      </trkpt>
      <trkpt lat="49.97547" lon="4.48214">
        <ele>372.8</ele>
        <time>2024-03-17T09:31:38Z</time>
      </trkpt>
      <trkpt lat="49.97554" lon="4.4822">
        <ele>372.8</ele>
        <time>2024-03-17T09:31:39Z</time>
      </trkpt>
      <trkpt lat="49.9756" lon="4.48226">
        <ele>372.8</ele>
        <time>2024-03-17T09:31:40Z</time>
      </trkpt>
      <trkpt lat="49.97567" lon="4.48232">
        <ele>372.8</ele>
        <time>2024-03-17T09:31:41Z</time>
      </trkpt>
      <trkpt lat="49.97573" lon="4.48237">
        <ele>372.8</ele>
        <time>2024-03-17T09:31:42Z</time>
      </trkpt>
      <trkpt lat="49.9758" lon="4.48243">
        <ele>372.8</ele>
        <time>2024-03-17T09:31:43Z</time>
      </trkpt>
      <trkpt lat="49.97587" lon="4.48249">
        <ele>372.8</ele>
        <time>2024-03-17T09:31:44Z</time>
      </trkpt>
      <trkpt lat="49.97594" lon="4.48255">
        <ele>372.8</ele>
        <time>2024-03-17T09:31:45Z</time>
      </trkpt>
      <trkpt lat="49.976" lon="4.48261">
        <ele>372.6</ele>
        <time>2024-03-17T09:31:46Z</time>
      </trkpt>
      <trkpt lat="49.97607" lon="4.48267">
        <ele>372.8</ele>
        <time>2024-03-17T09:31:47Z</time>
      </trkpt>
      <trkpt lat="49.97613" lon="4.48273">
        <ele>372.6</ele>
        <time>2024-03-17T09:31:48Z</time>
      </trkpt>
      <trkpt lat="49.97619" lon="4.48279">
        <ele>372.8</ele>
        <time>2024-03-17T09:31:49Z</time>
      </trkpt>
      <trkpt lat="49.97625" lon="4.48286">
        <ele>372.8</ele>
        <time>2024-03-17T09:31:50Z</time>
      </trkpt>
      <trkpt lat="49.9763" lon="4.48293">
        <ele>372.8</ele>
        <time>2024-03-17T09:31:51Z</time>
      </trkpt>
      <trkpt lat="49.97636" lon="4.48301">
        <ele>372.8</ele>
        <time>2024-03-17T09:31:52Z</time>
      </trkpt>
      <trkpt lat="49.97642" lon="4.4831">
        <ele>372.6</ele>
        <time>2024-03-17T09:31:53Z</time>
      </trkpt>
      <trkpt lat="49.97647" lon="4.48318">
        <ele>372.6</ele>
        <time>2024-03-17T09:31:54Z</time>
      </trkpt>
      <trkpt lat="49.97653" lon="4.48327">
        <ele>372.6</ele>
        <time>2024-03-17T09:31:55Z</time>
      </trkpt>
      <trkpt lat="49.97658" lon="4.48337">
        <ele>372.8</ele>
        <time>2024-03-17T09:31:56Z</time>
      </trkpt>
      <trkpt lat="49.97663" lon="4.48346">
        <ele>372.8</ele>
        <time>2024-03-17T09:31:57Z</time>
      </trkpt>
      <trkpt lat="49.97667" lon="4.48355">
        <ele>372.8</ele>
        <time>2024-03-17T09:31:58Z</time>
      </trkpt>
      <trkpt lat="49.97672" lon="4.48365">
        <ele>372.8</ele>
        <time>2024-03-17T09:31:59Z</time>
      </trkpt>
      <trkpt lat="49.97677" lon="4.48375">
        <ele>372.8</ele>
        <time>2024-03-17T09:32:00Z</time>
      </trkpt>
      <trkpt lat="49.97681" lon="4.48384">
        <ele>372.6</ele>
        <time>2024-03-17T09:32:01Z</time>
      </trkpt>
      <trkpt lat="49.97685" lon="4.48395">
        <ele>372.6</ele>
        <time>2024-03-17T09:32:02Z</time>
      </trkpt>
      <trkpt lat="49.97689" lon="4.48405">
        <ele>372.8</ele>
        <time>2024-03-17T09:32:03Z</time>
      </trkpt>
      <trkpt lat="49.97693" lon="4.48415">
        <ele>372.6</ele>
        <time>2024-03-17T09:32:04Z</time>
      </trkpt>
      <trkpt lat="49.97696" lon="4.48425">
        <ele>372.6</ele>
        <time>2024-03-17T09:32:05Z</time>
      </trkpt>
      <trkpt lat="49.977" lon="4.48435">
        <ele>372.6</ele>
        <time>2024-03-17T09:32:06Z</time>
      </trkpt>
      <trkpt lat="49.97703" lon="4.48445">
        <ele>372.4</ele>
        <time>2024-03-17T09:32:07Z</time>
      </trkpt>
      <trkpt lat="49.97707" lon="4.48456">
        <ele>372.6</ele>
        <time>2024-03-17T09:32:08Z</time>
      </trkpt>
      <trkpt lat="49.97711" lon="4.48466">
        <ele>372.4</ele>
        <time>2024-03-17T09:32:09Z</time>
      </trkpt>
      <trkpt lat="49.97715" lon="4.48476">
        <ele>372.4</ele>
        <time>2024-03-17T09:32:10Z</time>
      </trkpt>
      <trkpt lat="49.9772" lon="4.48486">
        <ele>372.4</ele>
        <time>2024-03-17T09:32:11Z</time>
      </trkpt>
      <trkpt lat="49.97725" lon="4.48495">
        <ele>372.4</ele>
        <time>2024-03-17T09:32:12Z</time>
      </trkpt>
      <trkpt lat="49.9773" lon="4.48504">
        <ele>372.4</ele>
        <time>2024-03-17T09:32:13Z</time>
      </trkpt>
      <trkpt lat="49.97736" lon="4.48512">
        <ele>372.6</ele>
        <time>2024-03-17T09:32:14Z</time>
      </trkpt>
      <trkpt lat="49.97743" lon="4.48519">
        <ele>372.4</ele>
        <time>2024-03-17T09:32:15Z</time>
      </trkpt>
      <trkpt lat="49.9775" lon="4.48526">
        <ele>372.4</ele>
        <time>2024-03-17T09:32:16Z</time>
      </trkpt>
      <trkpt lat="49.97757" lon="4.48532">
        <ele>372.4</ele>
        <time>2024-03-17T09:32:17Z</time>
      </trkpt>
      <trkpt lat="49.97765" lon="4.48536">
        <ele>372.6</ele>
        <time>2024-03-17T09:32:18Z</time>
      </trkpt>
      <trkpt lat="49.97773" lon="4.48539">
        <ele>372.6</ele>
        <time>2024-03-17T09:32:19Z</time>
      </trkpt>
      <trkpt lat="49.97782" lon="4.4854">
        <ele>372.6</ele>
        <time>2024-03-17T09:32:20Z</time>
      </trkpt>
      <trkpt lat="49.97791" lon="4.4854">
        <ele>372.8</ele>
        <time>2024-03-17T09:32:21Z</time>
      </trkpt>
      <trkpt lat="49.978" lon="4.48538">
        <ele>372.6</ele>
        <time>2024-03-17T09:32:22Z</time>
      </trkpt>
      <trkpt lat="49.97809" lon="4.48536">
        <ele>372.8</ele>
        <time>2024-03-17T09:32:23Z</time>
      </trkpt>
      <trkpt lat="49.97817" lon="4.48533">
        <ele>372.8</ele>
        <time>2024-03-17T09:32:24Z</time>
      </trkpt>
      <trkpt lat="49.97826" lon="4.48529">
        <ele>372.8</ele>
        <time>2024-03-17T09:32:25Z</time>
      </trkpt>
      <trkpt lat="49.97835" lon="4.48525">
        <ele>372.6</ele>
        <time>2024-03-17T09:32:26Z</time>
      </trkpt>
      <trkpt lat="49.97844" lon="4.4852">
        <ele>372.6</ele>
        <time>2024-03-17T09:32:27Z</time>
      </trkpt>
      <trkpt lat="49.97853" lon="4.48516">
        <ele>372.6</ele>
        <time>2024-03-17T09:32:28Z</time>
      </trkpt>
      <trkpt lat="49.97862" lon="4.48512">
        <ele>372.8</ele>
        <time>2024-03-17T09:32:29Z</time>
      </trkpt>
      <trkpt lat="49.97871" lon="4.48507">
        <ele>372.6</ele>
        <time>2024-03-17T09:32:30Z</time>
      </trkpt>
      <trkpt lat="49.9788" lon="4.48503">
        <ele>372.2</ele>
        <time>2024-03-17T09:32:31Z</time>
      </trkpt>
      <trkpt lat="49.97889" lon="4.48499">
        <ele>371.6</ele>
        <time>2024-03-17T09:32:32Z</time>
      </trkpt>
      <trkpt lat="49.97897" lon="4.48495">
        <ele>371.4</ele>
        <time>2024-03-17T09:32:33Z</time>
      </trkpt>
      <trkpt lat="49.97907" lon="4.4849">
        <ele>371.2</ele>
        <time>2024-03-17T09:32:34Z</time>
      </trkpt>
      <trkpt lat="49.97916" lon="4.48485">
        <ele>371</ele>
        <time>2024-03-17T09:32:35Z</time>
      </trkpt>
      <trkpt lat="49.97926" lon="4.48481">
        <ele>370.8</ele>
        <time>2024-03-17T09:32:36Z</time>
      </trkpt>
      <trkpt lat="49.97936" lon="4.48476">
        <ele>370.6</ele>
        <time>2024-03-17T09:32:37Z</time>
      </trkpt>
      <trkpt lat="49.97946" lon="4.48471">
        <ele>370.4</ele>
        <time>2024-03-17T09:32:38Z</time>
      </trkpt>
      <trkpt lat="49.97956" lon="4.48466">
        <ele>369.8</ele>
        <time>2024-03-17T09:32:39Z</time>
      </trkpt>
      <trkpt lat="49.97966" lon="4.48461">
        <ele>369</ele>
        <time>2024-03-17T09:32:40Z</time>
      </trkpt>
      <trkpt lat="49.97977" lon="4.48455">
        <ele>368.6</ele>
        <time>2024-03-17T09:32:41Z</time>
      </trkpt>
      <trkpt lat="49.97988" lon="4.4845">
        <ele>368.2</ele>
        <time>2024-03-17T09:32:42Z</time>
      </trkpt>
      <trkpt lat="49.97999" lon="4.48445">
        <ele>367.8</ele>
        <time>2024-03-17T09:32:43Z</time>
      </trkpt>
      <trkpt lat="49.98009" lon="4.48439">
        <ele>367.6</ele>
        <time>2024-03-17T09:32:44Z</time>
      </trkpt>
      <trkpt lat="49.9802" lon="4.48434">
        <ele>367.2</ele>
        <time>2024-03-17T09:32:45Z</time>
      </trkpt>
      <trkpt lat="49.98031" lon="4.48428">
        <ele>366.6</ele>
        <time>2024-03-17T09:32:46Z</time>
      </trkpt>
      <trkpt lat="49.98041" lon="4.48423">
        <ele>366.2</ele>
        <time>2024-03-17T09:32:47Z</time>
      </trkpt>
      <trkpt lat="49.98052" lon="4.48417">
        <ele>365.4</ele>
        <time>2024-03-17T09:32:48Z</time>
      </trkpt>
      <trkpt lat="49.98063" lon="4.48412">
        <ele>365.4</ele>
        <time>2024-03-17T09:32:49Z</time>
      </trkpt>
      <trkpt lat="49.98073" lon="4.48407">
        <ele>364.8</ele>
        <time>2024-03-17T09:32:50Z</time>
      </trkpt>
      <trkpt lat="49.98084" lon="4.48402">
        <ele>364.4</ele>
        <time>2024-03-17T09:32:51Z</time>
      </trkpt>
      <trkpt lat="49.98095" lon="4.48397">
        <ele>364</ele>
        <time>2024-03-17T09:32:52Z</time>
      </trkpt>
      <trkpt lat="49.98105" lon="4.48391">
        <ele>363.6</ele>
        <time>2024-03-17T09:32:53Z</time>
      </trkpt>
      <trkpt lat="49.98116" lon="4.48386">
        <ele>363.2</ele>
        <time>2024-03-17T09:32:54Z</time>
      </trkpt>
      <trkpt lat="49.98126" lon="4.4838">
        <ele>362.8</ele>
        <time>2024-03-17T09:32:55Z</time>
      </trkpt>
      <trkpt lat="49.98137" lon="4.48375">
        <ele>362.2</ele>
        <time>2024-03-17T09:32:56Z</time>
      </trkpt>
      <trkpt lat="49.98147" lon="4.48369">
        <ele>361.8</ele>
        <time>2024-03-17T09:32:57Z</time>
      </trkpt>
      <trkpt lat="49.98158" lon="4.48364">
        <ele>361.4</ele>
        <time>2024-03-17T09:32:58Z</time>
      </trkpt>
      <trkpt lat="49.98168" lon="4.48359">
        <ele>360.8</ele>
        <time>2024-03-17T09:32:59Z</time>
      </trkpt>
      <trkpt lat="49.98179" lon="4.48353">
        <ele>360.6</ele>
        <time>2024-03-17T09:33:00Z</time>
      </trkpt>
      <trkpt lat="49.98189" lon="4.48348">
        <ele>360.4</ele>
        <time>2024-03-17T09:33:01Z</time>
      </trkpt>
      <trkpt lat="49.982" lon="4.48342">
        <ele>360.2</ele>
        <time>2024-03-17T09:33:02Z</time>
      </trkpt>
      <trkpt lat="49.9821" lon="4.48337">
        <ele>360</ele>
        <time>2024-03-17T09:33:03Z</time>
      </trkpt>
      <trkpt lat="49.98221" lon="4.48332">
        <ele>359.8</ele>
        <time>2024-03-17T09:33:04Z</time>
      </trkpt>
      <trkpt lat="49.98232" lon="4.48326">
        <ele>359.6</ele>
        <time>2024-03-17T09:33:05Z</time>
      </trkpt>
      <trkpt lat="49.98243" lon="4.48321">
        <ele>359.6</ele>
        <time>2024-03-17T09:33:06Z</time>
      </trkpt>
      <trkpt lat="49.98254" lon="4.48315">
        <ele>359.6</ele>
        <time>2024-03-17T09:33:07Z</time>
      </trkpt>
      <trkpt lat="49.98264" lon="4.4831">
        <ele>359.6</ele>
        <time>2024-03-17T09:33:08Z</time>
      </trkpt>
      <trkpt lat="49.98275" lon="4.48305">
        <ele>359.4</ele>
        <time>2024-03-17T09:33:09Z</time>
      </trkpt>
      <trkpt lat="49.98287" lon="4.48299">
        <ele>359</ele>
        <time>2024-03-17T09:33:10Z</time>
      </trkpt>
      <trkpt lat="49.98298" lon="4.48294">
        <ele>358.8</ele>
        <time>2024-03-17T09:33:11Z</time>
      </trkpt>
      <trkpt lat="49.98309" lon="4.48288">
        <ele>358.6</ele>
        <time>2024-03-17T09:33:12Z</time>
      </trkpt>
      <trkpt lat="49.9832" lon="4.48283">
        <ele>358.4</ele>
        <time>2024-03-17T09:33:13Z</time>
      </trkpt>
      <trkpt lat="49.98331" lon="4.48277">
        <ele>358.4</ele>
        <time>2024-03-17T09:33:14Z</time>
      </trkpt>
      <trkpt lat="49.98342" lon="4.48271">
        <ele>357.6</ele>
        <time>2024-03-17T09:33:15Z</time>
      </trkpt>
      <trkpt lat="49.98353" lon="4.48266">
        <ele>357.2</ele>
        <time>2024-03-17T09:33:16Z</time>
      </trkpt>
      <trkpt lat="49.98364" lon="4.48261">
        <ele>356.8</ele>
        <time>2024-03-17T09:33:17Z</time>
      </trkpt>
      <trkpt lat="49.98375" lon="4.48255">
        <ele>356.8</ele>
        <time>2024-03-17T09:33:18Z</time>
      </trkpt>
      <trkpt lat="49.98386" lon="4.4825">
        <ele>356.6</ele>
        <time>2024-03-17T09:33:19Z</time>
      </trkpt>
      <trkpt lat="49.98397" lon="4.48244">
        <ele>356.4</ele>
        <time>2024-03-17T09:33:20Z</time>
      </trkpt>
      <trkpt lat="49.98407" lon="4.48239">
        <ele>356.2</ele>
        <time>2024-03-17T09:33:21Z</time>
      </trkpt>
      <trkpt lat="49.98418" lon="4.48233">
        <ele>355.8</ele>
        <time>2024-03-17T09:33:22Z</time>
      </trkpt>
      <trkpt lat="49.98429" lon="4.48228">
        <ele>355.8</ele>
        <time>2024-03-17T09:33:23Z</time>
      </trkpt>
      <trkpt lat="49.98439" lon="4.48222">
        <ele>355.2</ele>
        <time>2024-03-17T09:33:24Z</time>
      </trkpt>
      <trkpt lat="49.9845" lon="4.48217">
        <ele>355</ele>
        <time>2024-03-17T09:33:25Z</time>
      </trkpt>
      <trkpt lat="49.98461" lon="4.48212">
        <ele>354.8</ele>
        <time>2024-03-17T09:33:26Z</time>
      </trkpt>
      <trkpt lat="49.98471" lon="4.48206">
        <ele>354.8</ele>
        <time>2024-03-17T09:33:27Z</time>
      </trkpt>
      <trkpt lat="49.98482" lon="4.48201">
        <ele>354.6</ele>
        <time>2024-03-17T09:33:28Z</time>
      </trkpt>
      <trkpt lat="49.98493" lon="4.48196">
        <ele>354.8</ele>
        <time>2024-03-17T09:33:29Z</time>
      </trkpt>
      <trkpt lat="49.98504" lon="4.48191">
        <ele>354.6</ele>
        <time>2024-03-17T09:33:30Z</time>
      </trkpt>
      <trkpt lat="49.98515" lon="4.48185">
        <ele>354.2</ele>
        <time>2024-03-17T09:33:31Z</time>
      </trkpt>
      <trkpt lat="49.98525" lon="4.4818">
        <ele>354</ele>
        <time>2024-03-17T09:33:32Z</time>
      </trkpt>
      <trkpt lat="49.98536" lon="4.48174">
        <ele>354</ele>
        <time>2024-03-17T09:33:33Z</time>
      </trkpt>
      <trkpt lat="49.98547" lon="4.48169">
        <ele>354</ele>
        <time>2024-03-17T09:33:34Z</time>
      </trkpt>
      <trkpt lat="49.98558" lon="4.48163">
        <ele>353.6</ele>
        <time>2024-03-17T09:33:35Z</time>
      </trkpt>
      <trkpt lat="49.98569" lon="4.48158">
        <ele>353.6</ele>
        <time>2024-03-17T09:33:36Z</time>
      </trkpt>
      <trkpt lat="49.9858" lon="4.48153">
        <ele>353.4</ele>
        <time>2024-03-17T09:33:37Z</time>
      </trkpt>
      <trkpt lat="49.9859" lon="4.48147">
        <ele>353.4</ele>
        <time>2024-03-17T09:33:38Z</time>
      </trkpt>
      <trkpt lat="49.98601" lon="4.48142">
        <ele>353.2</ele>
        <time>2024-03-17T09:33:39Z</time>
      </trkpt>
      <trkpt lat="49.98612" lon="4.48137">
        <ele>353.2</ele>
        <time>2024-03-17T09:33:40Z</time>
      </trkpt>
      <trkpt lat="49.98623" lon="4.48131">
        <ele>353.2</ele>
        <time>2024-03-17T09:33:41Z</time>
      </trkpt>
      <trkpt lat="49.98634" lon="4.48126">
        <ele>353.2</ele>
        <time>2024-03-17T09:33:42Z</time>
      </trkpt>
      <trkpt lat="49.98645" lon="4.4812">
        <ele>353</ele>
        <time>2024-03-17T09:33:43Z</time>
      </trkpt>
      <trkpt lat="49.98656" lon="4.48115">
        <ele>352.6</ele>
        <time>2024-03-17T09:33:44Z</time>
      </trkpt>
      <trkpt lat="49.98666" lon="4.48109">
        <ele>352.6</ele>
        <time>2024-03-17T09:33:45Z</time>
      </trkpt>
      <trkpt lat="49.98677" lon="4.48104">
        <ele>352.4</ele>
        <time>2024-03-17T09:33:46Z</time>
      </trkpt>
      <trkpt lat="49.98687" lon="4.48099">
        <ele>352.2</ele>
        <time>2024-03-17T09:33:47Z</time>
      </trkpt>
      <trkpt lat="49.98698" lon="4.48094">
        <ele>352.2</ele>
        <time>2024-03-17T09:33:48Z</time>
      </trkpt>
      <trkpt lat="49.98708" lon="4.48089">
        <ele>352.2</ele>
        <time>2024-03-17T09:33:49Z</time>
      </trkpt>
      <trkpt lat="49.98718" lon="4.48084">
        <ele>352.2</ele>
        <time>2024-03-17T09:33:50Z</time>
      </trkpt>
      <trkpt lat="49.98729" lon="4.48078">
        <ele>352.2</ele>
        <time>2024-03-17T09:33:51Z</time>
      </trkpt>
      <trkpt lat="49.98739" lon="4.48073">
        <ele>352</ele>
        <time>2024-03-17T09:33:52Z</time>
      </trkpt>
      <trkpt lat="49.98749" lon="4.48068">
        <ele>352</ele>
        <time>2024-03-17T09:33:53Z</time>
      </trkpt>
      <trkpt lat="49.98759" lon="4.48063">
        <ele>352.2</ele>
        <time>2024-03-17T09:33:54Z</time>
      </trkpt>
      <trkpt lat="49.98769" lon="4.48058">
        <ele>352</ele>
        <time>2024-03-17T09:33:55Z</time>
      </trkpt>
      <trkpt lat="49.98779" lon="4.48053">
        <ele>351.8</ele>
        <time>2024-03-17T09:33:56Z</time>
      </trkpt>
      <trkpt lat="49.98789" lon="4.48048">
        <ele>351.8</ele>
        <time>2024-03-17T09:33:57Z</time>
      </trkpt>
      <trkpt lat="49.98799" lon="4.48043">
        <ele>351.8</ele>
        <time>2024-03-17T09:33:58Z</time>
      </trkpt>
      <trkpt lat="49.98809" lon="4.48039">
        <ele>351.8</ele>
        <time>2024-03-17T09:33:59Z</time>
      </trkpt>
      <trkpt lat="49.98819" lon="4.48034">
        <ele>351.6</ele>
        <time>2024-03-17T09:34:00Z</time>
      </trkpt>
      <trkpt lat="49.98828" lon="4.48029">
        <ele>351.6</ele>
        <time>2024-03-17T09:34:01Z</time>
      </trkpt>
      <trkpt lat="49.98838" lon="4.48025">
        <ele>351.4</ele>
        <time>2024-03-17T09:34:02Z</time>
      </trkpt>
      <trkpt lat="49.98847" lon="4.4802">
        <ele>351.4</ele>
        <time>2024-03-17T09:34:03Z</time>
      </trkpt>
      <trkpt lat="49.98857" lon="4.48016">
        <ele>351.4</ele>
        <time>2024-03-17T09:34:04Z</time>
      </trkpt>
      <trkpt lat="49.98866" lon="4.48011">
        <ele>351.2</ele>
        <time>2024-03-17T09:34:05Z</time>
      </trkpt>
      <trkpt lat="49.98875" lon="4.48007">
        <ele>351.2</ele>
        <time>2024-03-17T09:34:06Z</time>
      </trkpt>
      <trkpt lat="49.98884" lon="4.48003">
        <ele>351</ele>
        <time>2024-03-17T09:34:07Z</time>
      </trkpt>
      <trkpt lat="49.98893" lon="4.47998">
        <ele>351.2</ele>
        <time>2024-03-17T09:34:08Z</time>
      </trkpt>
      <trkpt lat="49.98902" lon="4.47994">
        <ele>351</ele>
        <time>2024-03-17T09:34:09Z</time>
      </trkpt>
      <trkpt lat="49.98911" lon="4.47989">
        <ele>351</ele>
        <time>2024-03-17T09:34:10Z</time>
      </trkpt>
      <trkpt lat="49.9892" lon="4.47985">
        <ele>351</ele>
        <time>2024-03-17T09:34:11Z</time>
      </trkpt>
      <trkpt lat="49.98929" lon="4.4798">
        <ele>351</ele>
        <time>2024-03-17T09:34:12Z</time>
      </trkpt>
      <trkpt lat="49.98938" lon="4.47976">
        <ele>351</ele>
        <time>2024-03-17T09:34:13Z</time>
      </trkpt>
      <trkpt lat="49.98947" lon="4.47971">
        <ele>351</ele>
        <time>2024-03-17T09:34:14Z</time>
      </trkpt>
      <trkpt lat="49.98957" lon="4.47966">
        <ele>351.2</ele>
        <time>2024-03-17T09:34:15Z</time>
      </trkpt>
      <trkpt lat="49.98966" lon="4.47962">
        <ele>351.2</ele>
        <time>2024-03-17T09:34:16Z</time>
      </trkpt>
      <trkpt lat="49.98976" lon="4.47957">
        <ele>351</ele>
        <time>2024-03-17T09:34:17Z</time>
      </trkpt>
      <trkpt lat="49.98985" lon="4.47952">
        <ele>351.2</ele>
        <time>2024-03-17T09:34:18Z</time>
      </trkpt>
      <trkpt lat="49.98995" lon="4.47947">
        <ele>351.2</ele>
        <time>2024-03-17T09:34:19Z</time>
      </trkpt>
      <trkpt lat="49.99005" lon="4.47942">
        <ele>351.2</ele>
        <time>2024-03-17T09:34:20Z</time>
      </trkpt>
      <trkpt lat="49.99015" lon="4.47938">
        <ele>351</ele>
        <time>2024-03-17T09:34:21Z</time>
      </trkpt>
      <trkpt lat="49.99025" lon="4.47933">
        <ele>351.2</ele>
        <time>2024-03-17T09:34:22Z</time>
      </trkpt>
      <trkpt lat="49.99034" lon="4.47928">
        <ele>351.2</ele>
        <time>2024-03-17T09:34:23Z</time>
      </trkpt>
      <trkpt lat="49.99044" lon="4.47923">
        <ele>351</ele>
        <time>2024-03-17T09:34:24Z</time>
      </trkpt>
      <trkpt lat="49.99054" lon="4.47918">
        <ele>351.2</ele>
        <time>2024-03-17T09:34:25Z</time>
      </trkpt>
      <trkpt lat="49.99064" lon="4.47913">
        <ele>351</ele>
        <time>2024-03-17T09:34:26Z</time>
      </trkpt>
      <trkpt lat="49.99075" lon="4.47908">
        <ele>350.6</ele>
        <time>2024-03-17T09:34:27Z</time>
      </trkpt>
      <trkpt lat="49.99085" lon="4.47903">
        <ele>350.4</ele>
        <time>2024-03-17T09:34:28Z</time>
      </trkpt>
      <trkpt lat="49.99095" lon="4.47898">
        <ele>350.2</ele>
        <time>2024-03-17T09:34:29Z</time>
      </trkpt>
      <trkpt lat="49.99105" lon="4.47893">
        <ele>349.4</ele>
        <time>2024-03-17T09:34:30Z</time>
      </trkpt>
      <trkpt lat="49.99116" lon="4.47888">
        <ele>349</ele>
        <time>2024-03-17T09:34:31Z</time>
      </trkpt>
      <trkpt lat="49.99126" lon="4.47883">
        <ele>348.6</ele>
        <time>2024-03-17T09:34:32Z</time>
      </trkpt>
      <trkpt lat="49.99137" lon="4.47878">
        <ele>348.4</ele>
        <time>2024-03-17T09:34:33Z</time>
      </trkpt>
      <trkpt lat="49.99147" lon="4.47872">
        <ele>348</ele>
        <time>2024-03-17T09:34:34Z</time>
      </trkpt>
      <trkpt lat="49.99157" lon="4.47867">
        <ele>347.6</ele>
        <time>2024-03-17T09:34:35Z</time>
      </trkpt>
      <trkpt lat="49.99168" lon="4.47862">
        <ele>347</ele>
        <time>2024-03-17T09:34:36Z</time>
      </trkpt>
      <trkpt lat="49.99178" lon="4.47857">
        <ele>346.6</ele>
        <time>2024-03-17T09:34:37Z</time>
      </trkpt>
      <trkpt lat="49.99188" lon="4.47852">
        <ele>346.6</ele>
        <time>2024-03-17T09:34:38Z</time>
      </trkpt>
      <trkpt lat="49.99198" lon="4.47847">
        <ele>346.4</ele>
        <time>2024-03-17T09:34:39Z</time>
      </trkpt>
      <trkpt lat="49.99208" lon="4.47842">
        <ele>346.2</ele>
        <time>2024-03-17T09:34:40Z</time>
      </trkpt>
      <trkpt lat="49.99218" lon="4.47837">
        <ele>345.8</ele>
        <time>2024-03-17T09:34:41Z</time>
      </trkpt>
      <trkpt lat="49.99227" lon="4.47832">
        <ele>345.8</ele>
        <time>2024-03-17T09:34:42Z</time>
      </trkpt>
      <trkpt lat="49.99237" lon="4.47827">
        <ele>345.2</ele>
        <time>2024-03-17T09:34:43Z</time>
      </trkpt>
      <trkpt lat="49.99246" lon="4.47823">
        <ele>345</ele>
        <time>2024-03-17T09:34:44Z</time>
      </trkpt>
      <trkpt lat="49.99256" lon="4.47818">
        <ele>344.6</ele>
        <time>2024-03-17T09:34:45Z</time>
      </trkpt>
      <trkpt lat="49.99265" lon="4.47813">
        <ele>344.4</ele>
        <time>2024-03-17T09:34:46Z</time>
      </trkpt>
      <trkpt lat="49.99274" lon="4.47808">
        <ele>344.4</ele>
        <time>2024-03-17T09:34:47Z</time>
      </trkpt>
      <trkpt lat="49.99283" lon="4.47804">
        <ele>344.4</ele>
        <time>2024-03-17T09:34:48Z</time>
      </trkpt>
      <trkpt lat="49.99292" lon="4.47799">
        <ele>344.4</ele>
        <time>2024-03-17T09:34:49Z</time>
      </trkpt>
      <trkpt lat="49.99301" lon="4.47795">
        <ele>344.4</ele>
        <time>2024-03-17T09:34:50Z</time>
      </trkpt>
      <trkpt lat="49.9931" lon="4.47791">
        <ele>344.2</ele>
        <time>2024-03-17T09:34:51Z</time>
      </trkpt>
      <trkpt lat="49.99319" lon="4.47786">
        <ele>344.2</ele>
        <time>2024-03-17T09:34:52Z</time>
      </trkpt>
      <trkpt lat="49.99327" lon="4.47782">
        <ele>344.2</ele>
        <time>2024-03-17T09:34:53Z</time>
      </trkpt>
      <trkpt lat="49.99336" lon="4.47778">
        <ele>344.2</ele>
        <time>2024-03-17T09:34:54Z</time>
      </trkpt>
      <trkpt lat="49.99345" lon="4.47773">
        <ele>344.2</ele>
        <time>2024-03-17T09:34:55Z</time>
      </trkpt>
      <trkpt lat="49.99353" lon="4.47769">
        <ele>344.2</ele>
        <time>2024-03-17T09:34:56Z</time>
      </trkpt>
      <trkpt lat="49.99362" lon="4.47765">
        <ele>344.2</ele>
        <time>2024-03-17T09:34:57Z</time>
      </trkpt>
      <trkpt lat="49.9937" lon="4.4776">
        <ele>344.2</ele>
        <time>2024-03-17T09:34:58Z</time>
      </trkpt>
      <trkpt lat="49.99379" lon="4.47756">
        <ele>344.2</ele>
        <time>2024-03-17T09:34:59Z</time>
      </trkpt>
      <trkpt lat="49.99388" lon="4.47752">
        <ele>344.2</ele>
        <time>2024-03-17T09:35:00Z</time>
      </trkpt>
      <trkpt lat="49.99396" lon="4.47748">
        <ele>344</ele>
        <time>2024-03-17T09:35:01Z</time>
      </trkpt>
      <trkpt lat="49.99404" lon="4.47744">
        <ele>344.2</ele>
        <time>2024-03-17T09:35:02Z</time>
      </trkpt>
      <trkpt lat="49.99412" lon="4.47739">
        <ele>344.4</ele>
        <time>2024-03-17T09:35:03Z</time>
      </trkpt>
      <trkpt lat="49.9942" lon="4.47735">
        <ele>344.4</ele>
        <time>2024-03-17T09:35:04Z</time>
      </trkpt>
      <trkpt lat="49.99428" lon="4.4773">
        <ele>344.6</ele>
        <time>2024-03-17T09:35:05Z</time>
      </trkpt>
      <trkpt lat="49.99437" lon="4.47725">
        <ele>344.6</ele>
        <time>2024-03-17T09:35:06Z</time>
      </trkpt>
      <trkpt lat="49.99445" lon="4.4772">
        <ele>344.4</ele>
        <time>2024-03-17T09:35:07Z</time>
      </trkpt>
      <trkpt lat="49.99454" lon="4.47716">
        <ele>344.4</ele>
        <time>2024-03-17T09:35:08Z</time>
      </trkpt>
      <trkpt lat="49.99463" lon="4.47711">
        <ele>344.4</ele>
        <time>2024-03-17T09:35:09Z</time>
      </trkpt>
      <trkpt lat="49.99473" lon="4.47707">
        <ele>344.2</ele>
        <time>2024-03-17T09:35:10Z</time>
      </trkpt>
      <trkpt lat="49.99482" lon="4.47702">
        <ele>344</ele>
        <time>2024-03-17T09:35:11Z</time>
      </trkpt>
      <trkpt lat="49.99491" lon="4.47697">
        <ele>343.8</ele>
        <time>2024-03-17T09:35:12Z</time>
      </trkpt>
      <trkpt lat="49.99501" lon="4.47693">
        <ele>343.8</ele>
        <time>2024-03-17T09:35:13Z</time>
      </trkpt>
      <trkpt lat="49.9951" lon="4.47688">
        <ele>344</ele>
        <time>2024-03-17T09:35:14Z</time>
      </trkpt>
      <trkpt lat="49.9952" lon="4.47683">
        <ele>343.8</ele>
        <time>2024-03-17T09:35:15Z</time>
      </trkpt>
      <trkpt lat="49.9953" lon="4.47677">
        <ele>343.8</ele>
        <time>2024-03-17T09:35:16Z</time>
      </trkpt>
      <trkpt lat="49.9954" lon="4.47672">
        <ele>343.4</ele>
        <time>2024-03-17T09:35:17Z</time>
      </trkpt>
      <trkpt lat="49.99549" lon="4.47667">
        <ele>343.2</ele>
        <time>2024-03-17T09:35:18Z</time>
      </trkpt>
      <trkpt lat="49.99559" lon="4.47661">
        <ele>342.6</ele>
        <time>2024-03-17T09:35:19Z</time>
      </trkpt>
      <trkpt lat="49.99567" lon="4.47656">
        <ele>342.6</ele>
        <time>2024-03-17T09:35:20Z</time>
      </trkpt>
      <trkpt lat="49.99577" lon="4.47651">
        <ele>342.4</ele>
        <time>2024-03-17T09:35:21Z</time>
      </trkpt>
      <trkpt lat="49.99586" lon="4.47645">
        <ele>342.2</ele>
        <time>2024-03-17T09:35:22Z</time>
      </trkpt>
      <trkpt lat="49.99595" lon="4.4764">
        <ele>342</ele>
        <time>2024-03-17T09:35:23Z</time>
      </trkpt>
      <trkpt lat="49.99605" lon="4.47634">
        <ele>341.2</ele>
        <time>2024-03-17T09:35:24Z</time>
      </trkpt>
      <trkpt lat="49.99616" lon="4.47629">
        <ele>340.4</ele>
        <time>2024-03-17T09:35:25Z</time>
      </trkpt>
      <trkpt lat="49.99627" lon="4.47623">
        <ele>339.6</ele>
        <time>2024-03-17T09:35:26Z</time>
      </trkpt>
      <trkpt lat="49.99638" lon="4.47616">
        <ele>339</ele>
        <time>2024-03-17T09:35:27Z</time>
      </trkpt>
      <trkpt lat="49.99649" lon="4.4761">
        <ele>338.4</ele>
        <time>2024-03-17T09:35:28Z</time>
      </trkpt>
      <trkpt lat="49.9966" lon="4.47605">
        <ele>337.6</ele>
        <time>2024-03-17T09:35:29Z</time>
      </trkpt>
      <trkpt lat="49.99671" lon="4.47599">
        <ele>337.6</ele>
        <time>2024-03-17T09:35:30Z</time>
      </trkpt>
      <trkpt lat="49.99683" lon="4.47593">
        <ele>337</ele>
        <time>2024-03-17T09:35:31Z</time>
      </trkpt>
      <trkpt lat="49.99694" lon="4.47587">
        <ele>336.6</ele>
        <time>2024-03-17T09:35:32Z</time>
      </trkpt>
      <trkpt lat="49.99705" lon="4.4758">
        <ele>335.8</ele>
        <time>2024-03-17T09:35:33Z</time>
      </trkpt>
      <trkpt lat="49.99716" lon="4.47574">
        <ele>335.4</ele>
        <time>2024-03-17T09:35:34Z</time>
      </trkpt>
      <trkpt lat="49.99728" lon="4.47568">
        <ele>334.8</ele>
        <time>2024-03-17T09:35:35Z</time>
      </trkpt>
      <trkpt lat="49.9974" lon="4.47562">
        <ele>334</ele>
        <time>2024-03-17T09:35:36Z</time>
      </trkpt>
      <trkpt lat="49.99752" lon="4.47555">
        <ele>333.4</ele>
        <time>2024-03-17T09:35:37Z</time>
      </trkpt>
      <trkpt lat="49.99764" lon="4.47548">
        <ele>332.6</ele>
        <time>2024-03-17T09:35:38Z</time>
      </trkpt>
      <trkpt lat="49.99776" lon="4.47541">
        <ele>331.6</ele>
        <time>2024-03-17T09:35:39Z</time>
      </trkpt>
      <trkpt lat="49.99788" lon="4.47534">
        <ele>330.8</ele>
        <time>2024-03-17T09:35:40Z</time>
      </trkpt>
      <trkpt lat="49.998" lon="4.47527">
        <ele>329.8</ele>
        <time>2024-03-17T09:35:41Z</time>
      </trkpt>
      <trkpt lat="49.99812" lon="4.47521">
        <ele>329</ele>
        <time>2024-03-17T09:35:42Z</time>
      </trkpt>
      <trkpt lat="49.99824" lon="4.47514">
        <ele>328.6</ele>
        <time>2024-03-17T09:35:43Z</time>
      </trkpt>
      <trkpt lat="49.99836" lon="4.47507">
        <ele>327.6</ele>
        <time>2024-03-17T09:35:44Z</time>
      </trkpt>
      <trkpt lat="49.99849" lon="4.47501">
        <ele>326.8</ele>
        <time>2024-03-17T09:35:45Z</time>
      </trkpt>
      <trkpt lat="49.99861" lon="4.47494">
        <ele>326.8</ele>
        <time>2024-03-17T09:35:46Z</time>
      </trkpt>
      <trkpt lat="49.99873" lon="4.47488">
        <ele>325.6</ele>
        <time>2024-03-17T09:35:47Z</time>
      </trkpt>
      <trkpt lat="49.99885" lon="4.47481">
        <ele>324.8</ele>
        <time>2024-03-17T09:35:48Z</time>
      </trkpt>
      <trkpt lat="49.99898" lon="4.47475">
        <ele>324</ele>
        <time>2024-03-17T09:35:49Z</time>
      </trkpt>
      <trkpt lat="49.9991" lon="4.47468">
        <ele>323.6</ele>
        <time>2024-03-17T09:35:50Z</time>
      </trkpt>
      <trkpt lat="49.99922" lon="4.47461">
        <ele>323</ele>
        <time>2024-03-17T09:35:51Z</time>
      </trkpt>
      <trkpt lat="49.99935" lon="4.47455">
        <ele>322</ele>
        <time>2024-03-17T09:35:52Z</time>
      </trkpt>
      <trkpt lat="49.99947" lon="4.47448">
        <ele>321.2</ele>
        <time>2024-03-17T09:35:53Z</time>
      </trkpt>
      <trkpt lat="49.9996" lon="4.47441">
        <ele>319.6</ele>
        <time>2024-03-17T09:35:54Z</time>
      </trkpt>
      <trkpt lat="49.99972" lon="4.47434">
        <ele>318.4</ele>
        <time>2024-03-17T09:35:55Z</time>
      </trkpt>
      <trkpt lat="49.99984" lon="4.47428">
        <ele>317.2</ele>
        <time>2024-03-17T09:35:56Z</time>
      </trkpt>
      <trkpt lat="49.99996" lon="4.47422">
        <ele>316.4</ele>
        <time>2024-03-17T09:35:57Z</time>
      </trkpt>
      <trkpt lat="50.00008" lon="4.47415">
        <ele>315.8</ele>
        <time>2024-03-17T09:35:58Z</time>
      </trkpt>
      <trkpt lat="50.0002" lon="4.47407">
        <ele>315.2</ele>
        <time>2024-03-17T09:35:59Z</time>
      </trkpt>
      <trkpt lat="50.00031" lon="4.47401">
        <ele>314.4</ele>
        <time>2024-03-17T09:36:00Z</time>
      </trkpt>
      <trkpt lat="50.00041" lon="4.47395">
        <ele>313.4</ele>
        <time>2024-03-17T09:36:01Z</time>
      </trkpt>
      <trkpt lat="50.0005" lon="4.47389">
        <ele>312</ele>
        <time>2024-03-17T09:36:02Z</time>
      </trkpt>
      <trkpt lat="50.00059" lon="4.47384">
        <ele>312</ele>
        <time>2024-03-17T09:36:03Z</time>
      </trkpt>
      <trkpt lat="50.00067" lon="4.47379">
        <ele>311.2</ele>
        <time>2024-03-17T09:36:04Z</time>
      </trkpt>
      <trkpt lat="50.00073" lon="4.47372">
        <ele>310.4</ele>
        <time>2024-03-17T09:36:05Z</time>
      </trkpt>
      <trkpt lat="50.00077" lon="4.47363">
        <ele>310.4</ele>
        <time>2024-03-17T09:36:06Z</time>
      </trkpt>
      <trkpt lat="50.00077" lon="4.47352">
        <ele>310</ele>
        <time>2024-03-17T09:36:07Z</time>
      </trkpt>
      <trkpt lat="50.00077" lon="4.47341">
        <ele>309.8</ele>
        <time>2024-03-17T09:36:08Z</time>
      </trkpt>
      <trkpt lat="50.00078" lon="4.4733">
        <ele>309.8</ele>
        <time>2024-03-17T09:36:09Z</time>
      </trkpt>
      <trkpt lat="50.00079" lon="4.4732">
        <ele>309.6</ele>
        <time>2024-03-17T09:36:10Z</time>
      </trkpt>
      <trkpt lat="50.00081" lon="4.4731">
        <ele>309.8</ele>
        <time>2024-03-17T09:36:11Z</time>
      </trkpt>
      <trkpt lat="50.00084" lon="4.473">
        <ele>309.6</ele>
        <time>2024-03-17T09:36:12Z</time>
      </trkpt>
      <trkpt lat="50.00086" lon="4.47292">
        <ele>309.6</ele>
        <time>2024-03-17T09:36:13Z</time>
      </trkpt>
      <trkpt lat="50.00088" lon="4.47283">
        <ele>309.8</ele>
        <time>2024-03-17T09:36:14Z</time>
      </trkpt>
      <trkpt lat="50.0009" lon="4.47274">
        <ele>309.8</ele>
        <time>2024-03-17T09:36:15Z</time>
      </trkpt>
      <trkpt lat="50.00092" lon="4.47265">
        <ele>310</ele>
        <time>2024-03-17T09:36:16Z</time>
      </trkpt>
      <trkpt lat="50.00094" lon="4.47257">
        <ele>310.2</ele>
        <time>2024-03-17T09:36:17Z</time>
      </trkpt>
      <trkpt lat="50.00096" lon="4.47248">
        <ele>310.6</ele>
        <time>2024-03-17T09:36:18Z</time>
      </trkpt>
      <trkpt lat="50.00098" lon="4.4724">
        <ele>310.6</ele>
        <time>2024-03-17T09:36:19Z</time>
      </trkpt>
      <trkpt lat="50.00099" lon="4.47231">
        <ele>310.6</ele>
        <time>2024-03-17T09:36:20Z</time>
      </trkpt>
      <trkpt lat="50.00101" lon="4.47223">
        <ele>310.8</ele>
        <time>2024-03-17T09:36:21Z</time>
      </trkpt>
      <trkpt lat="50.00103" lon="4.47214">
        <ele>310.8</ele>
        <time>2024-03-17T09:36:22Z</time>
      </trkpt>
      <trkpt lat="50.00104" lon="4.47206">
        <ele>311</ele>
        <time>2024-03-17T09:36:23Z</time>
      </trkpt>
      <trkpt lat="50.00105" lon="4.47197">
        <ele>311.4</ele>
        <time>2024-03-17T09:36:24Z</time>
      </trkpt>
      <trkpt lat="50.00107" lon="4.47189">
        <ele>311.8</ele>
        <time>2024-03-17T09:36:25Z</time>
      </trkpt>
      <trkpt lat="50.00108" lon="4.47181">
        <ele>311.8</ele>
        <time>2024-03-17T09:36:26Z</time>
      </trkpt>
      <trkpt lat="50.0011" lon="4.47173">
        <ele>312</ele>
        <time>2024-03-17T09:36:27Z</time>
      </trkpt>
      <trkpt lat="50.00112" lon="4.47164">
        <ele>312.2</ele>
        <time>2024-03-17T09:36:28Z</time>
      </trkpt>
      <trkpt lat="50.00114" lon="4.47156">
        <ele>312.2</ele>
        <time>2024-03-17T09:36:29Z</time>
      </trkpt>
      <trkpt lat="50.00116" lon="4.47147">
        <ele>312.2</ele>
        <time>2024-03-17T09:36:30Z</time>
      </trkpt>
      <trkpt lat="50.00118" lon="4.47138">
        <ele>312.6</ele>
        <time>2024-03-17T09:36:31Z</time>
      </trkpt>
      <trkpt lat="50.00119" lon="4.47129">
        <ele>312.6</ele>
        <time>2024-03-17T09:36:32Z</time>
      </trkpt>
      <trkpt lat="50.00121" lon="4.47121">
        <ele>312.6</ele>
        <time>2024-03-17T09:36:33Z</time>
      </trkpt>
      <trkpt lat="50.00123" lon="4.47113">
        <ele>312.6</ele>
        <time>2024-03-17T09:36:34Z</time>
      </trkpt>
      <trkpt lat="50.00125" lon="4.47105">
        <ele>312.8</ele>
        <time>2024-03-17T09:36:35Z</time>
      </trkpt>
      <trkpt lat="50.00127" lon="4.47096">
        <ele>312.8</ele>
        <time>2024-03-17T09:36:36Z</time>
      </trkpt>
      <trkpt lat="50.00128" lon="4.47087">
        <ele>313.4</ele>
        <time>2024-03-17T09:36:37Z</time>
      </trkpt>
      <trkpt lat="50.0013" lon="4.47078">
        <ele>313.6</ele>
        <time>2024-03-17T09:36:38Z</time>
      </trkpt>
      <trkpt lat="50.00132" lon="4.4707">
        <ele>313.8</ele>
        <time>2024-03-17T09:36:39Z</time>
      </trkpt>
      <trkpt lat="50.00133" lon="4.4706">
        <ele>313.8</ele>
        <time>2024-03-17T09:36:40Z</time>
      </trkpt>
      <trkpt lat="50.00135" lon="4.47051">
        <ele>314.2</ele>
        <time>2024-03-17T09:36:41Z</time>
      </trkpt>
      <trkpt lat="50.00136" lon="4.47042">
        <ele>314.6</ele>
        <time>2024-03-17T09:36:42Z</time>
      </trkpt>
      <trkpt lat="50.00138" lon="4.47034">
        <ele>314.8</ele>
        <time>2024-03-17T09:36:43Z</time>
      </trkpt>
      <trkpt lat="50.0014" lon="4.47026">
        <ele>315</ele>
        <time>2024-03-17T09:36:44Z</time>
      </trkpt>
      <trkpt lat="50.00141" lon="4.47016">
        <ele>315</ele>
        <time>2024-03-17T09:36:45Z</time>
      </trkpt>
      <trkpt lat="50.00143" lon="4.47007">
        <ele>315.2</ele>
        <time>2024-03-17T09:36:46Z</time>
      </trkpt>
      <trkpt lat="50.00144" lon="4.46997">
        <ele>315.4</ele>
        <time>2024-03-17T09:36:47Z</time>
      </trkpt>
      <trkpt lat="50.00146" lon="4.46988">
        <ele>315.4</ele>
        <time>2024-03-17T09:36:48Z</time>
      </trkpt>
      <trkpt lat="50.00147" lon="4.46978">
        <ele>315.6</ele>
        <time>2024-03-17T09:36:49Z</time>
      </trkpt>
      <trkpt lat="50.00148" lon="4.46968">
        <ele>315.6</ele>
        <time>2024-03-17T09:36:50Z</time>
      </trkpt>
      <trkpt lat="50.00149" lon="4.46959">
        <ele>315.8</ele>
        <time>2024-03-17T09:36:51Z</time>
      </trkpt>
      <trkpt lat="50.0015" lon="4.46948">
        <ele>315.8</ele>
        <time>2024-03-17T09:36:52Z</time>
      </trkpt>
      <trkpt lat="50.00153" lon="4.46938">
        <ele>315.8</ele>
        <time>2024-03-17T09:36:53Z</time>
      </trkpt>
      <trkpt lat="50.00155" lon="4.46927">
        <ele>316</ele>
        <time>2024-03-17T09:36:54Z</time>
      </trkpt>
      <trkpt lat="50.00157" lon="4.46915">
        <ele>316</ele>
        <time>2024-03-17T09:36:55Z</time>
      </trkpt>
      <trkpt lat="50.00159" lon="4.46903">
        <ele>315.8</ele>
        <time>2024-03-17T09:36:56Z</time>
      </trkpt>
      <trkpt lat="50.00161" lon="4.4689">
        <ele>315.8</ele>
        <time>2024-03-17T09:36:57Z</time>
      </trkpt>
      <trkpt lat="50.00161" lon="4.46877">
        <ele>316</ele>
        <time>2024-03-17T09:36:58Z</time>
      </trkpt>
      <trkpt lat="50.00162" lon="4.46863">
        <ele>315.8</ele>
        <time>2024-03-17T09:36:59Z</time>
      </trkpt>
      <trkpt lat="50.00163" lon="4.46851">
        <ele>316</ele>
        <time>2024-03-17T09:37:00Z</time>
      </trkpt>
      <trkpt lat="50.00164" lon="4.46839">
        <ele>316</ele>
        <time>2024-03-17T09:37:01Z</time>
      </trkpt>
      <trkpt lat="50.00165" lon="4.46828">
        <ele>316</ele>
        <time>2024-03-17T09:37:02Z</time>
      </trkpt>
      <trkpt lat="50.00165" lon="4.46817">
        <ele>316</ele>
        <time>2024-03-17T09:37:03Z</time>
      </trkpt>
      <trkpt lat="50.00166" lon="4.46806">
        <ele>315.8</ele>
        <time>2024-03-17T09:37:04Z</time>
      </trkpt>
      <trkpt lat="50.00167" lon="4.46796">
        <ele>315.8</ele>
        <time>2024-03-17T09:37:05Z</time>
      </trkpt>
      <trkpt lat="50.00168" lon="4.46786">
        <ele>315.6</ele>
        <time>2024-03-17T09:37:06Z</time>
      </trkpt>
      <trkpt lat="50.00169" lon="4.46774">
        <ele>315.6</ele>
        <time>2024-03-17T09:37:07Z</time>
      </trkpt>
      <trkpt lat="50.0017" lon="4.46762">
        <ele>315.6</ele>
        <time>2024-03-17T09:37:08Z</time>
      </trkpt>
      <trkpt lat="50.00172" lon="4.46749">
        <ele>315.6</ele>
        <time>2024-03-17T09:37:09Z</time>
      </trkpt>
      <trkpt lat="50.00173" lon="4.46736">
        <ele>315.6</ele>
        <time>2024-03-17T09:37:10Z</time>
      </trkpt>
      <trkpt lat="50.00174" lon="4.46723">
        <ele>315.4</ele>
        <time>2024-03-17T09:37:11Z</time>
      </trkpt>
      <trkpt lat="50.00175" lon="4.4671">
        <ele>315.4</ele>
        <time>2024-03-17T09:37:12Z</time>
      </trkpt>
      <trkpt lat="50.00176" lon="4.46697">
        <ele>315.4</ele>
        <time>2024-03-17T09:37:13Z</time>
      </trkpt>
      <trkpt lat="50.00177" lon="4.46685">
        <ele>315.4</ele>
        <time>2024-03-17T09:37:14Z</time>
      </trkpt>
      <trkpt lat="50.00178" lon="4.46673">
        <ele>315.4</ele>
        <time>2024-03-17T09:37:15Z</time>
      </trkpt>
      <trkpt lat="50.00179" lon="4.46661">
        <ele>315.6</ele>
        <time>2024-03-17T09:37:16Z</time>
      </trkpt>
      <trkpt lat="50.00179" lon="4.4665">
        <ele>315.6</ele>
        <time>2024-03-17T09:37:17Z</time>
      </trkpt>
      <trkpt lat="50.00179" lon="4.46638">
        <ele>315.6</ele>
        <time>2024-03-17T09:37:18Z</time>
      </trkpt>
      <trkpt lat="50.00179" lon="4.46628">
        <ele>315.6</ele>
        <time>2024-03-17T09:37:19Z</time>
      </trkpt>
      <trkpt lat="50.00179" lon="4.46617">
        <ele>315.6</ele>
        <time>2024-03-17T09:37:20Z</time>
      </trkpt>
      <trkpt lat="50.00179" lon="4.46607">
        <ele>315.6</ele>
        <time>2024-03-17T09:37:21Z</time>
      </trkpt>
      <trkpt lat="50.00179" lon="4.46597">
        <ele>315.4</ele>
        <time>2024-03-17T09:37:22Z</time>
      </trkpt>
      <trkpt lat="50.00179" lon="4.46588">
        <ele>315.4</ele>
        <time>2024-03-17T09:37:23Z</time>
      </trkpt>
      <trkpt lat="50.00179" lon="4.46579">
        <ele>315.4</ele>
        <time>2024-03-17T09:37:24Z</time>
      </trkpt>
      <trkpt lat="50.00178" lon="4.46571">
        <ele>315.4</ele>
        <time>2024-03-17T09:37:25Z</time>
      </trkpt>
      <trkpt lat="50.00178" lon="4.46562">
        <ele>315.8</ele>
        <time>2024-03-17T09:37:26Z</time>
      </trkpt>
      <trkpt lat="50.00178" lon="4.46554">
        <ele>315.8</ele>
        <time>2024-03-17T09:37:27Z</time>
      </trkpt>
      <trkpt lat="50.00177" lon="4.46546">
        <ele>315.8</ele>
        <time>2024-03-17T09:37:28Z</time>
      </trkpt>
      <trkpt lat="50.00177" lon="4.46539">
        <ele>315.8</ele>
        <time>2024-03-17T09:37:29Z</time>
      </trkpt>
      <trkpt lat="50.00177" lon="4.46531">
        <ele>315.8</ele>
        <time>2024-03-17T09:37:30Z</time>
      </trkpt>
      <trkpt lat="50.00177" lon="4.46525">
        <ele>316</ele>
        <time>2024-03-17T09:37:31Z</time>
      </trkpt>
      <trkpt lat="50.00176" lon="4.46518">
        <ele>316.2</ele>
        <time>2024-03-17T09:37:32Z</time>
      </trkpt>
      <trkpt lat="50.00175" lon="4.46512">
        <ele>316.2</ele>
        <time>2024-03-17T09:37:33Z</time>
      </trkpt>
      <trkpt lat="50.00174" lon="4.46505">
        <ele>317</ele>
        <time>2024-03-17T09:37:34Z</time>
      </trkpt>
      <trkpt lat="50.00173" lon="4.46499">
        <ele>317.8</ele>
        <time>2024-03-17T09:37:35Z</time>
      </trkpt>
      <trkpt lat="50.00173" lon="4.46492">
        <ele>318.6</ele>
        <time>2024-03-17T09:37:36Z</time>
      </trkpt>
      <trkpt lat="50.00172" lon="4.46486">
        <ele>319</ele>
        <time>2024-03-17T09:37:37Z</time>
      </trkpt>
      <trkpt lat="50.00171" lon="4.4648">
        <ele>319.2</ele>
        <time>2024-03-17T09:37:38Z</time>
      </trkpt>
      <trkpt lat="50.0017" lon="4.46473">
        <ele>319.4</ele>
        <time>2024-03-17T09:37:39Z</time>
      </trkpt>
      <trkpt lat="50.0017" lon="4.46467">
        <ele>319.6</ele>
        <time>2024-03-17T09:37:40Z</time>
      </trkpt>
      <trkpt lat="50.0017" lon="4.46461">
        <ele>319.8</ele>
        <time>2024-03-17T09:37:41Z</time>
      </trkpt>
      <trkpt lat="50.00169" lon="4.46454">
        <ele>320.2</ele>
        <time>2024-03-17T09:37:42Z</time>
      </trkpt>
      <trkpt lat="50.00169" lon="4.46448">
        <ele>320.6</ele>
        <time>2024-03-17T09:37:43Z</time>
      </trkpt>
      <trkpt lat="50.00169" lon="4.46442">
        <ele>320.8</ele>
        <time>2024-03-17T09:37:44Z</time>
      </trkpt>
      <trkpt lat="50.00168" lon="4.46436">
        <ele>321</ele>
        <time>2024-03-17T09:37:45Z</time>
      </trkpt>
      <trkpt lat="50.00168" lon="4.4643">
        <ele>321.4</ele>
        <time>2024-03-17T09:37:46Z</time>
      </trkpt>
      <trkpt lat="50.00167" lon="4.46424">
        <ele>321.6</ele>
        <time>2024-03-17T09:37:47Z</time>
      </trkpt>
      <trkpt lat="50.00166" lon="4.46418">
        <ele>321.8</ele>
        <time>2024-03-17T09:37:48Z</time>
      </trkpt>
      <trkpt lat="50.00165" lon="4.46413">
        <ele>322.2</ele>
        <time>2024-03-17T09:37:49Z</time>
      </trkpt>
      <trkpt lat="50.00164" lon="4.46407">
        <ele>322.4</ele>
        <time>2024-03-17T09:37:50Z</time>
      </trkpt>
      <trkpt lat="50.00164" lon="4.46401">
        <ele>322.8</ele>
        <time>2024-03-17T09:37:51Z</time>
      </trkpt>
      <trkpt lat="50.00163" lon="4.46395">
        <ele>322.8</ele>
        <time>2024-03-17T09:37:52Z</time>
      </trkpt>
      <trkpt lat="50.00162" lon="4.46389">
        <ele>323.2</ele>
        <time>2024-03-17T09:37:53Z</time>
      </trkpt>
      <trkpt lat="50.00162" lon="4.46383">
        <ele>323.2</ele>
        <time>2024-03-17T09:37:54Z</time>
      </trkpt>
      <trkpt lat="50.00161" lon="4.46378">
        <ele>323.4</ele>
        <time>2024-03-17T09:37:55Z</time>
      </trkpt>
      <trkpt lat="50.0016" lon="4.46373">
        <ele>323.6</ele>
        <time>2024-03-17T09:37:56Z</time>
      </trkpt>
      <trkpt lat="50.00159" lon="4.46367">
        <ele>324</ele>
        <time>2024-03-17T09:37:57Z</time>
      </trkpt>
      <trkpt lat="50.00157" lon="4.46362">
        <ele>324</ele>
        <time>2024-03-17T09:37:58Z</time>
      </trkpt>
      <trkpt lat="50.00156" lon="4.46356">
        <ele>324.4</ele>
        <time>2024-03-17T09:37:59Z</time>
      </trkpt>
      <trkpt lat="50.00155" lon="4.46351">
        <ele>324.6</ele>
        <time>2024-03-17T09:38:00Z</time>
      </trkpt>
      <trkpt lat="50.00155" lon="4.46345">
        <ele>325</ele>
        <time>2024-03-17T09:38:01Z</time>
      </trkpt>
      <trkpt lat="50.00154" lon="4.46339">
        <ele>325.4</ele>
        <time>2024-03-17T09:38:02Z</time>
      </trkpt>
      <trkpt lat="50.00154" lon="4.46334">
        <ele>325.4</ele>
        <time>2024-03-17T09:38:03Z</time>
      </trkpt>
      <trkpt lat="50.00153" lon="4.46328">
        <ele>325.8</ele>
        <time>2024-03-17T09:38:04Z</time>
      </trkpt>
      <trkpt lat="50.00153" lon="4.46323">
        <ele>326.2</ele>
        <time>2024-03-17T09:38:05Z</time>
      </trkpt>
      <trkpt lat="50.00152" lon="4.46317">
        <ele>326.4</ele>
        <time>2024-03-17T09:38:06Z</time>
      </trkpt>
      <trkpt lat="50.00152" lon="4.46312">
        <ele>326.8</ele>
        <time>2024-03-17T09:38:07Z</time>
      </trkpt>
      <trkpt lat="50.00151" lon="4.46307">
        <ele>326.8</ele>
        <time>2024-03-17T09:38:08Z</time>
      </trkpt>
      <trkpt lat="50.0015" lon="4.46302">
        <ele>326.8</ele>
        <time>2024-03-17T09:38:09Z</time>
      </trkpt>
      <trkpt lat="50.0015" lon="4.46296">
        <ele>327</ele>
        <time>2024-03-17T09:38:10Z</time>
      </trkpt>
      <trkpt lat="50.00149" lon="4.46291">
        <ele>327.2</ele>
        <time>2024-03-17T09:38:11Z</time>
      </trkpt>
      <trkpt lat="50.00148" lon="4.46286">
        <ele>327.4</ele>
        <time>2024-03-17T09:38:12Z</time>
      </trkpt>
      <trkpt lat="50.00147" lon="4.46281">
        <ele>327.6</ele>
        <time>2024-03-17T09:38:13Z</time>
      </trkpt>
      <trkpt lat="50.00146" lon="4.46277">
        <ele>327.6</ele>
        <time>2024-03-17T09:38:14Z</time>
      </trkpt>
      <trkpt lat="50.00145" lon="4.46272">
        <ele>327.8</ele>
        <time>2024-03-17T09:38:15Z</time>
      </trkpt>
      <trkpt lat="50.00144" lon="4.46267">
        <ele>328.2</ele>
        <time>2024-03-17T09:38:16Z</time>
      </trkpt>
      <trkpt lat="50.00143" lon="4.46262">
        <ele>328.6</ele>
        <time>2024-03-17T09:38:17Z</time>
      </trkpt>
      <trkpt lat="50.00142" lon="4.46258">
        <ele>329</ele>
        <time>2024-03-17T09:38:18Z</time>
      </trkpt>
      <trkpt lat="50.00141" lon="4.46253">
        <ele>329.2</ele>
        <time>2024-03-17T09:38:19Z</time>
      </trkpt>
      <trkpt lat="50.0014" lon="4.46248">
        <ele>329.4</ele>
        <time>2024-03-17T09:38:20Z</time>
      </trkpt>
      <trkpt lat="50.00139" lon="4.46244">
        <ele>329.6</ele>
        <time>2024-03-17T09:38:21Z</time>
      </trkpt>
      <trkpt lat="50.00137" lon="4.46239">
        <ele>329.8</ele>
        <time>2024-03-17T09:38:22Z</time>
      </trkpt>
      <trkpt lat="50.00136" lon="4.46235">
        <ele>330</ele>
        <time>2024-03-17T09:38:23Z</time>
      </trkpt>
      <trkpt lat="50.00134" lon="4.4623">
        <ele>330.4</ele>
        <time>2024-03-17T09:38:24Z</time>
      </trkpt>
      <trkpt lat="50.00133" lon="4.46225">
        <ele>330.4</ele>
        <time>2024-03-17T09:38:25Z</time>
      </trkpt>
      <trkpt lat="50.00132" lon="4.46221">
        <ele>330.4</ele>
        <time>2024-03-17T09:38:26Z</time>
      </trkpt>
      <trkpt lat="50.0013" lon="4.46216">
        <ele>330.6</ele>
        <time>2024-03-17T09:38:27Z</time>
      </trkpt>
      <trkpt lat="50.00129" lon="4.46211">
        <ele>330.8</ele>
        <time>2024-03-17T09:38:28Z</time>
      </trkpt>
      <trkpt lat="50.00127" lon="4.46206">
        <ele>330.8</ele>
        <time>2024-03-17T09:38:29Z</time>
      </trkpt>
      <trkpt lat="50.00125" lon="4.46201">
        <ele>331</ele>
        <time>2024-03-17T09:38:30Z</time>
      </trkpt>
      <trkpt lat="50.00123" lon="4.46196">
        <ele>331</ele>
        <time>2024-03-17T09:38:31Z</time>
      </trkpt>
      <trkpt lat="50.00122" lon="4.46191">
        <ele>331.4</ele>
        <time>2024-03-17T09:38:32Z</time>
      </trkpt>
      <trkpt lat="50.0012" lon="4.46185">
        <ele>331.4</ele>
        <time>2024-03-17T09:38:33Z</time>
      </trkpt>
      <trkpt lat="50.00118" lon="4.46179">
        <ele>331.4</ele>
        <time>2024-03-17T09:38:34Z</time>
      </trkpt>
      <trkpt lat="50.00116" lon="4.46173">
        <ele>331.4</ele>
        <time>2024-03-17T09:38:35Z</time>
      </trkpt>
      <trkpt lat="50.00114" lon="4.46167">
        <ele>331.8</ele>
        <time>2024-03-17T09:38:36Z</time>
      </trkpt>
      <trkpt lat="50.00112" lon="4.46161">
        <ele>331.8</ele>
        <time>2024-03-17T09:38:37Z</time>
      </trkpt>
      <trkpt lat="50.0011" lon="4.46155">
        <ele>332</ele>
        <time>2024-03-17T09:38:38Z</time>
      </trkpt>
      <trkpt lat="50.00107" lon="4.46148">
        <ele>332.2</ele>
        <time>2024-03-17T09:38:39Z</time>
      </trkpt>
      <trkpt lat="50.00105" lon="4.46141">
        <ele>332.2</ele>
        <time>2024-03-17T09:38:40Z</time>
      </trkpt>
      <trkpt lat="50.00103" lon="4.46135">
        <ele>332.2</ele>
        <time>2024-03-17T09:38:41Z</time>
      </trkpt>
      <trkpt lat="50.001" lon="4.46127">
        <ele>332.4</ele>
        <time>2024-03-17T09:38:42Z</time>
      </trkpt>
      <trkpt lat="50.00098" lon="4.4612">
        <ele>332.4</ele>
        <time>2024-03-17T09:38:43Z</time>
      </trkpt>
      <trkpt lat="50.00096" lon="4.46112">
        <ele>332.2</ele>
        <time>2024-03-17T09:38:44Z</time>
      </trkpt>
      <trkpt lat="50.00095" lon="4.46104">
        <ele>332.4</ele>
        <time>2024-03-17T09:38:45Z</time>
      </trkpt>
      <trkpt lat="50.00095" lon="4.46095">
        <ele>332.2</ele>
        <time>2024-03-17T09:38:46Z</time>
      </trkpt>
      <trkpt lat="50.00096" lon="4.46085">
        <ele>332.2</ele>
        <time>2024-03-17T09:38:47Z</time>
      </trkpt>
      <trkpt lat="50.00097" lon="4.46075">
        <ele>332.4</ele>
        <time>2024-03-17T09:38:48Z</time>
      </trkpt>
      <trkpt lat="50.00099" lon="4.46065">
        <ele>332.4</ele>
        <time>2024-03-17T09:38:49Z</time>
      </trkpt>
      <trkpt lat="50.001" lon="4.46054">
        <ele>332.4</ele>
        <time>2024-03-17T09:38:50Z</time>
      </trkpt>
      <trkpt lat="50.00102" lon="4.46043">
        <ele>332</ele>
        <time>2024-03-17T09:38:51Z</time>
      </trkpt>
      <trkpt lat="50.00104" lon="4.46032">
        <ele>332</ele>
        <time>2024-03-17T09:38:52Z</time>
      </trkpt>
      <trkpt lat="50.00105" lon="4.4602">
        <ele>332</ele>
        <time>2024-03-17T09:38:53Z</time>
      </trkpt>
      <trkpt lat="50.00107" lon="4.46008">
        <ele>331.8</ele>
        <time>2024-03-17T09:38:54Z</time>
      </trkpt>
      <trkpt lat="50.00109" lon="4.45996">
        <ele>331.6</ele>
        <time>2024-03-17T09:38:55Z</time>
      </trkpt>
      <trkpt lat="50.00111" lon="4.45983">
        <ele>331.6</ele>
        <time>2024-03-17T09:38:56Z</time>
      </trkpt>
      <trkpt lat="50.00112" lon="4.4597">
        <ele>331.6</ele>
        <time>2024-03-17T09:38:57Z</time>
      </trkpt>
      <trkpt lat="50.00113" lon="4.45957">
        <ele>331.2</ele>
        <time>2024-03-17T09:38:58Z</time>
      </trkpt>
      <trkpt lat="50.00112" lon="4.45943">
        <ele>331.2</ele>
        <time>2024-03-17T09:38:59Z</time>
      </trkpt>
      <trkpt lat="50.00111" lon="4.45929">
        <ele>330.6</ele>
        <time>2024-03-17T09:39:00Z</time>
      </trkpt>
      <trkpt lat="50.00108" lon="4.45916">
        <ele>330.2</ele>
        <time>2024-03-17T09:39:01Z</time>
      </trkpt>
      <trkpt lat="50.00105" lon="4.45903">
        <ele>329.8</ele>
        <time>2024-03-17T09:39:02Z</time>
      </trkpt>
      <trkpt lat="50.00102" lon="4.4589">
        <ele>329.4</ele>
        <time>2024-03-17T09:39:03Z</time>
      </trkpt>
      <trkpt lat="50.00098" lon="4.45877">
        <ele>328.8</ele>
        <time>2024-03-17T09:39:04Z</time>
      </trkpt>
      <trkpt lat="50.00095" lon="4.45865">
        <ele>328</ele>
        <time>2024-03-17T09:39:05Z</time>
      </trkpt>
      <trkpt lat="50.00092" lon="4.45852">
        <ele>327.6</ele>
        <time>2024-03-17T09:39:06Z</time>
      </trkpt>
      <trkpt lat="50.00089" lon="4.4584">
        <ele>327.2</ele>
        <time>2024-03-17T09:39:07Z</time>
      </trkpt>
      <trkpt lat="50.00085" lon="4.45828">
        <ele>326.4</ele>
        <time>2024-03-17T09:39:08Z</time>
      </trkpt>
      <trkpt lat="50.00082" lon="4.45817">
        <ele>326</ele>
        <time>2024-03-17T09:39:09Z</time>
      </trkpt>
      <trkpt lat="50.00078" lon="4.45807">
        <ele>325.4</ele>
        <time>2024-03-17T09:39:10Z</time>
      </trkpt>
      <trkpt lat="50.00076" lon="4.45797">
        <ele>325.2</ele>
        <time>2024-03-17T09:39:11Z</time>
      </trkpt>
      <trkpt lat="50.00073" lon="4.45788">
        <ele>325.2</ele>
        <time>2024-03-17T09:39:12Z</time>
      </trkpt>
      <trkpt lat="50.00071" lon="4.4578">
        <ele>325.2</ele>
        <time>2024-03-17T09:39:13Z</time>
      </trkpt>
      <trkpt lat="50.00069" lon="4.45772">
        <ele>325</ele>
        <time>2024-03-17T09:39:14Z</time>
      </trkpt>
      <trkpt lat="50.00068" lon="4.45764">
        <ele>325</ele>
        <time>2024-03-17T09:39:15Z</time>
      </trkpt>
      <trkpt lat="50.00066" lon="4.45755">
        <ele>325</ele>
        <time>2024-03-17T09:39:16Z</time>
      </trkpt>
      <trkpt lat="50.00064" lon="4.45747">
        <ele>325</ele>
        <time>2024-03-17T09:39:17Z</time>
      </trkpt>
      <trkpt lat="50.00061" lon="4.45738">
        <ele>325</ele>
        <time>2024-03-17T09:39:18Z</time>
      </trkpt>
      <trkpt lat="50.00059" lon="4.4573">
        <ele>325</ele>
        <time>2024-03-17T09:39:19Z</time>
      </trkpt>
      <trkpt lat="50.00057" lon="4.45723">
        <ele>325</ele>
        <time>2024-03-17T09:39:20Z</time>
      </trkpt>
      <trkpt lat="50.00055" lon="4.45715">
        <ele>325</ele>
        <time>2024-03-17T09:39:21Z</time>
      </trkpt>
      <trkpt lat="50.00053" lon="4.45707">
        <ele>325.4</ele>
        <time>2024-03-17T09:39:22Z</time>
      </trkpt>
      <trkpt lat="50.00051" lon="4.45699">
        <ele>326</ele>
        <time>2024-03-17T09:39:23Z</time>
      </trkpt>
      <trkpt lat="50.00049" lon="4.4569">
        <ele>326</ele>
        <time>2024-03-17T09:39:24Z</time>
      </trkpt>
      <trkpt lat="50.00047" lon="4.45682">
        <ele>326.2</ele>
        <time>2024-03-17T09:39:25Z</time>
      </trkpt>
      <trkpt lat="50.00045" lon="4.45674">
        <ele>326.2</ele>
        <time>2024-03-17T09:39:26Z</time>
      </trkpt>
      <trkpt lat="50.00043" lon="4.45666">
        <ele>326.2</ele>
        <time>2024-03-17T09:39:27Z</time>
      </trkpt>
      <trkpt lat="50.00041" lon="4.45658">
        <ele>326.6</ele>
        <time>2024-03-17T09:39:28Z</time>
      </trkpt>
      <trkpt lat="50.00039" lon="4.45651">
        <ele>326.8</ele>
        <time>2024-03-17T09:39:29Z</time>
      </trkpt>
      <trkpt lat="50.00038" lon="4.45643">
        <ele>327.2</ele>
        <time>2024-03-17T09:39:30Z</time>
      </trkpt>
      <trkpt lat="50.00036" lon="4.45635">
        <ele>327.6</ele>
        <time>2024-03-17T09:39:31Z</time>
      </trkpt>
      <trkpt lat="50.00034" lon="4.45627">
        <ele>327.8</ele>
        <time>2024-03-17T09:39:32Z</time>
      </trkpt>
      <trkpt lat="50.00032" lon="4.4562">
        <ele>328</ele>
        <time>2024-03-17T09:39:33Z</time>
      </trkpt>
      <trkpt lat="50.00031" lon="4.45612">
        <ele>328.2</ele>
        <time>2024-03-17T09:39:34Z</time>
      </trkpt>
      <trkpt lat="50.00029" lon="4.45604">
        <ele>328.4</ele>
        <time>2024-03-17T09:39:35Z</time>
      </trkpt>
      <trkpt lat="50.00027" lon="4.45597">
        <ele>328.4</ele>
        <time>2024-03-17T09:39:36Z</time>
      </trkpt>
      <trkpt lat="50.00025" lon="4.45589">
        <ele>329.2</ele>
        <time>2024-03-17T09:39:37Z</time>
      </trkpt>
      <trkpt lat="50.00023" lon="4.45581">
        <ele>329.2</ele>
        <time>2024-03-17T09:39:38Z</time>
      </trkpt>
      <trkpt lat="50.00022" lon="4.45574">
        <ele>329.4</ele>
        <time>2024-03-17T09:39:39Z</time>
      </trkpt>
      <trkpt lat="50.0002" lon="4.45567">
        <ele>329.4</ele>
        <time>2024-03-17T09:39:40Z</time>
      </trkpt>
      <trkpt lat="50.00019" lon="4.4556">
        <ele>329.8</ele>
        <time>2024-03-17T09:39:41Z</time>
      </trkpt>
      <trkpt lat="50.00017" lon="4.45552">
        <ele>330</ele>
        <time>2024-03-17T09:39:42Z</time>
      </trkpt>
      <trkpt lat="50.00015" lon="4.45545">
        <ele>330</ele>
        <time>2024-03-17T09:39:43Z</time>
      </trkpt>
      <trkpt lat="50.00013" lon="4.45538">
        <ele>330</ele>
        <time>2024-03-17T09:39:44Z</time>
      </trkpt>
      <trkpt lat="50.00011" lon="4.4553">
        <ele>330.2</ele>
        <time>2024-03-17T09:39:45Z</time>
      </trkpt>
      <trkpt lat="50.00009" lon="4.45523">
        <ele>330.6</ele>
        <time>2024-03-17T09:39:46Z</time>
      </trkpt>
      <trkpt lat="50.00008" lon="4.45515">
        <ele>330.6</ele>
        <time>2024-03-17T09:39:47Z</time>
      </trkpt>
      <trkpt lat="50.00006" lon="4.45508">
        <ele>331</ele>
        <time>2024-03-17T09:39:48Z</time>
      </trkpt>
      <trkpt lat="50.00003" lon="4.455">
        <ele>331.4</ele>
        <time>2024-03-17T09:39:49Z</time>
      </trkpt>
      <trkpt lat="50.00002" lon="4.45493">
        <ele>331.6</ele>
        <time>2024-03-17T09:39:50Z</time>
      </trkpt>
      <trkpt lat="50" lon="4.45486">
        <ele>332</ele>
        <time>2024-03-17T09:39:51Z</time>
      </trkpt>
      <trkpt lat="49.99998" lon="4.45479">
        <ele>332</ele>
        <time>2024-03-17T09:39:52Z</time>
      </trkpt>
      <trkpt lat="49.99996" lon="4.45472">
        <ele>332.2</ele>
        <time>2024-03-17T09:39:53Z</time>
      </trkpt>
      <trkpt lat="49.99995" lon="4.45465">
        <ele>332.2</ele>
        <time>2024-03-17T09:39:54Z</time>
      </trkpt>
      <trkpt lat="49.99992" lon="4.45458">
        <ele>332.6</ele>
        <time>2024-03-17T09:39:55Z</time>
      </trkpt>
      <trkpt lat="49.9999" lon="4.4545">
        <ele>332.6</ele>
        <time>2024-03-17T09:39:56Z</time>
      </trkpt>
      <trkpt lat="49.99988" lon="4.45443">
        <ele>332.6</ele>
        <time>2024-03-17T09:39:57Z</time>
      </trkpt>
      <trkpt lat="49.99986" lon="4.45436">
        <ele>332.8</ele>
        <time>2024-03-17T09:39:58Z</time>
      </trkpt>
      <trkpt lat="49.99985" lon="4.45428">
        <ele>332.8</ele>
        <time>2024-03-17T09:39:59Z</time>
      </trkpt>
      <trkpt lat="49.99983" lon="4.4542">
        <ele>333</ele>
        <time>2024-03-17T09:40:00Z</time>
      </trkpt>
      <trkpt lat="49.99981" lon="4.45413">
        <ele>333.2</ele>
        <time>2024-03-17T09:40:01Z</time>
      </trkpt>
      <trkpt lat="49.99979" lon="4.45406">
        <ele>333.4</ele>
        <time>2024-03-17T09:40:02Z</time>
      </trkpt>
      <trkpt lat="49.99977" lon="4.45398">
        <ele>333.4</ele>
        <time>2024-03-17T09:40:03Z</time>
      </trkpt>
      <trkpt lat="49.99975" lon="4.45391">
        <ele>333.4</ele>
        <time>2024-03-17T09:40:04Z</time>
      </trkpt>
      <trkpt lat="49.99973" lon="4.45384">
        <ele>333.4</ele>
        <time>2024-03-17T09:40:05Z</time>
      </trkpt>
      <trkpt lat="49.99971" lon="4.45376">
        <ele>333.6</ele>
        <time>2024-03-17T09:40:06Z</time>
      </trkpt>
      <trkpt lat="49.99969" lon="4.45369">
        <ele>333.6</ele>
        <time>2024-03-17T09:40:07Z</time>
      </trkpt>
      <trkpt lat="49.99968" lon="4.45362">
        <ele>333.6</ele>
        <time>2024-03-17T09:40:08Z</time>
      </trkpt>
      <trkpt lat="49.99967" lon="4.45355">
        <ele>333.8</ele>
        <time>2024-03-17T09:40:09Z</time>
      </trkpt>
      <trkpt lat="49.99965" lon="4.45348">
        <ele>334</ele>
        <time>2024-03-17T09:40:10Z</time>
      </trkpt>
      <trkpt lat="49.99963" lon="4.45341">
        <ele>334</ele>
        <time>2024-03-17T09:40:11Z</time>
      </trkpt>
      <trkpt lat="49.99961" lon="4.45334">
        <ele>334.4</ele>
        <time>2024-03-17T09:40:12Z</time>
      </trkpt>
      <trkpt lat="49.99959" lon="4.45327">
        <ele>334.8</ele>
        <time>2024-03-17T09:40:13Z</time>
      </trkpt>
      <trkpt lat="49.99957" lon="4.4532">
        <ele>335</ele>
        <time>2024-03-17T09:40:14Z</time>
      </trkpt>
      <trkpt lat="49.99955" lon="4.45313">
        <ele>335</ele>
        <time>2024-03-17T09:40:15Z</time>
      </trkpt>
      <trkpt lat="49.99954" lon="4.45306">
        <ele>335.2</ele>
        <time>2024-03-17T09:40:16Z</time>
      </trkpt>
      <trkpt lat="49.99952" lon="4.453">
        <ele>335.2</ele>
        <time>2024-03-17T09:40:17Z</time>
      </trkpt>
      <trkpt lat="49.99951" lon="4.45293">
        <ele>335.2</ele>
        <time>2024-03-17T09:40:18Z</time>
      </trkpt>
      <trkpt lat="49.99949" lon="4.45287">
        <ele>335.4</ele>
        <time>2024-03-17T09:40:19Z</time>
      </trkpt>
      <trkpt lat="49.99947" lon="4.4528">
        <ele>335.6</ele>
        <time>2024-03-17T09:40:20Z</time>
      </trkpt>
      <trkpt lat="49.99945" lon="4.45274">
        <ele>335.8</ele>
        <time>2024-03-17T09:40:21Z</time>
      </trkpt>
      <trkpt lat="49.99943" lon="4.45267">
        <ele>335.8</ele>
        <time>2024-03-17T09:40:22Z</time>
      </trkpt>
      <trkpt lat="49.99941" lon="4.4526">
        <ele>336</ele>
        <time>2024-03-17T09:40:23Z</time>
      </trkpt>
      <trkpt lat="49.99939" lon="4.45253">
        <ele>336</ele>
        <time>2024-03-17T09:40:24Z</time>
      </trkpt>
      <trkpt lat="49.99937" lon="4.45246">
        <ele>336.2</ele>
        <time>2024-03-17T09:40:25Z</time>
      </trkpt>
      <trkpt lat="49.99934" lon="4.45238">
        <ele>336.2</ele>
        <time>2024-03-17T09:40:26Z</time>
      </trkpt>
      <trkpt lat="49.99932" lon="4.45231">
        <ele>336.4</ele>
        <time>2024-03-17T09:40:27Z</time>
      </trkpt>
      <trkpt lat="49.9993" lon="4.45223">
        <ele>336.6</ele>
        <time>2024-03-17T09:40:28Z</time>
      </trkpt>
      <trkpt lat="49.99928" lon="4.45214">
        <ele>337</ele>
        <time>2024-03-17T09:40:29Z</time>
      </trkpt>
      <trkpt lat="49.99926" lon="4.45206">
        <ele>337.2</ele>
        <time>2024-03-17T09:40:30Z</time>
      </trkpt>
      <trkpt lat="49.99924" lon="4.45197">
        <ele>337.6</ele>
        <time>2024-03-17T09:40:31Z</time>
      </trkpt>
      <trkpt lat="49.99922" lon="4.45189">
        <ele>338</ele>
        <time>2024-03-17T09:40:32Z</time>
      </trkpt>
      <trkpt lat="49.9992" lon="4.45181">
        <ele>338</ele>
        <time>2024-03-17T09:40:33Z</time>
      </trkpt>
      <trkpt lat="49.99918" lon="4.45173">
        <ele>338.4</ele>
        <time>2024-03-17T09:40:34Z</time>
      </trkpt>
      <trkpt lat="49.99916" lon="4.45164">
        <ele>338.4</ele>
        <time>2024-03-17T09:40:35Z</time>
      </trkpt>
      <trkpt lat="49.99914" lon="4.45156">
        <ele>338.6</ele>
        <time>2024-03-17T09:40:36Z</time>
      </trkpt>
      <trkpt lat="49.99912" lon="4.45148">
        <ele>339</ele>
        <time>2024-03-17T09:40:37Z</time>
      </trkpt>
      <trkpt lat="49.9991" lon="4.4514">
        <ele>339</ele>
        <time>2024-03-17T09:40:38Z</time>
      </trkpt>
      <trkpt lat="49.99908" lon="4.45132">
        <ele>339.2</ele>
        <time>2024-03-17T09:40:39Z</time>
      </trkpt>
      <trkpt lat="49.99906" lon="4.45124">
        <ele>339.4</ele>
        <time>2024-03-17T09:40:40Z</time>
      </trkpt>
      <trkpt lat="49.99904" lon="4.45116">
        <ele>339.4</ele>
        <time>2024-03-17T09:40:41Z</time>
      </trkpt>
      <trkpt lat="49.99903" lon="4.45108">
        <ele>339.4</ele>
        <time>2024-03-17T09:40:42Z</time>
      </trkpt>
      <trkpt lat="49.99902" lon="4.451">
        <ele>339.6</ele>
        <time>2024-03-17T09:40:43Z</time>
      </trkpt>
      <trkpt lat="49.999" lon="4.45091">
        <ele>339.6</ele>
        <time>2024-03-17T09:40:44Z</time>
      </trkpt>
      <trkpt lat="49.999" lon="4.45083">
        <ele>339.8</ele>
        <time>2024-03-17T09:40:45Z</time>
      </trkpt>
      <trkpt lat="49.999" lon="4.45074">
        <ele>339.8</ele>
        <time>2024-03-17T09:40:46Z</time>
      </trkpt>
      <trkpt lat="49.999" lon="4.45066">
        <ele>339.6</ele>
        <time>2024-03-17T09:40:47Z</time>
      </trkpt>
      <trkpt lat="49.999" lon="4.45057">
        <ele>339.8</ele>
        <time>2024-03-17T09:40:48Z</time>
      </trkpt>
      <trkpt lat="49.999" lon="4.45048">
        <ele>339.8</ele>
        <time>2024-03-17T09:40:49Z</time>
      </trkpt>
      <trkpt lat="49.99899" lon="4.45039">
        <ele>339.8</ele>
        <time>2024-03-17T09:40:50Z</time>
      </trkpt>
      <trkpt lat="49.99898" lon="4.4503">
        <ele>340</ele>
        <time>2024-03-17T09:40:51Z</time>
      </trkpt>
      <trkpt lat="49.99895" lon="4.45022">
        <ele>340</ele>
        <time>2024-03-17T09:40:52Z</time>
      </trkpt>
      <trkpt lat="49.99891" lon="4.45016">
        <ele>340</ele>
        <time>2024-03-17T09:40:53Z</time>
      </trkpt>
      <trkpt lat="49.99885" lon="4.45012">
        <ele>339.8</ele>
        <time>2024-03-17T09:40:54Z</time>
      </trkpt>
      <trkpt lat="49.99879" lon="4.4501">
        <ele>339.8</ele>
        <time>2024-03-17T09:40:55Z</time>
      </trkpt>
      <trkpt lat="49.99872" lon="4.4501">
        <ele>339.8</ele>
        <time>2024-03-17T09:40:56Z</time>
      </trkpt>
      <trkpt lat="49.99866" lon="4.45011">
        <ele>339.8</ele>
        <time>2024-03-17T09:40:57Z</time>
      </trkpt>
      <trkpt lat="49.9986" lon="4.45013">
        <ele>339.8</ele>
        <time>2024-03-17T09:40:58Z</time>
      </trkpt>
      <trkpt lat="49.99854" lon="4.45015">
        <ele>339.8</ele>
        <time>2024-03-17T09:40:59Z</time>
      </trkpt>
      <trkpt lat="49.99847" lon="4.45017">
        <ele>339.8</ele>
        <time>2024-03-17T09:41:00Z</time>
      </trkpt>
      <trkpt lat="49.99841" lon="4.45019">
        <ele>339.6</ele>
        <time>2024-03-17T09:41:01Z</time>
      </trkpt>
      <trkpt lat="49.99834" lon="4.45021">
        <ele>339.4</ele>
        <time>2024-03-17T09:41:02Z</time>
      </trkpt>
      <trkpt lat="49.99828" lon="4.45023">
        <ele>339.2</ele>
        <time>2024-03-17T09:41:03Z</time>
      </trkpt>
      <trkpt lat="49.99822" lon="4.45025">
        <ele>339</ele>
        <time>2024-03-17T09:41:04Z</time>
      </trkpt>
      <trkpt lat="49.99815" lon="4.45027">
        <ele>338.4</ele>
        <time>2024-03-17T09:41:05Z</time>
      </trkpt>
      <trkpt lat="49.99809" lon="4.4503">
        <ele>338.4</ele>
        <time>2024-03-17T09:41:06Z</time>
      </trkpt>
      <trkpt lat="49.99803" lon="4.45032">
        <ele>338.2</ele>
        <time>2024-03-17T09:41:07Z</time>
      </trkpt>
      <trkpt lat="49.99796" lon="4.45034">
        <ele>338</ele>
        <time>2024-03-17T09:41:08Z</time>
      </trkpt>
      <trkpt lat="49.9979" lon="4.45036">
        <ele>338</ele>
        <time>2024-03-17T09:41:09Z</time>
      </trkpt>
      <trkpt lat="49.99783" lon="4.45038">
        <ele>337.8</ele>
        <time>2024-03-17T09:41:10Z</time>
      </trkpt>
      <trkpt lat="49.99776" lon="4.4504">
        <ele>337.8</ele>
        <time>2024-03-17T09:41:11Z</time>
      </trkpt>
      <trkpt lat="49.99769" lon="4.45043">
        <ele>337.6</ele>
        <time>2024-03-17T09:41:12Z</time>
      </trkpt>
      <trkpt lat="49.99763" lon="4.45045">
        <ele>337.2</ele>
        <time>2024-03-17T09:41:13Z</time>
      </trkpt>
      <trkpt lat="49.99755" lon="4.45047">
        <ele>337</ele>
        <time>2024-03-17T09:41:14Z</time>
      </trkpt>
      <trkpt lat="49.99748" lon="4.45049">
        <ele>337.2</ele>
        <time>2024-03-17T09:41:15Z</time>
      </trkpt>
      <trkpt lat="49.99741" lon="4.4505">
        <ele>337</ele>
        <time>2024-03-17T09:41:16Z</time>
      </trkpt>
      <trkpt lat="49.99733" lon="4.45051">
        <ele>336.8</ele>
        <time>2024-03-17T09:41:17Z</time>
      </trkpt>
      <trkpt lat="49.99726" lon="4.45052">
        <ele>336.8</ele>
        <time>2024-03-17T09:41:18Z</time>
      </trkpt>
      <trkpt lat="49.99718" lon="4.45053">
        <ele>336.6</ele>
        <time>2024-03-17T09:41:19Z</time>
      </trkpt>
      <trkpt lat="49.9971" lon="4.45053">
        <ele>336.4</ele>
        <time>2024-03-17T09:41:20Z</time>
      </trkpt>
      <trkpt lat="49.99702" lon="4.45054">
        <ele>336.2</ele>
        <time>2024-03-17T09:41:21Z</time>
      </trkpt>
      <trkpt lat="49.99694" lon="4.45055">
        <ele>335.6</ele>
        <time>2024-03-17T09:41:22Z</time>
      </trkpt>
      <trkpt lat="49.99686" lon="4.45057">
        <ele>335</ele>
        <time>2024-03-17T09:41:23Z</time>
      </trkpt>
      <trkpt lat="49.99678" lon="4.4506">
        <ele>335</ele>
        <time>2024-03-17T09:41:24Z</time>
      </trkpt>
      <trkpt lat="49.9967" lon="4.45063">
        <ele>334.6</ele>
        <time>2024-03-17T09:41:25Z</time>
      </trkpt>
      <trkpt lat="49.99662" lon="4.45066">
        <ele>334.4</ele>
        <time>2024-03-17T09:41:26Z</time>
      </trkpt>
      <trkpt lat="49.99654" lon="4.4507">
        <ele>334.4</ele>
        <time>2024-03-17T09:41:27Z</time>
      </trkpt>
      <trkpt lat="49.99647" lon="4.45074">
        <ele>334.4</ele>
        <time>2024-03-17T09:41:28Z</time>
      </trkpt>
      <trkpt lat="49.9964" lon="4.45079">
        <ele>333.8</ele>
        <time>2024-03-17T09:41:29Z</time>
      </trkpt>
      <trkpt lat="49.99633" lon="4.45083">
        <ele>333.6</ele>
        <time>2024-03-17T09:41:30Z</time>
      </trkpt>
      <trkpt lat="49.99626" lon="4.45088">
        <ele>333.4</ele>
        <time>2024-03-17T09:41:31Z</time>
      </trkpt>
      <trkpt lat="49.99619" lon="4.45093">
        <ele>333</ele>
        <time>2024-03-17T09:41:32Z</time>
      </trkpt>
      <trkpt lat="49.99613" lon="4.45097">
        <ele>333</ele>
        <time>2024-03-17T09:41:33Z</time>
      </trkpt>
      <trkpt lat="49.99606" lon="4.45101">
        <ele>333</ele>
        <time>2024-03-17T09:41:34Z</time>
      </trkpt>
      <trkpt lat="49.99599" lon="4.45105">
        <ele>332.8</ele>
        <time>2024-03-17T09:41:35Z</time>
      </trkpt>
      <trkpt lat="49.99593" lon="4.45108">
        <ele>333</ele>
        <time>2024-03-17T09:41:36Z</time>
      </trkpt>
      <trkpt lat="49.99587" lon="4.45112">
        <ele>332.8</ele>
        <time>2024-03-17T09:41:37Z</time>
      </trkpt>
      <trkpt lat="49.9958" lon="4.45116">
        <ele>332.8</ele>
        <time>2024-03-17T09:41:38Z</time>
      </trkpt>
      <trkpt lat="49.99574" lon="4.4512">
        <ele>333</ele>
        <time>2024-03-17T09:41:39Z</time>
      </trkpt>
      <trkpt lat="49.99568" lon="4.45124">
        <ele>333</ele>
        <time>2024-03-17T09:41:40Z</time>
      </trkpt>
      <trkpt lat="49.99562" lon="4.45126">
        <ele>333</ele>
        <time>2024-03-17T09:41:41Z</time>
      </trkpt>
      <trkpt lat="49.99556" lon="4.45128">
        <ele>333</ele>
        <time>2024-03-17T09:41:42Z</time>
      </trkpt>
      <trkpt lat="49.99549" lon="4.4513">
        <ele>333</ele>
        <time>2024-03-17T09:41:43Z</time>
      </trkpt>
      <trkpt lat="49.99543" lon="4.4513">
        <ele>333.4</ele>
        <time>2024-03-17T09:41:44Z</time>
      </trkpt>
      <trkpt lat="49.99537" lon="4.45131">
        <ele>333.4</ele>
        <time>2024-03-17T09:41:45Z</time>
      </trkpt>
      <trkpt lat="49.9953" lon="4.4513">
        <ele>333.6</ele>
        <time>2024-03-17T09:41:46Z</time>
      </trkpt>
      <trkpt lat="49.99524" lon="4.45129">
        <ele>333.6</ele>
        <time>2024-03-17T09:41:47Z</time>
      </trkpt>
      <trkpt lat="49.99517" lon="4.45127">
        <ele>333.6</ele>
        <time>2024-03-17T09:41:48Z</time>
      </trkpt>
      <trkpt lat="49.99511" lon="4.45124">
        <ele>333.8</ele>
        <time>2024-03-17T09:41:49Z</time>
      </trkpt>
      <trkpt lat="49.99504" lon="4.45121">
        <ele>333.6</ele>
        <time>2024-03-17T09:41:50Z</time>
      </trkpt>
      <trkpt lat="49.99498" lon="4.45117">
        <ele>333.6</ele>
        <time>2024-03-17T09:41:51Z</time>
      </trkpt>
      <trkpt lat="49.99491" lon="4.45114">
        <ele>333.8</ele>
        <time>2024-03-17T09:41:52Z</time>
      </trkpt>
      <trkpt lat="49.99485" lon="4.4511">
        <ele>333.6</ele>
        <time>2024-03-17T09:41:53Z</time>
      </trkpt>
      <trkpt lat="49.99478" lon="4.45105">
        <ele>333.6</ele>
        <time>2024-03-17T09:41:54Z</time>
      </trkpt>
      <trkpt lat="49.99472" lon="4.45101">
        <ele>333.6</ele>
        <time>2024-03-17T09:41:55Z</time>
      </trkpt>
      <trkpt lat="49.99465" lon="4.45096">
        <ele>333.4</ele>
        <time>2024-03-17T09:41:56Z</time>
      </trkpt>
      <trkpt lat="49.99459" lon="4.45091">
        <ele>333.2</ele>
        <time>2024-03-17T09:41:57Z</time>
      </trkpt>
      <trkpt lat="49.99452" lon="4.45086">
        <ele>333</ele>
        <time>2024-03-17T09:41:58Z</time>
      </trkpt>
      <trkpt lat="49.99445" lon="4.45082">
        <ele>332.8</ele>
        <time>2024-03-17T09:41:59Z</time>
      </trkpt>
      <trkpt lat="49.99438" lon="4.45078">
        <ele>332.8</ele>
        <time>2024-03-17T09:42:00Z</time>
      </trkpt>
      <trkpt lat="49.99431" lon="4.45074">
        <ele>332.4</ele>
        <time>2024-03-17T09:42:01Z</time>
      </trkpt>
      <trkpt lat="49.99423" lon="4.45071">
        <ele>332.2</ele>
        <time>2024-03-17T09:42:02Z</time>
      </trkpt>
      <trkpt lat="49.99415" lon="4.45069">
        <ele>332</ele>
        <time>2024-03-17T09:42:03Z</time>
      </trkpt>
      <trkpt lat="49.99408" lon="4.45068">
        <ele>331.4</ele>
        <time>2024-03-17T09:42:04Z</time>
      </trkpt>
      <trkpt lat="49.994" lon="4.45067">
        <ele>331.2</ele>
        <time>2024-03-17T09:42:05Z</time>
      </trkpt>
      <trkpt lat="49.99392" lon="4.45067">
        <ele>330.8</ele>
        <time>2024-03-17T09:42:06Z</time>
      </trkpt>
      <trkpt lat="49.99384" lon="4.45067">
        <ele>330.4</ele>
        <time>2024-03-17T09:42:07Z</time>
      </trkpt>
      <trkpt lat="49.99376" lon="4.45067">
        <ele>330</ele>
        <time>2024-03-17T09:42:08Z</time>
      </trkpt>
      <trkpt lat="49.99367" lon="4.45067">
        <ele>330</ele>
        <time>2024-03-17T09:42:09Z</time>
      </trkpt>
      <trkpt lat="49.99359" lon="4.45068">
        <ele>329.8</ele>
        <time>2024-03-17T09:42:10Z</time>
      </trkpt>
      <trkpt lat="49.99351" lon="4.45069">
        <ele>329.6</ele>
        <time>2024-03-17T09:42:11Z</time>
      </trkpt>
      <trkpt lat="49.99342" lon="4.45071">
        <ele>329.4</ele>
        <time>2024-03-17T09:42:12Z</time>
      </trkpt>
      <trkpt lat="49.99334" lon="4.45072">
        <ele>329.4</ele>
        <time>2024-03-17T09:42:13Z</time>
      </trkpt>
      <trkpt lat="49.99326" lon="4.45073">
        <ele>329.2</ele>
        <time>2024-03-17T09:42:14Z</time>
      </trkpt>
      <trkpt lat="49.99317" lon="4.45074">
        <ele>329</ele>
        <time>2024-03-17T09:42:15Z</time>
      </trkpt>
      <trkpt lat="49.99309" lon="4.45074">
        <ele>328.8</ele>
        <time>2024-03-17T09:42:16Z</time>
      </trkpt>
      <trkpt lat="49.993" lon="4.45073">
        <ele>328.8</ele>
        <time>2024-03-17T09:42:17Z</time>
      </trkpt>
      <trkpt lat="49.99291" lon="4.45071">
        <ele>328.6</ele>
        <time>2024-03-17T09:42:18Z</time>
      </trkpt>
      <trkpt lat="49.99282" lon="4.45069">
        <ele>328.2</ele>
        <time>2024-03-17T09:42:19Z</time>
      </trkpt>
      <trkpt lat="49.99274" lon="4.45066">
        <ele>328</ele>
        <time>2024-03-17T09:42:20Z</time>
      </trkpt>
      <trkpt lat="49.99265" lon="4.45062">
        <ele>327.6</ele>
        <time>2024-03-17T09:42:21Z</time>
      </trkpt>
      <trkpt lat="49.99257" lon="4.45059">
        <ele>327.2</ele>
        <time>2024-03-17T09:42:22Z</time>
      </trkpt>
      <trkpt lat="49.99249" lon="4.45055">
        <ele>326.4</ele>
        <time>2024-03-17T09:42:23Z</time>
      </trkpt>
      <trkpt lat="49.99242" lon="4.45052">
        <ele>325.8</ele>
        <time>2024-03-17T09:42:24Z</time>
      </trkpt>
      <trkpt lat="49.99234" lon="4.45049">
        <ele>325.2</ele>
        <time>2024-03-17T09:42:25Z</time>
      </trkpt>
      <trkpt lat="49.99227" lon="4.45046">
        <ele>325</ele>
        <time>2024-03-17T09:42:26Z</time>
      </trkpt>
      <trkpt lat="49.9922" lon="4.45043">
        <ele>324.8</ele>
        <time>2024-03-17T09:42:27Z</time>
      </trkpt>
      <trkpt lat="49.99213" lon="4.4504">
        <ele>324.6</ele>
        <time>2024-03-17T09:42:28Z</time>
      </trkpt>
      <trkpt lat="49.99206" lon="4.45037">
        <ele>324.6</ele>
        <time>2024-03-17T09:42:29Z</time>
      </trkpt>
      <trkpt lat="49.992" lon="4.45035">
        <ele>324.4</ele>
        <time>2024-03-17T09:42:30Z</time>
      </trkpt>
      <trkpt lat="49.99194" lon="4.45032">
        <ele>324.6</ele>
        <time>2024-03-17T09:42:31Z</time>
      </trkpt>
      <trkpt lat="49.99188" lon="4.4503">
        <ele>324.6</ele>
        <time>2024-03-17T09:42:32Z</time>
      </trkpt>
      <trkpt lat="49.99182" lon="4.45028">
        <ele>324.4</ele>
        <time>2024-03-17T09:42:33Z</time>
      </trkpt>
      <trkpt lat="49.99177" lon="4.45025">
        <ele>324.6</ele>
        <time>2024-03-17T09:42:34Z</time>
      </trkpt>
      <trkpt lat="49.99172" lon="4.45023">
        <ele>324.6</ele>
        <time>2024-03-17T09:42:35Z</time>
      </trkpt>
      <trkpt lat="49.99167" lon="4.45021">
        <ele>324.6</ele>
        <time>2024-03-17T09:42:36Z</time>
      </trkpt>
      <trkpt lat="49.99162" lon="4.45019">
        <ele>324.8</ele>
        <time>2024-03-17T09:42:37Z</time>
      </trkpt>
      <trkpt lat="49.99157" lon="4.45017">
        <ele>325</ele>
        <time>2024-03-17T09:42:38Z</time>
      </trkpt>
      <trkpt lat="49.99153" lon="4.45015">
        <ele>325.2</ele>
        <time>2024-03-17T09:42:39Z</time>
      </trkpt>
      <trkpt lat="49.99148" lon="4.45013">
        <ele>325.6</ele>
        <time>2024-03-17T09:42:40Z</time>
      </trkpt>
      <trkpt lat="49.99144" lon="4.45011">
        <ele>325.8</ele>
        <time>2024-03-17T09:42:41Z</time>
      </trkpt>
      <trkpt lat="49.9914" lon="4.45008">
        <ele>326.2</ele>
        <time>2024-03-17T09:42:42Z</time>
      </trkpt>
      <trkpt lat="49.99137" lon="4.45006">
        <ele>326.6</ele>
        <time>2024-03-17T09:42:43Z</time>
      </trkpt>
      <trkpt lat="49.99133" lon="4.45003">
        <ele>327.4</ele>
        <time>2024-03-17T09:42:44Z</time>
      </trkpt>
      <trkpt lat="49.9913" lon="4.45001">
        <ele>328.2</ele>
        <time>2024-03-17T09:42:45Z</time>
      </trkpt>
      <trkpt lat="49.99127" lon="4.45">
        <ele>329.2</ele>
        <time>2024-03-17T09:42:46Z</time>
      </trkpt>
      <trkpt lat="49.99123" lon="4.44998">
        <ele>329.8</ele>
        <time>2024-03-17T09:42:47Z</time>
      </trkpt>
      <trkpt lat="49.9912" lon="4.44997">
        <ele>330</ele>
        <time>2024-03-17T09:42:48Z</time>
      </trkpt>
      <trkpt lat="49.99116" lon="4.44996">
        <ele>330.4</ele>
        <time>2024-03-17T09:42:49Z</time>
      </trkpt>
      <trkpt lat="49.99112" lon="4.44996">
        <ele>331</ele>
        <time>2024-03-17T09:42:50Z</time>
      </trkpt>
      <trkpt lat="49.99108" lon="4.44995">
        <ele>331.2</ele>
        <time>2024-03-17T09:42:51Z</time>
      </trkpt>
      <trkpt lat="49.99104" lon="4.44996">
        <ele>331.2</ele>
        <time>2024-03-17T09:42:52Z</time>
      </trkpt>
      <trkpt lat="49.99099" lon="4.44997">
        <ele>331.6</ele>
        <time>2024-03-17T09:42:53Z</time>
      </trkpt>
      <trkpt lat="49.99095" lon="4.44998">
        <ele>332</ele>
        <time>2024-03-17T09:42:54Z</time>
      </trkpt>
      <trkpt lat="49.99092" lon="4.44999">
        <ele>332.4</ele>
        <time>2024-03-17T09:42:55Z</time>
      </trkpt>
      <trkpt lat="49.99088" lon="4.45">
        <ele>333</ele>
        <time>2024-03-17T09:42:56Z</time>
      </trkpt>
      <trkpt lat="49.99084" lon="4.45001">
        <ele>333.4</ele>
        <time>2024-03-17T09:42:57Z</time>
      </trkpt>
      <trkpt lat="49.99081" lon="4.45003">
        <ele>333.8</ele>
        <time>2024-03-17T09:42:58Z</time>
      </trkpt>
      <trkpt lat="49.99077" lon="4.45004">
        <ele>334.2</ele>
        <time>2024-03-17T09:42:59Z</time>
      </trkpt>
      <trkpt lat="49.99073" lon="4.45005">
        <ele>334.2</ele>
        <time>2024-03-17T09:43:00Z</time>
      </trkpt>
      <trkpt lat="49.99069" lon="4.45006">
        <ele>334.6</ele>
        <time>2024-03-17T09:43:01Z</time>
      </trkpt>
      <trkpt lat="49.99065" lon="4.45007">
        <ele>334.8</ele>
        <time>2024-03-17T09:43:02Z</time>
      </trkpt>
      <trkpt lat="49.99062" lon="4.45008">
        <ele>334.8</ele>
        <time>2024-03-17T09:43:03Z</time>
      </trkpt>
      <trkpt lat="49.99058" lon="4.45009">
        <ele>335</ele>
        <time>2024-03-17T09:43:04Z</time>
      </trkpt>
      <trkpt lat="49.99053" lon="4.4501">
        <ele>335.2</ele>
        <time>2024-03-17T09:43:05Z</time>
      </trkpt>
      <trkpt lat="49.99049" lon="4.45011">
        <ele>335.6</ele>
        <time>2024-03-17T09:43:06Z</time>
      </trkpt>
      <trkpt lat="49.99045" lon="4.45013">
        <ele>335.6</ele>
        <time>2024-03-17T09:43:07Z</time>
      </trkpt>
      <trkpt lat="49.99041" lon="4.45015">
        <ele>335.6</ele>
        <time>2024-03-17T09:43:08Z</time>
      </trkpt>
      <trkpt lat="49.99036" lon="4.45016">
        <ele>335.8</ele>
        <time>2024-03-17T09:43:09Z</time>
      </trkpt>
      <trkpt lat="49.99033" lon="4.45016">
        <ele>336</ele>
        <time>2024-03-17T09:43:10Z</time>
      </trkpt>
      <trkpt lat="49.99029" lon="4.45017">
        <ele>336</ele>
        <time>2024-03-17T09:43:11Z</time>
      </trkpt>
      <trkpt lat="49.99026" lon="4.45018">
        <ele>336.2</ele>
        <time>2024-03-17T09:43:12Z</time>
      </trkpt>
      <trkpt lat="49.99021" lon="4.45019">
        <ele>336.2</ele>
        <time>2024-03-17T09:43:13Z</time>
      </trkpt>
      <trkpt lat="49.99017" lon="4.4502">
        <ele>336.2</ele>
        <time>2024-03-17T09:43:14Z</time>
      </trkpt>
      <trkpt lat="49.99014" lon="4.45021">
        <ele>336.4</ele>
        <time>2024-03-17T09:43:15Z</time>
      </trkpt>
      <trkpt lat="49.9901" lon="4.45023">
        <ele>336.4</ele>
        <time>2024-03-17T09:43:16Z</time>
      </trkpt>
      <trkpt lat="49.99006" lon="4.45024">
        <ele>336.6</ele>
        <time>2024-03-17T09:43:17Z</time>
      </trkpt>
      <trkpt lat="49.99002" lon="4.45026">
        <ele>336.6</ele>
        <time>2024-03-17T09:43:18Z</time>
      </trkpt>
      <trkpt lat="49.98998" lon="4.45026">
        <ele>336.8</ele>
        <time>2024-03-17T09:43:19Z</time>
      </trkpt>
      <trkpt lat="49.98995" lon="4.45027">
        <ele>336.8</ele>
        <time>2024-03-17T09:43:20Z</time>
      </trkpt>
      <trkpt lat="49.98991" lon="4.45028">
        <ele>337</ele>
        <time>2024-03-17T09:43:21Z</time>
      </trkpt>
      <trkpt lat="49.98987" lon="4.4503">
        <ele>337.2</ele>
        <time>2024-03-17T09:43:22Z</time>
      </trkpt>
      <trkpt lat="49.98982" lon="4.45031">
        <ele>337.2</ele>
        <time>2024-03-17T09:43:23Z</time>
      </trkpt>
      <trkpt lat="49.98978" lon="4.45033">
        <ele>337.2</ele>
        <time>2024-03-17T09:43:24Z</time>
      </trkpt>
      <trkpt lat="49.98973" lon="4.45034">
        <ele>337.6</ele>
        <time>2024-03-17T09:43:25Z</time>
      </trkpt>
      <trkpt lat="49.98969" lon="4.45035">
        <ele>337.4</ele>
        <time>2024-03-17T09:43:26Z</time>
      </trkpt>
      <trkpt lat="49.98965" lon="4.45036">
        <ele>337.6</ele>
        <time>2024-03-17T09:43:27Z</time>
      </trkpt>
      <trkpt lat="49.98961" lon="4.45036">
        <ele>338</ele>
        <time>2024-03-17T09:43:28Z</time>
      </trkpt>
      <trkpt lat="49.98957" lon="4.45037">
        <ele>338</ele>
        <time>2024-03-17T09:43:29Z</time>
      </trkpt>
      <trkpt lat="49.98952" lon="4.45038">
        <ele>338.4</ele>
        <time>2024-03-17T09:43:30Z</time>
      </trkpt>
      <trkpt lat="49.98948" lon="4.45039">
        <ele>339</ele>
        <time>2024-03-17T09:43:31Z</time>
      </trkpt>
      <trkpt lat="49.98944" lon="4.4504">
        <ele>339.2</ele>
        <time>2024-03-17T09:43:32Z</time>
      </trkpt>
      <trkpt lat="49.9894" lon="4.45041">
        <ele>339.6</ele>
        <time>2024-03-17T09:43:33Z</time>
      </trkpt>
      <trkpt lat="49.98937" lon="4.45043">
        <ele>339.6</ele>
        <time>2024-03-17T09:43:34Z</time>
      </trkpt>
      <trkpt lat="49.98933" lon="4.45043">
        <ele>339.8</ele>
        <time>2024-03-17T09:43:35Z</time>
      </trkpt>
      <trkpt lat="49.9893" lon="4.45044">
        <ele>340</ele>
        <time>2024-03-17T09:43:36Z</time>
      </trkpt>
      <trkpt lat="49.98926" lon="4.45046">
        <ele>340.2</ele>
        <time>2024-03-17T09:43:37Z</time>
      </trkpt>
      <trkpt lat="49.98922" lon="4.45048">
        <ele>340.6</ele>
        <time>2024-03-17T09:43:38Z</time>
      </trkpt>
      <trkpt lat="49.98917" lon="4.4505">
        <ele>340.6</ele>
        <time>2024-03-17T09:43:39Z</time>
      </trkpt>
      <trkpt lat="49.98913" lon="4.45052">
        <ele>340.6</ele>
        <time>2024-03-17T09:43:40Z</time>
      </trkpt>
      <trkpt lat="49.98908" lon="4.45054">
        <ele>340.6</ele>
        <time>2024-03-17T09:43:41Z</time>
      </trkpt>
      <trkpt lat="49.98903" lon="4.45056">
        <ele>340.8</ele>
        <time>2024-03-17T09:43:42Z</time>
      </trkpt>
      <trkpt lat="49.98899" lon="4.45057">
        <ele>340.8</ele>
        <time>2024-03-17T09:43:43Z</time>
      </trkpt>
      <trkpt lat="49.98895" lon="4.45059">
        <ele>341</ele>
        <time>2024-03-17T09:43:44Z</time>
      </trkpt>
      <trkpt lat="49.98891" lon="4.4506">
        <ele>341</ele>
        <time>2024-03-17T09:43:45Z</time>
      </trkpt>
      <trkpt lat="49.98887" lon="4.4506">
        <ele>341.2</ele>
        <time>2024-03-17T09:43:46Z</time>
      </trkpt>
      <trkpt lat="49.98882" lon="4.45061">
        <ele>341</ele>
        <time>2024-03-17T09:43:47Z</time>
      </trkpt>
      <trkpt lat="49.98877" lon="4.45063">
        <ele>341.2</ele>
        <time>2024-03-17T09:43:48Z</time>
      </trkpt>
      <trkpt lat="49.98872" lon="4.45065">
        <ele>341.4</ele>
        <time>2024-03-17T09:43:49Z</time>
      </trkpt>
      <trkpt lat="49.98867" lon="4.45067">
        <ele>341.2</ele>
        <time>2024-03-17T09:43:50Z</time>
      </trkpt>
      <trkpt lat="49.98862" lon="4.45069">
        <ele>341.2</ele>
        <time>2024-03-17T09:43:51Z</time>
      </trkpt>
      <trkpt lat="49.98858" lon="4.45071">
        <ele>341.4</ele>
        <time>2024-03-17T09:43:52Z</time>
      </trkpt>
      <trkpt lat="49.98851" lon="4.45074">
        <ele>341.4</ele>
        <time>2024-03-17T09:43:53Z</time>
      </trkpt>
      <trkpt lat="49.98845" lon="4.45077">
        <ele>341.4</ele>
        <time>2024-03-17T09:43:54Z</time>
      </trkpt>
      <trkpt lat="49.9884" lon="4.4508">
        <ele>341.6</ele>
        <time>2024-03-17T09:43:55Z</time>
      </trkpt>
      <trkpt lat="49.98835" lon="4.45081">
        <ele>341.4</ele>
        <time>2024-03-17T09:43:56Z</time>
      </trkpt>
      <trkpt lat="49.98831" lon="4.45082">
        <ele>341.6</ele>
        <time>2024-03-17T09:43:57Z</time>
      </trkpt>
      <trkpt lat="49.98826" lon="4.45083">
        <ele>342</ele>
        <time>2024-03-17T09:43:58Z</time>
      </trkpt>
      <trkpt lat="49.98821" lon="4.45085">
        <ele>342</ele>
        <time>2024-03-17T09:43:59Z</time>
      </trkpt>
      <trkpt lat="49.98816" lon="4.45087">
        <ele>342.6</ele>
        <time>2024-03-17T09:44:00Z</time>
      </trkpt>
      <trkpt lat="49.98812" lon="4.45088">
        <ele>342.6</ele>
        <time>2024-03-17T09:44:01Z</time>
      </trkpt>
      <trkpt lat="49.98808" lon="4.45089">
        <ele>342.8</ele>
        <time>2024-03-17T09:44:02Z</time>
      </trkpt>
      <trkpt lat="49.98804" lon="4.45091">
        <ele>343.2</ele>
        <time>2024-03-17T09:44:03Z</time>
      </trkpt>
      <trkpt lat="49.988" lon="4.45092">
        <ele>343.2</ele>
        <time>2024-03-17T09:44:04Z</time>
      </trkpt>
      <trkpt lat="49.98796" lon="4.45093">
        <ele>343.2</ele>
        <time>2024-03-17T09:44:05Z</time>
      </trkpt>
      <trkpt lat="49.98791" lon="4.45094">
        <ele>343.4</ele>
        <time>2024-03-17T09:44:06Z</time>
      </trkpt>
      <trkpt lat="49.98786" lon="4.45096">
        <ele>343.4</ele>
        <time>2024-03-17T09:44:07Z</time>
      </trkpt>
      <trkpt lat="49.98781" lon="4.45098">
        <ele>343.4</ele>
        <time>2024-03-17T09:44:08Z</time>
      </trkpt>
      <trkpt lat="49.98776" lon="4.451">
        <ele>343.6</ele>
        <time>2024-03-17T09:44:09Z</time>
      </trkpt>
      <trkpt lat="49.98771" lon="4.45102">
        <ele>343.6</ele>
        <time>2024-03-17T09:44:10Z</time>
      </trkpt>
      <trkpt lat="49.98766" lon="4.45103">
        <ele>343.6</ele>
        <time>2024-03-17T09:44:11Z</time>
      </trkpt>
      <trkpt lat="49.98761" lon="4.45104">
        <ele>343.8</ele>
        <time>2024-03-17T09:44:12Z</time>
      </trkpt>
      <trkpt lat="49.98756" lon="4.45106">
        <ele>344</ele>
        <time>2024-03-17T09:44:13Z</time>
      </trkpt>
      <trkpt lat="49.9875" lon="4.45108">
        <ele>344</ele>
        <time>2024-03-17T09:44:14Z</time>
      </trkpt>
      <trkpt lat="49.98745" lon="4.4511">
        <ele>344.2</ele>
        <time>2024-03-17T09:44:15Z</time>
      </trkpt>
      <trkpt lat="49.9874" lon="4.45112">
        <ele>344.2</ele>
        <time>2024-03-17T09:44:16Z</time>
      </trkpt>
      <trkpt lat="49.98734" lon="4.45114">
        <ele>344.4</ele>
        <time>2024-03-17T09:44:17Z</time>
      </trkpt>
      <trkpt lat="49.98729" lon="4.45116">
        <ele>344.4</ele>
        <time>2024-03-17T09:44:18Z</time>
      </trkpt>
      <trkpt lat="49.98723" lon="4.45117">
        <ele>344.4</ele>
        <time>2024-03-17T09:44:19Z</time>
      </trkpt>
      <trkpt lat="49.98717" lon="4.45119">
        <ele>344.4</ele>
        <time>2024-03-17T09:44:20Z</time>
      </trkpt>
      <trkpt lat="49.98712" lon="4.45122">
        <ele>344.4</ele>
        <time>2024-03-17T09:44:21Z</time>
      </trkpt>
      <trkpt lat="49.98706" lon="4.45125">
        <ele>344.4</ele>
        <time>2024-03-17T09:44:22Z</time>
      </trkpt>
      <trkpt lat="49.987" lon="4.45127">
        <ele>344.4</ele>
        <time>2024-03-17T09:44:23Z</time>
      </trkpt>
      <trkpt lat="49.98693" lon="4.45129">
        <ele>344.4</ele>
        <time>2024-03-17T09:44:24Z</time>
      </trkpt>
      <trkpt lat="49.98686" lon="4.45133">
        <ele>344.2</ele>
        <time>2024-03-17T09:44:25Z</time>
      </trkpt>
      <trkpt lat="49.98679" lon="4.45137">
        <ele>344</ele>
        <time>2024-03-17T09:44:26Z</time>
      </trkpt>
      <trkpt lat="49.98673" lon="4.4514">
        <ele>343.8</ele>
        <time>2024-03-17T09:44:27Z</time>
      </trkpt>
      <trkpt lat="49.98666" lon="4.45145">
        <ele>343.6</ele>
        <time>2024-03-17T09:44:28Z</time>
      </trkpt>
      <trkpt lat="49.9866" lon="4.4515">
        <ele>343.4</ele>
        <time>2024-03-17T09:44:29Z</time>
      </trkpt>
      <trkpt lat="49.98654" lon="4.45155">
        <ele>343.4</ele>
        <time>2024-03-17T09:44:30Z</time>
      </trkpt>
      <trkpt lat="49.98648" lon="4.4516">
        <ele>343.2</ele>
        <time>2024-03-17T09:44:31Z</time>
      </trkpt>
      <trkpt lat="49.98642" lon="4.45166">
        <ele>342.8</ele>
        <time>2024-03-17T09:44:32Z</time>
      </trkpt>
      <trkpt lat="49.98637" lon="4.45171">
        <ele>342.8</ele>
        <time>2024-03-17T09:44:33Z</time>
      </trkpt>
      <trkpt lat="49.98631" lon="4.45177">
        <ele>342.8</ele>
        <time>2024-03-17T09:44:34Z</time>
      </trkpt>
      <trkpt lat="49.98626" lon="4.45183">
        <ele>343</ele>
        <time>2024-03-17T09:44:35Z</time>
      </trkpt>
      <trkpt lat="49.9862" lon="4.45188">
        <ele>342.8</ele>
        <time>2024-03-17T09:44:36Z</time>
      </trkpt>
      <trkpt lat="49.98615" lon="4.45194">
        <ele>342.8</ele>
        <time>2024-03-17T09:44:37Z</time>
      </trkpt>
      <trkpt lat="49.98609" lon="4.452">
        <ele>342.6</ele>
        <time>2024-03-17T09:44:38Z</time>
      </trkpt>
      <trkpt lat="49.98603" lon="4.45206">
        <ele>342.4</ele>
        <time>2024-03-17T09:44:39Z</time>
      </trkpt>
      <trkpt lat="49.98597" lon="4.45212">
        <ele>342.4</ele>
        <time>2024-03-17T09:44:40Z</time>
      </trkpt>
      <trkpt lat="49.98591" lon="4.45218">
        <ele>342.4</ele>
        <time>2024-03-17T09:44:41Z</time>
      </trkpt>
      <trkpt lat="49.98585" lon="4.45223">
        <ele>342.4</ele>
        <time>2024-03-17T09:44:42Z</time>
      </trkpt>
      <trkpt lat="49.9858" lon="4.45229">
        <ele>342.2</ele>
        <time>2024-03-17T09:44:43Z</time>
      </trkpt>
      <trkpt lat="49.98574" lon="4.45235">
        <ele>342.2</ele>
        <time>2024-03-17T09:44:44Z</time>
      </trkpt>
      <trkpt lat="49.98568" lon="4.45241">
        <ele>342</ele>
        <time>2024-03-17T09:44:45Z</time>
      </trkpt>
      <trkpt lat="49.98562" lon="4.45246">
        <ele>342</ele>
        <time>2024-03-17T09:44:46Z</time>
      </trkpt>
      <trkpt lat="49.98557" lon="4.45252">
        <ele>342</ele>
        <time>2024-03-17T09:44:47Z</time>
      </trkpt>
      <trkpt lat="49.98551" lon="4.45258">
        <ele>342</ele>
        <time>2024-03-17T09:44:48Z</time>
      </trkpt>
      <trkpt lat="49.98545" lon="4.45264">
        <ele>342</ele>
        <time>2024-03-17T09:44:49Z</time>
      </trkpt>
      <trkpt lat="49.98539" lon="4.45269">
        <ele>342</ele>
        <time>2024-03-17T09:44:50Z</time>
      </trkpt>
      <trkpt lat="49.98534" lon="4.45275">
        <ele>341.8</ele>
        <time>2024-03-17T09:44:51Z</time>
      </trkpt>
      <trkpt lat="49.98528" lon="4.45281">
        <ele>341.8</ele>
        <time>2024-03-17T09:44:52Z</time>
      </trkpt>
      <trkpt lat="49.98522" lon="4.45286">
        <ele>341.6</ele>
        <time>2024-03-17T09:44:53Z</time>
      </trkpt>
      <trkpt lat="49.98516" lon="4.45292">
        <ele>341.6</ele>
        <time>2024-03-17T09:44:54Z</time>
      </trkpt>
      <trkpt lat="49.98511" lon="4.45298">
        <ele>341.6</ele>
        <time>2024-03-17T09:44:55Z</time>
      </trkpt>
      <trkpt lat="49.98505" lon="4.45303">
        <ele>341.6</ele>
        <time>2024-03-17T09:44:56Z</time>
      </trkpt>
      <trkpt lat="49.98499" lon="4.45309">
        <ele>341.4</ele>
        <time>2024-03-17T09:44:57Z</time>
      </trkpt>
      <trkpt lat="49.98494" lon="4.45314">
        <ele>341.6</ele>
        <time>2024-03-17T09:44:58Z</time>
      </trkpt>
      <trkpt lat="49.98488" lon="4.4532">
        <ele>341.6</ele>
        <time>2024-03-17T09:44:59Z</time>
      </trkpt>
      <trkpt lat="49.98483" lon="4.45325">
        <ele>341.6</ele>
        <time>2024-03-17T09:45:00Z</time>
      </trkpt>
      <trkpt lat="49.98477" lon="4.45331">
        <ele>341.6</ele>
        <time>2024-03-17T09:45:01Z</time>
      </trkpt>
      <trkpt lat="49.98472" lon="4.45336">
        <ele>341.8</ele>
        <time>2024-03-17T09:45:02Z</time>
      </trkpt>
      <trkpt lat="49.98467" lon="4.45342">
        <ele>341.8</ele>
        <time>2024-03-17T09:45:03Z</time>
      </trkpt>
      <trkpt lat="49.98461" lon="4.45347">
        <ele>341.8</ele>
        <time>2024-03-17T09:45:04Z</time>
      </trkpt>
      <trkpt lat="49.98456" lon="4.45352">
        <ele>341.8</ele>
        <time>2024-03-17T09:45:05Z</time>
      </trkpt>
      <trkpt lat="49.98451" lon="4.45358">
        <ele>341.8</ele>
        <time>2024-03-17T09:45:06Z</time>
      </trkpt>
      <trkpt lat="49.98446" lon="4.45363">
        <ele>341.8</ele>
        <time>2024-03-17T09:45:07Z</time>
      </trkpt>
      <trkpt lat="49.98441" lon="4.45368">
        <ele>342</ele>
        <time>2024-03-17T09:45:08Z</time>
      </trkpt>
      <trkpt lat="49.98436" lon="4.45374">
        <ele>342.2</ele>
        <time>2024-03-17T09:45:09Z</time>
      </trkpt>
      <trkpt lat="49.98431" lon="4.45379">
        <ele>342.2</ele>
        <time>2024-03-17T09:45:10Z</time>
      </trkpt>
      <trkpt lat="49.98426" lon="4.45384">
        <ele>342.2</ele>
        <time>2024-03-17T09:45:11Z</time>
      </trkpt>
      <trkpt lat="49.98421" lon="4.45388">
        <ele>342.4</ele>
        <time>2024-03-17T09:45:12Z</time>
      </trkpt>
      <trkpt lat="49.98416" lon="4.45393">
        <ele>342.2</ele>
        <time>2024-03-17T09:45:13Z</time>
      </trkpt>
      <trkpt lat="49.98412" lon="4.45398">
        <ele>342.4</ele>
        <time>2024-03-17T09:45:14Z</time>
      </trkpt>
      <trkpt lat="49.98407" lon="4.45403">
        <ele>342.6</ele>
        <time>2024-03-17T09:45:15Z</time>
      </trkpt>
      <trkpt lat="49.98402" lon="4.45408">
        <ele>342.8</ele>
        <time>2024-03-17T09:45:16Z</time>
      </trkpt>
      <trkpt lat="49.98397" lon="4.45413">
        <ele>342.8</ele>
        <time>2024-03-17T09:45:17Z</time>
      </trkpt>
      <trkpt lat="49.98392" lon="4.45418">
        <ele>342.8</ele>
        <time>2024-03-17T09:45:18Z</time>
      </trkpt>
      <trkpt lat="49.98387" lon="4.45423">
        <ele>342.8</ele>
        <time>2024-03-17T09:45:19Z</time>
      </trkpt>
      <trkpt lat="49.98381" lon="4.45428">
        <ele>342.8</ele>
        <time>2024-03-17T09:45:20Z</time>
      </trkpt>
      <trkpt lat="49.98376" lon="4.45433">
        <ele>342.8</ele>
        <time>2024-03-17T09:45:21Z</time>
      </trkpt>
      <trkpt lat="49.98371" lon="4.45438">
        <ele>343</ele>
        <time>2024-03-17T09:45:22Z</time>
      </trkpt>
      <trkpt lat="49.98366" lon="4.45443">
        <ele>343</ele>
        <time>2024-03-17T09:45:23Z</time>
      </trkpt>
      <trkpt lat="49.98361" lon="4.45448">
        <ele>342.8</ele>
        <time>2024-03-17T09:45:24Z</time>
      </trkpt>
      <trkpt lat="49.98355" lon="4.45453">
        <ele>343</ele>
        <time>2024-03-17T09:45:25Z</time>
      </trkpt>
      <trkpt lat="49.9835" lon="4.45457">
        <ele>343</ele>
        <time>2024-03-17T09:45:26Z</time>
      </trkpt>
      <trkpt lat="49.98345" lon="4.45461">
        <ele>343</ele>
        <time>2024-03-17T09:45:27Z</time>
      </trkpt>
      <trkpt lat="49.9834" lon="4.45465">
        <ele>343.2</ele>
        <time>2024-03-17T09:45:28Z</time>
      </trkpt>
      <trkpt lat="49.98335" lon="4.45469">
        <ele>343.2</ele>
        <time>2024-03-17T09:45:29Z</time>
      </trkpt>
      <trkpt lat="49.98329" lon="4.45473">
        <ele>343.2</ele>
        <time>2024-03-17T09:45:30Z</time>
      </trkpt>
      <trkpt lat="49.98324" lon="4.45476">
        <ele>343.2</ele>
        <time>2024-03-17T09:45:31Z</time>
      </trkpt>
      <trkpt lat="49.98318" lon="4.4548">
        <ele>343.4</ele>
        <time>2024-03-17T09:45:32Z</time>
      </trkpt>
      <trkpt lat="49.98313" lon="4.45483">
        <ele>343.4</ele>
        <time>2024-03-17T09:45:33Z</time>
      </trkpt>
      <trkpt lat="49.98307" lon="4.45487">
        <ele>343.4</ele>
        <time>2024-03-17T09:45:34Z</time>
      </trkpt>
      <trkpt lat="49.98302" lon="4.4549">
        <ele>343.4</ele>
        <time>2024-03-17T09:45:35Z</time>
      </trkpt>
      <trkpt lat="49.98296" lon="4.45493">
        <ele>343.4</ele>
        <time>2024-03-17T09:45:36Z</time>
      </trkpt>
      <trkpt lat="49.9829" lon="4.45496">
        <ele>343.4</ele>
        <time>2024-03-17T09:45:37Z</time>
      </trkpt>
      <trkpt lat="49.98285" lon="4.455">
        <ele>343.4</ele>
        <time>2024-03-17T09:45:38Z</time>
      </trkpt>
      <trkpt lat="49.98279" lon="4.45503">
        <ele>343.4</ele>
        <time>2024-03-17T09:45:39Z</time>
      </trkpt>
      <trkpt lat="49.98274" lon="4.45506">
        <ele>343.4</ele>
        <time>2024-03-17T09:45:40Z</time>
      </trkpt>
      <trkpt lat="49.98268" lon="4.4551">
        <ele>343.4</ele>
        <time>2024-03-17T09:45:41Z</time>
      </trkpt>
      <trkpt lat="49.98262" lon="4.45513">
        <ele>343.2</ele>
        <time>2024-03-17T09:45:42Z</time>
      </trkpt>
      <trkpt lat="49.98257" lon="4.45517">
        <ele>343.2</ele>
        <time>2024-03-17T09:45:43Z</time>
      </trkpt>
      <trkpt lat="49.98251" lon="4.4552">
        <ele>343.2</ele>
        <time>2024-03-17T09:45:44Z</time>
      </trkpt>
      <trkpt lat="49.98245" lon="4.45523">
        <ele>343.4</ele>
        <time>2024-03-17T09:45:45Z</time>
      </trkpt>
      <trkpt lat="49.9824" lon="4.45527">
        <ele>343.2</ele>
        <time>2024-03-17T09:45:46Z</time>
      </trkpt>
      <trkpt lat="49.98234" lon="4.4553">
        <ele>343.2</ele>
        <time>2024-03-17T09:45:47Z</time>
      </trkpt>
      <trkpt lat="49.98228" lon="4.45534">
        <ele>343</ele>
        <time>2024-03-17T09:45:48Z</time>
      </trkpt>
      <trkpt lat="49.98222" lon="4.45537">
        <ele>343</ele>
        <time>2024-03-17T09:45:49Z</time>
      </trkpt>
      <trkpt lat="49.98216" lon="4.45541">
        <ele>343</ele>
        <time>2024-03-17T09:45:50Z</time>
      </trkpt>
      <trkpt lat="49.9821" lon="4.45544">
        <ele>343</ele>
        <time>2024-03-17T09:45:51Z</time>
      </trkpt>
      <trkpt lat="49.98204" lon="4.45549">
        <ele>343</ele>
        <time>2024-03-17T09:45:52Z</time>
      </trkpt>
      <trkpt lat="49.98197" lon="4.45554">
        <ele>343</ele>
        <time>2024-03-17T09:45:53Z</time>
      </trkpt>
      <trkpt lat="49.98191" lon="4.45559">
        <ele>342.8</ele>
        <time>2024-03-17T09:45:54Z</time>
      </trkpt>
      <trkpt lat="49.98185" lon="4.45565">
        <ele>342.6</ele>
        <time>2024-03-17T09:45:55Z</time>
      </trkpt>
      <trkpt lat="49.98179" lon="4.45571">
        <ele>342.6</ele>
        <time>2024-03-17T09:45:56Z</time>
      </trkpt>
      <trkpt lat="49.98174" lon="4.45578">
        <ele>342.6</ele>
        <time>2024-03-17T09:45:57Z</time>
      </trkpt>
      <trkpt lat="49.98168" lon="4.45586">
        <ele>342.6</ele>
        <time>2024-03-17T09:45:58Z</time>
      </trkpt>
      <trkpt lat="49.98163" lon="4.45593">
        <ele>342.2</ele>
        <time>2024-03-17T09:45:59Z</time>
      </trkpt>
      <trkpt lat="49.98157" lon="4.45601">
        <ele>342.2</ele>
        <time>2024-03-17T09:46:00Z</time>
      </trkpt>
      <trkpt lat="49.98152" lon="4.45609">
        <ele>342</ele>
        <time>2024-03-17T09:46:01Z</time>
      </trkpt>
      <trkpt lat="49.98147" lon="4.45618">
        <ele>341.8</ele>
        <time>2024-03-17T09:46:02Z</time>
      </trkpt>
      <trkpt lat="49.98142" lon="4.45626">
        <ele>341.6</ele>
        <time>2024-03-17T09:46:03Z</time>
      </trkpt>
      <trkpt lat="49.98136" lon="4.45634">
        <ele>341.2</ele>
        <time>2024-03-17T09:46:04Z</time>
      </trkpt>
      <trkpt lat="49.98131" lon="4.45642">
        <ele>340.8</ele>
        <time>2024-03-17T09:46:05Z</time>
      </trkpt>
      <trkpt lat="49.98126" lon="4.45651">
        <ele>340.4</ele>
        <time>2024-03-17T09:46:06Z</time>
      </trkpt>
      <trkpt lat="49.98121" lon="4.45659">
        <ele>340</ele>
        <time>2024-03-17T09:46:07Z</time>
      </trkpt>
      <trkpt lat="49.98116" lon="4.45667">
        <ele>339.6</ele>
        <time>2024-03-17T09:46:08Z</time>
      </trkpt>
      <trkpt lat="49.98111" lon="4.45676">
        <ele>339.6</ele>
        <time>2024-03-17T09:46:09Z</time>
      </trkpt>
      <trkpt lat="49.98105" lon="4.45684">
        <ele>339.6</ele>
        <time>2024-03-17T09:46:10Z</time>
      </trkpt>
      <trkpt lat="49.981" lon="4.45693">
        <ele>339.4</ele>
        <time>2024-03-17T09:46:11Z</time>
      </trkpt>
      <trkpt lat="49.98094" lon="4.45702">
        <ele>339</ele>
        <time>2024-03-17T09:46:12Z</time>
      </trkpt>
      <trkpt lat="49.98089" lon="4.45711">
        <ele>338.4</ele>
        <time>2024-03-17T09:46:13Z</time>
      </trkpt>
      <trkpt lat="49.98083" lon="4.4572">
        <ele>338</ele>
        <time>2024-03-17T09:46:14Z</time>
      </trkpt>
      <trkpt lat="49.98077" lon="4.45729">
        <ele>337.8</ele>
        <time>2024-03-17T09:46:15Z</time>
      </trkpt>
      <trkpt lat="49.98071" lon="4.45738">
        <ele>337.4</ele>
        <time>2024-03-17T09:46:16Z</time>
      </trkpt>
      <trkpt lat="49.98065" lon="4.45747">
        <ele>337.4</ele>
        <time>2024-03-17T09:46:17Z</time>
      </trkpt>
      <trkpt lat="49.98058" lon="4.45755">
        <ele>337.4</ele>
        <time>2024-03-17T09:46:18Z</time>
      </trkpt>
      <trkpt lat="49.98051" lon="4.45763">
        <ele>337</ele>
        <time>2024-03-17T09:46:19Z</time>
      </trkpt>
      <trkpt lat="49.98044" lon="4.4577">
        <ele>336.8</ele>
        <time>2024-03-17T09:46:20Z</time>
      </trkpt>
      <trkpt lat="49.98035" lon="4.45776">
        <ele>336.6</ele>
        <time>2024-03-17T09:46:21Z</time>
      </trkpt>
      <trkpt lat="49.98026" lon="4.45779">
        <ele>336.2</ele>
        <time>2024-03-17T09:46:22Z</time>
      </trkpt>
      <trkpt lat="49.98017" lon="4.45779">
        <ele>335.8</ele>
        <time>2024-03-17T09:46:23Z</time>
      </trkpt>
      <trkpt lat="49.98008" lon="4.45777">
        <ele>335.6</ele>
        <time>2024-03-17T09:46:24Z</time>
      </trkpt>
      <trkpt lat="49.97999" lon="4.45773">
        <ele>335.4</ele>
        <time>2024-03-17T09:46:25Z</time>
      </trkpt>
      <trkpt lat="49.97991" lon="4.45768">
        <ele>334.8</ele>
        <time>2024-03-17T09:46:26Z</time>
      </trkpt>
      <trkpt lat="49.97982" lon="4.45764">
        <ele>334.4</ele>
        <time>2024-03-17T09:46:27Z</time>
      </trkpt>
      <trkpt lat="49.97974" lon="4.4576">
        <ele>333.8</ele>
        <time>2024-03-17T09:46:28Z</time>
      </trkpt>
      <trkpt lat="49.97966" lon="4.45757">
        <ele>333.2</ele>
        <time>2024-03-17T09:46:29Z</time>
      </trkpt>
      <trkpt lat="49.97959" lon="4.45753">
        <ele>332.2</ele>
        <time>2024-03-17T09:46:30Z</time>
      </trkpt>
      <trkpt lat="49.97953" lon="4.4575">
        <ele>331.8</ele>
        <time>2024-03-17T09:46:31Z</time>
      </trkpt>
      <trkpt lat="49.97946" lon="4.45746">
        <ele>331.8</ele>
        <time>2024-03-17T09:46:32Z</time>
      </trkpt>
      <trkpt lat="49.9794" lon="4.45743">
        <ele>331.6</ele>
        <time>2024-03-17T09:46:33Z</time>
      </trkpt>
      <trkpt lat="49.97934" lon="4.4574">
        <ele>331.6</ele>
        <time>2024-03-17T09:46:34Z</time>
      </trkpt>
      <trkpt lat="49.97928" lon="4.45737">
        <ele>331.6</ele>
        <time>2024-03-17T09:46:35Z</time>
      </trkpt>
      <trkpt lat="49.97923" lon="4.45734">
        <ele>331.6</ele>
        <time>2024-03-17T09:46:36Z</time>
      </trkpt>
      <trkpt lat="49.97918" lon="4.45731">
        <ele>331.6</ele>
        <time>2024-03-17T09:46:37Z</time>
      </trkpt>
      <trkpt lat="49.97913" lon="4.45728">
        <ele>331.6</ele>
        <time>2024-03-17T09:46:38Z</time>
      </trkpt>
      <trkpt lat="49.97908" lon="4.45726">
        <ele>331.6</ele>
        <time>2024-03-17T09:46:39Z</time>
      </trkpt>
      <trkpt lat="49.97904" lon="4.45723">
        <ele>331.6</ele>
        <time>2024-03-17T09:46:40Z</time>
      </trkpt>
      <trkpt lat="49.979" lon="4.45721">
        <ele>331.6</ele>
        <time>2024-03-17T09:46:41Z</time>
      </trkpt>
      <trkpt lat="49.97895" lon="4.45718">
        <ele>332.4</ele>
        <time>2024-03-17T09:46:42Z</time>
      </trkpt>
      <trkpt lat="49.97891" lon="4.45716">
        <ele>333.6</ele>
        <time>2024-03-17T09:46:43Z</time>
      </trkpt>
      <trkpt lat="49.97887" lon="4.45714">
        <ele>334.2</ele>
        <time>2024-03-17T09:46:44Z</time>
      </trkpt>
      <trkpt lat="49.97882" lon="4.45711">
        <ele>335.2</ele>
        <time>2024-03-17T09:46:45Z</time>
      </trkpt>
      <trkpt lat="49.97878" lon="4.45709">
        <ele>335.8</ele>
        <time>2024-03-17T09:46:46Z</time>
      </trkpt>
      <trkpt lat="49.97874" lon="4.45707">
        <ele>336</ele>
        <time>2024-03-17T09:46:47Z</time>
      </trkpt>
      <trkpt lat="49.97869" lon="4.45705">
        <ele>336.4</ele>
        <time>2024-03-17T09:46:48Z</time>
      </trkpt>
      <trkpt lat="49.97865" lon="4.45703">
        <ele>336.6</ele>
        <time>2024-03-17T09:46:49Z</time>
      </trkpt>
      <trkpt lat="49.97861" lon="4.45701">
        <ele>336.8</ele>
        <time>2024-03-17T09:46:50Z</time>
      </trkpt>
      <trkpt lat="49.97856" lon="4.45698">
        <ele>336.8</ele>
        <time>2024-03-17T09:46:51Z</time>
      </trkpt>
      <trkpt lat="49.97851" lon="4.45696">
        <ele>337</ele>
        <time>2024-03-17T09:46:52Z</time>
      </trkpt>
      <trkpt lat="49.97847" lon="4.45694">
        <ele>337.4</ele>
        <time>2024-03-17T09:46:53Z</time>
      </trkpt>
      <trkpt lat="49.97843" lon="4.45691">
        <ele>337.4</ele>
        <time>2024-03-17T09:46:54Z</time>
      </trkpt>
      <trkpt lat="49.97839" lon="4.45689">
        <ele>337.6</ele>
        <time>2024-03-17T09:46:55Z</time>
      </trkpt>
      <trkpt lat="49.97834" lon="4.45687">
        <ele>337.6</ele>
        <time>2024-03-17T09:46:56Z</time>
      </trkpt>
      <trkpt lat="49.9783" lon="4.45685">
        <ele>338</ele>
        <time>2024-03-17T09:46:57Z</time>
      </trkpt>
      <trkpt lat="49.97826" lon="4.45683">
        <ele>338</ele>
        <time>2024-03-17T09:46:58Z</time>
      </trkpt>
      <trkpt lat="49.97822" lon="4.45681">
        <ele>338.4</ele>
        <time>2024-03-17T09:46:59Z</time>
      </trkpt>
      <trkpt lat="49.97818" lon="4.45679">
        <ele>338.8</ele>
        <time>2024-03-17T09:47:00Z</time>
      </trkpt>
      <trkpt lat="49.97813" lon="4.45677">
        <ele>339</ele>
        <time>2024-03-17T09:47:01Z</time>
      </trkpt>
      <trkpt lat="49.97809" lon="4.45676">
        <ele>339.2</ele>
        <time>2024-03-17T09:47:02Z</time>
      </trkpt>
      <trkpt lat="49.97805" lon="4.45674">
        <ele>339.6</ele>
        <time>2024-03-17T09:47:03Z</time>
      </trkpt>
      <trkpt lat="49.97801" lon="4.45671">
        <ele>340.2</ele>
        <time>2024-03-17T09:47:04Z</time>
      </trkpt>
      <trkpt lat="49.97797" lon="4.4567">
        <ele>340.6</ele>
        <time>2024-03-17T09:47:05Z</time>
      </trkpt>
      <trkpt lat="49.97793" lon="4.45668">
        <ele>341.2</ele>
        <time>2024-03-17T09:47:06Z</time>
      </trkpt>
      <trkpt lat="49.97789" lon="4.45666">
        <ele>341.2</ele>
        <time>2024-03-17T09:47:07Z</time>
      </trkpt>
      <trkpt lat="49.97785" lon="4.45664">
        <ele>341.4</ele>
        <time>2024-03-17T09:47:08Z</time>
      </trkpt>
      <trkpt lat="49.97781" lon="4.45662">
        <ele>341.6</ele>
        <time>2024-03-17T09:47:09Z</time>
      </trkpt>
      <trkpt lat="49.97777" lon="4.45661">
        <ele>341.6</ele>
        <time>2024-03-17T09:47:10Z</time>
      </trkpt>
      <trkpt lat="49.97773" lon="4.45659">
        <ele>341.8</ele>
        <time>2024-03-17T09:47:11Z</time>
      </trkpt>
      <trkpt lat="49.9777" lon="4.45657">
        <ele>342.2</ele>
        <time>2024-03-17T09:47:12Z</time>
      </trkpt>
      <trkpt lat="49.97766" lon="4.45656">
        <ele>342.2</ele>
        <time>2024-03-17T09:47:13Z</time>
      </trkpt>
      <trkpt lat="49.97762" lon="4.45654">
        <ele>342.6</ele>
        <time>2024-03-17T09:47:14Z</time>
      </trkpt>
      <trkpt lat="49.97758" lon="4.45652">
        <ele>343.2</ele>
        <time>2024-03-17T09:47:15Z</time>
      </trkpt>
      <trkpt lat="49.97755" lon="4.4565">
        <ele>343.4</ele>
        <time>2024-03-17T09:47:16Z</time>
      </trkpt>
      <trkpt lat="49.97751" lon="4.45648">
        <ele>343.6</ele>
        <time>2024-03-17T09:47:17Z</time>
      </trkpt>
      <trkpt lat="49.97748" lon="4.45647">
        <ele>344.2</ele>
        <time>2024-03-17T09:47:18Z</time>
      </trkpt>
      <trkpt lat="49.97744" lon="4.45645">
        <ele>344.4</ele>
        <time>2024-03-17T09:47:19Z</time>
      </trkpt>
      <trkpt lat="49.97741" lon="4.45643">
        <ele>344.8</ele>
        <time>2024-03-17T09:47:20Z</time>
      </trkpt>
      <trkpt lat="49.97737" lon="4.45642">
        <ele>345</ele>
        <time>2024-03-17T09:47:21Z</time>
      </trkpt>
      <trkpt lat="49.97734" lon="4.4564">
        <ele>345</ele>
        <time>2024-03-17T09:47:22Z</time>
      </trkpt>
      <trkpt lat="49.97731" lon="4.45638">
        <ele>345.2</ele>
        <time>2024-03-17T09:47:23Z</time>
      </trkpt>
      <trkpt lat="49.97727" lon="4.45637">
        <ele>345.6</ele>
        <time>2024-03-17T09:47:24Z</time>
      </trkpt>
      <trkpt lat="49.97724" lon="4.45635">
        <ele>346</ele>
        <time>2024-03-17T09:47:25Z</time>
      </trkpt>
      <trkpt lat="49.97721" lon="4.45634">
        <ele>346.4</ele>
        <time>2024-03-17T09:47:26Z</time>
      </trkpt>
      <trkpt lat="49.97717" lon="4.45632">
        <ele>346.4</ele>
        <time>2024-03-17T09:47:27Z</time>
      </trkpt>
      <trkpt lat="49.97714" lon="4.4563">
        <ele>346.4</ele>
        <time>2024-03-17T09:47:28Z</time>
      </trkpt>
      <trkpt lat="49.9771" lon="4.45628">
        <ele>346.8</ele>
        <time>2024-03-17T09:47:29Z</time>
      </trkpt>
      <trkpt lat="49.97707" lon="4.45627">
        <ele>346.8</ele>
        <time>2024-03-17T09:47:30Z</time>
      </trkpt>
      <trkpt lat="49.97704" lon="4.45625">
        <ele>347</ele>
        <time>2024-03-17T09:47:31Z</time>
      </trkpt>
      <trkpt lat="49.977" lon="4.45623">
        <ele>347.2</ele>
        <time>2024-03-17T09:47:32Z</time>
      </trkpt>
      <trkpt lat="49.97697" lon="4.45622">
        <ele>347.6</ele>
        <time>2024-03-17T09:47:33Z</time>
      </trkpt>
      <trkpt lat="49.97693" lon="4.4562">
        <ele>347.8</ele>
        <time>2024-03-17T09:47:34Z</time>
      </trkpt>
      <trkpt lat="49.9769" lon="4.45619">
        <ele>348</ele>
        <time>2024-03-17T09:47:35Z</time>
      </trkpt>
      <trkpt lat="49.97687" lon="4.45617">
        <ele>348.2</ele>
        <time>2024-03-17T09:47:36Z</time>
      </trkpt>
      <trkpt lat="49.97684" lon="4.45616">
        <ele>348.6</ele>
        <time>2024-03-17T09:47:37Z</time>
      </trkpt>
      <trkpt lat="49.9768" lon="4.45613">
        <ele>348.8</ele>
        <time>2024-03-17T09:47:38Z</time>
      </trkpt>
      <trkpt lat="49.97677" lon="4.45612">
        <ele>349</ele>
        <time>2024-03-17T09:47:39Z</time>
      </trkpt>
      <trkpt lat="49.97674" lon="4.4561">
        <ele>349.2</ele>
        <time>2024-03-17T09:47:40Z</time>
      </trkpt>
      <trkpt lat="49.97671" lon="4.45608">
        <ele>349.2</ele>
        <time>2024-03-17T09:47:41Z</time>
      </trkpt>
      <trkpt lat="49.97667" lon="4.45606">
        <ele>349.6</ele>
        <time>2024-03-17T09:47:42Z</time>
      </trkpt>
      <trkpt lat="49.97664" lon="4.45604">
        <ele>349.8</ele>
        <time>2024-03-17T09:47:43Z</time>
      </trkpt>
      <trkpt lat="49.97661" lon="4.45603">
        <ele>350</ele>
        <time>2024-03-17T09:47:44Z</time>
      </trkpt>
      <trkpt lat="49.97657" lon="4.45601">
        <ele>350.4</ele>
        <time>2024-03-17T09:47:45Z</time>
      </trkpt>
      <trkpt lat="49.97654" lon="4.456">
        <ele>350.4</ele>
        <time>2024-03-17T09:47:46Z</time>
      </trkpt>
      <trkpt lat="49.97651" lon="4.45598">
        <ele>350.4</ele>
        <time>2024-03-17T09:47:47Z</time>
      </trkpt>
      <trkpt lat="49.97648" lon="4.45596">
        <ele>350.4</ele>
        <time>2024-03-17T09:47:48Z</time>
      </trkpt>
      <trkpt lat="49.97644" lon="4.45595">
        <ele>350.6</ele>
        <time>2024-03-17T09:47:49Z</time>
      </trkpt>
      <trkpt lat="49.97641" lon="4.45594">
        <ele>350.6</ele>
        <time>2024-03-17T09:47:50Z</time>
      </trkpt>
      <trkpt lat="49.97637" lon="4.45592">
        <ele>350.6</ele>
        <time>2024-03-17T09:47:51Z</time>
      </trkpt>
      <trkpt lat="49.97634" lon="4.45591">
        <ele>350.8</ele>
        <time>2024-03-17T09:47:52Z</time>
      </trkpt>
      <trkpt lat="49.97631" lon="4.4559">
        <ele>351</ele>
        <time>2024-03-17T09:47:53Z</time>
      </trkpt>
      <trkpt lat="49.97627" lon="4.45589">
        <ele>351.2</ele>
        <time>2024-03-17T09:47:54Z</time>
      </trkpt>
      <trkpt lat="49.97624" lon="4.45587">
        <ele>351.4</ele>
        <time>2024-03-17T09:47:55Z</time>
      </trkpt>
      <trkpt lat="49.97621" lon="4.45586">
        <ele>351.6</ele>
        <time>2024-03-17T09:47:56Z</time>
      </trkpt>
      <trkpt lat="49.97617" lon="4.45585">
        <ele>352</ele>
        <time>2024-03-17T09:47:57Z</time>
      </trkpt>
      <trkpt lat="49.97614" lon="4.45583">
        <ele>352.2</ele>
        <time>2024-03-17T09:47:58Z</time>
      </trkpt>
      <trkpt lat="49.9761" lon="4.45582">
        <ele>352.2</ele>
        <time>2024-03-17T09:47:59Z</time>
      </trkpt>
      <trkpt lat="49.97606" lon="4.45582">
        <ele>352.6</ele>
        <time>2024-03-17T09:48:00Z</time>
      </trkpt>
      <trkpt lat="49.97603" lon="4.45581">
        <ele>352.8</ele>
        <time>2024-03-17T09:48:01Z</time>
      </trkpt>
      <trkpt lat="49.97599" lon="4.4558">
        <ele>352.8</ele>
        <time>2024-03-17T09:48:02Z</time>
      </trkpt>
      <trkpt lat="49.97595" lon="4.45579">
        <ele>353</ele>
        <time>2024-03-17T09:48:03Z</time>
      </trkpt>
      <trkpt lat="49.97592" lon="4.45577">
        <ele>353</ele>
        <time>2024-03-17T09:48:04Z</time>
      </trkpt>
      <trkpt lat="49.97588" lon="4.45576">
        <ele>353</ele>
        <time>2024-03-17T09:48:05Z</time>
      </trkpt>
      <trkpt lat="49.97584" lon="4.45575">
        <ele>353</ele>
        <time>2024-03-17T09:48:06Z</time>
      </trkpt>
      <trkpt lat="49.97581" lon="4.45574">
        <ele>353.2</ele>
        <time>2024-03-17T09:48:07Z</time>
      </trkpt>
      <trkpt lat="49.97577" lon="4.45572">
        <ele>353.4</ele>
        <time>2024-03-17T09:48:08Z</time>
      </trkpt>
      <trkpt lat="49.97574" lon="4.45571">
        <ele>353.4</ele>
        <time>2024-03-17T09:48:09Z</time>
      </trkpt>
      <trkpt lat="49.9757" lon="4.4557">
        <ele>353.6</ele>
        <time>2024-03-17T09:48:10Z</time>
      </trkpt>
      <trkpt lat="49.97566" lon="4.45569">
        <ele>353.6</ele>
        <time>2024-03-17T09:48:11Z</time>
      </trkpt>
      <trkpt lat="49.97563" lon="4.45568">
        <ele>353.8</ele>
        <time>2024-03-17T09:48:12Z</time>
      </trkpt>
      <trkpt lat="49.97559" lon="4.45567">
        <ele>353.8</ele>
        <time>2024-03-17T09:48:13Z</time>
      </trkpt>
      <trkpt lat="49.97556" lon="4.45566">
        <ele>354</ele>
        <time>2024-03-17T09:48:14Z</time>
      </trkpt>
      <trkpt lat="49.97552" lon="4.45565">
        <ele>354</ele>
        <time>2024-03-17T09:48:15Z</time>
      </trkpt>
      <trkpt lat="49.97549" lon="4.45564">
        <ele>354.2</ele>
        <time>2024-03-17T09:48:16Z</time>
      </trkpt>
      <trkpt lat="49.97545" lon="4.45563">
        <ele>354.4</ele>
        <time>2024-03-17T09:48:17Z</time>
      </trkpt>
      <trkpt lat="49.97542" lon="4.45562">
        <ele>354.4</ele>
        <time>2024-03-17T09:48:18Z</time>
      </trkpt>
      <trkpt lat="49.97538" lon="4.45561">
        <ele>354.6</ele>
        <time>2024-03-17T09:48:19Z</time>
      </trkpt>
      <trkpt lat="49.97535" lon="4.4556">
        <ele>354.4</ele>
        <time>2024-03-17T09:48:20Z</time>
      </trkpt>
      <trkpt lat="49.97531" lon="4.45559">
        <ele>354.4</ele>
        <time>2024-03-17T09:48:21Z</time>
      </trkpt>
      <trkpt lat="49.97528" lon="4.45559">
        <ele>354.6</ele>
        <time>2024-03-17T09:48:22Z</time>
      </trkpt>
      <trkpt lat="49.97524" lon="4.45558">
        <ele>355</ele>
        <time>2024-03-17T09:48:23Z</time>
      </trkpt>
      <trkpt lat="49.97521" lon="4.45557">
        <ele>355</ele>
        <time>2024-03-17T09:48:24Z</time>
      </trkpt>
      <trkpt lat="49.97518" lon="4.45556">
        <ele>355.2</ele>
        <time>2024-03-17T09:48:25Z</time>
      </trkpt>
      <trkpt lat="49.97514" lon="4.45555">
        <ele>355.2</ele>
        <time>2024-03-17T09:48:26Z</time>
      </trkpt>
      <trkpt lat="49.97511" lon="4.45554">
        <ele>355.6</ele>
        <time>2024-03-17T09:48:27Z</time>
      </trkpt>
      <trkpt lat="49.97507" lon="4.45553">
        <ele>355.8</ele>
        <time>2024-03-17T09:48:28Z</time>
      </trkpt>
      <trkpt lat="49.97504" lon="4.45552">
        <ele>356</ele>
        <time>2024-03-17T09:48:29Z</time>
      </trkpt>
      <trkpt lat="49.975" lon="4.45551">
        <ele>356.4</ele>
        <time>2024-03-17T09:48:30Z</time>
      </trkpt>
      <trkpt lat="49.97497" lon="4.4555">
        <ele>356.6</ele>
        <time>2024-03-17T09:48:31Z</time>
      </trkpt>
      <trkpt lat="49.97493" lon="4.4555">
        <ele>357.2</ele>
        <time>2024-03-17T09:48:32Z</time>
      </trkpt>
      <trkpt lat="49.9749" lon="4.45549">
        <ele>357.8</ele>
        <time>2024-03-17T09:48:33Z</time>
      </trkpt>
      <trkpt lat="49.97486" lon="4.45548">
        <ele>358.2</ele>
        <time>2024-03-17T09:48:34Z</time>
      </trkpt>
      <trkpt lat="49.97483" lon="4.45547">
        <ele>358.4</ele>
        <time>2024-03-17T09:48:35Z</time>
      </trkpt>
      <trkpt lat="49.97479" lon="4.45546">
        <ele>358.4</ele>
        <time>2024-03-17T09:48:36Z</time>
      </trkpt>
      <trkpt lat="49.97475" lon="4.45545">
        <ele>358.6</ele>
        <time>2024-03-17T09:48:37Z</time>
      </trkpt>
      <trkpt lat="49.97472" lon="4.45544">
        <ele>358.6</ele>
        <time>2024-03-17T09:48:38Z</time>
      </trkpt>
      <trkpt lat="49.97468" lon="4.45543">
        <ele>358.6</ele>
        <time>2024-03-17T09:48:39Z</time>
      </trkpt>
      <trkpt lat="49.97465" lon="4.45542">
        <ele>358.8</ele>
        <time>2024-03-17T09:48:40Z</time>
      </trkpt>
      <trkpt lat="49.97461" lon="4.45541">
        <ele>359.2</ele>
        <time>2024-03-17T09:48:41Z</time>
      </trkpt>
      <trkpt lat="49.97458" lon="4.4554">
        <ele>359.2</ele>
        <time>2024-03-17T09:48:42Z</time>
      </trkpt>
      <trkpt lat="49.97454" lon="4.45539">
        <ele>359.2</ele>
        <time>2024-03-17T09:48:43Z</time>
      </trkpt>
      <trkpt lat="49.97451" lon="4.45538">
        <ele>359.2</ele>
        <time>2024-03-17T09:48:44Z</time>
      </trkpt>
      <trkpt lat="49.97447" lon="4.45538">
        <ele>359.4</ele>
        <time>2024-03-17T09:48:45Z</time>
      </trkpt>
      <trkpt lat="49.97444" lon="4.45537">
        <ele>359.2</ele>
        <time>2024-03-17T09:48:46Z</time>
      </trkpt>
      <trkpt lat="49.9744" lon="4.45536">
        <ele>359.6</ele>
        <time>2024-03-17T09:48:47Z</time>
      </trkpt>
      <trkpt lat="49.97437" lon="4.45535">
        <ele>359.6</ele>
        <time>2024-03-17T09:48:48Z</time>
      </trkpt>
      <trkpt lat="49.97433" lon="4.45534">
        <ele>359.6</ele>
        <time>2024-03-17T09:48:49Z</time>
      </trkpt>
      <trkpt lat="49.97429" lon="4.45533">
        <ele>359.8</ele>
        <time>2024-03-17T09:48:50Z</time>
      </trkpt>
      <trkpt lat="49.97426" lon="4.45533">
        <ele>359.8</ele>
        <time>2024-03-17T09:48:51Z</time>
      </trkpt>
      <trkpt lat="49.97422" lon="4.45531">
        <ele>359.8</ele>
        <time>2024-03-17T09:48:52Z</time>
      </trkpt>
      <trkpt lat="49.97419" lon="4.4553">
        <ele>360</ele>
        <time>2024-03-17T09:48:53Z</time>
      </trkpt>
      <trkpt lat="49.97415" lon="4.45529">
        <ele>360</ele>
        <time>2024-03-17T09:48:54Z</time>
      </trkpt>
      <trkpt lat="49.97412" lon="4.45527">
        <ele>360</ele>
        <time>2024-03-17T09:48:55Z</time>
      </trkpt>
      <trkpt lat="49.97409" lon="4.45524">
        <ele>360.2</ele>
        <time>2024-03-17T09:48:56Z</time>
      </trkpt>
      <trkpt lat="49.97407" lon="4.4552">
        <ele>360.2</ele>
        <time>2024-03-17T09:48:57Z</time>
      </trkpt>
      <trkpt lat="49.97406" lon="4.45514">
        <ele>360.2</ele>
        <time>2024-03-17T09:48:58Z</time>
      </trkpt>
      <trkpt lat="49.97406" lon="4.45508">
        <ele>360.6</ele>
        <time>2024-03-17T09:48:59Z</time>
      </trkpt>
      <trkpt lat="49.97406" lon="4.45502">
        <ele>360.6</ele>
        <time>2024-03-17T09:49:00Z</time>
      </trkpt>
      <trkpt lat="49.97406" lon="4.45495">
        <ele>361.6</ele>
        <time>2024-03-17T09:49:01Z</time>
      </trkpt>
      <trkpt lat="49.97406" lon="4.45489">
        <ele>362.2</ele>
        <time>2024-03-17T09:49:02Z</time>
      </trkpt>
      <trkpt lat="49.97406" lon="4.45482">
        <ele>362.4</ele>
        <time>2024-03-17T09:49:03Z</time>
      </trkpt>
      <trkpt lat="49.97407" lon="4.45474">
        <ele>362.8</ele>
        <time>2024-03-17T09:49:04Z</time>
      </trkpt>
      <trkpt lat="49.97407" lon="4.45467">
        <ele>363.2</ele>
        <time>2024-03-17T09:49:05Z</time>
      </trkpt>
      <trkpt lat="49.97407" lon="4.4546">
        <ele>363.2</ele>
        <time>2024-03-17T09:49:06Z</time>
      </trkpt>
      <trkpt lat="49.97408" lon="4.45452">
        <ele>363.2</ele>
        <time>2024-03-17T09:49:07Z</time>
      </trkpt>
      <trkpt lat="49.97408" lon="4.45445">
        <ele>363.4</ele>
        <time>2024-03-17T09:49:08Z</time>
      </trkpt>
      <trkpt lat="49.97409" lon="4.45437">
        <ele>363.2</ele>
        <time>2024-03-17T09:49:09Z</time>
      </trkpt>
      <trkpt lat="49.97409" lon="4.45429">
        <ele>363.2</ele>
        <time>2024-03-17T09:49:10Z</time>
      </trkpt>
      <trkpt lat="49.97409" lon="4.45421">
        <ele>363.4</ele>
        <time>2024-03-17T09:49:11Z</time>
      </trkpt>
      <trkpt lat="49.9741" lon="4.45413">
        <ele>363.8</ele>
        <time>2024-03-17T09:49:12Z</time>
      </trkpt>
      <trkpt lat="49.9741" lon="4.45404">
        <ele>363.8</ele>
        <time>2024-03-17T09:49:13Z</time>
      </trkpt>
      <trkpt lat="49.97411" lon="4.45395">
        <ele>363.6</ele>
        <time>2024-03-17T09:49:14Z</time>
      </trkpt>
      <trkpt lat="49.97411" lon="4.45386">
        <ele>363.8</ele>
        <time>2024-03-17T09:49:15Z</time>
      </trkpt>
      <trkpt lat="49.97412" lon="4.45377">
        <ele>363.8</ele>
        <time>2024-03-17T09:49:16Z</time>
      </trkpt>
      <trkpt lat="49.97412" lon="4.45368">
        <ele>363.6</ele>
        <time>2024-03-17T09:49:17Z</time>
      </trkpt>
      <trkpt lat="49.97413" lon="4.4536">
        <ele>363.6</ele>
        <time>2024-03-17T09:49:18Z</time>
      </trkpt>
      <trkpt lat="49.97413" lon="4.45351">
        <ele>363.6</ele>
        <time>2024-03-17T09:49:19Z</time>
      </trkpt>
      <trkpt lat="49.97414" lon="4.45341">
        <ele>363.6</ele>
        <time>2024-03-17T09:49:20Z</time>
      </trkpt>
      <trkpt lat="49.97414" lon="4.45332">
        <ele>363.6</ele>
        <time>2024-03-17T09:49:21Z</time>
      </trkpt>
      <trkpt lat="49.97415" lon="4.45322">
        <ele>363.6</ele>
        <time>2024-03-17T09:49:22Z</time>
      </trkpt>
      <trkpt lat="49.97415" lon="4.45312">
        <ele>363.6</ele>
        <time>2024-03-17T09:49:23Z</time>
      </trkpt>
      <trkpt lat="49.97416" lon="4.45302">
        <ele>363.6</ele>
        <time>2024-03-17T09:49:24Z</time>
      </trkpt>
      <trkpt lat="49.97417" lon="4.45292">
        <ele>363.6</ele>
        <time>2024-03-17T09:49:25Z</time>
      </trkpt>
      <trkpt lat="49.97417" lon="4.45282">
        <ele>363.4</ele>
        <time>2024-03-17T09:49:26Z</time>
      </trkpt>
      <trkpt lat="49.97418" lon="4.45271">
        <ele>363.2</ele>
        <time>2024-03-17T09:49:27Z</time>
      </trkpt>
      <trkpt lat="49.97418" lon="4.4526">
        <ele>363</ele>
        <time>2024-03-17T09:49:28Z</time>
      </trkpt>
      <trkpt lat="49.97419" lon="4.45249">
        <ele>362.6</ele>
        <time>2024-03-17T09:49:29Z</time>
      </trkpt>
      <trkpt lat="49.97419" lon="4.45238">
        <ele>362.4</ele>
        <time>2024-03-17T09:49:30Z</time>
      </trkpt>
      <trkpt lat="49.97419" lon="4.45227">
        <ele>362</ele>
        <time>2024-03-17T09:49:31Z</time>
      </trkpt>
      <trkpt lat="49.97419" lon="4.45216">
        <ele>361.6</ele>
        <time>2024-03-17T09:49:32Z</time>
      </trkpt>
      <trkpt lat="49.9742" lon="4.45204">
        <ele>361.6</ele>
        <time>2024-03-17T09:49:33Z</time>
      </trkpt>
      <trkpt lat="49.9742" lon="4.45193">
        <ele>361.4</ele>
        <time>2024-03-17T09:49:34Z</time>
      </trkpt>
      <trkpt lat="49.97421" lon="4.45181">
        <ele>361.4</ele>
        <time>2024-03-17T09:49:35Z</time>
      </trkpt>
      <trkpt lat="49.97422" lon="4.45169">
        <ele>361.2</ele>
        <time>2024-03-17T09:49:36Z</time>
      </trkpt>
      <trkpt lat="49.97423" lon="4.45157">
        <ele>361</ele>
        <time>2024-03-17T09:49:37Z</time>
      </trkpt>
      <trkpt lat="49.97424" lon="4.45145">
        <ele>360.8</ele>
        <time>2024-03-17T09:49:38Z</time>
      </trkpt>
      <trkpt lat="49.97425" lon="4.45132">
        <ele>360.6</ele>
        <time>2024-03-17T09:49:39Z</time>
      </trkpt>
      <trkpt lat="49.97426" lon="4.45119">
        <ele>360.2</ele>
        <time>2024-03-17T09:49:40Z</time>
      </trkpt>
      <trkpt lat="49.97427" lon="4.45106">
        <ele>360</ele>
        <time>2024-03-17T09:49:41Z</time>
      </trkpt>
      <trkpt lat="49.97429" lon="4.45093">
        <ele>360</ele>
        <time>2024-03-17T09:49:42Z</time>
      </trkpt>
      <trkpt lat="49.97431" lon="4.45079">
        <ele>359.6</ele>
        <time>2024-03-17T09:49:43Z</time>
      </trkpt>
      <trkpt lat="49.97432" lon="4.45065">
        <ele>359.6</ele>
        <time>2024-03-17T09:49:44Z</time>
      </trkpt>
      <trkpt lat="49.97434" lon="4.45051">
        <ele>359.6</ele>
        <time>2024-03-17T09:49:45Z</time>
      </trkpt>
      <trkpt lat="49.97435" lon="4.45036">
        <ele>359</ele>
        <time>2024-03-17T09:49:46Z</time>
      </trkpt>
      <trkpt lat="49.97436" lon="4.4502">
        <ele>359</ele>
        <time>2024-03-17T09:49:47Z</time>
      </trkpt>
      <trkpt lat="49.97437" lon="4.45004">
        <ele>358.4</ele>
        <time>2024-03-17T09:49:48Z</time>
      </trkpt>
      <trkpt lat="49.97438" lon="4.44988">
        <ele>357.8</ele>
        <time>2024-03-17T09:49:49Z</time>
      </trkpt>
      <trkpt lat="49.97438" lon="4.44971">
        <ele>357.4</ele>
        <time>2024-03-17T09:49:50Z</time>
      </trkpt>
      <trkpt lat="49.97439" lon="4.44954">
        <ele>357.4</ele>
        <time>2024-03-17T09:49:51Z</time>
      </trkpt>
      <trkpt lat="49.97441" lon="4.44937">
        <ele>357.2</ele>
        <time>2024-03-17T09:49:52Z</time>
      </trkpt>
      <trkpt lat="49.97444" lon="4.4492">
        <ele>356.4</ele>
        <time>2024-03-17T09:49:53Z</time>
      </trkpt>
      <trkpt lat="49.97449" lon="4.44905">
        <ele>355.8</ele>
        <time>2024-03-17T09:49:54Z</time>
      </trkpt>
      <trkpt lat="49.97457" lon="4.44892">
        <ele>355.4</ele>
        <time>2024-03-17T09:49:55Z</time>
      </trkpt>
      <trkpt lat="49.97466" lon="4.44882">
        <ele>355</ele>
        <time>2024-03-17T09:49:56Z</time>
      </trkpt>
      <trkpt lat="49.97477" lon="4.44874">
        <ele>354.4</ele>
        <time>2024-03-17T09:49:57Z</time>
      </trkpt>
      <trkpt lat="49.97486" lon="4.44866">
        <ele>353.6</ele>
        <time>2024-03-17T09:49:58Z</time>
      </trkpt>
      <trkpt lat="49.97496" lon="4.44857">
        <ele>352.6</ele>
        <time>2024-03-17T09:49:59Z</time>
      </trkpt>
      <trkpt lat="49.97505" lon="4.44848">
        <ele>351.4</ele>
        <time>2024-03-17T09:50:00Z</time>
      </trkpt>
      <trkpt lat="49.97515" lon="4.44838">
        <ele>350.6</ele>
        <time>2024-03-17T09:50:01Z</time>
      </trkpt>
      <trkpt lat="49.97524" lon="4.44829">
        <ele>350</ele>
        <time>2024-03-17T09:50:02Z</time>
      </trkpt>
      <trkpt lat="49.97533" lon="4.44819">
        <ele>349</ele>
        <time>2024-03-17T09:50:03Z</time>
      </trkpt>
      <trkpt lat="49.97543" lon="4.44809">
        <ele>347.4</ele>
        <time>2024-03-17T09:50:04Z</time>
      </trkpt>
      <trkpt lat="49.97552" lon="4.44799">
        <ele>346.6</ele>
        <time>2024-03-17T09:50:05Z</time>
      </trkpt>
      <trkpt lat="49.97561" lon="4.44789">
        <ele>346</ele>
        <time>2024-03-17T09:50:06Z</time>
      </trkpt>
      <trkpt lat="49.97571" lon="4.44779">
        <ele>345.6</ele>
        <time>2024-03-17T09:50:07Z</time>
      </trkpt>
      <trkpt lat="49.9758" lon="4.44769">
        <ele>345.6</ele>
        <time>2024-03-17T09:50:08Z</time>
      </trkpt>
      <trkpt lat="49.9759" lon="4.44759">
        <ele>345.6</ele>
        <time>2024-03-17T09:50:09Z</time>
      </trkpt>
      <trkpt lat="49.976" lon="4.44748">
        <ele>344.8</ele>
        <time>2024-03-17T09:50:10Z</time>
      </trkpt>
      <trkpt lat="49.97609" lon="4.44737">
        <ele>344.6</ele>
        <time>2024-03-17T09:50:11Z</time>
      </trkpt>
      <trkpt lat="49.97619" lon="4.44726">
        <ele>344</ele>
        <time>2024-03-17T09:50:12Z</time>
      </trkpt>
      <trkpt lat="49.97629" lon="4.44715">
        <ele>343.6</ele>
        <time>2024-03-17T09:50:13Z</time>
      </trkpt>
      <trkpt lat="49.9764" lon="4.44704">
        <ele>343</ele>
        <time>2024-03-17T09:50:14Z</time>
      </trkpt>
      <trkpt lat="49.9765" lon="4.44693">
        <ele>341.8</ele>
        <time>2024-03-17T09:50:15Z</time>
      </trkpt>
      <trkpt lat="49.9766" lon="4.44682">
        <ele>341</ele>
        <time>2024-03-17T09:50:16Z</time>
      </trkpt>
      <trkpt lat="49.97671" lon="4.44671">
        <ele>340.4</ele>
        <time>2024-03-17T09:50:17Z</time>
      </trkpt>
      <trkpt lat="49.97681" lon="4.4466">
        <ele>340</ele>
        <time>2024-03-17T09:50:18Z</time>
      </trkpt>
      <trkpt lat="49.97691" lon="4.44649">
        <ele>339.4</ele>
        <time>2024-03-17T09:50:19Z</time>
      </trkpt>
      <trkpt lat="49.97701" lon="4.44639">
        <ele>338.6</ele>
        <time>2024-03-17T09:50:20Z</time>
      </trkpt>
      <trkpt lat="49.9771" lon="4.4463">
        <ele>337.4</ele>
        <time>2024-03-17T09:50:21Z</time>
      </trkpt>
      <trkpt lat="49.97719" lon="4.4462">
        <ele>336.2</ele>
        <time>2024-03-17T09:50:22Z</time>
      </trkpt>
      <trkpt lat="49.97728" lon="4.44611">
        <ele>335.4</ele>
        <time>2024-03-17T09:50:23Z</time>
      </trkpt>
      <trkpt lat="49.97737" lon="4.44602">
        <ele>335.2</ele>
        <time>2024-03-17T09:50:24Z</time>
      </trkpt>
      <trkpt lat="49.97745" lon="4.44593">
        <ele>335.2</ele>
        <time>2024-03-17T09:50:25Z</time>
      </trkpt>
      <trkpt lat="49.97753" lon="4.44585">
        <ele>334.8</ele>
        <time>2024-03-17T09:50:26Z</time>
      </trkpt>
      <trkpt lat="49.9776" lon="4.44576">
        <ele>334.8</ele>
        <time>2024-03-17T09:50:27Z</time>
      </trkpt>
      <trkpt lat="49.97767" lon="4.44568">
        <ele>334.8</ele>
        <time>2024-03-17T09:50:28Z</time>
      </trkpt>
      <trkpt lat="49.97773" lon="4.44559">
        <ele>334.8</ele>
        <time>2024-03-17T09:50:29Z</time>
      </trkpt>
      <trkpt lat="49.97779" lon="4.4455">
        <ele>334.8</ele>
        <time>2024-03-17T09:50:30Z</time>
      </trkpt>
      <trkpt lat="49.97784" lon="4.44542">
        <ele>334.6</ele>
        <time>2024-03-17T09:50:31Z</time>
      </trkpt>
      <trkpt lat="49.97789" lon="4.44534">
        <ele>334.8</ele>
        <time>2024-03-17T09:50:32Z</time>
      </trkpt>
      <trkpt lat="49.97794" lon="4.44525">
        <ele>334.8</ele>
        <time>2024-03-17T09:50:33Z</time>
      </trkpt>
      <trkpt lat="49.97799" lon="4.44518">
        <ele>335.2</ele>
        <time>2024-03-17T09:50:34Z</time>
      </trkpt>
      <trkpt lat="49.97804" lon="4.4451">
        <ele>335.8</ele>
        <time>2024-03-17T09:50:35Z</time>
      </trkpt>
      <trkpt lat="49.97808" lon="4.44502">
        <ele>336.6</ele>
        <time>2024-03-17T09:50:36Z</time>
      </trkpt>
      <trkpt lat="49.97813" lon="4.44494">
        <ele>337.4</ele>
        <time>2024-03-17T09:50:37Z</time>
      </trkpt>
      <trkpt lat="49.97817" lon="4.44486">
        <ele>338.2</ele>
        <time>2024-03-17T09:50:38Z</time>
      </trkpt>
      <trkpt lat="49.97821" lon="4.44478">
        <ele>338.4</ele>
        <time>2024-03-17T09:50:39Z</time>
      </trkpt>
      <trkpt lat="49.97825" lon="4.4447">
        <ele>338.8</ele>
        <time>2024-03-17T09:50:40Z</time>
      </trkpt>
      <trkpt lat="49.97829" lon="4.44461">
        <ele>339.4</ele>
        <time>2024-03-17T09:50:41Z</time>
      </trkpt>
      <trkpt lat="49.97833" lon="4.44453">
        <ele>339.4</ele>
        <time>2024-03-17T09:50:42Z</time>
      </trkpt>
      <trkpt lat="49.97837" lon="4.44444">
        <ele>340</ele>
        <time>2024-03-17T09:50:43Z</time>
      </trkpt>
      <trkpt lat="49.97841" lon="4.44436">
        <ele>340.4</ele>
        <time>2024-03-17T09:50:44Z</time>
      </trkpt>
      <trkpt lat="49.97844" lon="4.44427">
        <ele>340.6</ele>
        <time>2024-03-17T09:50:45Z</time>
      </trkpt>
      <trkpt lat="49.97848" lon="4.44419">
        <ele>341</ele>
        <time>2024-03-17T09:50:46Z</time>
      </trkpt>
      <trkpt lat="49.97852" lon="4.4441">
        <ele>341</ele>
        <time>2024-03-17T09:50:47Z</time>
      </trkpt>
      <trkpt lat="49.97855" lon="4.44402">
        <ele>341.4</ele>
        <time>2024-03-17T09:50:48Z</time>
      </trkpt>
      <trkpt lat="49.97859" lon="4.44393">
        <ele>341.4</ele>
        <time>2024-03-17T09:50:49Z</time>
      </trkpt>
      <trkpt lat="49.97863" lon="4.44384">
        <ele>341.6</ele>
        <time>2024-03-17T09:50:50Z</time>
      </trkpt>
      <trkpt lat="49.97866" lon="4.44375">
        <ele>341.6</ele>
        <time>2024-03-17T09:50:51Z</time>
      </trkpt>
      <trkpt lat="49.9787" lon="4.44366">
        <ele>342</ele>
        <time>2024-03-17T09:50:52Z</time>
      </trkpt>
      <trkpt lat="49.97874" lon="4.44357">
        <ele>342</ele>
        <time>2024-03-17T09:50:53Z</time>
      </trkpt>
      <trkpt lat="49.97877" lon="4.44348">
        <ele>342</ele>
        <time>2024-03-17T09:50:54Z</time>
      </trkpt>
      <trkpt lat="49.97881" lon="4.44339">
        <ele>342.2</ele>
        <time>2024-03-17T09:50:55Z</time>
      </trkpt>
      <trkpt lat="49.97884" lon="4.4433">
        <ele>342.2</ele>
        <time>2024-03-17T09:50:56Z</time>
      </trkpt>
      <trkpt lat="49.97888" lon="4.44321">
        <ele>342.2</ele>
        <time>2024-03-17T09:50:57Z</time>
      </trkpt>
      <trkpt lat="49.97891" lon="4.44312">
        <ele>342.2</ele>
        <time>2024-03-17T09:50:58Z</time>
      </trkpt>
      <trkpt lat="49.97895" lon="4.44303">
        <ele>342.2</ele>
        <time>2024-03-17T09:50:59Z</time>
      </trkpt>
      <trkpt lat="49.97898" lon="4.44294">
        <ele>342.2</ele>
        <time>2024-03-17T09:51:00Z</time>
      </trkpt>
      <trkpt lat="49.97902" lon="4.44285">
        <ele>342.2</ele>
        <time>2024-03-17T09:51:01Z</time>
      </trkpt>
      <trkpt lat="49.97905" lon="4.44276">
        <ele>342</ele>
        <time>2024-03-17T09:51:02Z</time>
      </trkpt>
      <trkpt lat="49.97909" lon="4.44267">
        <ele>342.2</ele>
        <time>2024-03-17T09:51:03Z</time>
      </trkpt>
      <trkpt lat="49.97913" lon="4.44257">
        <ele>342.2</ele>
        <time>2024-03-17T09:51:04Z</time>
      </trkpt>
      <trkpt lat="49.97917" lon="4.44248">
        <ele>342.2</ele>
        <time>2024-03-17T09:51:05Z</time>
      </trkpt>
      <trkpt lat="49.9792" lon="4.44238">
        <ele>342.2</ele>
        <time>2024-03-17T09:51:06Z</time>
      </trkpt>
      <trkpt lat="49.97924" lon="4.44227">
        <ele>342.2</ele>
        <time>2024-03-17T09:51:07Z</time>
      </trkpt>
      <trkpt lat="49.97927" lon="4.44217">
        <ele>341.8</ele>
        <time>2024-03-17T09:51:08Z</time>
      </trkpt>
      <trkpt lat="49.97931" lon="4.44206">
        <ele>341.4</ele>
        <time>2024-03-17T09:51:09Z</time>
      </trkpt>
      <trkpt lat="49.97934" lon="4.44195">
        <ele>341.4</ele>
        <time>2024-03-17T09:51:10Z</time>
      </trkpt>
      <trkpt lat="49.97938" lon="4.44184">
        <ele>341.2</ele>
        <time>2024-03-17T09:51:11Z</time>
      </trkpt>
      <trkpt lat="49.97941" lon="4.44173">
        <ele>341.2</ele>
        <time>2024-03-17T09:51:12Z</time>
      </trkpt>
      <trkpt lat="49.97945" lon="4.44163">
        <ele>340.8</ele>
        <time>2024-03-17T09:51:13Z</time>
      </trkpt>
      <trkpt lat="49.9795" lon="4.44152">
        <ele>340.6</ele>
        <time>2024-03-17T09:51:14Z</time>
      </trkpt>
      <trkpt lat="49.97955" lon="4.44141">
        <ele>340.6</ele>
        <time>2024-03-17T09:51:15Z</time>
      </trkpt>
      <trkpt lat="49.9796" lon="4.44131">
        <ele>340.6</ele>
        <time>2024-03-17T09:51:16Z</time>
      </trkpt>
      <trkpt lat="49.97965" lon="4.4412">
        <ele>340.4</ele>
        <time>2024-03-17T09:51:17Z</time>
      </trkpt>
      <trkpt lat="49.97971" lon="4.4411">
        <ele>340.2</ele>
        <time>2024-03-17T09:51:18Z</time>
      </trkpt>
      <trkpt lat="49.97977" lon="4.441">
        <ele>340</ele>
        <time>2024-03-17T09:51:19Z</time>
      </trkpt>
      <trkpt lat="49.97983" lon="4.4409">
        <ele>340</ele>
        <time>2024-03-17T09:51:20Z</time>
      </trkpt>
      <trkpt lat="49.9799" lon="4.4408">
        <ele>340</ele>
        <time>2024-03-17T09:51:21Z</time>
      </trkpt>
      <trkpt lat="49.97997" lon="4.44071">
        <ele>340</ele>
        <time>2024-03-17T09:51:22Z</time>
      </trkpt>
      <trkpt lat="49.98004" lon="4.44062">
        <ele>339.8</ele>
        <time>2024-03-17T09:51:23Z</time>
      </trkpt>
      <trkpt lat="49.98011" lon="4.44053">
        <ele>339.8</ele>
        <time>2024-03-17T09:51:24Z</time>
      </trkpt>
      <trkpt lat="49.98019" lon="4.44044">
        <ele>339</ele>
        <time>2024-03-17T09:51:25Z</time>
      </trkpt>
      <trkpt lat="49.98026" lon="4.44034">
        <ele>338.2</ele>
        <time>2024-03-17T09:51:26Z</time>
      </trkpt>
      <trkpt lat="49.98033" lon="4.44025">
        <ele>337.6</ele>
        <time>2024-03-17T09:51:27Z</time>
      </trkpt>
      <trkpt lat="49.9804" lon="4.44016">
        <ele>337.4</ele>
        <time>2024-03-17T09:51:28Z</time>
      </trkpt>
      <trkpt lat="49.98047" lon="4.44006">
        <ele>336.8</ele>
        <time>2024-03-17T09:51:29Z</time>
      </trkpt>
      <trkpt lat="49.98054" lon="4.43997">
        <ele>336.4</ele>
        <time>2024-03-17T09:51:30Z</time>
      </trkpt>
      <trkpt lat="49.98062" lon="4.43988">
        <ele>336</ele>
        <time>2024-03-17T09:51:31Z</time>
      </trkpt>
      <trkpt lat="49.98068" lon="4.43979">
        <ele>336</ele>
        <time>2024-03-17T09:51:32Z</time>
      </trkpt>
      <trkpt lat="49.98075" lon="4.4397">
        <ele>335.8</ele>
        <time>2024-03-17T09:51:33Z</time>
      </trkpt>
      <trkpt lat="49.98082" lon="4.43962">
        <ele>335.6</ele>
        <time>2024-03-17T09:51:34Z</time>
      </trkpt>
      <trkpt lat="49.98089" lon="4.43953">
        <ele>335.4</ele>
        <time>2024-03-17T09:51:35Z</time>
      </trkpt>
      <trkpt lat="49.98095" lon="4.43945">
        <ele>335.6</ele>
        <time>2024-03-17T09:51:36Z</time>
      </trkpt>
      <trkpt lat="49.98101" lon="4.43936">
        <ele>335.6</ele>
        <time>2024-03-17T09:51:37Z</time>
      </trkpt>
      <trkpt lat="49.98108" lon="4.43929">
        <ele>335.4</ele>
        <time>2024-03-17T09:51:38Z</time>
      </trkpt>
      <trkpt lat="49.98114" lon="4.43922">
        <ele>335.6</ele>
        <time>2024-03-17T09:51:39Z</time>
      </trkpt>
      <trkpt lat="49.98121" lon="4.43915">
        <ele>335.6</ele>
        <time>2024-03-17T09:51:40Z</time>
      </trkpt>
      <trkpt lat="49.98128" lon="4.43909">
        <ele>335.4</ele>
        <time>2024-03-17T09:51:41Z</time>
      </trkpt>
      <trkpt lat="49.98135" lon="4.43905">
        <ele>335.4</ele>
        <time>2024-03-17T09:51:42Z</time>
      </trkpt>
      <trkpt lat="49.98142" lon="4.43901">
        <ele>335.6</ele>
        <time>2024-03-17T09:51:43Z</time>
      </trkpt>
      <trkpt lat="49.98149" lon="4.43899">
        <ele>335.8</ele>
        <time>2024-03-17T09:51:44Z</time>
      </trkpt>
      <trkpt lat="49.98157" lon="4.43898">
        <ele>335.8</ele>
        <time>2024-03-17T09:51:45Z</time>
      </trkpt>
      <trkpt lat="49.98164" lon="4.43898">
        <ele>336</ele>
        <time>2024-03-17T09:51:46Z</time>
      </trkpt>
      <trkpt lat="49.98172" lon="4.43897">
        <ele>336.2</ele>
        <time>2024-03-17T09:51:47Z</time>
      </trkpt>
      <trkpt lat="49.98179" lon="4.43896">
        <ele>336.4</ele>
        <time>2024-03-17T09:51:48Z</time>
      </trkpt>
      <trkpt lat="49.98187" lon="4.43895">
        <ele>336.4</ele>
        <time>2024-03-17T09:51:49Z</time>
      </trkpt>
      <trkpt lat="49.98194" lon="4.43892">
        <ele>336.6</ele>
        <time>2024-03-17T09:51:50Z</time>
      </trkpt>
      <trkpt lat="49.98201" lon="4.43889">
        <ele>336.6</ele>
        <time>2024-03-17T09:51:51Z</time>
      </trkpt>
      <trkpt lat="49.98209" lon="4.43886">
        <ele>336.8</ele>
        <time>2024-03-17T09:51:52Z</time>
      </trkpt>
      <trkpt lat="49.98216" lon="4.43882">
        <ele>336.8</ele>
        <time>2024-03-17T09:51:53Z</time>
      </trkpt>
      <trkpt lat="49.98224" lon="4.43879">
        <ele>336.8</ele>
        <time>2024-03-17T09:51:54Z</time>
      </trkpt>
      <trkpt lat="49.98232" lon="4.43875">
        <ele>337</ele>
        <time>2024-03-17T09:51:55Z</time>
      </trkpt>
      <trkpt lat="49.9824" lon="4.4387">
        <ele>337</ele>
        <time>2024-03-17T09:51:56Z</time>
      </trkpt>
      <trkpt lat="49.98247" lon="4.43863">
        <ele>337</ele>
        <time>2024-03-17T09:51:57Z</time>
      </trkpt>
      <trkpt lat="49.98254" lon="4.43855">
        <ele>337</ele>
        <time>2024-03-17T09:51:58Z</time>
      </trkpt>
      <trkpt lat="49.9826" lon="4.43847">
        <ele>337.2</ele>
        <time>2024-03-17T09:51:59Z</time>
      </trkpt>
      <trkpt lat="49.98266" lon="4.43838">
        <ele>337.2</ele>
        <time>2024-03-17T09:52:00Z</time>
      </trkpt>
      <trkpt lat="49.98271" lon="4.43828">
        <ele>337</ele>
        <time>2024-03-17T09:52:01Z</time>
      </trkpt>
      <trkpt lat="49.98276" lon="4.43818">
        <ele>337.2</ele>
        <time>2024-03-17T09:52:02Z</time>
      </trkpt>
      <trkpt lat="49.98281" lon="4.43807">
        <ele>337</ele>
        <time>2024-03-17T09:52:03Z</time>
      </trkpt>
      <trkpt lat="49.98285" lon="4.43795">
        <ele>337.2</ele>
        <time>2024-03-17T09:52:04Z</time>
      </trkpt>
      <trkpt lat="49.98288" lon="4.43784">
        <ele>337</ele>
        <time>2024-03-17T09:52:05Z</time>
      </trkpt>
      <trkpt lat="49.98291" lon="4.43772">
        <ele>337</ele>
        <time>2024-03-17T09:52:06Z</time>
      </trkpt>
      <trkpt lat="49.98294" lon="4.4376">
        <ele>337.2</ele>
        <time>2024-03-17T09:52:07Z</time>
      </trkpt>
      <trkpt lat="49.98297" lon="4.43748">
        <ele>337.2</ele>
        <time>2024-03-17T09:52:08Z</time>
      </trkpt>
      <trkpt lat="49.983" lon="4.43737">
        <ele>337.2</ele>
        <time>2024-03-17T09:52:09Z</time>
      </trkpt>
      <trkpt lat="49.98302" lon="4.43725">
        <ele>337.2</ele>
        <time>2024-03-17T09:52:10Z</time>
      </trkpt>
      <trkpt lat="49.98304" lon="4.43713">
        <ele>337</ele>
        <time>2024-03-17T09:52:11Z</time>
      </trkpt>
      <trkpt lat="49.98307" lon="4.43702">
        <ele>337.2</ele>
        <time>2024-03-17T09:52:12Z</time>
      </trkpt>
      <trkpt lat="49.98309" lon="4.4369">
        <ele>337.2</ele>
        <time>2024-03-17T09:52:13Z</time>
      </trkpt>
      <trkpt lat="49.98311" lon="4.43678">
        <ele>337.2</ele>
        <time>2024-03-17T09:52:14Z</time>
      </trkpt>
      <trkpt lat="49.98313" lon="4.43666">
        <ele>337.2</ele>
        <time>2024-03-17T09:52:15Z</time>
      </trkpt>
      <trkpt lat="49.98315" lon="4.43654">
        <ele>337.4</ele>
        <time>2024-03-17T09:52:16Z</time>
      </trkpt>
      <trkpt lat="49.98318" lon="4.43642">
        <ele>337.4</ele>
        <time>2024-03-17T09:52:17Z</time>
      </trkpt>
      <trkpt lat="49.9832" lon="4.43629">
        <ele>337.4</ele>
        <time>2024-03-17T09:52:18Z</time>
      </trkpt>
      <trkpt lat="49.98323" lon="4.43617">
        <ele>337.6</ele>
        <time>2024-03-17T09:52:19Z</time>
      </trkpt>
      <trkpt lat="49.98326" lon="4.43605">
        <ele>337.6</ele>
        <time>2024-03-17T09:52:20Z</time>
      </trkpt>
      <trkpt lat="49.98328" lon="4.43592">
        <ele>337.6</ele>
        <time>2024-03-17T09:52:21Z</time>
      </trkpt>
      <trkpt lat="49.98331" lon="4.43579">
        <ele>337.6</ele>
        <time>2024-03-17T09:52:22Z</time>
      </trkpt>
      <trkpt lat="49.98334" lon="4.43566">
        <ele>337.6</ele>
        <time>2024-03-17T09:52:23Z</time>
      </trkpt>
      <trkpt lat="49.98337" lon="4.43553">
        <ele>337.8</ele>
        <time>2024-03-17T09:52:24Z</time>
      </trkpt>
      <trkpt lat="49.9834" lon="4.43541">
        <ele>337.8</ele>
        <time>2024-03-17T09:52:25Z</time>
      </trkpt>
      <trkpt lat="49.98343" lon="4.43528">
        <ele>337.6</ele>
        <time>2024-03-17T09:52:26Z</time>
      </trkpt>
      <trkpt lat="49.98346" lon="4.43516">
        <ele>337.6</ele>
        <time>2024-03-17T09:52:27Z</time>
      </trkpt>
      <trkpt lat="49.9835" lon="4.43503">
        <ele>337.8</ele>
        <time>2024-03-17T09:52:28Z</time>
      </trkpt>
      <trkpt lat="49.98354" lon="4.43491">
        <ele>337.6</ele>
        <time>2024-03-17T09:52:29Z</time>
      </trkpt>
      <trkpt lat="49.98358" lon="4.43479">
        <ele>337.6</ele>
        <time>2024-03-17T09:52:30Z</time>
      </trkpt>
      <trkpt lat="49.98363" lon="4.43467">
        <ele>337.6</ele>
        <time>2024-03-17T09:52:31Z</time>
      </trkpt>
      <trkpt lat="49.98367" lon="4.43455">
        <ele>337.4</ele>
        <time>2024-03-17T09:52:32Z</time>
      </trkpt>
      <trkpt lat="49.98372" lon="4.43443">
        <ele>337</ele>
        <time>2024-03-17T09:52:33Z</time>
      </trkpt>
      <trkpt lat="49.98376" lon="4.4343">
        <ele>336.6</ele>
        <time>2024-03-17T09:52:34Z</time>
      </trkpt>
      <trkpt lat="49.98381" lon="4.43416">
        <ele>335.8</ele>
        <time>2024-03-17T09:52:35Z</time>
      </trkpt>
      <trkpt lat="49.98385" lon="4.43403">
        <ele>335.4</ele>
        <time>2024-03-17T09:52:36Z</time>
      </trkpt>
      <trkpt lat="49.9839" lon="4.43389">
        <ele>335</ele>
        <time>2024-03-17T09:52:37Z</time>
      </trkpt>
      <trkpt lat="49.98394" lon="4.43376">
        <ele>334.8</ele>
        <time>2024-03-17T09:52:38Z</time>
      </trkpt>
      <trkpt lat="49.98399" lon="4.43362">
        <ele>334.6</ele>
        <time>2024-03-17T09:52:39Z</time>
      </trkpt>
      <trkpt lat="49.98404" lon="4.43348">
        <ele>334.4</ele>
        <time>2024-03-17T09:52:40Z</time>
      </trkpt>
      <trkpt lat="49.98408" lon="4.43335">
        <ele>334.2</ele>
        <time>2024-03-17T09:52:41Z</time>
      </trkpt>
      <trkpt lat="49.98413" lon="4.43321">
        <ele>333.8</ele>
        <time>2024-03-17T09:52:42Z</time>
      </trkpt>
      <trkpt lat="49.98417" lon="4.43309">
        <ele>333.2</ele>
        <time>2024-03-17T09:52:43Z</time>
      </trkpt>
      <trkpt lat="49.98421" lon="4.43296">
        <ele>333.2</ele>
        <time>2024-03-17T09:52:44Z</time>
      </trkpt>
      <trkpt lat="49.98425" lon="4.43283">
        <ele>332.2</ele>
        <time>2024-03-17T09:52:45Z</time>
      </trkpt>
      <trkpt lat="49.98429" lon="4.43271">
        <ele>331.2</ele>
        <time>2024-03-17T09:52:46Z</time>
      </trkpt>
      <trkpt lat="49.98433" lon="4.43259">
        <ele>330.8</ele>
        <time>2024-03-17T09:52:47Z</time>
      </trkpt>
      <trkpt lat="49.98437" lon="4.43247">
        <ele>330.6</ele>
        <time>2024-03-17T09:52:48Z</time>
      </trkpt>
      <trkpt lat="49.98441" lon="4.43236">
        <ele>330.6</ele>
        <time>2024-03-17T09:52:49Z</time>
      </trkpt>
      <trkpt lat="49.98445" lon="4.43224">
        <ele>330.6</ele>
        <time>2024-03-17T09:52:50Z</time>
      </trkpt>
      <trkpt lat="49.98449" lon="4.43212">
        <ele>330.4</ele>
        <time>2024-03-17T09:52:51Z</time>
      </trkpt>
      <trkpt lat="49.98453" lon="4.43201">
        <ele>330.4</ele>
        <time>2024-03-17T09:52:52Z</time>
      </trkpt>
      <trkpt lat="49.98457" lon="4.43189">
        <ele>330.4</ele>
        <time>2024-03-17T09:52:53Z</time>
      </trkpt>
      <trkpt lat="49.9846" lon="4.43178">
        <ele>330.4</ele>
        <time>2024-03-17T09:52:54Z</time>
      </trkpt>
      <trkpt lat="49.98464" lon="4.43167">
        <ele>330.4</ele>
        <time>2024-03-17T09:52:55Z</time>
      </trkpt>
      <trkpt lat="49.98468" lon="4.43157">
        <ele>330.4</ele>
        <time>2024-03-17T09:52:56Z</time>
      </trkpt>
      <trkpt lat="49.98472" lon="4.43146">
        <ele>330.4</ele>
        <time>2024-03-17T09:52:57Z</time>
      </trkpt>
      <trkpt lat="49.98475" lon="4.43136">
        <ele>330.6</ele>
        <time>2024-03-17T09:52:58Z</time>
      </trkpt>
      <trkpt lat="49.9848" lon="4.43126">
        <ele>330.8</ele>
        <time>2024-03-17T09:52:59Z</time>
      </trkpt>
      <trkpt lat="49.98484" lon="4.43116">
        <ele>331.2</ele>
        <time>2024-03-17T09:53:00Z</time>
      </trkpt>
      <trkpt lat="49.98489" lon="4.43106">
        <ele>331.2</ele>
        <time>2024-03-17T09:53:01Z</time>
      </trkpt>
      <trkpt lat="49.98493" lon="4.43097">
        <ele>331.4</ele>
        <time>2024-03-17T09:53:02Z</time>
      </trkpt>
      <trkpt lat="49.98498" lon="4.43087">
        <ele>331.4</ele>
        <time>2024-03-17T09:53:03Z</time>
      </trkpt>
      <trkpt lat="49.98503" lon="4.43078">
        <ele>331.6</ele>
        <time>2024-03-17T09:53:04Z</time>
      </trkpt>
      <trkpt lat="49.98509" lon="4.43068">
        <ele>331.8</ele>
        <time>2024-03-17T09:53:05Z</time>
      </trkpt>
      <trkpt lat="49.98514" lon="4.43059">
        <ele>331.6</ele>
        <time>2024-03-17T09:53:06Z</time>
      </trkpt>
      <trkpt lat="49.98519" lon="4.4305">
        <ele>331.8</ele>
        <time>2024-03-17T09:53:07Z</time>
      </trkpt>
      <trkpt lat="49.98525" lon="4.43041">
        <ele>331.8</ele>
        <time>2024-03-17T09:53:08Z</time>
      </trkpt>
      <trkpt lat="49.9853" lon="4.43031">
        <ele>331.8</ele>
        <time>2024-03-17T09:53:09Z</time>
      </trkpt>
      <trkpt lat="49.98536" lon="4.43022">
        <ele>331.8</ele>
        <time>2024-03-17T09:53:10Z</time>
      </trkpt>
      <trkpt lat="49.98541" lon="4.43013">
        <ele>331.8</ele>
        <time>2024-03-17T09:53:11Z</time>
      </trkpt>
      <trkpt lat="49.98546" lon="4.43004">
        <ele>331.8</ele>
        <time>2024-03-17T09:53:12Z</time>
      </trkpt>
      <trkpt lat="49.98551" lon="4.42995">
        <ele>331.8</ele>
        <time>2024-03-17T09:53:13Z</time>
      </trkpt>
      <trkpt lat="49.98557" lon="4.42986">
        <ele>331.8</ele>
        <time>2024-03-17T09:53:14Z</time>
      </trkpt>
      <trkpt lat="49.98562" lon="4.42977">
        <ele>332</ele>
        <time>2024-03-17T09:53:15Z</time>
      </trkpt>
      <trkpt lat="49.98567" lon="4.42967">
        <ele>332</ele>
        <time>2024-03-17T09:53:16Z</time>
      </trkpt>
      <trkpt lat="49.98572" lon="4.42958">
        <ele>332</ele>
        <time>2024-03-17T09:53:17Z</time>
      </trkpt>
      <trkpt lat="49.98578" lon="4.42949">
        <ele>332</ele>
        <time>2024-03-17T09:53:18Z</time>
      </trkpt>
      <trkpt lat="49.98583" lon="4.42939">
        <ele>332</ele>
        <time>2024-03-17T09:53:19Z</time>
      </trkpt>
      <trkpt lat="49.98588" lon="4.4293">
        <ele>332</ele>
        <time>2024-03-17T09:53:20Z</time>
      </trkpt>
      <trkpt lat="49.98593" lon="4.42921">
        <ele>331.8</ele>
        <time>2024-03-17T09:53:21Z</time>
      </trkpt>
      <trkpt lat="49.98598" lon="4.42911">
        <ele>331.8</ele>
        <time>2024-03-17T09:53:22Z</time>
      </trkpt>
      <trkpt lat="49.98604" lon="4.42902">
        <ele>331.6</ele>
        <time>2024-03-17T09:53:23Z</time>
      </trkpt>
      <trkpt lat="49.98609" lon="4.42893">
        <ele>331.4</ele>
        <time>2024-03-17T09:53:24Z</time>
      </trkpt>
      <trkpt lat="49.98615" lon="4.42883">
        <ele>331.4</ele>
        <time>2024-03-17T09:53:25Z</time>
      </trkpt>
      <trkpt lat="49.98621" lon="4.42874">
        <ele>331.2</ele>
        <time>2024-03-17T09:53:26Z</time>
      </trkpt>
      <trkpt lat="49.98627" lon="4.42865">
        <ele>331</ele>
        <time>2024-03-17T09:53:27Z</time>
      </trkpt>
      <trkpt lat="49.98633" lon="4.42857">
        <ele>330.8</ele>
        <time>2024-03-17T09:53:28Z</time>
      </trkpt>
      <trkpt lat="49.98639" lon="4.42848">
        <ele>330.8</ele>
        <time>2024-03-17T09:53:29Z</time>
      </trkpt>
      <trkpt lat="49.98645" lon="4.42841">
        <ele>330.6</ele>
        <time>2024-03-17T09:53:30Z</time>
      </trkpt>
      <trkpt lat="49.98652" lon="4.42834">
        <ele>330.6</ele>
        <time>2024-03-17T09:53:31Z</time>
      </trkpt>
      <trkpt lat="49.98659" lon="4.42827">
        <ele>330.4</ele>
        <time>2024-03-17T09:53:32Z</time>
      </trkpt>
      <trkpt lat="49.98667" lon="4.42821">
        <ele>330.2</ele>
        <time>2024-03-17T09:53:33Z</time>
      </trkpt>
      <trkpt lat="49.98674" lon="4.42814">
        <ele>329.8</ele>
        <time>2024-03-17T09:53:34Z</time>
      </trkpt>
      <trkpt lat="49.98682" lon="4.42806">
        <ele>329.4</ele>
        <time>2024-03-17T09:53:35Z</time>
      </trkpt>
      <trkpt lat="49.98689" lon="4.42797">
        <ele>329.4</ele>
        <time>2024-03-17T09:53:36Z</time>
      </trkpt>
      <trkpt lat="49.98696" lon="4.42786">
        <ele>328.8</ele>
        <time>2024-03-17T09:53:37Z</time>
      </trkpt>
      <trkpt lat="49.98701" lon="4.42774">
        <ele>328.8</ele>
        <time>2024-03-17T09:53:38Z</time>
      </trkpt>
      <trkpt lat="49.98706" lon="4.42762">
        <ele>328.2</ele>
        <time>2024-03-17T09:53:39Z</time>
      </trkpt>
      <trkpt lat="49.9871" lon="4.42748">
        <ele>328</ele>
        <time>2024-03-17T09:53:40Z</time>
      </trkpt>
      <trkpt lat="49.98713" lon="4.42735">
        <ele>327.8</ele>
        <time>2024-03-17T09:53:41Z</time>
      </trkpt>
      <trkpt lat="49.98717" lon="4.42722">
        <ele>327.8</ele>
        <time>2024-03-17T09:53:42Z</time>
      </trkpt>
      <trkpt lat="49.98721" lon="4.42708">
        <ele>326.8</ele>
        <time>2024-03-17T09:53:43Z</time>
      </trkpt>
      <trkpt lat="49.98725" lon="4.42695">
        <ele>326.4</ele>
        <time>2024-03-17T09:53:44Z</time>
      </trkpt>
      <trkpt lat="49.9873" lon="4.42682">
        <ele>325.6</ele>
        <time>2024-03-17T09:53:45Z</time>
      </trkpt>
      <trkpt lat="49.98735" lon="4.42669">
        <ele>324.4</ele>
        <time>2024-03-17T09:53:46Z</time>
      </trkpt>
      <trkpt lat="49.98741" lon="4.42657">
        <ele>323.8</ele>
        <time>2024-03-17T09:53:47Z</time>
      </trkpt>
      <trkpt lat="49.98748" lon="4.42645">
        <ele>323.4</ele>
        <time>2024-03-17T09:53:48Z</time>
      </trkpt>
      <trkpt lat="49.98754" lon="4.42633">
        <ele>322.6</ele>
        <time>2024-03-17T09:53:49Z</time>
      </trkpt>
      <trkpt lat="49.98761" lon="4.4262">
        <ele>322.4</ele>
        <time>2024-03-17T09:53:50Z</time>
      </trkpt>
      <trkpt lat="49.98767" lon="4.42608">
        <ele>322.2</ele>
        <time>2024-03-17T09:53:51Z</time>
      </trkpt>
      <trkpt lat="49.98774" lon="4.42596">
        <ele>322.2</ele>
        <time>2024-03-17T09:53:52Z</time>
      </trkpt>
      <trkpt lat="49.98782" lon="4.42584">
        <ele>322.2</ele>
        <time>2024-03-17T09:53:53Z</time>
      </trkpt>
      <trkpt lat="49.98788" lon="4.42572">
        <ele>322.2</ele>
        <time>2024-03-17T09:53:54Z</time>
      </trkpt>
      <trkpt lat="49.98795" lon="4.42559">
        <ele>321.8</ele>
        <time>2024-03-17T09:53:55Z</time>
      </trkpt>
      <trkpt lat="49.98802" lon="4.42547">
        <ele>320.6</ele>
        <time>2024-03-17T09:53:56Z</time>
      </trkpt>
      <trkpt lat="49.98809" lon="4.42534">
        <ele>319.6</ele>
        <time>2024-03-17T09:53:57Z</time>
      </trkpt>
      <trkpt lat="49.98814" lon="4.4252">
        <ele>319.2</ele>
        <time>2024-03-17T09:53:58Z</time>
      </trkpt>
      <trkpt lat="49.98818" lon="4.42506">
        <ele>318.6</ele>
        <time>2024-03-17T09:53:59Z</time>
      </trkpt>
      <trkpt lat="49.98821" lon="4.42491">
        <ele>317.8</ele>
        <time>2024-03-17T09:54:00Z</time>
      </trkpt>
      <trkpt lat="49.98824" lon="4.42476">
        <ele>317.8</ele>
        <time>2024-03-17T09:54:01Z</time>
      </trkpt>
      <trkpt lat="49.98826" lon="4.42462">
        <ele>317.4</ele>
        <time>2024-03-17T09:54:02Z</time>
      </trkpt>
      <trkpt lat="49.98829" lon="4.42448">
        <ele>317.4</ele>
        <time>2024-03-17T09:54:03Z</time>
      </trkpt>
      <trkpt lat="49.98832" lon="4.42435">
        <ele>317.4</ele>
        <time>2024-03-17T09:54:04Z</time>
      </trkpt>
      <trkpt lat="49.98834" lon="4.42421">
        <ele>317.2</ele>
        <time>2024-03-17T09:54:05Z</time>
      </trkpt>
      <trkpt lat="49.98837" lon="4.42407">
        <ele>317.2</ele>
        <time>2024-03-17T09:54:06Z</time>
      </trkpt>
      <trkpt lat="49.98839" lon="4.42394">
        <ele>317.2</ele>
        <time>2024-03-17T09:54:07Z</time>
      </trkpt>
      <trkpt lat="49.98842" lon="4.4238">
        <ele>317.2</ele>
        <time>2024-03-17T09:54:08Z</time>
      </trkpt>
      <trkpt lat="49.98844" lon="4.42367">
        <ele>317.2</ele>
        <time>2024-03-17T09:54:09Z</time>
      </trkpt>
      <trkpt lat="49.98847" lon="4.42354">
        <ele>317.2</ele>
        <time>2024-03-17T09:54:10Z</time>
      </trkpt>
      <trkpt lat="49.98849" lon="4.4234">
        <ele>317.2</ele>
        <time>2024-03-17T09:54:11Z</time>
      </trkpt>
      <trkpt lat="49.98851" lon="4.42327">
        <ele>317</ele>
        <time>2024-03-17T09:54:12Z</time>
      </trkpt>
      <trkpt lat="49.98854" lon="4.42314">
        <ele>317</ele>
        <time>2024-03-17T09:54:13Z</time>
      </trkpt>
      <trkpt lat="49.98856" lon="4.42302">
        <ele>317</ele>
        <time>2024-03-17T09:54:14Z</time>
      </trkpt>
      <trkpt lat="49.98859" lon="4.4229">
        <ele>317.2</ele>
        <time>2024-03-17T09:54:15Z</time>
      </trkpt>
      <trkpt lat="49.98862" lon="4.42277">
        <ele>317</ele>
        <time>2024-03-17T09:54:16Z</time>
      </trkpt>
      <trkpt lat="49.98864" lon="4.42264">
        <ele>317</ele>
        <time>2024-03-17T09:54:17Z</time>
      </trkpt>
      <trkpt lat="49.98867" lon="4.42251">
        <ele>317.2</ele>
        <time>2024-03-17T09:54:18Z</time>
      </trkpt>
      <trkpt lat="49.9887" lon="4.42237">
        <ele>317.2</ele>
        <time>2024-03-17T09:54:19Z</time>
      </trkpt>
      <trkpt lat="49.98873" lon="4.42224">
        <ele>317</ele>
        <time>2024-03-17T09:54:20Z</time>
      </trkpt>
      <trkpt lat="49.98875" lon="4.4221">
        <ele>316.8</ele>
        <time>2024-03-17T09:54:21Z</time>
      </trkpt>
      <trkpt lat="49.98878" lon="4.42196">
        <ele>316.6</ele>
        <time>2024-03-17T09:54:22Z</time>
      </trkpt>
      <trkpt lat="49.9888" lon="4.42182">
        <ele>316.4</ele>
        <time>2024-03-17T09:54:23Z</time>
      </trkpt>
      <trkpt lat="49.98883" lon="4.42169">
        <ele>316.4</ele>
        <time>2024-03-17T09:54:24Z</time>
      </trkpt>
      <trkpt lat="49.98885" lon="4.42155">
        <ele>316.2</ele>
        <time>2024-03-17T09:54:25Z</time>
      </trkpt>
      <trkpt lat="49.98887" lon="4.42141">
        <ele>316.2</ele>
        <time>2024-03-17T09:54:26Z</time>
      </trkpt>
      <trkpt lat="49.9889" lon="4.42128">
        <ele>316.2</ele>
        <time>2024-03-17T09:54:27Z</time>
      </trkpt>
      <trkpt lat="49.98893" lon="4.42114">
        <ele>316.2</ele>
        <time>2024-03-17T09:54:28Z</time>
      </trkpt>
      <trkpt lat="49.98896" lon="4.421">
        <ele>316</ele>
        <time>2024-03-17T09:54:29Z</time>
      </trkpt>
      <trkpt lat="49.98899" lon="4.42087">
        <ele>315.8</ele>
        <time>2024-03-17T09:54:30Z</time>
      </trkpt>
      <trkpt lat="49.98902" lon="4.42073">
        <ele>315.6</ele>
        <time>2024-03-17T09:54:31Z</time>
      </trkpt>
      <trkpt lat="49.98905" lon="4.4206">
        <ele>315.6</ele>
        <time>2024-03-17T09:54:32Z</time>
      </trkpt>
      <trkpt lat="49.98908" lon="4.42046">
        <ele>315.4</ele>
        <time>2024-03-17T09:54:33Z</time>
      </trkpt>
      <trkpt lat="49.98911" lon="4.42032">
        <ele>315</ele>
        <time>2024-03-17T09:54:34Z</time>
      </trkpt>
      <trkpt lat="49.98914" lon="4.42019">
        <ele>314.8</ele>
        <time>2024-03-17T09:54:35Z</time>
      </trkpt>
      <trkpt lat="49.98917" lon="4.42005">
        <ele>314.4</ele>
        <time>2024-03-17T09:54:36Z</time>
      </trkpt>
      <trkpt lat="49.98921" lon="4.41991">
        <ele>314</ele>
        <time>2024-03-17T09:54:37Z</time>
      </trkpt>
      <trkpt lat="49.98924" lon="4.41977">
        <ele>313.6</ele>
        <time>2024-03-17T09:54:38Z</time>
      </trkpt>
      <trkpt lat="49.98928" lon="4.41963">
        <ele>313.2</ele>
        <time>2024-03-17T09:54:39Z</time>
      </trkpt>
      <trkpt lat="49.98931" lon="4.41948">
        <ele>313</ele>
        <time>2024-03-17T09:54:40Z</time>
      </trkpt>
      <trkpt lat="49.98934" lon="4.41933">
        <ele>312.6</ele>
        <time>2024-03-17T09:54:41Z</time>
      </trkpt>
      <trkpt lat="49.98938" lon="4.41918">
        <ele>312.2</ele>
        <time>2024-03-17T09:54:42Z</time>
      </trkpt>
      <trkpt lat="49.9894" lon="4.41903">
        <ele>312</ele>
        <time>2024-03-17T09:54:43Z</time>
      </trkpt>
      <trkpt lat="49.98942" lon="4.41887">
        <ele>311.4</ele>
        <time>2024-03-17T09:54:44Z</time>
      </trkpt>
      <trkpt lat="49.98943" lon="4.4187">
        <ele>311</ele>
        <time>2024-03-17T09:54:45Z</time>
      </trkpt>
      <trkpt lat="49.98943" lon="4.41853">
        <ele>310.8</ele>
        <time>2024-03-17T09:54:46Z</time>
      </trkpt>
      <trkpt lat="49.98943" lon="4.41836">
        <ele>309.8</ele>
        <time>2024-03-17T09:54:47Z</time>
      </trkpt>
      <trkpt lat="49.98942" lon="4.41819">
        <ele>309.8</ele>
        <time>2024-03-17T09:54:48Z</time>
      </trkpt>
      <trkpt lat="49.98941" lon="4.41802">
        <ele>309</ele>
        <time>2024-03-17T09:54:49Z</time>
      </trkpt>
      <trkpt lat="49.98939" lon="4.41785">
        <ele>308.6</ele>
        <time>2024-03-17T09:54:50Z</time>
      </trkpt>
      <trkpt lat="49.98937" lon="4.41769">
        <ele>308.4</ele>
        <time>2024-03-17T09:54:51Z</time>
      </trkpt>
      <trkpt lat="49.98934" lon="4.41752">
        <ele>308</ele>
        <time>2024-03-17T09:54:52Z</time>
      </trkpt>
      <trkpt lat="49.98931" lon="4.41736">
        <ele>307.8</ele>
        <time>2024-03-17T09:54:53Z</time>
      </trkpt>
      <trkpt lat="49.98927" lon="4.4172">
        <ele>307.4</ele>
        <time>2024-03-17T09:54:54Z</time>
      </trkpt>
      <trkpt lat="49.98923" lon="4.41705">
        <ele>307</ele>
        <time>2024-03-17T09:54:55Z</time>
      </trkpt>
      <trkpt lat="49.98919" lon="4.41689">
        <ele>306.2</ele>
        <time>2024-03-17T09:54:56Z</time>
      </trkpt>
      <trkpt lat="49.98915" lon="4.41674">
        <ele>305</ele>
        <time>2024-03-17T09:54:57Z</time>
      </trkpt>
      <trkpt lat="49.98911" lon="4.41658">
        <ele>304.2</ele>
        <time>2024-03-17T09:54:58Z</time>
      </trkpt>
      <trkpt lat="49.98907" lon="4.41642">
        <ele>303.8</ele>
        <time>2024-03-17T09:54:59Z</time>
      </trkpt>
      <trkpt lat="49.98904" lon="4.41627">
        <ele>302.6</ele>
        <time>2024-03-17T09:55:00Z</time>
      </trkpt>
      <trkpt lat="49.989" lon="4.41612">
        <ele>301.8</ele>
        <time>2024-03-17T09:55:01Z</time>
      </trkpt>
      <trkpt lat="49.98896" lon="4.41596">
        <ele>301.2</ele>
        <time>2024-03-17T09:55:02Z</time>
      </trkpt>
      <trkpt lat="49.98892" lon="4.4158">
        <ele>301.2</ele>
        <time>2024-03-17T09:55:03Z</time>
      </trkpt>
      <trkpt lat="49.98888" lon="4.41565">
        <ele>300.8</ele>
        <time>2024-03-17T09:55:04Z</time>
      </trkpt>
      <trkpt lat="49.98884" lon="4.41549">
        <ele>300.4</ele>
        <time>2024-03-17T09:55:05Z</time>
      </trkpt>
      <trkpt lat="49.98879" lon="4.41534">
        <ele>300</ele>
        <time>2024-03-17T09:55:06Z</time>
      </trkpt>
      <trkpt lat="49.98874" lon="4.41519">
        <ele>299.4</ele>
        <time>2024-03-17T09:55:07Z</time>
      </trkpt>
      <trkpt lat="49.98869" lon="4.41505">
        <ele>299.2</ele>
        <time>2024-03-17T09:55:08Z</time>
      </trkpt>
      <trkpt lat="49.98863" lon="4.41491">
        <ele>298.8</ele>
        <time>2024-03-17T09:55:09Z</time>
      </trkpt>
      <trkpt lat="49.98856" lon="4.41477">
        <ele>298.8</ele>
        <time>2024-03-17T09:55:10Z</time>
      </trkpt>
      <trkpt lat="49.98849" lon="4.41464">
        <ele>298.4</ele>
        <time>2024-03-17T09:55:11Z</time>
      </trkpt>
      <trkpt lat="49.98842" lon="4.41452">
        <ele>297.6</ele>
        <time>2024-03-17T09:55:12Z</time>
      </trkpt>
      <trkpt lat="49.98834" lon="4.4144">
        <ele>297</ele>
        <time>2024-03-17T09:55:13Z</time>
      </trkpt>
      <trkpt lat="49.98826" lon="4.41429">
        <ele>296</ele>
        <time>2024-03-17T09:55:14Z</time>
      </trkpt>
      <trkpt lat="49.98818" lon="4.41417">
        <ele>294.6</ele>
        <time>2024-03-17T09:55:15Z</time>
      </trkpt>
      <trkpt lat="49.9881" lon="4.41405">
        <ele>293.8</ele>
        <time>2024-03-17T09:55:16Z</time>
      </trkpt>
      <trkpt lat="49.98802" lon="4.41393">
        <ele>293.2</ele>
        <time>2024-03-17T09:55:17Z</time>
      </trkpt>
      <trkpt lat="49.98794" lon="4.4138">
        <ele>292.6</ele>
        <time>2024-03-17T09:55:18Z</time>
      </trkpt>
      <trkpt lat="49.98786" lon="4.41368">
        <ele>292.6</ele>
        <time>2024-03-17T09:55:19Z</time>
      </trkpt>
      <trkpt lat="49.98779" lon="4.41356">
        <ele>292</ele>
        <time>2024-03-17T09:55:20Z</time>
      </trkpt>
      <trkpt lat="49.98771" lon="4.41343">
        <ele>291.6</ele>
        <time>2024-03-17T09:55:21Z</time>
      </trkpt>
      <trkpt lat="49.98764" lon="4.4133">
        <ele>291.2</ele>
        <time>2024-03-17T09:55:22Z</time>
      </trkpt>
      <trkpt lat="49.98758" lon="4.41316">
        <ele>291</ele>
        <time>2024-03-17T09:55:23Z</time>
      </trkpt>
      <trkpt lat="49.98752" lon="4.41303">
        <ele>290.6</ele>
        <time>2024-03-17T09:55:24Z</time>
      </trkpt>
      <trkpt lat="49.98746" lon="4.41289">
        <ele>290.4</ele>
        <time>2024-03-17T09:55:25Z</time>
      </trkpt>
      <trkpt lat="49.98741" lon="4.41276">
        <ele>289.6</ele>
        <time>2024-03-17T09:55:26Z</time>
      </trkpt>
      <trkpt lat="49.98736" lon="4.41262">
        <ele>289.4</ele>
        <time>2024-03-17T09:55:27Z</time>
      </trkpt>
      <trkpt lat="49.98732" lon="4.41247">
        <ele>288.4</ele>
        <time>2024-03-17T09:55:28Z</time>
      </trkpt>
      <trkpt lat="49.98728" lon="4.41233">
        <ele>287.8</ele>
        <time>2024-03-17T09:55:29Z</time>
      </trkpt>
      <trkpt lat="49.98724" lon="4.41219">
        <ele>287.6</ele>
        <time>2024-03-17T09:55:30Z</time>
      </trkpt>
      <trkpt lat="49.98721" lon="4.41204">
        <ele>287.4</ele>
        <time>2024-03-17T09:55:31Z</time>
      </trkpt>
      <trkpt lat="49.98718" lon="4.4119">
        <ele>287.4</ele>
        <time>2024-03-17T09:55:32Z</time>
      </trkpt>
      <trkpt lat="49.98716" lon="4.41176">
        <ele>287.2</ele>
        <time>2024-03-17T09:55:33Z</time>
      </trkpt>
      <trkpt lat="49.98714" lon="4.41162">
        <ele>287</ele>
        <time>2024-03-17T09:55:34Z</time>
      </trkpt>
      <trkpt lat="49.98711" lon="4.41149">
        <ele>287</ele>
        <time>2024-03-17T09:55:35Z</time>
      </trkpt>
      <trkpt lat="49.9871" lon="4.41135">
        <ele>287</ele>
        <time>2024-03-17T09:55:36Z</time>
      </trkpt>
      <trkpt lat="49.98708" lon="4.41121">
        <ele>287</ele>
        <time>2024-03-17T09:55:37Z</time>
      </trkpt>
      <trkpt lat="49.98706" lon="4.41108">
        <ele>287</ele>
        <time>2024-03-17T09:55:38Z</time>
      </trkpt>
      <trkpt lat="49.98705" lon="4.41094">
        <ele>287</ele>
        <time>2024-03-17T09:55:39Z</time>
      </trkpt>
      <trkpt lat="49.98703" lon="4.41081">
        <ele>287</ele>
        <time>2024-03-17T09:55:40Z</time>
      </trkpt>
      <trkpt lat="49.98702" lon="4.41068">
        <ele>287</ele>
        <time>2024-03-17T09:55:41Z</time>
      </trkpt>
      <trkpt lat="49.987" lon="4.41055">
        <ele>287.2</ele>
        <time>2024-03-17T09:55:42Z</time>
      </trkpt>
      <trkpt lat="49.98698" lon="4.41041">
        <ele>287.2</ele>
        <time>2024-03-17T09:55:43Z</time>
      </trkpt>
      <trkpt lat="49.98697" lon="4.41028">
        <ele>287</ele>
        <time>2024-03-17T09:55:44Z</time>
      </trkpt>
      <trkpt lat="49.98695" lon="4.41014">
        <ele>287.2</ele>
        <time>2024-03-17T09:55:45Z</time>
      </trkpt>
      <trkpt lat="49.98693" lon="4.41">
        <ele>287</ele>
        <time>2024-03-17T09:55:46Z</time>
      </trkpt>
      <trkpt lat="49.98691" lon="4.40987">
        <ele>287.4</ele>
        <time>2024-03-17T09:55:47Z</time>
      </trkpt>
      <trkpt lat="49.98689" lon="4.40973">
        <ele>287.6</ele>
        <time>2024-03-17T09:55:48Z</time>
      </trkpt>
      <trkpt lat="49.98687" lon="4.40959">
        <ele>287.6</ele>
        <time>2024-03-17T09:55:49Z</time>
      </trkpt>
      <trkpt lat="49.98685" lon="4.40945">
        <ele>287.8</ele>
        <time>2024-03-17T09:55:50Z</time>
      </trkpt>
      <trkpt lat="49.98684" lon="4.40931">
        <ele>287.8</ele>
        <time>2024-03-17T09:55:51Z</time>
      </trkpt>
      <trkpt lat="49.98682" lon="4.40918">
        <ele>287.6</ele>
        <time>2024-03-17T09:55:52Z</time>
      </trkpt>
      <trkpt lat="49.9868" lon="4.40904">
        <ele>287.8</ele>
        <time>2024-03-17T09:55:53Z</time>
      </trkpt>
      <trkpt lat="49.98679" lon="4.4089">
        <ele>287.8</ele>
        <time>2024-03-17T09:55:54Z</time>
      </trkpt>
      <trkpt lat="49.98678" lon="4.40876">
        <ele>287.6</ele>
        <time>2024-03-17T09:55:55Z</time>
      </trkpt>
      <trkpt lat="49.98676" lon="4.40862">
        <ele>287.4</ele>
        <time>2024-03-17T09:55:56Z</time>
      </trkpt>
      <trkpt lat="49.98676" lon="4.40848">
        <ele>287.2</ele>
        <time>2024-03-17T09:55:57Z</time>
      </trkpt>
      <trkpt lat="49.98675" lon="4.40834">
        <ele>287.2</ele>
        <time>2024-03-17T09:55:58Z</time>
      </trkpt>
      <trkpt lat="49.98675" lon="4.4082">
        <ele>286.8</ele>
        <time>2024-03-17T09:55:59Z</time>
      </trkpt>
      <trkpt lat="49.98675" lon="4.40805">
        <ele>286.6</ele>
        <time>2024-03-17T09:56:00Z</time>
      </trkpt>
      <trkpt lat="49.98675" lon="4.40791">
        <ele>286.6</ele>
        <time>2024-03-17T09:56:01Z</time>
      </trkpt>
      <trkpt lat="49.98677" lon="4.40777">
        <ele>286.4</ele>
        <time>2024-03-17T09:56:02Z</time>
      </trkpt>
      <trkpt lat="49.98679" lon="4.40763">
        <ele>286.4</ele>
        <time>2024-03-17T09:56:03Z</time>
      </trkpt>
      <trkpt lat="49.98681" lon="4.40749">
        <ele>286.4</ele>
        <time>2024-03-17T09:56:04Z</time>
      </trkpt>
      <trkpt lat="49.98683" lon="4.40735">
        <ele>286.2</ele>
        <time>2024-03-17T09:56:05Z</time>
      </trkpt>
      <trkpt lat="49.98686" lon="4.40722">
        <ele>286.2</ele>
        <time>2024-03-17T09:56:06Z</time>
      </trkpt>
      <trkpt lat="49.98689" lon="4.40709">
        <ele>286</ele>
        <time>2024-03-17T09:56:07Z</time>
      </trkpt>
      <trkpt lat="49.98693" lon="4.40697">
        <ele>286</ele>
        <time>2024-03-17T09:56:08Z</time>
      </trkpt>
      <trkpt lat="49.98697" lon="4.40684">
        <ele>286</ele>
        <time>2024-03-17T09:56:09Z</time>
      </trkpt>
      <trkpt lat="49.98702" lon="4.40672">
        <ele>286</ele>
        <time>2024-03-17T09:56:10Z</time>
      </trkpt>
      <trkpt lat="49.98707" lon="4.4066">
        <ele>286</ele>
        <time>2024-03-17T09:56:11Z</time>
      </trkpt>
      <trkpt lat="49.98712" lon="4.40649">
        <ele>285.8</ele>
        <time>2024-03-17T09:56:12Z</time>
      </trkpt>
      <trkpt lat="49.98718" lon="4.40639">
        <ele>285.6</ele>
        <time>2024-03-17T09:56:13Z</time>
      </trkpt>
      <trkpt lat="49.98724" lon="4.4063">
        <ele>285.4</ele>
        <time>2024-03-17T09:56:14Z</time>
      </trkpt>
      <trkpt lat="49.9873" lon="4.4062">
        <ele>285.2</ele>
        <time>2024-03-17T09:56:15Z</time>
      </trkpt>
      <trkpt lat="49.98737" lon="4.40612">
        <ele>285.2</ele>
        <time>2024-03-17T09:56:16Z</time>
      </trkpt>
      <trkpt lat="49.98744" lon="4.40603">
        <ele>284.8</ele>
        <time>2024-03-17T09:56:17Z</time>
      </trkpt>
      <trkpt lat="49.98751" lon="4.40595">
        <ele>284.4</ele>
        <time>2024-03-17T09:56:18Z</time>
      </trkpt>
      <trkpt lat="49.98758" lon="4.40587">
        <ele>284.4</ele>
        <time>2024-03-17T09:56:19Z</time>
      </trkpt>
      <trkpt lat="49.98765" lon="4.4058">
        <ele>284.2</ele>
        <time>2024-03-17T09:56:20Z</time>
      </trkpt>
      <trkpt lat="49.98773" lon="4.40573">
        <ele>284.2</ele>
        <time>2024-03-17T09:56:21Z</time>
      </trkpt>
      <trkpt lat="49.9878" lon="4.40566">
        <ele>284</ele>
        <time>2024-03-17T09:56:22Z</time>
      </trkpt>
      <trkpt lat="49.98787" lon="4.40559">
        <ele>284</ele>
        <time>2024-03-17T09:56:23Z</time>
      </trkpt>
      <trkpt lat="49.98795" lon="4.40551">
        <ele>283.8</ele>
        <time>2024-03-17T09:56:24Z</time>
      </trkpt>
      <trkpt lat="49.98802" lon="4.40545">
        <ele>283.8</ele>
        <time>2024-03-17T09:56:25Z</time>
      </trkpt>
      <trkpt lat="49.98809" lon="4.40537">
        <ele>283.8</ele>
        <time>2024-03-17T09:56:26Z</time>
      </trkpt>
      <trkpt lat="49.98817" lon="4.40531">
        <ele>283.6</ele>
        <time>2024-03-17T09:56:27Z</time>
      </trkpt>
      <trkpt lat="49.98824" lon="4.40523">
        <ele>283.6</ele>
        <time>2024-03-17T09:56:28Z</time>
      </trkpt>
      <trkpt lat="49.98831" lon="4.40516">
        <ele>283.6</ele>
        <time>2024-03-17T09:56:29Z</time>
      </trkpt>
      <trkpt lat="49.98838" lon="4.4051">
        <ele>283.6</ele>
        <time>2024-03-17T09:56:30Z</time>
      </trkpt>
      <trkpt lat="49.98846" lon="4.40503">
        <ele>283.6</ele>
        <time>2024-03-17T09:56:31Z</time>
      </trkpt>
      <trkpt lat="49.98852" lon="4.40497">
        <ele>283.6</ele>
        <time>2024-03-17T09:56:32Z</time>
      </trkpt>
      <trkpt lat="49.98859" lon="4.4049">
        <ele>283.6</ele>
        <time>2024-03-17T09:56:33Z</time>
      </trkpt>
      <trkpt lat="49.98866" lon="4.40484">
        <ele>283.6</ele>
        <time>2024-03-17T09:56:34Z</time>
      </trkpt>
      <trkpt lat="49.98873" lon="4.40476">
        <ele>283.6</ele>
        <time>2024-03-17T09:56:35Z</time>
      </trkpt>
      <trkpt lat="49.9888" lon="4.40469">
        <ele>283.4</ele>
        <time>2024-03-17T09:56:36Z</time>
      </trkpt>
      <trkpt lat="49.98888" lon="4.40463">
        <ele>283.6</ele>
        <time>2024-03-17T09:56:37Z</time>
      </trkpt>
      <trkpt lat="49.98895" lon="4.40456">
        <ele>283.6</ele>
        <time>2024-03-17T09:56:38Z</time>
      </trkpt>
      <trkpt lat="49.98903" lon="4.40449">
        <ele>283.6</ele>
        <time>2024-03-17T09:56:39Z</time>
      </trkpt>
      <trkpt lat="49.9891" lon="4.40442">
        <ele>283.6</ele>
        <time>2024-03-17T09:56:40Z</time>
      </trkpt>
      <trkpt lat="49.98918" lon="4.40435">
        <ele>283.4</ele>
        <time>2024-03-17T09:56:41Z</time>
      </trkpt>
      <trkpt lat="49.98925" lon="4.40428">
        <ele>283.6</ele>
        <time>2024-03-17T09:56:42Z</time>
      </trkpt>
      <trkpt lat="49.98933" lon="4.40421">
        <ele>283.6</ele>
        <time>2024-03-17T09:56:43Z</time>
      </trkpt>
      <trkpt lat="49.98939" lon="4.40414">
        <ele>283.6</ele>
        <time>2024-03-17T09:56:44Z</time>
      </trkpt>
      <trkpt lat="49.98946" lon="4.40407">
        <ele>283.6</ele>
        <time>2024-03-17T09:56:45Z</time>
      </trkpt>
      <trkpt lat="49.98953" lon="4.40399">
        <ele>283.2</ele>
        <time>2024-03-17T09:56:46Z</time>
      </trkpt>
      <trkpt lat="49.9896" lon="4.40391">
        <ele>283</ele>
        <time>2024-03-17T09:56:47Z</time>
      </trkpt>
      <trkpt lat="49.98966" lon="4.40383">
        <ele>282.8</ele>
        <time>2024-03-17T09:56:48Z</time>
      </trkpt>
      <trkpt lat="49.98974" lon="4.40374">
        <ele>282.4</ele>
        <time>2024-03-17T09:56:49Z</time>
      </trkpt>
      <trkpt lat="49.9898" lon="4.40364">
        <ele>282.4</ele>
        <time>2024-03-17T09:56:50Z</time>
      </trkpt>
      <trkpt lat="49.98987" lon="4.40354">
        <ele>282.4</ele>
        <time>2024-03-17T09:56:51Z</time>
      </trkpt>
      <trkpt lat="49.98994" lon="4.40344">
        <ele>282.4</ele>
        <time>2024-03-17T09:56:52Z</time>
      </trkpt>
      <trkpt lat="49.99001" lon="4.40334">
        <ele>282.2</ele>
        <time>2024-03-17T09:56:53Z</time>
      </trkpt>
      <trkpt lat="49.99007" lon="4.40323">
        <ele>282.2</ele>
        <time>2024-03-17T09:56:54Z</time>
      </trkpt>
      <trkpt lat="49.99013" lon="4.40312">
        <ele>281.8</ele>
        <time>2024-03-17T09:56:55Z</time>
      </trkpt>
      <trkpt lat="49.99019" lon="4.40301">
        <ele>281.6</ele>
        <time>2024-03-17T09:56:56Z</time>
      </trkpt>
      <trkpt lat="49.99024" lon="4.40289">
        <ele>281.6</ele>
        <time>2024-03-17T09:56:57Z</time>
      </trkpt>
      <trkpt lat="49.9903" lon="4.40277">
        <ele>281.2</ele>
        <time>2024-03-17T09:56:58Z</time>
      </trkpt>
      <trkpt lat="49.99035" lon="4.40265">
        <ele>281.2</ele>
        <time>2024-03-17T09:56:59Z</time>
      </trkpt>
      <trkpt lat="49.9904" lon="4.40253">
        <ele>281.2</ele>
        <time>2024-03-17T09:57:00Z</time>
      </trkpt>
      <trkpt lat="49.99044" lon="4.4024">
        <ele>281.2</ele>
        <time>2024-03-17T09:57:01Z</time>
      </trkpt>
      <trkpt lat="49.99049" lon="4.40228">
        <ele>281.2</ele>
        <time>2024-03-17T09:57:02Z</time>
      </trkpt>
      <trkpt lat="49.99053" lon="4.40215">
        <ele>281.2</ele>
        <time>2024-03-17T09:57:03Z</time>
      </trkpt>
      <trkpt lat="49.99056" lon="4.40202">
        <ele>281</ele>
        <time>2024-03-17T09:57:04Z</time>
      </trkpt>
      <trkpt lat="49.9906" lon="4.40189">
        <ele>280.8</ele>
        <time>2024-03-17T09:57:05Z</time>
      </trkpt>
      <trkpt lat="49.99064" lon="4.40176">
        <ele>280.8</ele>
        <time>2024-03-17T09:57:06Z</time>
      </trkpt>
      <trkpt lat="49.99067" lon="4.40163">
        <ele>280.8</ele>
        <time>2024-03-17T09:57:07Z</time>
      </trkpt>
      <trkpt lat="49.9907" lon="4.40149">
        <ele>280.2</ele>
        <time>2024-03-17T09:57:08Z</time>
      </trkpt>
      <trkpt lat="49.99072" lon="4.40136">
        <ele>280</ele>
        <time>2024-03-17T09:57:09Z</time>
      </trkpt>
      <trkpt lat="49.99075" lon="4.40122">
        <ele>279.8</ele>
        <time>2024-03-17T09:57:10Z</time>
      </trkpt>
      <trkpt lat="49.99077" lon="4.40108">
        <ele>279.8</ele>
        <time>2024-03-17T09:57:11Z</time>
      </trkpt>
      <trkpt lat="49.99079" lon="4.40094">
        <ele>279.4</ele>
        <time>2024-03-17T09:57:12Z</time>
      </trkpt>
      <trkpt lat="49.9908" lon="4.4008">
        <ele>279.2</ele>
        <time>2024-03-17T09:57:13Z</time>
      </trkpt>
      <trkpt lat="49.99081" lon="4.40066">
        <ele>278.8</ele>
        <time>2024-03-17T09:57:14Z</time>
      </trkpt>
      <trkpt lat="49.99083" lon="4.40051">
        <ele>278.4</ele>
        <time>2024-03-17T09:57:15Z</time>
      </trkpt>
      <trkpt lat="49.99083" lon="4.40037">
        <ele>277.8</ele>
        <time>2024-03-17T09:57:16Z</time>
      </trkpt>
      <trkpt lat="49.99083" lon="4.40022">
        <ele>277.2</ele>
        <time>2024-03-17T09:57:17Z</time>
      </trkpt>
      <trkpt lat="49.99083" lon="4.40006">
        <ele>277.2</ele>
        <time>2024-03-17T09:57:18Z</time>
      </trkpt>
      <trkpt lat="49.99083" lon="4.39991">
        <ele>277</ele>
        <time>2024-03-17T09:57:19Z</time>
      </trkpt>
      <trkpt lat="49.99082" lon="4.39976">
        <ele>276.8</ele>
        <time>2024-03-17T09:57:20Z</time>
      </trkpt>
      <trkpt lat="49.99082" lon="4.39962">
        <ele>276.8</ele>
        <time>2024-03-17T09:57:21Z</time>
      </trkpt>
      <trkpt lat="49.99081" lon="4.39948">
        <ele>276.8</ele>
        <time>2024-03-17T09:57:22Z</time>
      </trkpt>
      <trkpt lat="49.99079" lon="4.39934">
        <ele>276.6</ele>
        <time>2024-03-17T09:57:23Z</time>
      </trkpt>
      <trkpt lat="49.99078" lon="4.3992">
        <ele>276.6</ele>
        <time>2024-03-17T09:57:24Z</time>
      </trkpt>
      <trkpt lat="49.99076" lon="4.39907">
        <ele>276</ele>
        <time>2024-03-17T09:57:25Z</time>
      </trkpt>
      <trkpt lat="49.99074" lon="4.39894">
        <ele>275.8</ele>
        <time>2024-03-17T09:57:26Z</time>
      </trkpt>
      <trkpt lat="49.99072" lon="4.39881">
        <ele>275.6</ele>
        <time>2024-03-17T09:57:27Z</time>
      </trkpt>
      <trkpt lat="49.99071" lon="4.39868">
        <ele>275.2</ele>
        <time>2024-03-17T09:57:28Z</time>
      </trkpt>
      <trkpt lat="49.99068" lon="4.39855">
        <ele>275.2</ele>
        <time>2024-03-17T09:57:29Z</time>
      </trkpt>
      <trkpt lat="49.99066" lon="4.39843">
        <ele>275.2</ele>
        <time>2024-03-17T09:57:30Z</time>
      </trkpt>
      <trkpt lat="49.99064" lon="4.39831">
        <ele>275</ele>
        <time>2024-03-17T09:57:31Z</time>
      </trkpt>
      <trkpt lat="49.99061" lon="4.39818">
        <ele>275.2</ele>
        <time>2024-03-17T09:57:32Z</time>
      </trkpt>
      <trkpt lat="49.99059" lon="4.39806">
        <ele>275</ele>
        <time>2024-03-17T09:57:33Z</time>
      </trkpt>
      <trkpt lat="49.99056" lon="4.39794">
        <ele>275.2</ele>
        <time>2024-03-17T09:57:34Z</time>
      </trkpt>
      <trkpt lat="49.99054" lon="4.39783">
        <ele>275</ele>
        <time>2024-03-17T09:57:35Z</time>
      </trkpt>
      <trkpt lat="49.99052" lon="4.39771">
        <ele>275.2</ele>
        <time>2024-03-17T09:57:36Z</time>
      </trkpt>
      <trkpt lat="49.99049" lon="4.39759">
        <ele>275.4</ele>
        <time>2024-03-17T09:57:37Z</time>
      </trkpt>
      <trkpt lat="49.99047" lon="4.39747">
        <ele>275.6</ele>
        <time>2024-03-17T09:57:38Z</time>
      </trkpt>
      <trkpt lat="49.99045" lon="4.39735">
        <ele>275.6</ele>
        <time>2024-03-17T09:57:39Z</time>
      </trkpt>
      <trkpt lat="49.99043" lon="4.39724">
        <ele>275.6</ele>
        <time>2024-03-17T09:57:40Z</time>
      </trkpt>
      <trkpt lat="49.99041" lon="4.39713">
        <ele>275.8</ele>
        <time>2024-03-17T09:57:41Z</time>
      </trkpt>
      <trkpt lat="49.99039" lon="4.39701">
        <ele>275.6</ele>
        <time>2024-03-17T09:57:42Z</time>
      </trkpt>
      <trkpt lat="49.99037" lon="4.3969">
        <ele>275.8</ele>
        <time>2024-03-17T09:57:43Z</time>
      </trkpt>
      <trkpt lat="49.99035" lon="4.39679">
        <ele>275.8</ele>
        <time>2024-03-17T09:57:44Z</time>
      </trkpt>
      <trkpt lat="49.99033" lon="4.39668">
        <ele>275.8</ele>
        <time>2024-03-17T09:57:45Z</time>
      </trkpt>
      <trkpt lat="49.99031" lon="4.39657">
        <ele>275.8</ele>
        <time>2024-03-17T09:57:46Z</time>
      </trkpt>
      <trkpt lat="49.99029" lon="4.39647">
        <ele>276</ele>
        <time>2024-03-17T09:57:47Z</time>
      </trkpt>
      <trkpt lat="49.99027" lon="4.39636">
        <ele>275.8</ele>
        <time>2024-03-17T09:57:48Z</time>
      </trkpt>
      <trkpt lat="49.99025" lon="4.39626">
        <ele>276</ele>
        <time>2024-03-17T09:57:49Z</time>
      </trkpt>
      <trkpt lat="49.99023" lon="4.39616">
        <ele>276</ele>
        <time>2024-03-17T09:57:50Z</time>
      </trkpt>
      <trkpt lat="49.99021" lon="4.39605">
        <ele>275.8</ele>
        <time>2024-03-17T09:57:51Z</time>
      </trkpt>
      <trkpt lat="49.99019" lon="4.39595">
        <ele>276</ele>
        <time>2024-03-17T09:57:52Z</time>
      </trkpt>
      <trkpt lat="49.99017" lon="4.39585">
        <ele>276</ele>
        <time>2024-03-17T09:57:53Z</time>
      </trkpt>
      <trkpt lat="49.99015" lon="4.39575">
        <ele>275.8</ele>
        <time>2024-03-17T09:57:54Z</time>
      </trkpt>
      <trkpt lat="49.99012" lon="4.39566">
        <ele>276</ele>
        <time>2024-03-17T09:57:55Z</time>
      </trkpt>
      <trkpt lat="49.9901" lon="4.39556">
        <ele>276</ele>
        <time>2024-03-17T09:57:56Z</time>
      </trkpt>
      <trkpt lat="49.99007" lon="4.39546">
        <ele>275.6</ele>
        <time>2024-03-17T09:57:57Z</time>
      </trkpt>
      <trkpt lat="49.99004" lon="4.39536">
        <ele>275.6</ele>
        <time>2024-03-17T09:57:58Z</time>
      </trkpt>
      <trkpt lat="49.99" lon="4.39526">
        <ele>275.6</ele>
        <time>2024-03-17T09:57:59Z</time>
      </trkpt>
      <trkpt lat="49.98997" lon="4.39517">
        <ele>275.6</ele>
        <time>2024-03-17T09:58:00Z</time>
      </trkpt>
      <trkpt lat="49.98993" lon="4.39507">
        <ele>275.8</ele>
        <time>2024-03-17T09:58:01Z</time>
      </trkpt>
      <trkpt lat="49.98989" lon="4.39498">
        <ele>275.8</ele>
        <time>2024-03-17T09:58:02Z</time>
      </trkpt>
      <trkpt lat="49.98984" lon="4.39489">
        <ele>275.8</ele>
        <time>2024-03-17T09:58:03Z</time>
      </trkpt>
      <trkpt lat="49.9898" lon="4.39481">
        <ele>276</ele>
        <time>2024-03-17T09:58:04Z</time>
      </trkpt>
      <trkpt lat="49.98975" lon="4.39473">
        <ele>275.8</ele>
        <time>2024-03-17T09:58:05Z</time>
      </trkpt>
      <trkpt lat="49.98971" lon="4.39465">
        <ele>275.6</ele>
        <time>2024-03-17T09:58:06Z</time>
      </trkpt>
      <trkpt lat="49.98966" lon="4.39458">
        <ele>275.8</ele>
        <time>2024-03-17T09:58:07Z</time>
      </trkpt>
      <trkpt lat="49.98962" lon="4.39451">
        <ele>275.8</ele>
        <time>2024-03-17T09:58:08Z</time>
      </trkpt>
      <trkpt lat="49.98957" lon="4.39443">
        <ele>275.6</ele>
        <time>2024-03-17T09:58:09Z</time>
      </trkpt>
      <trkpt lat="49.98952" lon="4.39435">
        <ele>275.6</ele>
        <time>2024-03-17T09:58:10Z</time>
      </trkpt>
      <trkpt lat="49.98947" lon="4.39427">
        <ele>275.8</ele>
        <time>2024-03-17T09:58:11Z</time>
      </trkpt>
      <trkpt lat="49.98942" lon="4.3942">
        <ele>275.8</ele>
        <time>2024-03-17T09:58:12Z</time>
      </trkpt>
      <trkpt lat="49.98937" lon="4.39412">
        <ele>276</ele>
        <time>2024-03-17T09:58:13Z</time>
      </trkpt>
      <trkpt lat="49.98932" lon="4.39404">
        <ele>275.8</ele>
        <time>2024-03-17T09:58:14Z</time>
      </trkpt>
      <trkpt lat="49.98927" lon="4.39397">
        <ele>276</ele>
        <time>2024-03-17T09:58:15Z</time>
      </trkpt>
      <trkpt lat="49.98922" lon="4.3939">
        <ele>275.8</ele>
        <time>2024-03-17T09:58:16Z</time>
      </trkpt>
      <trkpt lat="49.98918" lon="4.39382">
        <ele>276</ele>
        <time>2024-03-17T09:58:17Z</time>
      </trkpt>
      <trkpt lat="49.98914" lon="4.39374">
        <ele>276</ele>
        <time>2024-03-17T09:58:18Z</time>
      </trkpt>
      <trkpt lat="49.9891" lon="4.39366">
        <ele>276.2</ele>
        <time>2024-03-17T09:58:19Z</time>
      </trkpt>
      <trkpt lat="49.98906" lon="4.39358">
        <ele>276.8</ele>
        <time>2024-03-17T09:58:20Z</time>
      </trkpt>
      <trkpt lat="49.98901" lon="4.39349">
        <ele>277</ele>
        <time>2024-03-17T09:58:21Z</time>
      </trkpt>
      <trkpt lat="49.98898" lon="4.39341">
        <ele>277.4</ele>
        <time>2024-03-17T09:58:22Z</time>
      </trkpt>
      <trkpt lat="49.98894" lon="4.39332">
        <ele>277.6</ele>
        <time>2024-03-17T09:58:23Z</time>
      </trkpt>
      <trkpt lat="49.9889" lon="4.39322">
        <ele>277.8</ele>
        <time>2024-03-17T09:58:24Z</time>
      </trkpt>
      <trkpt lat="49.98887" lon="4.39312">
        <ele>277.8</ele>
        <time>2024-03-17T09:58:25Z</time>
      </trkpt>
      <trkpt lat="49.98883" lon="4.39302">
        <ele>277.8</ele>
        <time>2024-03-17T09:58:26Z</time>
      </trkpt>
      <trkpt lat="49.9888" lon="4.39291">
        <ele>278</ele>
        <time>2024-03-17T09:58:27Z</time>
      </trkpt>
      <trkpt lat="49.98878" lon="4.39281">
        <ele>278</ele>
        <time>2024-03-17T09:58:28Z</time>
      </trkpt>
      <trkpt lat="49.98875" lon="4.39269">
        <ele>277.8</ele>
        <time>2024-03-17T09:58:29Z</time>
      </trkpt>
      <trkpt lat="49.98872" lon="4.39258">
        <ele>278</ele>
        <time>2024-03-17T09:58:30Z</time>
      </trkpt>
      <trkpt lat="49.9887" lon="4.39246">
        <ele>278</ele>
        <time>2024-03-17T09:58:31Z</time>
      </trkpt>
      <trkpt lat="49.98868" lon="4.39235">
        <ele>278</ele>
        <time>2024-03-17T09:58:32Z</time>
      </trkpt>
      <trkpt lat="49.98867" lon="4.39224">
        <ele>278</ele>
        <time>2024-03-17T09:58:33Z</time>
      </trkpt>
      <trkpt lat="49.98866" lon="4.39212">
        <ele>278</ele>
        <time>2024-03-17T09:58:34Z</time>
      </trkpt>
      <trkpt lat="49.98864" lon="4.392">
        <ele>278.2</ele>
        <time>2024-03-17T09:58:35Z</time>
      </trkpt>
      <trkpt lat="49.98864" lon="4.39188">
        <ele>278</ele>
        <time>2024-03-17T09:58:36Z</time>
      </trkpt>
      <trkpt lat="49.98863" lon="4.39177">
        <ele>278</ele>
        <time>2024-03-17T09:58:37Z</time>
      </trkpt>
      <trkpt lat="49.98864" lon="4.39165">
        <ele>278</ele>
        <time>2024-03-17T09:58:38Z</time>
      </trkpt>
      <trkpt lat="49.98864" lon="4.39153">
        <ele>278</ele>
        <time>2024-03-17T09:58:39Z</time>
      </trkpt>
      <trkpt lat="49.98865" lon="4.39141">
        <ele>278</ele>
        <time>2024-03-17T09:58:40Z</time>
      </trkpt>
      <trkpt lat="49.98866" lon="4.39129">
        <ele>278</ele>
        <time>2024-03-17T09:58:41Z</time>
      </trkpt>
      <trkpt lat="49.98867" lon="4.39117">
        <ele>278</ele>
        <time>2024-03-17T09:58:42Z</time>
      </trkpt>
      <trkpt lat="49.98868" lon="4.39105">
        <ele>278</ele>
        <time>2024-03-17T09:58:43Z</time>
      </trkpt>
      <trkpt lat="49.9887" lon="4.39093">
        <ele>278</ele>
        <time>2024-03-17T09:58:44Z</time>
      </trkpt>
      <trkpt lat="49.98872" lon="4.39081">
        <ele>278</ele>
        <time>2024-03-17T09:58:45Z</time>
      </trkpt>
      <trkpt lat="49.98875" lon="4.39069">
        <ele>277.8</ele>
        <time>2024-03-17T09:58:46Z</time>
      </trkpt>
      <trkpt lat="49.98877" lon="4.39056">
        <ele>277.8</ele>
        <time>2024-03-17T09:58:47Z</time>
      </trkpt>
      <trkpt lat="49.9888" lon="4.39045">
        <ele>278</ele>
        <time>2024-03-17T09:58:48Z</time>
      </trkpt>
      <trkpt lat="49.98882" lon="4.39033">
        <ele>278</ele>
        <time>2024-03-17T09:58:49Z</time>
      </trkpt>
      <trkpt lat="49.98886" lon="4.39021">
        <ele>277.8</ele>
        <time>2024-03-17T09:58:50Z</time>
      </trkpt>
      <trkpt lat="49.98889" lon="4.39009">
        <ele>277.8</ele>
        <time>2024-03-17T09:58:51Z</time>
      </trkpt>
      <trkpt lat="49.98892" lon="4.38997">
        <ele>277.8</ele>
        <time>2024-03-17T09:58:52Z</time>
      </trkpt>
      <trkpt lat="49.98896" lon="4.38985">
        <ele>277.6</ele>
        <time>2024-03-17T09:58:53Z</time>
      </trkpt>
      <trkpt lat="49.98899" lon="4.38972">
        <ele>277.4</ele>
        <time>2024-03-17T09:58:54Z</time>
      </trkpt>
      <trkpt lat="49.98902" lon="4.3896">
        <ele>277.2</ele>
        <time>2024-03-17T09:58:55Z</time>
      </trkpt>
      <trkpt lat="49.98905" lon="4.38947">
        <ele>277.2</ele>
        <time>2024-03-17T09:58:56Z</time>
      </trkpt>
      <trkpt lat="49.98909" lon="4.38934">
        <ele>277</ele>
        <time>2024-03-17T09:58:57Z</time>
      </trkpt>
      <trkpt lat="49.98912" lon="4.38921">
        <ele>276.8</ele>
        <time>2024-03-17T09:58:58Z</time>
      </trkpt>
      <trkpt lat="49.98916" lon="4.38908">
        <ele>276.4</ele>
        <time>2024-03-17T09:58:59Z</time>
      </trkpt>
      <trkpt lat="49.98918" lon="4.38894">
        <ele>276.2</ele>
        <time>2024-03-17T09:59:00Z</time>
      </trkpt>
      <trkpt lat="49.98922" lon="4.3888">
        <ele>275.8</ele>
        <time>2024-03-17T09:59:01Z</time>
      </trkpt>
      <trkpt lat="49.98925" lon="4.38866">
        <ele>275.4</ele>
        <time>2024-03-17T09:59:02Z</time>
      </trkpt>
      <trkpt lat="49.98928" lon="4.38853">
        <ele>275.2</ele>
        <time>2024-03-17T09:59:03Z</time>
      </trkpt>
      <trkpt lat="49.98932" lon="4.3884">
        <ele>274.8</ele>
        <time>2024-03-17T09:59:04Z</time>
      </trkpt>
      <trkpt lat="49.98936" lon="4.38826">
        <ele>273.8</ele>
        <time>2024-03-17T09:59:05Z</time>
      </trkpt>
      <trkpt lat="49.98939" lon="4.38812">
        <ele>273</ele>
        <time>2024-03-17T09:59:06Z</time>
      </trkpt>
      <trkpt lat="49.98941" lon="4.38798">
        <ele>272.2</ele>
        <time>2024-03-17T09:59:07Z</time>
      </trkpt>
      <trkpt lat="49.98942" lon="4.38784">
        <ele>271.6</ele>
        <time>2024-03-17T09:59:08Z</time>
      </trkpt>
      <trkpt lat="49.98943" lon="4.38771">
        <ele>270.8</ele>
        <time>2024-03-17T09:59:09Z</time>
      </trkpt>
      <trkpt lat="49.98943" lon="4.38757">
        <ele>270</ele>
        <time>2024-03-17T09:59:10Z</time>
      </trkpt>
      <trkpt lat="49.98941" lon="4.38743">
        <ele>269.2</ele>
        <time>2024-03-17T09:59:11Z</time>
      </trkpt>
      <trkpt lat="49.98939" lon="4.3873">
        <ele>269</ele>
        <time>2024-03-17T09:59:12Z</time>
      </trkpt>
      <trkpt lat="49.98936" lon="4.38717">
        <ele>269</ele>
        <time>2024-03-17T09:59:13Z</time>
      </trkpt>
      <trkpt lat="49.98933" lon="4.38704">
        <ele>268.8</ele>
        <time>2024-03-17T09:59:14Z</time>
      </trkpt>
      <trkpt lat="49.98929" lon="4.38692">
        <ele>268.8</ele>
        <time>2024-03-17T09:59:15Z</time>
      </trkpt>
      <trkpt lat="49.98924" lon="4.38681">
        <ele>268.6</ele>
        <time>2024-03-17T09:59:16Z</time>
      </trkpt>
      <trkpt lat="49.9892" lon="4.38669">
        <ele>268.6</ele>
        <time>2024-03-17T09:59:17Z</time>
      </trkpt>
      <trkpt lat="49.98916" lon="4.38657">
        <ele>268.6</ele>
        <time>2024-03-17T09:59:18Z</time>
      </trkpt>
      <trkpt lat="49.98912" lon="4.38645">
        <ele>268.4</ele>
        <time>2024-03-17T09:59:19Z</time>
      </trkpt>
      <trkpt lat="49.98907" lon="4.38634">
        <ele>268.4</ele>
        <time>2024-03-17T09:59:20Z</time>
      </trkpt>
      <trkpt lat="49.98903" lon="4.38623">
        <ele>268.4</ele>
        <time>2024-03-17T09:59:21Z</time>
      </trkpt>
      <trkpt lat="49.98899" lon="4.38611">
        <ele>268.4</ele>
        <time>2024-03-17T09:59:22Z</time>
      </trkpt>
      <trkpt lat="49.98895" lon="4.386">
        <ele>268.2</ele>
        <time>2024-03-17T09:59:23Z</time>
      </trkpt>
      <trkpt lat="49.98891" lon="4.38589">
        <ele>268.4</ele>
        <time>2024-03-17T09:59:24Z</time>
      </trkpt>
      <trkpt lat="49.98886" lon="4.38578">
        <ele>268.4</ele>
        <time>2024-03-17T09:59:25Z</time>
      </trkpt>
      <trkpt lat="49.98882" lon="4.38567">
        <ele>268.2</ele>
        <time>2024-03-17T09:59:26Z</time>
      </trkpt>
      <trkpt lat="49.98878" lon="4.38557">
        <ele>268.2</ele>
        <time>2024-03-17T09:59:27Z</time>
      </trkpt>
      <trkpt lat="49.98874" lon="4.38546">
        <ele>268.2</ele>
        <time>2024-03-17T09:59:28Z</time>
      </trkpt>
      <trkpt lat="49.9887" lon="4.38536">
        <ele>268.2</ele>
        <time>2024-03-17T09:59:29Z</time>
      </trkpt>
      <trkpt lat="49.98866" lon="4.38526">
        <ele>268.2</ele>
        <time>2024-03-17T09:59:30Z</time>
      </trkpt>
      <trkpt lat="49.98863" lon="4.38516">
        <ele>268.2</ele>
        <time>2024-03-17T09:59:31Z</time>
      </trkpt>
      <trkpt lat="49.98859" lon="4.38507">
        <ele>268.2</ele>
        <time>2024-03-17T09:59:32Z</time>
      </trkpt>
      <trkpt lat="49.98856" lon="4.38499">
        <ele>268.2</ele>
        <time>2024-03-17T09:59:33Z</time>
      </trkpt>
      <trkpt lat="49.98853" lon="4.38491">
        <ele>268.4</ele>
        <time>2024-03-17T09:59:34Z</time>
      </trkpt>
      <trkpt lat="49.9885" lon="4.38484">
        <ele>268.2</ele>
        <time>2024-03-17T09:59:35Z</time>
      </trkpt>
      <trkpt lat="49.98848" lon="4.38478">
        <ele>268.4</ele>
        <time>2024-03-17T09:59:36Z</time>
      </trkpt>
      <trkpt lat="49.98845" lon="4.38472">
        <ele>268.4</ele>
        <time>2024-03-17T09:59:37Z</time>
      </trkpt>
      <trkpt lat="49.98843" lon="4.38466">
        <ele>268.6</ele>
        <time>2024-03-17T09:59:38Z</time>
      </trkpt>
      <trkpt lat="49.9884" lon="4.3846">
        <ele>268.6</ele>
        <time>2024-03-17T09:59:39Z</time>
      </trkpt>
      <trkpt lat="49.98838" lon="4.38454">
        <ele>268.8</ele>
        <time>2024-03-17T09:59:40Z</time>
      </trkpt>
      <trkpt lat="49.98837" lon="4.38448">
        <ele>268.8</ele>
        <time>2024-03-17T09:59:41Z</time>
      </trkpt>
      <trkpt lat="49.98835" lon="4.38443">
        <ele>269</ele>
        <time>2024-03-17T09:59:42Z</time>
      </trkpt>
      <trkpt lat="49.98834" lon="4.38437">
        <ele>269.2</ele>
        <time>2024-03-17T09:59:43Z</time>
      </trkpt>
      <trkpt lat="49.98834" lon="4.38432">
        <ele>269.4</ele>
        <time>2024-03-17T09:59:44Z</time>
      </trkpt>
      <trkpt lat="49.98834" lon="4.38427">
        <ele>270</ele>
        <time>2024-03-17T09:59:45Z</time>
      </trkpt>
      <trkpt lat="49.98835" lon="4.38422">
        <ele>270.2</ele>
        <time>2024-03-17T09:59:46Z</time>
      </trkpt>
      <trkpt lat="49.98837" lon="4.38417">
        <ele>270.2</ele>
        <time>2024-03-17T09:59:47Z</time>
      </trkpt>
      <trkpt lat="49.98839" lon="4.38414">
        <ele>270.8</ele>
        <time>2024-03-17T09:59:48Z</time>
      </trkpt>
      <trkpt lat="49.98843" lon="4.38412">
        <ele>271</ele>
        <time>2024-03-17T09:59:49Z</time>
      </trkpt>
      <trkpt lat="49.98846" lon="4.38411">
        <ele>272</ele>
        <time>2024-03-17T09:59:50Z</time>
      </trkpt>
      <trkpt lat="49.9885" lon="4.38412">
        <ele>272.4</ele>
        <time>2024-03-17T09:59:51Z</time>
      </trkpt>
      <trkpt lat="49.98854" lon="4.38413">
        <ele>272.8</ele>
        <time>2024-03-17T09:59:52Z</time>
      </trkpt>
      <trkpt lat="49.98858" lon="4.38413">
        <ele>273.4</ele>
        <time>2024-03-17T09:59:53Z</time>
      </trkpt>
      <trkpt lat="49.98862" lon="4.38414">
        <ele>274</ele>
        <time>2024-03-17T09:59:54Z</time>
      </trkpt>
      <trkpt lat="49.98867" lon="4.38414">
        <ele>274.6</ele>
        <time>2024-03-17T09:59:55Z</time>
      </trkpt>
      <trkpt lat="49.98871" lon="4.38414">
        <ele>275.2</ele>
        <time>2024-03-17T09:59:56Z</time>
      </trkpt>
      <trkpt lat="49.98876" lon="4.38415">
        <ele>275.6</ele>
        <time>2024-03-17T09:59:57Z</time>
      </trkpt>
      <trkpt lat="49.9888" lon="4.38415">
        <ele>276.2</ele>
        <time>2024-03-17T09:59:58Z</time>
      </trkpt>
      <trkpt lat="49.98885" lon="4.38416">
        <ele>276.2</ele>
        <time>2024-03-17T09:59:59Z</time>
      </trkpt>
      <trkpt lat="49.9889" lon="4.38417">
        <ele>276.4</ele>
        <time>2024-03-17T10:00:00Z</time>
      </trkpt>
      <trkpt lat="49.98895" lon="4.38418">
        <ele>276.4</ele>
        <time>2024-03-17T10:00:01Z</time>
      </trkpt>
      <trkpt lat="49.989" lon="4.38419">
        <ele>276.4</ele>
        <time>2024-03-17T10:00:02Z</time>
      </trkpt>
      <trkpt lat="49.98906" lon="4.38419">
        <ele>276.6</ele>
        <time>2024-03-17T10:00:03Z</time>
      </trkpt>
      <trkpt lat="49.98911" lon="4.3842">
        <ele>276.6</ele>
        <time>2024-03-17T10:00:04Z</time>
      </trkpt>
      <trkpt lat="49.98916" lon="4.38421">
        <ele>276.8</ele>
        <time>2024-03-17T10:00:05Z</time>
      </trkpt>
      <trkpt lat="49.98922" lon="4.38422">
        <ele>276.8</ele>
        <time>2024-03-17T10:00:06Z</time>
      </trkpt>
      <trkpt lat="49.98928" lon="4.38423">
        <ele>276.8</ele>
        <time>2024-03-17T10:00:07Z</time>
      </trkpt>
      <trkpt lat="49.98933" lon="4.38424">
        <ele>276.6</ele>
        <time>2024-03-17T10:00:08Z</time>
      </trkpt>
      <trkpt lat="49.98939" lon="4.38426">
        <ele>276.8</ele>
        <time>2024-03-17T10:00:09Z</time>
      </trkpt>
      <trkpt lat="49.98944" lon="4.38428">
        <ele>276.8</ele>
        <time>2024-03-17T10:00:10Z</time>
      </trkpt>
      <trkpt lat="49.9895" lon="4.3843">
        <ele>276.8</ele>
        <time>2024-03-17T10:00:11Z</time>
      </trkpt>
      <trkpt lat="49.98956" lon="4.38432">
        <ele>276.8</ele>
        <time>2024-03-17T10:00:12Z</time>
      </trkpt>
      <trkpt lat="49.98961" lon="4.38434">
        <ele>276.8</ele>
        <time>2024-03-17T10:00:13Z</time>
      </trkpt>
      <trkpt lat="49.98967" lon="4.38437">
        <ele>276.8</ele>
        <time>2024-03-17T10:00:14Z</time>
      </trkpt>
      <trkpt lat="49.98972" lon="4.3844">
        <ele>276.8</ele>
        <time>2024-03-17T10:00:15Z</time>
      </trkpt>
      <trkpt lat="49.98978" lon="4.38443">
        <ele>276.8</ele>
        <time>2024-03-17T10:00:16Z</time>
      </trkpt>
      <trkpt lat="49.98983" lon="4.38446">
        <ele>276.8</ele>
        <time>2024-03-17T10:00:17Z</time>
      </trkpt>
      <trkpt lat="49.98988" lon="4.38449">
        <ele>276.8</ele>
        <time>2024-03-17T10:00:18Z</time>
      </trkpt>
      <trkpt lat="49.98993" lon="4.38452">
        <ele>276.6</ele>
        <time>2024-03-17T10:00:19Z</time>
      </trkpt>
      <trkpt lat="49.98998" lon="4.38456">
        <ele>276.6</ele>
        <time>2024-03-17T10:00:20Z</time>
      </trkpt>
      <trkpt lat="49.99002" lon="4.38459">
        <ele>276.6</ele>
        <time>2024-03-17T10:00:21Z</time>
      </trkpt>
      <trkpt lat="49.99008" lon="4.38464">
        <ele>276.8</ele>
        <time>2024-03-17T10:00:22Z</time>
      </trkpt>
      <trkpt lat="49.99013" lon="4.38467">
        <ele>276.8</ele>
        <time>2024-03-17T10:00:23Z</time>
      </trkpt>
      <trkpt lat="49.99018" lon="4.38471">
        <ele>276.8</ele>
        <time>2024-03-17T10:00:24Z</time>
      </trkpt>
      <trkpt lat="49.99023" lon="4.38475">
        <ele>276.6</ele>
        <time>2024-03-17T10:00:25Z</time>
      </trkpt>
      <trkpt lat="49.99029" lon="4.38479">
        <ele>276.8</ele>
        <time>2024-03-17T10:00:26Z</time>
      </trkpt>
      <trkpt lat="49.99034" lon="4.38483">
        <ele>276.8</ele>
        <time>2024-03-17T10:00:27Z</time>
      </trkpt>
      <trkpt lat="49.99039" lon="4.38488">
        <ele>276.8</ele>
        <time>2024-03-17T10:00:28Z</time>
      </trkpt>
      <trkpt lat="49.99045" lon="4.38492">
        <ele>276.8</ele>
        <time>2024-03-17T10:00:29Z</time>
      </trkpt>
      <trkpt lat="49.9905" lon="4.38496">
        <ele>276.8</ele>
        <time>2024-03-17T10:00:30Z</time>
      </trkpt>
      <trkpt lat="49.99056" lon="4.38501">
        <ele>277</ele>
        <time>2024-03-17T10:00:31Z</time>
      </trkpt>
      <trkpt lat="49.99062" lon="4.38505">
        <ele>276.8</ele>
        <time>2024-03-17T10:00:32Z</time>
      </trkpt>
      <trkpt lat="49.99069" lon="4.38509">
        <ele>277</ele>
        <time>2024-03-17T10:00:33Z</time>
      </trkpt>
      <trkpt lat="49.99075" lon="4.38514">
        <ele>277</ele>
        <time>2024-03-17T10:00:34Z</time>
      </trkpt>
      <trkpt lat="49.99081" lon="4.38519">
        <ele>277</ele>
        <time>2024-03-17T10:00:35Z</time>
      </trkpt>
      <trkpt lat="49.99087" lon="4.38523">
        <ele>277</ele>
        <time>2024-03-17T10:00:36Z</time>
      </trkpt>
      <trkpt lat="49.99094" lon="4.38528">
        <ele>276.8</ele>
        <time>2024-03-17T10:00:37Z</time>
      </trkpt>
      <trkpt lat="49.991" lon="4.38533">
        <ele>276.8</ele>
        <time>2024-03-17T10:00:38Z</time>
      </trkpt>
      <trkpt lat="49.99108" lon="4.38538">
        <ele>277</ele>
        <time>2024-03-17T10:00:39Z</time>
      </trkpt>
      <trkpt lat="49.99115" lon="4.38542">
        <ele>277</ele>
        <time>2024-03-17T10:00:40Z</time>
      </trkpt>
      <trkpt lat="49.99124" lon="4.38546">
        <ele>276.8</ele>
        <time>2024-03-17T10:00:41Z</time>
      </trkpt>
      <trkpt lat="49.99132" lon="4.3855">
        <ele>277</ele>
        <time>2024-03-17T10:00:42Z</time>
      </trkpt>
      <trkpt lat="49.9914" lon="4.38553">
        <ele>276.8</ele>
        <time>2024-03-17T10:00:43Z</time>
      </trkpt>
      <trkpt lat="49.99149" lon="4.38556">
        <ele>276.8</ele>
        <time>2024-03-17T10:00:44Z</time>
      </trkpt>
      <trkpt lat="49.99158" lon="4.38559">
        <ele>276.8</ele>
        <time>2024-03-17T10:00:45Z</time>
      </trkpt>
      <trkpt lat="49.99167" lon="4.38562">
        <ele>276.6</ele>
        <time>2024-03-17T10:00:46Z</time>
      </trkpt>
      <trkpt lat="49.99176" lon="4.38564">
        <ele>275.8</ele>
        <time>2024-03-17T10:00:47Z</time>
      </trkpt>
      <trkpt lat="49.99185" lon="4.38567">
        <ele>275</ele>
        <time>2024-03-17T10:00:48Z</time>
      </trkpt>
      <trkpt lat="49.99194" lon="4.38568">
        <ele>274.4</ele>
        <time>2024-03-17T10:00:49Z</time>
      </trkpt>
      <trkpt lat="49.99203" lon="4.38569">
        <ele>273.8</ele>
        <time>2024-03-17T10:00:50Z</time>
      </trkpt>
      <trkpt lat="49.99213" lon="4.3857">
        <ele>273.6</ele>
        <time>2024-03-17T10:00:51Z</time>
      </trkpt>
      <trkpt lat="49.99222" lon="4.3857">
        <ele>273.4</ele>
        <time>2024-03-17T10:00:52Z</time>
      </trkpt>
      <trkpt lat="49.9923" lon="4.3857">
        <ele>273</ele>
        <time>2024-03-17T10:00:53Z</time>
      </trkpt>
      <trkpt lat="49.99239" lon="4.38569">
        <ele>273</ele>
        <time>2024-03-17T10:00:54Z</time>
      </trkpt>
      <trkpt lat="49.99248" lon="4.38567">
        <ele>272.4</ele>
        <time>2024-03-17T10:00:55Z</time>
      </trkpt>
      <trkpt lat="49.99257" lon="4.38565">
        <ele>271.8</ele>
        <time>2024-03-17T10:00:56Z</time>
      </trkpt>
      <trkpt lat="49.99266" lon="4.38564">
        <ele>271.4</ele>
        <time>2024-03-17T10:00:57Z</time>
      </trkpt>
      <trkpt lat="49.99274" lon="4.38561">
        <ele>270.8</ele>
        <time>2024-03-17T10:00:58Z</time>
      </trkpt>
      <trkpt lat="49.99282" lon="4.38559">
        <ele>270.4</ele>
        <time>2024-03-17T10:00:59Z</time>
      </trkpt>
      <trkpt lat="49.99291" lon="4.38556">
        <ele>270.2</ele>
        <time>2024-03-17T10:01:00Z</time>
      </trkpt>
      <trkpt lat="49.99299" lon="4.38552">
        <ele>269.8</ele>
        <time>2024-03-17T10:01:01Z</time>
      </trkpt>
      <trkpt lat="49.99306" lon="4.38548">
        <ele>269.8</ele>
        <time>2024-03-17T10:01:02Z</time>
      </trkpt>
      <trkpt lat="49.99314" lon="4.38544">
        <ele>269.6</ele>
        <time>2024-03-17T10:01:03Z</time>
      </trkpt>
      <trkpt lat="49.99321" lon="4.38539">
        <ele>269.4</ele>
        <time>2024-03-17T10:01:04Z</time>
      </trkpt>
      <trkpt lat="49.99329" lon="4.38535">
        <ele>269</ele>
        <time>2024-03-17T10:01:05Z</time>
      </trkpt>
      <trkpt lat="49.99336" lon="4.3853">
        <ele>268.8</ele>
        <time>2024-03-17T10:01:06Z</time>
      </trkpt>
      <trkpt lat="49.99343" lon="4.38527">
        <ele>268.8</ele>
        <time>2024-03-17T10:01:07Z</time>
      </trkpt>
      <trkpt lat="49.99351" lon="4.38523">
        <ele>268.6</ele>
        <time>2024-03-17T10:01:08Z</time>
      </trkpt>
      <trkpt lat="49.99358" lon="4.38519">
        <ele>268.4</ele>
        <time>2024-03-17T10:01:09Z</time>
      </trkpt>
      <trkpt lat="49.99365" lon="4.38515">
        <ele>268.6</ele>
        <time>2024-03-17T10:01:10Z</time>
      </trkpt>
      <trkpt lat="49.99373" lon="4.38511">
        <ele>268.4</ele>
        <time>2024-03-17T10:01:11Z</time>
      </trkpt>
      <trkpt lat="49.99379" lon="4.38507">
        <ele>268.4</ele>
        <time>2024-03-17T10:01:12Z</time>
      </trkpt>
      <trkpt lat="49.99386" lon="4.38503">
        <ele>268.4</ele>
        <time>2024-03-17T10:01:13Z</time>
      </trkpt>
      <trkpt lat="49.99393" lon="4.38499">
        <ele>268.4</ele>
        <time>2024-03-17T10:01:14Z</time>
      </trkpt>
      <trkpt lat="49.994" lon="4.38495">
        <ele>268.4</ele>
        <time>2024-03-17T10:01:15Z</time>
      </trkpt>
      <trkpt lat="49.99408" lon="4.38491">
        <ele>268.4</ele>
        <time>2024-03-17T10:01:16Z</time>
      </trkpt>
      <trkpt lat="49.99414" lon="4.38487">
        <ele>268.4</ele>
        <time>2024-03-17T10:01:17Z</time>
      </trkpt>
      <trkpt lat="49.99421" lon="4.38483">
        <ele>268.4</ele>
        <time>2024-03-17T10:01:18Z</time>
      </trkpt>
      <trkpt lat="49.99428" lon="4.38479">
        <ele>268.4</ele>
        <time>2024-03-17T10:01:19Z</time>
      </trkpt>
      <trkpt lat="49.99434" lon="4.38475">
        <ele>268.4</ele>
        <time>2024-03-17T10:01:20Z</time>
      </trkpt>
      <trkpt lat="49.99441" lon="4.38471">
        <ele>268.4</ele>
        <time>2024-03-17T10:01:21Z</time>
      </trkpt>
      <trkpt lat="49.99447" lon="4.38467">
        <ele>268.4</ele>
        <time>2024-03-17T10:01:22Z</time>
      </trkpt>
      <trkpt lat="49.99454" lon="4.38464">
        <ele>268.4</ele>
        <time>2024-03-17T10:01:23Z</time>
      </trkpt>
      <trkpt lat="49.9946" lon="4.3846">
        <ele>268.6</ele>
        <time>2024-03-17T10:01:24Z</time>
      </trkpt>
      <trkpt lat="49.99466" lon="4.38457">
        <ele>268.4</ele>
        <time>2024-03-17T10:01:25Z</time>
      </trkpt>
      <trkpt lat="49.99473" lon="4.38454">
        <ele>268.4</ele>
        <time>2024-03-17T10:01:26Z</time>
      </trkpt>
      <trkpt lat="49.99479" lon="4.3845">
        <ele>268.4</ele>
        <time>2024-03-17T10:01:27Z</time>
      </trkpt>
      <trkpt lat="49.99485" lon="4.38446">
        <ele>268.6</ele>
        <time>2024-03-17T10:01:28Z</time>
      </trkpt>
      <trkpt lat="49.99491" lon="4.38442">
        <ele>268.8</ele>
        <time>2024-03-17T10:01:29Z</time>
      </trkpt>
      <trkpt lat="49.99498" lon="4.38438">
        <ele>268.8</ele>
        <time>2024-03-17T10:01:30Z</time>
      </trkpt>
      <trkpt lat="49.99505" lon="4.38435">
        <ele>268.8</ele>
        <time>2024-03-17T10:01:31Z</time>
      </trkpt>
      <trkpt lat="49.99512" lon="4.38431">
        <ele>268.8</ele>
        <time>2024-03-17T10:01:32Z</time>
      </trkpt>
      <trkpt lat="49.99518" lon="4.38426">
        <ele>269.2</ele>
        <time>2024-03-17T10:01:33Z</time>
      </trkpt>
      <trkpt lat="49.99525" lon="4.38422">
        <ele>269.4</ele>
        <time>2024-03-17T10:01:34Z</time>
      </trkpt>
      <trkpt lat="49.99533" lon="4.38418">
        <ele>269.6</ele>
        <time>2024-03-17T10:01:35Z</time>
      </trkpt>
      <trkpt lat="49.9954" lon="4.38413">
        <ele>269.8</ele>
        <time>2024-03-17T10:01:36Z</time>
      </trkpt>
      <trkpt lat="49.99547" lon="4.38409">
        <ele>269.8</ele>
        <time>2024-03-17T10:01:37Z</time>
      </trkpt>
      <trkpt lat="49.99555" lon="4.38404">
        <ele>269.8</ele>
        <time>2024-03-17T10:01:38Z</time>
      </trkpt>
      <trkpt lat="49.99562" lon="4.384">
        <ele>269.8</ele>
        <time>2024-03-17T10:01:39Z</time>
      </trkpt>
      <trkpt lat="49.99568" lon="4.38395">
        <ele>269.8</ele>
        <time>2024-03-17T10:01:40Z</time>
      </trkpt>
      <trkpt lat="49.99575" lon="4.38391">
        <ele>269.6</ele>
        <time>2024-03-17T10:01:41Z</time>
      </trkpt>
      <trkpt lat="49.99582" lon="4.38387">
        <ele>269.8</ele>
        <time>2024-03-17T10:01:42Z</time>
      </trkpt>
      <trkpt lat="49.99589" lon="4.38381">
        <ele>269.8</ele>
        <time>2024-03-17T10:01:43Z</time>
      </trkpt>
      <trkpt lat="49.99596" lon="4.38375">
        <ele>269.6</ele>
        <time>2024-03-17T10:01:44Z</time>
      </trkpt>
      <trkpt lat="49.99603" lon="4.38369">
        <ele>269.4</ele>
        <time>2024-03-17T10:01:45Z</time>
      </trkpt>
      <trkpt lat="49.99612" lon="4.38364">
        <ele>269.2</ele>
        <time>2024-03-17T10:01:46Z</time>
      </trkpt>
      <trkpt lat="49.99622" lon="4.38358">
        <ele>269.2</ele>
        <time>2024-03-17T10:01:47Z</time>
      </trkpt>
      <trkpt lat="49.99631" lon="4.38353">
        <ele>268.8</ele>
        <time>2024-03-17T10:01:48Z</time>
      </trkpt>
      <trkpt lat="49.9964" lon="4.38348">
        <ele>268.6</ele>
        <time>2024-03-17T10:01:49Z</time>
      </trkpt>
      <trkpt lat="49.9965" lon="4.38343">
        <ele>268.2</ele>
        <time>2024-03-17T10:01:50Z</time>
      </trkpt>
      <trkpt lat="49.9966" lon="4.38338">
        <ele>268.2</ele>
        <time>2024-03-17T10:01:51Z</time>
      </trkpt>
      <trkpt lat="49.99669" lon="4.38334">
        <ele>268</ele>
        <time>2024-03-17T10:01:52Z</time>
      </trkpt>
      <trkpt lat="49.99678" lon="4.38329">
        <ele>267.6</ele>
        <time>2024-03-17T10:01:53Z</time>
      </trkpt>
      <trkpt lat="49.99687" lon="4.38324">
        <ele>267.2</ele>
        <time>2024-03-17T10:01:54Z</time>
      </trkpt>
      <trkpt lat="49.99696" lon="4.38319">
        <ele>266.8</ele>
        <time>2024-03-17T10:01:55Z</time>
      </trkpt>
      <trkpt lat="49.99705" lon="4.38314">
        <ele>266.2</ele>
        <time>2024-03-17T10:01:56Z</time>
      </trkpt>
      <trkpt lat="49.99714" lon="4.38309">
        <ele>265.8</ele>
        <time>2024-03-17T10:01:57Z</time>
      </trkpt>
      <trkpt lat="49.99722" lon="4.38304">
        <ele>265.4</ele>
        <time>2024-03-17T10:01:58Z</time>
      </trkpt>
      <trkpt lat="49.99731" lon="4.38298">
        <ele>265.2</ele>
        <time>2024-03-17T10:01:59Z</time>
      </trkpt>
      <trkpt lat="49.9974" lon="4.38293">
        <ele>264.8</ele>
        <time>2024-03-17T10:02:00Z</time>
      </trkpt>
      <trkpt lat="49.99748" lon="4.38289">
        <ele>264.4</ele>
        <time>2024-03-17T10:02:01Z</time>
      </trkpt>
      <trkpt lat="49.99757" lon="4.38284">
        <ele>264</ele>
        <time>2024-03-17T10:02:02Z</time>
      </trkpt>
      <trkpt lat="49.99767" lon="4.38281">
        <ele>263.8</ele>
        <time>2024-03-17T10:02:03Z</time>
      </trkpt>
      <trkpt lat="49.99776" lon="4.38278">
        <ele>263.8</ele>
        <time>2024-03-17T10:02:04Z</time>
      </trkpt>
      <trkpt lat="49.99786" lon="4.38276">
        <ele>263.6</ele>
        <time>2024-03-17T10:02:05Z</time>
      </trkpt>
      <trkpt lat="49.99795" lon="4.38276">
        <ele>263.4</ele>
        <time>2024-03-17T10:02:06Z</time>
      </trkpt>
      <trkpt lat="49.99804" lon="4.38276">
        <ele>263</ele>
        <time>2024-03-17T10:02:07Z</time>
      </trkpt>
      <trkpt lat="49.99813" lon="4.38278">
        <ele>262.8</ele>
        <time>2024-03-17T10:02:08Z</time>
      </trkpt>
      <trkpt lat="49.99822" lon="4.3828">
        <ele>262.6</ele>
        <time>2024-03-17T10:02:09Z</time>
      </trkpt>
      <trkpt lat="49.9983" lon="4.38284">
        <ele>262.6</ele>
        <time>2024-03-17T10:02:10Z</time>
      </trkpt>
      <trkpt lat="49.99837" lon="4.38287">
        <ele>262.4</ele>
        <time>2024-03-17T10:02:11Z</time>
      </trkpt>
      <trkpt lat="49.99845" lon="4.38292">
        <ele>262.6</ele>
        <time>2024-03-17T10:02:12Z</time>
      </trkpt>
      <trkpt lat="49.99852" lon="4.38296">
        <ele>262.4</ele>
        <time>2024-03-17T10:02:13Z</time>
      </trkpt>
      <trkpt lat="49.99858" lon="4.38301">
        <ele>262.6</ele>
        <time>2024-03-17T10:02:14Z</time>
      </trkpt>
      <trkpt lat="49.99864" lon="4.38306">
        <ele>262.4</ele>
        <time>2024-03-17T10:02:15Z</time>
      </trkpt>
      <trkpt lat="49.99869" lon="4.3831">
        <ele>262.4</ele>
        <time>2024-03-17T10:02:16Z</time>
      </trkpt>
      <trkpt lat="49.99875" lon="4.38314">
        <ele>262.4</ele>
        <time>2024-03-17T10:02:17Z</time>
      </trkpt>
      <trkpt lat="49.9988" lon="4.38318">
        <ele>262.4</ele>
        <time>2024-03-17T10:02:18Z</time>
      </trkpt>
      <trkpt lat="49.99885" lon="4.38322">
        <ele>262.4</ele>
        <time>2024-03-17T10:02:19Z</time>
      </trkpt>
      <trkpt lat="49.99889" lon="4.38326">
        <ele>262.4</ele>
        <time>2024-03-17T10:02:20Z</time>
      </trkpt>
      <trkpt lat="49.99893" lon="4.38329">
        <ele>262.8</ele>
        <time>2024-03-17T10:02:21Z</time>
      </trkpt>
      <trkpt lat="49.99897" lon="4.38332">
        <ele>263.4</ele>
        <time>2024-03-17T10:02:22Z</time>
      </trkpt>
      <trkpt lat="49.99901" lon="4.38335">
        <ele>263.4</ele>
        <time>2024-03-17T10:02:23Z</time>
      </trkpt>
      <trkpt lat="49.99904" lon="4.38338">
        <ele>263.8</ele>
        <time>2024-03-17T10:02:24Z</time>
      </trkpt>
      <trkpt lat="49.99908" lon="4.38341">
        <ele>264.6</ele>
        <time>2024-03-17T10:02:25Z</time>
      </trkpt>
      <trkpt lat="49.99911" lon="4.38344">
        <ele>265.2</ele>
        <time>2024-03-17T10:02:26Z</time>
      </trkpt>
      <trkpt lat="49.99914" lon="4.38347">
        <ele>265.6</ele>
        <time>2024-03-17T10:02:27Z</time>
      </trkpt>
      <trkpt lat="49.99917" lon="4.3835">
        <ele>266.4</ele>
        <time>2024-03-17T10:02:28Z</time>
      </trkpt>
      <trkpt lat="49.99919" lon="4.38352">
        <ele>266.8</ele>
        <time>2024-03-17T10:02:29Z</time>
      </trkpt>
      <trkpt lat="49.99922" lon="4.38355">
        <ele>267.2</ele>
        <time>2024-03-17T10:02:30Z</time>
      </trkpt>
      <trkpt lat="49.99925" lon="4.38356">
        <ele>267.8</ele>
        <time>2024-03-17T10:02:31Z</time>
      </trkpt>
      <trkpt lat="49.99927" lon="4.38358">
        <ele>268</ele>
        <time>2024-03-17T10:02:32Z</time>
      </trkpt>
      <trkpt lat="49.9993" lon="4.38361">
        <ele>268.6</ele>
        <time>2024-03-17T10:02:33Z</time>
      </trkpt>
      <trkpt lat="49.99933" lon="4.38363">
        <ele>268.8</ele>
        <time>2024-03-17T10:02:34Z</time>
      </trkpt>
      <trkpt lat="49.99935" lon="4.38366">
        <ele>269</ele>
        <time>2024-03-17T10:02:35Z</time>
      </trkpt>
      <trkpt lat="49.99937" lon="4.38369">
        <ele>269.2</ele>
        <time>2024-03-17T10:02:36Z</time>
      </trkpt>
      <trkpt lat="49.9994" lon="4.38372">
        <ele>269.6</ele>
        <time>2024-03-17T10:02:37Z</time>
      </trkpt>
      <trkpt lat="49.99942" lon="4.38375">
        <ele>269.8</ele>
        <time>2024-03-17T10:02:38Z</time>
      </trkpt>
      <trkpt lat="49.99945" lon="4.38378">
        <ele>269.8</ele>
        <time>2024-03-17T10:02:39Z</time>
      </trkpt>
      <trkpt lat="49.99948" lon="4.38381">
        <ele>270</ele>
        <time>2024-03-17T10:02:40Z</time>
      </trkpt>
      <trkpt lat="49.9995" lon="4.38383">
        <ele>270.4</ele>
        <time>2024-03-17T10:02:41Z</time>
      </trkpt>
      <trkpt lat="49.99953" lon="4.38385">
        <ele>270.6</ele>
        <time>2024-03-17T10:02:42Z</time>
      </trkpt>
      <trkpt lat="49.99956" lon="4.38387">
        <ele>271</ele>
        <time>2024-03-17T10:02:43Z</time>
      </trkpt>
      <trkpt lat="49.99959" lon="4.38389">
        <ele>271.2</ele>
        <time>2024-03-17T10:02:44Z</time>
      </trkpt>
      <trkpt lat="49.99961" lon="4.38391">
        <ele>271.4</ele>
        <time>2024-03-17T10:02:45Z</time>
      </trkpt>
      <trkpt lat="49.99964" lon="4.38393">
        <ele>271.8</ele>
        <time>2024-03-17T10:02:46Z</time>
      </trkpt>
      <trkpt lat="49.99966" lon="4.38395">
        <ele>272.4</ele>
        <time>2024-03-17T10:02:47Z</time>
      </trkpt>
      <trkpt lat="49.99969" lon="4.38397">
        <ele>272.4</ele>
        <time>2024-03-17T10:02:48Z</time>
      </trkpt>
      <trkpt lat="49.99972" lon="4.38399">
        <ele>272.6</ele>
        <time>2024-03-17T10:02:49Z</time>
      </trkpt>
      <trkpt lat="49.99974" lon="4.38401">
        <ele>272.8</ele>
        <time>2024-03-17T10:02:50Z</time>
      </trkpt>
      <trkpt lat="49.99978" lon="4.38404">
        <ele>273.2</ele>
        <time>2024-03-17T10:02:51Z</time>
      </trkpt>
      <trkpt lat="49.99981" lon="4.38407">
        <ele>273.6</ele>
        <time>2024-03-17T10:02:52Z</time>
      </trkpt>
      <trkpt lat="49.99984" lon="4.38409">
        <ele>273.8</ele>
        <time>2024-03-17T10:02:53Z</time>
      </trkpt>
      <trkpt lat="49.99986" lon="4.38411">
        <ele>274.2</ele>
        <time>2024-03-17T10:02:54Z</time>
      </trkpt>
      <trkpt lat="49.99988" lon="4.38413">
        <ele>274.6</ele>
        <time>2024-03-17T10:02:55Z</time>
      </trkpt>
      <trkpt lat="49.99991" lon="4.38415">
        <ele>274.8</ele>
        <time>2024-03-17T10:02:56Z</time>
      </trkpt>
      <trkpt lat="49.99994" lon="4.38418">
        <ele>274.8</ele>
        <time>2024-03-17T10:02:57Z</time>
      </trkpt>
      <trkpt lat="49.99997" lon="4.38421">
        <ele>274.8</ele>
        <time>2024-03-17T10:02:58Z</time>
      </trkpt>
      <trkpt lat="50" lon="4.38423">
        <ele>275.2</ele>
        <time>2024-03-17T10:02:59Z</time>
      </trkpt>
      <trkpt lat="50.00004" lon="4.38426">
        <ele>275.6</ele>
        <time>2024-03-17T10:03:00Z</time>
      </trkpt>
      <trkpt lat="50.00007" lon="4.38429">
        <ele>276</ele>
        <time>2024-03-17T10:03:01Z</time>
      </trkpt>
      <trkpt lat="50.00011" lon="4.38431">
        <ele>276</ele>
        <time>2024-03-17T10:03:02Z</time>
      </trkpt>
      <trkpt lat="50.00013" lon="4.38434">
        <ele>276.4</ele>
        <time>2024-03-17T10:03:03Z</time>
      </trkpt>
      <trkpt lat="50.00016" lon="4.38436">
        <ele>276.8</ele>
        <time>2024-03-17T10:03:04Z</time>
      </trkpt>
      <trkpt lat="50.0002" lon="4.38439">
        <ele>277</ele>
        <time>2024-03-17T10:03:05Z</time>
      </trkpt>
      <trkpt lat="50.00023" lon="4.38443">
        <ele>277.2</ele>
        <time>2024-03-17T10:03:06Z</time>
      </trkpt>
      <trkpt lat="50.00026" lon="4.38446">
        <ele>277.2</ele>
        <time>2024-03-17T10:03:07Z</time>
      </trkpt>
      <trkpt lat="50.00029" lon="4.38449">
        <ele>277.6</ele>
        <time>2024-03-17T10:03:08Z</time>
      </trkpt>
      <trkpt lat="50.00031" lon="4.38451">
        <ele>278</ele>
        <time>2024-03-17T10:03:09Z</time>
      </trkpt>
      <trkpt lat="50.00034" lon="4.38453">
        <ele>278</ele>
        <time>2024-03-17T10:03:10Z</time>
      </trkpt>
      <trkpt lat="50.00037" lon="4.38455">
        <ele>278.4</ele>
        <time>2024-03-17T10:03:11Z</time>
      </trkpt>
      <trkpt lat="50.0004" lon="4.38457">
        <ele>278.6</ele>
        <time>2024-03-17T10:03:12Z</time>
      </trkpt>
      <trkpt lat="50.00043" lon="4.3846">
        <ele>278.8</ele>
        <time>2024-03-17T10:03:13Z</time>
      </trkpt>
      <trkpt lat="50.00046" lon="4.38463">
        <ele>279</ele>
        <time>2024-03-17T10:03:14Z</time>
      </trkpt>
      <trkpt lat="50.00048" lon="4.38465">
        <ele>279</ele>
        <time>2024-03-17T10:03:15Z</time>
      </trkpt>
      <trkpt lat="50.00051" lon="4.38467">
        <ele>279.2</ele>
        <time>2024-03-17T10:03:16Z</time>
      </trkpt>
      <trkpt lat="50.00054" lon="4.3847">
        <ele>279.4</ele>
        <time>2024-03-17T10:03:17Z</time>
      </trkpt>
      <trkpt lat="50.00057" lon="4.38472">
        <ele>279.6</ele>
        <time>2024-03-17T10:03:18Z</time>
      </trkpt>
      <trkpt lat="50.00059" lon="4.38474">
        <ele>279.8</ele>
        <time>2024-03-17T10:03:19Z</time>
      </trkpt>
      <trkpt lat="50.00061" lon="4.38476">
        <ele>279.8</ele>
        <time>2024-03-17T10:03:20Z</time>
      </trkpt>
      <trkpt lat="50.00064" lon="4.38479">
        <ele>280</ele>
        <time>2024-03-17T10:03:21Z</time>
      </trkpt>
      <trkpt lat="50.00067" lon="4.38482">
        <ele>280</ele>
        <time>2024-03-17T10:03:22Z</time>
      </trkpt>
      <trkpt lat="50.0007" lon="4.38485">
        <ele>280.2</ele>
        <time>2024-03-17T10:03:23Z</time>
      </trkpt>
      <trkpt lat="50.00073" lon="4.38487">
        <ele>280.2</ele>
        <time>2024-03-17T10:03:24Z</time>
      </trkpt>
      <trkpt lat="50.00075" lon="4.38489">
        <ele>280.4</ele>
        <time>2024-03-17T10:03:25Z</time>
      </trkpt>
      <trkpt lat="50.00079" lon="4.38492">
        <ele>280.4</ele>
        <time>2024-03-17T10:03:26Z</time>
      </trkpt>
      <trkpt lat="50.00081" lon="4.38494">
        <ele>280.8</ele>
        <time>2024-03-17T10:03:27Z</time>
      </trkpt>
      <trkpt lat="50.00084" lon="4.38496">
        <ele>281</ele>
        <time>2024-03-17T10:03:28Z</time>
      </trkpt>
      <trkpt lat="50.00086" lon="4.38498">
        <ele>281.4</ele>
        <time>2024-03-17T10:03:29Z</time>
      </trkpt>
      <trkpt lat="50.00088" lon="4.38501">
        <ele>281.8</ele>
        <time>2024-03-17T10:03:30Z</time>
      </trkpt>
      <trkpt lat="50.00091" lon="4.38503">
        <ele>281.8</ele>
        <time>2024-03-17T10:03:31Z</time>
      </trkpt>
      <trkpt lat="50.00094" lon="4.38506">
        <ele>282.8</ele>
        <time>2024-03-17T10:03:32Z</time>
      </trkpt>
      <trkpt lat="50.00096" lon="4.38508">
        <ele>283</ele>
        <time>2024-03-17T10:03:33Z</time>
      </trkpt>
      <trkpt lat="50.00099" lon="4.3851">
        <ele>283.4</ele>
        <time>2024-03-17T10:03:34Z</time>
      </trkpt>
      <trkpt lat="50.00102" lon="4.38513">
        <ele>283.6</ele>
        <time>2024-03-17T10:03:35Z</time>
      </trkpt>
      <trkpt lat="50.00105" lon="4.38515">
        <ele>283.8</ele>
        <time>2024-03-17T10:03:36Z</time>
      </trkpt>
      <trkpt lat="50.00108" lon="4.38517">
        <ele>284</ele>
        <time>2024-03-17T10:03:37Z</time>
      </trkpt>
      <trkpt lat="50.00111" lon="4.38519">
        <ele>284.2</ele>
        <time>2024-03-17T10:03:38Z</time>
      </trkpt>
      <trkpt lat="50.00114" lon="4.38522">
        <ele>284.4</ele>
        <time>2024-03-17T10:03:39Z</time>
      </trkpt>
      <trkpt lat="50.00116" lon="4.38524">
        <ele>284.6</ele>
        <time>2024-03-17T10:03:40Z</time>
      </trkpt>
      <trkpt lat="50.0012" lon="4.38526">
        <ele>284.6</ele>
        <time>2024-03-17T10:03:41Z</time>
      </trkpt>
      <trkpt lat="50.00123" lon="4.38529">
        <ele>284.8</ele>
        <time>2024-03-17T10:03:42Z</time>
      </trkpt>
      <trkpt lat="50.00126" lon="4.38531">
        <ele>284.8</ele>
        <time>2024-03-17T10:03:43Z</time>
      </trkpt>
      <trkpt lat="50.00128" lon="4.38532">
        <ele>285</ele>
        <time>2024-03-17T10:03:44Z</time>
      </trkpt>
      <trkpt lat="50.00131" lon="4.38534">
        <ele>285.2</ele>
        <time>2024-03-17T10:03:45Z</time>
      </trkpt>
      <trkpt lat="50.00134" lon="4.38536">
        <ele>285.2</ele>
        <time>2024-03-17T10:03:46Z</time>
      </trkpt>
      <trkpt lat="50.00138" lon="4.38538">
        <ele>285.4</ele>
        <time>2024-03-17T10:03:47Z</time>
      </trkpt>
      <trkpt lat="50.00141" lon="4.3854">
        <ele>285.4</ele>
        <time>2024-03-17T10:03:48Z</time>
      </trkpt>
      <trkpt lat="50.00144" lon="4.38543">
        <ele>285.6</ele>
        <time>2024-03-17T10:03:49Z</time>
      </trkpt>
      <trkpt lat="50.00148" lon="4.38545">
        <ele>285.6</ele>
        <time>2024-03-17T10:03:50Z</time>
      </trkpt>
      <trkpt lat="50.00151" lon="4.38547">
        <ele>285.6</ele>
        <time>2024-03-17T10:03:51Z</time>
      </trkpt>
      <trkpt lat="50.00154" lon="4.38549">
        <ele>286</ele>
        <time>2024-03-17T10:03:52Z</time>
      </trkpt>
      <trkpt lat="50.00157" lon="4.3855">
        <ele>286.8</ele>
        <time>2024-03-17T10:03:53Z</time>
      </trkpt>
      <trkpt lat="50.0016" lon="4.38552">
        <ele>287.4</ele>
        <time>2024-03-17T10:03:54Z</time>
      </trkpt>
      <trkpt lat="50.00163" lon="4.38554">
        <ele>287.8</ele>
        <time>2024-03-17T10:03:55Z</time>
      </trkpt>
      <trkpt lat="50.00167" lon="4.38555">
        <ele>288</ele>
        <time>2024-03-17T10:03:56Z</time>
      </trkpt>
      <trkpt lat="50.0017" lon="4.38557">
        <ele>288.2</ele>
        <time>2024-03-17T10:03:57Z</time>
      </trkpt>
      <trkpt lat="50.00173" lon="4.38558">
        <ele>288.4</ele>
        <time>2024-03-17T10:03:58Z</time>
      </trkpt>
      <trkpt lat="50.00176" lon="4.38559">
        <ele>288.6</ele>
        <time>2024-03-17T10:03:59Z</time>
      </trkpt>
      <trkpt lat="50.00178" lon="4.38559">
        <ele>288.8</ele>
        <time>2024-03-17T10:04:00Z</time>
      </trkpt>
      <trkpt lat="50.00181" lon="4.38561">
        <ele>289</ele>
        <time>2024-03-17T10:04:01Z</time>
      </trkpt>
      <trkpt lat="50.00184" lon="4.38561">
        <ele>289.2</ele>
        <time>2024-03-17T10:04:02Z</time>
      </trkpt>
      <trkpt lat="50.00186" lon="4.38562">
        <ele>289.2</ele>
        <time>2024-03-17T10:04:03Z</time>
      </trkpt>
      <trkpt lat="50.00188" lon="4.38563">
        <ele>289.2</ele>
        <time>2024-03-17T10:04:04Z</time>
      </trkpt>
      <trkpt lat="50.00191" lon="4.38563">
        <ele>289.4</ele>
        <time>2024-03-17T10:04:05Z</time>
      </trkpt>
      <trkpt lat="50.00194" lon="4.38563">
        <ele>289.4</ele>
        <time>2024-03-17T10:04:06Z</time>
      </trkpt>
      <trkpt lat="50.00197" lon="4.38564">
        <ele>289.6</ele>
        <time>2024-03-17T10:04:07Z</time>
      </trkpt>
      <trkpt lat="50.002" lon="4.38564">
        <ele>289.8</ele>
        <time>2024-03-17T10:04:08Z</time>
      </trkpt>
      <trkpt lat="50.00203" lon="4.38565">
        <ele>289.8</ele>
        <time>2024-03-17T10:04:09Z</time>
      </trkpt>
      <trkpt lat="50.00206" lon="4.38564">
        <ele>290</ele>
        <time>2024-03-17T10:04:10Z</time>
      </trkpt>
      <trkpt lat="50.0021" lon="4.38564">
        <ele>290</ele>
        <time>2024-03-17T10:04:11Z</time>
      </trkpt>
      <trkpt lat="50.00213" lon="4.38564">
        <ele>290.2</ele>
        <time>2024-03-17T10:04:12Z</time>
      </trkpt>
      <trkpt lat="50.00217" lon="4.38562">
        <ele>290.4</ele>
        <time>2024-03-17T10:04:13Z</time>
      </trkpt>
      <trkpt lat="50.0022" lon="4.38561">
        <ele>290.8</ele>
        <time>2024-03-17T10:04:14Z</time>
      </trkpt>
      <trkpt lat="50.00224" lon="4.38559">
        <ele>290.8</ele>
        <time>2024-03-17T10:04:15Z</time>
      </trkpt>
      <trkpt lat="50.00227" lon="4.38557">
        <ele>291</ele>
        <time>2024-03-17T10:04:16Z</time>
      </trkpt>
      <trkpt lat="50.00231" lon="4.38554">
        <ele>291.2</ele>
        <time>2024-03-17T10:04:17Z</time>
      </trkpt>
      <trkpt lat="50.00234" lon="4.38551">
        <ele>291.4</ele>
        <time>2024-03-17T10:04:18Z</time>
      </trkpt>
      <trkpt lat="50.00237" lon="4.38547">
        <ele>291.6</ele>
        <time>2024-03-17T10:04:19Z</time>
      </trkpt>
      <trkpt lat="50.0024" lon="4.38543">
        <ele>291.8</ele>
        <time>2024-03-17T10:04:20Z</time>
      </trkpt>
      <trkpt lat="50.00243" lon="4.38539">
        <ele>291.8</ele>
        <time>2024-03-17T10:04:21Z</time>
      </trkpt>
      <trkpt lat="50.00246" lon="4.38534">
        <ele>292.4</ele>
        <time>2024-03-17T10:04:22Z</time>
      </trkpt>
      <trkpt lat="50.00248" lon="4.38529">
        <ele>293</ele>
        <time>2024-03-17T10:04:23Z</time>
      </trkpt>
      <trkpt lat="50.0025" lon="4.38523">
        <ele>293.4</ele>
        <time>2024-03-17T10:04:24Z</time>
      </trkpt>
      <trkpt lat="50.00252" lon="4.38517">
        <ele>293.6</ele>
        <time>2024-03-17T10:04:25Z</time>
      </trkpt>
      <trkpt lat="50.00254" lon="4.38511">
        <ele>293.8</ele>
        <time>2024-03-17T10:04:26Z</time>
      </trkpt>
      <trkpt lat="50.00255" lon="4.38504">
        <ele>294</ele>
        <time>2024-03-17T10:04:27Z</time>
      </trkpt>
      <trkpt lat="50.00255" lon="4.38498">
        <ele>293.8</ele>
        <time>2024-03-17T10:04:28Z</time>
      </trkpt>
      <trkpt lat="50.00256" lon="4.3849">
        <ele>294</ele>
        <time>2024-03-17T10:04:29Z</time>
      </trkpt>
      <trkpt lat="50.00256" lon="4.38482">
        <ele>293.8</ele>
        <time>2024-03-17T10:04:30Z</time>
      </trkpt>
      <trkpt lat="50.00256" lon="4.38474">
        <ele>293.8</ele>
        <time>2024-03-17T10:04:31Z</time>
      </trkpt>
      <trkpt lat="50.00255" lon="4.38466">
        <ele>293.8</ele>
        <time>2024-03-17T10:04:32Z</time>
      </trkpt>
      <trkpt lat="50.00255" lon="4.38456">
        <ele>293.8</ele>
        <time>2024-03-17T10:04:33Z</time>
      </trkpt>
      <trkpt lat="50.00254" lon="4.38447">
        <ele>294</ele>
        <time>2024-03-17T10:04:34Z</time>
      </trkpt>
      <trkpt lat="50.00252" lon="4.38435">
        <ele>294</ele>
        <time>2024-03-17T10:04:35Z</time>
      </trkpt>
      <trkpt lat="50.00251" lon="4.38424">
        <ele>293.8</ele>
        <time>2024-03-17T10:04:36Z</time>
      </trkpt>
      <trkpt lat="50.0025" lon="4.38413">
        <ele>293.6</ele>
        <time>2024-03-17T10:04:37Z</time>
      </trkpt>
      <trkpt lat="50.00249" lon="4.38401">
        <ele>293.6</ele>
        <time>2024-03-17T10:04:38Z</time>
      </trkpt>
      <trkpt lat="50.00247" lon="4.3839">
        <ele>293.2</ele>
        <time>2024-03-17T10:04:39Z</time>
      </trkpt>
      <trkpt lat="50.00246" lon="4.38378">
        <ele>293.2</ele>
        <time>2024-03-17T10:04:40Z</time>
      </trkpt>
      <trkpt lat="50.00245" lon="4.38366">
        <ele>293</ele>
        <time>2024-03-17T10:04:41Z</time>
      </trkpt>
      <trkpt lat="50.00244" lon="4.38354">
        <ele>292.8</ele>
        <time>2024-03-17T10:04:42Z</time>
      </trkpt>
      <trkpt lat="50.00244" lon="4.38341">
        <ele>292.2</ele>
        <time>2024-03-17T10:04:43Z</time>
      </trkpt>
      <trkpt lat="50.00244" lon="4.38328">
        <ele>291.6</ele>
        <time>2024-03-17T10:04:44Z</time>
      </trkpt>
      <trkpt lat="50.00244" lon="4.38315">
        <ele>291.2</ele>
        <time>2024-03-17T10:04:45Z</time>
      </trkpt>
      <trkpt lat="50.00244" lon="4.38302">
        <ele>290.8</ele>
        <time>2024-03-17T10:04:46Z</time>
      </trkpt>
      <trkpt lat="50.00245" lon="4.38289">
        <ele>290.4</ele>
        <time>2024-03-17T10:04:47Z</time>
      </trkpt>
      <trkpt lat="50.00247" lon="4.38276">
        <ele>289.4</ele>
        <time>2024-03-17T10:04:48Z</time>
      </trkpt>
      <trkpt lat="50.00249" lon="4.38264">
        <ele>288.4</ele>
        <time>2024-03-17T10:04:49Z</time>
      </trkpt>
      <trkpt lat="50.00252" lon="4.38252">
        <ele>287.6</ele>
        <time>2024-03-17T10:04:50Z</time>
      </trkpt>
      <trkpt lat="50.00256" lon="4.38242">
        <ele>287</ele>
        <time>2024-03-17T10:04:51Z</time>
      </trkpt>
      <trkpt lat="50.0026" lon="4.38233">
        <ele>286.4</ele>
        <time>2024-03-17T10:04:52Z</time>
      </trkpt>
      <trkpt lat="50.00264" lon="4.38225">
        <ele>286</ele>
        <time>2024-03-17T10:04:53Z</time>
      </trkpt>
      <trkpt lat="50.00269" lon="4.38218">
        <ele>285.8</ele>
        <time>2024-03-17T10:04:54Z</time>
      </trkpt>
      <trkpt lat="50.00273" lon="4.38213">
        <ele>285.6</ele>
        <time>2024-03-17T10:04:55Z</time>
      </trkpt>
      <trkpt lat="50.00278" lon="4.38209">
        <ele>285.8</ele>
        <time>2024-03-17T10:04:56Z</time>
      </trkpt>
      <trkpt lat="50.00283" lon="4.38205">
        <ele>285.8</ele>
        <time>2024-03-17T10:04:57Z</time>
      </trkpt>
      <trkpt lat="50.00287" lon="4.38202">
        <ele>285.6</ele>
        <time>2024-03-17T10:04:58Z</time>
      </trkpt>
      <trkpt lat="50.00291" lon="4.38199">
        <ele>285.6</ele>
        <time>2024-03-17T10:04:59Z</time>
      </trkpt>
      <trkpt lat="50.00295" lon="4.38195">
        <ele>285.6</ele>
        <time>2024-03-17T10:05:00Z</time>
      </trkpt>
      <trkpt lat="50.00299" lon="4.38193">
        <ele>285.6</ele>
        <time>2024-03-17T10:05:01Z</time>
      </trkpt>
      <trkpt lat="50.00303" lon="4.38189">
        <ele>285.8</ele>
        <time>2024-03-17T10:05:02Z</time>
      </trkpt>
      <trkpt lat="50.00307" lon="4.38186">
        <ele>286</ele>
        <time>2024-03-17T10:05:03Z</time>
      </trkpt>
      <trkpt lat="50.00311" lon="4.38183">
        <ele>286.2</ele>
        <time>2024-03-17T10:05:04Z</time>
      </trkpt>
      <trkpt lat="50.00315" lon="4.38181">
        <ele>286.6</ele>
        <time>2024-03-17T10:05:05Z</time>
      </trkpt>
      <trkpt lat="50.00318" lon="4.38178">
        <ele>287</ele>
        <time>2024-03-17T10:05:06Z</time>
      </trkpt>
      <trkpt lat="50.00321" lon="4.38176">
        <ele>287.6</ele>
        <time>2024-03-17T10:05:07Z</time>
      </trkpt>
      <trkpt lat="50.00325" lon="4.38172">
        <ele>288</ele>
        <time>2024-03-17T10:05:08Z</time>
      </trkpt>
      <trkpt lat="50.00328" lon="4.3817">
        <ele>288.6</ele>
        <time>2024-03-17T10:05:09Z</time>
      </trkpt>
      <trkpt lat="50.00331" lon="4.38167">
        <ele>288.8</ele>
        <time>2024-03-17T10:05:10Z</time>
      </trkpt>
      <trkpt lat="50.00334" lon="4.38164">
        <ele>289.2</ele>
        <time>2024-03-17T10:05:11Z</time>
      </trkpt>
      <trkpt lat="50.00338" lon="4.38161">
        <ele>289.8</ele>
        <time>2024-03-17T10:05:12Z</time>
      </trkpt>
      <trkpt lat="50.00342" lon="4.38159">
        <ele>290.2</ele>
        <time>2024-03-17T10:05:13Z</time>
      </trkpt>
      <trkpt lat="50.00346" lon="4.38157">
        <ele>290.2</ele>
        <time>2024-03-17T10:05:14Z</time>
      </trkpt>
      <trkpt lat="50.00349" lon="4.38154">
        <ele>290.4</ele>
        <time>2024-03-17T10:05:15Z</time>
      </trkpt>
      <trkpt lat="50.00353" lon="4.38152">
        <ele>291</ele>
        <time>2024-03-17T10:05:16Z</time>
      </trkpt>
      <trkpt lat="50.00356" lon="4.38149">
        <ele>291.2</ele>
        <time>2024-03-17T10:05:17Z</time>
      </trkpt>
      <trkpt lat="50.0036" lon="4.38147">
        <ele>291.4</ele>
        <time>2024-03-17T10:05:18Z</time>
      </trkpt>
      <trkpt lat="50.00363" lon="4.38144">
        <ele>291.8</ele>
        <time>2024-03-17T10:05:19Z</time>
      </trkpt>
      <trkpt lat="50.00367" lon="4.38142">
        <ele>292.2</ele>
        <time>2024-03-17T10:05:20Z</time>
      </trkpt>
      <trkpt lat="50.0037" lon="4.38139">
        <ele>292.4</ele>
        <time>2024-03-17T10:05:21Z</time>
      </trkpt>
      <trkpt lat="50.00374" lon="4.38137">
        <ele>292.6</ele>
        <time>2024-03-17T10:05:22Z</time>
      </trkpt>
      <trkpt lat="50.00377" lon="4.38134">
        <ele>293</ele>
        <time>2024-03-17T10:05:23Z</time>
      </trkpt>
      <trkpt lat="50.00381" lon="4.38132">
        <ele>293.2</ele>
        <time>2024-03-17T10:05:24Z</time>
      </trkpt>
      <trkpt lat="50.00384" lon="4.3813">
        <ele>293.6</ele>
        <time>2024-03-17T10:05:25Z</time>
      </trkpt>
      <trkpt lat="50.00387" lon="4.38127">
        <ele>293.8</ele>
        <time>2024-03-17T10:05:26Z</time>
      </trkpt>
      <trkpt lat="50.00391" lon="4.38125">
        <ele>294</ele>
        <time>2024-03-17T10:05:27Z</time>
      </trkpt>
      <trkpt lat="50.00394" lon="4.38122">
        <ele>294.4</ele>
        <time>2024-03-17T10:05:28Z</time>
      </trkpt>
      <trkpt lat="50.00398" lon="4.3812">
        <ele>294.8</ele>
        <time>2024-03-17T10:05:29Z</time>
      </trkpt>
      <trkpt lat="50.00401" lon="4.38118">
        <ele>294.8</ele>
        <time>2024-03-17T10:05:30Z</time>
      </trkpt>
      <trkpt lat="50.00404" lon="4.38116">
        <ele>295.2</ele>
        <time>2024-03-17T10:05:31Z</time>
      </trkpt>
      <trkpt lat="50.00408" lon="4.38114">
        <ele>295.6</ele>
        <time>2024-03-17T10:05:32Z</time>
      </trkpt>
      <trkpt lat="50.00411" lon="4.38111">
        <ele>295.6</ele>
        <time>2024-03-17T10:05:33Z</time>
      </trkpt>
      <trkpt lat="50.00414" lon="4.38109">
        <ele>295.8</ele>
        <time>2024-03-17T10:05:34Z</time>
      </trkpt>
      <trkpt lat="50.00418" lon="4.38107">
        <ele>296</ele>
        <time>2024-03-17T10:05:35Z</time>
      </trkpt>
      <trkpt lat="50.00421" lon="4.38105">
        <ele>296.2</ele>
        <time>2024-03-17T10:05:36Z</time>
      </trkpt>
      <trkpt lat="50.00424" lon="4.38102">
        <ele>296.4</ele>
        <time>2024-03-17T10:05:37Z</time>
      </trkpt>
      <trkpt lat="50.00427" lon="4.381">
        <ele>296.8</ele>
        <time>2024-03-17T10:05:38Z</time>
      </trkpt>
      <trkpt lat="50.0043" lon="4.38098">
        <ele>297</ele>
        <time>2024-03-17T10:05:39Z</time>
      </trkpt>
      <trkpt lat="50.00434" lon="4.38096">
        <ele>297.2</ele>
        <time>2024-03-17T10:05:40Z</time>
      </trkpt>
      <trkpt lat="50.00437" lon="4.38093">
        <ele>297.4</ele>
        <time>2024-03-17T10:05:41Z</time>
      </trkpt>
      <trkpt lat="50.0044" lon="4.38091">
        <ele>297.6</ele>
        <time>2024-03-17T10:05:42Z</time>
      </trkpt>
      <trkpt lat="50.00443" lon="4.38089">
        <ele>297.6</ele>
        <time>2024-03-17T10:05:43Z</time>
      </trkpt>
      <trkpt lat="50.00446" lon="4.38086">
        <ele>297.8</ele>
        <time>2024-03-17T10:05:44Z</time>
      </trkpt>
      <trkpt lat="50.00449" lon="4.38084">
        <ele>298.2</ele>
        <time>2024-03-17T10:05:45Z</time>
      </trkpt>
      <trkpt lat="50.00452" lon="4.38082">
        <ele>298.6</ele>
        <time>2024-03-17T10:05:46Z</time>
      </trkpt>
      <trkpt lat="50.00456" lon="4.3808">
        <ele>299</ele>
        <time>2024-03-17T10:05:47Z</time>
      </trkpt>
      <trkpt lat="50.00459" lon="4.38078">
        <ele>299.4</ele>
        <time>2024-03-17T10:05:48Z</time>
      </trkpt>
      <trkpt lat="50.00462" lon="4.38075">
        <ele>299.6</ele>
        <time>2024-03-17T10:05:49Z</time>
      </trkpt>
      <trkpt lat="50.00465" lon="4.38073">
        <ele>299.6</ele>
        <time>2024-03-17T10:05:50Z</time>
      </trkpt>
      <trkpt lat="50.00468" lon="4.38071">
        <ele>299.8</ele>
        <time>2024-03-17T10:05:51Z</time>
      </trkpt>
      <trkpt lat="50.00471" lon="4.38068">
        <ele>300.2</ele>
        <time>2024-03-17T10:05:52Z</time>
      </trkpt>
      <trkpt lat="50.00474" lon="4.38066">
        <ele>300.4</ele>
        <time>2024-03-17T10:05:53Z</time>
      </trkpt>
      <trkpt lat="50.00477" lon="4.38063">
        <ele>300.4</ele>
        <time>2024-03-17T10:05:54Z</time>
      </trkpt>
      <trkpt lat="50.0048" lon="4.3806">
        <ele>300.8</ele>
        <time>2024-03-17T10:05:55Z</time>
      </trkpt>
      <trkpt lat="50.00483" lon="4.38058">
        <ele>300.8</ele>
        <time>2024-03-17T10:05:56Z</time>
      </trkpt>
      <trkpt lat="50.00487" lon="4.38055">
        <ele>301</ele>
        <time>2024-03-17T10:05:57Z</time>
      </trkpt>
      <trkpt lat="50.0049" lon="4.38053">
        <ele>301.2</ele>
        <time>2024-03-17T10:05:58Z</time>
      </trkpt>
      <trkpt lat="50.00493" lon="4.3805">
        <ele>301.2</ele>
        <time>2024-03-17T10:05:59Z</time>
      </trkpt>
      <trkpt lat="50.00496" lon="4.38048">
        <ele>301.4</ele>
        <time>2024-03-17T10:06:00Z</time>
      </trkpt>
      <trkpt lat="50.00499" lon="4.38046">
        <ele>301.8</ele>
        <time>2024-03-17T10:06:01Z</time>
      </trkpt>
      <trkpt lat="50.00502" lon="4.38044">
        <ele>301.8</ele>
        <time>2024-03-17T10:06:02Z</time>
      </trkpt>
      <trkpt lat="50.00506" lon="4.38042">
        <ele>301.8</ele>
        <time>2024-03-17T10:06:03Z</time>
      </trkpt>
      <trkpt lat="50.0051" lon="4.3804">
        <ele>301.8</ele>
        <time>2024-03-17T10:06:04Z</time>
      </trkpt>
      <trkpt lat="50.00513" lon="4.38037">
        <ele>302</ele>
        <time>2024-03-17T10:06:05Z</time>
      </trkpt>
      <trkpt lat="50.00516" lon="4.38035">
        <ele>302</ele>
        <time>2024-03-17T10:06:06Z</time>
      </trkpt>
      <trkpt lat="50.0052" lon="4.38032">
        <ele>302.2</ele>
        <time>2024-03-17T10:06:07Z</time>
      </trkpt>
      <trkpt lat="50.00523" lon="4.3803">
        <ele>302.2</ele>
        <time>2024-03-17T10:06:08Z</time>
      </trkpt>
      <trkpt lat="50.00527" lon="4.38028">
        <ele>302.4</ele>
        <time>2024-03-17T10:06:09Z</time>
      </trkpt>
      <trkpt lat="50.0053" lon="4.38026">
        <ele>302.4</ele>
        <time>2024-03-17T10:06:10Z</time>
      </trkpt>
      <trkpt lat="50.00534" lon="4.38023">
        <ele>302.2</ele>
        <time>2024-03-17T10:06:11Z</time>
      </trkpt>
      <trkpt lat="50.00537" lon="4.3802">
        <ele>302.6</ele>
        <time>2024-03-17T10:06:12Z</time>
      </trkpt>
      <trkpt lat="50.0054" lon="4.38018">
        <ele>302.6</ele>
        <time>2024-03-17T10:06:13Z</time>
      </trkpt>
      <trkpt lat="50.00543" lon="4.38016">
        <ele>302.8</ele>
        <time>2024-03-17T10:06:14Z</time>
      </trkpt>
      <trkpt lat="50.00546" lon="4.38014">
        <ele>302.8</ele>
        <time>2024-03-17T10:06:15Z</time>
      </trkpt>
      <trkpt lat="50.00549" lon="4.38011">
        <ele>303</ele>
        <time>2024-03-17T10:06:16Z</time>
      </trkpt>
      <trkpt lat="50.00553" lon="4.38008">
        <ele>303.2</ele>
        <time>2024-03-17T10:06:17Z</time>
      </trkpt>
      <trkpt lat="50.00557" lon="4.38006">
        <ele>303.2</ele>
        <time>2024-03-17T10:06:18Z</time>
      </trkpt>
      <trkpt lat="50.0056" lon="4.38003">
        <ele>303.4</ele>
        <time>2024-03-17T10:06:19Z</time>
      </trkpt>
      <trkpt lat="50.00564" lon="4.38001">
        <ele>303.4</ele>
        <time>2024-03-17T10:06:20Z</time>
      </trkpt>
      <trkpt lat="50.00568" lon="4.37999">
        <ele>303.8</ele>
        <time>2024-03-17T10:06:21Z</time>
      </trkpt>
      <trkpt lat="50.00572" lon="4.37997">
        <ele>304</ele>
        <time>2024-03-17T10:06:22Z</time>
      </trkpt>
      <trkpt lat="50.00576" lon="4.37994">
        <ele>304.4</ele>
        <time>2024-03-17T10:06:23Z</time>
      </trkpt>
      <trkpt lat="50.00581" lon="4.37991">
        <ele>304.8</ele>
        <time>2024-03-17T10:06:24Z</time>
      </trkpt>
      <trkpt lat="50.00584" lon="4.37988">
        <ele>304.8</ele>
        <time>2024-03-17T10:06:25Z</time>
      </trkpt>
      <trkpt lat="50.00587" lon="4.37986">
        <ele>305</ele>
        <time>2024-03-17T10:06:26Z</time>
      </trkpt>
      <trkpt lat="50.00591" lon="4.37983">
        <ele>305.2</ele>
        <time>2024-03-17T10:06:27Z</time>
      </trkpt>
      <trkpt lat="50.00595" lon="4.3798">
        <ele>305.4</ele>
        <time>2024-03-17T10:06:28Z</time>
      </trkpt>
      <trkpt lat="50.00598" lon="4.37977">
        <ele>305.4</ele>
        <time>2024-03-17T10:06:29Z</time>
      </trkpt>
      <trkpt lat="50.00602" lon="4.37974">
        <ele>305.6</ele>
        <time>2024-03-17T10:06:30Z</time>
      </trkpt>
      <trkpt lat="50.00606" lon="4.3797">
        <ele>305.6</ele>
        <time>2024-03-17T10:06:31Z</time>
      </trkpt>
      <trkpt lat="50.0061" lon="4.37967">
        <ele>305.8</ele>
        <time>2024-03-17T10:06:32Z</time>
      </trkpt>
      <trkpt lat="50.00615" lon="4.37964">
        <ele>305.6</ele>
        <time>2024-03-17T10:06:33Z</time>
      </trkpt>
      <trkpt lat="50.0062" lon="4.37961">
        <ele>305.8</ele>
        <time>2024-03-17T10:06:34Z</time>
      </trkpt>
      <trkpt lat="50.00625" lon="4.37958">
        <ele>305.8</ele>
        <time>2024-03-17T10:06:35Z</time>
      </trkpt>
      <trkpt lat="50.0063" lon="4.37954">
        <ele>305.8</ele>
        <time>2024-03-17T10:06:36Z</time>
      </trkpt>
      <trkpt lat="50.00635" lon="4.37951">
        <ele>305.8</ele>
        <time>2024-03-17T10:06:37Z</time>
      </trkpt>
      <trkpt lat="50.00639" lon="4.37947">
        <ele>306</ele>
        <time>2024-03-17T10:06:38Z</time>
      </trkpt>
      <trkpt lat="50.00644" lon="4.37944">
        <ele>306</ele>
        <time>2024-03-17T10:06:39Z</time>
      </trkpt>
      <trkpt lat="50.00648" lon="4.37941">
        <ele>306.2</ele>
        <time>2024-03-17T10:06:40Z</time>
      </trkpt>
      <trkpt lat="50.00652" lon="4.37938">
        <ele>306.4</ele>
        <time>2024-03-17T10:06:41Z</time>
      </trkpt>
      <trkpt lat="50.00656" lon="4.37935">
        <ele>306.6</ele>
        <time>2024-03-17T10:06:42Z</time>
      </trkpt>
      <trkpt lat="50.00661" lon="4.37932">
        <ele>306.8</ele>
        <time>2024-03-17T10:06:43Z</time>
      </trkpt>
      <trkpt lat="50.00665" lon="4.37929">
        <ele>306.8</ele>
        <time>2024-03-17T10:06:44Z</time>
      </trkpt>
      <trkpt lat="50.00669" lon="4.37926">
        <ele>306.8</ele>
        <time>2024-03-17T10:06:45Z</time>
      </trkpt>
      <trkpt lat="50.00674" lon="4.37923">
        <ele>307</ele>
        <time>2024-03-17T10:06:46Z</time>
      </trkpt>
      <trkpt lat="50.00678" lon="4.37919">
        <ele>307.2</ele>
        <time>2024-03-17T10:06:47Z</time>
      </trkpt>
      <trkpt lat="50.00682" lon="4.37916">
        <ele>307.4</ele>
        <time>2024-03-17T10:06:48Z</time>
      </trkpt>
      <trkpt lat="50.00686" lon="4.37913">
        <ele>307.6</ele>
        <time>2024-03-17T10:06:49Z</time>
      </trkpt>
      <trkpt lat="50.0069" lon="4.37911">
        <ele>307.6</ele>
        <time>2024-03-17T10:06:50Z</time>
      </trkpt>
      <trkpt lat="50.00694" lon="4.37908">
        <ele>307.6</ele>
        <time>2024-03-17T10:06:51Z</time>
      </trkpt>
      <trkpt lat="50.00699" lon="4.37905">
        <ele>307.8</ele>
        <time>2024-03-17T10:06:52Z</time>
      </trkpt>
      <trkpt lat="50.00703" lon="4.37902">
        <ele>308</ele>
        <time>2024-03-17T10:06:53Z</time>
      </trkpt>
      <trkpt lat="50.00707" lon="4.37899">
        <ele>308.2</ele>
        <time>2024-03-17T10:06:54Z</time>
      </trkpt>
      <trkpt lat="50.00711" lon="4.37896">
        <ele>308.2</ele>
        <time>2024-03-17T10:06:55Z</time>
      </trkpt>
      <trkpt lat="50.00715" lon="4.37893">
        <ele>308.6</ele>
        <time>2024-03-17T10:06:56Z</time>
      </trkpt>
      <trkpt lat="50.00719" lon="4.3789">
        <ele>308.8</ele>
        <time>2024-03-17T10:06:57Z</time>
      </trkpt>
      <trkpt lat="50.00723" lon="4.37887">
        <ele>309.2</ele>
        <time>2024-03-17T10:06:58Z</time>
      </trkpt>
      <trkpt lat="50.00727" lon="4.37884">
        <ele>309.4</ele>
        <time>2024-03-17T10:06:59Z</time>
      </trkpt>
      <trkpt lat="50.00732" lon="4.37882">
        <ele>309.6</ele>
        <time>2024-03-17T10:07:00Z</time>
      </trkpt>
      <trkpt lat="50.00736" lon="4.37879">
        <ele>309.6</ele>
        <time>2024-03-17T10:07:01Z</time>
      </trkpt>
      <trkpt lat="50.0074" lon="4.37876">
        <ele>309.6</ele>
        <time>2024-03-17T10:07:02Z</time>
      </trkpt>
      <trkpt lat="50.00744" lon="4.37873">
        <ele>310</ele>
        <time>2024-03-17T10:07:03Z</time>
      </trkpt>
      <trkpt lat="50.00748" lon="4.3787">
        <ele>310.2</ele>
        <time>2024-03-17T10:07:04Z</time>
      </trkpt>
      <trkpt lat="50.00752" lon="4.37867">
        <ele>310.4</ele>
        <time>2024-03-17T10:07:05Z</time>
      </trkpt>
      <trkpt lat="50.00756" lon="4.37864">
        <ele>310.6</ele>
        <time>2024-03-17T10:07:06Z</time>
      </trkpt>
      <trkpt lat="50.0076" lon="4.37861">
        <ele>310.8</ele>
        <time>2024-03-17T10:07:07Z</time>
      </trkpt>
      <trkpt lat="50.00764" lon="4.37859">
        <ele>310.8</ele>
        <time>2024-03-17T10:07:08Z</time>
      </trkpt>
      <trkpt lat="50.00768" lon="4.37856">
        <ele>311</ele>
        <time>2024-03-17T10:07:09Z</time>
      </trkpt>
      <trkpt lat="50.00772" lon="4.37853">
        <ele>311.2</ele>
        <time>2024-03-17T10:07:10Z</time>
      </trkpt>
      <trkpt lat="50.00776" lon="4.3785">
        <ele>311.4</ele>
        <time>2024-03-17T10:07:11Z</time>
      </trkpt>
      <trkpt lat="50.0078" lon="4.37848">
        <ele>311.4</ele>
        <time>2024-03-17T10:07:12Z</time>
      </trkpt>
      <trkpt lat="50.00784" lon="4.37845">
        <ele>311.8</ele>
        <time>2024-03-17T10:07:13Z</time>
      </trkpt>
      <trkpt lat="50.00788" lon="4.37842">
        <ele>311.8</ele>
        <time>2024-03-17T10:07:14Z</time>
      </trkpt>
      <trkpt lat="50.00792" lon="4.37839">
        <ele>312</ele>
        <time>2024-03-17T10:07:15Z</time>
      </trkpt>
      <trkpt lat="50.00797" lon="4.37836">
        <ele>312.2</ele>
        <time>2024-03-17T10:07:16Z</time>
      </trkpt>
      <trkpt lat="50.00801" lon="4.37834">
        <ele>312.2</ele>
        <time>2024-03-17T10:07:17Z</time>
      </trkpt>
      <trkpt lat="50.00805" lon="4.37831">
        <ele>312.4</ele>
        <time>2024-03-17T10:07:18Z</time>
      </trkpt>
      <trkpt lat="50.00809" lon="4.37828">
        <ele>312.6</ele>
        <time>2024-03-17T10:07:19Z</time>
      </trkpt>
      <trkpt lat="50.00813" lon="4.37825">
        <ele>312.8</ele>
        <time>2024-03-17T10:07:20Z</time>
      </trkpt>
      <trkpt lat="50.00817" lon="4.37822">
        <ele>312.8</ele>
        <time>2024-03-17T10:07:21Z</time>
      </trkpt>
      <trkpt lat="50.00821" lon="4.37819">
        <ele>313</ele>
        <time>2024-03-17T10:07:22Z</time>
      </trkpt>
      <trkpt lat="50.00825" lon="4.37816">
        <ele>313</ele>
        <time>2024-03-17T10:07:23Z</time>
      </trkpt>
      <trkpt lat="50.0083" lon="4.37813">
        <ele>313.2</ele>
        <time>2024-03-17T10:07:24Z</time>
      </trkpt>
      <trkpt lat="50.00834" lon="4.3781">
        <ele>313.4</ele>
        <time>2024-03-17T10:07:25Z</time>
      </trkpt>
      <trkpt lat="50.00838" lon="4.37807">
        <ele>313.4</ele>
        <time>2024-03-17T10:07:26Z</time>
      </trkpt>
      <trkpt lat="50.00842" lon="4.37804">
        <ele>313.6</ele>
        <time>2024-03-17T10:07:27Z</time>
      </trkpt>
      <trkpt lat="50.00846" lon="4.37801">
        <ele>313.6</ele>
        <time>2024-03-17T10:07:28Z</time>
      </trkpt>
      <trkpt lat="50.0085" lon="4.37798">
        <ele>313.8</ele>
        <time>2024-03-17T10:07:29Z</time>
      </trkpt>
      <trkpt lat="50.00854" lon="4.37795">
        <ele>314</ele>
        <time>2024-03-17T10:07:30Z</time>
      </trkpt>
      <trkpt lat="50.00858" lon="4.37792">
        <ele>314</ele>
        <time>2024-03-17T10:07:31Z</time>
      </trkpt>
      <trkpt lat="50.00862" lon="4.37789">
        <ele>314.2</ele>
        <time>2024-03-17T10:07:32Z</time>
      </trkpt>
      <trkpt lat="50.00866" lon="4.37786">
        <ele>314.6</ele>
        <time>2024-03-17T10:07:33Z</time>
      </trkpt>
      <trkpt lat="50.0087" lon="4.37783">
        <ele>314.8</ele>
        <time>2024-03-17T10:07:34Z</time>
      </trkpt>
      <trkpt lat="50.00874" lon="4.3778">
        <ele>314.8</ele>
        <time>2024-03-17T10:07:35Z</time>
      </trkpt>
      <trkpt lat="50.00879" lon="4.37777">
        <ele>315</ele>
        <time>2024-03-17T10:07:36Z</time>
      </trkpt>
      <trkpt lat="50.00883" lon="4.37774">
        <ele>315.2</ele>
        <time>2024-03-17T10:07:37Z</time>
      </trkpt>
      <trkpt lat="50.00887" lon="4.37771">
        <ele>315.2</ele>
        <time>2024-03-17T10:07:38Z</time>
      </trkpt>
      <trkpt lat="50.00891" lon="4.37768">
        <ele>315.4</ele>
        <time>2024-03-17T10:07:39Z</time>
      </trkpt>
      <trkpt lat="50.00895" lon="4.37765">
        <ele>315.4</ele>
        <time>2024-03-17T10:07:40Z</time>
      </trkpt>
      <trkpt lat="50.00899" lon="4.37762">
        <ele>315.6</ele>
        <time>2024-03-17T10:07:41Z</time>
      </trkpt>
      <trkpt lat="50.00903" lon="4.37759">
        <ele>315.8</ele>
        <time>2024-03-17T10:07:42Z</time>
      </trkpt>
      <trkpt lat="50.00907" lon="4.37757">
        <ele>315.8</ele>
        <time>2024-03-17T10:07:43Z</time>
      </trkpt>
      <trkpt lat="50.00911" lon="4.37754">
        <ele>316</ele>
        <time>2024-03-17T10:07:44Z</time>
      </trkpt>
      <trkpt lat="50.00915" lon="4.37751">
        <ele>316.2</ele>
        <time>2024-03-17T10:07:45Z</time>
      </trkpt>
      <trkpt lat="50.0092" lon="4.37748">
        <ele>316.2</ele>
        <time>2024-03-17T10:07:46Z</time>
      </trkpt>
      <trkpt lat="50.00924" lon="4.37745">
        <ele>316.2</ele>
        <time>2024-03-17T10:07:47Z</time>
      </trkpt>
      <trkpt lat="50.00928" lon="4.37742">
        <ele>316.2</ele>
        <time>2024-03-17T10:07:48Z</time>
      </trkpt>
      <trkpt lat="50.00932" lon="4.37739">
        <ele>316.2</ele>
        <time>2024-03-17T10:07:49Z</time>
      </trkpt>
      <trkpt lat="50.00936" lon="4.37736">
        <ele>316.4</ele>
        <time>2024-03-17T10:07:50Z</time>
      </trkpt>
      <trkpt lat="50.0094" lon="4.37733">
        <ele>316.4</ele>
        <time>2024-03-17T10:07:51Z</time>
      </trkpt>
      <trkpt lat="50.00945" lon="4.3773">
        <ele>316.6</ele>
        <time>2024-03-17T10:07:52Z</time>
      </trkpt>
      <trkpt lat="50.00949" lon="4.37727">
        <ele>316.8</ele>
        <time>2024-03-17T10:07:53Z</time>
      </trkpt>
      <trkpt lat="50.00953" lon="4.37724">
        <ele>316.8</ele>
        <time>2024-03-17T10:07:54Z</time>
      </trkpt>
      <trkpt lat="50.00957" lon="4.37721">
        <ele>317</ele>
        <time>2024-03-17T10:07:55Z</time>
      </trkpt>
      <trkpt lat="50.00961" lon="4.37718">
        <ele>317</ele>
        <time>2024-03-17T10:07:56Z</time>
      </trkpt>
      <trkpt lat="50.00965" lon="4.37715">
        <ele>317</ele>
        <time>2024-03-17T10:07:57Z</time>
      </trkpt>
      <trkpt lat="50.00969" lon="4.37712">
        <ele>317.2</ele>
        <time>2024-03-17T10:07:58Z</time>
      </trkpt>
      <trkpt lat="50.00973" lon="4.37709">
        <ele>317.2</ele>
        <time>2024-03-17T10:07:59Z</time>
      </trkpt>
      <trkpt lat="50.00977" lon="4.37706">
        <ele>317.2</ele>
        <time>2024-03-17T10:08:00Z</time>
      </trkpt>
      <trkpt lat="50.00981" lon="4.37703">
        <ele>317.4</ele>
        <time>2024-03-17T10:08:01Z</time>
      </trkpt>
      <trkpt lat="50.00985" lon="4.377">
        <ele>317.2</ele>
        <time>2024-03-17T10:08:02Z</time>
      </trkpt>
      <trkpt lat="50.00989" lon="4.37697">
        <ele>317.4</ele>
        <time>2024-03-17T10:08:03Z</time>
      </trkpt>
      <trkpt lat="50.00994" lon="4.37694">
        <ele>317.4</ele>
        <time>2024-03-17T10:08:04Z</time>
      </trkpt>
      <trkpt lat="50.00998" lon="4.37691">
        <ele>317.6</ele>
        <time>2024-03-17T10:08:05Z</time>
      </trkpt>
      <trkpt lat="50.01002" lon="4.37688">
        <ele>317.8</ele>
        <time>2024-03-17T10:08:06Z</time>
      </trkpt>
      <trkpt lat="50.01007" lon="4.37685">
        <ele>317.8</ele>
        <time>2024-03-17T10:08:07Z</time>
      </trkpt>
      <trkpt lat="50.01011" lon="4.37682">
        <ele>318.2</ele>
        <time>2024-03-17T10:08:08Z</time>
      </trkpt>
      <trkpt lat="50.01015" lon="4.37679">
        <ele>318.8</ele>
        <time>2024-03-17T10:08:09Z</time>
      </trkpt>
      <trkpt lat="50.0102" lon="4.37676">
        <ele>319</ele>
        <time>2024-03-17T10:08:10Z</time>
      </trkpt>
      <trkpt lat="50.01024" lon="4.37673">
        <ele>319.2</ele>
        <time>2024-03-17T10:08:11Z</time>
      </trkpt>
      <trkpt lat="50.01029" lon="4.3767">
        <ele>319.4</ele>
        <time>2024-03-17T10:08:12Z</time>
      </trkpt>
      <trkpt lat="50.01033" lon="4.37667">
        <ele>319.8</ele>
        <time>2024-03-17T10:08:13Z</time>
      </trkpt>
      <trkpt lat="50.01038" lon="4.37664">
        <ele>320.2</ele>
        <time>2024-03-17T10:08:14Z</time>
      </trkpt>
      <trkpt lat="50.01042" lon="4.37661">
        <ele>320.4</ele>
        <time>2024-03-17T10:08:15Z</time>
      </trkpt>
      <trkpt lat="50.01047" lon="4.37657">
        <ele>320.4</ele>
        <time>2024-03-17T10:08:16Z</time>
      </trkpt>
      <trkpt lat="50.01051" lon="4.37654">
        <ele>320.6</ele>
        <time>2024-03-17T10:08:17Z</time>
      </trkpt>
      <trkpt lat="50.01056" lon="4.37651">
        <ele>320.8</ele>
        <time>2024-03-17T10:08:18Z</time>
      </trkpt>
      <trkpt lat="50.0106" lon="4.37648">
        <ele>320.8</ele>
        <time>2024-03-17T10:08:19Z</time>
      </trkpt>
      <trkpt lat="50.01064" lon="4.37645">
        <ele>320.8</ele>
        <time>2024-03-17T10:08:20Z</time>
      </trkpt>
      <trkpt lat="50.01069" lon="4.37641">
        <ele>321</ele>
        <time>2024-03-17T10:08:21Z</time>
      </trkpt>
      <trkpt lat="50.01073" lon="4.37638">
        <ele>321.2</ele>
        <time>2024-03-17T10:08:22Z</time>
      </trkpt>
      <trkpt lat="50.01078" lon="4.37634">
        <ele>321.4</ele>
        <time>2024-03-17T10:08:23Z</time>
      </trkpt>
      <trkpt lat="50.01082" lon="4.37631">
        <ele>321.6</ele>
        <time>2024-03-17T10:08:24Z</time>
      </trkpt>
      <trkpt lat="50.01087" lon="4.37628">
        <ele>322</ele>
        <time>2024-03-17T10:08:25Z</time>
      </trkpt>
      <trkpt lat="50.01091" lon="4.37624">
        <ele>322</ele>
        <time>2024-03-17T10:08:26Z</time>
      </trkpt>
      <trkpt lat="50.01096" lon="4.37621">
        <ele>322.2</ele>
        <time>2024-03-17T10:08:27Z</time>
      </trkpt>
      <trkpt lat="50.01101" lon="4.37617">
        <ele>322.2</ele>
        <time>2024-03-17T10:08:28Z</time>
      </trkpt>
      <trkpt lat="50.01106" lon="4.37614">
        <ele>322.4</ele>
        <time>2024-03-17T10:08:29Z</time>
      </trkpt>
      <trkpt lat="50.01111" lon="4.3761">
        <ele>322.2</ele>
        <time>2024-03-17T10:08:30Z</time>
      </trkpt>
      <trkpt lat="50.01116" lon="4.37607">
        <ele>322.6</ele>
        <time>2024-03-17T10:08:31Z</time>
      </trkpt>
      <trkpt lat="50.01121" lon="4.37604">
        <ele>322.8</ele>
        <time>2024-03-17T10:08:32Z</time>
      </trkpt>
      <trkpt lat="50.01126" lon="4.376">
        <ele>322.8</ele>
        <time>2024-03-17T10:08:33Z</time>
      </trkpt>
      <trkpt lat="50.01131" lon="4.37597">
        <ele>323</ele>
        <time>2024-03-17T10:08:34Z</time>
      </trkpt>
      <trkpt lat="50.01136" lon="4.37593">
        <ele>323.2</ele>
        <time>2024-03-17T10:08:35Z</time>
      </trkpt>
      <trkpt lat="50.01141" lon="4.37589">
        <ele>323.2</ele>
        <time>2024-03-17T10:08:36Z</time>
      </trkpt>
      <trkpt lat="50.01147" lon="4.37586">
        <ele>323.2</ele>
        <time>2024-03-17T10:08:37Z</time>
      </trkpt>
      <trkpt lat="50.01152" lon="4.37582">
        <ele>323.2</ele>
        <time>2024-03-17T10:08:38Z</time>
      </trkpt>
      <trkpt lat="50.01157" lon="4.37578">
        <ele>323.4</ele>
        <time>2024-03-17T10:08:39Z</time>
      </trkpt>
      <trkpt lat="50.01162" lon="4.37575">
        <ele>323.6</ele>
        <time>2024-03-17T10:08:40Z</time>
      </trkpt>
      <trkpt lat="50.01167" lon="4.37571">
        <ele>323.6</ele>
        <time>2024-03-17T10:08:41Z</time>
      </trkpt>
      <trkpt lat="50.01173" lon="4.37566">
        <ele>323.8</ele>
        <time>2024-03-17T10:08:42Z</time>
      </trkpt>
      <trkpt lat="50.01178" lon="4.37562">
        <ele>323.6</ele>
        <time>2024-03-17T10:08:43Z</time>
      </trkpt>
      <trkpt lat="50.01184" lon="4.37558">
        <ele>323.6</ele>
        <time>2024-03-17T10:08:44Z</time>
      </trkpt>
      <trkpt lat="50.0119" lon="4.37554">
        <ele>323.6</ele>
        <time>2024-03-17T10:08:45Z</time>
      </trkpt>
      <trkpt lat="50.01195" lon="4.3755">
        <ele>323.8</ele>
        <time>2024-03-17T10:08:46Z</time>
      </trkpt>
      <trkpt lat="50.01201" lon="4.37546">
        <ele>323.8</ele>
        <time>2024-03-17T10:08:47Z</time>
      </trkpt>
      <trkpt lat="50.01207" lon="4.37542">
        <ele>323.8</ele>
        <time>2024-03-17T10:08:48Z</time>
      </trkpt>
      <trkpt lat="50.01214" lon="4.37537">
        <ele>323.8</ele>
        <time>2024-03-17T10:08:49Z</time>
      </trkpt>
      <trkpt lat="50.0122" lon="4.37533">
        <ele>323.6</ele>
        <time>2024-03-17T10:08:50Z</time>
      </trkpt>
      <trkpt lat="50.01227" lon="4.37528">
        <ele>323.4</ele>
        <time>2024-03-17T10:08:51Z</time>
      </trkpt>
      <trkpt lat="50.01234" lon="4.37523">
        <ele>323.2</ele>
        <time>2024-03-17T10:08:52Z</time>
      </trkpt>
      <trkpt lat="50.01241" lon="4.37518">
        <ele>323</ele>
        <time>2024-03-17T10:08:53Z</time>
      </trkpt>
      <trkpt lat="50.01249" lon="4.37513">
        <ele>323</ele>
        <time>2024-03-17T10:08:54Z</time>
      </trkpt>
      <trkpt lat="50.01256" lon="4.37507">
        <ele>322.8</ele>
        <time>2024-03-17T10:08:55Z</time>
      </trkpt>
      <trkpt lat="50.01264" lon="4.37502">
        <ele>322.6</ele>
        <time>2024-03-17T10:08:56Z</time>
      </trkpt>
      <trkpt lat="50.01271" lon="4.37496">
        <ele>322.4</ele>
        <time>2024-03-17T10:08:57Z</time>
      </trkpt>
      <trkpt lat="50.01279" lon="4.3749">
        <ele>322.4</ele>
        <time>2024-03-17T10:08:58Z</time>
      </trkpt>
      <trkpt lat="50.01287" lon="4.37484">
        <ele>322.2</ele>
        <time>2024-03-17T10:08:59Z</time>
      </trkpt>
      <trkpt lat="50.01295" lon="4.37478">
        <ele>322.2</ele>
        <time>2024-03-17T10:09:00Z</time>
      </trkpt>
      <trkpt lat="50.01304" lon="4.37472">
        <ele>321.6</ele>
        <time>2024-03-17T10:09:01Z</time>
      </trkpt>
      <trkpt lat="50.01313" lon="4.37466">
        <ele>321.2</ele>
        <time>2024-03-17T10:09:02Z</time>
      </trkpt>
      <trkpt lat="50.01322" lon="4.3746">
        <ele>320.6</ele>
        <time>2024-03-17T10:09:03Z</time>
      </trkpt>
      <trkpt lat="50.01331" lon="4.37453">
        <ele>320</ele>
        <time>2024-03-17T10:09:04Z</time>
      </trkpt>
      <trkpt lat="50.01339" lon="4.37447">
        <ele>319.6</ele>
        <time>2024-03-17T10:09:05Z</time>
      </trkpt>
      <trkpt lat="50.01348" lon="4.3744">
        <ele>318.8</ele>
        <time>2024-03-17T10:09:06Z</time>
      </trkpt>
      <trkpt lat="50.01357" lon="4.37434">
        <ele>318.4</ele>
        <time>2024-03-17T10:09:07Z</time>
      </trkpt>
      <trkpt lat="50.01367" lon="4.37428">
        <ele>318</ele>
        <time>2024-03-17T10:09:08Z</time>
      </trkpt>
      <trkpt lat="50.01376" lon="4.37421">
        <ele>317.2</ele>
        <time>2024-03-17T10:09:09Z</time>
      </trkpt>
      <trkpt lat="50.01385" lon="4.37414">
        <ele>316.6</ele>
        <time>2024-03-17T10:09:10Z</time>
      </trkpt>
      <trkpt lat="50.01395" lon="4.37408">
        <ele>316</ele>
        <time>2024-03-17T10:09:11Z</time>
      </trkpt>
      <trkpt lat="50.01404" lon="4.37401">
        <ele>316</ele>
        <time>2024-03-17T10:09:12Z</time>
      </trkpt>
      <trkpt lat="50.01414" lon="4.37395">
        <ele>314.8</ele>
        <time>2024-03-17T10:09:13Z</time>
      </trkpt>
      <trkpt lat="50.01423" lon="4.37388">
        <ele>313.8</ele>
        <time>2024-03-17T10:09:14Z</time>
      </trkpt>
      <trkpt lat="50.01433" lon="4.37382">
        <ele>312.8</ele>
        <time>2024-03-17T10:09:15Z</time>
      </trkpt>
      <trkpt lat="50.01443" lon="4.37375">
        <ele>312</ele>
        <time>2024-03-17T10:09:16Z</time>
      </trkpt>
      <trkpt lat="50.01452" lon="4.37368">
        <ele>311.6</ele>
        <time>2024-03-17T10:09:17Z</time>
      </trkpt>
      <trkpt lat="50.01462" lon="4.3736">
        <ele>311</ele>
        <time>2024-03-17T10:09:18Z</time>
      </trkpt>
      <trkpt lat="50.01472" lon="4.37353">
        <ele>310.4</ele>
        <time>2024-03-17T10:09:19Z</time>
      </trkpt>
      <trkpt lat="50.01482" lon="4.37345">
        <ele>310.2</ele>
        <time>2024-03-17T10:09:20Z</time>
      </trkpt>
      <trkpt lat="50.01492" lon="4.37338">
        <ele>309.8</ele>
        <time>2024-03-17T10:09:21Z</time>
      </trkpt>
      <trkpt lat="50.01502" lon="4.37331">
        <ele>309.2</ele>
        <time>2024-03-17T10:09:22Z</time>
      </trkpt>
      <trkpt lat="50.01512" lon="4.37324">
        <ele>308.8</ele>
        <time>2024-03-17T10:09:23Z</time>
      </trkpt>
      <trkpt lat="50.01522" lon="4.37317">
        <ele>308.2</ele>
        <time>2024-03-17T10:09:24Z</time>
      </trkpt>
      <trkpt lat="50.01532" lon="4.3731">
        <ele>307.6</ele>
        <time>2024-03-17T10:09:25Z</time>
      </trkpt>
      <trkpt lat="50.01542" lon="4.37302">
        <ele>306.8</ele>
        <time>2024-03-17T10:09:26Z</time>
      </trkpt>
      <trkpt lat="50.01552" lon="4.37295">
        <ele>306</ele>
        <time>2024-03-17T10:09:27Z</time>
      </trkpt>
      <trkpt lat="50.01562" lon="4.37288">
        <ele>306</ele>
        <time>2024-03-17T10:09:28Z</time>
      </trkpt>
      <trkpt lat="50.01572" lon="4.37281">
        <ele>304.6</ele>
        <time>2024-03-17T10:09:29Z</time>
      </trkpt>
      <trkpt lat="50.01582" lon="4.37275">
        <ele>303.4</ele>
        <time>2024-03-17T10:09:30Z</time>
      </trkpt>
      <trkpt lat="50.01591" lon="4.37268">
        <ele>302.6</ele>
        <time>2024-03-17T10:09:31Z</time>
      </trkpt>
      <trkpt lat="50.016" lon="4.37262">
        <ele>302</ele>
        <time>2024-03-17T10:09:32Z</time>
      </trkpt>
      <trkpt lat="50.01609" lon="4.37256">
        <ele>301.4</ele>
        <time>2024-03-17T10:09:33Z</time>
      </trkpt>
      <trkpt lat="50.01618" lon="4.37252">
        <ele>301</ele>
        <time>2024-03-17T10:09:34Z</time>
      </trkpt>
      <trkpt lat="50.01627" lon="4.37247">
        <ele>300.8</ele>
        <time>2024-03-17T10:09:35Z</time>
      </trkpt>
      <trkpt lat="50.01636" lon="4.37244">
        <ele>300.6</ele>
        <time>2024-03-17T10:09:36Z</time>
      </trkpt>
      <trkpt lat="50.01645" lon="4.37241">
        <ele>300.6</ele>
        <time>2024-03-17T10:09:37Z</time>
      </trkpt>
      <trkpt lat="50.01654" lon="4.37239">
        <ele>300.4</ele>
        <time>2024-03-17T10:09:38Z</time>
      </trkpt>
      <trkpt lat="50.01664" lon="4.37238">
        <ele>300.6</ele>
        <time>2024-03-17T10:09:39Z</time>
      </trkpt>
      <trkpt lat="50.01673" lon="4.37236">
        <ele>300.6</ele>
        <time>2024-03-17T10:09:40Z</time>
      </trkpt>
      <trkpt lat="50.01682" lon="4.37235">
        <ele>300.6</ele>
        <time>2024-03-17T10:09:41Z</time>
      </trkpt>
      <trkpt lat="50.0169" lon="4.37234">
        <ele>300.6</ele>
        <time>2024-03-17T10:09:42Z</time>
      </trkpt>
      <trkpt lat="50.01699" lon="4.37233">
        <ele>300.6</ele>
        <time>2024-03-17T10:09:43Z</time>
      </trkpt>
      <trkpt lat="50.01708" lon="4.37232">
        <ele>300.6</ele>
        <time>2024-03-17T10:09:44Z</time>
      </trkpt>
      <trkpt lat="50.01716" lon="4.37232">
        <ele>300.6</ele>
        <time>2024-03-17T10:09:45Z</time>
      </trkpt>
      <trkpt lat="50.01725" lon="4.37231">
        <ele>300.6</ele>
        <time>2024-03-17T10:09:46Z</time>
      </trkpt>
      <trkpt lat="50.01733" lon="4.3723">
        <ele>300.6</ele>
        <time>2024-03-17T10:09:47Z</time>
      </trkpt>
      <trkpt lat="50.01742" lon="4.3723">
        <ele>300.8</ele>
        <time>2024-03-17T10:09:48Z</time>
      </trkpt>
      <trkpt lat="50.0175" lon="4.37229">
        <ele>300.8</ele>
        <time>2024-03-17T10:09:49Z</time>
      </trkpt>
      <trkpt lat="50.01759" lon="4.37229">
        <ele>300.8</ele>
        <time>2024-03-17T10:09:50Z</time>
      </trkpt>
      <trkpt lat="50.01767" lon="4.37228">
        <ele>301</ele>
        <time>2024-03-17T10:09:51Z</time>
      </trkpt>
      <trkpt lat="50.01776" lon="4.37228">
        <ele>301</ele>
        <time>2024-03-17T10:09:52Z</time>
      </trkpt>
      <trkpt lat="50.01784" lon="4.37227">
        <ele>301</ele>
        <time>2024-03-17T10:09:53Z</time>
      </trkpt>
      <trkpt lat="50.01793" lon="4.37227">
        <ele>301</ele>
        <time>2024-03-17T10:09:54Z</time>
      </trkpt>
      <trkpt lat="50.01801" lon="4.37226">
        <ele>301</ele>
        <time>2024-03-17T10:09:55Z</time>
      </trkpt>
      <trkpt lat="50.0181" lon="4.37226">
        <ele>301.2</ele>
        <time>2024-03-17T10:09:56Z</time>
      </trkpt>
      <trkpt lat="50.01818" lon="4.37225">
        <ele>301.2</ele>
        <time>2024-03-17T10:09:57Z</time>
      </trkpt>
      <trkpt lat="50.01826" lon="4.37224">
        <ele>301.2</ele>
        <time>2024-03-17T10:09:58Z</time>
      </trkpt>
      <trkpt lat="50.01834" lon="4.37224">
        <ele>301.2</ele>
        <time>2024-03-17T10:09:59Z</time>
      </trkpt>
      <trkpt lat="50.01842" lon="4.37223">
        <ele>301.4</ele>
        <time>2024-03-17T10:10:00Z</time>
      </trkpt>
      <trkpt lat="50.0185" lon="4.37222">
        <ele>301.2</ele>
        <time>2024-03-17T10:10:01Z</time>
      </trkpt>
      <trkpt lat="50.01858" lon="4.37221">
        <ele>301.4</ele>
        <time>2024-03-17T10:10:02Z</time>
      </trkpt>
      <trkpt lat="50.01866" lon="4.37221">
        <ele>301.4</ele>
        <time>2024-03-17T10:10:03Z</time>
      </trkpt>
      <trkpt lat="50.01873" lon="4.3722">
        <ele>301.4</ele>
        <time>2024-03-17T10:10:04Z</time>
      </trkpt>
      <trkpt lat="50.01881" lon="4.37219">
        <ele>301.4</ele>
        <time>2024-03-17T10:10:05Z</time>
      </trkpt>
      <trkpt lat="50.01888" lon="4.37219">
        <ele>301.4</ele>
        <time>2024-03-17T10:10:06Z</time>
      </trkpt>
      <trkpt lat="50.01895" lon="4.37218">
        <ele>301.6</ele>
        <time>2024-03-17T10:10:07Z</time>
      </trkpt>
      <trkpt lat="50.01903" lon="4.37218">
        <ele>301.4</ele>
        <time>2024-03-17T10:10:08Z</time>
      </trkpt>
      <trkpt lat="50.0191" lon="4.37218">
        <ele>301.6</ele>
        <time>2024-03-17T10:10:09Z</time>
      </trkpt>
      <trkpt lat="50.01917" lon="4.37217">
        <ele>301.6</ele>
        <time>2024-03-17T10:10:10Z</time>
      </trkpt>
      <trkpt lat="50.01924" lon="4.37217">
        <ele>301.8</ele>
        <time>2024-03-17T10:10:11Z</time>
      </trkpt>
      <trkpt lat="50.01932" lon="4.37217">
        <ele>302</ele>
        <time>2024-03-17T10:10:12Z</time>
      </trkpt>
      <trkpt lat="50.0194" lon="4.37217">
        <ele>302.2</ele>
        <time>2024-03-17T10:10:13Z</time>
      </trkpt>
      <trkpt lat="50.01947" lon="4.37218">
        <ele>302.6</ele>
        <time>2024-03-17T10:10:14Z</time>
      </trkpt>
      <trkpt lat="50.01956" lon="4.37219">
        <ele>302.8</ele>
        <time>2024-03-17T10:10:15Z</time>
      </trkpt>
      <trkpt lat="50.01964" lon="4.37221">
        <ele>303.2</ele>
        <time>2024-03-17T10:10:16Z</time>
      </trkpt>
      <trkpt lat="50.01972" lon="4.37223">
        <ele>303.4</ele>
        <time>2024-03-17T10:10:17Z</time>
      </trkpt>
      <trkpt lat="50.0198" lon="4.37226">
        <ele>303.6</ele>
        <time>2024-03-17T10:10:18Z</time>
      </trkpt>
      <trkpt lat="50.01987" lon="4.3723">
        <ele>303.8</ele>
        <time>2024-03-17T10:10:19Z</time>
      </trkpt>
      <trkpt lat="50.01994" lon="4.37235">
        <ele>303.8</ele>
        <time>2024-03-17T10:10:20Z</time>
      </trkpt>
      <trkpt lat="50.02001" lon="4.3724">
        <ele>303.8</ele>
        <time>2024-03-17T10:10:21Z</time>
      </trkpt>
      <trkpt lat="50.02008" lon="4.37246">
        <ele>304</ele>
        <time>2024-03-17T10:10:22Z</time>
      </trkpt>
      <trkpt lat="50.02015" lon="4.37252">
        <ele>304.2</ele>
        <time>2024-03-17T10:10:23Z</time>
      </trkpt>
      <trkpt lat="50.02021" lon="4.37258">
        <ele>304.4</ele>
        <time>2024-03-17T10:10:24Z</time>
      </trkpt>
      <trkpt lat="50.02028" lon="4.37265">
        <ele>304.4</ele>
        <time>2024-03-17T10:10:25Z</time>
      </trkpt>
      <trkpt lat="50.02034" lon="4.37271">
        <ele>304.4</ele>
        <time>2024-03-17T10:10:26Z</time>
      </trkpt>
      <trkpt lat="50.02041" lon="4.37277">
        <ele>304.8</ele>
        <time>2024-03-17T10:10:27Z</time>
      </trkpt>
      <trkpt lat="50.02047" lon="4.37283">
        <ele>305</ele>
        <time>2024-03-17T10:10:28Z</time>
      </trkpt>
      <trkpt lat="50.02053" lon="4.3729">
        <ele>305</ele>
        <time>2024-03-17T10:10:29Z</time>
      </trkpt>
      <trkpt lat="50.0206" lon="4.37295">
        <ele>305.4</ele>
        <time>2024-03-17T10:10:30Z</time>
      </trkpt>
      <trkpt lat="50.02066" lon="4.37301">
        <ele>305.6</ele>
        <time>2024-03-17T10:10:31Z</time>
      </trkpt>
      <trkpt lat="50.02073" lon="4.37307">
        <ele>305.6</ele>
        <time>2024-03-17T10:10:32Z</time>
      </trkpt>
      <trkpt lat="50.0208" lon="4.37312">
        <ele>305.8</ele>
        <time>2024-03-17T10:10:33Z</time>
      </trkpt>
      <trkpt lat="50.02087" lon="4.37317">
        <ele>305.8</ele>
        <time>2024-03-17T10:10:34Z</time>
      </trkpt>
      <trkpt lat="50.02094" lon="4.37322">
        <ele>306</ele>
        <time>2024-03-17T10:10:35Z</time>
      </trkpt>
      <trkpt lat="50.02101" lon="4.37326">
        <ele>306</ele>
        <time>2024-03-17T10:10:36Z</time>
      </trkpt>
      <trkpt lat="50.02108" lon="4.37331">
        <ele>306.2</ele>
        <time>2024-03-17T10:10:37Z</time>
      </trkpt>
      <trkpt lat="50.02116" lon="4.37335">
        <ele>306.2</ele>
        <time>2024-03-17T10:10:38Z</time>
      </trkpt>
      <trkpt lat="50.02123" lon="4.37338">
        <ele>306.2</ele>
        <time>2024-03-17T10:10:39Z</time>
      </trkpt>
      <trkpt lat="50.02131" lon="4.37342">
        <ele>306.4</ele>
        <time>2024-03-17T10:10:40Z</time>
      </trkpt>
      <trkpt lat="50.02139" lon="4.37345">
        <ele>306.2</ele>
        <time>2024-03-17T10:10:41Z</time>
      </trkpt>
      <trkpt lat="50.02146" lon="4.37348">
        <ele>306.4</ele>
        <time>2024-03-17T10:10:42Z</time>
      </trkpt>
      <trkpt lat="50.02154" lon="4.37351">
        <ele>306.2</ele>
        <time>2024-03-17T10:10:43Z</time>
      </trkpt>
      <trkpt lat="50.02162" lon="4.37354">
        <ele>306.2</ele>
        <time>2024-03-17T10:10:44Z</time>
      </trkpt>
      <trkpt lat="50.0217" lon="4.37357">
        <ele>306.2</ele>
        <time>2024-03-17T10:10:45Z</time>
      </trkpt>
      <trkpt lat="50.02178" lon="4.3736">
        <ele>306.4</ele>
        <time>2024-03-17T10:10:46Z</time>
      </trkpt>
      <trkpt lat="50.02186" lon="4.37364">
        <ele>306.4</ele>
        <time>2024-03-17T10:10:47Z</time>
      </trkpt>
      <trkpt lat="50.02194" lon="4.37368">
        <ele>306.4</ele>
        <time>2024-03-17T10:10:48Z</time>
      </trkpt>
      <trkpt lat="50.02202" lon="4.37372">
        <ele>306.4</ele>
        <time>2024-03-17T10:10:49Z</time>
      </trkpt>
      <trkpt lat="50.0221" lon="4.37376">
        <ele>306.2</ele>
        <time>2024-03-17T10:10:50Z</time>
      </trkpt>
      <trkpt lat="50.02218" lon="4.3738">
        <ele>306.2</ele>
        <time>2024-03-17T10:10:51Z</time>
      </trkpt>
      <trkpt lat="50.02226" lon="4.37386">
        <ele>306.2</ele>
        <time>2024-03-17T10:10:52Z</time>
      </trkpt>
      <trkpt lat="50.02235" lon="4.37392">
        <ele>305.8</ele>
        <time>2024-03-17T10:10:53Z</time>
      </trkpt>
      <trkpt lat="50.02243" lon="4.37398">
        <ele>305.8</ele>
        <time>2024-03-17T10:10:54Z</time>
      </trkpt>
      <trkpt lat="50.02252" lon="4.37404">
        <ele>305.6</ele>
        <time>2024-03-17T10:10:55Z</time>
      </trkpt>
      <trkpt lat="50.02261" lon="4.3741">
        <ele>305.6</ele>
        <time>2024-03-17T10:10:56Z</time>
      </trkpt>
      <trkpt lat="50.02271" lon="4.37416">
        <ele>305.2</ele>
        <time>2024-03-17T10:10:57Z</time>
      </trkpt>
      <trkpt lat="50.0228" lon="4.37423">
        <ele>305.2</ele>
        <time>2024-03-17T10:10:58Z</time>
      </trkpt>
      <trkpt lat="50.0229" lon="4.3743">
        <ele>305</ele>
        <time>2024-03-17T10:10:59Z</time>
      </trkpt>
      <trkpt lat="50.02299" lon="4.37436">
        <ele>304.8</ele>
        <time>2024-03-17T10:11:00Z</time>
      </trkpt>
      <trkpt lat="50.02309" lon="4.37443">
        <ele>304.6</ele>
        <time>2024-03-17T10:11:01Z</time>
      </trkpt>
      <trkpt lat="50.0232" lon="4.37448">
        <ele>304.2</ele>
        <time>2024-03-17T10:11:02Z</time>
      </trkpt>
      <trkpt lat="50.02331" lon="4.37452">
        <ele>302.8</ele>
        <time>2024-03-17T10:11:03Z</time>
      </trkpt>
      <trkpt lat="50.02342" lon="4.37454">
        <ele>302</ele>
        <time>2024-03-17T10:11:04Z</time>
      </trkpt>
      <trkpt lat="50.02353" lon="4.37453">
        <ele>301.2</ele>
        <time>2024-03-17T10:11:05Z</time>
      </trkpt>
      <trkpt lat="50.02364" lon="4.37452">
        <ele>300.4</ele>
        <time>2024-03-17T10:11:06Z</time>
      </trkpt>
      <trkpt lat="50.02376" lon="4.3745">
        <ele>299.6</ele>
        <time>2024-03-17T10:11:07Z</time>
      </trkpt>
      <trkpt lat="50.02387" lon="4.37449">
        <ele>299</ele>
        <time>2024-03-17T10:11:08Z</time>
      </trkpt>
      <trkpt lat="50.02399" lon="4.37447">
        <ele>298.2</ele>
        <time>2024-03-17T10:11:09Z</time>
      </trkpt>
      <trkpt lat="50.02411" lon="4.37445">
        <ele>297.4</ele>
        <time>2024-03-17T10:11:10Z</time>
      </trkpt>
      <trkpt lat="50.02423" lon="4.37444">
        <ele>296.6</ele>
        <time>2024-03-17T10:11:11Z</time>
      </trkpt>
      <trkpt lat="50.02435" lon="4.37442">
        <ele>295.8</ele>
        <time>2024-03-17T10:11:12Z</time>
      </trkpt>
      <trkpt lat="50.02448" lon="4.3744">
        <ele>295.2</ele>
        <time>2024-03-17T10:11:13Z</time>
      </trkpt>
      <trkpt lat="50.0246" lon="4.37438">
        <ele>294.6</ele>
        <time>2024-03-17T10:11:14Z</time>
      </trkpt>
      <trkpt lat="50.02473" lon="4.37436">
        <ele>294.4</ele>
        <time>2024-03-17T10:11:15Z</time>
      </trkpt>
      <trkpt lat="50.02485" lon="4.37434">
        <ele>294.4</ele>
        <time>2024-03-17T10:11:16Z</time>
      </trkpt>
      <trkpt lat="50.02498" lon="4.37432">
        <ele>294.2</ele>
        <time>2024-03-17T10:11:17Z</time>
      </trkpt>
      <trkpt lat="50.0251" lon="4.3743">
        <ele>293.4</ele>
        <time>2024-03-17T10:11:18Z</time>
      </trkpt>
      <trkpt lat="50.02523" lon="4.37428">
        <ele>292.4</ele>
        <time>2024-03-17T10:11:19Z</time>
      </trkpt>
      <trkpt lat="50.02536" lon="4.37425">
        <ele>291.2</ele>
        <time>2024-03-17T10:11:20Z</time>
      </trkpt>
      <trkpt lat="50.02549" lon="4.37423">
        <ele>289.8</ele>
        <time>2024-03-17T10:11:21Z</time>
      </trkpt>
      <trkpt lat="50.02562" lon="4.37421">
        <ele>288.2</ele>
        <time>2024-03-17T10:11:22Z</time>
      </trkpt>
      <trkpt lat="50.02575" lon="4.37419">
        <ele>287</ele>
        <time>2024-03-17T10:11:23Z</time>
      </trkpt>
      <trkpt lat="50.02588" lon="4.37417">
        <ele>286.4</ele>
        <time>2024-03-17T10:11:24Z</time>
      </trkpt>
      <trkpt lat="50.02601" lon="4.37415">
        <ele>285.4</ele>
        <time>2024-03-17T10:11:25Z</time>
      </trkpt>
      <trkpt lat="50.02614" lon="4.37413">
        <ele>284.6</ele>
        <time>2024-03-17T10:11:26Z</time>
      </trkpt>
      <trkpt lat="50.02627" lon="4.37411">
        <ele>283.4</ele>
        <time>2024-03-17T10:11:27Z</time>
      </trkpt>
      <trkpt lat="50.0264" lon="4.37411">
        <ele>282.4</ele>
        <time>2024-03-17T10:11:28Z</time>
      </trkpt>
      <trkpt lat="50.02654" lon="4.37411">
        <ele>280.6</ele>
        <time>2024-03-17T10:11:29Z</time>
      </trkpt>
      <trkpt lat="50.02667" lon="4.37415">
        <ele>278.8</ele>
        <time>2024-03-17T10:11:30Z</time>
      </trkpt>
      <trkpt lat="50.02679" lon="4.37424">
        <ele>277.8</ele>
        <time>2024-03-17T10:11:31Z</time>
      </trkpt>
      <trkpt lat="50.0269" lon="4.37435">
        <ele>276.8</ele>
        <time>2024-03-17T10:11:32Z</time>
      </trkpt>
      <trkpt lat="50.027" lon="4.37448">
        <ele>276</ele>
        <time>2024-03-17T10:11:33Z</time>
      </trkpt>
      <trkpt lat="50.02709" lon="4.37463">
        <ele>275.6</ele>
        <time>2024-03-17T10:11:34Z</time>
      </trkpt>
      <trkpt lat="50.02717" lon="4.37479">
        <ele>275</ele>
        <time>2024-03-17T10:11:35Z</time>
      </trkpt>
      <trkpt lat="50.02724" lon="4.37495">
        <ele>274</ele>
        <time>2024-03-17T10:11:36Z</time>
      </trkpt>
      <trkpt lat="50.02732" lon="4.37511">
        <ele>273</ele>
        <time>2024-03-17T10:11:37Z</time>
      </trkpt>
      <trkpt lat="50.02741" lon="4.37526">
        <ele>273</ele>
        <time>2024-03-17T10:11:38Z</time>
      </trkpt>
      <trkpt lat="50.0275" lon="4.37538">
        <ele>272.2</ele>
        <time>2024-03-17T10:11:39Z</time>
      </trkpt>
      <trkpt lat="50.0276" lon="4.37549">
        <ele>271.6</ele>
        <time>2024-03-17T10:11:40Z</time>
      </trkpt>
      <trkpt lat="50.02771" lon="4.37558">
        <ele>271.4</ele>
        <time>2024-03-17T10:11:41Z</time>
      </trkpt>
      <trkpt lat="50.02782" lon="4.37565">
        <ele>269.6</ele>
        <time>2024-03-17T10:11:42Z</time>
      </trkpt>
      <trkpt lat="50.02793" lon="4.37571">
        <ele>268.6</ele>
        <time>2024-03-17T10:11:43Z</time>
      </trkpt>
      <trkpt lat="50.02804" lon="4.37577">
        <ele>267.8</ele>
        <time>2024-03-17T10:11:44Z</time>
      </trkpt>
      <trkpt lat="50.02816" lon="4.37583">
        <ele>267</ele>
        <time>2024-03-17T10:11:45Z</time>
      </trkpt>
      <trkpt lat="50.02827" lon="4.3759">
        <ele>266.6</ele>
        <time>2024-03-17T10:11:46Z</time>
      </trkpt>
      <trkpt lat="50.02838" lon="4.37596">
        <ele>266.2</ele>
        <time>2024-03-17T10:11:47Z</time>
      </trkpt>
      <trkpt lat="50.0285" lon="4.37602">
        <ele>265.6</ele>
        <time>2024-03-17T10:11:48Z</time>
      </trkpt>
      <trkpt lat="50.02861" lon="4.37606">
        <ele>265</ele>
        <time>2024-03-17T10:11:49Z</time>
      </trkpt>
      <trkpt lat="50.02872" lon="4.37609">
        <ele>264.8</ele>
        <time>2024-03-17T10:11:50Z</time>
      </trkpt>
      <trkpt lat="50.02883" lon="4.37609">
        <ele>264</ele>
        <time>2024-03-17T10:11:51Z</time>
      </trkpt>
      <trkpt lat="50.02894" lon="4.37609">
        <ele>263.6</ele>
        <time>2024-03-17T10:11:52Z</time>
      </trkpt>
      <trkpt lat="50.02905" lon="4.37607">
        <ele>263.4</ele>
        <time>2024-03-17T10:11:53Z</time>
      </trkpt>
      <trkpt lat="50.02916" lon="4.37605">
        <ele>262.8</ele>
        <time>2024-03-17T10:11:54Z</time>
      </trkpt>
      <trkpt lat="50.02926" lon="4.37603">
        <ele>262.8</ele>
        <time>2024-03-17T10:11:55Z</time>
      </trkpt>
      <trkpt lat="50.02936" lon="4.376">
        <ele>262.2</ele>
        <time>2024-03-17T10:11:56Z</time>
      </trkpt>
      <trkpt lat="50.02945" lon="4.37596">
        <ele>261.8</ele>
        <time>2024-03-17T10:11:57Z</time>
      </trkpt>
      <trkpt lat="50.02953" lon="4.37593">
        <ele>261.6</ele>
        <time>2024-03-17T10:11:58Z</time>
      </trkpt>
      <trkpt lat="50.0296" lon="4.37591">
        <ele>261.4</ele>
        <time>2024-03-17T10:11:59Z</time>
      </trkpt>
      <trkpt lat="50.02967" lon="4.3759">
        <ele>261.2</ele>
        <time>2024-03-17T10:12:00Z</time>
      </trkpt>
      <trkpt lat="50.02974" lon="4.37589">
        <ele>260.8</ele>
        <time>2024-03-17T10:12:01Z</time>
      </trkpt>
      <trkpt lat="50.02981" lon="4.37587">
        <ele>260.4</ele>
        <time>2024-03-17T10:12:02Z</time>
      </trkpt>
      <trkpt lat="50.02987" lon="4.37585">
        <ele>260.2</ele>
        <time>2024-03-17T10:12:03Z</time>
      </trkpt>
      <trkpt lat="50.02994" lon="4.37582">
        <ele>260.2</ele>
        <time>2024-03-17T10:12:04Z</time>
      </trkpt>
      <trkpt lat="50.03001" lon="4.37579">
        <ele>260</ele>
        <time>2024-03-17T10:12:05Z</time>
      </trkpt>
      <trkpt lat="50.03007" lon="4.37576">
        <ele>260</ele>
        <time>2024-03-17T10:12:06Z</time>
      </trkpt>
      <trkpt lat="50.03014" lon="4.37573">
        <ele>260</ele>
        <time>2024-03-17T10:12:07Z</time>
      </trkpt>
      <trkpt lat="50.0302" lon="4.3757">
        <ele>259.8</ele>
        <time>2024-03-17T10:12:08Z</time>
      </trkpt>
      <trkpt lat="50.03027" lon="4.37568">
        <ele>259.8</ele>
        <time>2024-03-17T10:12:09Z</time>
      </trkpt>
      <trkpt lat="50.03033" lon="4.37565">
        <ele>259.6</ele>
        <time>2024-03-17T10:12:10Z</time>
      </trkpt>
      <trkpt lat="50.0304" lon="4.37562">
        <ele>259.6</ele>
        <time>2024-03-17T10:12:11Z</time>
      </trkpt>
      <trkpt lat="50.03047" lon="4.37561">
        <ele>259.4</ele>
        <time>2024-03-17T10:12:12Z</time>
      </trkpt>
      <trkpt lat="50.03054" lon="4.37561">
        <ele>259.4</ele>
        <time>2024-03-17T10:12:13Z</time>
      </trkpt>
      <trkpt lat="50.0306" lon="4.37564">
        <ele>259.4</ele>
        <time>2024-03-17T10:12:14Z</time>
      </trkpt>
      <trkpt lat="50.03064" lon="4.37568">
        <ele>259.2</ele>
        <time>2024-03-17T10:12:15Z</time>
      </trkpt>
      <trkpt lat="50.03068" lon="4.37576">
        <ele>259</ele>
        <time>2024-03-17T10:12:16Z</time>
      </trkpt>
      <trkpt lat="50.03071" lon="4.37585">
        <ele>258.8</ele>
        <time>2024-03-17T10:12:17Z</time>
      </trkpt>
      <trkpt lat="50.03073" lon="4.37595">
        <ele>258.8</ele>
        <time>2024-03-17T10:12:18Z</time>
      </trkpt>
      <trkpt lat="50.03075" lon="4.37605">
        <ele>258.6</ele>
        <time>2024-03-17T10:12:19Z</time>
      </trkpt>
      <trkpt lat="50.03076" lon="4.37616">
        <ele>258.4</ele>
        <time>2024-03-17T10:12:20Z</time>
      </trkpt>
      <trkpt lat="50.03077" lon="4.37627">
        <ele>258.4</ele>
        <time>2024-03-17T10:12:21Z</time>
      </trkpt>
      <trkpt lat="50.03078" lon="4.37638">
        <ele>258.2</ele>
        <time>2024-03-17T10:12:22Z</time>
      </trkpt>
      <trkpt lat="50.03079" lon="4.37648">
        <ele>258.2</ele>
        <time>2024-03-17T10:12:23Z</time>
      </trkpt>
      <trkpt lat="50.03079" lon="4.37659">
        <ele>258</ele>
        <time>2024-03-17T10:12:24Z</time>
      </trkpt>
      <trkpt lat="50.03081" lon="4.37669">
        <ele>258</ele>
        <time>2024-03-17T10:12:25Z</time>
      </trkpt>
      <trkpt lat="50.03083" lon="4.37678">
        <ele>257.6</ele>
        <time>2024-03-17T10:12:26Z</time>
      </trkpt>
      <trkpt lat="50.03087" lon="4.37685">
        <ele>257.6</ele>
        <time>2024-03-17T10:12:27Z</time>
      </trkpt>
      <trkpt lat="50.03093" lon="4.3769">
        <ele>257.6</ele>
        <time>2024-03-17T10:12:28Z</time>
      </trkpt>
      <trkpt lat="50.03099" lon="4.37692">
        <ele>257.6</ele>
        <time>2024-03-17T10:12:29Z</time>
      </trkpt>
      <trkpt lat="50.03106" lon="4.37692">
        <ele>257.4</ele>
        <time>2024-03-17T10:12:30Z</time>
      </trkpt>
      <trkpt lat="50.03113" lon="4.37691">
        <ele>257.4</ele>
        <time>2024-03-17T10:12:31Z</time>
      </trkpt>
      <trkpt lat="50.0312" lon="4.3769">
        <ele>257.2</ele>
        <time>2024-03-17T10:12:32Z</time>
      </trkpt>
      <trkpt lat="50.03127" lon="4.37689">
        <ele>257.2</ele>
        <time>2024-03-17T10:12:33Z</time>
      </trkpt>
      <trkpt lat="50.03134" lon="4.37688">
        <ele>257.2</ele>
        <time>2024-03-17T10:12:34Z</time>
      </trkpt>
      <trkpt lat="50.03141" lon="4.37687">
        <ele>257.2</ele>
        <time>2024-03-17T10:12:35Z</time>
      </trkpt>
      <trkpt lat="50.03149" lon="4.37685">
        <ele>257</ele>
        <time>2024-03-17T10:12:36Z</time>
      </trkpt>
      <trkpt lat="50.03156" lon="4.37684">
        <ele>257</ele>
        <time>2024-03-17T10:12:37Z</time>
      </trkpt>
      <trkpt lat="50.03164" lon="4.37683">
        <ele>257</ele>
        <time>2024-03-17T10:12:38Z</time>
      </trkpt>
      <trkpt lat="50.03171" lon="4.37682">
        <ele>257</ele>
        <time>2024-03-17T10:12:39Z</time>
      </trkpt>
      <trkpt lat="50.03179" lon="4.37681">
        <ele>257</ele>
        <time>2024-03-17T10:12:40Z</time>
      </trkpt>
      <trkpt lat="50.03188" lon="4.3768">
        <ele>257.2</ele>
        <time>2024-03-17T10:12:41Z</time>
      </trkpt>
      <trkpt lat="50.03195" lon="4.37679">
        <ele>257</ele>
        <time>2024-03-17T10:12:42Z</time>
      </trkpt>
      <trkpt lat="50.03204" lon="4.37678">
        <ele>257</ele>
        <time>2024-03-17T10:12:43Z</time>
      </trkpt>
      <trkpt lat="50.03212" lon="4.37677">
        <ele>257</ele>
        <time>2024-03-17T10:12:44Z</time>
      </trkpt>
      <trkpt lat="50.0322" lon="4.37675">
        <ele>256.8</ele>
        <time>2024-03-17T10:12:45Z</time>
      </trkpt>
      <trkpt lat="50.03228" lon="4.37674">
        <ele>256.6</ele>
        <time>2024-03-17T10:12:46Z</time>
      </trkpt>
      <trkpt lat="50.03236" lon="4.37672">
        <ele>256.6</ele>
        <time>2024-03-17T10:12:47Z</time>
      </trkpt>
      <trkpt lat="50.03244" lon="4.3767">
        <ele>256.4</ele>
        <time>2024-03-17T10:12:48Z</time>
      </trkpt>
      <trkpt lat="50.03252" lon="4.37669">
        <ele>256.4</ele>
        <time>2024-03-17T10:12:49Z</time>
      </trkpt>
      <trkpt lat="50.03259" lon="4.37667">
        <ele>256</ele>
        <time>2024-03-17T10:12:50Z</time>
      </trkpt>
      <trkpt lat="50.03267" lon="4.37666">
        <ele>255.8</ele>
        <time>2024-03-17T10:12:51Z</time>
      </trkpt>
      <trkpt lat="50.03275" lon="4.37665">
        <ele>255.4</ele>
        <time>2024-03-17T10:12:52Z</time>
      </trkpt>
      <trkpt lat="50.03283" lon="4.37664">
        <ele>255.2</ele>
        <time>2024-03-17T10:12:53Z</time>
      </trkpt>
      <trkpt lat="50.03291" lon="4.37663">
        <ele>255.2</ele>
        <time>2024-03-17T10:12:54Z</time>
      </trkpt>
      <trkpt lat="50.03299" lon="4.37662">
        <ele>255</ele>
        <time>2024-03-17T10:12:55Z</time>
      </trkpt>
      <trkpt lat="50.03307" lon="4.3766">
        <ele>254.8</ele>
        <time>2024-03-17T10:12:56Z</time>
      </trkpt>
      <trkpt lat="50.03315" lon="4.37659">
        <ele>254.8</ele>
        <time>2024-03-17T10:12:57Z</time>
      </trkpt>
      <trkpt lat="50.03323" lon="4.37657">
        <ele>254.8</ele>
        <time>2024-03-17T10:12:58Z</time>
      </trkpt>
      <trkpt lat="50.0333" lon="4.37655">
        <ele>254.6</ele>
        <time>2024-03-17T10:12:59Z</time>
      </trkpt>
      <trkpt lat="50.03338" lon="4.37654">
        <ele>254.4</ele>
        <time>2024-03-17T10:13:00Z</time>
      </trkpt>
      <trkpt lat="50.03347" lon="4.37652">
        <ele>254.2</ele>
        <time>2024-03-17T10:13:01Z</time>
      </trkpt>
      <trkpt lat="50.03354" lon="4.37651">
        <ele>254</ele>
        <time>2024-03-17T10:13:02Z</time>
      </trkpt>
      <trkpt lat="50.03362" lon="4.37649">
        <ele>254</ele>
        <time>2024-03-17T10:13:03Z</time>
      </trkpt>
      <trkpt lat="50.0337" lon="4.37647">
        <ele>253.8</ele>
        <time>2024-03-17T10:13:04Z</time>
      </trkpt>
      <trkpt lat="50.03378" lon="4.37645">
        <ele>253.6</ele>
        <time>2024-03-17T10:13:05Z</time>
      </trkpt>
      <trkpt lat="50.03386" lon="4.37643">
        <ele>253.6</ele>
        <time>2024-03-17T10:13:06Z</time>
      </trkpt>
      <trkpt lat="50.03394" lon="4.37642">
        <ele>253.4</ele>
        <time>2024-03-17T10:13:07Z</time>
      </trkpt>
      <trkpt lat="50.03401" lon="4.3764">
        <ele>253.4</ele>
        <time>2024-03-17T10:13:08Z</time>
      </trkpt>
      <trkpt lat="50.03409" lon="4.37638">
        <ele>253.4</ele>
        <time>2024-03-17T10:13:09Z</time>
      </trkpt>
      <trkpt lat="50.03417" lon="4.37637">
        <ele>253.2</ele>
        <time>2024-03-17T10:13:10Z</time>
      </trkpt>
      <trkpt lat="50.03424" lon="4.37635">
        <ele>253.2</ele>
        <time>2024-03-17T10:13:11Z</time>
      </trkpt>
      <trkpt lat="50.03432" lon="4.37634">
        <ele>253.2</ele>
        <time>2024-03-17T10:13:12Z</time>
      </trkpt>
      <trkpt lat="50.03439" lon="4.37632">
        <ele>253</ele>
        <time>2024-03-17T10:13:13Z</time>
      </trkpt>
      <trkpt lat="50.03447" lon="4.37631">
        <ele>252.8</ele>
        <time>2024-03-17T10:13:14Z</time>
      </trkpt>
      <trkpt lat="50.03454" lon="4.37629">
        <ele>252.8</ele>
        <time>2024-03-17T10:13:15Z</time>
      </trkpt>
      <trkpt lat="50.03462" lon="4.37627">
        <ele>252.6</ele>
        <time>2024-03-17T10:13:16Z</time>
      </trkpt>
      <trkpt lat="50.03469" lon="4.37626">
        <ele>252.6</ele>
        <time>2024-03-17T10:13:17Z</time>
      </trkpt>
      <trkpt lat="50.03476" lon="4.37624">
        <ele>252.6</ele>
        <time>2024-03-17T10:13:18Z</time>
      </trkpt>
      <trkpt lat="50.03483" lon="4.37623">
        <ele>252.6</ele>
        <time>2024-03-17T10:13:19Z</time>
      </trkpt>
      <trkpt lat="50.0349" lon="4.37621">
        <ele>252.6</ele>
        <time>2024-03-17T10:13:20Z</time>
      </trkpt>
      <trkpt lat="50.03496" lon="4.3762">
        <ele>252.4</ele>
        <time>2024-03-17T10:13:21Z</time>
      </trkpt>
      <trkpt lat="50.03503" lon="4.3762">
        <ele>252.4</ele>
        <time>2024-03-17T10:13:22Z</time>
      </trkpt>
      <trkpt lat="50.03509" lon="4.37622">
        <ele>252.4</ele>
        <time>2024-03-17T10:13:23Z</time>
      </trkpt>
      <trkpt lat="50.03515" lon="4.37626">
        <ele>252.6</ele>
        <time>2024-03-17T10:13:24Z</time>
      </trkpt>
      <trkpt lat="50.03521" lon="4.37629">
        <ele>252.4</ele>
        <time>2024-03-17T10:13:25Z</time>
      </trkpt>
      <trkpt lat="50.03528" lon="4.3763">
        <ele>252.4</ele>
        <time>2024-03-17T10:13:26Z</time>
      </trkpt>
      <trkpt lat="50.03533" lon="4.37626">
        <ele>252.4</ele>
        <time>2024-03-17T10:13:27Z</time>
      </trkpt>
      <trkpt lat="50.03538" lon="4.37621">
        <ele>252.4</ele>
        <time>2024-03-17T10:13:28Z</time>
      </trkpt>
      <trkpt lat="50.03543" lon="4.37616">
        <ele>252.4</ele>
        <time>2024-03-17T10:13:29Z</time>
      </trkpt>
      <trkpt lat="50.03549" lon="4.37612">
        <ele>252.4</ele>
        <time>2024-03-17T10:13:30Z</time>
      </trkpt>
      <trkpt lat="50.03556" lon="4.3761">
        <ele>252.2</ele>
        <time>2024-03-17T10:13:31Z</time>
      </trkpt>
      <trkpt lat="50.03562" lon="4.37609">
        <ele>252.2</ele>
        <time>2024-03-17T10:13:32Z</time>
      </trkpt>
      <trkpt lat="50.0357" lon="4.37607">
        <ele>252.2</ele>
        <time>2024-03-17T10:13:33Z</time>
      </trkpt>
      <trkpt lat="50.03577" lon="4.37606">
        <ele>252</ele>
        <time>2024-03-17T10:13:34Z</time>
      </trkpt>
      <trkpt lat="50.03584" lon="4.37605">
        <ele>252.2</ele>
        <time>2024-03-17T10:13:35Z</time>
      </trkpt>
      <trkpt lat="50.03592" lon="4.37604">
        <ele>252.2</ele>
        <time>2024-03-17T10:13:36Z</time>
      </trkpt>
      <trkpt lat="50.036" lon="4.37602">
        <ele>252.2</ele>
        <time>2024-03-17T10:13:37Z</time>
      </trkpt>
      <trkpt lat="50.03608" lon="4.37601">
        <ele>252</ele>
        <time>2024-03-17T10:13:38Z</time>
      </trkpt>
      <trkpt lat="50.03616" lon="4.37599">
        <ele>252</ele>
        <time>2024-03-17T10:13:39Z</time>
      </trkpt>
      <trkpt lat="50.03624" lon="4.37598">
        <ele>251.6</ele>
        <time>2024-03-17T10:13:40Z</time>
      </trkpt>
      <trkpt lat="50.03632" lon="4.37596">
        <ele>251.4</ele>
        <time>2024-03-17T10:13:41Z</time>
      </trkpt>
      <trkpt lat="50.0364" lon="4.37595">
        <ele>251.2</ele>
        <time>2024-03-17T10:13:42Z</time>
      </trkpt>
      <trkpt lat="50.03648" lon="4.37594">
        <ele>251.2</ele>
        <time>2024-03-17T10:13:43Z</time>
      </trkpt>
      <trkpt lat="50.03657" lon="4.37593">
        <ele>251</ele>
        <time>2024-03-17T10:13:44Z</time>
      </trkpt>
      <trkpt lat="50.03665" lon="4.37591">
        <ele>250.4</ele>
        <time>2024-03-17T10:13:45Z</time>
      </trkpt>
      <trkpt lat="50.03674" lon="4.3759">
        <ele>249.6</ele>
        <time>2024-03-17T10:13:46Z</time>
      </trkpt>
      <trkpt lat="50.03682" lon="4.37588">
        <ele>249</ele>
        <time>2024-03-17T10:13:47Z</time>
      </trkpt>
      <trkpt lat="50.03691" lon="4.37587">
        <ele>248.8</ele>
        <time>2024-03-17T10:13:48Z</time>
      </trkpt>
      <trkpt lat="50.037" lon="4.37585">
        <ele>248.6</ele>
        <time>2024-03-17T10:13:49Z</time>
      </trkpt>
      <trkpt lat="50.03709" lon="4.37584">
        <ele>248.4</ele>
        <time>2024-03-17T10:13:50Z</time>
      </trkpt>
      <trkpt lat="50.03717" lon="4.37582">
        <ele>248.2</ele>
        <time>2024-03-17T10:13:51Z</time>
      </trkpt>
      <trkpt lat="50.03726" lon="4.37581">
        <ele>248.2</ele>
        <time>2024-03-17T10:13:52Z</time>
      </trkpt>
      <trkpt lat="50.03735" lon="4.3758">
        <ele>248</ele>
        <time>2024-03-17T10:13:53Z</time>
      </trkpt>
      <trkpt lat="50.03743" lon="4.37579">
        <ele>248</ele>
        <time>2024-03-17T10:13:54Z</time>
      </trkpt>
      <trkpt lat="50.03752" lon="4.37578">
        <ele>247.6</ele>
        <time>2024-03-17T10:13:55Z</time>
      </trkpt>
      <trkpt lat="50.0376" lon="4.37579">
        <ele>247.2</ele>
        <time>2024-03-17T10:13:56Z</time>
      </trkpt>
      <trkpt lat="50.03768" lon="4.3758">
        <ele>247</ele>
        <time>2024-03-17T10:13:57Z</time>
      </trkpt>
      <trkpt lat="50.03776" lon="4.37582">
        <ele>246.8</ele>
        <time>2024-03-17T10:13:58Z</time>
      </trkpt>
      <trkpt lat="50.03784" lon="4.37584">
        <ele>246.8</ele>
        <time>2024-03-17T10:13:59Z</time>
      </trkpt>
      <trkpt lat="50.03792" lon="4.37586">
        <ele>246.8</ele>
        <time>2024-03-17T10:14:00Z</time>
      </trkpt>
      <trkpt lat="50.03799" lon="4.37589">
        <ele>246.6</ele>
        <time>2024-03-17T10:14:01Z</time>
      </trkpt>
      <trkpt lat="50.03806" lon="4.37593">
        <ele>246.8</ele>
        <time>2024-03-17T10:14:02Z</time>
      </trkpt>
      <trkpt lat="50.03813" lon="4.37597">
        <ele>246.8</ele>
        <time>2024-03-17T10:14:03Z</time>
      </trkpt>
      <trkpt lat="50.03819" lon="4.37601">
        <ele>246.6</ele>
        <time>2024-03-17T10:14:04Z</time>
      </trkpt>
      <trkpt lat="50.03826" lon="4.37605">
        <ele>246.8</ele>
        <time>2024-03-17T10:14:05Z</time>
      </trkpt>
      <trkpt lat="50.03832" lon="4.3761">
        <ele>246.8</ele>
        <time>2024-03-17T10:14:06Z</time>
      </trkpt>
      <trkpt lat="50.03838" lon="4.37615">
        <ele>247</ele>
        <time>2024-03-17T10:14:07Z</time>
      </trkpt>
      <trkpt lat="50.03844" lon="4.37621">
        <ele>247</ele>
        <time>2024-03-17T10:14:08Z</time>
      </trkpt>
      <trkpt lat="50.03849" lon="4.37626">
        <ele>247</ele>
        <time>2024-03-17T10:14:09Z</time>
      </trkpt>
      <trkpt lat="50.03854" lon="4.37632">
        <ele>247.4</ele>
        <time>2024-03-17T10:14:10Z</time>
      </trkpt>
      <trkpt lat="50.0386" lon="4.37638">
        <ele>247.6</ele>
        <time>2024-03-17T10:14:11Z</time>
      </trkpt>
      <trkpt lat="50.03865" lon="4.37644">
        <ele>248</ele>
        <time>2024-03-17T10:14:12Z</time>
      </trkpt>
      <trkpt lat="50.0387" lon="4.3765">
        <ele>248.2</ele>
        <time>2024-03-17T10:14:13Z</time>
      </trkpt>
      <trkpt lat="50.03874" lon="4.37657">
        <ele>248.4</ele>
        <time>2024-03-17T10:14:14Z</time>
      </trkpt>
      <trkpt lat="50.03878" lon="4.37665">
        <ele>248.6</ele>
        <time>2024-03-17T10:14:15Z</time>
      </trkpt>
      <trkpt lat="50.03882" lon="4.37672">
        <ele>248.8</ele>
        <time>2024-03-17T10:14:16Z</time>
      </trkpt>
      <trkpt lat="50.03887" lon="4.37679">
        <ele>249.2</ele>
        <time>2024-03-17T10:14:17Z</time>
      </trkpt>
      <trkpt lat="50.03891" lon="4.37686">
        <ele>249.4</ele>
        <time>2024-03-17T10:14:18Z</time>
      </trkpt>
      <trkpt lat="50.03895" lon="4.37693">
        <ele>249.8</ele>
        <time>2024-03-17T10:14:19Z</time>
      </trkpt>
      <trkpt lat="50.03899" lon="4.377">
        <ele>250</ele>
        <time>2024-03-17T10:14:20Z</time>
      </trkpt>
      <trkpt lat="50.03903" lon="4.37707">
        <ele>250.2</ele>
        <time>2024-03-17T10:14:21Z</time>
      </trkpt>
      <trkpt lat="50.03907" lon="4.37714">
        <ele>250.2</ele>
        <time>2024-03-17T10:14:22Z</time>
      </trkpt>
      <trkpt lat="50.03911" lon="4.37721">
        <ele>250.2</ele>
        <time>2024-03-17T10:14:23Z</time>
      </trkpt>
      <trkpt lat="50.03915" lon="4.37728">
        <ele>250.4</ele>
        <time>2024-03-17T10:14:24Z</time>
      </trkpt>
      <trkpt lat="50.03919" lon="4.37735">
        <ele>250.4</ele>
        <time>2024-03-17T10:14:25Z</time>
      </trkpt>
      <trkpt lat="50.03923" lon="4.37742">
        <ele>250.8</ele>
        <time>2024-03-17T10:14:26Z</time>
      </trkpt>
      <trkpt lat="50.03927" lon="4.37749">
        <ele>251.4</ele>
        <time>2024-03-17T10:14:27Z</time>
      </trkpt>
      <trkpt lat="50.03931" lon="4.37756">
        <ele>251.6</ele>
        <time>2024-03-17T10:14:28Z</time>
      </trkpt>
      <trkpt lat="50.03935" lon="4.37762">
        <ele>252.2</ele>
        <time>2024-03-17T10:14:29Z</time>
      </trkpt>
      <trkpt lat="50.03939" lon="4.37769">
        <ele>252.4</ele>
        <time>2024-03-17T10:14:30Z</time>
      </trkpt>
      <trkpt lat="50.03943" lon="4.37776">
        <ele>252.4</ele>
        <time>2024-03-17T10:14:31Z</time>
      </trkpt>
      <trkpt lat="50.03947" lon="4.37783">
        <ele>252.6</ele>
        <time>2024-03-17T10:14:32Z</time>
      </trkpt>
      <trkpt lat="50.03951" lon="4.3779">
        <ele>252.8</ele>
        <time>2024-03-17T10:14:33Z</time>
      </trkpt>
      <trkpt lat="50.03955" lon="4.37797">
        <ele>253</ele>
        <time>2024-03-17T10:14:34Z</time>
      </trkpt>
      <trkpt lat="50.03959" lon="4.37803">
        <ele>253.2</ele>
        <time>2024-03-17T10:14:35Z</time>
      </trkpt>
      <trkpt lat="50.03963" lon="4.3781">
        <ele>253.4</ele>
        <time>2024-03-17T10:14:36Z</time>
      </trkpt>
      <trkpt lat="50.03967" lon="4.37816">
        <ele>253.6</ele>
        <time>2024-03-17T10:14:37Z</time>
      </trkpt>
      <trkpt lat="50.03971" lon="4.37823">
        <ele>254</ele>
        <time>2024-03-17T10:14:38Z</time>
      </trkpt>
      <trkpt lat="50.03975" lon="4.37829">
        <ele>255</ele>
        <time>2024-03-17T10:14:39Z</time>
      </trkpt>
      <trkpt lat="50.03979" lon="4.37835">
        <ele>255.6</ele>
        <time>2024-03-17T10:14:40Z</time>
      </trkpt>
      <trkpt lat="50.03984" lon="4.3784">
        <ele>256</ele>
        <time>2024-03-17T10:14:41Z</time>
      </trkpt>
      <trkpt lat="50.03988" lon="4.37845">
        <ele>256</ele>
        <time>2024-03-17T10:14:42Z</time>
      </trkpt>
      <trkpt lat="50.03992" lon="4.37849">
        <ele>256.2</ele>
        <time>2024-03-17T10:14:43Z</time>
      </trkpt>
      <trkpt lat="50.03996" lon="4.37854">
        <ele>256.4</ele>
        <time>2024-03-17T10:14:44Z</time>
      </trkpt>
      <trkpt lat="50.04" lon="4.37858">
        <ele>256.4</ele>
        <time>2024-03-17T10:14:45Z</time>
      </trkpt>
      <trkpt lat="50.04003" lon="4.37861">
        <ele>256.6</ele>
        <time>2024-03-17T10:14:46Z</time>
      </trkpt>
      <trkpt lat="50.04005" lon="4.37864">
        <ele>256.8</ele>
        <time>2024-03-17T10:14:47Z</time>
      </trkpt>
      <trkpt lat="50.04006" lon="4.37866">
        <ele>257</ele>
        <time>2024-03-17T10:14:48Z</time>
      </trkpt>
      <trkpt lat="50.04006" lon="4.37868">
        <ele>257</ele>
        <time>2024-03-17T10:14:49Z</time>
      </trkpt>
      <trkpt lat="50.04006" lon="4.37868">
        <ele>257</ele>
        <time>2024-03-17T10:14:50Z</time>
      </trkpt>
      <trkpt lat="50.04006" lon="4.37868">
        <ele>257.2</ele>
        <time>2024-03-17T10:14:51Z</time>
      </trkpt>
      <trkpt lat="50.04009" lon="4.37871">
        <ele>256.8</ele>
        <time>2024-03-17T10:15:44Z</time>
      </trkpt>
      <trkpt lat="50.04011" lon="4.37873">
        <ele>257</ele>
        <time>2024-03-17T10:15:45Z</time>
      </trkpt>
      <trkpt lat="50.04013" lon="4.37875">
        <ele>257</ele>
        <time>2024-03-17T10:15:46Z</time>
      </trkpt>
      <trkpt lat="50.04014" lon="4.37876">
        <ele>256.8</ele>
        <time>2024-03-17T10:15:47Z</time>
      </trkpt>
      <trkpt lat="50.04016" lon="4.37879">
        <ele>256.8</ele>
        <time>2024-03-17T10:15:48Z</time>
      </trkpt>
      <trkpt lat="50.04018" lon="4.37881">
        <ele>256.8</ele>
        <time>2024-03-17T10:15:49Z</time>
      </trkpt>
      <trkpt lat="50.0402" lon="4.37884">
        <ele>256.8</ele>
        <time>2024-03-17T10:15:50Z</time>
      </trkpt>
      <trkpt lat="50.04022" lon="4.37886">
        <ele>256.8</ele>
        <time>2024-03-17T10:15:51Z</time>
      </trkpt>
      <trkpt lat="50.04024" lon="4.37889">
        <ele>256.8</ele>
        <time>2024-03-17T10:15:52Z</time>
      </trkpt>
      <trkpt lat="50.04027" lon="4.37891">
        <ele>256.8</ele>
        <time>2024-03-17T10:15:53Z</time>
      </trkpt>
      <trkpt lat="50.04029" lon="4.37893">
        <ele>256.8</ele>
        <time>2024-03-17T10:15:54Z</time>
      </trkpt>
      <trkpt lat="50.04032" lon="4.37895">
        <ele>256.8</ele>
        <time>2024-03-17T10:15:55Z</time>
      </trkpt>
      <trkpt lat="50.04034" lon="4.37899">
        <ele>256.8</ele>
        <time>2024-03-17T10:15:56Z</time>
      </trkpt>
      <trkpt lat="50.04036" lon="4.37903">
        <ele>256.8</ele>
        <time>2024-03-17T10:15:57Z</time>
      </trkpt>
      <trkpt lat="50.04038" lon="4.37908">
        <ele>256.6</ele>
        <time>2024-03-17T10:15:58Z</time>
      </trkpt>
      <trkpt lat="50.04041" lon="4.37912">
        <ele>256.6</ele>
        <time>2024-03-17T10:15:59Z</time>
      </trkpt>
      <trkpt lat="50.04044" lon="4.37916">
        <ele>256.8</ele>
        <time>2024-03-17T10:16:00Z</time>
      </trkpt>
      <trkpt lat="50.04048" lon="4.37919">
        <ele>256.6</ele>
        <time>2024-03-17T10:16:01Z</time>
      </trkpt>
      <trkpt lat="50.04053" lon="4.3792">
        <ele>256.6</ele>
        <time>2024-03-17T10:16:02Z</time>
      </trkpt>
      <trkpt lat="50.04058" lon="4.37918">
        <ele>256.8</ele>
        <time>2024-03-17T10:16:03Z</time>
      </trkpt>
      <trkpt lat="50.04062" lon="4.37915">
        <ele>256.8</ele>
        <time>2024-03-17T10:16:04Z</time>
      </trkpt>
      <trkpt lat="50.04066" lon="4.37912">
        <ele>256.8</ele>
        <time>2024-03-17T10:16:05Z</time>
      </trkpt>
      <trkpt lat="50.04071" lon="4.37907">
        <ele>257</ele>
        <time>2024-03-17T10:16:06Z</time>
      </trkpt>
      <trkpt lat="50.04076" lon="4.37904">
        <ele>256.8</ele>
        <time>2024-03-17T10:16:07Z</time>
      </trkpt>
      <trkpt lat="50.04081" lon="4.37902">
        <ele>256.8</ele>
        <time>2024-03-17T10:16:08Z</time>
      </trkpt>
      <trkpt lat="50.04087" lon="4.379">
        <ele>256.8</ele>
        <time>2024-03-17T10:16:09Z</time>
      </trkpt>
      <trkpt lat="50.04092" lon="4.37898">
        <ele>256.8</ele>
        <time>2024-03-17T10:16:10Z</time>
      </trkpt>
      <trkpt lat="50.04098" lon="4.37897">
        <ele>257</ele>
        <time>2024-03-17T10:16:11Z</time>
      </trkpt>
      <trkpt lat="50.04104" lon="4.37896">
        <ele>257.2</ele>
        <time>2024-03-17T10:16:12Z</time>
      </trkpt>
      <trkpt lat="50.04109" lon="4.37895">
        <ele>257.4</ele>
        <time>2024-03-17T10:16:13Z</time>
      </trkpt>
      <trkpt lat="50.04115" lon="4.37894">
        <ele>257.2</ele>
        <time>2024-03-17T10:16:14Z</time>
      </trkpt>
      <trkpt lat="50.0412" lon="4.37892">
        <ele>257.4</ele>
        <time>2024-03-17T10:16:15Z</time>
      </trkpt>
      <trkpt lat="50.04126" lon="4.37891">
        <ele>257.2</ele>
        <time>2024-03-17T10:16:16Z</time>
      </trkpt>
      <trkpt lat="50.04131" lon="4.37889">
        <ele>257.4</ele>
        <time>2024-03-17T10:16:17Z</time>
      </trkpt>
      <trkpt lat="50.04137" lon="4.37887">
        <ele>257.6</ele>
        <time>2024-03-17T10:16:18Z</time>
      </trkpt>
      <trkpt lat="50.04143" lon="4.37885">
        <ele>257.6</ele>
        <time>2024-03-17T10:16:19Z</time>
      </trkpt>
      <trkpt lat="50.04148" lon="4.37883">
        <ele>257.4</ele>
        <time>2024-03-17T10:16:20Z</time>
      </trkpt>
      <trkpt lat="50.04154" lon="4.3788">
        <ele>257.4</ele>
        <time>2024-03-17T10:16:21Z</time>
      </trkpt>
      <trkpt lat="50.0416" lon="4.37878">
        <ele>257.6</ele>
        <time>2024-03-17T10:16:22Z</time>
      </trkpt>
      <trkpt lat="50.04166" lon="4.37875">
        <ele>258</ele>
        <time>2024-03-17T10:16:23Z</time>
      </trkpt>
      <trkpt lat="50.04172" lon="4.37873">
        <ele>258.2</ele>
        <time>2024-03-17T10:16:24Z</time>
      </trkpt>
      <trkpt lat="50.04178" lon="4.3787">
        <ele>258.6</ele>
        <time>2024-03-17T10:16:25Z</time>
      </trkpt>
      <trkpt lat="50.04184" lon="4.37867">
        <ele>258.6</ele>
        <time>2024-03-17T10:16:26Z</time>
      </trkpt>
      <trkpt lat="50.04191" lon="4.37864">
        <ele>258.8</ele>
        <time>2024-03-17T10:16:27Z</time>
      </trkpt>
      <trkpt lat="50.04197" lon="4.37861">
        <ele>258.8</ele>
        <time>2024-03-17T10:16:28Z</time>
      </trkpt>
      <trkpt lat="50.04203" lon="4.37859">
        <ele>258.8</ele>
        <time>2024-03-17T10:16:29Z</time>
      </trkpt>
      <trkpt lat="50.0421" lon="4.37856">
        <ele>258.8</ele>
        <time>2024-03-17T10:16:30Z</time>
      </trkpt>
      <trkpt lat="50.04216" lon="4.37853">
        <ele>258.8</ele>
        <time>2024-03-17T10:16:31Z</time>
      </trkpt>
      <trkpt lat="50.04223" lon="4.3785">
        <ele>258.8</ele>
        <time>2024-03-17T10:16:32Z</time>
      </trkpt>
      <trkpt lat="50.0423" lon="4.37847">
        <ele>258.8</ele>
        <time>2024-03-17T10:16:33Z</time>
      </trkpt>
      <trkpt lat="50.04236" lon="4.37844">
        <ele>258.8</ele>
        <time>2024-03-17T10:16:34Z</time>
      </trkpt>
      <trkpt lat="50.04243" lon="4.37841">
        <ele>258.8</ele>
        <time>2024-03-17T10:16:35Z</time>
      </trkpt>
      <trkpt lat="50.0425" lon="4.37838">
        <ele>258.8</ele>
        <time>2024-03-17T10:16:36Z</time>
      </trkpt>
      <trkpt lat="50.04257" lon="4.37835">
        <ele>258.8</ele>
        <time>2024-03-17T10:16:37Z</time>
      </trkpt>
      <trkpt lat="50.04264" lon="4.37832">
        <ele>258.8</ele>
        <time>2024-03-17T10:16:38Z</time>
      </trkpt>
      <trkpt lat="50.04271" lon="4.37829">
        <ele>258.6</ele>
        <time>2024-03-17T10:16:39Z</time>
      </trkpt>
      <trkpt lat="50.04278" lon="4.37826">
        <ele>258.4</ele>
        <time>2024-03-17T10:16:40Z</time>
      </trkpt>
      <trkpt lat="50.04285" lon="4.37823">
        <ele>258</ele>
        <time>2024-03-17T10:16:41Z</time>
      </trkpt>
      <trkpt lat="50.04292" lon="4.3782">
        <ele>257.8</ele>
        <time>2024-03-17T10:16:42Z</time>
      </trkpt>
      <trkpt lat="50.04299" lon="4.37816">
        <ele>257.8</ele>
        <time>2024-03-17T10:16:43Z</time>
      </trkpt>
      <trkpt lat="50.04307" lon="4.37813">
        <ele>257.6</ele>
        <time>2024-03-17T10:16:44Z</time>
      </trkpt>
      <trkpt lat="50.04314" lon="4.3781">
        <ele>257.2</ele>
        <time>2024-03-17T10:16:45Z</time>
      </trkpt>
      <trkpt lat="50.04321" lon="4.37807">
        <ele>257.2</ele>
        <time>2024-03-17T10:16:46Z</time>
      </trkpt>
      <trkpt lat="50.04329" lon="4.37804">
        <ele>257.2</ele>
        <time>2024-03-17T10:16:47Z</time>
      </trkpt>
      <trkpt lat="50.04336" lon="4.37801">
        <ele>257.2</ele>
        <time>2024-03-17T10:16:48Z</time>
      </trkpt>
      <trkpt lat="50.04344" lon="4.37798">
        <ele>257.2</ele>
        <time>2024-03-17T10:16:49Z</time>
      </trkpt>
      <trkpt lat="50.04351" lon="4.37795">
        <ele>257.2</ele>
        <time>2024-03-17T10:16:50Z</time>
      </trkpt>
      <trkpt lat="50.04359" lon="4.37793">
        <ele>257.2</ele>
        <time>2024-03-17T10:16:51Z</time>
      </trkpt>
      <trkpt lat="50.04367" lon="4.3779">
        <ele>257.2</ele>
        <time>2024-03-17T10:16:52Z</time>
      </trkpt>
      <trkpt lat="50.04375" lon="4.37788">
        <ele>257.2</ele>
        <time>2024-03-17T10:16:53Z</time>
      </trkpt>
      <trkpt lat="50.04383" lon="4.37786">
        <ele>257.2</ele>
        <time>2024-03-17T10:16:54Z</time>
      </trkpt>
      <trkpt lat="50.04391" lon="4.37785">
        <ele>257.2</ele>
        <time>2024-03-17T10:16:55Z</time>
      </trkpt>
      <trkpt lat="50.044" lon="4.37783">
        <ele>257</ele>
        <time>2024-03-17T10:16:56Z</time>
      </trkpt>
      <trkpt lat="50.04408" lon="4.37782">
        <ele>257.2</ele>
        <time>2024-03-17T10:16:57Z</time>
      </trkpt>
      <trkpt lat="50.04416" lon="4.3778">
        <ele>257</ele>
        <time>2024-03-17T10:16:58Z</time>
      </trkpt>
      <trkpt lat="50.04424" lon="4.37779">
        <ele>257.2</ele>
        <time>2024-03-17T10:16:59Z</time>
      </trkpt>
      <trkpt lat="50.04433" lon="4.37779">
        <ele>257</ele>
        <time>2024-03-17T10:17:00Z</time>
      </trkpt>
      <trkpt lat="50.04441" lon="4.37778">
        <ele>257</ele>
        <time>2024-03-17T10:17:01Z</time>
      </trkpt>
      <trkpt lat="50.0445" lon="4.37777">
        <ele>257</ele>
        <time>2024-03-17T10:17:02Z</time>
      </trkpt>
      <trkpt lat="50.04458" lon="4.37777">
        <ele>256.8</ele>
        <time>2024-03-17T10:17:03Z</time>
      </trkpt>
      <trkpt lat="50.04467" lon="4.37778">
        <ele>256.8</ele>
        <time>2024-03-17T10:17:04Z</time>
      </trkpt>
      <trkpt lat="50.04475" lon="4.37778">
        <ele>256.6</ele>
        <time>2024-03-17T10:17:05Z</time>
      </trkpt>
      <trkpt lat="50.04484" lon="4.37779">
        <ele>256.6</ele>
        <time>2024-03-17T10:17:06Z</time>
      </trkpt>
      <trkpt lat="50.04493" lon="4.3778">
        <ele>256.6</ele>
        <time>2024-03-17T10:17:07Z</time>
      </trkpt>
      <trkpt lat="50.04502" lon="4.37781">
        <ele>256.6</ele>
        <time>2024-03-17T10:17:08Z</time>
      </trkpt>
      <trkpt lat="50.0451" lon="4.37782">
        <ele>256.6</ele>
        <time>2024-03-17T10:17:09Z</time>
      </trkpt>
      <trkpt lat="50.04519" lon="4.37783">
        <ele>256.4</ele>
        <time>2024-03-17T10:17:10Z</time>
      </trkpt>
      <trkpt lat="50.04528" lon="4.37785">
        <ele>256.2</ele>
        <time>2024-03-17T10:17:11Z</time>
      </trkpt>
      <trkpt lat="50.04537" lon="4.37787">
        <ele>256.2</ele>
        <time>2024-03-17T10:17:12Z</time>
      </trkpt>
      <trkpt lat="50.04546" lon="4.37789">
        <ele>256</ele>
        <time>2024-03-17T10:17:13Z</time>
      </trkpt>
      <trkpt lat="50.04555" lon="4.37791">
        <ele>256</ele>
        <time>2024-03-17T10:17:14Z</time>
      </trkpt>
      <trkpt lat="50.04563" lon="4.37794">
        <ele>255.8</ele>
        <time>2024-03-17T10:17:15Z</time>
      </trkpt>
      <trkpt lat="50.04572" lon="4.37796">
        <ele>255.8</ele>
        <time>2024-03-17T10:17:16Z</time>
      </trkpt>
      <trkpt lat="50.04581" lon="4.37799">
        <ele>255.6</ele>
        <time>2024-03-17T10:17:17Z</time>
      </trkpt>
      <trkpt lat="50.0459" lon="4.37802">
        <ele>255.4</ele>
        <time>2024-03-17T10:17:18Z</time>
      </trkpt>
      <trkpt lat="50.04598" lon="4.37804">
        <ele>255.4</ele>
        <time>2024-03-17T10:17:19Z</time>
      </trkpt>
      <trkpt lat="50.04607" lon="4.37807">
        <ele>255.2</ele>
        <time>2024-03-17T10:17:20Z</time>
      </trkpt>
      <trkpt lat="50.04616" lon="4.3781">
        <ele>255.4</ele>
        <time>2024-03-17T10:17:21Z</time>
      </trkpt>
      <trkpt lat="50.04625" lon="4.37813">
        <ele>255.2</ele>
        <time>2024-03-17T10:17:22Z</time>
      </trkpt>
      <trkpt lat="50.04633" lon="4.37816">
        <ele>255.4</ele>
        <time>2024-03-17T10:17:23Z</time>
      </trkpt>
      <trkpt lat="50.04642" lon="4.37819">
        <ele>255.2</ele>
        <time>2024-03-17T10:17:24Z</time>
      </trkpt>
      <trkpt lat="50.04651" lon="4.37822">
        <ele>255.2</ele>
        <time>2024-03-17T10:17:25Z</time>
      </trkpt>
      <trkpt lat="50.04659" lon="4.37824">
        <ele>255.2</ele>
        <time>2024-03-17T10:17:26Z</time>
      </trkpt>
      <trkpt lat="50.04668" lon="4.37827">
        <ele>255</ele>
        <time>2024-03-17T10:17:27Z</time>
      </trkpt>
      <trkpt lat="50.04677" lon="4.3783">
        <ele>254.8</ele>
        <time>2024-03-17T10:17:28Z</time>
      </trkpt>
      <trkpt lat="50.04685" lon="4.37833">
        <ele>254.8</ele>
        <time>2024-03-17T10:17:29Z</time>
      </trkpt>
      <trkpt lat="50.04694" lon="4.37836">
        <ele>254.8</ele>
        <time>2024-03-17T10:17:30Z</time>
      </trkpt>
      <trkpt lat="50.04703" lon="4.37838">
        <ele>254.8</ele>
        <time>2024-03-17T10:17:31Z</time>
      </trkpt>
      <trkpt lat="50.04711" lon="4.37841">
        <ele>254.8</ele>
        <time>2024-03-17T10:17:32Z</time>
      </trkpt>
      <trkpt lat="50.04719" lon="4.37843">
        <ele>254.8</ele>
        <time>2024-03-17T10:17:33Z</time>
      </trkpt>
      <trkpt lat="50.04728" lon="4.37845">
        <ele>254.8</ele>
        <time>2024-03-17T10:17:34Z</time>
      </trkpt>
      <trkpt lat="50.04736" lon="4.37847">
        <ele>254.8</ele>
        <time>2024-03-17T10:17:35Z</time>
      </trkpt>
      <trkpt lat="50.04745" lon="4.37848">
        <ele>254.8</ele>
        <time>2024-03-17T10:17:36Z</time>
      </trkpt>
      <trkpt lat="50.04753" lon="4.3785">
        <ele>254.8</ele>
        <time>2024-03-17T10:17:37Z</time>
      </trkpt>
      <trkpt lat="50.04762" lon="4.37851">
        <ele>254.8</ele>
        <time>2024-03-17T10:17:38Z</time>
      </trkpt>
      <trkpt lat="50.0477" lon="4.37852">
        <ele>254.8</ele>
        <time>2024-03-17T10:17:39Z</time>
      </trkpt>
      <trkpt lat="50.04779" lon="4.37853">
        <ele>254.8</ele>
        <time>2024-03-17T10:17:40Z</time>
      </trkpt>
      <trkpt lat="50.04787" lon="4.37853">
        <ele>254.8</ele>
        <time>2024-03-17T10:17:41Z</time>
      </trkpt>
      <trkpt lat="50.04796" lon="4.37854">
        <ele>254.8</ele>
        <time>2024-03-17T10:17:42Z</time>
      </trkpt>
      <trkpt lat="50.04804" lon="4.37854">
        <ele>254.8</ele>
        <time>2024-03-17T10:17:43Z</time>
      </trkpt>
      <trkpt lat="50.04812" lon="4.37853">
        <ele>254.8</ele>
        <time>2024-03-17T10:17:44Z</time>
      </trkpt>
      <trkpt lat="50.04821" lon="4.37853">
        <ele>254.8</ele>
        <time>2024-03-17T10:17:45Z</time>
      </trkpt>
      <trkpt lat="50.04829" lon="4.37852">
        <ele>254.6</ele>
        <time>2024-03-17T10:17:46Z</time>
      </trkpt>
      <trkpt lat="50.04838" lon="4.37851">
        <ele>254.6</ele>
        <time>2024-03-17T10:17:47Z</time>
      </trkpt>
      <trkpt lat="50.04846" lon="4.3785">
        <ele>254.6</ele>
        <time>2024-03-17T10:17:48Z</time>
      </trkpt>
      <trkpt lat="50.04854" lon="4.37849">
        <ele>254.8</ele>
        <time>2024-03-17T10:17:49Z</time>
      </trkpt>
      <trkpt lat="50.04863" lon="4.37848">
        <ele>254.6</ele>
        <time>2024-03-17T10:17:50Z</time>
      </trkpt>
      <trkpt lat="50.04871" lon="4.37847">
        <ele>254.6</ele>
        <time>2024-03-17T10:17:51Z</time>
      </trkpt>
      <trkpt lat="50.0488" lon="4.37846">
        <ele>254.6</ele>
        <time>2024-03-17T10:17:52Z</time>
      </trkpt>
      <trkpt lat="50.04888" lon="4.37844">
        <ele>254.6</ele>
        <time>2024-03-17T10:17:53Z</time>
      </trkpt>
      <trkpt lat="50.04897" lon="4.37843">
        <ele>254.6</ele>
        <time>2024-03-17T10:17:54Z</time>
      </trkpt>
      <trkpt lat="50.04905" lon="4.37842">
        <ele>254.4</ele>
        <time>2024-03-17T10:17:55Z</time>
      </trkpt>
      <trkpt lat="50.04914" lon="4.37841">
        <ele>254.4</ele>
        <time>2024-03-17T10:17:56Z</time>
      </trkpt>
      <trkpt lat="50.04922" lon="4.3784">
        <ele>254.4</ele>
        <time>2024-03-17T10:17:57Z</time>
      </trkpt>
      <trkpt lat="50.04931" lon="4.37839">
        <ele>254.6</ele>
        <time>2024-03-17T10:17:58Z</time>
      </trkpt>
      <trkpt lat="50.0494" lon="4.37837">
        <ele>254.4</ele>
        <time>2024-03-17T10:17:59Z</time>
      </trkpt>
      <trkpt lat="50.04949" lon="4.37836">
        <ele>254.4</ele>
        <time>2024-03-17T10:18:00Z</time>
      </trkpt>
      <trkpt lat="50.04958" lon="4.37835">
        <ele>254.2</ele>
        <time>2024-03-17T10:18:01Z</time>
      </trkpt>
      <trkpt lat="50.04967" lon="4.37834">
        <ele>254.4</ele>
        <time>2024-03-17T10:18:02Z</time>
      </trkpt>
      <trkpt lat="50.04976" lon="4.37833">
        <ele>254.4</ele>
        <time>2024-03-17T10:18:03Z</time>
      </trkpt>
      <trkpt lat="50.04985" lon="4.37832">
        <ele>254.2</ele>
        <time>2024-03-17T10:18:04Z</time>
      </trkpt>
      <trkpt lat="50.04994" lon="4.3783">
        <ele>254.2</ele>
        <time>2024-03-17T10:18:05Z</time>
      </trkpt>
      <trkpt lat="50.05004" lon="4.37829">
        <ele>254.2</ele>
        <time>2024-03-17T10:18:06Z</time>
      </trkpt>
      <trkpt lat="50.05013" lon="4.37828">
        <ele>254.4</ele>
        <time>2024-03-17T10:18:07Z</time>
      </trkpt>
      <trkpt lat="50.05023" lon="4.37827">
        <ele>254.2</ele>
        <time>2024-03-17T10:18:08Z</time>
      </trkpt>
      <trkpt lat="50.05033" lon="4.37825">
        <ele>254</ele>
        <time>2024-03-17T10:18:09Z</time>
      </trkpt>
      <trkpt lat="50.05042" lon="4.37824">
        <ele>253.8</ele>
        <time>2024-03-17T10:18:10Z</time>
      </trkpt>
      <trkpt lat="50.05052" lon="4.37823">
        <ele>253.6</ele>
        <time>2024-03-17T10:18:11Z</time>
      </trkpt>
      <trkpt lat="50.05061" lon="4.37822">
        <ele>253.4</ele>
        <time>2024-03-17T10:18:12Z</time>
      </trkpt>
      <trkpt lat="50.05071" lon="4.3782">
        <ele>253.2</ele>
        <time>2024-03-17T10:18:13Z</time>
      </trkpt>
      <trkpt lat="50.05081" lon="4.37819">
        <ele>252.8</ele>
        <time>2024-03-17T10:18:14Z</time>
      </trkpt>
      <trkpt lat="50.0509" lon="4.37818">
        <ele>252.4</ele>
        <time>2024-03-17T10:18:15Z</time>
      </trkpt>
      <trkpt lat="50.051" lon="4.37817">
        <ele>252.4</ele>
        <time>2024-03-17T10:18:16Z</time>
      </trkpt>
      <trkpt lat="50.0511" lon="4.37816">
        <ele>252</ele>
        <time>2024-03-17T10:18:17Z</time>
      </trkpt>
      <trkpt lat="50.05119" lon="4.37814">
        <ele>251.6</ele>
        <time>2024-03-17T10:18:18Z</time>
      </trkpt>
      <trkpt lat="50.05129" lon="4.37813">
        <ele>251.2</ele>
        <time>2024-03-17T10:18:19Z</time>
      </trkpt>
      <trkpt lat="50.05139" lon="4.37812">
        <ele>251.2</ele>
        <time>2024-03-17T10:18:20Z</time>
      </trkpt>
      <trkpt lat="50.05148" lon="4.3781">
        <ele>251</ele>
        <time>2024-03-17T10:18:21Z</time>
      </trkpt>
      <trkpt lat="50.05158" lon="4.37809">
        <ele>250.8</ele>
        <time>2024-03-17T10:18:22Z</time>
      </trkpt>
      <trkpt lat="50.05167" lon="4.37808">
        <ele>250.6</ele>
        <time>2024-03-17T10:18:23Z</time>
      </trkpt>
      <trkpt lat="50.05177" lon="4.37806">
        <ele>250.2</ele>
        <time>2024-03-17T10:18:24Z</time>
      </trkpt>
      <trkpt lat="50.05187" lon="4.37805">
        <ele>249.8</ele>
        <time>2024-03-17T10:18:25Z</time>
      </trkpt>
      <trkpt lat="50.05196" lon="4.37804">
        <ele>249.8</ele>
        <time>2024-03-17T10:18:26Z</time>
      </trkpt>
      <trkpt lat="50.05206" lon="4.37802">
        <ele>249.6</ele>
        <time>2024-03-17T10:18:27Z</time>
      </trkpt>
      <trkpt lat="50.05215" lon="4.37801">
        <ele>249.2</ele>
        <time>2024-03-17T10:18:28Z</time>
      </trkpt>
      <trkpt lat="50.05225" lon="4.378">
        <ele>249.2</ele>
        <time>2024-03-17T10:18:29Z</time>
      </trkpt>
      <trkpt lat="50.05234" lon="4.37798">
        <ele>249</ele>
        <time>2024-03-17T10:18:30Z</time>
      </trkpt>
      <trkpt lat="50.05243" lon="4.37797">
        <ele>248.8</ele>
        <time>2024-03-17T10:18:31Z</time>
      </trkpt>
      <trkpt lat="50.05253" lon="4.37795">
        <ele>248.8</ele>
        <time>2024-03-17T10:18:32Z</time>
      </trkpt>
      <trkpt lat="50.05262" lon="4.37792">
        <ele>248.6</ele>
        <time>2024-03-17T10:18:33Z</time>
      </trkpt>
      <trkpt lat="50.05271" lon="4.3779">
        <ele>248.6</ele>
        <time>2024-03-17T10:18:34Z</time>
      </trkpt>
      <trkpt lat="50.05281" lon="4.37787">
        <ele>248.4</ele>
        <time>2024-03-17T10:18:35Z</time>
      </trkpt>
      <trkpt lat="50.0529" lon="4.37784">
        <ele>248.4</ele>
        <time>2024-03-17T10:18:36Z</time>
      </trkpt>
      <trkpt lat="50.05299" lon="4.37781">
        <ele>248.4</ele>
        <time>2024-03-17T10:18:37Z</time>
      </trkpt>
      <trkpt lat="50.05308" lon="4.37778">
        <ele>248.2</ele>
        <time>2024-03-17T10:18:38Z</time>
      </trkpt>
      <trkpt lat="50.05317" lon="4.37775">
        <ele>248</ele>
        <time>2024-03-17T10:18:39Z</time>
      </trkpt>
      <trkpt lat="50.05327" lon="4.37772">
        <ele>248</ele>
        <time>2024-03-17T10:18:40Z</time>
      </trkpt>
      <trkpt lat="50.05336" lon="4.37768">
        <ele>247.8</ele>
        <time>2024-03-17T10:18:41Z</time>
      </trkpt>
      <trkpt lat="50.05345" lon="4.37765">
        <ele>247.4</ele>
        <time>2024-03-17T10:18:42Z</time>
      </trkpt>
      <trkpt lat="50.05354" lon="4.37762">
        <ele>247.4</ele>
        <time>2024-03-17T10:18:43Z</time>
      </trkpt>
      <trkpt lat="50.05363" lon="4.37759">
        <ele>247.2</ele>
        <time>2024-03-17T10:18:44Z</time>
      </trkpt>
      <trkpt lat="50.05372" lon="4.37755">
        <ele>247</ele>
        <time>2024-03-17T10:18:45Z</time>
      </trkpt>
      <trkpt lat="50.05381" lon="4.37753">
        <ele>247.2</ele>
        <time>2024-03-17T10:18:46Z</time>
      </trkpt>
      <trkpt lat="50.0539" lon="4.3775">
        <ele>247</ele>
        <time>2024-03-17T10:18:47Z</time>
      </trkpt>
      <trkpt lat="50.05399" lon="4.37748">
        <ele>246.8</ele>
        <time>2024-03-17T10:18:48Z</time>
      </trkpt>
      <trkpt lat="50.05408" lon="4.37745">
        <ele>246.4</ele>
        <time>2024-03-17T10:18:49Z</time>
      </trkpt>
      <trkpt lat="50.05417" lon="4.37744">
        <ele>246</ele>
        <time>2024-03-17T10:18:50Z</time>
      </trkpt>
      <trkpt lat="50.05427" lon="4.37742">
        <ele>246</ele>
        <time>2024-03-17T10:18:51Z</time>
      </trkpt>
      <trkpt lat="50.05436" lon="4.37741">
        <ele>245.8</ele>
        <time>2024-03-17T10:18:52Z</time>
      </trkpt>
      <trkpt lat="50.05445" lon="4.37741">
        <ele>245.8</ele>
        <time>2024-03-17T10:18:53Z</time>
      </trkpt>
      <trkpt lat="50.05454" lon="4.37741">
        <ele>245.8</ele>
        <time>2024-03-17T10:18:54Z</time>
      </trkpt>
      <trkpt lat="50.05464" lon="4.37742">
        <ele>245.8</ele>
        <time>2024-03-17T10:18:55Z</time>
      </trkpt>
      <trkpt lat="50.05472" lon="4.37743">
        <ele>245.8</ele>
        <time>2024-03-17T10:18:56Z</time>
      </trkpt>
      <trkpt lat="50.0548" lon="4.37745">
        <ele>245.8</ele>
        <time>2024-03-17T10:18:57Z</time>
      </trkpt>
      <trkpt lat="50.05489" lon="4.37746">
        <ele>245.6</ele>
        <time>2024-03-17T10:18:58Z</time>
      </trkpt>
      <trkpt lat="50.05497" lon="4.37748">
        <ele>245.4</ele>
        <time>2024-03-17T10:18:59Z</time>
      </trkpt>
      <trkpt lat="50.05504" lon="4.37749">
        <ele>245.4</ele>
        <time>2024-03-17T10:19:00Z</time>
      </trkpt>
      <trkpt lat="50.05512" lon="4.3775">
        <ele>245.2</ele>
        <time>2024-03-17T10:19:01Z</time>
      </trkpt>
      <trkpt lat="50.05521" lon="4.37752">
        <ele>245</ele>
        <time>2024-03-17T10:19:02Z</time>
      </trkpt>
      <trkpt lat="50.05529" lon="4.37753">
        <ele>245</ele>
        <time>2024-03-17T10:19:03Z</time>
      </trkpt>
      <trkpt lat="50.05537" lon="4.37754">
        <ele>244.8</ele>
        <time>2024-03-17T10:19:04Z</time>
      </trkpt>
      <trkpt lat="50.05545" lon="4.37755">
        <ele>244.8</ele>
        <time>2024-03-17T10:19:05Z</time>
      </trkpt>
      <trkpt lat="50.05553" lon="4.37756">
        <ele>244.6</ele>
        <time>2024-03-17T10:19:06Z</time>
      </trkpt>
      <trkpt lat="50.05562" lon="4.37758">
        <ele>244.6</ele>
        <time>2024-03-17T10:19:07Z</time>
      </trkpt>
      <trkpt lat="50.0557" lon="4.37759">
        <ele>244.6</ele>
        <time>2024-03-17T10:19:08Z</time>
      </trkpt>
      <trkpt lat="50.05578" lon="4.3776">
        <ele>244.6</ele>
        <time>2024-03-17T10:19:09Z</time>
      </trkpt>
      <trkpt lat="50.05587" lon="4.37761">
        <ele>244.4</ele>
        <time>2024-03-17T10:19:10Z</time>
      </trkpt>
      <trkpt lat="50.05595" lon="4.37761">
        <ele>244.4</ele>
        <time>2024-03-17T10:19:11Z</time>
      </trkpt>
      <trkpt lat="50.05604" lon="4.37761">
        <ele>244.4</ele>
        <time>2024-03-17T10:19:12Z</time>
      </trkpt>
      <trkpt lat="50.05612" lon="4.3776">
        <ele>244.2</ele>
        <time>2024-03-17T10:19:13Z</time>
      </trkpt>
      <trkpt lat="50.05621" lon="4.3776">
        <ele>244</ele>
        <time>2024-03-17T10:19:14Z</time>
      </trkpt>
      <trkpt lat="50.0563" lon="4.37759">
        <ele>243.8</ele>
        <time>2024-03-17T10:19:15Z</time>
      </trkpt>
      <trkpt lat="50.05638" lon="4.37757">
        <ele>243.8</ele>
        <time>2024-03-17T10:19:16Z</time>
      </trkpt>
      <trkpt lat="50.05647" lon="4.37755">
        <ele>243.8</ele>
        <time>2024-03-17T10:19:17Z</time>
      </trkpt>
      <trkpt lat="50.05656" lon="4.37753">
        <ele>243.4</ele>
        <time>2024-03-17T10:19:18Z</time>
      </trkpt>
      <trkpt lat="50.05664" lon="4.37751">
        <ele>243.4</ele>
        <time>2024-03-17T10:19:19Z</time>
      </trkpt>
      <trkpt lat="50.05673" lon="4.37748">
        <ele>243.4</ele>
        <time>2024-03-17T10:19:20Z</time>
      </trkpt>
      <trkpt lat="50.05681" lon="4.37745">
        <ele>243.4</ele>
        <time>2024-03-17T10:19:21Z</time>
      </trkpt>
      <trkpt lat="50.0569" lon="4.37742">
        <ele>243.2</ele>
        <time>2024-03-17T10:19:22Z</time>
      </trkpt>
      <trkpt lat="50.05698" lon="4.37738">
        <ele>242.8</ele>
        <time>2024-03-17T10:19:23Z</time>
      </trkpt>
      <trkpt lat="50.05707" lon="4.37733">
        <ele>242.8</ele>
        <time>2024-03-17T10:19:24Z</time>
      </trkpt>
      <trkpt lat="50.05715" lon="4.37729">
        <ele>242.6</ele>
        <time>2024-03-17T10:19:25Z</time>
      </trkpt>
      <trkpt lat="50.05723" lon="4.37723">
        <ele>242.6</ele>
        <time>2024-03-17T10:19:26Z</time>
      </trkpt>
      <trkpt lat="50.05731" lon="4.37718">
        <ele>242.6</ele>
        <time>2024-03-17T10:19:27Z</time>
      </trkpt>
      <trkpt lat="50.05739" lon="4.37712">
        <ele>242.4</ele>
        <time>2024-03-17T10:19:28Z</time>
      </trkpt>
      <trkpt lat="50.05747" lon="4.37705">
        <ele>242.4</ele>
        <time>2024-03-17T10:19:29Z</time>
      </trkpt>
      <trkpt lat="50.05755" lon="4.37698">
        <ele>242.2</ele>
        <time>2024-03-17T10:19:30Z</time>
      </trkpt>
      <trkpt lat="50.05763" lon="4.37691">
        <ele>242.2</ele>
        <time>2024-03-17T10:19:31Z</time>
      </trkpt>
      <trkpt lat="50.0577" lon="4.37683">
        <ele>242</ele>
        <time>2024-03-17T10:19:32Z</time>
      </trkpt>
      <trkpt lat="50.05778" lon="4.37676">
        <ele>242</ele>
        <time>2024-03-17T10:19:33Z</time>
      </trkpt>
      <trkpt lat="50.05787" lon="4.37669">
        <ele>242.2</ele>
        <time>2024-03-17T10:19:34Z</time>
      </trkpt>
      <trkpt lat="50.05795" lon="4.37662">
        <ele>241.8</ele>
        <time>2024-03-17T10:19:35Z</time>
      </trkpt>
      <trkpt lat="50.05803" lon="4.37655">
        <ele>242</ele>
        <time>2024-03-17T10:19:36Z</time>
      </trkpt>
      <trkpt lat="50.05811" lon="4.37648">
        <ele>241.8</ele>
        <time>2024-03-17T10:19:37Z</time>
      </trkpt>
      <trkpt lat="50.05819" lon="4.37641">
        <ele>241.6</ele>
        <time>2024-03-17T10:19:38Z</time>
      </trkpt>
      <trkpt lat="50.05827" lon="4.37635">
        <ele>241.6</ele>
        <time>2024-03-17T10:19:39Z</time>
      </trkpt>
      <trkpt lat="50.05836" lon="4.3763">
        <ele>241.2</ele>
        <time>2024-03-17T10:19:40Z</time>
      </trkpt>
      <trkpt lat="50.05844" lon="4.37624">
        <ele>241.2</ele>
        <time>2024-03-17T10:19:41Z</time>
      </trkpt>
      <trkpt lat="50.05853" lon="4.3762">
        <ele>241</ele>
        <time>2024-03-17T10:19:42Z</time>
      </trkpt>
      <trkpt lat="50.05862" lon="4.37615">
        <ele>240.6</ele>
        <time>2024-03-17T10:19:43Z</time>
      </trkpt>
      <trkpt lat="50.05871" lon="4.37611">
        <ele>240.4</ele>
        <time>2024-03-17T10:19:44Z</time>
      </trkpt>
      <trkpt lat="50.0588" lon="4.37607">
        <ele>240.4</ele>
        <time>2024-03-17T10:19:45Z</time>
      </trkpt>
      <trkpt lat="50.0589" lon="4.37603">
        <ele>240.2</ele>
        <time>2024-03-17T10:19:46Z</time>
      </trkpt>
      <trkpt lat="50.05899" lon="4.376">
        <ele>240.2</ele>
        <time>2024-03-17T10:19:47Z</time>
      </trkpt>
      <trkpt lat="50.05909" lon="4.37598">
        <ele>240</ele>
        <time>2024-03-17T10:19:48Z</time>
      </trkpt>
      <trkpt lat="50.05918" lon="4.37595">
        <ele>240</ele>
        <time>2024-03-17T10:19:49Z</time>
      </trkpt>
      <trkpt lat="50.05928" lon="4.37593">
        <ele>239.8</ele>
        <time>2024-03-17T10:19:50Z</time>
      </trkpt>
      <trkpt lat="50.05938" lon="4.37591">
        <ele>239.6</ele>
        <time>2024-03-17T10:19:51Z</time>
      </trkpt>
      <trkpt lat="50.05948" lon="4.37589">
        <ele>239.2</ele>
        <time>2024-03-17T10:19:52Z</time>
      </trkpt>
      <trkpt lat="50.05958" lon="4.37587">
        <ele>238.8</ele>
        <time>2024-03-17T10:19:53Z</time>
      </trkpt>
      <trkpt lat="50.05968" lon="4.37585">
        <ele>238.4</ele>
        <time>2024-03-17T10:19:54Z</time>
      </trkpt>
      <trkpt lat="50.05978" lon="4.37583">
        <ele>238</ele>
        <time>2024-03-17T10:19:55Z</time>
      </trkpt>
      <trkpt lat="50.05987" lon="4.3758">
        <ele>237</ele>
        <time>2024-03-17T10:19:56Z</time>
      </trkpt>
      <trkpt lat="50.05997" lon="4.37578">
        <ele>236.4</ele>
        <time>2024-03-17T10:19:57Z</time>
      </trkpt>
      <trkpt lat="50.06007" lon="4.37576">
        <ele>236.2</ele>
        <time>2024-03-17T10:19:58Z</time>
      </trkpt>
      <trkpt lat="50.06018" lon="4.37574">
        <ele>235.6</ele>
        <time>2024-03-17T10:19:59Z</time>
      </trkpt>
      <trkpt lat="50.06028" lon="4.37573">
        <ele>235.2</ele>
        <time>2024-03-17T10:20:00Z</time>
      </trkpt>
      <trkpt lat="50.06039" lon="4.37574">
        <ele>234.6</ele>
        <time>2024-03-17T10:20:01Z</time>
      </trkpt>
      <trkpt lat="50.06049" lon="4.37577">
        <ele>234</ele>
        <time>2024-03-17T10:20:02Z</time>
      </trkpt>
      <trkpt lat="50.0606" lon="4.37583">
        <ele>234</ele>
        <time>2024-03-17T10:20:03Z</time>
      </trkpt>
      <trkpt lat="50.06071" lon="4.3759">
        <ele>233.6</ele>
        <time>2024-03-17T10:20:04Z</time>
      </trkpt>
      <trkpt lat="50.06081" lon="4.37598">
        <ele>233.4</ele>
        <time>2024-03-17T10:20:05Z</time>
      </trkpt>
      <trkpt lat="50.06091" lon="4.37608">
        <ele>232.4</ele>
        <time>2024-03-17T10:20:06Z</time>
      </trkpt>
      <trkpt lat="50.061" lon="4.3762">
        <ele>232.2</ele>
        <time>2024-03-17T10:20:07Z</time>
      </trkpt>
      <trkpt lat="50.06108" lon="4.37633">
        <ele>231</ele>
        <time>2024-03-17T10:20:08Z</time>
      </trkpt>
      <trkpt lat="50.06116" lon="4.37647">
        <ele>230</ele>
        <time>2024-03-17T10:20:09Z</time>
      </trkpt>
      <trkpt lat="50.06123" lon="4.37661">
        <ele>228.8</ele>
        <time>2024-03-17T10:20:10Z</time>
      </trkpt>
      <trkpt lat="50.06131" lon="4.37676">
        <ele>227.8</ele>
        <time>2024-03-17T10:20:11Z</time>
      </trkpt>
      <trkpt lat="50.06138" lon="4.37691">
        <ele>226</ele>
        <time>2024-03-17T10:20:12Z</time>
      </trkpt>
      <trkpt lat="50.06145" lon="4.37706">
        <ele>224.4</ele>
        <time>2024-03-17T10:20:13Z</time>
      </trkpt>
      <trkpt lat="50.06151" lon="4.37722">
        <ele>223</ele>
        <time>2024-03-17T10:20:14Z</time>
      </trkpt>
      <trkpt lat="50.06157" lon="4.37738">
        <ele>221.8</ele>
        <time>2024-03-17T10:20:15Z</time>
      </trkpt>
      <trkpt lat="50.06163" lon="4.37754">
        <ele>220.6</ele>
        <time>2024-03-17T10:20:16Z</time>
      </trkpt>
      <trkpt lat="50.06168" lon="4.3777">
        <ele>219.8</ele>
        <time>2024-03-17T10:20:17Z</time>
      </trkpt>
      <trkpt lat="50.06173" lon="4.37786">
        <ele>219</ele>
        <time>2024-03-17T10:20:18Z</time>
      </trkpt>
      <trkpt lat="50.06178" lon="4.37801">
        <ele>218.4</ele>
        <time>2024-03-17T10:20:19Z</time>
      </trkpt>
      <trkpt lat="50.06183" lon="4.37816">
        <ele>217.2</ele>
        <time>2024-03-17T10:20:20Z</time>
      </trkpt>
      <trkpt lat="50.06189" lon="4.3783">
        <ele>216.2</ele>
        <time>2024-03-17T10:20:21Z</time>
      </trkpt>
      <trkpt lat="50.06196" lon="4.37842">
        <ele>216.2</ele>
        <time>2024-03-17T10:20:22Z</time>
      </trkpt>
      <trkpt lat="50.06204" lon="4.37853">
        <ele>215.2</ele>
        <time>2024-03-17T10:20:23Z</time>
      </trkpt>
      <trkpt lat="50.06212" lon="4.37864">
        <ele>214.2</ele>
        <time>2024-03-17T10:20:24Z</time>
      </trkpt>
      <trkpt lat="50.06221" lon="4.37873">
        <ele>213</ele>
        <time>2024-03-17T10:20:25Z</time>
      </trkpt>
      <trkpt lat="50.0623" lon="4.37882">
        <ele>212.2</ele>
        <time>2024-03-17T10:20:26Z</time>
      </trkpt>
      <trkpt lat="50.0624" lon="4.3789">
        <ele>211.6</ele>
        <time>2024-03-17T10:20:27Z</time>
      </trkpt>
      <trkpt lat="50.0625" lon="4.37899">
        <ele>211</ele>
        <time>2024-03-17T10:20:28Z</time>
      </trkpt>
      <trkpt lat="50.0626" lon="4.37907">
        <ele>210.6</ele>
        <time>2024-03-17T10:20:29Z</time>
      </trkpt>
      <trkpt lat="50.0627" lon="4.37916">
        <ele>210.2</ele>
        <time>2024-03-17T10:20:30Z</time>
      </trkpt>
      <trkpt lat="50.0628" lon="4.37924">
        <ele>210</ele>
        <time>2024-03-17T10:20:31Z</time>
      </trkpt>
      <trkpt lat="50.06289" lon="4.37933">
        <ele>209.4</ele>
        <time>2024-03-17T10:20:32Z</time>
      </trkpt>
      <trkpt lat="50.06298" lon="4.3794">
        <ele>208.6</ele>
        <time>2024-03-17T10:20:33Z</time>
      </trkpt>
      <trkpt lat="50.06306" lon="4.37948">
        <ele>207.4</ele>
        <time>2024-03-17T10:20:34Z</time>
      </trkpt>
      <trkpt lat="50.06314" lon="4.37954">
        <ele>206.2</ele>
        <time>2024-03-17T10:20:35Z</time>
      </trkpt>
      <trkpt lat="50.06322" lon="4.3796">
        <ele>204.8</ele>
        <time>2024-03-17T10:20:36Z</time>
      </trkpt>
      <trkpt lat="50.06329" lon="4.37963">
        <ele>203.4</ele>
        <time>2024-03-17T10:20:37Z</time>
      </trkpt>
      <trkpt lat="50.06337" lon="4.37963">
        <ele>202.2</ele>
        <time>2024-03-17T10:20:38Z</time>
      </trkpt>
      <trkpt lat="50.06345" lon="4.37961">
        <ele>202.2</ele>
        <time>2024-03-17T10:20:39Z</time>
      </trkpt>
      <trkpt lat="50.06351" lon="4.37956">
        <ele>201.2</ele>
        <time>2024-03-17T10:20:40Z</time>
      </trkpt>
      <trkpt lat="50.06357" lon="4.37949">
        <ele>200.2</ele>
        <time>2024-03-17T10:20:41Z</time>
      </trkpt>
      <trkpt lat="50.06362" lon="4.3794">
        <ele>199.4</ele>
        <time>2024-03-17T10:20:42Z</time>
      </trkpt>
      <trkpt lat="50.06366" lon="4.3793">
        <ele>198.6</ele>
        <time>2024-03-17T10:20:43Z</time>
      </trkpt>
      <trkpt lat="50.06371" lon="4.3792">
        <ele>197.6</ele>
        <time>2024-03-17T10:20:44Z</time>
      </trkpt>
      <trkpt lat="50.06376" lon="4.3791">
        <ele>197.2</ele>
        <time>2024-03-17T10:20:45Z</time>
      </trkpt>
      <trkpt lat="50.06381" lon="4.379">
        <ele>196.8</ele>
        <time>2024-03-17T10:20:46Z</time>
      </trkpt>
      <trkpt lat="50.06386" lon="4.3789">
        <ele>196.6</ele>
        <time>2024-03-17T10:20:47Z</time>
      </trkpt>
      <trkpt lat="50.06391" lon="4.37881">
        <ele>196</ele>
        <time>2024-03-17T10:20:48Z</time>
      </trkpt>
      <trkpt lat="50.06396" lon="4.37871">
        <ele>195.4</ele>
        <time>2024-03-17T10:20:49Z</time>
      </trkpt>
      <trkpt lat="50.06402" lon="4.37863">
        <ele>195</ele>
        <time>2024-03-17T10:20:50Z</time>
      </trkpt>
      <trkpt lat="50.06407" lon="4.37857">
        <ele>194.4</ele>
        <time>2024-03-17T10:20:51Z</time>
      </trkpt>
      <trkpt lat="50.06414" lon="4.37853">
        <ele>194.2</ele>
        <time>2024-03-17T10:20:52Z</time>
      </trkpt>
      <trkpt lat="50.0642" lon="4.37853">
        <ele>193.2</ele>
        <time>2024-03-17T10:20:53Z</time>
      </trkpt>
      <trkpt lat="50.06425" lon="4.37856">
        <ele>192.4</ele>
        <time>2024-03-17T10:20:54Z</time>
      </trkpt>
      <trkpt lat="50.06429" lon="4.37862">
        <ele>191.6</ele>
        <time>2024-03-17T10:20:55Z</time>
      </trkpt>
      <trkpt lat="50.06434" lon="4.37868">
        <ele>190.6</ele>
        <time>2024-03-17T10:20:56Z</time>
      </trkpt>
      <trkpt lat="50.06439" lon="4.37875">
        <ele>190</ele>
        <time>2024-03-17T10:20:57Z</time>
      </trkpt>
      <trkpt lat="50.06445" lon="4.37882">
        <ele>189.6</ele>
        <time>2024-03-17T10:20:58Z</time>
      </trkpt>
      <trkpt lat="50.0645" lon="4.37889">
        <ele>189.2</ele>
        <time>2024-03-17T10:20:59Z</time>
      </trkpt>
      <trkpt lat="50.06456" lon="4.37896">
        <ele>189.2</ele>
        <time>2024-03-17T10:21:00Z</time>
      </trkpt>
      <trkpt lat="50.06462" lon="4.37903">
        <ele>189</ele>
        <time>2024-03-17T10:21:01Z</time>
      </trkpt>
      <trkpt lat="50.06468" lon="4.3791">
        <ele>188.8</ele>
        <time>2024-03-17T10:21:02Z</time>
      </trkpt>
      <trkpt lat="50.06474" lon="4.37917">
        <ele>188.6</ele>
        <time>2024-03-17T10:21:03Z</time>
      </trkpt>
      <trkpt lat="50.0648" lon="4.37925">
        <ele>188.6</ele>
        <time>2024-03-17T10:21:04Z</time>
      </trkpt>
      <trkpt lat="50.06486" lon="4.37931">
        <ele>188.6</ele>
        <time>2024-03-17T10:21:05Z</time>
      </trkpt>
      <trkpt lat="50.06492" lon="4.37938">
        <ele>188.6</ele>
        <time>2024-03-17T10:21:06Z</time>
      </trkpt>
      <trkpt lat="50.06499" lon="4.37945">
        <ele>188.4</ele>
        <time>2024-03-17T10:21:07Z</time>
      </trkpt>
      <trkpt lat="50.06505" lon="4.37952">
        <ele>188.4</ele>
        <time>2024-03-17T10:21:08Z</time>
      </trkpt>
      <trkpt lat="50.06512" lon="4.37958">
        <ele>188.4</ele>
        <time>2024-03-17T10:21:09Z</time>
      </trkpt>
      <trkpt lat="50.06519" lon="4.37964">
        <ele>188.2</ele>
        <time>2024-03-17T10:21:10Z</time>
      </trkpt>
      <trkpt lat="50.06526" lon="4.3797">
        <ele>188.2</ele>
        <time>2024-03-17T10:21:11Z</time>
      </trkpt>
      <trkpt lat="50.06533" lon="4.37973">
        <ele>188.2</ele>
        <time>2024-03-17T10:21:12Z</time>
      </trkpt>
      <trkpt lat="50.0654" lon="4.37977">
        <ele>188.2</ele>
        <time>2024-03-17T10:21:13Z</time>
      </trkpt>
      <trkpt lat="50.06547" lon="4.3798">
        <ele>188.2</ele>
        <time>2024-03-17T10:21:14Z</time>
      </trkpt>
      <trkpt lat="50.06554" lon="4.37982">
        <ele>188.2</ele>
        <time>2024-03-17T10:21:15Z</time>
      </trkpt>
      <trkpt lat="50.06561" lon="4.37984">
        <ele>188</ele>
        <time>2024-03-17T10:21:16Z</time>
      </trkpt>
      <trkpt lat="50.06567" lon="4.37985">
        <ele>188</ele>
        <time>2024-03-17T10:21:17Z</time>
      </trkpt>
      <trkpt lat="50.06574" lon="4.37986">
        <ele>188.2</ele>
        <time>2024-03-17T10:21:18Z</time>
      </trkpt>
      <trkpt lat="50.06581" lon="4.37987">
        <ele>188</ele>
        <time>2024-03-17T10:21:19Z</time>
      </trkpt>
      <trkpt lat="50.06587" lon="4.37988">
        <ele>188.2</ele>
        <time>2024-03-17T10:21:20Z</time>
      </trkpt>
      <trkpt lat="50.06594" lon="4.37988">
        <ele>188.2</ele>
        <time>2024-03-17T10:21:21Z</time>
      </trkpt>
      <trkpt lat="50.06601" lon="4.37988">
        <ele>188.2</ele>
        <time>2024-03-17T10:21:22Z</time>
      </trkpt>
      <trkpt lat="50.06607" lon="4.37987">
        <ele>188.4</ele>
        <time>2024-03-17T10:21:23Z</time>
      </trkpt>
      <trkpt lat="50.06614" lon="4.37986">
        <ele>188.4</ele>
        <time>2024-03-17T10:21:24Z</time>
      </trkpt>
      <trkpt lat="50.0662" lon="4.37985">
        <ele>188.4</ele>
        <time>2024-03-17T10:21:25Z</time>
      </trkpt>
      <trkpt lat="50.06627" lon="4.37984">
        <ele>188.8</ele>
        <time>2024-03-17T10:21:26Z</time>
      </trkpt>
      <trkpt lat="50.06633" lon="4.37982">
        <ele>188.8</ele>
        <time>2024-03-17T10:21:27Z</time>
      </trkpt>
      <trkpt lat="50.06639" lon="4.37981">
        <ele>189.2</ele>
        <time>2024-03-17T10:21:28Z</time>
      </trkpt>
      <trkpt lat="50.06645" lon="4.37979">
        <ele>189.4</ele>
        <time>2024-03-17T10:21:29Z</time>
      </trkpt>
      <trkpt lat="50.06652" lon="4.37978">
        <ele>189.8</ele>
        <time>2024-03-17T10:21:30Z</time>
      </trkpt>
      <trkpt lat="50.06658" lon="4.37978">
        <ele>189.8</ele>
        <time>2024-03-17T10:21:31Z</time>
      </trkpt>
      <trkpt lat="50.06663" lon="4.37979">
        <ele>189.8</ele>
        <time>2024-03-17T10:21:32Z</time>
      </trkpt>
      <trkpt lat="50.06669" lon="4.37981">
        <ele>189.8</ele>
        <time>2024-03-17T10:21:33Z</time>
      </trkpt>
      <trkpt lat="50.06674" lon="4.37984">
        <ele>189.8</ele>
        <time>2024-03-17T10:21:34Z</time>
      </trkpt>
      <trkpt lat="50.06679" lon="4.37987">
        <ele>189.8</ele>
        <time>2024-03-17T10:21:35Z</time>
      </trkpt>
      <trkpt lat="50.06684" lon="4.37986">
        <ele>190</ele>
        <time>2024-03-17T10:21:36Z</time>
      </trkpt>
      <trkpt lat="50.06687" lon="4.37982">
        <ele>190.2</ele>
        <time>2024-03-17T10:21:37Z</time>
      </trkpt>
      <trkpt lat="50.0669" lon="4.37977">
        <ele>190</ele>
        <time>2024-03-17T10:21:38Z</time>
      </trkpt>
      <trkpt lat="50.06693" lon="4.3797">
        <ele>190</ele>
        <time>2024-03-17T10:21:39Z</time>
      </trkpt>
      <trkpt lat="50.06695" lon="4.37962">
        <ele>190.2</ele>
        <time>2024-03-17T10:21:40Z</time>
      </trkpt>
      <trkpt lat="50.06698" lon="4.37956">
        <ele>190</ele>
        <time>2024-03-17T10:21:41Z</time>
      </trkpt>
      <trkpt lat="50.06702" lon="4.37951">
        <ele>190</ele>
        <time>2024-03-17T10:21:42Z</time>
      </trkpt>
      <trkpt lat="50.06706" lon="4.37948">
        <ele>190</ele>
        <time>2024-03-17T10:21:43Z</time>
      </trkpt>
      <trkpt lat="50.06711" lon="4.37947">
        <ele>190.2</ele>
        <time>2024-03-17T10:21:44Z</time>
      </trkpt>
      <trkpt lat="50.06715" lon="4.37947">
        <ele>190.2</ele>
        <time>2024-03-17T10:21:45Z</time>
      </trkpt>
      <trkpt lat="50.0672" lon="4.37948">
        <ele>190.2</ele>
        <time>2024-03-17T10:21:46Z</time>
      </trkpt>
      <trkpt lat="50.06725" lon="4.37949">
        <ele>190.4</ele>
        <time>2024-03-17T10:21:47Z</time>
      </trkpt>
      <trkpt lat="50.0673" lon="4.37951">
        <ele>190.4</ele>
        <time>2024-03-17T10:21:48Z</time>
      </trkpt>
      <trkpt lat="50.06734" lon="4.37952">
        <ele>190.4</ele>
        <time>2024-03-17T10:21:49Z</time>
      </trkpt>
      <trkpt lat="50.06739" lon="4.37954">
        <ele>190.6</ele>
        <time>2024-03-17T10:21:50Z</time>
      </trkpt>
      <trkpt lat="50.06744" lon="4.37955">
        <ele>190.6</ele>
        <time>2024-03-17T10:21:51Z</time>
      </trkpt>
      <trkpt lat="50.06749" lon="4.37956">
        <ele>190.6</ele>
        <time>2024-03-17T10:21:52Z</time>
      </trkpt>
      <trkpt lat="50.06753" lon="4.37957">
        <ele>190.8</ele>
        <time>2024-03-17T10:21:53Z</time>
      </trkpt>
      <trkpt lat="50.06758" lon="4.37958">
        <ele>191</ele>
        <time>2024-03-17T10:21:54Z</time>
      </trkpt>
      <trkpt lat="50.06762" lon="4.37959">
        <ele>191.4</ele>
        <time>2024-03-17T10:21:55Z</time>
      </trkpt>
      <trkpt lat="50.06766" lon="4.3796">
        <ele>191.4</ele>
        <time>2024-03-17T10:21:56Z</time>
      </trkpt>
      <trkpt lat="50.0677" lon="4.37961">
        <ele>191.6</ele>
        <time>2024-03-17T10:21:57Z</time>
      </trkpt>
      <trkpt lat="50.06774" lon="4.37962">
        <ele>191.8</ele>
        <time>2024-03-17T10:21:58Z</time>
      </trkpt>
      <trkpt lat="50.06778" lon="4.37962">
        <ele>191.8</ele>
        <time>2024-03-17T10:21:59Z</time>
      </trkpt>
      <trkpt lat="50.06781" lon="4.37962">
        <ele>192.2</ele>
        <time>2024-03-17T10:22:00Z</time>
      </trkpt>
      <trkpt lat="50.06785" lon="4.37961">
        <ele>192.6</ele>
        <time>2024-03-17T10:22:01Z</time>
      </trkpt>
      <trkpt lat="50.06788" lon="4.3796">
        <ele>193.4</ele>
        <time>2024-03-17T10:22:02Z</time>
      </trkpt>
      <trkpt lat="50.06791" lon="4.37958">
        <ele>193.8</ele>
        <time>2024-03-17T10:22:03Z</time>
      </trkpt>
      <trkpt lat="50.06794" lon="4.37956">
        <ele>194.2</ele>
        <time>2024-03-17T10:22:04Z</time>
      </trkpt>
      <trkpt lat="50.06797" lon="4.37954">
        <ele>194.6</ele>
        <time>2024-03-17T10:22:05Z</time>
      </trkpt>
      <trkpt lat="50.068" lon="4.37952">
        <ele>195</ele>
        <time>2024-03-17T10:22:06Z</time>
      </trkpt>
      <trkpt lat="50.06802" lon="4.37949">
        <ele>195.2</ele>
        <time>2024-03-17T10:22:07Z</time>
      </trkpt>
      <trkpt lat="50.06805" lon="4.37946">
        <ele>195.6</ele>
        <time>2024-03-17T10:22:08Z</time>
      </trkpt>
      <trkpt lat="50.06807" lon="4.37943">
        <ele>196</ele>
        <time>2024-03-17T10:22:09Z</time>
      </trkpt>
      <trkpt lat="50.06809" lon="4.3794">
        <ele>196</ele>
        <time>2024-03-17T10:22:10Z</time>
      </trkpt>
      <trkpt lat="50.06811" lon="4.37936">
        <ele>196.2</ele>
        <time>2024-03-17T10:22:11Z</time>
      </trkpt>
      <trkpt lat="50.06813" lon="4.37933">
        <ele>196.6</ele>
        <time>2024-03-17T10:22:12Z</time>
      </trkpt>
      <trkpt lat="50.06815" lon="4.37929">
        <ele>197</ele>
        <time>2024-03-17T10:22:13Z</time>
      </trkpt>
      <trkpt lat="50.06817" lon="4.37925">
        <ele>197</ele>
        <time>2024-03-17T10:22:14Z</time>
      </trkpt>
      <trkpt lat="50.06818" lon="4.37921">
        <ele>197.4</ele>
        <time>2024-03-17T10:22:15Z</time>
      </trkpt>
      <trkpt lat="50.0682" lon="4.37917">
        <ele>197.8</ele>
        <time>2024-03-17T10:22:16Z</time>
      </trkpt>
      <trkpt lat="50.06821" lon="4.37913">
        <ele>198</ele>
        <time>2024-03-17T10:22:17Z</time>
      </trkpt>
      <trkpt lat="50.06821" lon="4.37909">
        <ele>198.4</ele>
        <time>2024-03-17T10:22:18Z</time>
      </trkpt>
      <trkpt lat="50.06822" lon="4.37905">
        <ele>198.6</ele>
        <time>2024-03-17T10:22:19Z</time>
      </trkpt>
      <trkpt lat="50.06823" lon="4.37901">
        <ele>198.8</ele>
        <time>2024-03-17T10:22:20Z</time>
      </trkpt>
      <trkpt lat="50.06824" lon="4.37897">
        <ele>199.2</ele>
        <time>2024-03-17T10:22:21Z</time>
      </trkpt>
      <trkpt lat="50.06825" lon="4.37893">
        <ele>199.2</ele>
        <time>2024-03-17T10:22:22Z</time>
      </trkpt>
      <trkpt lat="50.06825" lon="4.3789">
        <ele>199.4</ele>
        <time>2024-03-17T10:22:23Z</time>
      </trkpt>
      <trkpt lat="50.06826" lon="4.37886">
        <ele>199.4</ele>
        <time>2024-03-17T10:22:24Z</time>
      </trkpt>
      <trkpt lat="50.06827" lon="4.37882">
        <ele>199.8</ele>
        <time>2024-03-17T10:22:25Z</time>
      </trkpt>
      <trkpt lat="50.06827" lon="4.37878">
        <ele>200.2</ele>
        <time>2024-03-17T10:22:26Z</time>
      </trkpt>
      <trkpt lat="50.06828" lon="4.37875">
        <ele>200.2</ele>
        <time>2024-03-17T10:22:27Z</time>
      </trkpt>
      <trkpt lat="50.06829" lon="4.37871">
        <ele>201.2</ele>
        <time>2024-03-17T10:22:28Z</time>
      </trkpt>
      <trkpt lat="50.06829" lon="4.37867">
        <ele>201.6</ele>
        <time>2024-03-17T10:22:29Z</time>
      </trkpt>
      <trkpt lat="50.0683" lon="4.37864">
        <ele>202</ele>
        <time>2024-03-17T10:22:30Z</time>
      </trkpt>
      <trkpt lat="50.06831" lon="4.3786">
        <ele>202.4</ele>
        <time>2024-03-17T10:22:31Z</time>
      </trkpt>
      <trkpt lat="50.06831" lon="4.37856">
        <ele>202.8</ele>
        <time>2024-03-17T10:22:32Z</time>
      </trkpt>
      <trkpt lat="50.06832" lon="4.37853">
        <ele>203.2</ele>
        <time>2024-03-17T10:22:33Z</time>
      </trkpt>
      <trkpt lat="50.06832" lon="4.37849">
        <ele>203.4</ele>
        <time>2024-03-17T10:22:34Z</time>
      </trkpt>
      <trkpt lat="50.06833" lon="4.37845">
        <ele>203.8</ele>
        <time>2024-03-17T10:22:35Z</time>
      </trkpt>
      <trkpt lat="50.06834" lon="4.37842">
        <ele>204</ele>
        <time>2024-03-17T10:22:36Z</time>
      </trkpt>
      <trkpt lat="50.06835" lon="4.37838">
        <ele>204.2</ele>
        <time>2024-03-17T10:22:37Z</time>
      </trkpt>
      <trkpt lat="50.06835" lon="4.37834">
        <ele>204.2</ele>
        <time>2024-03-17T10:22:38Z</time>
      </trkpt>
      <trkpt lat="50.06836" lon="4.37831">
        <ele>204.2</ele>
        <time>2024-03-17T10:22:39Z</time>
      </trkpt>
      <trkpt lat="50.06837" lon="4.37827">
        <ele>204.4</ele>
        <time>2024-03-17T10:22:40Z</time>
      </trkpt>
      <trkpt lat="50.06837" lon="4.37823">
        <ele>204.6</ele>
        <time>2024-03-17T10:22:41Z</time>
      </trkpt>
      <trkpt lat="50.06838" lon="4.3782">
        <ele>204.6</ele>
        <time>2024-03-17T10:22:42Z</time>
      </trkpt>
      <trkpt lat="50.06839" lon="4.37816">
        <ele>204.8</ele>
        <time>2024-03-17T10:22:43Z</time>
      </trkpt>
      <trkpt lat="50.06839" lon="4.37812">
        <ele>204.8</ele>
        <time>2024-03-17T10:22:44Z</time>
      </trkpt>
      <trkpt lat="50.0684" lon="4.37809">
        <ele>205</ele>
        <time>2024-03-17T10:22:45Z</time>
      </trkpt>
      <trkpt lat="50.06842" lon="4.37806">
        <ele>205.2</ele>
        <time>2024-03-17T10:22:46Z</time>
      </trkpt>
      <trkpt lat="50.06843" lon="4.37803">
        <ele>205.2</ele>
        <time>2024-03-17T10:22:47Z</time>
      </trkpt>
      <trkpt lat="50.06845" lon="4.37801">
        <ele>205.2</ele>
        <time>2024-03-17T10:22:48Z</time>
      </trkpt>
      <trkpt lat="50.06847" lon="4.378">
        <ele>205.4</ele>
        <time>2024-03-17T10:22:49Z</time>
      </trkpt>
      <trkpt lat="50.06848" lon="4.378">
        <ele>205.6</ele>
        <time>2024-03-17T10:22:50Z</time>
      </trkpt>
      <trkpt lat="50.0685" lon="4.378">
        <ele>205.8</ele>
        <time>2024-03-17T10:22:51Z</time>
      </trkpt>
      <trkpt lat="50.06851" lon="4.37801">
        <ele>206.2</ele>
        <time>2024-03-17T10:22:52Z</time>
      </trkpt>
      <trkpt lat="50.06852" lon="4.37803">
        <ele>206.4</ele>
        <time>2024-03-17T10:22:53Z</time>
      </trkpt>
      <trkpt lat="50.06854" lon="4.37805">
        <ele>206.6</ele>
        <time>2024-03-17T10:22:54Z</time>
      </trkpt>
      <trkpt lat="50.06855" lon="4.37807">
        <ele>206.8</ele>
        <time>2024-03-17T10:22:55Z</time>
      </trkpt>
      <trkpt lat="50.06856" lon="4.3781">
        <ele>207</ele>
        <time>2024-03-17T10:22:56Z</time>
      </trkpt>
      <trkpt lat="50.06857" lon="4.37813">
        <ele>207.2</ele>
        <time>2024-03-17T10:22:57Z</time>
      </trkpt>
      <trkpt lat="50.06859" lon="4.37816">
        <ele>207.6</ele>
        <time>2024-03-17T10:22:58Z</time>
      </trkpt>
      <trkpt lat="50.0686" lon="4.37819">
        <ele>207.6</ele>
        <time>2024-03-17T10:22:59Z</time>
      </trkpt>
      <trkpt lat="50.06862" lon="4.37822">
        <ele>207.8</ele>
        <time>2024-03-17T10:23:00Z</time>
      </trkpt>
      <trkpt lat="50.06863" lon="4.37825">
        <ele>208.6</ele>
        <time>2024-03-17T10:23:01Z</time>
      </trkpt>
      <trkpt lat="50.06865" lon="4.37828">
        <ele>209.2</ele>
        <time>2024-03-17T10:23:02Z</time>
      </trkpt>
      <trkpt lat="50.06866" lon="4.37831">
        <ele>210</ele>
        <time>2024-03-17T10:23:03Z</time>
      </trkpt>
      <trkpt lat="50.06868" lon="4.37834">
        <ele>210.4</ele>
        <time>2024-03-17T10:23:04Z</time>
      </trkpt>
      <trkpt lat="50.06869" lon="4.37838">
        <ele>210.8</ele>
        <time>2024-03-17T10:23:05Z</time>
      </trkpt>
      <trkpt lat="50.06871" lon="4.37841">
        <ele>211</ele>
        <time>2024-03-17T10:23:06Z</time>
      </trkpt>
      <trkpt lat="50.06872" lon="4.37843">
        <ele>211.4</ele>
        <time>2024-03-17T10:23:07Z</time>
      </trkpt>
      <trkpt lat="50.06874" lon="4.37846">
        <ele>211.6</ele>
        <time>2024-03-17T10:23:08Z</time>
      </trkpt>
      <trkpt lat="50.06876" lon="4.37849">
        <ele>211.8</ele>
        <time>2024-03-17T10:23:09Z</time>
      </trkpt>
      <trkpt lat="50.06877" lon="4.37852">
        <ele>211.8</ele>
        <time>2024-03-17T10:23:10Z</time>
      </trkpt>
      <trkpt lat="50.06879" lon="4.37855">
        <ele>212.2</ele>
        <time>2024-03-17T10:23:11Z</time>
      </trkpt>
      <trkpt lat="50.0688" lon="4.37859">
        <ele>212.4</ele>
        <time>2024-03-17T10:23:12Z</time>
      </trkpt>
      <trkpt lat="50.06882" lon="4.37862">
        <ele>212.6</ele>
        <time>2024-03-17T10:23:13Z</time>
      </trkpt>
      <trkpt lat="50.06883" lon="4.37865">
        <ele>213</ele>
        <time>2024-03-17T10:23:14Z</time>
      </trkpt>
      <trkpt lat="50.06885" lon="4.37868">
        <ele>213.2</ele>
        <time>2024-03-17T10:23:15Z</time>
      </trkpt>
      <trkpt lat="50.06886" lon="4.37871">
        <ele>213.4</ele>
        <time>2024-03-17T10:23:16Z</time>
      </trkpt>
      <trkpt lat="50.06888" lon="4.37874">
        <ele>213.6</ele>
        <time>2024-03-17T10:23:17Z</time>
      </trkpt>
      <trkpt lat="50.06889" lon="4.37876">
        <ele>213.6</ele>
        <time>2024-03-17T10:23:18Z</time>
      </trkpt>
      <trkpt lat="50.06891" lon="4.37879">
        <ele>213.6</ele>
        <time>2024-03-17T10:23:19Z</time>
      </trkpt>
      <trkpt lat="50.06893" lon="4.37882">
        <ele>213.6</ele>
        <time>2024-03-17T10:23:20Z</time>
      </trkpt>
      <trkpt lat="50.06895" lon="4.37884">
        <ele>213.8</ele>
        <time>2024-03-17T10:23:21Z</time>
      </trkpt>
      <trkpt lat="50.06897" lon="4.37887">
        <ele>214</ele>
        <time>2024-03-17T10:23:22Z</time>
      </trkpt>
      <trkpt lat="50.06899" lon="4.37889">
        <ele>214</ele>
        <time>2024-03-17T10:23:23Z</time>
      </trkpt>
      <trkpt lat="50.06901" lon="4.37891">
        <ele>214.4</ele>
        <time>2024-03-17T10:23:24Z</time>
      </trkpt>
      <trkpt lat="50.06903" lon="4.37893">
        <ele>214.6</ele>
        <time>2024-03-17T10:23:25Z</time>
      </trkpt>
      <trkpt lat="50.06905" lon="4.37895">
        <ele>214.6</ele>
        <time>2024-03-17T10:23:26Z</time>
      </trkpt>
      <trkpt lat="50.06908" lon="4.37896">
        <ele>215</ele>
        <time>2024-03-17T10:23:27Z</time>
      </trkpt>
      <trkpt lat="50.0691" lon="4.37898">
        <ele>215.2</ele>
        <time>2024-03-17T10:23:28Z</time>
      </trkpt>
      <trkpt lat="50.06912" lon="4.37899">
        <ele>215.6</ele>
        <time>2024-03-17T10:23:29Z</time>
      </trkpt>
      <trkpt lat="50.06915" lon="4.379">
        <ele>215.8</ele>
        <time>2024-03-17T10:23:30Z</time>
      </trkpt>
      <trkpt lat="50.06917" lon="4.37901">
        <ele>216</ele>
        <time>2024-03-17T10:23:31Z</time>
      </trkpt>
      <trkpt lat="50.0692" lon="4.37902">
        <ele>216.2</ele>
        <time>2024-03-17T10:23:32Z</time>
      </trkpt>
      <trkpt lat="50.06923" lon="4.37902">
        <ele>216.4</ele>
        <time>2024-03-17T10:23:33Z</time>
      </trkpt>
      <trkpt lat="50.06925" lon="4.37902">
        <ele>216.4</ele>
        <time>2024-03-17T10:23:34Z</time>
      </trkpt>
      <trkpt lat="50.06928" lon="4.37902">
        <ele>216.6</ele>
        <time>2024-03-17T10:23:35Z</time>
      </trkpt>
      <trkpt lat="50.0693" lon="4.37902">
        <ele>216.6</ele>
        <time>2024-03-17T10:23:36Z</time>
      </trkpt>
      <trkpt lat="50.06933" lon="4.37901">
        <ele>216.8</ele>
        <time>2024-03-17T10:23:37Z</time>
      </trkpt>
      <trkpt lat="50.06936" lon="4.37901">
        <ele>217</ele>
        <time>2024-03-17T10:23:38Z</time>
      </trkpt>
      <trkpt lat="50.06938" lon="4.37899">
        <ele>217.2</ele>
        <time>2024-03-17T10:23:39Z</time>
      </trkpt>
      <trkpt lat="50.06941" lon="4.37898">
        <ele>217.4</ele>
        <time>2024-03-17T10:23:40Z</time>
      </trkpt>
      <trkpt lat="50.06944" lon="4.37897">
        <ele>217.4</ele>
        <time>2024-03-17T10:23:41Z</time>
      </trkpt>
      <trkpt lat="50.06946" lon="4.37895">
        <ele>217.8</ele>
        <time>2024-03-17T10:23:42Z</time>
      </trkpt>
      <trkpt lat="50.06949" lon="4.37894">
        <ele>217.8</ele>
        <time>2024-03-17T10:23:43Z</time>
      </trkpt>
      <trkpt lat="50.06951" lon="4.37892">
        <ele>218</ele>
        <time>2024-03-17T10:23:44Z</time>
      </trkpt>
      <trkpt lat="50.06953" lon="4.37889">
        <ele>218</ele>
        <time>2024-03-17T10:23:45Z</time>
      </trkpt>
      <trkpt lat="50.06956" lon="4.37887">
        <ele>218</ele>
        <time>2024-03-17T10:23:46Z</time>
      </trkpt>
      <trkpt lat="50.06958" lon="4.37884">
        <ele>218.2</ele>
        <time>2024-03-17T10:23:47Z</time>
      </trkpt>
      <trkpt lat="50.06961" lon="4.37881">
        <ele>218.2</ele>
        <time>2024-03-17T10:23:48Z</time>
      </trkpt>
      <trkpt lat="50.06963" lon="4.37877">
        <ele>218.4</ele>
        <time>2024-03-17T10:23:49Z</time>
      </trkpt>
      <trkpt lat="50.06966" lon="4.37873">
        <ele>218.6</ele>
        <time>2024-03-17T10:23:50Z</time>
      </trkpt>
      <trkpt lat="50.06969" lon="4.37869">
        <ele>218.6</ele>
        <time>2024-03-17T10:23:51Z</time>
      </trkpt>
      <trkpt lat="50.06971" lon="4.37864">
        <ele>218.8</ele>
        <time>2024-03-17T10:23:52Z</time>
      </trkpt>
      <trkpt lat="50.06974" lon="4.3786">
        <ele>219</ele>
        <time>2024-03-17T10:23:53Z</time>
      </trkpt>
      <trkpt lat="50.06977" lon="4.37854">
        <ele>219</ele>
        <time>2024-03-17T10:23:54Z</time>
      </trkpt>
      <trkpt lat="50.0698" lon="4.37849">
        <ele>219.4</ele>
        <time>2024-03-17T10:23:55Z</time>
      </trkpt>
      <trkpt lat="50.06984" lon="4.37843">
        <ele>219.6</ele>
        <time>2024-03-17T10:23:56Z</time>
      </trkpt>
      <trkpt lat="50.06987" lon="4.37837">
        <ele>219.8</ele>
        <time>2024-03-17T10:23:57Z</time>
      </trkpt>
      <trkpt lat="50.0699" lon="4.37832">
        <ele>219.8</ele>
        <time>2024-03-17T10:23:58Z</time>
      </trkpt>
      <trkpt lat="50.06993" lon="4.37825">
        <ele>219.8</ele>
        <time>2024-03-17T10:23:59Z</time>
      </trkpt>
      <trkpt lat="50.06996" lon="4.37819">
        <ele>220</ele>
        <time>2024-03-17T10:24:00Z</time>
      </trkpt>
      <trkpt lat="50.06999" lon="4.37813">
        <ele>220</ele>
        <time>2024-03-17T10:24:01Z</time>
      </trkpt>
      <trkpt lat="50.07001" lon="4.37806">
        <ele>220</ele>
        <time>2024-03-17T10:24:02Z</time>
      </trkpt>
      <trkpt lat="50.07004" lon="4.378">
        <ele>220</ele>
        <time>2024-03-17T10:24:03Z</time>
      </trkpt>
      <trkpt lat="50.07006" lon="4.37793">
        <ele>220</ele>
        <time>2024-03-17T10:24:04Z</time>
      </trkpt>
      <trkpt lat="50.07008" lon="4.37787">
        <ele>220</ele>
        <time>2024-03-17T10:24:05Z</time>
      </trkpt>
      <trkpt lat="50.0701" lon="4.3778">
        <ele>220</ele>
        <time>2024-03-17T10:24:06Z</time>
      </trkpt>
      <trkpt lat="50.07013" lon="4.37774">
        <ele>220</ele>
        <time>2024-03-17T10:24:07Z</time>
      </trkpt>
      <trkpt lat="50.07015" lon="4.37768">
        <ele>220</ele>
        <time>2024-03-17T10:24:08Z</time>
      </trkpt>
      <trkpt lat="50.07018" lon="4.37762">
        <ele>220</ele>
        <time>2024-03-17T10:24:09Z</time>
      </trkpt>
      <trkpt lat="50.07021" lon="4.37757">
        <ele>219.8</ele>
        <time>2024-03-17T10:24:10Z</time>
      </trkpt>
      <trkpt lat="50.07025" lon="4.37753">
        <ele>219.8</ele>
        <time>2024-03-17T10:24:11Z</time>
      </trkpt>
      <trkpt lat="50.07029" lon="4.37749">
        <ele>219.6</ele>
        <time>2024-03-17T10:24:12Z</time>
      </trkpt>
      <trkpt lat="50.07033" lon="4.37745">
        <ele>219.6</ele>
        <time>2024-03-17T10:24:13Z</time>
      </trkpt>
      <trkpt lat="50.07038" lon="4.37743">
        <ele>219.8</ele>
        <time>2024-03-17T10:24:14Z</time>
      </trkpt>
      <trkpt lat="50.07043" lon="4.37741">
        <ele>219.8</ele>
        <time>2024-03-17T10:24:15Z</time>
      </trkpt>
      <trkpt lat="50.07048" lon="4.3774">
        <ele>219.8</ele>
        <time>2024-03-17T10:24:16Z</time>
      </trkpt>
      <trkpt lat="50.07053" lon="4.3774">
        <ele>219.8</ele>
        <time>2024-03-17T10:24:17Z</time>
      </trkpt>
      <trkpt lat="50.07058" lon="4.37739">
        <ele>219.6</ele>
        <time>2024-03-17T10:24:18Z</time>
      </trkpt>
      <trkpt lat="50.07062" lon="4.37738">
        <ele>219.6</ele>
        <time>2024-03-17T10:24:19Z</time>
      </trkpt>
      <trkpt lat="50.07067" lon="4.37736">
        <ele>219.6</ele>
        <time>2024-03-17T10:24:20Z</time>
      </trkpt>
      <trkpt lat="50.07072" lon="4.37734">
        <ele>219.6</ele>
        <time>2024-03-17T10:24:21Z</time>
      </trkpt>
      <trkpt lat="50.07076" lon="4.37731">
        <ele>219.6</ele>
        <time>2024-03-17T10:24:22Z</time>
      </trkpt>
      <trkpt lat="50.0708" lon="4.37727">
        <ele>219.6</ele>
        <time>2024-03-17T10:24:23Z</time>
      </trkpt>
      <trkpt lat="50.07084" lon="4.37723">
        <ele>219.8</ele>
        <time>2024-03-17T10:24:24Z</time>
      </trkpt>
      <trkpt lat="50.07087" lon="4.37718">
        <ele>219.8</ele>
        <time>2024-03-17T10:24:25Z</time>
      </trkpt>
      <trkpt lat="50.07089" lon="4.37713">
        <ele>219.8</ele>
        <time>2024-03-17T10:24:26Z</time>
      </trkpt>
      <trkpt lat="50.07092" lon="4.37707">
        <ele>220</ele>
        <time>2024-03-17T10:24:27Z</time>
      </trkpt>
      <trkpt lat="50.07093" lon="4.37701">
        <ele>219.8</ele>
        <time>2024-03-17T10:24:28Z</time>
      </trkpt>
      <trkpt lat="50.07095" lon="4.37695">
        <ele>220</ele>
        <time>2024-03-17T10:24:29Z</time>
      </trkpt>
      <trkpt lat="50.07095" lon="4.37689">
        <ele>220</ele>
        <time>2024-03-17T10:24:30Z</time>
      </trkpt>
      <trkpt lat="50.07096" lon="4.37682">
        <ele>220.4</ele>
        <time>2024-03-17T10:24:31Z</time>
      </trkpt>
      <trkpt lat="50.07097" lon="4.37676">
        <ele>220.4</ele>
        <time>2024-03-17T10:24:32Z</time>
      </trkpt>
      <trkpt lat="50.07097" lon="4.3767">
        <ele>220.8</ele>
        <time>2024-03-17T10:24:33Z</time>
      </trkpt>
      <trkpt lat="50.07097" lon="4.37664">
        <ele>221</ele>
        <time>2024-03-17T10:24:34Z</time>
      </trkpt>
      <trkpt lat="50.07097" lon="4.37658">
        <ele>221</ele>
        <time>2024-03-17T10:24:35Z</time>
      </trkpt>
      <trkpt lat="50.07097" lon="4.37652">
        <ele>221.2</ele>
        <time>2024-03-17T10:24:36Z</time>
      </trkpt>
      <trkpt lat="50.07097" lon="4.37645">
        <ele>221.4</ele>
        <time>2024-03-17T10:24:37Z</time>
      </trkpt>
      <trkpt lat="50.07097" lon="4.37639">
        <ele>221.8</ele>
        <time>2024-03-17T10:24:38Z</time>
      </trkpt>
      <trkpt lat="50.07097" lon="4.37633">
        <ele>221.8</ele>
        <time>2024-03-17T10:24:39Z</time>
      </trkpt>
      <trkpt lat="50.07097" lon="4.37627">
        <ele>222</ele>
        <time>2024-03-17T10:24:40Z</time>
      </trkpt>
      <trkpt lat="50.07097" lon="4.37621">
        <ele>222.2</ele>
        <time>2024-03-17T10:24:41Z</time>
      </trkpt>
      <trkpt lat="50.07098" lon="4.37614">
        <ele>222.6</ele>
        <time>2024-03-17T10:24:42Z</time>
      </trkpt>
      <trkpt lat="50.07097" lon="4.37608">
        <ele>222.4</ele>
        <time>2024-03-17T10:24:43Z</time>
      </trkpt>
      <trkpt lat="50.07097" lon="4.37602">
        <ele>222.6</ele>
        <time>2024-03-17T10:24:44Z</time>
      </trkpt>
      <trkpt lat="50.07097" lon="4.37595">
        <ele>222.8</ele>
        <time>2024-03-17T10:24:45Z</time>
      </trkpt>
      <trkpt lat="50.07097" lon="4.37589">
        <ele>222.8</ele>
        <time>2024-03-17T10:24:46Z</time>
      </trkpt>
      <trkpt lat="50.07097" lon="4.37583">
        <ele>223</ele>
        <time>2024-03-17T10:24:47Z</time>
      </trkpt>
      <trkpt lat="50.07097" lon="4.37576">
        <ele>223</ele>
        <time>2024-03-17T10:24:48Z</time>
      </trkpt>
      <trkpt lat="50.07097" lon="4.3757">
        <ele>222.8</ele>
        <time>2024-03-17T10:24:49Z</time>
      </trkpt>
      <trkpt lat="50.07097" lon="4.37564">
        <ele>223</ele>
        <time>2024-03-17T10:24:50Z</time>
      </trkpt>
      <trkpt lat="50.07097" lon="4.37557">
        <ele>223.2</ele>
        <time>2024-03-17T10:24:51Z</time>
      </trkpt>
      <trkpt lat="50.07097" lon="4.37551">
        <ele>223.2</ele>
        <time>2024-03-17T10:24:52Z</time>
      </trkpt>
      <trkpt lat="50.07097" lon="4.37545">
        <ele>223.4</ele>
        <time>2024-03-17T10:24:53Z</time>
      </trkpt>
      <trkpt lat="50.07097" lon="4.37539">
        <ele>223.6</ele>
        <time>2024-03-17T10:24:54Z</time>
      </trkpt>
      <trkpt lat="50.07097" lon="4.37532">
        <ele>223.6</ele>
        <time>2024-03-17T10:24:55Z</time>
      </trkpt>
      <trkpt lat="50.07097" lon="4.37526">
        <ele>223.8</ele>
        <time>2024-03-17T10:24:56Z</time>
      </trkpt>
      <trkpt lat="50.07097" lon="4.3752">
        <ele>223.8</ele>
        <time>2024-03-17T10:24:57Z</time>
      </trkpt>
      <trkpt lat="50.07097" lon="4.37514">
        <ele>224.4</ele>
        <time>2024-03-17T10:24:58Z</time>
      </trkpt>
      <trkpt lat="50.07097" lon="4.37507">
        <ele>224.8</ele>
        <time>2024-03-17T10:24:59Z</time>
      </trkpt>
      <trkpt lat="50.07097" lon="4.37501">
        <ele>225</ele>
        <time>2024-03-17T10:25:00Z</time>
      </trkpt>
      <trkpt lat="50.07097" lon="4.37495">
        <ele>225</ele>
        <time>2024-03-17T10:25:01Z</time>
      </trkpt>
      <trkpt lat="50.07097" lon="4.37488">
        <ele>225.4</ele>
        <time>2024-03-17T10:25:02Z</time>
      </trkpt>
      <trkpt lat="50.07097" lon="4.37482">
        <ele>225.4</ele>
        <time>2024-03-17T10:25:03Z</time>
      </trkpt>
      <trkpt lat="50.07097" lon="4.37476">
        <ele>225.6</ele>
        <time>2024-03-17T10:25:04Z</time>
      </trkpt>
      <trkpt lat="50.07097" lon="4.3747">
        <ele>225.6</ele>
        <time>2024-03-17T10:25:05Z</time>
      </trkpt>
      <trkpt lat="50.07097" lon="4.37463">
        <ele>225.8</ele>
        <time>2024-03-17T10:25:06Z</time>
      </trkpt>
      <trkpt lat="50.07097" lon="4.37457">
        <ele>225.8</ele>
        <time>2024-03-17T10:25:07Z</time>
      </trkpt>
      <trkpt lat="50.07097" lon="4.37451">
        <ele>226</ele>
        <time>2024-03-17T10:25:08Z</time>
      </trkpt>
      <trkpt lat="50.07097" lon="4.37445">
        <ele>226.2</ele>
        <time>2024-03-17T10:25:09Z</time>
      </trkpt>
      <trkpt lat="50.07097" lon="4.37439">
        <ele>226.2</ele>
        <time>2024-03-17T10:25:10Z</time>
      </trkpt>
      <trkpt lat="50.07097" lon="4.37433">
        <ele>226.2</ele>
        <time>2024-03-17T10:25:11Z</time>
      </trkpt>
      <trkpt lat="50.07097" lon="4.37426">
        <ele>226.2</ele>
        <time>2024-03-17T10:25:12Z</time>
      </trkpt>
      <trkpt lat="50.07097" lon="4.3742">
        <ele>226.6</ele>
        <time>2024-03-17T10:25:13Z</time>
      </trkpt>
      <trkpt lat="50.07097" lon="4.37414">
        <ele>226.8</ele>
        <time>2024-03-17T10:25:14Z</time>
      </trkpt>
      <trkpt lat="50.07097" lon="4.37408">
        <ele>227.2</ele>
        <time>2024-03-17T10:25:15Z</time>
      </trkpt>
      <trkpt lat="50.07097" lon="4.37401">
        <ele>227.6</ele>
        <time>2024-03-17T10:25:16Z</time>
      </trkpt>
      <trkpt lat="50.07097" lon="4.37395">
        <ele>228</ele>
        <time>2024-03-17T10:25:17Z</time>
      </trkpt>
      <trkpt lat="50.07097" lon="4.37388">
        <ele>228</ele>
        <time>2024-03-17T10:25:18Z</time>
      </trkpt>
      <trkpt lat="50.07097" lon="4.37382">
        <ele>228.2</ele>
        <time>2024-03-17T10:25:19Z</time>
      </trkpt>
      <trkpt lat="50.07097" lon="4.37375">
        <ele>228.4</ele>
        <time>2024-03-17T10:25:20Z</time>
      </trkpt>
      <trkpt lat="50.07098" lon="4.37369">
        <ele>228.4</ele>
        <time>2024-03-17T10:25:21Z</time>
      </trkpt>
      <trkpt lat="50.07098" lon="4.37363">
        <ele>228.4</ele>
        <time>2024-03-17T10:25:22Z</time>
      </trkpt>
      <trkpt lat="50.07099" lon="4.37356">
        <ele>228.6</ele>
        <time>2024-03-17T10:25:23Z</time>
      </trkpt>
      <trkpt lat="50.07099" lon="4.3735">
        <ele>228.8</ele>
        <time>2024-03-17T10:25:24Z</time>
      </trkpt>
      <trkpt lat="50.071" lon="4.37344">
        <ele>229</ele>
        <time>2024-03-17T10:25:25Z</time>
      </trkpt>
      <trkpt lat="50.07101" lon="4.37337">
        <ele>229</ele>
        <time>2024-03-17T10:25:26Z</time>
      </trkpt>
      <trkpt lat="50.07102" lon="4.37331">
        <ele>229.2</ele>
        <time>2024-03-17T10:25:27Z</time>
      </trkpt>
      <trkpt lat="50.07103" lon="4.37325">
        <ele>229.4</ele>
        <time>2024-03-17T10:25:28Z</time>
      </trkpt>
      <trkpt lat="50.07104" lon="4.37319">
        <ele>229.4</ele>
        <time>2024-03-17T10:25:29Z</time>
      </trkpt>
      <trkpt lat="50.07105" lon="4.37313">
        <ele>229.4</ele>
        <time>2024-03-17T10:25:30Z</time>
      </trkpt>
      <trkpt lat="50.07107" lon="4.37306">
        <ele>229.6</ele>
        <time>2024-03-17T10:25:31Z</time>
      </trkpt>
      <trkpt lat="50.07109" lon="4.373">
        <ele>229.8</ele>
        <time>2024-03-17T10:25:32Z</time>
      </trkpt>
      <trkpt lat="50.07111" lon="4.37294">
        <ele>230</ele>
        <time>2024-03-17T10:25:33Z</time>
      </trkpt>
      <trkpt lat="50.07113" lon="4.37288">
        <ele>230.2</ele>
        <time>2024-03-17T10:25:34Z</time>
      </trkpt>
      <trkpt lat="50.07115" lon="4.37282">
        <ele>230.4</ele>
        <time>2024-03-17T10:25:35Z</time>
      </trkpt>
      <trkpt lat="50.07117" lon="4.37276">
        <ele>230.4</ele>
        <time>2024-03-17T10:25:36Z</time>
      </trkpt>
      <trkpt lat="50.07119" lon="4.3727">
        <ele>230.8</ele>
        <time>2024-03-17T10:25:37Z</time>
      </trkpt>
      <trkpt lat="50.07122" lon="4.37264">
        <ele>231</ele>
        <time>2024-03-17T10:25:38Z</time>
      </trkpt>
      <trkpt lat="50.07125" lon="4.37258">
        <ele>231</ele>
        <time>2024-03-17T10:25:39Z</time>
      </trkpt>
      <trkpt lat="50.07128" lon="4.37252">
        <ele>231</ele>
        <time>2024-03-17T10:25:40Z</time>
      </trkpt>
      <trkpt lat="50.07132" lon="4.37247">
        <ele>231.2</ele>
        <time>2024-03-17T10:25:41Z</time>
      </trkpt>
      <trkpt lat="50.07135" lon="4.37241">
        <ele>231.4</ele>
        <time>2024-03-17T10:25:42Z</time>
      </trkpt>
      <trkpt lat="50.07139" lon="4.37235">
        <ele>231.6</ele>
        <time>2024-03-17T10:25:43Z</time>
      </trkpt>
      <trkpt lat="50.07143" lon="4.37228">
        <ele>231.8</ele>
        <time>2024-03-17T10:25:44Z</time>
      </trkpt>
      <trkpt lat="50.07147" lon="4.37222">
        <ele>231.8</ele>
        <time>2024-03-17T10:25:45Z</time>
      </trkpt>
      <trkpt lat="50.07152" lon="4.37216">
        <ele>231.6</ele>
        <time>2024-03-17T10:25:46Z</time>
      </trkpt>
      <trkpt lat="50.07156" lon="4.37209">
        <ele>231.8</ele>
        <time>2024-03-17T10:25:47Z</time>
      </trkpt>
      <trkpt lat="50.07161" lon="4.37202">
        <ele>231.8</ele>
        <time>2024-03-17T10:25:48Z</time>
      </trkpt>
      <trkpt lat="50.07165" lon="4.37195">
        <ele>231.8</ele>
        <time>2024-03-17T10:25:49Z</time>
      </trkpt>
      <trkpt lat="50.0717" lon="4.37187">
        <ele>231.8</ele>
        <time>2024-03-17T10:25:50Z</time>
      </trkpt>
      <trkpt lat="50.07174" lon="4.37179">
        <ele>231.8</ele>
        <time>2024-03-17T10:25:51Z</time>
      </trkpt>
      <trkpt lat="50.07179" lon="4.37171">
        <ele>231.8</ele>
        <time>2024-03-17T10:25:52Z</time>
      </trkpt>
      <trkpt lat="50.07183" lon="4.37162">
        <ele>231.8</ele>
        <time>2024-03-17T10:25:53Z</time>
      </trkpt>
      <trkpt lat="50.07187" lon="4.37153">
        <ele>231.8</ele>
        <time>2024-03-17T10:25:54Z</time>
      </trkpt>
      <trkpt lat="50.07191" lon="4.37143">
        <ele>231.8</ele>
        <time>2024-03-17T10:25:55Z</time>
      </trkpt>
      <trkpt lat="50.07195" lon="4.37132">
        <ele>231.6</ele>
        <time>2024-03-17T10:25:56Z</time>
      </trkpt>
      <trkpt lat="50.07198" lon="4.37121">
        <ele>231.6</ele>
        <time>2024-03-17T10:25:57Z</time>
      </trkpt>
      <trkpt lat="50.07201" lon="4.3711">
        <ele>231.6</ele>
        <time>2024-03-17T10:25:58Z</time>
      </trkpt>
      <trkpt lat="50.07204" lon="4.37099">
        <ele>231.2</ele>
        <time>2024-03-17T10:25:59Z</time>
      </trkpt>
      <trkpt lat="50.07206" lon="4.37087">
        <ele>230.8</ele>
        <time>2024-03-17T10:26:00Z</time>
      </trkpt>
      <trkpt lat="50.07207" lon="4.37075">
        <ele>230.4</ele>
        <time>2024-03-17T10:26:01Z</time>
      </trkpt>
      <trkpt lat="50.07209" lon="4.37062">
        <ele>230.2</ele>
        <time>2024-03-17T10:26:02Z</time>
      </trkpt>
      <trkpt lat="50.07211" lon="4.37049">
        <ele>230</ele>
        <time>2024-03-17T10:26:03Z</time>
      </trkpt>
      <trkpt lat="50.07212" lon="4.37036">
        <ele>229.6</ele>
        <time>2024-03-17T10:26:04Z</time>
      </trkpt>
      <trkpt lat="50.07214" lon="4.37023">
        <ele>229.2</ele>
        <time>2024-03-17T10:26:05Z</time>
      </trkpt>
      <trkpt lat="50.07215" lon="4.3701">
        <ele>228.8</ele>
        <time>2024-03-17T10:26:06Z</time>
      </trkpt>
      <trkpt lat="50.07217" lon="4.36996">
        <ele>228.2</ele>
        <time>2024-03-17T10:26:07Z</time>
      </trkpt>
      <trkpt lat="50.07219" lon="4.36983">
        <ele>227.8</ele>
        <time>2024-03-17T10:26:08Z</time>
      </trkpt>
      <trkpt lat="50.0722" lon="4.36969">
        <ele>227.8</ele>
        <time>2024-03-17T10:26:09Z</time>
      </trkpt>
      <trkpt lat="50.07222" lon="4.36956">
        <ele>227.6</ele>
        <time>2024-03-17T10:26:10Z</time>
      </trkpt>
      <trkpt lat="50.07224" lon="4.36942">
        <ele>227.4</ele>
        <time>2024-03-17T10:26:11Z</time>
      </trkpt>
      <trkpt lat="50.07225" lon="4.36928">
        <ele>226.8</ele>
        <time>2024-03-17T10:26:12Z</time>
      </trkpt>
      <trkpt lat="50.07227" lon="4.36914">
        <ele>226.4</ele>
        <time>2024-03-17T10:26:13Z</time>
      </trkpt>
      <trkpt lat="50.07228" lon="4.369">
        <ele>226.4</ele>
        <time>2024-03-17T10:26:14Z</time>
      </trkpt>
      <trkpt lat="50.07229" lon="4.36886">
        <ele>226</ele>
        <time>2024-03-17T10:26:15Z</time>
      </trkpt>
      <trkpt lat="50.0723" lon="4.36872">
        <ele>225.6</ele>
        <time>2024-03-17T10:26:16Z</time>
      </trkpt>
      <trkpt lat="50.07231" lon="4.36858">
        <ele>225.4</ele>
        <time>2024-03-17T10:26:17Z</time>
      </trkpt>
      <trkpt lat="50.07232" lon="4.36844">
        <ele>225.2</ele>
        <time>2024-03-17T10:26:18Z</time>
      </trkpt>
      <trkpt lat="50.07232" lon="4.3683">
        <ele>224.6</ele>
        <time>2024-03-17T10:26:19Z</time>
      </trkpt>
      <trkpt lat="50.07232" lon="4.36815">
        <ele>224</ele>
        <time>2024-03-17T10:26:20Z</time>
      </trkpt>
      <trkpt lat="50.07232" lon="4.36801">
        <ele>223.8</ele>
        <time>2024-03-17T10:26:21Z</time>
      </trkpt>
      <trkpt lat="50.07233" lon="4.36786">
        <ele>222.8</ele>
        <time>2024-03-17T10:26:22Z</time>
      </trkpt>
      <trkpt lat="50.07233" lon="4.36772">
        <ele>222.2</ele>
        <time>2024-03-17T10:26:23Z</time>
      </trkpt>
      <trkpt lat="50.07233" lon="4.36758">
        <ele>221.8</ele>
        <time>2024-03-17T10:26:24Z</time>
      </trkpt>
      <trkpt lat="50.07233" lon="4.36743">
        <ele>221.4</ele>
        <time>2024-03-17T10:26:25Z</time>
      </trkpt>
      <trkpt lat="50.07233" lon="4.36729">
        <ele>221.2</ele>
        <time>2024-03-17T10:26:26Z</time>
      </trkpt>
      <trkpt lat="50.07234" lon="4.36715">
        <ele>221</ele>
        <time>2024-03-17T10:26:27Z</time>
      </trkpt>
      <trkpt lat="50.07235" lon="4.36701">
        <ele>220.8</ele>
        <time>2024-03-17T10:26:28Z</time>
      </trkpt>
      <trkpt lat="50.07236" lon="4.36687">
        <ele>220.4</ele>
        <time>2024-03-17T10:26:29Z</time>
      </trkpt>
      <trkpt lat="50.07237" lon="4.36673">
        <ele>220.2</ele>
        <time>2024-03-17T10:26:30Z</time>
      </trkpt>
      <trkpt lat="50.07239" lon="4.36659">
        <ele>220.2</ele>
        <time>2024-03-17T10:26:31Z</time>
      </trkpt>
      <trkpt lat="50.07241" lon="4.36644">
        <ele>219.8</ele>
        <time>2024-03-17T10:26:32Z</time>
      </trkpt>
      <trkpt lat="50.07243" lon="4.3663">
        <ele>219.2</ele>
        <time>2024-03-17T10:26:33Z</time>
      </trkpt>
      <trkpt lat="50.07245" lon="4.36616">
        <ele>218.2</ele>
        <time>2024-03-17T10:26:34Z</time>
      </trkpt>
      <trkpt lat="50.07248" lon="4.36602">
        <ele>217.6</ele>
        <time>2024-03-17T10:26:35Z</time>
      </trkpt>
      <trkpt lat="50.0725" lon="4.36587">
        <ele>217.2</ele>
        <time>2024-03-17T10:26:36Z</time>
      </trkpt>
      <trkpt lat="50.07253" lon="4.36573">
        <ele>216.8</ele>
        <time>2024-03-17T10:26:37Z</time>
      </trkpt>
      <trkpt lat="50.07256" lon="4.36559">
        <ele>216.6</ele>
        <time>2024-03-17T10:26:38Z</time>
      </trkpt>
      <trkpt lat="50.07259" lon="4.36545">
        <ele>216.6</ele>
        <time>2024-03-17T10:26:39Z</time>
      </trkpt>
      <trkpt lat="50.07263" lon="4.36531">
        <ele>216.2</ele>
        <time>2024-03-17T10:26:40Z</time>
      </trkpt>
      <trkpt lat="50.07266" lon="4.36517">
        <ele>215.8</ele>
        <time>2024-03-17T10:26:41Z</time>
      </trkpt>
      <trkpt lat="50.07269" lon="4.36502">
        <ele>215.4</ele>
        <time>2024-03-17T10:26:42Z</time>
      </trkpt>
      <trkpt lat="50.07273" lon="4.36488">
        <ele>215</ele>
        <time>2024-03-17T10:26:43Z</time>
      </trkpt>
      <trkpt lat="50.07276" lon="4.36474">
        <ele>214.6</ele>
        <time>2024-03-17T10:26:44Z</time>
      </trkpt>
      <trkpt lat="50.07279" lon="4.3646">
        <ele>214.4</ele>
        <time>2024-03-17T10:26:45Z</time>
      </trkpt>
      <trkpt lat="50.07283" lon="4.36446">
        <ele>214</ele>
        <time>2024-03-17T10:26:46Z</time>
      </trkpt>
      <trkpt lat="50.07286" lon="4.36432">
        <ele>213.4</ele>
        <time>2024-03-17T10:26:47Z</time>
      </trkpt>
      <trkpt lat="50.07289" lon="4.36418">
        <ele>213</ele>
        <time>2024-03-17T10:26:48Z</time>
      </trkpt>
      <trkpt lat="50.07293" lon="4.36404">
        <ele>212.2</ele>
        <time>2024-03-17T10:26:49Z</time>
      </trkpt>
      <trkpt lat="50.07296" lon="4.3639">
        <ele>212.2</ele>
        <time>2024-03-17T10:26:50Z</time>
      </trkpt>
      <trkpt lat="50.07299" lon="4.36375">
        <ele>211.8</ele>
        <time>2024-03-17T10:26:51Z</time>
      </trkpt>
      <trkpt lat="50.07303" lon="4.36361">
        <ele>211.2</ele>
        <time>2024-03-17T10:26:52Z</time>
      </trkpt>
      <trkpt lat="50.07306" lon="4.36347">
        <ele>210.8</ele>
        <time>2024-03-17T10:26:53Z</time>
      </trkpt>
      <trkpt lat="50.07309" lon="4.36333">
        <ele>210.4</ele>
        <time>2024-03-17T10:26:54Z</time>
      </trkpt>
      <trkpt lat="50.07313" lon="4.36319">
        <ele>210</ele>
        <time>2024-03-17T10:26:55Z</time>
      </trkpt>
      <trkpt lat="50.07316" lon="4.36305">
        <ele>209.8</ele>
        <time>2024-03-17T10:26:56Z</time>
      </trkpt>
      <trkpt lat="50.07319" lon="4.36291">
        <ele>209.6</ele>
        <time>2024-03-17T10:26:57Z</time>
      </trkpt>
      <trkpt lat="50.07322" lon="4.36277">
        <ele>209.4</ele>
        <time>2024-03-17T10:26:58Z</time>
      </trkpt>
      <trkpt lat="50.07324" lon="4.36263">
        <ele>209</ele>
        <time>2024-03-17T10:26:59Z</time>
      </trkpt>
      <trkpt lat="50.07326" lon="4.36249">
        <ele>208.8</ele>
        <time>2024-03-17T10:27:00Z</time>
      </trkpt>
      <trkpt lat="50.07327" lon="4.36235">
        <ele>208.4</ele>
        <time>2024-03-17T10:27:01Z</time>
      </trkpt>
      <trkpt lat="50.07327" lon="4.36221">
        <ele>207.4</ele>
        <time>2024-03-17T10:27:02Z</time>
      </trkpt>
      <trkpt lat="50.07326" lon="4.36207">
        <ele>207</ele>
        <time>2024-03-17T10:27:03Z</time>
      </trkpt>
      <trkpt lat="50.07326" lon="4.36193">
        <ele>206.6</ele>
        <time>2024-03-17T10:27:04Z</time>
      </trkpt>
      <trkpt lat="50.07325" lon="4.36179">
        <ele>206.4</ele>
        <time>2024-03-17T10:27:05Z</time>
      </trkpt>
      <trkpt lat="50.07323" lon="4.36166">
        <ele>206.2</ele>
        <time>2024-03-17T10:27:06Z</time>
      </trkpt>
      <trkpt lat="50.07321" lon="4.36153">
        <ele>206.2</ele>
        <time>2024-03-17T10:27:07Z</time>
      </trkpt>
      <trkpt lat="50.07319" lon="4.36141">
        <ele>206.2</ele>
        <time>2024-03-17T10:27:08Z</time>
      </trkpt>
      <trkpt lat="50.07317" lon="4.36128">
        <ele>206</ele>
        <time>2024-03-17T10:27:09Z</time>
      </trkpt>
      <trkpt lat="50.07314" lon="4.36116">
        <ele>206</ele>
        <time>2024-03-17T10:27:10Z</time>
      </trkpt>
      <trkpt lat="50.07312" lon="4.36104">
        <ele>206.2</ele>
        <time>2024-03-17T10:27:11Z</time>
      </trkpt>
      <trkpt lat="50.0731" lon="4.36092">
        <ele>206</ele>
        <time>2024-03-17T10:27:12Z</time>
      </trkpt>
      <trkpt lat="50.07308" lon="4.36081">
        <ele>206</ele>
        <time>2024-03-17T10:27:13Z</time>
      </trkpt>
      <trkpt lat="50.07306" lon="4.36069">
        <ele>206</ele>
        <time>2024-03-17T10:27:14Z</time>
      </trkpt>
      <trkpt lat="50.07304" lon="4.36058">
        <ele>206</ele>
        <time>2024-03-17T10:27:15Z</time>
      </trkpt>
      <trkpt lat="50.07302" lon="4.36047">
        <ele>206</ele>
        <time>2024-03-17T10:27:16Z</time>
      </trkpt>
      <trkpt lat="50.073" lon="4.36036">
        <ele>206.2</ele>
        <time>2024-03-17T10:27:17Z</time>
      </trkpt>
      <trkpt lat="50.07298" lon="4.36025">
        <ele>206.6</ele>
        <time>2024-03-17T10:27:18Z</time>
      </trkpt>
      <trkpt lat="50.07296" lon="4.36015">
        <ele>207.2</ele>
        <time>2024-03-17T10:27:19Z</time>
      </trkpt>
      <trkpt lat="50.07294" lon="4.36005">
        <ele>207.8</ele>
        <time>2024-03-17T10:27:20Z</time>
      </trkpt>
      <trkpt lat="50.07292" lon="4.35994">
        <ele>207.8</ele>
        <time>2024-03-17T10:27:21Z</time>
      </trkpt>
      <trkpt lat="50.0729" lon="4.35984">
        <ele>208</ele>
        <time>2024-03-17T10:27:22Z</time>
      </trkpt>
      <trkpt lat="50.07288" lon="4.35974">
        <ele>208.2</ele>
        <time>2024-03-17T10:27:23Z</time>
      </trkpt>
      <trkpt lat="50.07287" lon="4.35964">
        <ele>208.6</ele>
        <time>2024-03-17T10:27:24Z</time>
      </trkpt>
      <trkpt lat="50.07285" lon="4.35954">
        <ele>208.6</ele>
        <time>2024-03-17T10:27:25Z</time>
      </trkpt>
      <trkpt lat="50.07283" lon="4.35944">
        <ele>208.8</ele>
        <time>2024-03-17T10:27:26Z</time>
      </trkpt>
      <trkpt lat="50.07281" lon="4.35934">
        <ele>208.8</ele>
        <time>2024-03-17T10:27:27Z</time>
      </trkpt>
      <trkpt lat="50.07279" lon="4.35924">
        <ele>208.8</ele>
        <time>2024-03-17T10:27:28Z</time>
      </trkpt>
      <trkpt lat="50.07277" lon="4.35914">
        <ele>209</ele>
        <time>2024-03-17T10:27:29Z</time>
      </trkpt>
      <trkpt lat="50.07276" lon="4.35905">
        <ele>209.2</ele>
        <time>2024-03-17T10:27:30Z</time>
      </trkpt>
      <trkpt lat="50.07274" lon="4.35895">
        <ele>209.4</ele>
        <time>2024-03-17T10:27:31Z</time>
      </trkpt>
      <trkpt lat="50.07272" lon="4.35886">
        <ele>209.4</ele>
        <time>2024-03-17T10:27:32Z</time>
      </trkpt>
      <trkpt lat="50.07271" lon="4.35876">
        <ele>209.8</ele>
        <time>2024-03-17T10:27:33Z</time>
      </trkpt>
      <trkpt lat="50.07269" lon="4.35867">
        <ele>210</ele>
        <time>2024-03-17T10:27:34Z</time>
      </trkpt>
      <trkpt lat="50.07267" lon="4.35858">
        <ele>210.2</ele>
        <time>2024-03-17T10:27:35Z</time>
      </trkpt>
      <trkpt lat="50.07266" lon="4.35848">
        <ele>210.2</ele>
        <time>2024-03-17T10:27:36Z</time>
      </trkpt>
      <trkpt lat="50.07264" lon="4.35839">
        <ele>210.4</ele>
        <time>2024-03-17T10:27:37Z</time>
      </trkpt>
      <trkpt lat="50.07262" lon="4.3583">
        <ele>210.6</ele>
        <time>2024-03-17T10:27:38Z</time>
      </trkpt>
      <trkpt lat="50.07261" lon="4.3582">
        <ele>210.8</ele>
        <time>2024-03-17T10:27:39Z</time>
      </trkpt>
      <trkpt lat="50.07259" lon="4.35811">
        <ele>210.8</ele>
        <time>2024-03-17T10:27:40Z</time>
      </trkpt>
      <trkpt lat="50.07257" lon="4.35802">
        <ele>211.2</ele>
        <time>2024-03-17T10:27:41Z</time>
      </trkpt>
      <trkpt lat="50.07255" lon="4.35793">
        <ele>211.8</ele>
        <time>2024-03-17T10:27:42Z</time>
      </trkpt>
      <trkpt lat="50.07253" lon="4.35784">
        <ele>212.2</ele>
        <time>2024-03-17T10:27:43Z</time>
      </trkpt>
      <trkpt lat="50.07251" lon="4.35775">
        <ele>212.4</ele>
        <time>2024-03-17T10:27:44Z</time>
      </trkpt>
      <trkpt lat="50.07249" lon="4.35766">
        <ele>212.4</ele>
        <time>2024-03-17T10:27:45Z</time>
      </trkpt>
      <trkpt lat="50.07247" lon="4.35757">
        <ele>212.6</ele>
        <time>2024-03-17T10:27:46Z</time>
      </trkpt>
      <trkpt lat="50.07245" lon="4.35747">
        <ele>213</ele>
        <time>2024-03-17T10:27:47Z</time>
      </trkpt>
      <trkpt lat="50.07243" lon="4.35738">
        <ele>213</ele>
        <time>2024-03-17T10:27:48Z</time>
      </trkpt>
      <trkpt lat="50.07241" lon="4.35729">
        <ele>213.4</ele>
        <time>2024-03-17T10:27:49Z</time>
      </trkpt>
      <trkpt lat="50.07239" lon="4.3572">
        <ele>213.8</ele>
        <time>2024-03-17T10:27:50Z</time>
      </trkpt>
      <trkpt lat="50.07237" lon="4.35711">
        <ele>214</ele>
        <time>2024-03-17T10:27:51Z</time>
      </trkpt>
      <trkpt lat="50.07234" lon="4.35702">
        <ele>214</ele>
        <time>2024-03-17T10:27:52Z</time>
      </trkpt>
      <trkpt lat="50.07232" lon="4.35693">
        <ele>214.2</ele>
        <time>2024-03-17T10:27:53Z</time>
      </trkpt>
      <trkpt lat="50.07229" lon="4.35684">
        <ele>214.2</ele>
        <time>2024-03-17T10:27:54Z</time>
      </trkpt>
      <trkpt lat="50.07227" lon="4.35675">
        <ele>214.4</ele>
        <time>2024-03-17T10:27:55Z</time>
      </trkpt>
      <trkpt lat="50.07224" lon="4.35666">
        <ele>214.4</ele>
        <time>2024-03-17T10:27:56Z</time>
      </trkpt>
      <trkpt lat="50.07221" lon="4.35656">
        <ele>214.2</ele>
        <time>2024-03-17T10:27:57Z</time>
      </trkpt>
      <trkpt lat="50.07219" lon="4.35647">
        <ele>214.2</ele>
        <time>2024-03-17T10:27:58Z</time>
      </trkpt>
      <trkpt lat="50.07216" lon="4.35638">
        <ele>214.4</ele>
        <time>2024-03-17T10:27:59Z</time>
      </trkpt>
      <trkpt lat="50.07213" lon="4.35628">
        <ele>214.4</ele>
        <time>2024-03-17T10:28:00Z</time>
      </trkpt>
      <trkpt lat="50.07211" lon="4.35618">
        <ele>214.4</ele>
        <time>2024-03-17T10:28:01Z</time>
      </trkpt>
      <trkpt lat="50.07208" lon="4.35609">
        <ele>214.4</ele>
        <time>2024-03-17T10:28:02Z</time>
      </trkpt>
      <trkpt lat="50.07205" lon="4.35599">
        <ele>214.4</ele>
        <time>2024-03-17T10:28:03Z</time>
      </trkpt>
      <trkpt lat="50.07202" lon="4.35589">
        <ele>214.2</ele>
        <time>2024-03-17T10:28:04Z</time>
      </trkpt>
      <trkpt lat="50.07199" lon="4.35579">
        <ele>214</ele>
        <time>2024-03-17T10:28:05Z</time>
      </trkpt>
      <trkpt lat="50.07196" lon="4.35568">
        <ele>214</ele>
        <time>2024-03-17T10:28:06Z</time>
      </trkpt>
      <trkpt lat="50.07193" lon="4.35557">
        <ele>213.8</ele>
        <time>2024-03-17T10:28:07Z</time>
      </trkpt>
      <trkpt lat="50.07189" lon="4.35546">
        <ele>213.8</ele>
        <time>2024-03-17T10:28:08Z</time>
      </trkpt>
      <trkpt lat="50.07186" lon="4.35535">
        <ele>213.8</ele>
        <time>2024-03-17T10:28:09Z</time>
      </trkpt>
      <trkpt lat="50.07182" lon="4.35523">
        <ele>213.6</ele>
        <time>2024-03-17T10:28:10Z</time>
      </trkpt>
      <trkpt lat="50.07178" lon="4.35512">
        <ele>213.4</ele>
        <time>2024-03-17T10:28:11Z</time>
      </trkpt>
      <trkpt lat="50.07174" lon="4.35501">
        <ele>213.4</ele>
        <time>2024-03-17T10:28:12Z</time>
      </trkpt>
      <trkpt lat="50.07169" lon="4.3549">
        <ele>213.4</ele>
        <time>2024-03-17T10:28:13Z</time>
      </trkpt>
      <trkpt lat="50.07164" lon="4.3548">
        <ele>213</ele>
        <time>2024-03-17T10:28:14Z</time>
      </trkpt>
      <trkpt lat="50.07158" lon="4.3547">
        <ele>212.6</ele>
        <time>2024-03-17T10:28:15Z</time>
      </trkpt>
      <trkpt lat="50.07152" lon="4.3546">
        <ele>212.6</ele>
        <time>2024-03-17T10:28:16Z</time>
      </trkpt>
      <trkpt lat="50.07147" lon="4.35449">
        <ele>212.6</ele>
        <time>2024-03-17T10:28:17Z</time>
      </trkpt>
      <trkpt lat="50.07141" lon="4.35439">
        <ele>212.4</ele>
        <time>2024-03-17T10:28:18Z</time>
      </trkpt>
      <trkpt lat="50.07136" lon="4.35428">
        <ele>212.2</ele>
        <time>2024-03-17T10:28:19Z</time>
      </trkpt>
      <trkpt lat="50.07131" lon="4.35418">
        <ele>211.8</ele>
        <time>2024-03-17T10:28:20Z</time>
      </trkpt>
      <trkpt lat="50.07126" lon="4.35407">
        <ele>211.8</ele>
        <time>2024-03-17T10:28:21Z</time>
      </trkpt>
      <trkpt lat="50.0712" lon="4.35397">
        <ele>210.8</ele>
        <time>2024-03-17T10:28:22Z</time>
      </trkpt>
      <trkpt lat="50.07115" lon="4.35386">
        <ele>210.8</ele>
        <time>2024-03-17T10:28:23Z</time>
      </trkpt>
      <trkpt lat="50.0711" lon="4.35376">
        <ele>210</ele>
        <time>2024-03-17T10:28:24Z</time>
      </trkpt>
      <trkpt lat="50.07104" lon="4.35365">
        <ele>209.6</ele>
        <time>2024-03-17T10:28:25Z</time>
      </trkpt>
      <trkpt lat="50.07098" lon="4.35355">
        <ele>209.4</ele>
        <time>2024-03-17T10:28:26Z</time>
      </trkpt>
      <trkpt lat="50.07092" lon="4.35345">
        <ele>209</ele>
        <time>2024-03-17T10:28:27Z</time>
      </trkpt>
      <trkpt lat="50.07086" lon="4.35335">
        <ele>209</ele>
        <time>2024-03-17T10:28:28Z</time>
      </trkpt>
      <trkpt lat="50.07079" lon="4.35326">
        <ele>208.4</ele>
        <time>2024-03-17T10:28:29Z</time>
      </trkpt>
      <trkpt lat="50.07073" lon="4.35317">
        <ele>208.2</ele>
        <time>2024-03-17T10:28:30Z</time>
      </trkpt>
      <trkpt lat="50.07066" lon="4.35308">
        <ele>208</ele>
        <time>2024-03-17T10:28:31Z</time>
      </trkpt>
      <trkpt lat="50.07059" lon="4.353">
        <ele>207.8</ele>
        <time>2024-03-17T10:28:32Z</time>
      </trkpt>
      <trkpt lat="50.07052" lon="4.35292">
        <ele>207.6</ele>
        <time>2024-03-17T10:28:33Z</time>
      </trkpt>
      <trkpt lat="50.07045" lon="4.35284">
        <ele>207.4</ele>
        <time>2024-03-17T10:28:34Z</time>
      </trkpt>
      <trkpt lat="50.07038" lon="4.35276">
        <ele>207.2</ele>
        <time>2024-03-17T10:28:35Z</time>
      </trkpt>
      <trkpt lat="50.07031" lon="4.35268">
        <ele>207.2</ele>
        <time>2024-03-17T10:28:36Z</time>
      </trkpt>
      <trkpt lat="50.07024" lon="4.3526">
        <ele>207</ele>
        <time>2024-03-17T10:28:37Z</time>
      </trkpt>
      <trkpt lat="50.07017" lon="4.35252">
        <ele>206.8</ele>
        <time>2024-03-17T10:28:38Z</time>
      </trkpt>
      <trkpt lat="50.0701" lon="4.35244">
        <ele>206.6</ele>
        <time>2024-03-17T10:28:39Z</time>
      </trkpt>
      <trkpt lat="50.07003" lon="4.35236">
        <ele>206.2</ele>
        <time>2024-03-17T10:28:40Z</time>
      </trkpt>
      <trkpt lat="50.06997" lon="4.35228">
        <ele>206.2</ele>
        <time>2024-03-17T10:28:41Z</time>
      </trkpt>
      <trkpt lat="50.06992" lon="4.35218">
        <ele>206.2</ele>
        <time>2024-03-17T10:28:42Z</time>
      </trkpt>
      <trkpt lat="50.06989" lon="4.35208">
        <ele>205.8</ele>
        <time>2024-03-17T10:28:43Z</time>
      </trkpt>
      <trkpt lat="50.0699" lon="4.35198">
        <ele>205.4</ele>
        <time>2024-03-17T10:28:44Z</time>
      </trkpt>
      <trkpt lat="50.06993" lon="4.35189">
        <ele>205.2</ele>
        <time>2024-03-17T10:28:45Z</time>
      </trkpt>
      <trkpt lat="50.06998" lon="4.35181">
        <ele>204.6</ele>
        <time>2024-03-17T10:28:46Z</time>
      </trkpt>
      <trkpt lat="50.07004" lon="4.35175">
        <ele>204</ele>
        <time>2024-03-17T10:28:47Z</time>
      </trkpt>
      <trkpt lat="50.0701" lon="4.3517">
        <ele>203.8</ele>
        <time>2024-03-17T10:28:48Z</time>
      </trkpt>
      <trkpt lat="50.07016" lon="4.35165">
        <ele>203.4</ele>
        <time>2024-03-17T10:28:49Z</time>
      </trkpt>
      <trkpt lat="50.07022" lon="4.3516">
        <ele>203</ele>
        <time>2024-03-17T10:28:50Z</time>
      </trkpt>
      <trkpt lat="50.07028" lon="4.35155">
        <ele>202.6</ele>
        <time>2024-03-17T10:28:51Z</time>
      </trkpt>
      <trkpt lat="50.07033" lon="4.35149">
        <ele>202.4</ele>
        <time>2024-03-17T10:28:52Z</time>
      </trkpt>
      <trkpt lat="50.07038" lon="4.35142">
        <ele>202.2</ele>
        <time>2024-03-17T10:28:53Z</time>
      </trkpt>
      <trkpt lat="50.07042" lon="4.35135">
        <ele>202.2</ele>
        <time>2024-03-17T10:28:54Z</time>
      </trkpt>
      <trkpt lat="50.07046" lon="4.35129">
        <ele>202</ele>
        <time>2024-03-17T10:28:55Z</time>
      </trkpt>
      <trkpt lat="50.0705" lon="4.35122">
        <ele>202</ele>
        <time>2024-03-17T10:28:56Z</time>
      </trkpt>
      <trkpt lat="50.07054" lon="4.35115">
        <ele>202</ele>
        <time>2024-03-17T10:28:57Z</time>
      </trkpt>
      <trkpt lat="50.07058" lon="4.35109">
        <ele>202.2</ele>
        <time>2024-03-17T10:28:58Z</time>
      </trkpt>
      <trkpt lat="50.07061" lon="4.35103">
        <ele>202.2</ele>
        <time>2024-03-17T10:28:59Z</time>
      </trkpt>
      <trkpt lat="50.07065" lon="4.35097">
        <ele>202.2</ele>
        <time>2024-03-17T10:29:00Z</time>
      </trkpt>
      <trkpt lat="50.07068" lon="4.35091">
        <ele>202.2</ele>
        <time>2024-03-17T10:29:01Z</time>
      </trkpt>
      <trkpt lat="50.07071" lon="4.35085">
        <ele>202.2</ele>
        <time>2024-03-17T10:29:02Z</time>
      </trkpt>
      <trkpt lat="50.07074" lon="4.35079">
        <ele>202.6</ele>
        <time>2024-03-17T10:29:03Z</time>
      </trkpt>
      <trkpt lat="50.07077" lon="4.35072">
        <ele>202.8</ele>
        <time>2024-03-17T10:29:04Z</time>
      </trkpt>
      <trkpt lat="50.0708" lon="4.35066">
        <ele>203</ele>
        <time>2024-03-17T10:29:05Z</time>
      </trkpt>
      <trkpt lat="50.07083" lon="4.3506">
        <ele>203.4</ele>
        <time>2024-03-17T10:29:06Z</time>
      </trkpt>
      <trkpt lat="50.07086" lon="4.35053">
        <ele>203.8</ele>
        <time>2024-03-17T10:29:07Z</time>
      </trkpt>
      <trkpt lat="50.07088" lon="4.35046">
        <ele>204.2</ele>
        <time>2024-03-17T10:29:08Z</time>
      </trkpt>
      <trkpt lat="50.0709" lon="4.35039">
        <ele>204.2</ele>
        <time>2024-03-17T10:29:09Z</time>
      </trkpt>
      <trkpt lat="50.07091" lon="4.35032">
        <ele>204.8</ele>
        <time>2024-03-17T10:29:10Z</time>
      </trkpt>
      <trkpt lat="50.07092" lon="4.35024">
        <ele>205.6</ele>
        <time>2024-03-17T10:29:11Z</time>
      </trkpt>
      <trkpt lat="50.07093" lon="4.35017">
        <ele>205.6</ele>
        <time>2024-03-17T10:29:12Z</time>
      </trkpt>
      <trkpt lat="50.07094" lon="4.35009">
        <ele>206.2</ele>
        <time>2024-03-17T10:29:13Z</time>
      </trkpt>
      <trkpt lat="50.07094" lon="4.35002">
        <ele>206.8</ele>
        <time>2024-03-17T10:29:14Z</time>
      </trkpt>
      <trkpt lat="50.07093" lon="4.34995">
        <ele>207</ele>
        <time>2024-03-17T10:29:15Z</time>
      </trkpt>
      <trkpt lat="50.07093" lon="4.34988">
        <ele>207.4</ele>
        <time>2024-03-17T10:29:16Z</time>
      </trkpt>
      <trkpt lat="50.07091" lon="4.34981">
        <ele>207.4</ele>
        <time>2024-03-17T10:29:17Z</time>
      </trkpt>
      <trkpt lat="50.0709" lon="4.34974">
        <ele>207.8</ele>
        <time>2024-03-17T10:29:18Z</time>
      </trkpt>
      <trkpt lat="50.07088" lon="4.34967">
        <ele>208</ele>
        <time>2024-03-17T10:29:19Z</time>
      </trkpt>
      <trkpt lat="50.07086" lon="4.34961">
        <ele>208</ele>
        <time>2024-03-17T10:29:20Z</time>
      </trkpt>
      <trkpt lat="50.07084" lon="4.34954">
        <ele>208.2</ele>
        <time>2024-03-17T10:29:21Z</time>
      </trkpt>
      <trkpt lat="50.07081" lon="4.34948">
        <ele>208</ele>
        <time>2024-03-17T10:29:22Z</time>
      </trkpt>
      <trkpt lat="50.07079" lon="4.34942">
        <ele>208.2</ele>
        <time>2024-03-17T10:29:23Z</time>
      </trkpt>
      <trkpt lat="50.07076" lon="4.34936">
        <ele>208.4</ele>
        <time>2024-03-17T10:29:24Z</time>
      </trkpt>
      <trkpt lat="50.07073" lon="4.3493">
        <ele>208.4</ele>
        <time>2024-03-17T10:29:25Z</time>
      </trkpt>
      <trkpt lat="50.0707" lon="4.34925">
        <ele>208.6</ele>
        <time>2024-03-17T10:29:26Z</time>
      </trkpt>
      <trkpt lat="50.07067" lon="4.34919">
        <ele>208.8</ele>
        <time>2024-03-17T10:29:27Z</time>
      </trkpt>
      <trkpt lat="50.07064" lon="4.34914">
        <ele>208.8</ele>
        <time>2024-03-17T10:29:28Z</time>
      </trkpt>
      <trkpt lat="50.07061" lon="4.34909">
        <ele>209.2</ele>
        <time>2024-03-17T10:29:29Z</time>
      </trkpt>
      <trkpt lat="50.07059" lon="4.34903">
        <ele>209.6</ele>
        <time>2024-03-17T10:29:30Z</time>
      </trkpt>
      <trkpt lat="50.07056" lon="4.34898">
        <ele>209.6</ele>
        <time>2024-03-17T10:29:31Z</time>
      </trkpt>
      <trkpt lat="50.07053" lon="4.34893">
        <ele>210.2</ele>
        <time>2024-03-17T10:29:32Z</time>
      </trkpt>
      <trkpt lat="50.0705" lon="4.34887">
        <ele>210.6</ele>
        <time>2024-03-17T10:29:33Z</time>
      </trkpt>
      <trkpt lat="50.07047" lon="4.34882">
        <ele>211</ele>
        <time>2024-03-17T10:29:34Z</time>
      </trkpt>
      <trkpt lat="50.07044" lon="4.34876">
        <ele>211.2</ele>
        <time>2024-03-17T10:29:35Z</time>
      </trkpt>
      <trkpt lat="50.07041" lon="4.34871">
        <ele>211.2</ele>
        <time>2024-03-17T10:29:36Z</time>
      </trkpt>
      <trkpt lat="50.07038" lon="4.34865">
        <ele>211.4</ele>
        <time>2024-03-17T10:29:37Z</time>
      </trkpt>
      <trkpt lat="50.07036" lon="4.3486">
        <ele>211.4</ele>
        <time>2024-03-17T10:29:38Z</time>
      </trkpt>
      <trkpt lat="50.07033" lon="4.34855">
        <ele>211.6</ele>
        <time>2024-03-17T10:29:39Z</time>
      </trkpt>
      <trkpt lat="50.0703" lon="4.34849">
        <ele>211.6</ele>
        <time>2024-03-17T10:29:40Z</time>
      </trkpt>
      <trkpt lat="50.07027" lon="4.34844">
        <ele>211.8</ele>
        <time>2024-03-17T10:29:41Z</time>
      </trkpt>
      <trkpt lat="50.07024" lon="4.34839">
        <ele>212</ele>
        <time>2024-03-17T10:29:42Z</time>
      </trkpt>
      <trkpt lat="50.07021" lon="4.34833">
        <ele>212.2</ele>
        <time>2024-03-17T10:29:43Z</time>
      </trkpt>
      <trkpt lat="50.07019" lon="4.34828">
        <ele>212.2</ele>
        <time>2024-03-17T10:29:44Z</time>
      </trkpt>
      <trkpt lat="50.07016" lon="4.34823">
        <ele>212.2</ele>
        <time>2024-03-17T10:29:45Z</time>
      </trkpt>
      <trkpt lat="50.07013" lon="4.34818">
        <ele>212.2</ele>
        <time>2024-03-17T10:29:46Z</time>
      </trkpt>
      <trkpt lat="50.0701" lon="4.34812">
        <ele>212.8</ele>
        <time>2024-03-17T10:29:47Z</time>
      </trkpt>
      <trkpt lat="50.07007" lon="4.34807">
        <ele>213.4</ele>
        <time>2024-03-17T10:29:48Z</time>
      </trkpt>
      <trkpt lat="50.07005" lon="4.34802">
        <ele>214</ele>
        <time>2024-03-17T10:29:49Z</time>
      </trkpt>
      <trkpt lat="50.07002" lon="4.34797">
        <ele>214.4</ele>
        <time>2024-03-17T10:29:50Z</time>
      </trkpt>
      <trkpt lat="50.06999" lon="4.34791">
        <ele>214.6</ele>
        <time>2024-03-17T10:29:51Z</time>
      </trkpt>
      <trkpt lat="50.06997" lon="4.34786">
        <ele>214.8</ele>
        <time>2024-03-17T10:29:52Z</time>
      </trkpt>
      <trkpt lat="50.06994" lon="4.34781">
        <ele>215.2</ele>
        <time>2024-03-17T10:29:53Z</time>
      </trkpt>
      <trkpt lat="50.06991" lon="4.34775">
        <ele>215.2</ele>
        <time>2024-03-17T10:29:54Z</time>
      </trkpt>
      <trkpt lat="50.06988" lon="4.3477">
        <ele>215.4</ele>
        <time>2024-03-17T10:29:55Z</time>
      </trkpt>
      <trkpt lat="50.06985" lon="4.34764">
        <ele>215.6</ele>
        <time>2024-03-17T10:29:56Z</time>
      </trkpt>
      <trkpt lat="50.06982" lon="4.34759">
        <ele>215.6</ele>
        <time>2024-03-17T10:29:57Z</time>
      </trkpt>
      <trkpt lat="50.06979" lon="4.34753">
        <ele>215.8</ele>
        <time>2024-03-17T10:29:58Z</time>
      </trkpt>
      <trkpt lat="50.06976" lon="4.34747">
        <ele>215.8</ele>
        <time>2024-03-17T10:29:59Z</time>
      </trkpt>
      <trkpt lat="50.06973" lon="4.34741">
        <ele>216.2</ele>
        <time>2024-03-17T10:30:00Z</time>
      </trkpt>
      <trkpt lat="50.0697" lon="4.34735">
        <ele>216.2</ele>
        <time>2024-03-17T10:30:01Z</time>
      </trkpt>
      <trkpt lat="50.06966" lon="4.34729">
        <ele>216.4</ele>
        <time>2024-03-17T10:30:02Z</time>
      </trkpt>
      <trkpt lat="50.06963" lon="4.34723">
        <ele>216.4</ele>
        <time>2024-03-17T10:30:03Z</time>
      </trkpt>
      <trkpt lat="50.0696" lon="4.34717">
        <ele>216.4</ele>
        <time>2024-03-17T10:30:04Z</time>
      </trkpt>
      <trkpt lat="50.06956" lon="4.34711">
        <ele>216.4</ele>
        <time>2024-03-17T10:30:05Z</time>
      </trkpt>
      <trkpt lat="50.06953" lon="4.34704">
        <ele>216.6</ele>
        <time>2024-03-17T10:30:06Z</time>
      </trkpt>
      <trkpt lat="50.0695" lon="4.34698">
        <ele>216.6</ele>
        <time>2024-03-17T10:30:07Z</time>
      </trkpt>
      <trkpt lat="50.06946" lon="4.34692">
        <ele>216.8</ele>
        <time>2024-03-17T10:30:08Z</time>
      </trkpt>
      <trkpt lat="50.06943" lon="4.34685">
        <ele>216.6</ele>
        <time>2024-03-17T10:30:09Z</time>
      </trkpt>
      <trkpt lat="50.06939" lon="4.34679">
        <ele>216.6</ele>
        <time>2024-03-17T10:30:10Z</time>
      </trkpt>
      <trkpt lat="50.06936" lon="4.34672">
        <ele>216.6</ele>
        <time>2024-03-17T10:30:11Z</time>
      </trkpt>
      <trkpt lat="50.06932" lon="4.34665">
        <ele>216.6</ele>
        <time>2024-03-17T10:30:12Z</time>
      </trkpt>
      <trkpt lat="50.06929" lon="4.34658">
        <ele>216.8</ele>
        <time>2024-03-17T10:30:13Z</time>
      </trkpt>
      <trkpt lat="50.06925" lon="4.34651">
        <ele>216.6</ele>
        <time>2024-03-17T10:30:14Z</time>
      </trkpt>
      <trkpt lat="50.06921" lon="4.34644">
        <ele>216.6</ele>
        <time>2024-03-17T10:30:15Z</time>
      </trkpt>
      <trkpt lat="50.06917" lon="4.34637">
        <ele>216.6</ele>
        <time>2024-03-17T10:30:16Z</time>
      </trkpt>
      <trkpt lat="50.06914" lon="4.3463">
        <ele>216.6</ele>
        <time>2024-03-17T10:30:17Z</time>
      </trkpt>
      <trkpt lat="50.0691" lon="4.34622">
        <ele>216.4</ele>
        <time>2024-03-17T10:30:18Z</time>
      </trkpt>
      <trkpt lat="50.06906" lon="4.34615">
        <ele>216.6</ele>
        <time>2024-03-17T10:30:19Z</time>
      </trkpt>
      <trkpt lat="50.06902" lon="4.34607">
        <ele>216.2</ele>
        <time>2024-03-17T10:30:20Z</time>
      </trkpt>
      <trkpt lat="50.06898" lon="4.346">
        <ele>216</ele>
        <time>2024-03-17T10:30:21Z</time>
      </trkpt>
      <trkpt lat="50.06894" lon="4.34592">
        <ele>215.8</ele>
        <time>2024-03-17T10:30:22Z</time>
      </trkpt>
      <trkpt lat="50.06891" lon="4.34584">
        <ele>215.8</ele>
        <time>2024-03-17T10:30:23Z</time>
      </trkpt>
      <trkpt lat="50.06887" lon="4.34576">
        <ele>215.6</ele>
        <time>2024-03-17T10:30:24Z</time>
      </trkpt>
      <trkpt lat="50.06883" lon="4.34568">
        <ele>215.6</ele>
        <time>2024-03-17T10:30:25Z</time>
      </trkpt>
      <trkpt lat="50.06879" lon="4.3456">
        <ele>215.8</ele>
        <time>2024-03-17T10:30:26Z</time>
      </trkpt>
      <trkpt lat="50.06875" lon="4.34552">
        <ele>215.6</ele>
        <time>2024-03-17T10:30:27Z</time>
      </trkpt>
      <trkpt lat="50.06871" lon="4.34543">
        <ele>215.6</ele>
        <time>2024-03-17T10:30:28Z</time>
      </trkpt>
      <trkpt lat="50.06868" lon="4.34535">
        <ele>215.4</ele>
        <time>2024-03-17T10:30:29Z</time>
      </trkpt>
      <trkpt lat="50.06864" lon="4.34526">
        <ele>214.6</ele>
        <time>2024-03-17T10:30:30Z</time>
      </trkpt>
      <trkpt lat="50.0686" lon="4.34517">
        <ele>214.2</ele>
        <time>2024-03-17T10:30:31Z</time>
      </trkpt>
      <trkpt lat="50.06856" lon="4.34508">
        <ele>214</ele>
        <time>2024-03-17T10:30:32Z</time>
      </trkpt>
      <trkpt lat="50.06853" lon="4.34499">
        <ele>213.6</ele>
        <time>2024-03-17T10:30:33Z</time>
      </trkpt>
      <trkpt lat="50.0685" lon="4.3449">
        <ele>213.6</ele>
        <time>2024-03-17T10:30:34Z</time>
      </trkpt>
      <trkpt lat="50.06846" lon="4.3448">
        <ele>213.4</ele>
        <time>2024-03-17T10:30:35Z</time>
      </trkpt>
      <trkpt lat="50.06843" lon="4.34471">
        <ele>213.4</ele>
        <time>2024-03-17T10:30:36Z</time>
      </trkpt>
      <trkpt lat="50.0684" lon="4.34461">
        <ele>213.2</ele>
        <time>2024-03-17T10:30:37Z</time>
      </trkpt>
      <trkpt lat="50.06837" lon="4.34451">
        <ele>213.2</ele>
        <time>2024-03-17T10:30:38Z</time>
      </trkpt>
      <trkpt lat="50.06834" lon="4.34442">
        <ele>213.2</ele>
        <time>2024-03-17T10:30:39Z</time>
      </trkpt>
      <trkpt lat="50.06832" lon="4.34432">
        <ele>213</ele>
        <time>2024-03-17T10:30:40Z</time>
      </trkpt>
      <trkpt lat="50.06829" lon="4.34423">
        <ele>212.8</ele>
        <time>2024-03-17T10:30:41Z</time>
      </trkpt>
      <trkpt lat="50.06827" lon="4.34413">
        <ele>212.8</ele>
        <time>2024-03-17T10:30:42Z</time>
      </trkpt>
      <trkpt lat="50.06824" lon="4.34403">
        <ele>212.6</ele>
        <time>2024-03-17T10:30:43Z</time>
      </trkpt>
      <trkpt lat="50.06822" lon="4.34394">
        <ele>212.6</ele>
        <time>2024-03-17T10:30:44Z</time>
      </trkpt>
      <trkpt lat="50.0682" lon="4.34384">
        <ele>212.4</ele>
        <time>2024-03-17T10:30:45Z</time>
      </trkpt>
      <trkpt lat="50.06818" lon="4.34375">
        <ele>212.6</ele>
        <time>2024-03-17T10:30:46Z</time>
      </trkpt>
      <trkpt lat="50.06816" lon="4.34365">
        <ele>212.4</ele>
        <time>2024-03-17T10:30:47Z</time>
      </trkpt>
      <trkpt lat="50.06813" lon="4.34355">
        <ele>212.6</ele>
        <time>2024-03-17T10:30:48Z</time>
      </trkpt>
      <trkpt lat="50.06811" lon="4.34346">
        <ele>212.4</ele>
        <time>2024-03-17T10:30:49Z</time>
      </trkpt>
      <trkpt lat="50.06809" lon="4.34336">
        <ele>212.4</ele>
        <time>2024-03-17T10:30:50Z</time>
      </trkpt>
      <trkpt lat="50.06807" lon="4.34327">
        <ele>212.6</ele>
        <time>2024-03-17T10:30:51Z</time>
      </trkpt>
      <trkpt lat="50.06805" lon="4.34317">
        <ele>212.6</ele>
        <time>2024-03-17T10:30:52Z</time>
      </trkpt>
      <trkpt lat="50.06802" lon="4.34307">
        <ele>212.4</ele>
        <time>2024-03-17T10:30:53Z</time>
      </trkpt>
      <trkpt lat="50.068" lon="4.34298">
        <ele>212.6</ele>
        <time>2024-03-17T10:30:54Z</time>
      </trkpt>
      <trkpt lat="50.06798" lon="4.34288">
        <ele>212.6</ele>
        <time>2024-03-17T10:30:55Z</time>
      </trkpt>
      <trkpt lat="50.06796" lon="4.34279">
        <ele>212.6</ele>
        <time>2024-03-17T10:30:56Z</time>
      </trkpt>
      <trkpt lat="50.06794" lon="4.3427">
        <ele>213</ele>
        <time>2024-03-17T10:30:57Z</time>
      </trkpt>
      <trkpt lat="50.06792" lon="4.3426">
        <ele>213.6</ele>
        <time>2024-03-17T10:30:58Z</time>
      </trkpt>
      <trkpt lat="50.0679" lon="4.34251">
        <ele>214</ele>
        <time>2024-03-17T10:30:59Z</time>
      </trkpt>
      <trkpt lat="50.06788" lon="4.34241">
        <ele>214</ele>
        <time>2024-03-17T10:31:00Z</time>
      </trkpt>
      <trkpt lat="50.06786" lon="4.34231">
        <ele>214.2</ele>
        <time>2024-03-17T10:31:01Z</time>
      </trkpt>
      <trkpt lat="50.06784" lon="4.34222">
        <ele>214.2</ele>
        <time>2024-03-17T10:31:02Z</time>
      </trkpt>
      <trkpt lat="50.06782" lon="4.34212">
        <ele>214.4</ele>
        <time>2024-03-17T10:31:03Z</time>
      </trkpt>
      <trkpt lat="50.06779" lon="4.34203">
        <ele>214.2</ele>
        <time>2024-03-17T10:31:04Z</time>
      </trkpt>
      <trkpt lat="50.06777" lon="4.34194">
        <ele>214.4</ele>
        <time>2024-03-17T10:31:05Z</time>
      </trkpt>
      <trkpt lat="50.06775" lon="4.34184">
        <ele>214.6</ele>
        <time>2024-03-17T10:31:06Z</time>
      </trkpt>
      <trkpt lat="50.06773" lon="4.34174">
        <ele>214.6</ele>
        <time>2024-03-17T10:31:07Z</time>
      </trkpt>
      <trkpt lat="50.06771" lon="4.34165">
        <ele>214.8</ele>
        <time>2024-03-17T10:31:08Z</time>
      </trkpt>
      <trkpt lat="50.06769" lon="4.34155">
        <ele>214.8</ele>
        <time>2024-03-17T10:31:09Z</time>
      </trkpt>
      <trkpt lat="50.06767" lon="4.34146">
        <ele>214.8</ele>
        <time>2024-03-17T10:31:10Z</time>
      </trkpt>
      <trkpt lat="50.06765" lon="4.34136">
        <ele>214.8</ele>
        <time>2024-03-17T10:31:11Z</time>
      </trkpt>
      <trkpt lat="50.06763" lon="4.34127">
        <ele>214.8</ele>
        <time>2024-03-17T10:31:12Z</time>
      </trkpt>
      <trkpt lat="50.06761" lon="4.34117">
        <ele>214.8</ele>
        <time>2024-03-17T10:31:13Z</time>
      </trkpt>
      <trkpt lat="50.06759" lon="4.34107">
        <ele>214.8</ele>
        <time>2024-03-17T10:31:14Z</time>
      </trkpt>
      <trkpt lat="50.06757" lon="4.34098">
        <ele>214.8</ele>
        <time>2024-03-17T10:31:15Z</time>
      </trkpt>
      <trkpt lat="50.06754" lon="4.34088">
        <ele>214.8</ele>
        <time>2024-03-17T10:31:16Z</time>
      </trkpt>
      <trkpt lat="50.06752" lon="4.34078">
        <ele>214.8</ele>
        <time>2024-03-17T10:31:17Z</time>
      </trkpt>
      <trkpt lat="50.0675" lon="4.34068">
        <ele>214.8</ele>
        <time>2024-03-17T10:31:18Z</time>
      </trkpt>
      <trkpt lat="50.06748" lon="4.34058">
        <ele>215</ele>
        <time>2024-03-17T10:31:19Z</time>
      </trkpt>
      <trkpt lat="50.06746" lon="4.34048">
        <ele>215</ele>
        <time>2024-03-17T10:31:20Z</time>
      </trkpt>
      <trkpt lat="50.06743" lon="4.34038">
        <ele>214.8</ele>
        <time>2024-03-17T10:31:21Z</time>
      </trkpt>
      <trkpt lat="50.06741" lon="4.34028">
        <ele>214.8</ele>
        <time>2024-03-17T10:31:22Z</time>
      </trkpt>
      <trkpt lat="50.06739" lon="4.34018">
        <ele>215</ele>
        <time>2024-03-17T10:31:23Z</time>
      </trkpt>
      <trkpt lat="50.06736" lon="4.34009">
        <ele>214.8</ele>
        <time>2024-03-17T10:31:24Z</time>
      </trkpt>
      <trkpt lat="50.06734" lon="4.33999">
        <ele>214.8</ele>
        <time>2024-03-17T10:31:25Z</time>
      </trkpt>
      <trkpt lat="50.06731" lon="4.33989">
        <ele>214.8</ele>
        <time>2024-03-17T10:31:26Z</time>
      </trkpt>
      <trkpt lat="50.06729" lon="4.33979">
        <ele>214.6</ele>
        <time>2024-03-17T10:31:27Z</time>
      </trkpt>
      <trkpt lat="50.06726" lon="4.33969">
        <ele>214.6</ele>
        <time>2024-03-17T10:31:28Z</time>
      </trkpt>
      <trkpt lat="50.06723" lon="4.33959">
        <ele>214.6</ele>
        <time>2024-03-17T10:31:29Z</time>
      </trkpt>
      <trkpt lat="50.0672" lon="4.3395">
        <ele>214.4</ele>
        <time>2024-03-17T10:31:30Z</time>
      </trkpt>
      <trkpt lat="50.06717" lon="4.3394">
        <ele>214.4</ele>
        <time>2024-03-17T10:31:31Z</time>
      </trkpt>
      <trkpt lat="50.06713" lon="4.33931">
        <ele>214.4</ele>
        <time>2024-03-17T10:31:32Z</time>
      </trkpt>
      <trkpt lat="50.0671" lon="4.33921">
        <ele>214.4</ele>
        <time>2024-03-17T10:31:33Z</time>
      </trkpt>
      <trkpt lat="50.06707" lon="4.33912">
        <ele>214.2</ele>
        <time>2024-03-17T10:31:34Z</time>
      </trkpt>
      <trkpt lat="50.06704" lon="4.33903">
        <ele>214.2</ele>
        <time>2024-03-17T10:31:35Z</time>
      </trkpt>
      <trkpt lat="50.06701" lon="4.33894">
        <ele>214.2</ele>
        <time>2024-03-17T10:31:36Z</time>
      </trkpt>
      <trkpt lat="50.06698" lon="4.33885">
        <ele>214</ele>
        <time>2024-03-17T10:31:37Z</time>
      </trkpt>
      <trkpt lat="50.06694" lon="4.33876">
        <ele>214</ele>
        <time>2024-03-17T10:31:38Z</time>
      </trkpt>
      <trkpt lat="50.06691" lon="4.33867">
        <ele>214</ele>
        <time>2024-03-17T10:31:39Z</time>
      </trkpt>
      <trkpt lat="50.06688" lon="4.33858">
        <ele>213.8</ele>
        <time>2024-03-17T10:31:40Z</time>
      </trkpt>
      <trkpt lat="50.06685" lon="4.33849">
        <ele>214</ele>
        <time>2024-03-17T10:31:41Z</time>
      </trkpt>
      <trkpt lat="50.06682" lon="4.33841">
        <ele>213.8</ele>
        <time>2024-03-17T10:31:42Z</time>
      </trkpt>
      <trkpt lat="50.06679" lon="4.33832">
        <ele>213.6</ele>
        <time>2024-03-17T10:31:43Z</time>
      </trkpt>
      <trkpt lat="50.06676" lon="4.33824">
        <ele>213.8</ele>
        <time>2024-03-17T10:31:44Z</time>
      </trkpt>
      <trkpt lat="50.06673" lon="4.33815">
        <ele>213.8</ele>
        <time>2024-03-17T10:31:45Z</time>
      </trkpt>
      <trkpt lat="50.06671" lon="4.33807">
        <ele>213.8</ele>
        <time>2024-03-17T10:31:46Z</time>
      </trkpt>
      <trkpt lat="50.06668" lon="4.33798">
        <ele>213.8</ele>
        <time>2024-03-17T10:31:47Z</time>
      </trkpt>
      <trkpt lat="50.06665" lon="4.3379">
        <ele>213.8</ele>
        <time>2024-03-17T10:31:48Z</time>
      </trkpt>
      <trkpt lat="50.06662" lon="4.33781">
        <ele>213.8</ele>
        <time>2024-03-17T10:31:49Z</time>
      </trkpt>
      <trkpt lat="50.0666" lon="4.33773">
        <ele>213.8</ele>
        <time>2024-03-17T10:31:50Z</time>
      </trkpt>
      <trkpt lat="50.06657" lon="4.33764">
        <ele>214</ele>
        <time>2024-03-17T10:31:51Z</time>
      </trkpt>
      <trkpt lat="50.06654" lon="4.33755">
        <ele>214</ele>
        <time>2024-03-17T10:31:52Z</time>
      </trkpt>
      <trkpt lat="50.06652" lon="4.33747">
        <ele>214.2</ele>
        <time>2024-03-17T10:31:53Z</time>
      </trkpt>
      <trkpt lat="50.06649" lon="4.33738">
        <ele>214.2</ele>
        <time>2024-03-17T10:31:54Z</time>
      </trkpt>
      <trkpt lat="50.06646" lon="4.3373">
        <ele>214.2</ele>
        <time>2024-03-17T10:31:55Z</time>
      </trkpt>
      <trkpt lat="50.06644" lon="4.33721">
        <ele>214.2</ele>
        <time>2024-03-17T10:31:56Z</time>
      </trkpt>
      <trkpt lat="50.06641" lon="4.33713">
        <ele>214.2</ele>
        <time>2024-03-17T10:31:57Z</time>
      </trkpt>
      <trkpt lat="50.06639" lon="4.33704">
        <ele>214.2</ele>
        <time>2024-03-17T10:31:58Z</time>
      </trkpt>
      <trkpt lat="50.06636" lon="4.33696">
        <ele>214.2</ele>
        <time>2024-03-17T10:31:59Z</time>
      </trkpt>
      <trkpt lat="50.06634" lon="4.33687">
        <ele>214.4</ele>
        <time>2024-03-17T10:32:00Z</time>
      </trkpt>
      <trkpt lat="50.06631" lon="4.33679">
        <ele>214.4</ele>
        <time>2024-03-17T10:32:01Z</time>
      </trkpt>
      <trkpt lat="50.06628" lon="4.33671">
        <ele>214.4</ele>
        <time>2024-03-17T10:32:02Z</time>
      </trkpt>
      <trkpt lat="50.06626" lon="4.33662">
        <ele>214.2</ele>
        <time>2024-03-17T10:32:03Z</time>
      </trkpt>
      <trkpt lat="50.06624" lon="4.33654">
        <ele>214.2</ele>
        <time>2024-03-17T10:32:04Z</time>
      </trkpt>
      <trkpt lat="50.06621" lon="4.33645">
        <ele>214.2</ele>
        <time>2024-03-17T10:32:05Z</time>
      </trkpt>
      <trkpt lat="50.06619" lon="4.33637">
        <ele>214.4</ele>
        <time>2024-03-17T10:32:06Z</time>
      </trkpt>
      <trkpt lat="50.06616" lon="4.33628">
        <ele>214.4</ele>
        <time>2024-03-17T10:32:07Z</time>
      </trkpt>
      <trkpt lat="50.06613" lon="4.33619">
        <ele>214.2</ele>
        <time>2024-03-17T10:32:08Z</time>
      </trkpt>
      <trkpt lat="50.06611" lon="4.3361">
        <ele>214.4</ele>
        <time>2024-03-17T10:32:09Z</time>
      </trkpt>
      <trkpt lat="50.06608" lon="4.33601">
        <ele>214.4</ele>
        <time>2024-03-17T10:32:10Z</time>
      </trkpt>
      <trkpt lat="50.06605" lon="4.33592">
        <ele>214.4</ele>
        <time>2024-03-17T10:32:11Z</time>
      </trkpt>
      <trkpt lat="50.06602" lon="4.33583">
        <ele>214.2</ele>
        <time>2024-03-17T10:32:12Z</time>
      </trkpt>
      <trkpt lat="50.06599" lon="4.33574">
        <ele>214.4</ele>
        <time>2024-03-17T10:32:13Z</time>
      </trkpt>
      <trkpt lat="50.06596" lon="4.33565">
        <ele>214.2</ele>
        <time>2024-03-17T10:32:14Z</time>
      </trkpt>
      <trkpt lat="50.06592" lon="4.33556">
        <ele>214.2</ele>
        <time>2024-03-17T10:32:15Z</time>
      </trkpt>
      <trkpt lat="50.06589" lon="4.33548">
        <ele>214.2</ele>
        <time>2024-03-17T10:32:16Z</time>
      </trkpt>
      <trkpt lat="50.06586" lon="4.33539">
        <ele>214.2</ele>
        <time>2024-03-17T10:32:17Z</time>
      </trkpt>
      <trkpt lat="50.06582" lon="4.3353">
        <ele>214</ele>
        <time>2024-03-17T10:32:18Z</time>
      </trkpt>
      <trkpt lat="50.06578" lon="4.33522">
        <ele>214</ele>
        <time>2024-03-17T10:32:19Z</time>
      </trkpt>
      <trkpt lat="50.06574" lon="4.33514">
        <ele>213.8</ele>
        <time>2024-03-17T10:32:20Z</time>
      </trkpt>
      <trkpt lat="50.0657" lon="4.33506">
        <ele>213.6</ele>
        <time>2024-03-17T10:32:21Z</time>
      </trkpt>
      <trkpt lat="50.06566" lon="4.33498">
        <ele>213.4</ele>
        <time>2024-03-17T10:32:22Z</time>
      </trkpt>
      <trkpt lat="50.06562" lon="4.3349">
        <ele>213.4</ele>
        <time>2024-03-17T10:32:23Z</time>
      </trkpt>
      <trkpt lat="50.06558" lon="4.33482">
        <ele>213.2</ele>
        <time>2024-03-17T10:32:24Z</time>
      </trkpt>
      <trkpt lat="50.06554" lon="4.33474">
        <ele>213.2</ele>
        <time>2024-03-17T10:32:25Z</time>
      </trkpt>
      <trkpt lat="50.0655" lon="4.33466">
        <ele>213</ele>
        <time>2024-03-17T10:32:26Z</time>
      </trkpt>
      <trkpt lat="50.06545" lon="4.33459">
        <ele>213</ele>
        <time>2024-03-17T10:32:27Z</time>
      </trkpt>
      <trkpt lat="50.06541" lon="4.33451">
        <ele>213.2</ele>
        <time>2024-03-17T10:32:28Z</time>
      </trkpt>
      <trkpt lat="50.06536" lon="4.33444">
        <ele>213</ele>
        <time>2024-03-17T10:32:29Z</time>
      </trkpt>
      <trkpt lat="50.06531" lon="4.33437">
        <ele>213</ele>
        <time>2024-03-17T10:32:30Z</time>
      </trkpt>
      <trkpt lat="50.06526" lon="4.3343">
        <ele>212.8</ele>
        <time>2024-03-17T10:32:31Z</time>
      </trkpt>
      <trkpt lat="50.06521" lon="4.33424">
        <ele>212.8</ele>
        <time>2024-03-17T10:32:32Z</time>
      </trkpt>
      <trkpt lat="50.06516" lon="4.33417">
        <ele>212.6</ele>
        <time>2024-03-17T10:32:33Z</time>
      </trkpt>
      <trkpt lat="50.06512" lon="4.33411">
        <ele>212.6</ele>
        <time>2024-03-17T10:32:34Z</time>
      </trkpt>
      <trkpt lat="50.06507" lon="4.33405">
        <ele>212.4</ele>
        <time>2024-03-17T10:32:35Z</time>
      </trkpt>
      <trkpt lat="50.06503" lon="4.334">
        <ele>212.2</ele>
        <time>2024-03-17T10:32:36Z</time>
      </trkpt>
      <trkpt lat="50.065" lon="4.33396">
        <ele>212</ele>
        <time>2024-03-17T10:32:37Z</time>
      </trkpt>
      <trkpt lat="50.06497" lon="4.33392">
        <ele>212</ele>
        <time>2024-03-17T10:32:38Z</time>
      </trkpt>
      <trkpt lat="50.06495" lon="4.3339">
        <ele>211.4</ele>
        <time>2024-03-17T10:32:39Z</time>
      </trkpt>
      <trkpt lat="50.06491" lon="4.33389">
        <ele>211.2</ele>
        <time>2024-03-17T10:32:40Z</time>
      </trkpt>
      <trkpt lat="50.06488" lon="4.33389">
        <ele>211.2</ele>
        <time>2024-03-17T10:32:41Z</time>
      </trkpt>
      <trkpt lat="50.06484" lon="4.33392">
        <ele>210.8</ele>
        <time>2024-03-17T10:32:42Z</time>
      </trkpt>
      <trkpt lat="50.06479" lon="4.33395">
        <ele>210.6</ele>
        <time>2024-03-17T10:32:43Z</time>
      </trkpt>
      <trkpt lat="50.06474" lon="4.33399">
        <ele>210.8</ele>
        <time>2024-03-17T10:32:44Z</time>
      </trkpt>
      <trkpt lat="50.06469" lon="4.33404">
        <ele>210.6</ele>
        <time>2024-03-17T10:32:45Z</time>
      </trkpt>
      <trkpt lat="50.06463" lon="4.33409">
        <ele>210.4</ele>
        <time>2024-03-17T10:32:46Z</time>
      </trkpt>
      <trkpt lat="50.06458" lon="4.33415">
        <ele>210.4</ele>
        <time>2024-03-17T10:32:47Z</time>
      </trkpt>
      <trkpt lat="50.06451" lon="4.3342">
        <ele>210.2</ele>
        <time>2024-03-17T10:32:48Z</time>
      </trkpt>
      <trkpt lat="50.06445" lon="4.33426">
        <ele>210</ele>
        <time>2024-03-17T10:32:49Z</time>
      </trkpt>
      <trkpt lat="50.06439" lon="4.33432">
        <ele>210</ele>
        <time>2024-03-17T10:32:50Z</time>
      </trkpt>
      <trkpt lat="50.06432" lon="4.33439">
        <ele>209.6</ele>
        <time>2024-03-17T10:32:51Z</time>
      </trkpt>
      <trkpt lat="50.06426" lon="4.33446">
        <ele>209</ele>
        <time>2024-03-17T10:32:52Z</time>
      </trkpt>
      <trkpt lat="50.0642" lon="4.33453">
        <ele>208.8</ele>
        <time>2024-03-17T10:32:53Z</time>
      </trkpt>
      <trkpt lat="50.06413" lon="4.3346">
        <ele>208.6</ele>
        <time>2024-03-17T10:32:54Z</time>
      </trkpt>
      <trkpt lat="50.06406" lon="4.33467">
        <ele>208.4</ele>
        <time>2024-03-17T10:32:55Z</time>
      </trkpt>
      <trkpt lat="50.064" lon="4.33474">
        <ele>208.4</ele>
        <time>2024-03-17T10:32:56Z</time>
      </trkpt>
      <trkpt lat="50.06393" lon="4.33481">
        <ele>207.8</ele>
        <time>2024-03-17T10:32:57Z</time>
      </trkpt>
      <trkpt lat="50.06387" lon="4.33487">
        <ele>207.4</ele>
        <time>2024-03-17T10:32:58Z</time>
      </trkpt>
      <trkpt lat="50.06381" lon="4.33494">
        <ele>207</ele>
        <time>2024-03-17T10:32:59Z</time>
      </trkpt>
      <trkpt lat="50.06374" lon="4.33501">
        <ele>206.8</ele>
        <time>2024-03-17T10:33:00Z</time>
      </trkpt>
      <trkpt lat="50.06367" lon="4.33508">
        <ele>206.8</ele>
        <time>2024-03-17T10:33:01Z</time>
      </trkpt>
      <trkpt lat="50.06361" lon="4.33515">
        <ele>206.6</ele>
        <time>2024-03-17T10:33:02Z</time>
      </trkpt>
      <trkpt lat="50.06354" lon="4.33522">
        <ele>206</ele>
        <time>2024-03-17T10:33:03Z</time>
      </trkpt>
      <trkpt lat="50.06348" lon="4.33528">
        <ele>205.2</ele>
        <time>2024-03-17T10:33:04Z</time>
      </trkpt>
      <trkpt lat="50.06342" lon="4.33535">
        <ele>204.8</ele>
        <time>2024-03-17T10:33:05Z</time>
      </trkpt>
      <trkpt lat="50.06335" lon="4.33542">
        <ele>204.4</ele>
        <time>2024-03-17T10:33:06Z</time>
      </trkpt>
      <trkpt lat="50.06329" lon="4.33548">
        <ele>204</ele>
        <time>2024-03-17T10:33:07Z</time>
      </trkpt>
      <trkpt lat="50.06323" lon="4.33554">
        <ele>204</ele>
        <time>2024-03-17T10:33:08Z</time>
      </trkpt>
      <trkpt lat="50.06317" lon="4.33561">
        <ele>203.8</ele>
        <time>2024-03-17T10:33:09Z</time>
      </trkpt>
      <trkpt lat="50.06311" lon="4.33567">
        <ele>204</ele>
        <time>2024-03-17T10:33:10Z</time>
      </trkpt>
      <trkpt lat="50.06305" lon="4.33573">
        <ele>203.8</ele>
        <time>2024-03-17T10:33:11Z</time>
      </trkpt>
      <trkpt lat="50.06299" lon="4.3358">
        <ele>203.8</ele>
        <time>2024-03-17T10:33:12Z</time>
      </trkpt>
      <trkpt lat="50.06293" lon="4.33586">
        <ele>203.8</ele>
        <time>2024-03-17T10:33:13Z</time>
      </trkpt>
      <trkpt lat="50.06287" lon="4.33592">
        <ele>203.8</ele>
        <time>2024-03-17T10:33:14Z</time>
      </trkpt>
      <trkpt lat="50.06282" lon="4.33598">
        <ele>203.8</ele>
        <time>2024-03-17T10:33:15Z</time>
      </trkpt>
      <trkpt lat="50.06277" lon="4.33604">
        <ele>203.8</ele>
        <time>2024-03-17T10:33:16Z</time>
      </trkpt>
      <trkpt lat="50.06272" lon="4.33609">
        <ele>203.8</ele>
        <time>2024-03-17T10:33:17Z</time>
      </trkpt>
      <trkpt lat="50.06267" lon="4.33615">
        <ele>203.8</ele>
        <time>2024-03-17T10:33:18Z</time>
      </trkpt>
      <trkpt lat="50.06261" lon="4.33619">
        <ele>203.8</ele>
        <time>2024-03-17T10:33:19Z</time>
      </trkpt>
      <trkpt lat="50.06256" lon="4.33622">
        <ele>203.8</ele>
        <time>2024-03-17T10:33:20Z</time>
      </trkpt>
      <trkpt lat="50.0625" lon="4.33624">
        <ele>203.8</ele>
        <time>2024-03-17T10:33:21Z</time>
      </trkpt>
      <trkpt lat="50.06245" lon="4.33625">
        <ele>204</ele>
        <time>2024-03-17T10:33:22Z</time>
      </trkpt>
      <trkpt lat="50.0624" lon="4.33624">
        <ele>204.2</ele>
        <time>2024-03-17T10:33:23Z</time>
      </trkpt>
      <trkpt lat="50.06236" lon="4.33623">
        <ele>204.2</ele>
        <time>2024-03-17T10:33:24Z</time>
      </trkpt>
      <trkpt lat="50.06232" lon="4.3362">
        <ele>204.2</ele>
        <time>2024-03-17T10:33:25Z</time>
      </trkpt>
      <trkpt lat="50.06229" lon="4.33617">
        <ele>204.4</ele>
        <time>2024-03-17T10:33:26Z</time>
      </trkpt>
      <trkpt lat="50.06226" lon="4.33614">
        <ele>204.4</ele>
        <time>2024-03-17T10:33:27Z</time>
      </trkpt>
      <trkpt lat="50.06223" lon="4.33612">
        <ele>204.6</ele>
        <time>2024-03-17T10:33:28Z</time>
      </trkpt>
      <trkpt lat="50.0622" lon="4.33609">
        <ele>204.6</ele>
        <time>2024-03-17T10:33:29Z</time>
      </trkpt>
      <trkpt lat="50.06218" lon="4.33606">
        <ele>204.8</ele>
        <time>2024-03-17T10:33:30Z</time>
      </trkpt>
      <trkpt lat="50.06216" lon="4.33602">
        <ele>204.8</ele>
        <time>2024-03-17T10:33:31Z</time>
      </trkpt>
      <trkpt lat="50.06214" lon="4.33599">
        <ele>205.2</ele>
        <time>2024-03-17T10:33:32Z</time>
      </trkpt>
      <trkpt lat="50.06212" lon="4.33595">
        <ele>205.6</ele>
        <time>2024-03-17T10:33:33Z</time>
      </trkpt>
      <trkpt lat="50.0621" lon="4.33591">
        <ele>206.2</ele>
        <time>2024-03-17T10:33:34Z</time>
      </trkpt>
      <trkpt lat="50.06208" lon="4.33586">
        <ele>206.8</ele>
        <time>2024-03-17T10:33:35Z</time>
      </trkpt>
      <trkpt lat="50.06207" lon="4.33582">
        <ele>207.4</ele>
        <time>2024-03-17T10:33:36Z</time>
      </trkpt>
      <trkpt lat="50.06205" lon="4.33578">
        <ele>208.4</ele>
        <time>2024-03-17T10:33:37Z</time>
      </trkpt>
      <trkpt lat="50.06203" lon="4.33574">
        <ele>209.4</ele>
        <time>2024-03-17T10:33:38Z</time>
      </trkpt>
      <trkpt lat="50.06201" lon="4.3357">
        <ele>209.8</ele>
        <time>2024-03-17T10:33:39Z</time>
      </trkpt>
      <trkpt lat="50.062" lon="4.33566">
        <ele>210.2</ele>
        <time>2024-03-17T10:33:40Z</time>
      </trkpt>
      <trkpt lat="50.06198" lon="4.33562">
        <ele>210.6</ele>
        <time>2024-03-17T10:33:41Z</time>
      </trkpt>
      <trkpt lat="50.06197" lon="4.33557">
        <ele>211</ele>
        <time>2024-03-17T10:33:42Z</time>
      </trkpt>
      <trkpt lat="50.06195" lon="4.33553">
        <ele>211.4</ele>
        <time>2024-03-17T10:33:43Z</time>
      </trkpt>
      <trkpt lat="50.06194" lon="4.33549">
        <ele>211.8</ele>
        <time>2024-03-17T10:33:44Z</time>
      </trkpt>
      <trkpt lat="50.06192" lon="4.33546">
        <ele>212</ele>
        <time>2024-03-17T10:33:45Z</time>
      </trkpt>
      <trkpt lat="50.06191" lon="4.33542">
        <ele>212.2</ele>
        <time>2024-03-17T10:33:46Z</time>
      </trkpt>
      <trkpt lat="50.06189" lon="4.33538">
        <ele>212.4</ele>
        <time>2024-03-17T10:33:47Z</time>
      </trkpt>
      <trkpt lat="50.06187" lon="4.33534">
        <ele>212.8</ele>
        <time>2024-03-17T10:33:48Z</time>
      </trkpt>
      <trkpt lat="50.06186" lon="4.3353">
        <ele>213</ele>
        <time>2024-03-17T10:33:49Z</time>
      </trkpt>
      <trkpt lat="50.06185" lon="4.33527">
        <ele>213.4</ele>
        <time>2024-03-17T10:33:50Z</time>
      </trkpt>
      <trkpt lat="50.06183" lon="4.33523">
        <ele>213.4</ele>
        <time>2024-03-17T10:33:51Z</time>
      </trkpt>
      <trkpt lat="50.06181" lon="4.33519">
        <ele>213.6</ele>
        <time>2024-03-17T10:33:52Z</time>
      </trkpt>
      <trkpt lat="50.0618" lon="4.33515">
        <ele>213.8</ele>
        <time>2024-03-17T10:33:53Z</time>
      </trkpt>
      <trkpt lat="50.06178" lon="4.33511">
        <ele>214</ele>
        <time>2024-03-17T10:33:54Z</time>
      </trkpt>
      <trkpt lat="50.06177" lon="4.33507">
        <ele>214.2</ele>
        <time>2024-03-17T10:33:55Z</time>
      </trkpt>
      <trkpt lat="50.06175" lon="4.33503">
        <ele>214.4</ele>
        <time>2024-03-17T10:33:56Z</time>
      </trkpt>
      <trkpt lat="50.06174" lon="4.33499">
        <ele>214.4</ele>
        <time>2024-03-17T10:33:57Z</time>
      </trkpt>
      <trkpt lat="50.06172" lon="4.33495">
        <ele>214.8</ele>
        <time>2024-03-17T10:33:58Z</time>
      </trkpt>
      <trkpt lat="50.0617" lon="4.33491">
        <ele>215.2</ele>
        <time>2024-03-17T10:33:59Z</time>
      </trkpt>
      <trkpt lat="50.06169" lon="4.33487">
        <ele>215.4</ele>
        <time>2024-03-17T10:34:00Z</time>
      </trkpt>
      <trkpt lat="50.06167" lon="4.33483">
        <ele>215.6</ele>
        <time>2024-03-17T10:34:01Z</time>
      </trkpt>
      <trkpt lat="50.06166" lon="4.3348">
        <ele>216</ele>
        <time>2024-03-17T10:34:02Z</time>
      </trkpt>
      <trkpt lat="50.06164" lon="4.33476">
        <ele>216.2</ele>
        <time>2024-03-17T10:34:03Z</time>
      </trkpt>
      <trkpt lat="50.06163" lon="4.33472">
        <ele>216.2</ele>
        <time>2024-03-17T10:34:04Z</time>
      </trkpt>
      <trkpt lat="50.06161" lon="4.33469">
        <ele>216.8</ele>
        <time>2024-03-17T10:34:05Z</time>
      </trkpt>
      <trkpt lat="50.0616" lon="4.33465">
        <ele>217</ele>
        <time>2024-03-17T10:34:06Z</time>
      </trkpt>
      <trkpt lat="50.06158" lon="4.33461">
        <ele>217.4</ele>
        <time>2024-03-17T10:34:07Z</time>
      </trkpt>
      <trkpt lat="50.06157" lon="4.33458">
        <ele>217.4</ele>
        <time>2024-03-17T10:34:08Z</time>
      </trkpt>
      <trkpt lat="50.06155" lon="4.33454">
        <ele>217.6</ele>
        <time>2024-03-17T10:34:09Z</time>
      </trkpt>
      <trkpt lat="50.06153" lon="4.3345">
        <ele>218</ele>
        <time>2024-03-17T10:34:10Z</time>
      </trkpt>
      <trkpt lat="50.06152" lon="4.33447">
        <ele>218.2</ele>
        <time>2024-03-17T10:34:11Z</time>
      </trkpt>
      <trkpt lat="50.0615" lon="4.33443">
        <ele>218.4</ele>
        <time>2024-03-17T10:34:12Z</time>
      </trkpt>
      <trkpt lat="50.06148" lon="4.3344">
        <ele>218.6</ele>
        <time>2024-03-17T10:34:13Z</time>
      </trkpt>
      <trkpt lat="50.06147" lon="4.33436">
        <ele>218.8</ele>
        <time>2024-03-17T10:34:14Z</time>
      </trkpt>
      <trkpt lat="50.06146" lon="4.33433">
        <ele>219</ele>
        <time>2024-03-17T10:34:15Z</time>
      </trkpt>
      <trkpt lat="50.06145" lon="4.3343">
        <ele>219.2</ele>
        <time>2024-03-17T10:34:16Z</time>
      </trkpt>
      <trkpt lat="50.06143" lon="4.33426">
        <ele>219.4</ele>
        <time>2024-03-17T10:34:17Z</time>
      </trkpt>
      <trkpt lat="50.06141" lon="4.33423">
        <ele>219.6</ele>
        <time>2024-03-17T10:34:18Z</time>
      </trkpt>
      <trkpt lat="50.0614" lon="4.33419">
        <ele>219.8</ele>
        <time>2024-03-17T10:34:19Z</time>
      </trkpt>
      <trkpt lat="50.06138" lon="4.33416">
        <ele>220</ele>
        <time>2024-03-17T10:34:20Z</time>
      </trkpt>
      <trkpt lat="50.06136" lon="4.33412">
        <ele>220</ele>
        <time>2024-03-17T10:34:21Z</time>
      </trkpt>
      <trkpt lat="50.06134" lon="4.33409">
        <ele>220</ele>
        <time>2024-03-17T10:34:22Z</time>
      </trkpt>
      <trkpt lat="50.06132" lon="4.33405">
        <ele>220.2</ele>
        <time>2024-03-17T10:34:23Z</time>
      </trkpt>
      <trkpt lat="50.0613" lon="4.33402">
        <ele>220.4</ele>
        <time>2024-03-17T10:34:24Z</time>
      </trkpt>
      <trkpt lat="50.06128" lon="4.33399">
        <ele>220.4</ele>
        <time>2024-03-17T10:34:25Z</time>
      </trkpt>
      <trkpt lat="50.06127" lon="4.33395">
        <ele>220.8</ele>
        <time>2024-03-17T10:34:26Z</time>
      </trkpt>
      <trkpt lat="50.06125" lon="4.33392">
        <ele>221.2</ele>
        <time>2024-03-17T10:34:27Z</time>
      </trkpt>
      <trkpt lat="50.06123" lon="4.33389">
        <ele>221.4</ele>
        <time>2024-03-17T10:34:28Z</time>
      </trkpt>
      <trkpt lat="50.06121" lon="4.33386">
        <ele>221.6</ele>
        <time>2024-03-17T10:34:29Z</time>
      </trkpt>
      <trkpt lat="50.0612" lon="4.33382">
        <ele>221.6</ele>
        <time>2024-03-17T10:34:30Z</time>
      </trkpt>
      <trkpt lat="50.06118" lon="4.33379">
        <ele>221.6</ele>
        <time>2024-03-17T10:34:31Z</time>
      </trkpt>
      <trkpt lat="50.06116" lon="4.33376">
        <ele>221.8</ele>
        <time>2024-03-17T10:34:32Z</time>
      </trkpt>
      <trkpt lat="50.06113" lon="4.33372">
        <ele>222</ele>
        <time>2024-03-17T10:34:33Z</time>
      </trkpt>
      <trkpt lat="50.06111" lon="4.33369">
        <ele>222.2</ele>
        <time>2024-03-17T10:34:34Z</time>
      </trkpt>
      <trkpt lat="50.06109" lon="4.33365">
        <ele>222</ele>
        <time>2024-03-17T10:34:35Z</time>
      </trkpt>
      <trkpt lat="50.06107" lon="4.33361">
        <ele>222.4</ele>
        <time>2024-03-17T10:34:36Z</time>
      </trkpt>
      <trkpt lat="50.06105" lon="4.33358">
        <ele>222.6</ele>
        <time>2024-03-17T10:34:37Z</time>
      </trkpt>
      <trkpt lat="50.06102" lon="4.33354">
        <ele>223</ele>
        <time>2024-03-17T10:34:38Z</time>
      </trkpt>
      <trkpt lat="50.061" lon="4.33351">
        <ele>223.2</ele>
        <time>2024-03-17T10:34:39Z</time>
      </trkpt>
      <trkpt lat="50.06098" lon="4.33347">
        <ele>223.2</ele>
        <time>2024-03-17T10:34:40Z</time>
      </trkpt>
      <trkpt lat="50.06096" lon="4.33344">
        <ele>223.6</ele>
        <time>2024-03-17T10:34:41Z</time>
      </trkpt>
      <trkpt lat="50.06094" lon="4.3334">
        <ele>224</ele>
        <time>2024-03-17T10:34:42Z</time>
      </trkpt>
      <trkpt lat="50.06092" lon="4.33337">
        <ele>224.2</ele>
        <time>2024-03-17T10:34:43Z</time>
      </trkpt>
      <trkpt lat="50.06089" lon="4.33333">
        <ele>224.2</ele>
        <time>2024-03-17T10:34:44Z</time>
      </trkpt>
      <trkpt lat="50.06087" lon="4.3333">
        <ele>224.6</ele>
        <time>2024-03-17T10:34:45Z</time>
      </trkpt>
      <trkpt lat="50.06085" lon="4.33326">
        <ele>224.8</ele>
        <time>2024-03-17T10:34:46Z</time>
      </trkpt>
      <trkpt lat="50.06083" lon="4.33323">
        <ele>224.8</ele>
        <time>2024-03-17T10:34:47Z</time>
      </trkpt>
      <trkpt lat="50.06081" lon="4.33319">
        <ele>225</ele>
        <time>2024-03-17T10:34:48Z</time>
      </trkpt>
      <trkpt lat="50.06079" lon="4.33315">
        <ele>225</ele>
        <time>2024-03-17T10:34:49Z</time>
      </trkpt>
      <trkpt lat="50.06077" lon="4.33312">
        <ele>225</ele>
        <time>2024-03-17T10:34:50Z</time>
      </trkpt>
      <trkpt lat="50.06074" lon="4.33308">
        <ele>225.2</ele>
        <time>2024-03-17T10:34:51Z</time>
      </trkpt>
      <trkpt lat="50.06072" lon="4.33305">
        <ele>225</ele>
        <time>2024-03-17T10:34:52Z</time>
      </trkpt>
      <trkpt lat="50.0607" lon="4.33301">
        <ele>225.4</ele>
        <time>2024-03-17T10:34:53Z</time>
      </trkpt>
      <trkpt lat="50.06068" lon="4.33298">
        <ele>225.4</ele>
        <time>2024-03-17T10:34:54Z</time>
      </trkpt>
      <trkpt lat="50.06066" lon="4.33294">
        <ele>225.6</ele>
        <time>2024-03-17T10:34:55Z</time>
      </trkpt>
      <trkpt lat="50.06064" lon="4.33291">
        <ele>225.8</ele>
        <time>2024-03-17T10:34:56Z</time>
      </trkpt>
      <trkpt lat="50.06062" lon="4.33287">
        <ele>226</ele>
        <time>2024-03-17T10:34:57Z</time>
      </trkpt>
      <trkpt lat="50.0606" lon="4.33284">
        <ele>226.2</ele>
        <time>2024-03-17T10:34:58Z</time>
      </trkpt>
      <trkpt lat="50.06058" lon="4.33281">
        <ele>226.2</ele>
        <time>2024-03-17T10:34:59Z</time>
      </trkpt>
      <trkpt lat="50.06056" lon="4.33277">
        <ele>226.2</ele>
        <time>2024-03-17T10:35:00Z</time>
      </trkpt>
      <trkpt lat="50.06054" lon="4.33274">
        <ele>226.4</ele>
        <time>2024-03-17T10:35:01Z</time>
      </trkpt>
      <trkpt lat="50.06052" lon="4.3327">
        <ele>226.6</ele>
        <time>2024-03-17T10:35:02Z</time>
      </trkpt>
      <trkpt lat="50.06049" lon="4.33267">
        <ele>226.8</ele>
        <time>2024-03-17T10:35:03Z</time>
      </trkpt>
      <trkpt lat="50.06047" lon="4.33264">
        <ele>226.8</ele>
        <time>2024-03-17T10:35:04Z</time>
      </trkpt>
      <trkpt lat="50.06045" lon="4.3326">
        <ele>226.8</ele>
        <time>2024-03-17T10:35:05Z</time>
      </trkpt>
      <trkpt lat="50.06044" lon="4.33257">
        <ele>227.2</ele>
        <time>2024-03-17T10:35:06Z</time>
      </trkpt>
      <trkpt lat="50.06042" lon="4.33253">
        <ele>227.4</ele>
        <time>2024-03-17T10:35:07Z</time>
      </trkpt>
      <trkpt lat="50.0604" lon="4.3325">
        <ele>227.6</ele>
        <time>2024-03-17T10:35:08Z</time>
      </trkpt>
      <trkpt lat="50.06038" lon="4.33246">
        <ele>228</ele>
        <time>2024-03-17T10:35:09Z</time>
      </trkpt>
      <trkpt lat="50.06036" lon="4.33243">
        <ele>228.2</ele>
        <time>2024-03-17T10:35:10Z</time>
      </trkpt>
      <trkpt lat="50.06034" lon="4.3324">
        <ele>228.4</ele>
        <time>2024-03-17T10:35:11Z</time>
      </trkpt>
      <trkpt lat="50.06032" lon="4.33237">
        <ele>228.4</ele>
        <time>2024-03-17T10:35:12Z</time>
      </trkpt>
      <trkpt lat="50.0603" lon="4.33233">
        <ele>228.6</ele>
        <time>2024-03-17T10:35:13Z</time>
      </trkpt>
      <trkpt lat="50.06028" lon="4.3323">
        <ele>228.6</ele>
        <time>2024-03-17T10:35:14Z</time>
      </trkpt>
      <trkpt lat="50.06026" lon="4.33227">
        <ele>228.8</ele>
        <time>2024-03-17T10:35:15Z</time>
      </trkpt>
      <trkpt lat="50.06024" lon="4.33223">
        <ele>228.8</ele>
        <time>2024-03-17T10:35:16Z</time>
      </trkpt>
      <trkpt lat="50.06022" lon="4.3322">
        <ele>228.8</ele>
        <time>2024-03-17T10:35:17Z</time>
      </trkpt>
      <trkpt lat="50.0602" lon="4.33217">
        <ele>229</ele>
        <time>2024-03-17T10:35:18Z</time>
      </trkpt>
      <trkpt lat="50.06018" lon="4.33213">
        <ele>229</ele>
        <time>2024-03-17T10:35:19Z</time>
      </trkpt>
      <trkpt lat="50.06016" lon="4.3321">
        <ele>229</ele>
        <time>2024-03-17T10:35:20Z</time>
      </trkpt>
      <trkpt lat="50.06014" lon="4.33207">
        <ele>229</ele>
        <time>2024-03-17T10:35:21Z</time>
      </trkpt>
      <trkpt lat="50.06012" lon="4.33204">
        <ele>229.2</ele>
        <time>2024-03-17T10:35:22Z</time>
      </trkpt>
      <trkpt lat="50.0601" lon="4.33201">
        <ele>229</ele>
        <time>2024-03-17T10:35:23Z</time>
      </trkpt>
      <trkpt lat="50.06007" lon="4.33199">
        <ele>229</ele>
        <time>2024-03-17T10:35:24Z</time>
      </trkpt>
      <trkpt lat="50.06005" lon="4.33196">
        <ele>229.2</ele>
        <time>2024-03-17T10:35:25Z</time>
      </trkpt>
      <trkpt lat="50.06003" lon="4.33193">
        <ele>229.2</ele>
        <time>2024-03-17T10:35:26Z</time>
      </trkpt>
      <trkpt lat="50.06" lon="4.33191">
        <ele>229.2</ele>
        <time>2024-03-17T10:35:27Z</time>
      </trkpt>
      <trkpt lat="50.05998" lon="4.33189">
        <ele>229.4</ele>
        <time>2024-03-17T10:35:28Z</time>
      </trkpt>
      <trkpt lat="50.05995" lon="4.33187">
        <ele>229.8</ele>
        <time>2024-03-17T10:35:29Z</time>
      </trkpt>
      <trkpt lat="50.05992" lon="4.33185">
        <ele>230</ele>
        <time>2024-03-17T10:35:30Z</time>
      </trkpt>
      <trkpt lat="50.0599" lon="4.33182">
        <ele>230</ele>
        <time>2024-03-17T10:35:31Z</time>
      </trkpt>
      <trkpt lat="50.05987" lon="4.3318">
        <ele>230.4</ele>
        <time>2024-03-17T10:35:32Z</time>
      </trkpt>
      <trkpt lat="50.05985" lon="4.33179">
        <ele>230.4</ele>
        <time>2024-03-17T10:35:33Z</time>
      </trkpt>
      <trkpt lat="50.05982" lon="4.33177">
        <ele>230.4</ele>
        <time>2024-03-17T10:35:34Z</time>
      </trkpt>
      <trkpt lat="50.0598" lon="4.33175">
        <ele>230.6</ele>
        <time>2024-03-17T10:35:35Z</time>
      </trkpt>
      <trkpt lat="50.05977" lon="4.33173">
        <ele>231</ele>
        <time>2024-03-17T10:35:36Z</time>
      </trkpt>
      <trkpt lat="50.05975" lon="4.33172">
        <ele>231.2</ele>
        <time>2024-03-17T10:35:37Z</time>
      </trkpt>
      <trkpt lat="50.05972" lon="4.3317">
        <ele>231.2</ele>
        <time>2024-03-17T10:35:38Z</time>
      </trkpt>
      <trkpt lat="50.05969" lon="4.33168">
        <ele>231.6</ele>
        <time>2024-03-17T10:35:39Z</time>
      </trkpt>
      <trkpt lat="50.05967" lon="4.33167">
        <ele>231.8</ele>
        <time>2024-03-17T10:35:40Z</time>
      </trkpt>
      <trkpt lat="50.05964" lon="4.33166">
        <ele>232</ele>
        <time>2024-03-17T10:35:41Z</time>
      </trkpt>
      <trkpt lat="50.05961" lon="4.33165">
        <ele>232.2</ele>
        <time>2024-03-17T10:35:42Z</time>
      </trkpt>
      <trkpt lat="50.05959" lon="4.33164">
        <ele>232.2</ele>
        <time>2024-03-17T10:35:43Z</time>
      </trkpt>
      <trkpt lat="50.05956" lon="4.33163">
        <ele>232.4</ele>
        <time>2024-03-17T10:35:44Z</time>
      </trkpt>
      <trkpt lat="50.05953" lon="4.33162">
        <ele>232.4</ele>
        <time>2024-03-17T10:35:45Z</time>
      </trkpt>
      <trkpt lat="50.0595" lon="4.33162">
        <ele>232.8</ele>
        <time>2024-03-17T10:35:46Z</time>
      </trkpt>
      <trkpt lat="50.05947" lon="4.33161">
        <ele>232.8</ele>
        <time>2024-03-17T10:35:47Z</time>
      </trkpt>
      <trkpt lat="50.05944" lon="4.3316">
        <ele>233.2</ele>
        <time>2024-03-17T10:35:48Z</time>
      </trkpt>
      <trkpt lat="50.05941" lon="4.33159">
        <ele>233.4</ele>
        <time>2024-03-17T10:35:49Z</time>
      </trkpt>
      <trkpt lat="50.05938" lon="4.33159">
        <ele>233.2</ele>
        <time>2024-03-17T10:35:50Z</time>
      </trkpt>
      <trkpt lat="50.05935" lon="4.33158">
        <ele>233.2</ele>
        <time>2024-03-17T10:35:51Z</time>
      </trkpt>
      <trkpt lat="50.05932" lon="4.33157">
        <ele>233.6</ele>
        <time>2024-03-17T10:35:52Z</time>
      </trkpt>
      <trkpt lat="50.05929" lon="4.33156">
        <ele>233.6</ele>
        <time>2024-03-17T10:35:53Z</time>
      </trkpt>
      <trkpt lat="50.05926" lon="4.33155">
        <ele>233.6</ele>
        <time>2024-03-17T10:35:54Z</time>
      </trkpt>
      <trkpt lat="50.05923" lon="4.33154">
        <ele>233.8</ele>
        <time>2024-03-17T10:35:55Z</time>
      </trkpt>
      <trkpt lat="50.05919" lon="4.33154">
        <ele>234.2</ele>
        <time>2024-03-17T10:35:56Z</time>
      </trkpt>
      <trkpt lat="50.05916" lon="4.33153">
        <ele>234.4</ele>
        <time>2024-03-17T10:35:57Z</time>
      </trkpt>
      <trkpt lat="50.05912" lon="4.33152">
        <ele>234.4</ele>
        <time>2024-03-17T10:35:58Z</time>
      </trkpt>
      <trkpt lat="50.05909" lon="4.33152">
        <ele>234.8</ele>
        <time>2024-03-17T10:35:59Z</time>
      </trkpt>
      <trkpt lat="50.05906" lon="4.33151">
        <ele>235</ele>
        <time>2024-03-17T10:36:00Z</time>
      </trkpt>
      <trkpt lat="50.05902" lon="4.33151">
        <ele>235</ele>
        <time>2024-03-17T10:36:01Z</time>
      </trkpt>
      <trkpt lat="50.05899" lon="4.3315">
        <ele>235</ele>
        <time>2024-03-17T10:36:02Z</time>
      </trkpt>
      <trkpt lat="50.05895" lon="4.33149">
        <ele>235</ele>
        <time>2024-03-17T10:36:03Z</time>
      </trkpt>
      <trkpt lat="50.05892" lon="4.33149">
        <ele>235.2</ele>
        <time>2024-03-17T10:36:04Z</time>
      </trkpt>
      <trkpt lat="50.05889" lon="4.33148">
        <ele>235.2</ele>
        <time>2024-03-17T10:36:05Z</time>
      </trkpt>
      <trkpt lat="50.05885" lon="4.33148">
        <ele>235.4</ele>
        <time>2024-03-17T10:36:06Z</time>
      </trkpt>
      <trkpt lat="50.05882" lon="4.33148">
        <ele>235.6</ele>
        <time>2024-03-17T10:36:07Z</time>
      </trkpt>
      <trkpt lat="50.05879" lon="4.33147">
        <ele>235.6</ele>
        <time>2024-03-17T10:36:08Z</time>
      </trkpt>
      <trkpt lat="50.05875" lon="4.33146">
        <ele>235.6</ele>
        <time>2024-03-17T10:36:09Z</time>
      </trkpt>
      <trkpt lat="50.05872" lon="4.33146">
        <ele>235.6</ele>
        <time>2024-03-17T10:36:10Z</time>
      </trkpt>
      <trkpt lat="50.05868" lon="4.33145">
        <ele>235.4</ele>
        <time>2024-03-17T10:36:11Z</time>
      </trkpt>
      <trkpt lat="50.05865" lon="4.33145">
        <ele>235.4</ele>
        <time>2024-03-17T10:36:12Z</time>
      </trkpt>
      <trkpt lat="50.05861" lon="4.33144">
        <ele>235.6</ele>
        <time>2024-03-17T10:36:13Z</time>
      </trkpt>
      <trkpt lat="50.05858" lon="4.33143">
        <ele>235.8</ele>
        <time>2024-03-17T10:36:14Z</time>
      </trkpt>
      <trkpt lat="50.05854" lon="4.33142">
        <ele>235.6</ele>
        <time>2024-03-17T10:36:15Z</time>
      </trkpt>
      <trkpt lat="50.0585" lon="4.33141">
        <ele>235.8</ele>
        <time>2024-03-17T10:36:16Z</time>
      </trkpt>
      <trkpt lat="50.05846" lon="4.3314">
        <ele>235.8</ele>
        <time>2024-03-17T10:36:17Z</time>
      </trkpt>
      <trkpt lat="50.05843" lon="4.33139">
        <ele>236</ele>
        <time>2024-03-17T10:36:18Z</time>
      </trkpt>
      <trkpt lat="50.05839" lon="4.33138">
        <ele>236</ele>
        <time>2024-03-17T10:36:19Z</time>
      </trkpt>
      <trkpt lat="50.05835" lon="4.33136">
        <ele>236.6</ele>
        <time>2024-03-17T10:36:20Z</time>
      </trkpt>
      <trkpt lat="50.05831" lon="4.33135">
        <ele>237</ele>
        <time>2024-03-17T10:36:21Z</time>
      </trkpt>
      <trkpt lat="50.05827" lon="4.33134">
        <ele>237.2</ele>
        <time>2024-03-17T10:36:22Z</time>
      </trkpt>
      <trkpt lat="50.05823" lon="4.33134">
        <ele>237.4</ele>
        <time>2024-03-17T10:36:23Z</time>
      </trkpt>
      <trkpt lat="50.05819" lon="4.33133">
        <ele>237.8</ele>
        <time>2024-03-17T10:36:24Z</time>
      </trkpt>
      <trkpt lat="50.05815" lon="4.33132">
        <ele>238</ele>
        <time>2024-03-17T10:36:25Z</time>
      </trkpt>
      <trkpt lat="50.05811" lon="4.33131">
        <ele>238.2</ele>
        <time>2024-03-17T10:36:26Z</time>
      </trkpt>
      <trkpt lat="50.05807" lon="4.3313">
        <ele>238.2</ele>
        <time>2024-03-17T10:36:27Z</time>
      </trkpt>
      <trkpt lat="50.05802" lon="4.33129">
        <ele>238.2</ele>
        <time>2024-03-17T10:36:28Z</time>
      </trkpt>
      <trkpt lat="50.05798" lon="4.33128">
        <ele>238.2</ele>
        <time>2024-03-17T10:36:29Z</time>
      </trkpt>
      <trkpt lat="50.05793" lon="4.33127">
        <ele>238.4</ele>
        <time>2024-03-17T10:36:30Z</time>
      </trkpt>
      <trkpt lat="50.05789" lon="4.33127">
        <ele>238.4</ele>
        <time>2024-03-17T10:36:31Z</time>
      </trkpt>
      <trkpt lat="50.05784" lon="4.33126">
        <ele>238.4</ele>
        <time>2024-03-17T10:36:32Z</time>
      </trkpt>
      <trkpt lat="50.0578" lon="4.33125">
        <ele>238.6</ele>
        <time>2024-03-17T10:36:33Z</time>
      </trkpt>
      <trkpt lat="50.05775" lon="4.33123">
        <ele>238.6</ele>
        <time>2024-03-17T10:36:34Z</time>
      </trkpt>
      <trkpt lat="50.05771" lon="4.33122">
        <ele>238.8</ele>
        <time>2024-03-17T10:36:35Z</time>
      </trkpt>
      <trkpt lat="50.05767" lon="4.3312">
        <ele>239</ele>
        <time>2024-03-17T10:36:36Z</time>
      </trkpt>
      <trkpt lat="50.05763" lon="4.33119">
        <ele>239</ele>
        <time>2024-03-17T10:36:37Z</time>
      </trkpt>
      <trkpt lat="50.05759" lon="4.33117">
        <ele>239.2</ele>
        <time>2024-03-17T10:36:38Z</time>
      </trkpt>
      <trkpt lat="50.05755" lon="4.33116">
        <ele>239.2</ele>
        <time>2024-03-17T10:36:39Z</time>
      </trkpt>
      <trkpt lat="50.05752" lon="4.33115">
        <ele>239.4</ele>
        <time>2024-03-17T10:36:40Z</time>
      </trkpt>
      <trkpt lat="50.05748" lon="4.33114">
        <ele>239.4</ele>
        <time>2024-03-17T10:36:41Z</time>
      </trkpt>
      <trkpt lat="50.05744" lon="4.33112">
        <ele>239.2</ele>
        <time>2024-03-17T10:36:42Z</time>
      </trkpt>
      <trkpt lat="50.05741" lon="4.33111">
        <ele>239.2</ele>
        <time>2024-03-17T10:36:43Z</time>
      </trkpt>
      <trkpt lat="50.05737" lon="4.3311">
        <ele>239.2</ele>
        <time>2024-03-17T10:36:44Z</time>
      </trkpt>
      <trkpt lat="50.05732" lon="4.3311">
        <ele>239.6</ele>
        <time>2024-03-17T10:36:45Z</time>
      </trkpt>
      <trkpt lat="50.05728" lon="4.33109">
        <ele>239.6</ele>
        <time>2024-03-17T10:36:46Z</time>
      </trkpt>
      <trkpt lat="50.05724" lon="4.33108">
        <ele>239.4</ele>
        <time>2024-03-17T10:36:47Z</time>
      </trkpt>
      <trkpt lat="50.05721" lon="4.33107">
        <ele>239.6</ele>
        <time>2024-03-17T10:36:48Z</time>
      </trkpt>
      <trkpt lat="50.05718" lon="4.33106">
        <ele>239.6</ele>
        <time>2024-03-17T10:36:49Z</time>
      </trkpt>
      <trkpt lat="50.05714" lon="4.33105">
        <ele>239.6</ele>
        <time>2024-03-17T10:36:50Z</time>
      </trkpt>
      <trkpt lat="50.0571" lon="4.33104">
        <ele>239.8</ele>
        <time>2024-03-17T10:36:51Z</time>
      </trkpt>
      <trkpt lat="50.05706" lon="4.33103">
        <ele>239.8</ele>
        <time>2024-03-17T10:36:52Z</time>
      </trkpt>
      <trkpt lat="50.05702" lon="4.33102">
        <ele>239.8</ele>
        <time>2024-03-17T10:36:53Z</time>
      </trkpt>
      <trkpt lat="50.05698" lon="4.33101">
        <ele>239.6</ele>
        <time>2024-03-17T10:36:54Z</time>
      </trkpt>
      <trkpt lat="50.05694" lon="4.33099">
        <ele>239.6</ele>
        <time>2024-03-17T10:36:55Z</time>
      </trkpt>
      <trkpt lat="50.0569" lon="4.33098">
        <ele>239.8</ele>
        <time>2024-03-17T10:36:56Z</time>
      </trkpt>
      <trkpt lat="50.05686" lon="4.33096">
        <ele>239.8</ele>
        <time>2024-03-17T10:36:57Z</time>
      </trkpt>
      <trkpt lat="50.05682" lon="4.33095">
        <ele>239.8</ele>
        <time>2024-03-17T10:36:58Z</time>
      </trkpt>
      <trkpt lat="50.05678" lon="4.33094">
        <ele>239.8</ele>
        <time>2024-03-17T10:36:59Z</time>
      </trkpt>
      <trkpt lat="50.05674" lon="4.33093">
        <ele>239.8</ele>
        <time>2024-03-17T10:37:00Z</time>
      </trkpt>
      <trkpt lat="50.05669" lon="4.33091">
        <ele>239.8</ele>
        <time>2024-03-17T10:37:01Z</time>
      </trkpt>
      <trkpt lat="50.05665" lon="4.3309">
        <ele>240</ele>
        <time>2024-03-17T10:37:02Z</time>
      </trkpt>
      <trkpt lat="50.05661" lon="4.33088">
        <ele>240</ele>
        <time>2024-03-17T10:37:03Z</time>
      </trkpt>
      <trkpt lat="50.05657" lon="4.33086">
        <ele>240</ele>
        <time>2024-03-17T10:37:04Z</time>
      </trkpt>
      <trkpt lat="50.05654" lon="4.33085">
        <ele>240.2</ele>
        <time>2024-03-17T10:37:05Z</time>
      </trkpt>
      <trkpt lat="50.05649" lon="4.33084">
        <ele>240.2</ele>
        <time>2024-03-17T10:37:06Z</time>
      </trkpt>
      <trkpt lat="50.05645" lon="4.33083">
        <ele>240.2</ele>
        <time>2024-03-17T10:37:07Z</time>
      </trkpt>
      <trkpt lat="50.05641" lon="4.33082">
        <ele>240.8</ele>
        <time>2024-03-17T10:37:08Z</time>
      </trkpt>
      <trkpt lat="50.05636" lon="4.33081">
        <ele>241</ele>
        <time>2024-03-17T10:37:09Z</time>
      </trkpt>
      <trkpt lat="50.05632" lon="4.3308">
        <ele>241</ele>
        <time>2024-03-17T10:37:10Z</time>
      </trkpt>
      <trkpt lat="50.05628" lon="4.33079">
        <ele>241</ele>
        <time>2024-03-17T10:37:11Z</time>
      </trkpt>
      <trkpt lat="50.05624" lon="4.33078">
        <ele>241.4</ele>
        <time>2024-03-17T10:37:12Z</time>
      </trkpt>
      <trkpt lat="50.0562" lon="4.33076">
        <ele>241.4</ele>
        <time>2024-03-17T10:37:13Z</time>
      </trkpt>
      <trkpt lat="50.05616" lon="4.33075">
        <ele>241.6</ele>
        <time>2024-03-17T10:37:14Z</time>
      </trkpt>
      <trkpt lat="50.05612" lon="4.33074">
        <ele>241.6</ele>
        <time>2024-03-17T10:37:15Z</time>
      </trkpt>
      <trkpt lat="50.05607" lon="4.33072">
        <ele>241.6</ele>
        <time>2024-03-17T10:37:16Z</time>
      </trkpt>
      <trkpt lat="50.05603" lon="4.33071">
        <ele>241.8</ele>
        <time>2024-03-17T10:37:17Z</time>
      </trkpt>
      <trkpt lat="50.05598" lon="4.33069">
        <ele>241.8</ele>
        <time>2024-03-17T10:37:18Z</time>
      </trkpt>
      <trkpt lat="50.05594" lon="4.33068">
        <ele>241.8</ele>
        <time>2024-03-17T10:37:19Z</time>
      </trkpt>
      <trkpt lat="50.05589" lon="4.33066">
        <ele>242</ele>
        <time>2024-03-17T10:37:20Z</time>
      </trkpt>
      <trkpt lat="50.05584" lon="4.33065">
        <ele>242</ele>
        <time>2024-03-17T10:37:21Z</time>
      </trkpt>
      <trkpt lat="50.0558" lon="4.33063">
        <ele>242</ele>
        <time>2024-03-17T10:37:22Z</time>
      </trkpt>
      <trkpt lat="50.05575" lon="4.33062">
        <ele>242</ele>
        <time>2024-03-17T10:37:23Z</time>
      </trkpt>
      <trkpt lat="50.0557" lon="4.3306">
        <ele>242</ele>
        <time>2024-03-17T10:37:24Z</time>
      </trkpt>
      <trkpt lat="50.05565" lon="4.33059">
        <ele>242.2</ele>
        <time>2024-03-17T10:37:25Z</time>
      </trkpt>
      <trkpt lat="50.05561" lon="4.33057">
        <ele>242.2</ele>
        <time>2024-03-17T10:37:26Z</time>
      </trkpt>
      <trkpt lat="50.05556" lon="4.33056">
        <ele>242.2</ele>
        <time>2024-03-17T10:37:27Z</time>
      </trkpt>
      <trkpt lat="50.05551" lon="4.33054">
        <ele>242.2</ele>
        <time>2024-03-17T10:37:28Z</time>
      </trkpt>
      <trkpt lat="50.05546" lon="4.33052">
        <ele>242.2</ele>
        <time>2024-03-17T10:37:29Z</time>
      </trkpt>
      <trkpt lat="50.05542" lon="4.33051">
        <ele>242.2</ele>
        <time>2024-03-17T10:37:30Z</time>
      </trkpt>
      <trkpt lat="50.05537" lon="4.33049">
        <ele>242.2</ele>
        <time>2024-03-17T10:37:31Z</time>
      </trkpt>
      <trkpt lat="50.05532" lon="4.33047">
        <ele>242.4</ele>
        <time>2024-03-17T10:37:32Z</time>
      </trkpt>
      <trkpt lat="50.05527" lon="4.33046">
        <ele>242.6</ele>
        <time>2024-03-17T10:37:33Z</time>
      </trkpt>
      <trkpt lat="50.05523" lon="4.33044">
        <ele>242.8</ele>
        <time>2024-03-17T10:37:34Z</time>
      </trkpt>
      <trkpt lat="50.05518" lon="4.33042">
        <ele>243</ele>
        <time>2024-03-17T10:37:35Z</time>
      </trkpt>
      <trkpt lat="50.05513" lon="4.33041">
        <ele>243</ele>
        <time>2024-03-17T10:37:36Z</time>
      </trkpt>
      <trkpt lat="50.05508" lon="4.33039">
        <ele>243.2</ele>
        <time>2024-03-17T10:37:37Z</time>
      </trkpt>
      <trkpt lat="50.05503" lon="4.33038">
        <ele>243.2</ele>
        <time>2024-03-17T10:37:38Z</time>
      </trkpt>
      <trkpt lat="50.05498" lon="4.33036">
        <ele>243.2</ele>
        <time>2024-03-17T10:37:39Z</time>
      </trkpt>
      <trkpt lat="50.05493" lon="4.33034">
        <ele>243.4</ele>
        <time>2024-03-17T10:37:40Z</time>
      </trkpt>
      <trkpt lat="50.05488" lon="4.33032">
        <ele>243.4</ele>
        <time>2024-03-17T10:37:41Z</time>
      </trkpt>
      <trkpt lat="50.05483" lon="4.3303">
        <ele>243.4</ele>
        <time>2024-03-17T10:37:42Z</time>
      </trkpt>
      <trkpt lat="50.05478" lon="4.33028">
        <ele>243.4</ele>
        <time>2024-03-17T10:37:43Z</time>
      </trkpt>
      <trkpt lat="50.05472" lon="4.33026">
        <ele>243.4</ele>
        <time>2024-03-17T10:37:44Z</time>
      </trkpt>
      <trkpt lat="50.05467" lon="4.33023">
        <ele>243.4</ele>
        <time>2024-03-17T10:37:45Z</time>
      </trkpt>
      <trkpt lat="50.05461" lon="4.3302">
        <ele>243.6</ele>
        <time>2024-03-17T10:37:46Z</time>
      </trkpt>
      <trkpt lat="50.05455" lon="4.33017">
        <ele>243.4</ele>
        <time>2024-03-17T10:37:47Z</time>
      </trkpt>
      <trkpt lat="50.05449" lon="4.33014">
        <ele>243.6</ele>
        <time>2024-03-17T10:37:48Z</time>
      </trkpt>
      <trkpt lat="50.05443" lon="4.33011">
        <ele>243.4</ele>
        <time>2024-03-17T10:37:49Z</time>
      </trkpt>
      <trkpt lat="50.05437" lon="4.33007">
        <ele>243.4</ele>
        <time>2024-03-17T10:37:50Z</time>
      </trkpt>
      <trkpt lat="50.05431" lon="4.33003">
        <ele>243.4</ele>
        <time>2024-03-17T10:37:51Z</time>
      </trkpt>
      <trkpt lat="50.05424" lon="4.32999">
        <ele>243.2</ele>
        <time>2024-03-17T10:37:52Z</time>
      </trkpt>
      <trkpt lat="50.05418" lon="4.32995">
        <ele>243.2</ele>
        <time>2024-03-17T10:37:53Z</time>
      </trkpt>
      <trkpt lat="50.05412" lon="4.32991">
        <ele>243.2</ele>
        <time>2024-03-17T10:37:54Z</time>
      </trkpt>
      <trkpt lat="50.05406" lon="4.32987">
        <ele>243.2</ele>
        <time>2024-03-17T10:37:55Z</time>
      </trkpt>
      <trkpt lat="50.054" lon="4.32983">
        <ele>243</ele>
        <time>2024-03-17T10:37:56Z</time>
      </trkpt>
      <trkpt lat="50.05394" lon="4.32979">
        <ele>242.4</ele>
        <time>2024-03-17T10:37:57Z</time>
      </trkpt>
      <trkpt lat="50.05388" lon="4.32975">
        <ele>242</ele>
        <time>2024-03-17T10:37:58Z</time>
      </trkpt>
      <trkpt lat="50.05383" lon="4.32971">
        <ele>241.2</ele>
        <time>2024-03-17T10:37:59Z</time>
      </trkpt>
      <trkpt lat="50.05377" lon="4.32967">
        <ele>240.8</ele>
        <time>2024-03-17T10:38:00Z</time>
      </trkpt>
      <trkpt lat="50.05371" lon="4.32963">
        <ele>240.4</ele>
        <time>2024-03-17T10:38:01Z</time>
      </trkpt>
      <trkpt lat="50.05365" lon="4.32959">
        <ele>240.4</ele>
        <time>2024-03-17T10:38:02Z</time>
      </trkpt>
      <trkpt lat="50.0536" lon="4.32955">
        <ele>240</ele>
        <time>2024-03-17T10:38:03Z</time>
      </trkpt>
      <trkpt lat="50.05354" lon="4.32951">
        <ele>240.2</ele>
        <time>2024-03-17T10:38:04Z</time>
      </trkpt>
      <trkpt lat="50.05348" lon="4.32947">
        <ele>240</ele>
        <time>2024-03-17T10:38:05Z</time>
      </trkpt>
      <trkpt lat="50.05343" lon="4.32943">
        <ele>240.2</ele>
        <time>2024-03-17T10:38:06Z</time>
      </trkpt>
      <trkpt lat="50.05337" lon="4.32939">
        <ele>240</ele>
        <time>2024-03-17T10:38:07Z</time>
      </trkpt>
      <trkpt lat="50.05331" lon="4.32935">
        <ele>239.8</ele>
        <time>2024-03-17T10:38:08Z</time>
      </trkpt>
      <trkpt lat="50.05325" lon="4.32931">
        <ele>240</ele>
        <time>2024-03-17T10:38:09Z</time>
      </trkpt>
      <trkpt lat="50.0532" lon="4.32927">
        <ele>239.6</ele>
        <time>2024-03-17T10:38:10Z</time>
      </trkpt>
      <trkpt lat="50.05314" lon="4.32923">
        <ele>239.8</ele>
        <time>2024-03-17T10:38:11Z</time>
      </trkpt>
      <trkpt lat="50.05308" lon="4.32919">
        <ele>240</ele>
        <time>2024-03-17T10:38:12Z</time>
      </trkpt>
      <trkpt lat="50.05302" lon="4.32915">
        <ele>240</ele>
        <time>2024-03-17T10:38:13Z</time>
      </trkpt>
      <trkpt lat="50.05296" lon="4.32911">
        <ele>239.8</ele>
        <time>2024-03-17T10:38:14Z</time>
      </trkpt>
      <trkpt lat="50.0529" lon="4.32907">
        <ele>240</ele>
        <time>2024-03-17T10:38:15Z</time>
      </trkpt>
      <trkpt lat="50.05284" lon="4.32903">
        <ele>239.8</ele>
        <time>2024-03-17T10:38:16Z</time>
      </trkpt>
      <trkpt lat="50.05278" lon="4.32899">
        <ele>240</ele>
        <time>2024-03-17T10:38:17Z</time>
      </trkpt>
      <trkpt lat="50.05272" lon="4.32895">
        <ele>240</ele>
        <time>2024-03-17T10:38:18Z</time>
      </trkpt>
      <trkpt lat="50.05266" lon="4.3289">
        <ele>240</ele>
        <time>2024-03-17T10:38:19Z</time>
      </trkpt>
      <trkpt lat="50.0526" lon="4.32886">
        <ele>240</ele>
        <time>2024-03-17T10:38:20Z</time>
      </trkpt>
      <trkpt lat="50.05254" lon="4.32882">
        <ele>240</ele>
        <time>2024-03-17T10:38:21Z</time>
      </trkpt>
      <trkpt lat="50.05247" lon="4.32878">
        <ele>240</ele>
        <time>2024-03-17T10:38:22Z</time>
      </trkpt>
      <trkpt lat="50.05241" lon="4.32873">
        <ele>240</ele>
        <time>2024-03-17T10:38:23Z</time>
      </trkpt>
      <trkpt lat="50.05235" lon="4.32869">
        <ele>239.8</ele>
        <time>2024-03-17T10:38:24Z</time>
      </trkpt>
      <trkpt lat="50.05229" lon="4.32864">
        <ele>240</ele>
        <time>2024-03-17T10:38:25Z</time>
      </trkpt>
      <trkpt lat="50.05223" lon="4.32859">
        <ele>239.8</ele>
        <time>2024-03-17T10:38:26Z</time>
      </trkpt>
      <trkpt lat="50.05217" lon="4.32855">
        <ele>239.8</ele>
        <time>2024-03-17T10:38:27Z</time>
      </trkpt>
      <trkpt lat="50.05211" lon="4.3285">
        <ele>239.6</ele>
        <time>2024-03-17T10:38:28Z</time>
      </trkpt>
      <trkpt lat="50.05206" lon="4.32845">
        <ele>239.6</ele>
        <time>2024-03-17T10:38:29Z</time>
      </trkpt>
      <trkpt lat="50.052" lon="4.3284">
        <ele>239.6</ele>
        <time>2024-03-17T10:38:30Z</time>
      </trkpt>
      <trkpt lat="50.05194" lon="4.32835">
        <ele>239.4</ele>
        <time>2024-03-17T10:38:31Z</time>
      </trkpt>
      <trkpt lat="50.05188" lon="4.3283">
        <ele>239.2</ele>
        <time>2024-03-17T10:38:32Z</time>
      </trkpt>
      <trkpt lat="50.05182" lon="4.32824">
        <ele>239.2</ele>
        <time>2024-03-17T10:38:33Z</time>
      </trkpt>
      <trkpt lat="50.05176" lon="4.32818">
        <ele>239.2</ele>
        <time>2024-03-17T10:38:34Z</time>
      </trkpt>
      <trkpt lat="50.0517" lon="4.32812">
        <ele>239.2</ele>
        <time>2024-03-17T10:38:35Z</time>
      </trkpt>
      <trkpt lat="50.05164" lon="4.32806">
        <ele>239</ele>
        <time>2024-03-17T10:38:36Z</time>
      </trkpt>
      <trkpt lat="50.05158" lon="4.32799">
        <ele>238.8</ele>
        <time>2024-03-17T10:38:37Z</time>
      </trkpt>
      <trkpt lat="50.05152" lon="4.32792">
        <ele>238.6</ele>
        <time>2024-03-17T10:38:38Z</time>
      </trkpt>
      <trkpt lat="50.05147" lon="4.32785">
        <ele>238.4</ele>
        <time>2024-03-17T10:38:39Z</time>
      </trkpt>
      <trkpt lat="50.05141" lon="4.32777">
        <ele>238.6</ele>
        <time>2024-03-17T10:38:40Z</time>
      </trkpt>
      <trkpt lat="50.05136" lon="4.32769">
        <ele>238.6</ele>
        <time>2024-03-17T10:38:41Z</time>
      </trkpt>
      <trkpt lat="50.0513" lon="4.32761">
        <ele>238.6</ele>
        <time>2024-03-17T10:38:42Z</time>
      </trkpt>
      <trkpt lat="50.05125" lon="4.32753">
        <ele>238.4</ele>
        <time>2024-03-17T10:38:43Z</time>
      </trkpt>
      <trkpt lat="50.05119" lon="4.32745">
        <ele>238.4</ele>
        <time>2024-03-17T10:38:44Z</time>
      </trkpt>
      <trkpt lat="50.05114" lon="4.32737">
        <ele>238.4</ele>
        <time>2024-03-17T10:38:45Z</time>
      </trkpt>
      <trkpt lat="50.05108" lon="4.32728">
        <ele>238.2</ele>
        <time>2024-03-17T10:38:46Z</time>
      </trkpt>
      <trkpt lat="50.05103" lon="4.3272">
        <ele>238</ele>
        <time>2024-03-17T10:38:47Z</time>
      </trkpt>
      <trkpt lat="50.05098" lon="4.32712">
        <ele>237.6</ele>
        <time>2024-03-17T10:38:48Z</time>
      </trkpt>
      <trkpt lat="50.05092" lon="4.32703">
        <ele>237.6</ele>
        <time>2024-03-17T10:38:49Z</time>
      </trkpt>
      <trkpt lat="50.05087" lon="4.32695">
        <ele>237.4</ele>
        <time>2024-03-17T10:38:50Z</time>
      </trkpt>
      <trkpt lat="50.05082" lon="4.32687">
        <ele>237.2</ele>
        <time>2024-03-17T10:38:51Z</time>
      </trkpt>
      <trkpt lat="50.05077" lon="4.32678">
        <ele>236.6</ele>
        <time>2024-03-17T10:38:52Z</time>
      </trkpt>
      <trkpt lat="50.05073" lon="4.32669">
        <ele>236</ele>
        <time>2024-03-17T10:38:53Z</time>
      </trkpt>
      <trkpt lat="50.05068" lon="4.3266">
        <ele>235.4</ele>
        <time>2024-03-17T10:38:54Z</time>
      </trkpt>
      <trkpt lat="50.05064" lon="4.32651">
        <ele>235.2</ele>
        <time>2024-03-17T10:38:55Z</time>
      </trkpt>
      <trkpt lat="50.0506" lon="4.32642">
        <ele>235</ele>
        <time>2024-03-17T10:38:56Z</time>
      </trkpt>
      <trkpt lat="50.05056" lon="4.32634">
        <ele>234.8</ele>
        <time>2024-03-17T10:38:57Z</time>
      </trkpt>
      <trkpt lat="50.05052" lon="4.32626">
        <ele>234.8</ele>
        <time>2024-03-17T10:38:58Z</time>
      </trkpt>
      <trkpt lat="50.05047" lon="4.32618">
        <ele>234.4</ele>
        <time>2024-03-17T10:38:59Z</time>
      </trkpt>
      <trkpt lat="50.05042" lon="4.32611">
        <ele>234.4</ele>
        <time>2024-03-17T10:39:00Z</time>
      </trkpt>
      <trkpt lat="50.05036" lon="4.32605">
        <ele>234.4</ele>
        <time>2024-03-17T10:39:01Z</time>
      </trkpt>
      <trkpt lat="50.05031" lon="4.326">
        <ele>234.2</ele>
        <time>2024-03-17T10:39:02Z</time>
      </trkpt>
      <trkpt lat="50.05025" lon="4.32595">
        <ele>234.4</ele>
        <time>2024-03-17T10:39:03Z</time>
      </trkpt>
      <trkpt lat="50.05019" lon="4.32592">
        <ele>234.2</ele>
        <time>2024-03-17T10:39:04Z</time>
      </trkpt>
      <trkpt lat="50.05013" lon="4.32589">
        <ele>234.2</ele>
        <time>2024-03-17T10:39:05Z</time>
      </trkpt>
      <trkpt lat="50.05008" lon="4.32586">
        <ele>234.2</ele>
        <time>2024-03-17T10:39:06Z</time>
      </trkpt>
      <trkpt lat="50.05002" lon="4.32583">
        <ele>234.4</ele>
        <time>2024-03-17T10:39:07Z</time>
      </trkpt>
      <trkpt lat="50.04996" lon="4.32581">
        <ele>234.4</ele>
        <time>2024-03-17T10:39:08Z</time>
      </trkpt>
      <trkpt lat="50.04991" lon="4.32579">
        <ele>234.6</ele>
        <time>2024-03-17T10:39:09Z</time>
      </trkpt>
      <trkpt lat="50.04986" lon="4.32576">
        <ele>234.6</ele>
        <time>2024-03-17T10:39:10Z</time>
      </trkpt>
      <trkpt lat="50.04981" lon="4.32574">
        <ele>234.8</ele>
        <time>2024-03-17T10:39:11Z</time>
      </trkpt>
      <trkpt lat="50.04976" lon="4.32572">
        <ele>234.8</ele>
        <time>2024-03-17T10:39:12Z</time>
      </trkpt>
      <trkpt lat="50.04971" lon="4.3257">
        <ele>234.8</ele>
        <time>2024-03-17T10:39:13Z</time>
      </trkpt>
      <trkpt lat="50.04966" lon="4.32567">
        <ele>235.2</ele>
        <time>2024-03-17T10:39:14Z</time>
      </trkpt>
      <trkpt lat="50.04961" lon="4.32565">
        <ele>235.6</ele>
        <time>2024-03-17T10:39:15Z</time>
      </trkpt>
      <trkpt lat="50.04957" lon="4.32562">
        <ele>236</ele>
        <time>2024-03-17T10:39:16Z</time>
      </trkpt>
      <trkpt lat="50.04952" lon="4.3256">
        <ele>236.2</ele>
        <time>2024-03-17T10:39:17Z</time>
      </trkpt>
      <trkpt lat="50.04947" lon="4.32557">
        <ele>236.4</ele>
        <time>2024-03-17T10:39:18Z</time>
      </trkpt>
      <trkpt lat="50.04943" lon="4.32554">
        <ele>236.4</ele>
        <time>2024-03-17T10:39:19Z</time>
      </trkpt>
      <trkpt lat="50.04938" lon="4.32552">
        <ele>236.6</ele>
        <time>2024-03-17T10:39:20Z</time>
      </trkpt>
      <trkpt lat="50.04934" lon="4.32549">
        <ele>236.8</ele>
        <time>2024-03-17T10:39:21Z</time>
      </trkpt>
      <trkpt lat="50.0493" lon="4.32546">
        <ele>237</ele>
        <time>2024-03-17T10:39:22Z</time>
      </trkpt>
      <trkpt lat="50.04926" lon="4.32542">
        <ele>237</ele>
        <time>2024-03-17T10:39:23Z</time>
      </trkpt>
      <trkpt lat="50.04922" lon="4.32539">
        <ele>237.2</ele>
        <time>2024-03-17T10:39:24Z</time>
      </trkpt>
      <trkpt lat="50.04918" lon="4.32536">
        <ele>237.2</ele>
        <time>2024-03-17T10:39:25Z</time>
      </trkpt>
      <trkpt lat="50.04914" lon="4.32533">
        <ele>237.4</ele>
        <time>2024-03-17T10:39:26Z</time>
      </trkpt>
      <trkpt lat="50.0491" lon="4.32529">
        <ele>237.8</ele>
        <time>2024-03-17T10:39:27Z</time>
      </trkpt>
      <trkpt lat="50.04906" lon="4.32526">
        <ele>238.2</ele>
        <time>2024-03-17T10:39:28Z</time>
      </trkpt>
      <trkpt lat="50.04902" lon="4.32523">
        <ele>238.4</ele>
        <time>2024-03-17T10:39:29Z</time>
      </trkpt>
      <trkpt lat="50.04899" lon="4.32519">
        <ele>238.6</ele>
        <time>2024-03-17T10:39:30Z</time>
      </trkpt>
      <trkpt lat="50.04895" lon="4.32516">
        <ele>238.6</ele>
        <time>2024-03-17T10:39:31Z</time>
      </trkpt>
      <trkpt lat="50.04891" lon="4.32512">
        <ele>238.8</ele>
        <time>2024-03-17T10:39:32Z</time>
      </trkpt>
      <trkpt lat="50.04888" lon="4.32509">
        <ele>239</ele>
        <time>2024-03-17T10:39:33Z</time>
      </trkpt>
      <trkpt lat="50.04884" lon="4.32505">
        <ele>239.2</ele>
        <time>2024-03-17T10:39:34Z</time>
      </trkpt>
      <trkpt lat="50.04881" lon="4.32502">
        <ele>239.6</ele>
        <time>2024-03-17T10:39:35Z</time>
      </trkpt>
      <trkpt lat="50.04877" lon="4.32498">
        <ele>239.8</ele>
        <time>2024-03-17T10:39:36Z</time>
      </trkpt>
      <trkpt lat="50.04874" lon="4.32494">
        <ele>239.8</ele>
        <time>2024-03-17T10:39:37Z</time>
      </trkpt>
      <trkpt lat="50.04871" lon="4.3249">
        <ele>240</ele>
        <time>2024-03-17T10:39:38Z</time>
      </trkpt>
      <trkpt lat="50.04868" lon="4.32486">
        <ele>240.4</ele>
        <time>2024-03-17T10:39:39Z</time>
      </trkpt>
      <trkpt lat="50.04864" lon="4.32482">
        <ele>240.8</ele>
        <time>2024-03-17T10:39:40Z</time>
      </trkpt>
      <trkpt lat="50.04861" lon="4.32478">
        <ele>240.8</ele>
        <time>2024-03-17T10:39:41Z</time>
      </trkpt>
      <trkpt lat="50.04858" lon="4.32474">
        <ele>241</ele>
        <time>2024-03-17T10:39:42Z</time>
      </trkpt>
      <trkpt lat="50.04855" lon="4.3247">
        <ele>241.2</ele>
        <time>2024-03-17T10:39:43Z</time>
      </trkpt>
      <trkpt lat="50.04852" lon="4.32466">
        <ele>241.4</ele>
        <time>2024-03-17T10:39:44Z</time>
      </trkpt>
      <trkpt lat="50.0485" lon="4.32462">
        <ele>241.6</ele>
        <time>2024-03-17T10:39:45Z</time>
      </trkpt>
      <trkpt lat="50.04847" lon="4.32458">
        <ele>241.8</ele>
        <time>2024-03-17T10:39:46Z</time>
      </trkpt>
      <trkpt lat="50.04844" lon="4.32453">
        <ele>242</ele>
        <time>2024-03-17T10:39:47Z</time>
      </trkpt>
      <trkpt lat="50.04841" lon="4.32449">
        <ele>242</ele>
        <time>2024-03-17T10:39:48Z</time>
      </trkpt>
      <trkpt lat="50.04838" lon="4.32445">
        <ele>242.4</ele>
        <time>2024-03-17T10:39:49Z</time>
      </trkpt>
      <trkpt lat="50.04836" lon="4.32441">
        <ele>242.4</ele>
        <time>2024-03-17T10:39:50Z</time>
      </trkpt>
      <trkpt lat="50.04833" lon="4.32437">
        <ele>242.6</ele>
        <time>2024-03-17T10:39:51Z</time>
      </trkpt>
      <trkpt lat="50.04831" lon="4.32432">
        <ele>243</ele>
        <time>2024-03-17T10:39:52Z</time>
      </trkpt>
      <trkpt lat="50.04828" lon="4.32428">
        <ele>243.2</ele>
        <time>2024-03-17T10:39:53Z</time>
      </trkpt>
      <trkpt lat="50.04826" lon="4.32423">
        <ele>243.4</ele>
        <time>2024-03-17T10:39:54Z</time>
      </trkpt>
      <trkpt lat="50.04823" lon="4.32419">
        <ele>243.4</ele>
        <time>2024-03-17T10:39:55Z</time>
      </trkpt>
      <trkpt lat="50.04821" lon="4.32414">
        <ele>243.4</ele>
        <time>2024-03-17T10:39:56Z</time>
      </trkpt>
      <trkpt lat="50.04818" lon="4.3241">
        <ele>243.4</ele>
        <time>2024-03-17T10:39:57Z</time>
      </trkpt>
      <trkpt lat="50.04816" lon="4.32405">
        <ele>243.8</ele>
        <time>2024-03-17T10:39:58Z</time>
      </trkpt>
      <trkpt lat="50.04813" lon="4.32401">
        <ele>244</ele>
        <time>2024-03-17T10:39:59Z</time>
      </trkpt>
      <trkpt lat="50.04811" lon="4.32396">
        <ele>244.2</ele>
        <time>2024-03-17T10:40:00Z</time>
      </trkpt>
      <trkpt lat="50.04809" lon="4.32391">
        <ele>244.4</ele>
        <time>2024-03-17T10:40:01Z</time>
      </trkpt>
      <trkpt lat="50.04807" lon="4.32386">
        <ele>244.6</ele>
        <time>2024-03-17T10:40:02Z</time>
      </trkpt>
      <trkpt lat="50.04806" lon="4.32381">
        <ele>244.6</ele>
        <time>2024-03-17T10:40:03Z</time>
      </trkpt>
      <trkpt lat="50.04803" lon="4.32376">
        <ele>244.8</ele>
        <time>2024-03-17T10:40:04Z</time>
      </trkpt>
      <trkpt lat="50.04801" lon="4.32372">
        <ele>244.8</ele>
        <time>2024-03-17T10:40:05Z</time>
      </trkpt>
      <trkpt lat="50.04799" lon="4.32368">
        <ele>245</ele>
        <time>2024-03-17T10:40:06Z</time>
      </trkpt>
      <trkpt lat="50.04797" lon="4.32364">
        <ele>245.2</ele>
        <time>2024-03-17T10:40:07Z</time>
      </trkpt>
      <trkpt lat="50.04795" lon="4.3236">
        <ele>245.4</ele>
        <time>2024-03-17T10:40:08Z</time>
      </trkpt>
      <trkpt lat="50.04792" lon="4.32356">
        <ele>245.4</ele>
        <time>2024-03-17T10:40:09Z</time>
      </trkpt>
      <trkpt lat="50.0479" lon="4.32352">
        <ele>245.6</ele>
        <time>2024-03-17T10:40:10Z</time>
      </trkpt>
      <trkpt lat="50.04788" lon="4.32348">
        <ele>245.6</ele>
        <time>2024-03-17T10:40:11Z</time>
      </trkpt>
      <trkpt lat="50.04786" lon="4.32344">
        <ele>245.8</ele>
        <time>2024-03-17T10:40:12Z</time>
      </trkpt>
      <trkpt lat="50.04784" lon="4.3234">
        <ele>245.8</ele>
        <time>2024-03-17T10:40:13Z</time>
      </trkpt>
      <trkpt lat="50.04782" lon="4.32336">
        <ele>245.8</ele>
        <time>2024-03-17T10:40:14Z</time>
      </trkpt>
      <trkpt lat="50.0478" lon="4.32332">
        <ele>245.8</ele>
        <time>2024-03-17T10:40:15Z</time>
      </trkpt>
      <trkpt lat="50.04779" lon="4.32329">
        <ele>245.8</ele>
        <time>2024-03-17T10:40:16Z</time>
      </trkpt>
      <trkpt lat="50.04777" lon="4.32326">
        <ele>245.8</ele>
        <time>2024-03-17T10:40:17Z</time>
      </trkpt>
      <trkpt lat="50.04775" lon="4.32324">
        <ele>246</ele>
        <time>2024-03-17T10:40:18Z</time>
      </trkpt>
      <trkpt lat="50.04774" lon="4.32321">
        <ele>246</ele>
        <time>2024-03-17T10:40:19Z</time>
      </trkpt>
      <trkpt lat="50.04772" lon="4.32318">
        <ele>246.2</ele>
        <time>2024-03-17T10:40:20Z</time>
      </trkpt>
      <trkpt lat="50.0477" lon="4.32314">
        <ele>246.2</ele>
        <time>2024-03-17T10:40:21Z</time>
      </trkpt>
      <trkpt lat="50.04769" lon="4.32311">
        <ele>246</ele>
        <time>2024-03-17T10:40:22Z</time>
      </trkpt>
      <trkpt lat="50.04767" lon="4.32307">
        <ele>246.2</ele>
        <time>2024-03-17T10:40:23Z</time>
      </trkpt>
      <trkpt lat="50.04765" lon="4.32304">
        <ele>246.2</ele>
        <time>2024-03-17T10:40:24Z</time>
      </trkpt>
      <trkpt lat="50.04763" lon="4.32301">
        <ele>246.4</ele>
        <time>2024-03-17T10:40:25Z</time>
      </trkpt>
      <trkpt lat="50.04761" lon="4.32297">
        <ele>246.4</ele>
        <time>2024-03-17T10:40:26Z</time>
      </trkpt>
      <trkpt lat="50.04759" lon="4.32294">
        <ele>246.4</ele>
        <time>2024-03-17T10:40:27Z</time>
      </trkpt>
      <trkpt lat="50.04758" lon="4.32291">
        <ele>246.6</ele>
        <time>2024-03-17T10:40:28Z</time>
      </trkpt>
      <trkpt lat="50.04757" lon="4.32287">
        <ele>246.6</ele>
        <time>2024-03-17T10:40:29Z</time>
      </trkpt>
      <trkpt lat="50.04755" lon="4.32283">
        <ele>246.8</ele>
        <time>2024-03-17T10:40:30Z</time>
      </trkpt>
      <trkpt lat="50.04753" lon="4.32279">
        <ele>246.8</ele>
        <time>2024-03-17T10:40:31Z</time>
      </trkpt>
      <trkpt lat="50.04751" lon="4.32275">
        <ele>247.2</ele>
        <time>2024-03-17T10:40:32Z</time>
      </trkpt>
      <trkpt lat="50.04749" lon="4.32271">
        <ele>247.2</ele>
        <time>2024-03-17T10:40:33Z</time>
      </trkpt>
      <trkpt lat="50.04748" lon="4.32266">
        <ele>247.2</ele>
        <time>2024-03-17T10:40:34Z</time>
      </trkpt>
      <trkpt lat="50.04746" lon="4.32262">
        <ele>247.4</ele>
        <time>2024-03-17T10:40:35Z</time>
      </trkpt>
      <trkpt lat="50.04744" lon="4.32258">
        <ele>248.2</ele>
        <time>2024-03-17T10:40:36Z</time>
      </trkpt>
      <trkpt lat="50.04742" lon="4.32255">
        <ele>248.8</ele>
        <time>2024-03-17T10:40:37Z</time>
      </trkpt>
      <trkpt lat="50.04739" lon="4.32251">
        <ele>249.2</ele>
        <time>2024-03-17T10:40:38Z</time>
      </trkpt>
      <trkpt lat="50.04737" lon="4.32247">
        <ele>249.4</ele>
        <time>2024-03-17T10:40:39Z</time>
      </trkpt>
      <trkpt lat="50.04735" lon="4.32242">
        <ele>249.6</ele>
        <time>2024-03-17T10:40:40Z</time>
      </trkpt>
      <trkpt lat="50.04733" lon="4.32238">
        <ele>249.8</ele>
        <time>2024-03-17T10:40:41Z</time>
      </trkpt>
      <trkpt lat="50.04731" lon="4.32235">
        <ele>249.8</ele>
        <time>2024-03-17T10:40:42Z</time>
      </trkpt>
      <trkpt lat="50.0473" lon="4.32231">
        <ele>250.2</ele>
        <time>2024-03-17T10:40:43Z</time>
      </trkpt>
      <trkpt lat="50.04728" lon="4.32228">
        <ele>250.2</ele>
        <time>2024-03-17T10:40:44Z</time>
      </trkpt>
      <trkpt lat="50.04726" lon="4.32224">
        <ele>250.2</ele>
        <time>2024-03-17T10:40:45Z</time>
      </trkpt>
      <trkpt lat="50.04724" lon="4.32221">
        <ele>250.4</ele>
        <time>2024-03-17T10:40:46Z</time>
      </trkpt>
      <trkpt lat="50.04722" lon="4.32219">
        <ele>250.4</ele>
        <time>2024-03-17T10:40:47Z</time>
      </trkpt>
      <trkpt lat="50.04719" lon="4.32217">
        <ele>250.4</ele>
        <time>2024-03-17T10:40:48Z</time>
      </trkpt>
      <trkpt lat="50.04716" lon="4.32215">
        <ele>250.4</ele>
        <time>2024-03-17T10:40:49Z</time>
      </trkpt>
      <trkpt lat="50.04713" lon="4.32212">
        <ele>250.6</ele>
        <time>2024-03-17T10:40:50Z</time>
      </trkpt>
      <trkpt lat="50.0471" lon="4.32208">
        <ele>250.6</ele>
        <time>2024-03-17T10:40:51Z</time>
      </trkpt>
      <trkpt lat="50.04708" lon="4.32204">
        <ele>250.6</ele>
        <time>2024-03-17T10:40:52Z</time>
      </trkpt>
      <trkpt lat="50.04705" lon="4.32201">
        <ele>250.8</ele>
        <time>2024-03-17T10:40:53Z</time>
      </trkpt>
      <trkpt lat="50.04701" lon="4.32198">
        <ele>250.8</ele>
        <time>2024-03-17T10:40:54Z</time>
      </trkpt>
      <trkpt lat="50.04698" lon="4.32197">
        <ele>250.8</ele>
        <time>2024-03-17T10:40:55Z</time>
      </trkpt>
      <trkpt lat="50.04694" lon="4.32196">
        <ele>251.2</ele>
        <time>2024-03-17T10:40:56Z</time>
      </trkpt>
      <trkpt lat="50.04691" lon="4.32197">
        <ele>251.2</ele>
        <time>2024-03-17T10:40:57Z</time>
      </trkpt>
      <trkpt lat="50.04688" lon="4.32199">
        <ele>251.2</ele>
        <time>2024-03-17T10:40:58Z</time>
      </trkpt>
      <trkpt lat="50.04685" lon="4.32202">
        <ele>251.4</ele>
        <time>2024-03-17T10:40:59Z</time>
      </trkpt>
      <trkpt lat="50.04682" lon="4.32205">
        <ele>251.2</ele>
        <time>2024-03-17T10:41:00Z</time>
      </trkpt>
      <trkpt lat="50.0468" lon="4.3221">
        <ele>251.2</ele>
        <time>2024-03-17T10:41:01Z</time>
      </trkpt>
      <trkpt lat="50.04677" lon="4.32214">
        <ele>251.4</ele>
        <time>2024-03-17T10:41:02Z</time>
      </trkpt>
      <trkpt lat="50.04675" lon="4.32217">
        <ele>251.2</ele>
        <time>2024-03-17T10:41:03Z</time>
      </trkpt>
      <trkpt lat="50.04672" lon="4.32221">
        <ele>251.4</ele>
        <time>2024-03-17T10:41:04Z</time>
      </trkpt>
      <trkpt lat="50.0467" lon="4.32224">
        <ele>251.4</ele>
        <time>2024-03-17T10:41:05Z</time>
      </trkpt>
      <trkpt lat="50.0467" lon="4.32227">
        <ele>251.4</ele>
        <time>2024-03-17T10:41:06Z</time>
      </trkpt>
      <trkpt lat="50.04671" lon="4.32228">
        <ele>251.2</ele>
        <time>2024-03-17T10:41:07Z</time>
      </trkpt>
      <trkpt lat="50.04673" lon="4.32228">
        <ele>251.2</ele>
        <time>2024-03-17T10:41:08Z</time>
      </trkpt>
      <trkpt lat="50.04675" lon="4.32227">
        <ele>251.4</ele>
        <time>2024-03-17T10:41:09Z</time>
      </trkpt>
      <trkpt lat="50.04679" lon="4.32227">
        <ele>251.4</ele>
        <time>2024-03-17T10:41:10Z</time>
      </trkpt>
      <trkpt lat="50.04682" lon="4.32226">
        <ele>251.4</ele>
        <time>2024-03-17T10:41:11Z</time>
      </trkpt>
      <trkpt lat="50.04686" lon="4.32226">
        <ele>251.8</ele>
        <time>2024-03-17T10:41:12Z</time>
      </trkpt>
      <trkpt lat="50.04689" lon="4.32226">
        <ele>251.8</ele>
        <time>2024-03-17T10:41:13Z</time>
      </trkpt>
      <trkpt lat="50.04693" lon="4.32225">
        <ele>251.8</ele>
        <time>2024-03-17T10:41:14Z</time>
      </trkpt>
      <trkpt lat="50.04697" lon="4.32223">
        <ele>251.8</ele>
        <time>2024-03-17T10:41:15Z</time>
      </trkpt>
      <trkpt lat="50.04701" lon="4.32218">
        <ele>251.4</ele>
        <time>2024-03-17T10:41:16Z</time>
      </trkpt>
      <trkpt lat="50.04703" lon="4.32212">
        <ele>251.6</ele>
        <time>2024-03-17T10:41:17Z</time>
      </trkpt>
      <trkpt lat="50.04704" lon="4.32204">
        <ele>251.6</ele>
        <time>2024-03-17T10:41:18Z</time>
      </trkpt>
      <trkpt lat="50.04703" lon="4.32196">
        <ele>251.6</ele>
        <time>2024-03-17T10:41:19Z</time>
      </trkpt>
      <trkpt lat="50.04702" lon="4.32189">
        <ele>251.6</ele>
        <time>2024-03-17T10:41:20Z</time>
      </trkpt>
      <trkpt lat="50.047" lon="4.32181">
        <ele>251.8</ele>
        <time>2024-03-17T10:41:21Z</time>
      </trkpt>
      <trkpt lat="50.04699" lon="4.32174">
        <ele>252</ele>
        <time>2024-03-17T10:41:22Z</time>
      </trkpt>
      <trkpt lat="50.04698" lon="4.32166">
        <ele>252.2</ele>
        <time>2024-03-17T10:41:23Z</time>
      </trkpt>
      <trkpt lat="50.04699" lon="4.32158">
        <ele>252.2</ele>
        <time>2024-03-17T10:41:24Z</time>
      </trkpt>
      <trkpt lat="50.047" lon="4.3215">
        <ele>252</ele>
        <time>2024-03-17T10:41:25Z</time>
      </trkpt>
      <trkpt lat="50.04701" lon="4.32142">
        <ele>251.8</ele>
        <time>2024-03-17T10:41:26Z</time>
      </trkpt>
      <trkpt lat="50.04703" lon="4.32134">
        <ele>251.8</ele>
        <time>2024-03-17T10:41:27Z</time>
      </trkpt>
      <trkpt lat="50.04704" lon="4.32125">
        <ele>251.6</ele>
        <time>2024-03-17T10:41:28Z</time>
      </trkpt>
      <trkpt lat="50.04705" lon="4.32117">
        <ele>251.4</ele>
        <time>2024-03-17T10:41:29Z</time>
      </trkpt>
      <trkpt lat="50.04707" lon="4.32108">
        <ele>251.4</ele>
        <time>2024-03-17T10:41:30Z</time>
      </trkpt>
      <trkpt lat="50.04708" lon="4.321">
        <ele>251.2</ele>
        <time>2024-03-17T10:41:31Z</time>
      </trkpt>
      <trkpt lat="50.04709" lon="4.32091">
        <ele>251</ele>
        <time>2024-03-17T10:41:32Z</time>
      </trkpt>
      <trkpt lat="50.04711" lon="4.32082">
        <ele>251</ele>
        <time>2024-03-17T10:41:33Z</time>
      </trkpt>
      <trkpt lat="50.04712" lon="4.32073">
        <ele>251</ele>
        <time>2024-03-17T10:41:34Z</time>
      </trkpt>
      <trkpt lat="50.04713" lon="4.32064">
        <ele>250.8</ele>
        <time>2024-03-17T10:41:35Z</time>
      </trkpt>
      <trkpt lat="50.04715" lon="4.32055">
        <ele>250.8</ele>
        <time>2024-03-17T10:41:36Z</time>
      </trkpt>
      <trkpt lat="50.04716" lon="4.32046">
        <ele>250.6</ele>
        <time>2024-03-17T10:41:37Z</time>
      </trkpt>
      <trkpt lat="50.04718" lon="4.32036">
        <ele>250</ele>
        <time>2024-03-17T10:41:38Z</time>
      </trkpt>
      <trkpt lat="50.04719" lon="4.32026">
        <ele>249.4</ele>
        <time>2024-03-17T10:41:39Z</time>
      </trkpt>
      <trkpt lat="50.04721" lon="4.32017">
        <ele>249.2</ele>
        <time>2024-03-17T10:41:40Z</time>
      </trkpt>
      <trkpt lat="50.04722" lon="4.32007">
        <ele>248.6</ele>
        <time>2024-03-17T10:41:41Z</time>
      </trkpt>
      <trkpt lat="50.04723" lon="4.31997">
        <ele>248.6</ele>
        <time>2024-03-17T10:41:42Z</time>
      </trkpt>
      <trkpt lat="50.04724" lon="4.31988">
        <ele>248.6</ele>
        <time>2024-03-17T10:41:43Z</time>
      </trkpt>
      <trkpt lat="50.04725" lon="4.31978">
        <ele>248.4</ele>
        <time>2024-03-17T10:41:44Z</time>
      </trkpt>
      <trkpt lat="50.04727" lon="4.31969">
        <ele>248.4</ele>
        <time>2024-03-17T10:41:45Z</time>
      </trkpt>
      <trkpt lat="50.04728" lon="4.31959">
        <ele>248.4</ele>
        <time>2024-03-17T10:41:46Z</time>
      </trkpt>
      <trkpt lat="50.04729" lon="4.31949">
        <ele>248.2</ele>
        <time>2024-03-17T10:41:47Z</time>
      </trkpt>
      <trkpt lat="50.04731" lon="4.31939">
        <ele>248</ele>
        <time>2024-03-17T10:41:48Z</time>
      </trkpt>
      <trkpt lat="50.04731" lon="4.31928">
        <ele>248</ele>
        <time>2024-03-17T10:41:49Z</time>
      </trkpt>
      <trkpt lat="50.04732" lon="4.31918">
        <ele>247.8</ele>
        <time>2024-03-17T10:41:50Z</time>
      </trkpt>
      <trkpt lat="50.04734" lon="4.31907">
        <ele>247.6</ele>
        <time>2024-03-17T10:41:51Z</time>
      </trkpt>
      <trkpt lat="50.04736" lon="4.31897">
        <ele>247.4</ele>
        <time>2024-03-17T10:41:52Z</time>
      </trkpt>
      <trkpt lat="50.04739" lon="4.31888">
        <ele>247.4</ele>
        <time>2024-03-17T10:41:53Z</time>
      </trkpt>
      <trkpt lat="50.04743" lon="4.31879">
        <ele>247.2</ele>
        <time>2024-03-17T10:41:54Z</time>
      </trkpt>
      <trkpt lat="50.04748" lon="4.31871">
        <ele>247.2</ele>
        <time>2024-03-17T10:41:55Z</time>
      </trkpt>
      <trkpt lat="50.04754" lon="4.31863">
        <ele>247</ele>
        <time>2024-03-17T10:41:56Z</time>
      </trkpt>
      <trkpt lat="50.04758" lon="4.31854">
        <ele>247</ele>
        <time>2024-03-17T10:41:57Z</time>
      </trkpt>
      <trkpt lat="50.04761" lon="4.31844">
        <ele>247</ele>
        <time>2024-03-17T10:41:58Z</time>
      </trkpt>
      <trkpt lat="50.04762" lon="4.31833">
        <ele>246.8</ele>
        <time>2024-03-17T10:41:59Z</time>
      </trkpt>
      <trkpt lat="50.04761" lon="4.31822">
        <ele>246.6</ele>
        <time>2024-03-17T10:42:00Z</time>
      </trkpt>
      <trkpt lat="50.04759" lon="4.31812">
        <ele>246.4</ele>
        <time>2024-03-17T10:42:01Z</time>
      </trkpt>
      <trkpt lat="50.04755" lon="4.31803">
        <ele>246.4</ele>
        <time>2024-03-17T10:42:02Z</time>
      </trkpt>
      <trkpt lat="50.04751" lon="4.31794">
        <ele>246.4</ele>
        <time>2024-03-17T10:42:03Z</time>
      </trkpt>
      <trkpt lat="50.04748" lon="4.31785">
        <ele>245.8</ele>
        <time>2024-03-17T10:42:04Z</time>
      </trkpt>
      <trkpt lat="50.04744" lon="4.31776">
        <ele>245.6</ele>
        <time>2024-03-17T10:42:05Z</time>
      </trkpt>
      <trkpt lat="50.04741" lon="4.31767">
        <ele>245.4</ele>
        <time>2024-03-17T10:42:06Z</time>
      </trkpt>
      <trkpt lat="50.04738" lon="4.31758">
        <ele>245.2</ele>
        <time>2024-03-17T10:42:07Z</time>
      </trkpt>
      <trkpt lat="50.04736" lon="4.31749">
        <ele>244.8</ele>
        <time>2024-03-17T10:42:08Z</time>
      </trkpt>
      <trkpt lat="50.04732" lon="4.31741">
        <ele>244.4</ele>
        <time>2024-03-17T10:42:09Z</time>
      </trkpt>
      <trkpt lat="50.04727" lon="4.31735">
        <ele>244.4</ele>
        <time>2024-03-17T10:42:10Z</time>
      </trkpt>
      <trkpt lat="50.04722" lon="4.31732">
        <ele>244.2</ele>
        <time>2024-03-17T10:42:11Z</time>
      </trkpt>
      <trkpt lat="50.04717" lon="4.31731">
        <ele>244</ele>
        <time>2024-03-17T10:42:12Z</time>
      </trkpt>
      <trkpt lat="50.04712" lon="4.31732">
        <ele>243.8</ele>
        <time>2024-03-17T10:42:13Z</time>
      </trkpt>
      <trkpt lat="50.04707" lon="4.31735">
        <ele>244</ele>
        <time>2024-03-17T10:42:14Z</time>
      </trkpt>
      <trkpt lat="50.04703" lon="4.31739">
        <ele>244</ele>
        <time>2024-03-17T10:42:15Z</time>
      </trkpt>
      <trkpt lat="50.04699" lon="4.31743">
        <ele>243.8</ele>
        <time>2024-03-17T10:42:16Z</time>
      </trkpt>
      <trkpt lat="50.04695" lon="4.31746">
        <ele>244</ele>
        <time>2024-03-17T10:42:17Z</time>
      </trkpt>
      <trkpt lat="50.04691" lon="4.31749">
        <ele>243.8</ele>
        <time>2024-03-17T10:42:18Z</time>
      </trkpt>
      <trkpt lat="50.04687" lon="4.31752">
        <ele>243.8</ele>
        <time>2024-03-17T10:42:19Z</time>
      </trkpt>
      <trkpt lat="50.04683" lon="4.31754">
        <ele>243.8</ele>
        <time>2024-03-17T10:42:20Z</time>
      </trkpt>
      <trkpt lat="50.0468" lon="4.31757">
        <ele>243.8</ele>
        <time>2024-03-17T10:42:21Z</time>
      </trkpt>
      <trkpt lat="50.04676" lon="4.3176">
        <ele>244.2</ele>
        <time>2024-03-17T10:42:22Z</time>
      </trkpt>
      <trkpt lat="50.04673" lon="4.31762">
        <ele>244.4</ele>
        <time>2024-03-17T10:42:23Z</time>
      </trkpt>
      <trkpt lat="50.04669" lon="4.31764">
        <ele>244.8</ele>
        <time>2024-03-17T10:42:24Z</time>
      </trkpt>
      <trkpt lat="50.04666" lon="4.31767">
        <ele>245.4</ele>
        <time>2024-03-17T10:42:25Z</time>
      </trkpt>
      <trkpt lat="50.04663" lon="4.31769">
        <ele>245.8</ele>
        <time>2024-03-17T10:42:26Z</time>
      </trkpt>
      <trkpt lat="50.04659" lon="4.3177">
        <ele>246.2</ele>
        <time>2024-03-17T10:42:27Z</time>
      </trkpt>
      <trkpt lat="50.04656" lon="4.3177">
        <ele>246.4</ele>
        <time>2024-03-17T10:42:28Z</time>
      </trkpt>
      <trkpt lat="50.04652" lon="4.3177">
        <ele>246.6</ele>
        <time>2024-03-17T10:42:29Z</time>
      </trkpt>
      <trkpt lat="50.04649" lon="4.31768">
        <ele>246.8</ele>
        <time>2024-03-17T10:42:30Z</time>
      </trkpt>
      <trkpt lat="50.04646" lon="4.31765">
        <ele>246.8</ele>
        <time>2024-03-17T10:42:31Z</time>
      </trkpt>
      <trkpt lat="50.04644" lon="4.31763">
        <ele>247.2</ele>
        <time>2024-03-17T10:42:32Z</time>
      </trkpt>
      <trkpt lat="50.04641" lon="4.3176">
        <ele>247.8</ele>
        <time>2024-03-17T10:42:33Z</time>
      </trkpt>
      <trkpt lat="50.04638" lon="4.31757">
        <ele>248</ele>
        <time>2024-03-17T10:42:34Z</time>
      </trkpt>
      <trkpt lat="50.04636" lon="4.31754">
        <ele>248</ele>
        <time>2024-03-17T10:42:35Z</time>
      </trkpt>
      <trkpt lat="50.04633" lon="4.31752">
        <ele>248.2</ele>
        <time>2024-03-17T10:42:36Z</time>
      </trkpt>
      <trkpt lat="50.04631" lon="4.31749">
        <ele>248.4</ele>
        <time>2024-03-17T10:42:37Z</time>
      </trkpt>
      <trkpt lat="50.04628" lon="4.31746">
        <ele>248.4</ele>
        <time>2024-03-17T10:42:38Z</time>
      </trkpt>
      <trkpt lat="50.04625" lon="4.31743">
        <ele>249</ele>
        <time>2024-03-17T10:42:39Z</time>
      </trkpt>
      <trkpt lat="50.04622" lon="4.3174">
        <ele>249.2</ele>
        <time>2024-03-17T10:42:40Z</time>
      </trkpt>
      <trkpt lat="50.0462" lon="4.31737">
        <ele>249.6</ele>
        <time>2024-03-17T10:42:41Z</time>
      </trkpt>
      <trkpt lat="50.04617" lon="4.31734">
        <ele>249.8</ele>
        <time>2024-03-17T10:42:42Z</time>
      </trkpt>
      <trkpt lat="50.04615" lon="4.31731">
        <ele>250.2</ele>
        <time>2024-03-17T10:42:43Z</time>
      </trkpt>
      <trkpt lat="50.04611" lon="4.3173">
        <ele>250.4</ele>
        <time>2024-03-17T10:42:44Z</time>
      </trkpt>
      <trkpt lat="50.04608" lon="4.3173">
        <ele>250.4</ele>
        <time>2024-03-17T10:42:45Z</time>
      </trkpt>
      <trkpt lat="50.04605" lon="4.31732">
        <ele>250.6</ele>
        <time>2024-03-17T10:42:46Z</time>
      </trkpt>
      <trkpt lat="50.04603" lon="4.31736">
        <ele>250.8</ele>
        <time>2024-03-17T10:42:47Z</time>
      </trkpt>
      <trkpt lat="50.04603" lon="4.3174">
        <ele>251</ele>
        <time>2024-03-17T10:42:48Z</time>
      </trkpt>
      <trkpt lat="50.04602" lon="4.31744">
        <ele>251.2</ele>
        <time>2024-03-17T10:42:49Z</time>
      </trkpt>
      <trkpt lat="50.04602" lon="4.31749">
        <ele>251.4</ele>
        <time>2024-03-17T10:42:50Z</time>
      </trkpt>
      <trkpt lat="50.04601" lon="4.31754">
        <ele>251.4</ele>
        <time>2024-03-17T10:42:51Z</time>
      </trkpt>
      <trkpt lat="50.04601" lon="4.31759">
        <ele>251.4</ele>
        <time>2024-03-17T10:42:52Z</time>
      </trkpt>
      <trkpt lat="50.04601" lon="4.31763">
        <ele>251.6</ele>
        <time>2024-03-17T10:42:53Z</time>
      </trkpt>
      <trkpt lat="50.046" lon="4.31768">
        <ele>251.6</ele>
        <time>2024-03-17T10:42:54Z</time>
      </trkpt>
      <trkpt lat="50.04599" lon="4.31773">
        <ele>251.8</ele>
        <time>2024-03-17T10:42:55Z</time>
      </trkpt>
      <trkpt lat="50.04599" lon="4.31778">
        <ele>252</ele>
        <time>2024-03-17T10:42:56Z</time>
      </trkpt>
      <trkpt lat="50.04598" lon="4.31783">
        <ele>252.2</ele>
        <time>2024-03-17T10:42:57Z</time>
      </trkpt>
      <trkpt lat="50.04598" lon="4.31788">
        <ele>252.4</ele>
        <time>2024-03-17T10:42:58Z</time>
      </trkpt>
      <trkpt lat="50.04597" lon="4.31793">
        <ele>252.6</ele>
        <time>2024-03-17T10:42:59Z</time>
      </trkpt>
      <trkpt lat="50.04597" lon="4.31798">
        <ele>252.6</ele>
        <time>2024-03-17T10:43:00Z</time>
      </trkpt>
      <trkpt lat="50.04597" lon="4.31803">
        <ele>253</ele>
        <time>2024-03-17T10:43:01Z</time>
      </trkpt>
      <trkpt lat="50.04596" lon="4.31808">
        <ele>253.2</ele>
        <time>2024-03-17T10:43:02Z</time>
      </trkpt>
      <trkpt lat="50.04596" lon="4.31814">
        <ele>253.4</ele>
        <time>2024-03-17T10:43:03Z</time>
      </trkpt>
      <trkpt lat="50.04595" lon="4.3182">
        <ele>253.4</ele>
        <time>2024-03-17T10:43:04Z</time>
      </trkpt>
      <trkpt lat="50.04594" lon="4.31826">
        <ele>253.4</ele>
        <time>2024-03-17T10:43:05Z</time>
      </trkpt>
      <trkpt lat="50.04593" lon="4.31831">
        <ele>253.6</ele>
        <time>2024-03-17T10:43:06Z</time>
      </trkpt>
      <trkpt lat="50.04592" lon="4.31837">
        <ele>253.6</ele>
        <time>2024-03-17T10:43:07Z</time>
      </trkpt>
      <trkpt lat="50.0459" lon="4.31842">
        <ele>253.6</ele>
        <time>2024-03-17T10:43:08Z</time>
      </trkpt>
      <trkpt lat="50.04589" lon="4.31846">
        <ele>253.6</ele>
        <time>2024-03-17T10:43:09Z</time>
      </trkpt>
      <trkpt lat="50.04586" lon="4.3185">
        <ele>253.8</ele>
        <time>2024-03-17T10:43:10Z</time>
      </trkpt>
      <trkpt lat="50.04583" lon="4.31852">
        <ele>253.8</ele>
        <time>2024-03-17T10:43:11Z</time>
      </trkpt>
      <trkpt lat="50.04581" lon="4.31854">
        <ele>253.8</ele>
        <time>2024-03-17T10:43:12Z</time>
      </trkpt>
      <trkpt lat="50.04577" lon="4.31856">
        <ele>254</ele>
        <time>2024-03-17T10:43:13Z</time>
      </trkpt>
      <trkpt lat="50.04573" lon="4.31857">
        <ele>254</ele>
        <time>2024-03-17T10:43:14Z</time>
      </trkpt>
      <trkpt lat="50.04569" lon="4.31858">
        <ele>253.8</ele>
        <time>2024-03-17T10:43:15Z</time>
      </trkpt>
      <trkpt lat="50.04566" lon="4.31859">
        <ele>254</ele>
        <time>2024-03-17T10:43:16Z</time>
      </trkpt>
      <trkpt lat="50.04563" lon="4.31861">
        <ele>254</ele>
        <time>2024-03-17T10:43:17Z</time>
      </trkpt>
      <trkpt lat="50.04559" lon="4.31862">
        <ele>254</ele>
        <time>2024-03-17T10:43:18Z</time>
      </trkpt>
      <trkpt lat="50.04556" lon="4.31864">
        <ele>254.2</ele>
        <time>2024-03-17T10:43:19Z</time>
      </trkpt>
      <trkpt lat="50.04553" lon="4.31866">
        <ele>254</ele>
        <time>2024-03-17T10:43:20Z</time>
      </trkpt>
      <trkpt lat="50.04549" lon="4.31869">
        <ele>254</ele>
        <time>2024-03-17T10:43:21Z</time>
      </trkpt>
      <trkpt lat="50.04546" lon="4.31871">
        <ele>254.2</ele>
        <time>2024-03-17T10:43:22Z</time>
      </trkpt>
      <trkpt lat="50.04542" lon="4.31874">
        <ele>254.2</ele>
        <time>2024-03-17T10:43:23Z</time>
      </trkpt>
      <trkpt lat="50.04539" lon="4.31877">
        <ele>254.4</ele>
        <time>2024-03-17T10:43:24Z</time>
      </trkpt>
      <trkpt lat="50.04536" lon="4.3188">
        <ele>254.4</ele>
        <time>2024-03-17T10:43:25Z</time>
      </trkpt>
      <trkpt lat="50.04533" lon="4.31883">
        <ele>254.4</ele>
        <time>2024-03-17T10:43:26Z</time>
      </trkpt>
      <trkpt lat="50.0453" lon="4.31886">
        <ele>254.4</ele>
        <time>2024-03-17T10:43:27Z</time>
      </trkpt>
      <trkpt lat="50.04526" lon="4.31888">
        <ele>254.6</ele>
        <time>2024-03-17T10:43:28Z</time>
      </trkpt>
      <trkpt lat="50.04523" lon="4.3189">
        <ele>254.4</ele>
        <time>2024-03-17T10:43:29Z</time>
      </trkpt>
      <trkpt lat="50.04519" lon="4.31892">
        <ele>254.6</ele>
        <time>2024-03-17T10:43:30Z</time>
      </trkpt>
      <trkpt lat="50.04516" lon="4.31894">
        <ele>254.4</ele>
        <time>2024-03-17T10:43:31Z</time>
      </trkpt>
      <trkpt lat="50.04512" lon="4.31895">
        <ele>254.6</ele>
        <time>2024-03-17T10:43:32Z</time>
      </trkpt>
      <trkpt lat="50.04508" lon="4.31898">
        <ele>254.6</ele>
        <time>2024-03-17T10:43:33Z</time>
      </trkpt>
      <trkpt lat="50.04504" lon="4.31899">
        <ele>254.6</ele>
        <time>2024-03-17T10:43:34Z</time>
      </trkpt>
      <trkpt lat="50.045" lon="4.31901">
        <ele>254.6</ele>
        <time>2024-03-17T10:43:35Z</time>
      </trkpt>
      <trkpt lat="50.04496" lon="4.31903">
        <ele>254.6</ele>
        <time>2024-03-17T10:43:36Z</time>
      </trkpt>
      <trkpt lat="50.04492" lon="4.31905">
        <ele>254.8</ele>
        <time>2024-03-17T10:43:37Z</time>
      </trkpt>
      <trkpt lat="50.04488" lon="4.31907">
        <ele>254.8</ele>
        <time>2024-03-17T10:43:38Z</time>
      </trkpt>
      <trkpt lat="50.04484" lon="4.31909">
        <ele>254.6</ele>
        <time>2024-03-17T10:43:39Z</time>
      </trkpt>
      <trkpt lat="50.0448" lon="4.31911">
        <ele>254.8</ele>
        <time>2024-03-17T10:43:40Z</time>
      </trkpt>
      <trkpt lat="50.04476" lon="4.31912">
        <ele>254.8</ele>
        <time>2024-03-17T10:43:41Z</time>
      </trkpt>
      <trkpt lat="50.04473" lon="4.31914">
        <ele>254.8</ele>
        <time>2024-03-17T10:43:42Z</time>
      </trkpt>
      <trkpt lat="50.04469" lon="4.31916">
        <ele>254.8</ele>
        <time>2024-03-17T10:43:43Z</time>
      </trkpt>
      <trkpt lat="50.04465" lon="4.31918">
        <ele>254.8</ele>
        <time>2024-03-17T10:43:44Z</time>
      </trkpt>
      <trkpt lat="50.04461" lon="4.3192">
        <ele>254.8</ele>
        <time>2024-03-17T10:43:45Z</time>
      </trkpt>
      <trkpt lat="50.04458" lon="4.31921">
        <ele>254.8</ele>
        <time>2024-03-17T10:43:46Z</time>
      </trkpt>
      <trkpt lat="50.04454" lon="4.31923">
        <ele>254.8</ele>
        <time>2024-03-17T10:43:47Z</time>
      </trkpt>
      <trkpt lat="50.0445" lon="4.31925">
        <ele>255</ele>
        <time>2024-03-17T10:43:48Z</time>
      </trkpt>
      <trkpt lat="50.04447" lon="4.31926">
        <ele>255</ele>
        <time>2024-03-17T10:43:49Z</time>
      </trkpt>
      <trkpt lat="50.04443" lon="4.31928">
        <ele>255.2</ele>
        <time>2024-03-17T10:43:50Z</time>
      </trkpt>
      <trkpt lat="50.0444" lon="4.3193">
        <ele>255.2</ele>
        <time>2024-03-17T10:43:51Z</time>
      </trkpt>
      <trkpt lat="50.04436" lon="4.31932">
        <ele>255.2</ele>
        <time>2024-03-17T10:43:52Z</time>
      </trkpt>
      <trkpt lat="50.04432" lon="4.31934">
        <ele>255.4</ele>
        <time>2024-03-17T10:43:53Z</time>
      </trkpt>
      <trkpt lat="50.04429" lon="4.31935">
        <ele>255.4</ele>
        <time>2024-03-17T10:43:54Z</time>
      </trkpt>
      <trkpt lat="50.04425" lon="4.31937">
        <ele>255.4</ele>
        <time>2024-03-17T10:43:55Z</time>
      </trkpt>
      <trkpt lat="50.04421" lon="4.31938">
        <ele>255.6</ele>
        <time>2024-03-17T10:43:56Z</time>
      </trkpt>
      <trkpt lat="50.04418" lon="4.3194">
        <ele>255.8</ele>
        <time>2024-03-17T10:43:57Z</time>
      </trkpt>
      <trkpt lat="50.04414" lon="4.31942">
        <ele>255.8</ele>
        <time>2024-03-17T10:43:58Z</time>
      </trkpt>
      <trkpt lat="50.0441" lon="4.31943">
        <ele>256</ele>
        <time>2024-03-17T10:43:59Z</time>
      </trkpt>
      <trkpt lat="50.04407" lon="4.31944">
        <ele>256</ele>
        <time>2024-03-17T10:44:00Z</time>
      </trkpt>
      <trkpt lat="50.04403" lon="4.31945">
        <ele>256</ele>
        <time>2024-03-17T10:44:01Z</time>
      </trkpt>
      <trkpt lat="50.04399" lon="4.31945">
        <ele>256</ele>
        <time>2024-03-17T10:44:02Z</time>
      </trkpt>
      <trkpt lat="50.04395" lon="4.31946">
        <ele>256</ele>
        <time>2024-03-17T10:44:03Z</time>
      </trkpt>
      <trkpt lat="50.04392" lon="4.31946">
        <ele>256</ele>
        <time>2024-03-17T10:44:04Z</time>
      </trkpt>
      <trkpt lat="50.04388" lon="4.31946">
        <ele>256.2</ele>
        <time>2024-03-17T10:44:05Z</time>
      </trkpt>
      <trkpt lat="50.04384" lon="4.31946">
        <ele>256.4</ele>
        <time>2024-03-17T10:44:06Z</time>
      </trkpt>
      <trkpt lat="50.0438" lon="4.31946">
        <ele>256.2</ele>
        <time>2024-03-17T10:44:07Z</time>
      </trkpt>
      <trkpt lat="50.04376" lon="4.31947">
        <ele>256.4</ele>
        <time>2024-03-17T10:44:08Z</time>
      </trkpt>
      <trkpt lat="50.04372" lon="4.31947">
        <ele>256.6</ele>
        <time>2024-03-17T10:44:09Z</time>
      </trkpt>
      <trkpt lat="50.04368" lon="4.31949">
        <ele>256.8</ele>
        <time>2024-03-17T10:44:10Z</time>
      </trkpt>
      <trkpt lat="50.04364" lon="4.3195">
        <ele>256.8</ele>
        <time>2024-03-17T10:44:11Z</time>
      </trkpt>
      <trkpt lat="50.0436" lon="4.31951">
        <ele>257.2</ele>
        <time>2024-03-17T10:44:12Z</time>
      </trkpt>
      <trkpt lat="50.04356" lon="4.31951">
        <ele>257.2</ele>
        <time>2024-03-17T10:44:13Z</time>
      </trkpt>
      <trkpt lat="50.04352" lon="4.31952">
        <ele>257.2</ele>
        <time>2024-03-17T10:44:14Z</time>
      </trkpt>
      <trkpt lat="50.04348" lon="4.31952">
        <ele>257.4</ele>
        <time>2024-03-17T10:44:15Z</time>
      </trkpt>
      <trkpt lat="50.04345" lon="4.31953">
        <ele>257.4</ele>
        <time>2024-03-17T10:44:16Z</time>
      </trkpt>
      <trkpt lat="50.04341" lon="4.31953">
        <ele>257.4</ele>
        <time>2024-03-17T10:44:17Z</time>
      </trkpt>
      <trkpt lat="50.04337" lon="4.31953">
        <ele>257.6</ele>
        <time>2024-03-17T10:44:18Z</time>
      </trkpt>
      <trkpt lat="50.04333" lon="4.31953">
        <ele>257.6</ele>
        <time>2024-03-17T10:44:19Z</time>
      </trkpt>
      <trkpt lat="50.04329" lon="4.31954">
        <ele>257.6</ele>
        <time>2024-03-17T10:44:20Z</time>
      </trkpt>
      <trkpt lat="50.04326" lon="4.31954">
        <ele>258</ele>
        <time>2024-03-17T10:44:21Z</time>
      </trkpt>
      <trkpt lat="50.04322" lon="4.31954">
        <ele>258.2</ele>
        <time>2024-03-17T10:44:22Z</time>
      </trkpt>
      <trkpt lat="50.04318" lon="4.31953">
        <ele>258.2</ele>
        <time>2024-03-17T10:44:23Z</time>
      </trkpt>
      <trkpt lat="50.04314" lon="4.31953">
        <ele>258.4</ele>
        <time>2024-03-17T10:44:24Z</time>
      </trkpt>
      <trkpt lat="50.0431" lon="4.31953">
        <ele>258.4</ele>
        <time>2024-03-17T10:44:25Z</time>
      </trkpt>
      <trkpt lat="50.04306" lon="4.31953">
        <ele>258.6</ele>
        <time>2024-03-17T10:44:26Z</time>
      </trkpt>
      <trkpt lat="50.04303" lon="4.31953">
        <ele>258.6</ele>
        <time>2024-03-17T10:44:27Z</time>
      </trkpt>
      <trkpt lat="50.04299" lon="4.31953">
        <ele>258.6</ele>
        <time>2024-03-17T10:44:28Z</time>
      </trkpt>
      <trkpt lat="50.04295" lon="4.31953">
        <ele>258.8</ele>
        <time>2024-03-17T10:44:29Z</time>
      </trkpt>
      <trkpt lat="50.04292" lon="4.31953">
        <ele>258.8</ele>
        <time>2024-03-17T10:44:30Z</time>
      </trkpt>
      <trkpt lat="50.04288" lon="4.31953">
        <ele>259</ele>
        <time>2024-03-17T10:44:31Z</time>
      </trkpt>
      <trkpt lat="50.04284" lon="4.31953">
        <ele>259</ele>
        <time>2024-03-17T10:44:32Z</time>
      </trkpt>
      <trkpt lat="50.04281" lon="4.31953">
        <ele>258.8</ele>
        <time>2024-03-17T10:44:33Z</time>
      </trkpt>
      <trkpt lat="50.04277" lon="4.31953">
        <ele>259</ele>
        <time>2024-03-17T10:44:34Z</time>
      </trkpt>
      <trkpt lat="50.04274" lon="4.31953">
        <ele>259</ele>
        <time>2024-03-17T10:44:35Z</time>
      </trkpt>
      <trkpt lat="50.04271" lon="4.31953">
        <ele>259</ele>
        <time>2024-03-17T10:44:36Z</time>
      </trkpt>
      <trkpt lat="50.04268" lon="4.31953">
        <ele>259.2</ele>
        <time>2024-03-17T10:44:37Z</time>
      </trkpt>
      <trkpt lat="50.04265" lon="4.31953">
        <ele>259.2</ele>
        <time>2024-03-17T10:44:38Z</time>
      </trkpt>
      <trkpt lat="50.04262" lon="4.31953">
        <ele>259.2</ele>
        <time>2024-03-17T10:44:39Z</time>
      </trkpt>
      <trkpt lat="50.04259" lon="4.31953">
        <ele>259.2</ele>
        <time>2024-03-17T10:44:40Z</time>
      </trkpt>
      <trkpt lat="50.04256" lon="4.31954">
        <ele>259.2</ele>
        <time>2024-03-17T10:44:41Z</time>
      </trkpt>
      <trkpt lat="50.04253" lon="4.31954">
        <ele>259.2</ele>
        <time>2024-03-17T10:44:42Z</time>
      </trkpt>
      <trkpt lat="50.04251" lon="4.31954">
        <ele>259.4</ele>
        <time>2024-03-17T10:44:43Z</time>
      </trkpt>
      <trkpt lat="50.04248" lon="4.31954">
        <ele>259.6</ele>
        <time>2024-03-17T10:44:44Z</time>
      </trkpt>
      <trkpt lat="50.04245" lon="4.31954">
        <ele>259.4</ele>
        <time>2024-03-17T10:44:45Z</time>
      </trkpt>
      <trkpt lat="50.04242" lon="4.31953">
        <ele>259.6</ele>
        <time>2024-03-17T10:44:46Z</time>
      </trkpt>
      <trkpt lat="50.04239" lon="4.31953">
        <ele>259.6</ele>
        <time>2024-03-17T10:44:47Z</time>
      </trkpt>
      <trkpt lat="50.04236" lon="4.31953">
        <ele>260</ele>
        <time>2024-03-17T10:44:48Z</time>
      </trkpt>
      <trkpt lat="50.04234" lon="4.31954">
        <ele>260</ele>
        <time>2024-03-17T10:44:49Z</time>
      </trkpt>
      <trkpt lat="50.04231" lon="4.31954">
        <ele>260</ele>
        <time>2024-03-17T10:44:50Z</time>
      </trkpt>
      <trkpt lat="50.04229" lon="4.31954">
        <ele>260.4</ele>
        <time>2024-03-17T10:44:51Z</time>
      </trkpt>
      <trkpt lat="50.04226" lon="4.31954">
        <ele>260.4</ele>
        <time>2024-03-17T10:44:52Z</time>
      </trkpt>
      <trkpt lat="50.04224" lon="4.31955">
        <ele>260.8</ele>
        <time>2024-03-17T10:44:53Z</time>
      </trkpt>
      <trkpt lat="50.04221" lon="4.31955">
        <ele>261</ele>
        <time>2024-03-17T10:44:54Z</time>
      </trkpt>
      <trkpt lat="50.04219" lon="4.31956">
        <ele>261.4</ele>
        <time>2024-03-17T10:44:55Z</time>
      </trkpt>
      <trkpt lat="50.04217" lon="4.31956">
        <ele>261.4</ele>
        <time>2024-03-17T10:44:56Z</time>
      </trkpt>
      <trkpt lat="50.04214" lon="4.31957">
        <ele>261.6</ele>
        <time>2024-03-17T10:44:57Z</time>
      </trkpt>
      <trkpt lat="50.04212" lon="4.31957">
        <ele>261.8</ele>
        <time>2024-03-17T10:44:58Z</time>
      </trkpt>
      <trkpt lat="50.0421" lon="4.31958">
        <ele>262</ele>
        <time>2024-03-17T10:44:59Z</time>
      </trkpt>
      <trkpt lat="50.04208" lon="4.31959">
        <ele>262.4</ele>
        <time>2024-03-17T10:45:00Z</time>
      </trkpt>
      <trkpt lat="50.04206" lon="4.31959">
        <ele>262.8</ele>
        <time>2024-03-17T10:45:01Z</time>
      </trkpt>
      <trkpt lat="50.04204" lon="4.3196">
        <ele>263</ele>
        <time>2024-03-17T10:45:02Z</time>
      </trkpt>
      <trkpt lat="50.04202" lon="4.31961">
        <ele>263.6</ele>
        <time>2024-03-17T10:45:03Z</time>
      </trkpt>
      <trkpt lat="50.042" lon="4.31962">
        <ele>263.8</ele>
        <time>2024-03-17T10:45:04Z</time>
      </trkpt>
      <trkpt lat="50.04197" lon="4.31963">
        <ele>264.2</ele>
        <time>2024-03-17T10:45:05Z</time>
      </trkpt>
      <trkpt lat="50.04195" lon="4.31963">
        <ele>264.4</ele>
        <time>2024-03-17T10:45:06Z</time>
      </trkpt>
      <trkpt lat="50.04193" lon="4.31964">
        <ele>265.2</ele>
        <time>2024-03-17T10:45:07Z</time>
      </trkpt>
      <trkpt lat="50.04191" lon="4.31965">
        <ele>265.6</ele>
        <time>2024-03-17T10:45:08Z</time>
      </trkpt>
      <trkpt lat="50.04189" lon="4.31965">
        <ele>266.2</ele>
        <time>2024-03-17T10:45:09Z</time>
      </trkpt>
      <trkpt lat="50.04187" lon="4.31966">
        <ele>266.4</ele>
        <time>2024-03-17T10:45:10Z</time>
      </trkpt>
      <trkpt lat="50.04185" lon="4.31966">
        <ele>266.8</ele>
        <time>2024-03-17T10:45:11Z</time>
      </trkpt>
      <trkpt lat="50.04183" lon="4.31967">
        <ele>266.8</ele>
        <time>2024-03-17T10:45:12Z</time>
      </trkpt>
      <trkpt lat="50.04181" lon="4.31968">
        <ele>266.8</ele>
        <time>2024-03-17T10:45:13Z</time>
      </trkpt>
      <trkpt lat="50.04179" lon="4.3197">
        <ele>267.2</ele>
        <time>2024-03-17T10:45:14Z</time>
      </trkpt>
      <trkpt lat="50.04177" lon="4.31971">
        <ele>267.6</ele>
        <time>2024-03-17T10:45:15Z</time>
      </trkpt>
      <trkpt lat="50.04175" lon="4.31972">
        <ele>267.8</ele>
        <time>2024-03-17T10:45:16Z</time>
      </trkpt>
      <trkpt lat="50.04173" lon="4.31974">
        <ele>268</ele>
        <time>2024-03-17T10:45:17Z</time>
      </trkpt>
      <trkpt lat="50.04171" lon="4.31975">
        <ele>268</ele>
        <time>2024-03-17T10:45:18Z</time>
      </trkpt>
      <trkpt lat="50.04169" lon="4.31977">
        <ele>268</ele>
        <time>2024-03-17T10:45:19Z</time>
      </trkpt>
      <trkpt lat="50.04167" lon="4.31978">
        <ele>268.2</ele>
        <time>2024-03-17T10:45:20Z</time>
      </trkpt>
      <trkpt lat="50.04165" lon="4.3198">
        <ele>268.2</ele>
        <time>2024-03-17T10:45:21Z</time>
      </trkpt>
      <trkpt lat="50.04163" lon="4.31982">
        <ele>268.4</ele>
        <time>2024-03-17T10:45:22Z</time>
      </trkpt>
      <trkpt lat="50.04161" lon="4.31983">
        <ele>268.2</ele>
        <time>2024-03-17T10:45:23Z</time>
      </trkpt>
      <trkpt lat="50.0416" lon="4.31985">
        <ele>268.6</ele>
        <time>2024-03-17T10:45:24Z</time>
      </trkpt>
      <trkpt lat="50.04158" lon="4.31986">
        <ele>268.6</ele>
        <time>2024-03-17T10:45:25Z</time>
      </trkpt>
      <trkpt lat="50.04156" lon="4.31987">
        <ele>268.6</ele>
        <time>2024-03-17T10:45:26Z</time>
      </trkpt>
      <trkpt lat="50.04154" lon="4.31989">
        <ele>268.6</ele>
        <time>2024-03-17T10:45:27Z</time>
      </trkpt>
      <trkpt lat="50.04152" lon="4.3199">
        <ele>269</ele>
        <time>2024-03-17T10:45:28Z</time>
      </trkpt>
      <trkpt lat="50.0415" lon="4.31991">
        <ele>269.2</ele>
        <time>2024-03-17T10:45:29Z</time>
      </trkpt>
      <trkpt lat="50.04148" lon="4.31992">
        <ele>269.2</ele>
        <time>2024-03-17T10:45:30Z</time>
      </trkpt>
      <trkpt lat="50.04146" lon="4.31993">
        <ele>269.2</ele>
        <time>2024-03-17T10:45:31Z</time>
      </trkpt>
      <trkpt lat="50.04144" lon="4.31994">
        <ele>269.4</ele>
        <time>2024-03-17T10:45:32Z</time>
      </trkpt>
      <trkpt lat="50.04142" lon="4.31995">
        <ele>269.6</ele>
        <time>2024-03-17T10:45:33Z</time>
      </trkpt>
      <trkpt lat="50.0414" lon="4.31996">
        <ele>269.8</ele>
        <time>2024-03-17T10:45:34Z</time>
      </trkpt>
      <trkpt lat="50.04137" lon="4.31997">
        <ele>269.8</ele>
        <time>2024-03-17T10:45:35Z</time>
      </trkpt>
      <trkpt lat="50.04135" lon="4.31997">
        <ele>270</ele>
        <time>2024-03-17T10:45:36Z</time>
      </trkpt>
      <trkpt lat="50.04133" lon="4.31998">
        <ele>270.2</ele>
        <time>2024-03-17T10:45:37Z</time>
      </trkpt>
      <trkpt lat="50.04131" lon="4.31999">
        <ele>270.2</ele>
        <time>2024-03-17T10:45:38Z</time>
      </trkpt>
      <trkpt lat="50.04129" lon="4.31999">
        <ele>270.4</ele>
        <time>2024-03-17T10:45:39Z</time>
      </trkpt>
      <trkpt lat="50.04127" lon="4.32">
        <ele>270.4</ele>
        <time>2024-03-17T10:45:40Z</time>
      </trkpt>
      <trkpt lat="50.04125" lon="4.32001">
        <ele>270.6</ele>
        <time>2024-03-17T10:45:41Z</time>
      </trkpt>
      <trkpt lat="50.04122" lon="4.32001">
        <ele>270.6</ele>
        <time>2024-03-17T10:45:42Z</time>
      </trkpt>
      <trkpt lat="50.0412" lon="4.32002">
        <ele>271</ele>
        <time>2024-03-17T10:45:43Z</time>
      </trkpt>
      <trkpt lat="50.04118" lon="4.32003">
        <ele>271.6</ele>
        <time>2024-03-17T10:45:44Z</time>
      </trkpt>
      <trkpt lat="50.04115" lon="4.32003">
        <ele>272</ele>
        <time>2024-03-17T10:45:45Z</time>
      </trkpt>
      <trkpt lat="50.04113" lon="4.32004">
        <ele>272</ele>
        <time>2024-03-17T10:45:46Z</time>
      </trkpt>
      <trkpt lat="50.0411" lon="4.32004">
        <ele>272.4</ele>
        <time>2024-03-17T10:45:47Z</time>
      </trkpt>
      <trkpt lat="50.04108" lon="4.32005">
        <ele>272.4</ele>
        <time>2024-03-17T10:45:48Z</time>
      </trkpt>
      <trkpt lat="50.04105" lon="4.32006">
        <ele>272.4</ele>
        <time>2024-03-17T10:45:49Z</time>
      </trkpt>
      <trkpt lat="50.04102" lon="4.32006">
        <ele>272.6</ele>
        <time>2024-03-17T10:45:50Z</time>
      </trkpt>
      <trkpt lat="50.04099" lon="4.32007">
        <ele>272.6</ele>
        <time>2024-03-17T10:45:51Z</time>
      </trkpt>
      <trkpt lat="50.04096" lon="4.32009">
        <ele>272.6</ele>
        <time>2024-03-17T10:45:52Z</time>
      </trkpt>
      <trkpt lat="50.04094" lon="4.3201">
        <ele>272.6</ele>
        <time>2024-03-17T10:45:53Z</time>
      </trkpt>
      <trkpt lat="50.04091" lon="4.32011">
        <ele>272.6</ele>
        <time>2024-03-17T10:45:54Z</time>
      </trkpt>
      <trkpt lat="50.04088" lon="4.32013">
        <ele>272.8</ele>
        <time>2024-03-17T10:45:55Z</time>
      </trkpt>
      <trkpt lat="50.04085" lon="4.32015">
        <ele>272.8</ele>
        <time>2024-03-17T10:45:56Z</time>
      </trkpt>
      <trkpt lat="50.04082" lon="4.32017">
        <ele>272.8</ele>
        <time>2024-03-17T10:45:57Z</time>
      </trkpt>
      <trkpt lat="50.04078" lon="4.32019">
        <ele>272.8</ele>
        <time>2024-03-17T10:45:58Z</time>
      </trkpt>
      <trkpt lat="50.04075" lon="4.32021">
        <ele>272.8</ele>
        <time>2024-03-17T10:45:59Z</time>
      </trkpt>
      <trkpt lat="50.04072" lon="4.32023">
        <ele>273</ele>
        <time>2024-03-17T10:46:00Z</time>
      </trkpt>
      <trkpt lat="50.04069" lon="4.32025">
        <ele>273</ele>
        <time>2024-03-17T10:46:01Z</time>
      </trkpt>
      <trkpt lat="50.04066" lon="4.32028">
        <ele>273</ele>
        <time>2024-03-17T10:46:02Z</time>
      </trkpt>
      <trkpt lat="50.04063" lon="4.3203">
        <ele>273.2</ele>
        <time>2024-03-17T10:46:03Z</time>
      </trkpt>
      <trkpt lat="50.0406" lon="4.32033">
        <ele>273</ele>
        <time>2024-03-17T10:46:04Z</time>
      </trkpt>
      <trkpt lat="50.04057" lon="4.32036">
        <ele>273</ele>
        <time>2024-03-17T10:46:05Z</time>
      </trkpt>
      <trkpt lat="50.04054" lon="4.32039">
        <ele>273</ele>
        <time>2024-03-17T10:46:06Z</time>
      </trkpt>
      <trkpt lat="50.0405" lon="4.32043">
        <ele>273</ele>
        <time>2024-03-17T10:46:07Z</time>
      </trkpt>
      <trkpt lat="50.04045" lon="4.32046">
        <ele>273</ele>
        <time>2024-03-17T10:46:08Z</time>
      </trkpt>
      <trkpt lat="50.04041" lon="4.32049">
        <ele>273</ele>
        <time>2024-03-17T10:46:09Z</time>
      </trkpt>
      <trkpt lat="50.04036" lon="4.32053">
        <ele>273</ele>
        <time>2024-03-17T10:46:10Z</time>
      </trkpt>
      <trkpt lat="50.04032" lon="4.32057">
        <ele>273</ele>
        <time>2024-03-17T10:46:11Z</time>
      </trkpt>
      <trkpt lat="50.04027" lon="4.32062">
        <ele>272.8</ele>
        <time>2024-03-17T10:46:12Z</time>
      </trkpt>
      <trkpt lat="50.04022" lon="4.32066">
        <ele>273</ele>
        <time>2024-03-17T10:46:13Z</time>
      </trkpt>
      <trkpt lat="50.04016" lon="4.32071">
        <ele>272.8</ele>
        <time>2024-03-17T10:46:14Z</time>
      </trkpt>
      <trkpt lat="50.04011" lon="4.32075">
        <ele>272.8</ele>
        <time>2024-03-17T10:46:15Z</time>
      </trkpt>
      <trkpt lat="50.04005" lon="4.3208">
        <ele>272.4</ele>
        <time>2024-03-17T10:46:16Z</time>
      </trkpt>
      <trkpt lat="50.04" lon="4.32085">
        <ele>272.4</ele>
        <time>2024-03-17T10:46:17Z</time>
      </trkpt>
      <trkpt lat="50.03994" lon="4.3209">
        <ele>272.2</ele>
        <time>2024-03-17T10:46:18Z</time>
      </trkpt>
      <trkpt lat="50.03988" lon="4.32095">
        <ele>272</ele>
        <time>2024-03-17T10:46:19Z</time>
      </trkpt>
      <trkpt lat="50.03982" lon="4.321">
        <ele>271.2</ele>
        <time>2024-03-17T10:46:20Z</time>
      </trkpt>
      <trkpt lat="50.03976" lon="4.32105">
        <ele>270.4</ele>
        <time>2024-03-17T10:46:21Z</time>
      </trkpt>
      <trkpt lat="50.03969" lon="4.32111">
        <ele>270.2</ele>
        <time>2024-03-17T10:46:22Z</time>
      </trkpt>
      <trkpt lat="50.03963" lon="4.32116">
        <ele>270</ele>
        <time>2024-03-17T10:46:23Z</time>
      </trkpt>
      <trkpt lat="50.03956" lon="4.32122">
        <ele>269.4</ele>
        <time>2024-03-17T10:46:24Z</time>
      </trkpt>
      <trkpt lat="50.0395" lon="4.32127">
        <ele>269</ele>
        <time>2024-03-17T10:46:25Z</time>
      </trkpt>
      <trkpt lat="50.03943" lon="4.32133">
        <ele>268.8</ele>
        <time>2024-03-17T10:46:26Z</time>
      </trkpt>
      <trkpt lat="50.03936" lon="4.32139">
        <ele>268.8</ele>
        <time>2024-03-17T10:46:27Z</time>
      </trkpt>
      <trkpt lat="50.03929" lon="4.32146">
        <ele>268.4</ele>
        <time>2024-03-17T10:46:28Z</time>
      </trkpt>
      <trkpt lat="50.03923" lon="4.32152">
        <ele>268.4</ele>
        <time>2024-03-17T10:46:29Z</time>
      </trkpt>
      <trkpt lat="50.03916" lon="4.32159">
        <ele>268.2</ele>
        <time>2024-03-17T10:46:30Z</time>
      </trkpt>
      <trkpt lat="50.03909" lon="4.32165">
        <ele>268</ele>
        <time>2024-03-17T10:46:31Z</time>
      </trkpt>
      <trkpt lat="50.03903" lon="4.32172">
        <ele>267.6</ele>
        <time>2024-03-17T10:46:32Z</time>
      </trkpt>
      <trkpt lat="50.03896" lon="4.32178">
        <ele>266.8</ele>
        <time>2024-03-17T10:46:33Z</time>
      </trkpt>
      <trkpt lat="50.0389" lon="4.32185">
        <ele>266.2</ele>
        <time>2024-03-17T10:46:34Z</time>
      </trkpt>
      <trkpt lat="50.03883" lon="4.32192">
        <ele>265.4</ele>
        <time>2024-03-17T10:46:35Z</time>
      </trkpt>
      <trkpt lat="50.03877" lon="4.32198">
        <ele>265</ele>
        <time>2024-03-17T10:46:36Z</time>
      </trkpt>
      <trkpt lat="50.03871" lon="4.32204">
        <ele>264.8</ele>
        <time>2024-03-17T10:46:37Z</time>
      </trkpt>
      <trkpt lat="50.03865" lon="4.3221">
        <ele>264.6</ele>
        <time>2024-03-17T10:46:38Z</time>
      </trkpt>
      <trkpt lat="50.03859" lon="4.32217">
        <ele>264.2</ele>
        <time>2024-03-17T10:46:39Z</time>
      </trkpt>
      <trkpt lat="50.03853" lon="4.32223">
        <ele>264.2</ele>
        <time>2024-03-17T10:46:40Z</time>
      </trkpt>
      <trkpt lat="50.03848" lon="4.32228">
        <ele>263.6</ele>
        <time>2024-03-17T10:46:41Z</time>
      </trkpt>
      <trkpt lat="50.03843" lon="4.32233">
        <ele>263.6</ele>
        <time>2024-03-17T10:46:42Z</time>
      </trkpt>
      <trkpt lat="50.03837" lon="4.32239">
        <ele>263.2</ele>
        <time>2024-03-17T10:46:43Z</time>
      </trkpt>
      <trkpt lat="50.03832" lon="4.32245">
        <ele>263.2</ele>
        <time>2024-03-17T10:46:44Z</time>
      </trkpt>
      <trkpt lat="50.03828" lon="4.32251">
        <ele>262.8</ele>
        <time>2024-03-17T10:46:45Z</time>
      </trkpt>
      <trkpt lat="50.03823" lon="4.32256">
        <ele>262.6</ele>
        <time>2024-03-17T10:46:46Z</time>
      </trkpt>
      <trkpt lat="50.03818" lon="4.32262">
        <ele>262.8</ele>
        <time>2024-03-17T10:46:47Z</time>
      </trkpt>
      <trkpt lat="50.03813" lon="4.32268">
        <ele>262.6</ele>
        <time>2024-03-17T10:46:48Z</time>
      </trkpt>
      <trkpt lat="50.03808" lon="4.32274">
        <ele>262.6</ele>
        <time>2024-03-17T10:46:49Z</time>
      </trkpt>
      <trkpt lat="50.03804" lon="4.3228">
        <ele>262.4</ele>
        <time>2024-03-17T10:46:50Z</time>
      </trkpt>
      <trkpt lat="50.03799" lon="4.32286">
        <ele>262.6</ele>
        <time>2024-03-17T10:46:51Z</time>
      </trkpt>
      <trkpt lat="50.03794" lon="4.32291">
        <ele>262.4</ele>
        <time>2024-03-17T10:46:52Z</time>
      </trkpt>
      <trkpt lat="50.03789" lon="4.32297">
        <ele>262.4</ele>
        <time>2024-03-17T10:46:53Z</time>
      </trkpt>
      <trkpt lat="50.03785" lon="4.32303">
        <ele>262.4</ele>
        <time>2024-03-17T10:46:54Z</time>
      </trkpt>
      <trkpt lat="50.0378" lon="4.32309">
        <ele>262.4</ele>
        <time>2024-03-17T10:46:55Z</time>
      </trkpt>
      <trkpt lat="50.03776" lon="4.32316">
        <ele>262.6</ele>
        <time>2024-03-17T10:46:56Z</time>
      </trkpt>
      <trkpt lat="50.03771" lon="4.32322">
        <ele>262.4</ele>
        <time>2024-03-17T10:46:57Z</time>
      </trkpt>
      <trkpt lat="50.03766" lon="4.32328">
        <ele>262.4</ele>
        <time>2024-03-17T10:46:58Z</time>
      </trkpt>
      <trkpt lat="50.03762" lon="4.32334">
        <ele>262.4</ele>
        <time>2024-03-17T10:46:59Z</time>
      </trkpt>
      <trkpt lat="50.03757" lon="4.3234">
        <ele>262.6</ele>
        <time>2024-03-17T10:47:00Z</time>
      </trkpt>
      <trkpt lat="50.03753" lon="4.32346">
        <ele>262.6</ele>
        <time>2024-03-17T10:47:01Z</time>
      </trkpt>
      <trkpt lat="50.03748" lon="4.32352">
        <ele>262.6</ele>
        <time>2024-03-17T10:47:02Z</time>
      </trkpt>
      <trkpt lat="50.03744" lon="4.32358">
        <ele>262.6</ele>
        <time>2024-03-17T10:47:03Z</time>
      </trkpt>
      <trkpt lat="50.03739" lon="4.32364">
        <ele>262.6</ele>
        <time>2024-03-17T10:47:04Z</time>
      </trkpt>
      <trkpt lat="50.03734" lon="4.32371">
        <ele>262.4</ele>
        <time>2024-03-17T10:47:05Z</time>
      </trkpt>
      <trkpt lat="50.0373" lon="4.32377">
        <ele>262.8</ele>
        <time>2024-03-17T10:47:06Z</time>
      </trkpt>
      <trkpt lat="50.03725" lon="4.32383">
        <ele>262.6</ele>
        <time>2024-03-17T10:47:07Z</time>
      </trkpt>
      <trkpt lat="50.03721" lon="4.32389">
        <ele>262.8</ele>
        <time>2024-03-17T10:47:08Z</time>
      </trkpt>
      <trkpt lat="50.03716" lon="4.32395">
        <ele>262.6</ele>
        <time>2024-03-17T10:47:09Z</time>
      </trkpt>
      <trkpt lat="50.03711" lon="4.32402">
        <ele>262.6</ele>
        <time>2024-03-17T10:47:10Z</time>
      </trkpt>
      <trkpt lat="50.03706" lon="4.32408">
        <ele>262.8</ele>
        <time>2024-03-17T10:47:11Z</time>
      </trkpt>
      <trkpt lat="50.03701" lon="4.32415">
        <ele>262.4</ele>
        <time>2024-03-17T10:47:12Z</time>
      </trkpt>
      <trkpt lat="50.03696" lon="4.32422">
        <ele>262.4</ele>
        <time>2024-03-17T10:47:13Z</time>
      </trkpt>
      <trkpt lat="50.03691" lon="4.32428">
        <ele>262.4</ele>
        <time>2024-03-17T10:47:14Z</time>
      </trkpt>
      <trkpt lat="50.03686" lon="4.32435">
        <ele>262.4</ele>
        <time>2024-03-17T10:47:15Z</time>
      </trkpt>
      <trkpt lat="50.03681" lon="4.32442">
        <ele>262.2</ele>
        <time>2024-03-17T10:47:16Z</time>
      </trkpt>
      <trkpt lat="50.03676" lon="4.32449">
        <ele>262.2</ele>
        <time>2024-03-17T10:47:17Z</time>
      </trkpt>
      <trkpt lat="50.0367" lon="4.32456">
        <ele>262.2</ele>
        <time>2024-03-17T10:47:18Z</time>
      </trkpt>
      <trkpt lat="50.03665" lon="4.32464">
        <ele>262</ele>
        <time>2024-03-17T10:47:19Z</time>
      </trkpt>
      <trkpt lat="50.03659" lon="4.32471">
        <ele>262</ele>
        <time>2024-03-17T10:47:20Z</time>
      </trkpt>
      <trkpt lat="50.03653" lon="4.32479">
        <ele>261.6</ele>
        <time>2024-03-17T10:47:21Z</time>
      </trkpt>
      <trkpt lat="50.03647" lon="4.32487">
        <ele>261.6</ele>
        <time>2024-03-17T10:47:22Z</time>
      </trkpt>
      <trkpt lat="50.03641" lon="4.32496">
        <ele>261.2</ele>
        <time>2024-03-17T10:47:23Z</time>
      </trkpt>
      <trkpt lat="50.03634" lon="4.32504">
        <ele>260.4</ele>
        <time>2024-03-17T10:47:24Z</time>
      </trkpt>
      <trkpt lat="50.03628" lon="4.32513">
        <ele>260.2</ele>
        <time>2024-03-17T10:47:25Z</time>
      </trkpt>
      <trkpt lat="50.03622" lon="4.32522">
        <ele>260.2</ele>
        <time>2024-03-17T10:47:26Z</time>
      </trkpt>
      <trkpt lat="50.03615" lon="4.3253">
        <ele>259.8</ele>
        <time>2024-03-17T10:47:27Z</time>
      </trkpt>
      <trkpt lat="50.03608" lon="4.32539">
        <ele>259</ele>
        <time>2024-03-17T10:47:28Z</time>
      </trkpt>
      <trkpt lat="50.03601" lon="4.32548">
        <ele>258</ele>
        <time>2024-03-17T10:47:29Z</time>
      </trkpt>
      <trkpt lat="50.03594" lon="4.32557">
        <ele>257.4</ele>
        <time>2024-03-17T10:47:30Z</time>
      </trkpt>
      <trkpt lat="50.03587" lon="4.32566">
        <ele>256.8</ele>
        <time>2024-03-17T10:47:31Z</time>
      </trkpt>
      <trkpt lat="50.0358" lon="4.32576">
        <ele>256.6</ele>
        <time>2024-03-17T10:47:32Z</time>
      </trkpt>
      <trkpt lat="50.03573" lon="4.32585">
        <ele>255.8</ele>
        <time>2024-03-17T10:47:33Z</time>
      </trkpt>
      <trkpt lat="50.03566" lon="4.32595">
        <ele>255.4</ele>
        <time>2024-03-17T10:47:34Z</time>
      </trkpt>
      <trkpt lat="50.03558" lon="4.32605">
        <ele>255</ele>
        <time>2024-03-17T10:47:35Z</time>
      </trkpt>
      <trkpt lat="50.03551" lon="4.32616">
        <ele>255</ele>
        <time>2024-03-17T10:47:36Z</time>
      </trkpt>
      <trkpt lat="50.03543" lon="4.32626">
        <ele>254.4</ele>
        <time>2024-03-17T10:47:37Z</time>
      </trkpt>
      <trkpt lat="50.03535" lon="4.32637">
        <ele>253.2</ele>
        <time>2024-03-17T10:47:38Z</time>
      </trkpt>
      <trkpt lat="50.03527" lon="4.32647">
        <ele>252.6</ele>
        <time>2024-03-17T10:47:39Z</time>
      </trkpt>
      <trkpt lat="50.03519" lon="4.32657">
        <ele>251.2</ele>
        <time>2024-03-17T10:47:40Z</time>
      </trkpt>
      <trkpt lat="50.03511" lon="4.32668">
        <ele>250.6</ele>
        <time>2024-03-17T10:47:41Z</time>
      </trkpt>
      <trkpt lat="50.03503" lon="4.32679">
        <ele>250</ele>
        <time>2024-03-17T10:47:42Z</time>
      </trkpt>
      <trkpt lat="50.03495" lon="4.32689">
        <ele>249</ele>
        <time>2024-03-17T10:47:43Z</time>
      </trkpt>
      <trkpt lat="50.03487" lon="4.327">
        <ele>248.8</ele>
        <time>2024-03-17T10:47:44Z</time>
      </trkpt>
      <trkpt lat="50.03479" lon="4.32709">
        <ele>248.2</ele>
        <time>2024-03-17T10:47:45Z</time>
      </trkpt>
      <trkpt lat="50.03471" lon="4.32719">
        <ele>248</ele>
        <time>2024-03-17T10:47:46Z</time>
      </trkpt>
      <trkpt lat="50.03463" lon="4.32727">
        <ele>247.8</ele>
        <time>2024-03-17T10:47:47Z</time>
      </trkpt>
      <trkpt lat="50.03455" lon="4.32734">
        <ele>246.6</ele>
        <time>2024-03-17T10:47:48Z</time>
      </trkpt>
      <trkpt lat="50.03446" lon="4.3274">
        <ele>245.6</ele>
        <time>2024-03-17T10:47:49Z</time>
      </trkpt>
      <trkpt lat="50.03438" lon="4.32746">
        <ele>245</ele>
        <time>2024-03-17T10:47:50Z</time>
      </trkpt>
      <trkpt lat="50.03429" lon="4.3275">
        <ele>244.6</ele>
        <time>2024-03-17T10:47:51Z</time>
      </trkpt>
      <trkpt lat="50.0342" lon="4.32754">
        <ele>243.8</ele>
        <time>2024-03-17T10:47:52Z</time>
      </trkpt>
      <trkpt lat="50.03411" lon="4.32757">
        <ele>243.8</ele>
        <time>2024-03-17T10:47:53Z</time>
      </trkpt>
      <trkpt lat="50.03402" lon="4.3276">
        <ele>243.4</ele>
        <time>2024-03-17T10:47:54Z</time>
      </trkpt>
      <trkpt lat="50.03394" lon="4.32761">
        <ele>242.6</ele>
        <time>2024-03-17T10:47:55Z</time>
      </trkpt>
      <trkpt lat="50.03385" lon="4.3276">
        <ele>241.8</ele>
        <time>2024-03-17T10:47:56Z</time>
      </trkpt>
      <trkpt lat="50.03376" lon="4.32759">
        <ele>241.2</ele>
        <time>2024-03-17T10:47:57Z</time>
      </trkpt>
      <trkpt lat="50.03368" lon="4.32757">
        <ele>241</ele>
        <time>2024-03-17T10:47:58Z</time>
      </trkpt>
      <trkpt lat="50.03361" lon="4.32754">
        <ele>240.6</ele>
        <time>2024-03-17T10:47:59Z</time>
      </trkpt>
      <trkpt lat="50.03353" lon="4.32752">
        <ele>240.2</ele>
        <time>2024-03-17T10:48:00Z</time>
      </trkpt>
      <trkpt lat="50.03346" lon="4.3275">
        <ele>240.2</ele>
        <time>2024-03-17T10:48:01Z</time>
      </trkpt>
      <trkpt lat="50.03339" lon="4.32748">
        <ele>240</ele>
        <time>2024-03-17T10:48:02Z</time>
      </trkpt>
      <trkpt lat="50.03333" lon="4.32746">
        <ele>239.8</ele>
        <time>2024-03-17T10:48:03Z</time>
      </trkpt>
      <trkpt lat="50.03327" lon="4.32744">
        <ele>240</ele>
        <time>2024-03-17T10:48:04Z</time>
      </trkpt>
      <trkpt lat="50.03321" lon="4.32742">
        <ele>240</ele>
        <time>2024-03-17T10:48:05Z</time>
      </trkpt>
      <trkpt lat="50.03316" lon="4.3274">
        <ele>240</ele>
        <time>2024-03-17T10:48:06Z</time>
      </trkpt>
      <trkpt lat="50.0331" lon="4.32738">
        <ele>240</ele>
        <time>2024-03-17T10:48:07Z</time>
      </trkpt>
      <trkpt lat="50.03305" lon="4.32737">
        <ele>240.2</ele>
        <time>2024-03-17T10:48:08Z</time>
      </trkpt>
      <trkpt lat="50.03301" lon="4.32735">
        <ele>240.2</ele>
        <time>2024-03-17T10:48:09Z</time>
      </trkpt>
      <trkpt lat="50.03296" lon="4.32734">
        <ele>240.2</ele>
        <time>2024-03-17T10:48:10Z</time>
      </trkpt>
      <trkpt lat="50.03291" lon="4.32733">
        <ele>240.2</ele>
        <time>2024-03-17T10:48:11Z</time>
      </trkpt>
      <trkpt lat="50.03287" lon="4.32731">
        <ele>240.6</ele>
        <time>2024-03-17T10:48:12Z</time>
      </trkpt>
      <trkpt lat="50.03283" lon="4.3273">
        <ele>240.6</ele>
        <time>2024-03-17T10:48:13Z</time>
      </trkpt>
      <trkpt lat="50.03279" lon="4.32728">
        <ele>240.8</ele>
        <time>2024-03-17T10:48:14Z</time>
      </trkpt>
      <trkpt lat="50.03275" lon="4.32727">
        <ele>241.2</ele>
        <time>2024-03-17T10:48:15Z</time>
      </trkpt>
      <trkpt lat="50.03271" lon="4.32726">
        <ele>241.8</ele>
        <time>2024-03-17T10:48:16Z</time>
      </trkpt>
      <trkpt lat="50.03268" lon="4.32725">
        <ele>242.6</ele>
        <time>2024-03-17T10:48:17Z</time>
      </trkpt>
      <trkpt lat="50.03264" lon="4.32723">
        <ele>243.2</ele>
        <time>2024-03-17T10:48:18Z</time>
      </trkpt>
      <trkpt lat="50.0326" lon="4.32722">
        <ele>243.4</ele>
        <time>2024-03-17T10:48:19Z</time>
      </trkpt>
      <trkpt lat="50.03257" lon="4.32721">
        <ele>243.4</ele>
        <time>2024-03-17T10:48:20Z</time>
      </trkpt>
      <trkpt lat="50.03253" lon="4.3272">
        <ele>243.6</ele>
        <time>2024-03-17T10:48:21Z</time>
      </trkpt>
      <trkpt lat="50.0325" lon="4.32719">
        <ele>244.2</ele>
        <time>2024-03-17T10:48:22Z</time>
      </trkpt>
      <trkpt lat="50.03246" lon="4.32718">
        <ele>244.2</ele>
        <time>2024-03-17T10:48:23Z</time>
      </trkpt>
      <trkpt lat="50.03243" lon="4.32717">
        <ele>244.4</ele>
        <time>2024-03-17T10:48:24Z</time>
      </trkpt>
      <trkpt lat="50.0324" lon="4.32716">
        <ele>244.4</ele>
        <time>2024-03-17T10:48:25Z</time>
      </trkpt>
      <trkpt lat="50.03236" lon="4.32715">
        <ele>244.6</ele>
        <time>2024-03-17T10:48:26Z</time>
      </trkpt>
      <trkpt lat="50.03233" lon="4.32714">
        <ele>244.6</ele>
        <time>2024-03-17T10:48:27Z</time>
      </trkpt>
      <trkpt lat="50.0323" lon="4.32713">
        <ele>245.2</ele>
        <time>2024-03-17T10:48:28Z</time>
      </trkpt>
      <trkpt lat="50.03227" lon="4.32711">
        <ele>245.4</ele>
        <time>2024-03-17T10:48:29Z</time>
      </trkpt>
      <trkpt lat="50.03224" lon="4.32711">
        <ele>245.6</ele>
        <time>2024-03-17T10:48:30Z</time>
      </trkpt>
      <trkpt lat="50.03221" lon="4.3271">
        <ele>245.6</ele>
        <time>2024-03-17T10:48:31Z</time>
      </trkpt>
      <trkpt lat="50.03218" lon="4.32709">
        <ele>245.8</ele>
        <time>2024-03-17T10:48:32Z</time>
      </trkpt>
      <trkpt lat="50.03214" lon="4.32708">
        <ele>246.4</ele>
        <time>2024-03-17T10:48:33Z</time>
      </trkpt>
      <trkpt lat="50.03211" lon="4.32706">
        <ele>247.4</ele>
        <time>2024-03-17T10:48:34Z</time>
      </trkpt>
      <trkpt lat="50.03207" lon="4.32705">
        <ele>247.8</ele>
        <time>2024-03-17T10:48:35Z</time>
      </trkpt>
      <trkpt lat="50.03204" lon="4.32704">
        <ele>248.2</ele>
        <time>2024-03-17T10:48:36Z</time>
      </trkpt>
      <trkpt lat="50.032" lon="4.32703">
        <ele>248.4</ele>
        <time>2024-03-17T10:48:37Z</time>
      </trkpt>
      <trkpt lat="50.03196" lon="4.32702">
        <ele>248.4</ele>
        <time>2024-03-17T10:48:38Z</time>
      </trkpt>
      <trkpt lat="50.03192" lon="4.32701">
        <ele>248.6</ele>
        <time>2024-03-17T10:48:39Z</time>
      </trkpt>
      <trkpt lat="50.03188" lon="4.327">
        <ele>248.6</ele>
        <time>2024-03-17T10:48:40Z</time>
      </trkpt>
      <trkpt lat="50.03184" lon="4.32698">
        <ele>248.8</ele>
        <time>2024-03-17T10:48:41Z</time>
      </trkpt>
      <trkpt lat="50.03181" lon="4.32697">
        <ele>248.8</ele>
        <time>2024-03-17T10:48:42Z</time>
      </trkpt>
      <trkpt lat="50.03177" lon="4.32696">
        <ele>248.8</ele>
        <time>2024-03-17T10:48:43Z</time>
      </trkpt>
      <trkpt lat="50.03173" lon="4.32695">
        <ele>248.8</ele>
        <time>2024-03-17T10:48:44Z</time>
      </trkpt>
      <trkpt lat="50.03169" lon="4.32694">
        <ele>248.8</ele>
        <time>2024-03-17T10:48:45Z</time>
      </trkpt>
      <trkpt lat="50.03165" lon="4.32692">
        <ele>248.8</ele>
        <time>2024-03-17T10:48:46Z</time>
      </trkpt>
      <trkpt lat="50.03161" lon="4.32691">
        <ele>248.8</ele>
        <time>2024-03-17T10:48:47Z</time>
      </trkpt>
      <trkpt lat="50.03157" lon="4.3269">
        <ele>248.6</ele>
        <time>2024-03-17T10:48:48Z</time>
      </trkpt>
      <trkpt lat="50.03153" lon="4.32689">
        <ele>248.8</ele>
        <time>2024-03-17T10:48:49Z</time>
      </trkpt>
      <trkpt lat="50.03149" lon="4.32688">
        <ele>248.8</ele>
        <time>2024-03-17T10:48:50Z</time>
      </trkpt>
      <trkpt lat="50.03145" lon="4.32687">
        <ele>248.8</ele>
        <time>2024-03-17T10:48:51Z</time>
      </trkpt>
      <trkpt lat="50.03141" lon="4.32685">
        <ele>248.8</ele>
        <time>2024-03-17T10:48:52Z</time>
      </trkpt>
      <trkpt lat="50.03137" lon="4.32684">
        <ele>248.6</ele>
        <time>2024-03-17T10:48:53Z</time>
      </trkpt>
      <trkpt lat="50.03133" lon="4.32683">
        <ele>249</ele>
        <time>2024-03-17T10:48:54Z</time>
      </trkpt>
      <trkpt lat="50.03129" lon="4.32682">
        <ele>249</ele>
        <time>2024-03-17T10:48:55Z</time>
      </trkpt>
      <trkpt lat="50.03125" lon="4.32681">
        <ele>249</ele>
        <time>2024-03-17T10:48:56Z</time>
      </trkpt>
      <trkpt lat="50.03121" lon="4.3268">
        <ele>249</ele>
        <time>2024-03-17T10:48:57Z</time>
      </trkpt>
      <trkpt lat="50.03117" lon="4.32678">
        <ele>249</ele>
        <time>2024-03-17T10:48:58Z</time>
      </trkpt>
      <trkpt lat="50.03113" lon="4.32677">
        <ele>249</ele>
        <time>2024-03-17T10:48:59Z</time>
      </trkpt>
      <trkpt lat="50.03109" lon="4.32675">
        <ele>248.8</ele>
        <time>2024-03-17T10:49:00Z</time>
      </trkpt>
      <trkpt lat="50.03104" lon="4.32674">
        <ele>249</ele>
        <time>2024-03-17T10:49:01Z</time>
      </trkpt>
      <trkpt lat="50.031" lon="4.32673">
        <ele>249</ele>
        <time>2024-03-17T10:49:02Z</time>
      </trkpt>
      <trkpt lat="50.03095" lon="4.32672">
        <ele>248.8</ele>
        <time>2024-03-17T10:49:03Z</time>
      </trkpt>
      <trkpt lat="50.03091" lon="4.3267">
        <ele>249</ele>
        <time>2024-03-17T10:49:04Z</time>
      </trkpt>
      <trkpt lat="50.03086" lon="4.32669">
        <ele>249</ele>
        <time>2024-03-17T10:49:05Z</time>
      </trkpt>
      <trkpt lat="50.03082" lon="4.32667">
        <ele>249</ele>
        <time>2024-03-17T10:49:06Z</time>
      </trkpt>
      <trkpt lat="50.03077" lon="4.32665">
        <ele>249.2</ele>
        <time>2024-03-17T10:49:07Z</time>
      </trkpt>
      <trkpt lat="50.03073" lon="4.32662">
        <ele>249</ele>
        <time>2024-03-17T10:49:08Z</time>
      </trkpt>
      <trkpt lat="50.03068" lon="4.32659">
        <ele>249.2</ele>
        <time>2024-03-17T10:49:09Z</time>
      </trkpt>
      <trkpt lat="50.03064" lon="4.32656">
        <ele>249.2</ele>
        <time>2024-03-17T10:49:10Z</time>
      </trkpt>
      <trkpt lat="50.03059" lon="4.32652">
        <ele>249</ele>
        <time>2024-03-17T10:49:11Z</time>
      </trkpt>
      <trkpt lat="50.03055" lon="4.32648">
        <ele>249</ele>
        <time>2024-03-17T10:49:12Z</time>
      </trkpt>
      <trkpt lat="50.03051" lon="4.32643">
        <ele>249.2</ele>
        <time>2024-03-17T10:49:13Z</time>
      </trkpt>
      <trkpt lat="50.03047" lon="4.32638">
        <ele>249</ele>
        <time>2024-03-17T10:49:14Z</time>
      </trkpt>
      <trkpt lat="50.03043" lon="4.32632">
        <ele>249</ele>
        <time>2024-03-17T10:49:15Z</time>
      </trkpt>
      <trkpt lat="50.03039" lon="4.32626">
        <ele>249</ele>
        <time>2024-03-17T10:49:16Z</time>
      </trkpt>
      <trkpt lat="50.03035" lon="4.3262">
        <ele>248.8</ele>
        <time>2024-03-17T10:49:17Z</time>
      </trkpt>
      <trkpt lat="50.03031" lon="4.32614">
        <ele>248.8</ele>
        <time>2024-03-17T10:49:18Z</time>
      </trkpt>
      <trkpt lat="50.03027" lon="4.32607">
        <ele>248.8</ele>
        <time>2024-03-17T10:49:19Z</time>
      </trkpt>
      <trkpt lat="50.03022" lon="4.32601">
        <ele>248.4</ele>
        <time>2024-03-17T10:49:20Z</time>
      </trkpt>
      <trkpt lat="50.03018" lon="4.32595">
        <ele>247.6</ele>
        <time>2024-03-17T10:49:21Z</time>
      </trkpt>
      <trkpt lat="50.03014" lon="4.32589">
        <ele>247.6</ele>
        <time>2024-03-17T10:49:22Z</time>
      </trkpt>
      <trkpt lat="50.0301" lon="4.32583">
        <ele>247.2</ele>
        <time>2024-03-17T10:49:23Z</time>
      </trkpt>
      <trkpt lat="50.03005" lon="4.32578">
        <ele>247.2</ele>
        <time>2024-03-17T10:49:24Z</time>
      </trkpt>
      <trkpt lat="50.03" lon="4.32573">
        <ele>247</ele>
        <time>2024-03-17T10:49:25Z</time>
      </trkpt>
      <trkpt lat="50.02995" lon="4.32569">
        <ele>246.6</ele>
        <time>2024-03-17T10:49:26Z</time>
      </trkpt>
      <trkpt lat="50.02991" lon="4.32565">
        <ele>246.6</ele>
        <time>2024-03-17T10:49:27Z</time>
      </trkpt>
      <trkpt lat="50.02986" lon="4.32562">
        <ele>246.4</ele>
        <time>2024-03-17T10:49:28Z</time>
      </trkpt>
      <trkpt lat="50.02981" lon="4.32559">
        <ele>246</ele>
        <time>2024-03-17T10:49:29Z</time>
      </trkpt>
      <trkpt lat="50.02976" lon="4.32556">
        <ele>246</ele>
        <time>2024-03-17T10:49:30Z</time>
      </trkpt>
      <trkpt lat="50.02971" lon="4.32554">
        <ele>246</ele>
        <time>2024-03-17T10:49:31Z</time>
      </trkpt>
      <trkpt lat="50.02967" lon="4.32551">
        <ele>246</ele>
        <time>2024-03-17T10:49:32Z</time>
      </trkpt>
      <trkpt lat="50.02962" lon="4.32548">
        <ele>245.8</ele>
        <time>2024-03-17T10:49:33Z</time>
      </trkpt>
      <trkpt lat="50.02957" lon="4.32545">
        <ele>246</ele>
        <time>2024-03-17T10:49:34Z</time>
      </trkpt>
      <trkpt lat="50.02952" lon="4.32542">
        <ele>245.8</ele>
        <time>2024-03-17T10:49:35Z</time>
      </trkpt>
      <trkpt lat="50.02947" lon="4.32539">
        <ele>245.8</ele>
        <time>2024-03-17T10:49:36Z</time>
      </trkpt>
      <trkpt lat="50.02942" lon="4.32536">
        <ele>245.8</ele>
        <time>2024-03-17T10:49:37Z</time>
      </trkpt>
      <trkpt lat="50.02937" lon="4.32533">
        <ele>245.8</ele>
        <time>2024-03-17T10:49:38Z</time>
      </trkpt>
      <trkpt lat="50.02932" lon="4.3253">
        <ele>245.6</ele>
        <time>2024-03-17T10:49:39Z</time>
      </trkpt>
      <trkpt lat="50.02927" lon="4.32528">
        <ele>245.6</ele>
        <time>2024-03-17T10:49:40Z</time>
      </trkpt>
      <trkpt lat="50.02923" lon="4.32525">
        <ele>245.6</ele>
        <time>2024-03-17T10:49:41Z</time>
      </trkpt>
      <trkpt lat="50.02918" lon="4.32522">
        <ele>245.6</ele>
        <time>2024-03-17T10:49:42Z</time>
      </trkpt>
      <trkpt lat="50.02913" lon="4.3252">
        <ele>245.6</ele>
        <time>2024-03-17T10:49:43Z</time>
      </trkpt>
      <trkpt lat="50.02908" lon="4.32517">
        <ele>245.6</ele>
        <time>2024-03-17T10:49:44Z</time>
      </trkpt>
      <trkpt lat="50.02904" lon="4.32514">
        <ele>245.6</ele>
        <time>2024-03-17T10:49:45Z</time>
      </trkpt>
      <trkpt lat="50.02899" lon="4.32512">
        <ele>245.6</ele>
        <time>2024-03-17T10:49:46Z</time>
      </trkpt>
      <trkpt lat="50.02894" lon="4.32509">
        <ele>245.6</ele>
        <time>2024-03-17T10:49:47Z</time>
      </trkpt>
      <trkpt lat="50.0289" lon="4.32506">
        <ele>245.8</ele>
        <time>2024-03-17T10:49:48Z</time>
      </trkpt>
      <trkpt lat="50.02885" lon="4.32503">
        <ele>245.8</ele>
        <time>2024-03-17T10:49:49Z</time>
      </trkpt>
      <trkpt lat="50.02881" lon="4.32501">
        <ele>245.8</ele>
        <time>2024-03-17T10:49:50Z</time>
      </trkpt>
      <trkpt lat="50.02876" lon="4.32499">
        <ele>245.8</ele>
        <time>2024-03-17T10:49:51Z</time>
      </trkpt>
      <trkpt lat="50.02872" lon="4.32496">
        <ele>246</ele>
        <time>2024-03-17T10:49:52Z</time>
      </trkpt>
      <trkpt lat="50.02867" lon="4.32494">
        <ele>246.2</ele>
        <time>2024-03-17T10:49:53Z</time>
      </trkpt>
      <trkpt lat="50.02863" lon="4.32492">
        <ele>246.4</ele>
        <time>2024-03-17T10:49:54Z</time>
      </trkpt>
      <trkpt lat="50.02859" lon="4.32491">
        <ele>246.6</ele>
        <time>2024-03-17T10:49:55Z</time>
      </trkpt>
      <trkpt lat="50.02854" lon="4.32489">
        <ele>246.8</ele>
        <time>2024-03-17T10:49:56Z</time>
      </trkpt>
      <trkpt lat="50.0285" lon="4.32488">
        <ele>246.8</ele>
        <time>2024-03-17T10:49:57Z</time>
      </trkpt>
      <trkpt lat="50.02846" lon="4.32487">
        <ele>247</ele>
        <time>2024-03-17T10:49:58Z</time>
      </trkpt>
      <trkpt lat="50.02842" lon="4.32486">
        <ele>247.2</ele>
        <time>2024-03-17T10:49:59Z</time>
      </trkpt>
      <trkpt lat="50.02838" lon="4.32485">
        <ele>247.2</ele>
        <time>2024-03-17T10:50:00Z</time>
      </trkpt>
      <trkpt lat="50.02834" lon="4.32484">
        <ele>247.4</ele>
        <time>2024-03-17T10:50:01Z</time>
      </trkpt>
      <trkpt lat="50.0283" lon="4.32484">
        <ele>247.6</ele>
        <time>2024-03-17T10:50:02Z</time>
      </trkpt>
      <trkpt lat="50.02826" lon="4.32483">
        <ele>247.6</ele>
        <time>2024-03-17T10:50:03Z</time>
      </trkpt>
      <trkpt lat="50.02822" lon="4.32482">
        <ele>247.6</ele>
        <time>2024-03-17T10:50:04Z</time>
      </trkpt>
      <trkpt lat="50.02818" lon="4.32481">
        <ele>247.6</ele>
        <time>2024-03-17T10:50:05Z</time>
      </trkpt>
      <trkpt lat="50.02815" lon="4.3248">
        <ele>247.8</ele>
        <time>2024-03-17T10:50:06Z</time>
      </trkpt>
      <trkpt lat="50.02811" lon="4.3248">
        <ele>248</ele>
        <time>2024-03-17T10:50:07Z</time>
      </trkpt>
      <trkpt lat="50.02807" lon="4.32479">
        <ele>248</ele>
        <time>2024-03-17T10:50:08Z</time>
      </trkpt>
      <trkpt lat="50.02804" lon="4.32478">
        <ele>248.2</ele>
        <time>2024-03-17T10:50:09Z</time>
      </trkpt>
      <trkpt lat="50.028" lon="4.32477">
        <ele>248.2</ele>
        <time>2024-03-17T10:50:10Z</time>
      </trkpt>
      <trkpt lat="50.02797" lon="4.32477">
        <ele>248.2</ele>
        <time>2024-03-17T10:50:11Z</time>
      </trkpt>
      <trkpt lat="50.02793" lon="4.32477">
        <ele>248.4</ele>
        <time>2024-03-17T10:50:12Z</time>
      </trkpt>
      <trkpt lat="50.0279" lon="4.32475">
        <ele>248.4</ele>
        <time>2024-03-17T10:50:13Z</time>
      </trkpt>
      <trkpt lat="50.02788" lon="4.32471">
        <ele>248.4</ele>
        <time>2024-03-17T10:50:14Z</time>
      </trkpt>
      <trkpt lat="50.02786" lon="4.32465">
        <ele>248.6</ele>
        <time>2024-03-17T10:50:15Z</time>
      </trkpt>
      <trkpt lat="50.02786" lon="4.32459">
        <ele>248.6</ele>
        <time>2024-03-17T10:50:16Z</time>
      </trkpt>
      <trkpt lat="50.02787" lon="4.32452">
        <ele>248.6</ele>
        <time>2024-03-17T10:50:17Z</time>
      </trkpt>
      <trkpt lat="50.02787" lon="4.32445">
        <ele>248.6</ele>
        <time>2024-03-17T10:50:18Z</time>
      </trkpt>
      <trkpt lat="50.02788" lon="4.32438">
        <ele>249.2</ele>
        <time>2024-03-17T10:50:19Z</time>
      </trkpt>
      <trkpt lat="50.02789" lon="4.3243">
        <ele>249.6</ele>
        <time>2024-03-17T10:50:20Z</time>
      </trkpt>
      <trkpt lat="50.0279" lon="4.32423">
        <ele>249.8</ele>
        <time>2024-03-17T10:50:21Z</time>
      </trkpt>
      <trkpt lat="50.02791" lon="4.32415">
        <ele>250</ele>
        <time>2024-03-17T10:50:22Z</time>
      </trkpt>
      <trkpt lat="50.02792" lon="4.32408">
        <ele>250.2</ele>
        <time>2024-03-17T10:50:23Z</time>
      </trkpt>
      <trkpt lat="50.02793" lon="4.324">
        <ele>250.6</ele>
        <time>2024-03-17T10:50:24Z</time>
      </trkpt>
      <trkpt lat="50.02793" lon="4.32393">
        <ele>250.8</ele>
        <time>2024-03-17T10:50:25Z</time>
      </trkpt>
      <trkpt lat="50.02794" lon="4.32385">
        <ele>250.8</ele>
        <time>2024-03-17T10:50:26Z</time>
      </trkpt>
      <trkpt lat="50.02795" lon="4.32377">
        <ele>250.8</ele>
        <time>2024-03-17T10:50:27Z</time>
      </trkpt>
      <trkpt lat="50.02796" lon="4.32369">
        <ele>250.8</ele>
        <time>2024-03-17T10:50:28Z</time>
      </trkpt>
      <trkpt lat="50.02797" lon="4.32362">
        <ele>251</ele>
        <time>2024-03-17T10:50:29Z</time>
      </trkpt>
      <trkpt lat="50.02797" lon="4.32354">
        <ele>251</ele>
        <time>2024-03-17T10:50:30Z</time>
      </trkpt>
      <trkpt lat="50.02798" lon="4.32346">
        <ele>251</ele>
        <time>2024-03-17T10:50:31Z</time>
      </trkpt>
      <trkpt lat="50.02799" lon="4.32339">
        <ele>251</ele>
        <time>2024-03-17T10:50:32Z</time>
      </trkpt>
      <trkpt lat="50.02799" lon="4.32331">
        <ele>251</ele>
        <time>2024-03-17T10:50:33Z</time>
      </trkpt>
      <trkpt lat="50.02799" lon="4.32324">
        <ele>250.8</ele>
        <time>2024-03-17T10:50:34Z</time>
      </trkpt>
      <trkpt lat="50.02799" lon="4.32316">
        <ele>251</ele>
        <time>2024-03-17T10:50:35Z</time>
      </trkpt>
      <trkpt lat="50.02799" lon="4.32309">
        <ele>251</ele>
        <time>2024-03-17T10:50:36Z</time>
      </trkpt>
      <trkpt lat="50.02799" lon="4.32301">
        <ele>250.8</ele>
        <time>2024-03-17T10:50:37Z</time>
      </trkpt>
      <trkpt lat="50.02799" lon="4.32294">
        <ele>250.8</ele>
        <time>2024-03-17T10:50:38Z</time>
      </trkpt>
      <trkpt lat="50.02799" lon="4.32287">
        <ele>250.8</ele>
        <time>2024-03-17T10:50:39Z</time>
      </trkpt>
      <trkpt lat="50.02799" lon="4.3228">
        <ele>250.8</ele>
        <time>2024-03-17T10:50:40Z</time>
      </trkpt>
      <trkpt lat="50.02798" lon="4.32273">
        <ele>250.6</ele>
        <time>2024-03-17T10:50:41Z</time>
      </trkpt>
      <trkpt lat="50.02798" lon="4.32267">
        <ele>250.8</ele>
        <time>2024-03-17T10:50:42Z</time>
      </trkpt>
      <trkpt lat="50.02797" lon="4.32261">
        <ele>250.6</ele>
        <time>2024-03-17T10:50:43Z</time>
      </trkpt>
      <trkpt lat="50.02797" lon="4.32254">
        <ele>250.6</ele>
        <time>2024-03-17T10:50:44Z</time>
      </trkpt>
      <trkpt lat="50.02797" lon="4.32248">
        <ele>250.6</ele>
        <time>2024-03-17T10:50:45Z</time>
      </trkpt>
      <trkpt lat="50.02797" lon="4.32242">
        <ele>250.8</ele>
        <time>2024-03-17T10:50:46Z</time>
      </trkpt>
      <trkpt lat="50.02797" lon="4.32236">
        <ele>250.6</ele>
        <time>2024-03-17T10:50:47Z</time>
      </trkpt>
      <trkpt lat="50.02797" lon="4.3223">
        <ele>250.8</ele>
        <time>2024-03-17T10:50:48Z</time>
      </trkpt>
      <trkpt lat="50.02796" lon="4.32225">
        <ele>250.8</ele>
        <time>2024-03-17T10:50:49Z</time>
      </trkpt>
      <trkpt lat="50.02796" lon="4.32219">
        <ele>250.8</ele>
        <time>2024-03-17T10:50:50Z</time>
      </trkpt>
      <trkpt lat="50.02796" lon="4.32213">
        <ele>250.8</ele>
        <time>2024-03-17T10:50:51Z</time>
      </trkpt>
      <trkpt lat="50.02796" lon="4.32208">
        <ele>251.2</ele>
        <time>2024-03-17T10:50:52Z</time>
      </trkpt>
      <trkpt lat="50.02796" lon="4.32202">
        <ele>252</ele>
        <time>2024-03-17T10:50:53Z</time>
      </trkpt>
      <trkpt lat="50.02796" lon="4.32197">
        <ele>252.2</ele>
        <time>2024-03-17T10:50:54Z</time>
      </trkpt>
      <trkpt lat="50.02795" lon="4.32191">
        <ele>252.4</ele>
        <time>2024-03-17T10:50:55Z</time>
      </trkpt>
      <trkpt lat="50.02795" lon="4.32186">
        <ele>252.6</ele>
        <time>2024-03-17T10:50:56Z</time>
      </trkpt>
      <trkpt lat="50.02795" lon="4.3218">
        <ele>252.8</ele>
        <time>2024-03-17T10:50:57Z</time>
      </trkpt>
      <trkpt lat="50.02795" lon="4.32175">
        <ele>253</ele>
        <time>2024-03-17T10:50:58Z</time>
      </trkpt>
      <trkpt lat="50.02795" lon="4.3217">
        <ele>253.2</ele>
        <time>2024-03-17T10:50:59Z</time>
      </trkpt>
      <trkpt lat="50.02795" lon="4.32165">
        <ele>253.2</ele>
        <time>2024-03-17T10:51:00Z</time>
      </trkpt>
      <trkpt lat="50.02795" lon="4.32159">
        <ele>253.6</ele>
        <time>2024-03-17T10:51:01Z</time>
      </trkpt>
      <trkpt lat="50.02795" lon="4.32154">
        <ele>253.6</ele>
        <time>2024-03-17T10:51:02Z</time>
      </trkpt>
      <trkpt lat="50.02795" lon="4.32148">
        <ele>253.8</ele>
        <time>2024-03-17T10:51:03Z</time>
      </trkpt>
      <trkpt lat="50.02795" lon="4.32143">
        <ele>253.8</ele>
        <time>2024-03-17T10:51:04Z</time>
      </trkpt>
      <trkpt lat="50.02795" lon="4.32138">
        <ele>253.8</ele>
        <time>2024-03-17T10:51:05Z</time>
      </trkpt>
      <trkpt lat="50.02794" lon="4.32133">
        <ele>254.2</ele>
        <time>2024-03-17T10:51:06Z</time>
      </trkpt>
      <trkpt lat="50.02794" lon="4.32127">
        <ele>254.4</ele>
        <time>2024-03-17T10:51:07Z</time>
      </trkpt>
      <trkpt lat="50.02794" lon="4.32122">
        <ele>254.6</ele>
        <time>2024-03-17T10:51:08Z</time>
      </trkpt>
      <trkpt lat="50.02794" lon="4.32117">
        <ele>254.6</ele>
        <time>2024-03-17T10:51:09Z</time>
      </trkpt>
      <trkpt lat="50.02794" lon="4.32112">
        <ele>254.8</ele>
        <time>2024-03-17T10:51:10Z</time>
      </trkpt>
      <trkpt lat="50.02793" lon="4.32107">
        <ele>255</ele>
        <time>2024-03-17T10:51:11Z</time>
      </trkpt>
      <trkpt lat="50.02793" lon="4.32101">
        <ele>255.2</ele>
        <time>2024-03-17T10:51:12Z</time>
      </trkpt>
      <trkpt lat="50.02792" lon="4.32096">
        <ele>255.4</ele>
        <time>2024-03-17T10:51:13Z</time>
      </trkpt>
      <trkpt lat="50.02792" lon="4.32091">
        <ele>255.6</ele>
        <time>2024-03-17T10:51:14Z</time>
      </trkpt>
      <trkpt lat="50.02792" lon="4.32086">
        <ele>255.8</ele>
        <time>2024-03-17T10:51:15Z</time>
      </trkpt>
      <trkpt lat="50.02791" lon="4.32081">
        <ele>256</ele>
        <time>2024-03-17T10:51:16Z</time>
      </trkpt>
      <trkpt lat="50.02791" lon="4.32076">
        <ele>256.2</ele>
        <time>2024-03-17T10:51:17Z</time>
      </trkpt>
      <trkpt lat="50.0279" lon="4.32071">
        <ele>256.4</ele>
        <time>2024-03-17T10:51:18Z</time>
      </trkpt>
      <trkpt lat="50.0279" lon="4.32066">
        <ele>256.6</ele>
        <time>2024-03-17T10:51:19Z</time>
      </trkpt>
      <trkpt lat="50.02789" lon="4.32061">
        <ele>256.8</ele>
        <time>2024-03-17T10:51:20Z</time>
      </trkpt>
      <trkpt lat="50.02789" lon="4.32056">
        <ele>257.2</ele>
        <time>2024-03-17T10:51:21Z</time>
      </trkpt>
      <trkpt lat="50.02788" lon="4.32051">
        <ele>257.2</ele>
        <time>2024-03-17T10:51:22Z</time>
      </trkpt>
      <trkpt lat="50.02788" lon="4.32046">
        <ele>257.4</ele>
        <time>2024-03-17T10:51:23Z</time>
      </trkpt>
      <trkpt lat="50.02787" lon="4.32041">
        <ele>257.8</ele>
        <time>2024-03-17T10:51:24Z</time>
      </trkpt>
      <trkpt lat="50.02786" lon="4.32037">
        <ele>258</ele>
        <time>2024-03-17T10:51:25Z</time>
      </trkpt>
      <trkpt lat="50.02786" lon="4.32032">
        <ele>258</ele>
        <time>2024-03-17T10:51:26Z</time>
      </trkpt>
      <trkpt lat="50.02785" lon="4.32027">
        <ele>258</ele>
        <time>2024-03-17T10:51:27Z</time>
      </trkpt>
      <trkpt lat="50.02784" lon="4.32022">
        <ele>258.2</ele>
        <time>2024-03-17T10:51:28Z</time>
      </trkpt>
      <trkpt lat="50.02783" lon="4.32017">
        <ele>258.4</ele>
        <time>2024-03-17T10:51:29Z</time>
      </trkpt>
      <trkpt lat="50.02782" lon="4.32013">
        <ele>258.4</ele>
        <time>2024-03-17T10:51:30Z</time>
      </trkpt>
      <trkpt lat="50.02782" lon="4.32008">
        <ele>258.6</ele>
        <time>2024-03-17T10:51:31Z</time>
      </trkpt>
      <trkpt lat="50.02781" lon="4.32003">
        <ele>258.8</ele>
        <time>2024-03-17T10:51:32Z</time>
      </trkpt>
      <trkpt lat="50.0278" lon="4.31999">
        <ele>258.8</ele>
        <time>2024-03-17T10:51:33Z</time>
      </trkpt>
      <trkpt lat="50.02779" lon="4.31995">
        <ele>259</ele>
        <time>2024-03-17T10:51:34Z</time>
      </trkpt>
      <trkpt lat="50.02778" lon="4.3199">
        <ele>259</ele>
        <time>2024-03-17T10:51:35Z</time>
      </trkpt>
      <trkpt lat="50.02777" lon="4.31986">
        <ele>259.4</ele>
        <time>2024-03-17T10:51:36Z</time>
      </trkpt>
      <trkpt lat="50.02776" lon="4.31982">
        <ele>259.4</ele>
        <time>2024-03-17T10:51:37Z</time>
      </trkpt>
      <trkpt lat="50.02775" lon="4.31978">
        <ele>259.6</ele>
        <time>2024-03-17T10:51:38Z</time>
      </trkpt>
      <trkpt lat="50.02774" lon="4.31974">
        <ele>259.8</ele>
        <time>2024-03-17T10:51:39Z</time>
      </trkpt>
      <trkpt lat="50.02773" lon="4.31971">
        <ele>260</ele>
        <time>2024-03-17T10:51:40Z</time>
      </trkpt>
      <trkpt lat="50.02771" lon="4.31968">
        <ele>260</ele>
        <time>2024-03-17T10:51:41Z</time>
      </trkpt>
      <trkpt lat="50.02769" lon="4.31965">
        <ele>260</ele>
        <time>2024-03-17T10:51:42Z</time>
      </trkpt>
      <trkpt lat="50.02767" lon="4.31963">
        <ele>260.2</ele>
        <time>2024-03-17T10:51:43Z</time>
      </trkpt>
      <trkpt lat="50.02764" lon="4.31962">
        <ele>260.2</ele>
        <time>2024-03-17T10:51:44Z</time>
      </trkpt>
      <trkpt lat="50.02761" lon="4.31961">
        <ele>260.2</ele>
        <time>2024-03-17T10:51:45Z</time>
      </trkpt>
      <trkpt lat="50.02759" lon="4.3196">
        <ele>260.2</ele>
        <time>2024-03-17T10:51:46Z</time>
      </trkpt>
      <trkpt lat="50.02756" lon="4.31959">
        <ele>260.2</ele>
        <time>2024-03-17T10:51:47Z</time>
      </trkpt>
      <trkpt lat="50.02753" lon="4.31957">
        <ele>260.4</ele>
        <time>2024-03-17T10:51:48Z</time>
      </trkpt>
      <trkpt lat="50.02749" lon="4.31956">
        <ele>260.4</ele>
        <time>2024-03-17T10:51:49Z</time>
      </trkpt>
      <trkpt lat="50.02746" lon="4.31955">
        <ele>260.4</ele>
        <time>2024-03-17T10:51:50Z</time>
      </trkpt>
      <trkpt lat="50.02743" lon="4.31955">
        <ele>260.6</ele>
        <time>2024-03-17T10:51:51Z</time>
      </trkpt>
      <trkpt lat="50.0274" lon="4.31955">
        <ele>260.6</ele>
        <time>2024-03-17T10:51:52Z</time>
      </trkpt>
      <trkpt lat="50.02737" lon="4.31955">
        <ele>260.8</ele>
        <time>2024-03-17T10:51:53Z</time>
      </trkpt>
      <trkpt lat="50.02734" lon="4.31956">
        <ele>260.6</ele>
        <time>2024-03-17T10:51:54Z</time>
      </trkpt>
      <trkpt lat="50.0273" lon="4.31956">
        <ele>260.8</ele>
        <time>2024-03-17T10:51:55Z</time>
      </trkpt>
      <trkpt lat="50.02727" lon="4.31956">
        <ele>260.8</ele>
        <time>2024-03-17T10:51:56Z</time>
      </trkpt>
      <trkpt lat="50.02724" lon="4.31956">
        <ele>261</ele>
        <time>2024-03-17T10:51:57Z</time>
      </trkpt>
      <trkpt lat="50.0272" lon="4.31956">
        <ele>261</ele>
        <time>2024-03-17T10:51:58Z</time>
      </trkpt>
      <trkpt lat="50.02717" lon="4.31955">
        <ele>261</ele>
        <time>2024-03-17T10:51:59Z</time>
      </trkpt>
      <trkpt lat="50.02713" lon="4.31955">
        <ele>261</ele>
        <time>2024-03-17T10:52:00Z</time>
      </trkpt>
      <trkpt lat="50.0271" lon="4.31955">
        <ele>261</ele>
        <time>2024-03-17T10:52:01Z</time>
      </trkpt>
      <trkpt lat="50.02706" lon="4.31954">
        <ele>261</ele>
        <time>2024-03-17T10:52:02Z</time>
      </trkpt>
      <trkpt lat="50.02702" lon="4.31954">
        <ele>261</ele>
        <time>2024-03-17T10:52:03Z</time>
      </trkpt>
      <trkpt lat="50.02698" lon="4.31953">
        <ele>261</ele>
        <time>2024-03-17T10:52:04Z</time>
      </trkpt>
      <trkpt lat="50.02695" lon="4.31953">
        <ele>261.2</ele>
        <time>2024-03-17T10:52:05Z</time>
      </trkpt>
      <trkpt lat="50.02691" lon="4.31952">
        <ele>261.2</ele>
        <time>2024-03-17T10:52:06Z</time>
      </trkpt>
      <trkpt lat="50.02687" lon="4.31951">
        <ele>261.4</ele>
        <time>2024-03-17T10:52:07Z</time>
      </trkpt>
      <trkpt lat="50.02683" lon="4.3195">
        <ele>261.4</ele>
        <time>2024-03-17T10:52:08Z</time>
      </trkpt>
      <trkpt lat="50.02679" lon="4.3195">
        <ele>261.4</ele>
        <time>2024-03-17T10:52:09Z</time>
      </trkpt>
      <trkpt lat="50.02676" lon="4.31949">
        <ele>261.6</ele>
        <time>2024-03-17T10:52:10Z</time>
      </trkpt>
      <trkpt lat="50.02672" lon="4.31948">
        <ele>261.6</ele>
        <time>2024-03-17T10:52:11Z</time>
      </trkpt>
      <trkpt lat="50.02668" lon="4.31947">
        <ele>261.6</ele>
        <time>2024-03-17T10:52:12Z</time>
      </trkpt>
      <trkpt lat="50.02664" lon="4.31946">
        <ele>261.6</ele>
        <time>2024-03-17T10:52:13Z</time>
      </trkpt>
      <trkpt lat="50.0266" lon="4.31945">
        <ele>261.4</ele>
        <time>2024-03-17T10:52:14Z</time>
      </trkpt>
      <trkpt lat="50.02656" lon="4.31944">
        <ele>261.4</ele>
        <time>2024-03-17T10:52:15Z</time>
      </trkpt>
      <trkpt lat="50.02651" lon="4.31943">
        <ele>261.4</ele>
        <time>2024-03-17T10:52:16Z</time>
      </trkpt>
      <trkpt lat="50.02647" lon="4.31942">
        <ele>261.4</ele>
        <time>2024-03-17T10:52:17Z</time>
      </trkpt>
      <trkpt lat="50.02643" lon="4.31941">
        <ele>261.4</ele>
        <time>2024-03-17T10:52:18Z</time>
      </trkpt>
      <trkpt lat="50.02639" lon="4.3194">
        <ele>261.4</ele>
        <time>2024-03-17T10:52:19Z</time>
      </trkpt>
      <trkpt lat="50.02635" lon="4.31939">
        <ele>261.6</ele>
        <time>2024-03-17T10:52:20Z</time>
      </trkpt>
      <trkpt lat="50.02632" lon="4.31938">
        <ele>261.6</ele>
        <time>2024-03-17T10:52:21Z</time>
      </trkpt>
      <trkpt lat="50.02628" lon="4.31938">
        <ele>261.6</ele>
        <time>2024-03-17T10:52:22Z</time>
      </trkpt>
      <trkpt lat="50.02623" lon="4.31937">
        <ele>261.8</ele>
        <time>2024-03-17T10:52:23Z</time>
      </trkpt>
      <trkpt lat="50.02619" lon="4.31937">
        <ele>261.8</ele>
        <time>2024-03-17T10:52:24Z</time>
      </trkpt>
      <trkpt lat="50.02615" lon="4.31937">
        <ele>261.8</ele>
        <time>2024-03-17T10:52:25Z</time>
      </trkpt>
      <trkpt lat="50.0261" lon="4.31937">
        <ele>261.8</ele>
        <time>2024-03-17T10:52:26Z</time>
      </trkpt>
      <trkpt lat="50.02606" lon="4.31938">
        <ele>261.6</ele>
        <time>2024-03-17T10:52:27Z</time>
      </trkpt>
      <trkpt lat="50.02601" lon="4.31939">
        <ele>261.6</ele>
        <time>2024-03-17T10:52:28Z</time>
      </trkpt>
      <trkpt lat="50.02596" lon="4.31941">
        <ele>261.6</ele>
        <time>2024-03-17T10:52:29Z</time>
      </trkpt>
      <trkpt lat="50.02591" lon="4.31944">
        <ele>261.6</ele>
        <time>2024-03-17T10:52:30Z</time>
      </trkpt>
      <trkpt lat="50.02586" lon="4.31948">
        <ele>261.6</ele>
        <time>2024-03-17T10:52:31Z</time>
      </trkpt>
      <trkpt lat="50.02581" lon="4.31952">
        <ele>261.6</ele>
        <time>2024-03-17T10:52:32Z</time>
      </trkpt>
      <trkpt lat="50.02576" lon="4.31957">
        <ele>261.6</ele>
        <time>2024-03-17T10:52:33Z</time>
      </trkpt>
      <trkpt lat="50.02571" lon="4.31962">
        <ele>261.6</ele>
        <time>2024-03-17T10:52:34Z</time>
      </trkpt>
      <trkpt lat="50.02566" lon="4.31968">
        <ele>261</ele>
        <time>2024-03-17T10:52:35Z</time>
      </trkpt>
      <trkpt lat="50.02561" lon="4.31974">
        <ele>260.6</ele>
        <time>2024-03-17T10:52:36Z</time>
      </trkpt>
      <trkpt lat="50.02555" lon="4.3198">
        <ele>260.2</ele>
        <time>2024-03-17T10:52:37Z</time>
      </trkpt>
      <trkpt lat="50.0255" lon="4.31985">
        <ele>260.2</ele>
        <time>2024-03-17T10:52:38Z</time>
      </trkpt>
      <trkpt lat="50.02544" lon="4.31991">
        <ele>259.6</ele>
        <time>2024-03-17T10:52:39Z</time>
      </trkpt>
      <trkpt lat="50.02537" lon="4.31997">
        <ele>259.4</ele>
        <time>2024-03-17T10:52:40Z</time>
      </trkpt>
      <trkpt lat="50.02532" lon="4.32004">
        <ele>259.4</ele>
        <time>2024-03-17T10:52:41Z</time>
      </trkpt>
      <trkpt lat="50.02526" lon="4.3201">
        <ele>259</ele>
        <time>2024-03-17T10:52:42Z</time>
      </trkpt>
      <trkpt lat="50.0252" lon="4.32015">
        <ele>258.8</ele>
        <time>2024-03-17T10:52:43Z</time>
      </trkpt>
      <trkpt lat="50.02514" lon="4.32021">
        <ele>258.6</ele>
        <time>2024-03-17T10:52:44Z</time>
      </trkpt>
      <trkpt lat="50.02508" lon="4.32026">
        <ele>258.4</ele>
        <time>2024-03-17T10:52:45Z</time>
      </trkpt>
      <trkpt lat="50.02503" lon="4.32031">
        <ele>258.2</ele>
        <time>2024-03-17T10:52:46Z</time>
      </trkpt>
      <trkpt lat="50.02497" lon="4.32036">
        <ele>258</ele>
        <time>2024-03-17T10:52:47Z</time>
      </trkpt>
      <trkpt lat="50.02492" lon="4.32039">
        <ele>257.8</ele>
        <time>2024-03-17T10:52:48Z</time>
      </trkpt>
      <trkpt lat="50.02487" lon="4.32043">
        <ele>257.6</ele>
        <time>2024-03-17T10:52:49Z</time>
      </trkpt>
      <trkpt lat="50.02482" lon="4.32046">
        <ele>257.6</ele>
        <time>2024-03-17T10:52:50Z</time>
      </trkpt>
      <trkpt lat="50.02477" lon="4.32048">
        <ele>257.6</ele>
        <time>2024-03-17T10:52:51Z</time>
      </trkpt>
      <trkpt lat="50.02473" lon="4.32051">
        <ele>257.6</ele>
        <time>2024-03-17T10:52:52Z</time>
      </trkpt>
      <trkpt lat="50.02468" lon="4.32053">
        <ele>257.6</ele>
        <time>2024-03-17T10:52:53Z</time>
      </trkpt>
      <trkpt lat="50.02464" lon="4.32055">
        <ele>257.6</ele>
        <time>2024-03-17T10:52:54Z</time>
      </trkpt>
      <trkpt lat="50.0246" lon="4.32057">
        <ele>257.6</ele>
        <time>2024-03-17T10:52:55Z</time>
      </trkpt>
      <trkpt lat="50.02456" lon="4.32058">
        <ele>257.6</ele>
        <time>2024-03-17T10:52:56Z</time>
      </trkpt>
      <trkpt lat="50.02453" lon="4.3206">
        <ele>257.6</ele>
        <time>2024-03-17T10:52:57Z</time>
      </trkpt>
      <trkpt lat="50.02449" lon="4.32062">
        <ele>257.6</ele>
        <time>2024-03-17T10:52:58Z</time>
      </trkpt>
      <trkpt lat="50.02445" lon="4.32063">
        <ele>258</ele>
        <time>2024-03-17T10:52:59Z</time>
      </trkpt>
      <trkpt lat="50.02442" lon="4.32064">
        <ele>258.4</ele>
        <time>2024-03-17T10:53:00Z</time>
      </trkpt>
      <trkpt lat="50.02438" lon="4.32066">
        <ele>258.8</ele>
        <time>2024-03-17T10:53:01Z</time>
      </trkpt>
      <trkpt lat="50.02435" lon="4.32067">
        <ele>259</ele>
        <time>2024-03-17T10:53:02Z</time>
      </trkpt>
      <trkpt lat="50.02432" lon="4.32069">
        <ele>259.4</ele>
        <time>2024-03-17T10:53:03Z</time>
      </trkpt>
      <trkpt lat="50.02428" lon="4.3207">
        <ele>259.8</ele>
        <time>2024-03-17T10:53:04Z</time>
      </trkpt>
      <trkpt lat="50.02425" lon="4.32072">
        <ele>260</ele>
        <time>2024-03-17T10:53:05Z</time>
      </trkpt>
      <trkpt lat="50.02421" lon="4.32073">
        <ele>260.6</ele>
        <time>2024-03-17T10:53:06Z</time>
      </trkpt>
      <trkpt lat="50.02418" lon="4.32075">
        <ele>261</ele>
        <time>2024-03-17T10:53:07Z</time>
      </trkpt>
      <trkpt lat="50.02415" lon="4.32076">
        <ele>261</ele>
        <time>2024-03-17T10:53:08Z</time>
      </trkpt>
      <trkpt lat="50.02412" lon="4.32077">
        <ele>261.4</ele>
        <time>2024-03-17T10:53:09Z</time>
      </trkpt>
      <trkpt lat="50.02409" lon="4.32079">
        <ele>261.4</ele>
        <time>2024-03-17T10:53:10Z</time>
      </trkpt>
      <trkpt lat="50.02405" lon="4.32081">
        <ele>261.6</ele>
        <time>2024-03-17T10:53:11Z</time>
      </trkpt>
      <trkpt lat="50.02402" lon="4.32082">
        <ele>261.6</ele>
        <time>2024-03-17T10:53:12Z</time>
      </trkpt>
      <trkpt lat="50.02398" lon="4.32084">
        <ele>261.6</ele>
        <time>2024-03-17T10:53:13Z</time>
      </trkpt>
      <trkpt lat="50.02394" lon="4.32086">
        <ele>261.6</ele>
        <time>2024-03-17T10:53:14Z</time>
      </trkpt>
      <trkpt lat="50.02389" lon="4.32087">
        <ele>261.6</ele>
        <time>2024-03-17T10:53:15Z</time>
      </trkpt>
      <trkpt lat="50.02384" lon="4.3209">
        <ele>261.6</ele>
        <time>2024-03-17T10:53:16Z</time>
      </trkpt>
      <trkpt lat="50.02379" lon="4.32092">
        <ele>261.8</ele>
        <time>2024-03-17T10:53:17Z</time>
      </trkpt>
      <trkpt lat="50.02374" lon="4.32094">
        <ele>261.8</ele>
        <time>2024-03-17T10:53:18Z</time>
      </trkpt>
      <trkpt lat="50.02369" lon="4.32096">
        <ele>261.8</ele>
        <time>2024-03-17T10:53:19Z</time>
      </trkpt>
      <trkpt lat="50.02363" lon="4.32099">
        <ele>261.6</ele>
        <time>2024-03-17T10:53:20Z</time>
      </trkpt>
      <trkpt lat="50.02358" lon="4.32101">
        <ele>261.8</ele>
        <time>2024-03-17T10:53:21Z</time>
      </trkpt>
      <trkpt lat="50.02353" lon="4.32103">
        <ele>261.8</ele>
        <time>2024-03-17T10:53:22Z</time>
      </trkpt>
      <trkpt lat="50.02347" lon="4.32105">
        <ele>261.8</ele>
        <time>2024-03-17T10:53:23Z</time>
      </trkpt>
      <trkpt lat="50.02342" lon="4.32107">
        <ele>261.6</ele>
        <time>2024-03-17T10:53:24Z</time>
      </trkpt>
      <trkpt lat="50.02337" lon="4.32109">
        <ele>261.6</ele>
        <time>2024-03-17T10:53:25Z</time>
      </trkpt>
      <trkpt lat="50.02331" lon="4.32111">
        <ele>261.4</ele>
        <time>2024-03-17T10:53:26Z</time>
      </trkpt>
      <trkpt lat="50.02326" lon="4.32114">
        <ele>261.2</ele>
        <time>2024-03-17T10:53:27Z</time>
      </trkpt>
      <trkpt lat="50.02321" lon="4.32117">
        <ele>261.2</ele>
        <time>2024-03-17T10:53:28Z</time>
      </trkpt>
      <trkpt lat="50.02315" lon="4.32119">
        <ele>261</ele>
        <time>2024-03-17T10:53:29Z</time>
      </trkpt>
      <trkpt lat="50.0231" lon="4.32121">
        <ele>260.8</ele>
        <time>2024-03-17T10:53:30Z</time>
      </trkpt>
      <trkpt lat="50.02305" lon="4.32123">
        <ele>260.8</ele>
        <time>2024-03-17T10:53:31Z</time>
      </trkpt>
      <trkpt lat="50.023" lon="4.32124">
        <ele>260.4</ele>
        <time>2024-03-17T10:53:32Z</time>
      </trkpt>
      <trkpt lat="50.02297" lon="4.32123">
        <ele>259.8</ele>
        <time>2024-03-17T10:53:33Z</time>
      </trkpt>
      <trkpt lat="50.02294" lon="4.32122">
        <ele>259.4</ele>
        <time>2024-03-17T10:53:34Z</time>
      </trkpt>
      <trkpt lat="50.02291" lon="4.3212">
        <ele>259.2</ele>
        <time>2024-03-17T10:53:35Z</time>
      </trkpt>
      <trkpt lat="50.02289" lon="4.32119">
        <ele>259.2</ele>
        <time>2024-03-17T10:53:36Z</time>
      </trkpt>
      <trkpt lat="50.02288" lon="4.32118">
        <ele>259</ele>
        <time>2024-03-17T10:53:37Z</time>
      </trkpt>
      <trkpt lat="50.02286" lon="4.32121">
        <ele>259</ele>
        <time>2024-03-17T10:53:38Z</time>
      </trkpt>
      <trkpt lat="50.02285" lon="4.32125">
        <ele>259</ele>
        <time>2024-03-17T10:53:39Z</time>
      </trkpt>
      <trkpt lat="50.02285" lon="4.3213">
        <ele>259</ele>
        <time>2024-03-17T10:53:40Z</time>
      </trkpt>
      <trkpt lat="50.02286" lon="4.32136">
        <ele>259</ele>
        <time>2024-03-17T10:53:41Z</time>
      </trkpt>
      <trkpt lat="50.02287" lon="4.32144">
        <ele>259</ele>
        <time>2024-03-17T10:53:42Z</time>
      </trkpt>
      <trkpt lat="50.02289" lon="4.32151">
        <ele>259</ele>
        <time>2024-03-17T10:53:43Z</time>
      </trkpt>
      <trkpt lat="50.02291" lon="4.32159">
        <ele>259.4</ele>
        <time>2024-03-17T10:53:44Z</time>
      </trkpt>
      <trkpt lat="50.02293" lon="4.32167">
        <ele>259.4</ele>
        <time>2024-03-17T10:53:45Z</time>
      </trkpt>
      <trkpt lat="50.02295" lon="4.32175">
        <ele>259.6</ele>
        <time>2024-03-17T10:53:46Z</time>
      </trkpt>
      <trkpt lat="50.02297" lon="4.32183">
        <ele>259.8</ele>
        <time>2024-03-17T10:53:47Z</time>
      </trkpt>
      <trkpt lat="50.02298" lon="4.32191">
        <ele>259.8</ele>
        <time>2024-03-17T10:53:48Z</time>
      </trkpt>
      <trkpt lat="50.023" lon="4.322">
        <ele>259.6</ele>
        <time>2024-03-17T10:53:49Z</time>
      </trkpt>
      <trkpt lat="50.02301" lon="4.32208">
        <ele>259.6</ele>
        <time>2024-03-17T10:53:50Z</time>
      </trkpt>
      <trkpt lat="50.02303" lon="4.32216">
        <ele>260</ele>
        <time>2024-03-17T10:53:51Z</time>
      </trkpt>
      <trkpt lat="50.02305" lon="4.32224">
        <ele>260</ele>
        <time>2024-03-17T10:53:52Z</time>
      </trkpt>
      <trkpt lat="50.02306" lon="4.32232">
        <ele>260.2</ele>
        <time>2024-03-17T10:53:53Z</time>
      </trkpt>
      <trkpt lat="50.02308" lon="4.32239">
        <ele>260.4</ele>
        <time>2024-03-17T10:53:54Z</time>
      </trkpt>
      <trkpt lat="50.0231" lon="4.32246">
        <ele>260.4</ele>
        <time>2024-03-17T10:53:55Z</time>
      </trkpt>
      <trkpt lat="50.02311" lon="4.32253">
        <ele>260.4</ele>
        <time>2024-03-17T10:53:56Z</time>
      </trkpt>
      <trkpt lat="50.02313" lon="4.32259">
        <ele>260.2</ele>
        <time>2024-03-17T10:53:57Z</time>
      </trkpt>
      <trkpt lat="50.02314" lon="4.32264">
        <ele>260.4</ele>
        <time>2024-03-17T10:53:58Z</time>
      </trkpt>
      <trkpt lat="50.02316" lon="4.3227">
        <ele>260.4</ele>
        <time>2024-03-17T10:53:59Z</time>
      </trkpt>
      <trkpt lat="50.02318" lon="4.32275">
        <ele>260.4</ele>
        <time>2024-03-17T10:54:00Z</time>
      </trkpt>
      <trkpt lat="50.02319" lon="4.3228">
        <ele>260.4</ele>
        <time>2024-03-17T10:54:01Z</time>
      </trkpt>
      <trkpt lat="50.02321" lon="4.32285">
        <ele>260.4</ele>
        <time>2024-03-17T10:54:02Z</time>
      </trkpt>
      <trkpt lat="50.02323" lon="4.3229">
        <ele>260.4</ele>
        <time>2024-03-17T10:54:03Z</time>
      </trkpt>
      <trkpt lat="50.02324" lon="4.32296">
        <ele>260.6</ele>
        <time>2024-03-17T10:54:04Z</time>
      </trkpt>
      <trkpt lat="50.02324" lon="4.32302">
        <ele>260.8</ele>
        <time>2024-03-17T10:54:05Z</time>
      </trkpt>
      <trkpt lat="50.02324" lon="4.32307">
        <ele>261.2</ele>
        <time>2024-03-17T10:54:06Z</time>
      </trkpt>
      <trkpt lat="50.02324" lon="4.32313">
        <ele>261.8</ele>
        <time>2024-03-17T10:54:07Z</time>
      </trkpt>
      <trkpt lat="50.02324" lon="4.32319">
        <ele>261.8</ele>
        <time>2024-03-17T10:54:08Z</time>
      </trkpt>
      <trkpt lat="50.02324" lon="4.32324">
        <ele>262</ele>
        <time>2024-03-17T10:54:09Z</time>
      </trkpt>
      <trkpt lat="50.02324" lon="4.3233">
        <ele>262.6</ele>
        <time>2024-03-17T10:54:10Z</time>
      </trkpt>
      <trkpt lat="50.02323" lon="4.32335">
        <ele>262.6</ele>
        <time>2024-03-17T10:54:11Z</time>
      </trkpt>
      <trkpt lat="50.02321" lon="4.32341">
        <ele>262.8</ele>
        <time>2024-03-17T10:54:12Z</time>
      </trkpt>
      <trkpt lat="50.0232" lon="4.32345">
        <ele>263.6</ele>
        <time>2024-03-17T10:54:13Z</time>
      </trkpt>
      <trkpt lat="50.02318" lon="4.3235">
        <ele>263.8</ele>
        <time>2024-03-17T10:54:14Z</time>
      </trkpt>
      <trkpt lat="50.02316" lon="4.32354">
        <ele>264</ele>
        <time>2024-03-17T10:54:15Z</time>
      </trkpt>
      <trkpt lat="50.02313" lon="4.32358">
        <ele>264.2</ele>
        <time>2024-03-17T10:54:16Z</time>
      </trkpt>
      <trkpt lat="50.0231" lon="4.32361">
        <ele>264.4</ele>
        <time>2024-03-17T10:54:17Z</time>
      </trkpt>
      <trkpt lat="50.02307" lon="4.32365">
        <ele>264.4</ele>
        <time>2024-03-17T10:54:18Z</time>
      </trkpt>
      <trkpt lat="50.02304" lon="4.32368">
        <ele>264.4</ele>
        <time>2024-03-17T10:54:19Z</time>
      </trkpt>
      <trkpt lat="50.02301" lon="4.3237">
        <ele>264.6</ele>
        <time>2024-03-17T10:54:20Z</time>
      </trkpt>
      <trkpt lat="50.02298" lon="4.32372">
        <ele>264.6</ele>
        <time>2024-03-17T10:54:21Z</time>
      </trkpt>
      <trkpt lat="50.02295" lon="4.32373">
        <ele>264.8</ele>
        <time>2024-03-17T10:54:22Z</time>
      </trkpt>
      <trkpt lat="50.02291" lon="4.32373">
        <ele>265</ele>
        <time>2024-03-17T10:54:23Z</time>
      </trkpt>
      <trkpt lat="50.02287" lon="4.32373">
        <ele>265.4</ele>
        <time>2024-03-17T10:54:24Z</time>
      </trkpt>
      <trkpt lat="50.02284" lon="4.32373">
        <ele>265.8</ele>
        <time>2024-03-17T10:54:25Z</time>
      </trkpt>
      <trkpt lat="50.02281" lon="4.32372">
        <ele>266</ele>
        <time>2024-03-17T10:54:26Z</time>
      </trkpt>
      <trkpt lat="50.02278" lon="4.32372">
        <ele>266.2</ele>
        <time>2024-03-17T10:54:27Z</time>
      </trkpt>
      <trkpt lat="50.02276" lon="4.32371">
        <ele>266.2</ele>
        <time>2024-03-17T10:54:28Z</time>
      </trkpt>
      <trkpt lat="50.02273" lon="4.32369">
        <ele>266.4</ele>
        <time>2024-03-17T10:54:29Z</time>
      </trkpt>
      <trkpt lat="50.0227" lon="4.32368">
        <ele>266.4</ele>
        <time>2024-03-17T10:54:30Z</time>
      </trkpt>
      <trkpt lat="50.02268" lon="4.32366">
        <ele>266.6</ele>
        <time>2024-03-17T10:54:31Z</time>
      </trkpt>
      <trkpt lat="50.02265" lon="4.32365">
        <ele>266.6</ele>
        <time>2024-03-17T10:54:32Z</time>
      </trkpt>
      <trkpt lat="50.02263" lon="4.32362">
        <ele>266.8</ele>
        <time>2024-03-17T10:54:33Z</time>
      </trkpt>
      <trkpt lat="50.02262" lon="4.32359">
        <ele>266.8</ele>
        <time>2024-03-17T10:54:34Z</time>
      </trkpt>
      <trkpt lat="50.0226" lon="4.32356">
        <ele>267</ele>
        <time>2024-03-17T10:54:35Z</time>
      </trkpt>
      <trkpt lat="50.0226" lon="4.32352">
        <ele>267</ele>
        <time>2024-03-17T10:54:36Z</time>
      </trkpt>
      <trkpt lat="50.02261" lon="4.32348">
        <ele>267.2</ele>
        <time>2024-03-17T10:54:37Z</time>
      </trkpt>
      <trkpt lat="50.02262" lon="4.32344">
        <ele>267.4</ele>
        <time>2024-03-17T10:54:38Z</time>
      </trkpt>
      <trkpt lat="50.02264" lon="4.32338">
        <ele>267.6</ele>
        <time>2024-03-17T10:54:39Z</time>
      </trkpt>
      <trkpt lat="50.02265" lon="4.32332">
        <ele>267.6</ele>
        <time>2024-03-17T10:54:40Z</time>
      </trkpt>
      <trkpt lat="50.02267" lon="4.32325">
        <ele>267.8</ele>
        <time>2024-03-17T10:54:41Z</time>
      </trkpt>
      <trkpt lat="50.02268" lon="4.32317">
        <ele>267.6</ele>
        <time>2024-03-17T10:54:42Z</time>
      </trkpt>
      <trkpt lat="50.02268" lon="4.32308">
        <ele>267.6</ele>
        <time>2024-03-17T10:54:43Z</time>
      </trkpt>
      <trkpt lat="50.02267" lon="4.32299">
        <ele>267.8</ele>
        <time>2024-03-17T10:54:44Z</time>
      </trkpt>
      <trkpt lat="50.02266" lon="4.32289">
        <ele>267.8</ele>
        <time>2024-03-17T10:54:45Z</time>
      </trkpt>
      <trkpt lat="50.02264" lon="4.3228">
        <ele>267.8</ele>
        <time>2024-03-17T10:54:46Z</time>
      </trkpt>
      <trkpt lat="50.02261" lon="4.3227">
        <ele>267.8</ele>
        <time>2024-03-17T10:54:47Z</time>
      </trkpt>
      <trkpt lat="50.02258" lon="4.32261">
        <ele>267.8</ele>
        <time>2024-03-17T10:54:48Z</time>
      </trkpt>
      <trkpt lat="50.02254" lon="4.32252">
        <ele>267.6</ele>
        <time>2024-03-17T10:54:49Z</time>
      </trkpt>
      <trkpt lat="50.02251" lon="4.32242">
        <ele>267.8</ele>
        <time>2024-03-17T10:54:50Z</time>
      </trkpt>
      <trkpt lat="50.02248" lon="4.32233">
        <ele>267.4</ele>
        <time>2024-03-17T10:54:51Z</time>
      </trkpt>
      <trkpt lat="50.02245" lon="4.32223">
        <ele>267.2</ele>
        <time>2024-03-17T10:54:52Z</time>
      </trkpt>
      <trkpt lat="50.02242" lon="4.32213">
        <ele>266.8</ele>
        <time>2024-03-17T10:54:53Z</time>
      </trkpt>
      <trkpt lat="50.02239" lon="4.32202">
        <ele>266</ele>
        <time>2024-03-17T10:54:54Z</time>
      </trkpt>
      <trkpt lat="50.02237" lon="4.32191">
        <ele>264.6</ele>
        <time>2024-03-17T10:54:55Z</time>
      </trkpt>
      <trkpt lat="50.02237" lon="4.32178">
        <ele>263.8</ele>
        <time>2024-03-17T10:54:56Z</time>
      </trkpt>
      <trkpt lat="50.02238" lon="4.32167">
        <ele>263.4</ele>
        <time>2024-03-17T10:54:57Z</time>
      </trkpt>
      <trkpt lat="50.02241" lon="4.32158">
        <ele>262.6</ele>
        <time>2024-03-17T10:54:58Z</time>
      </trkpt>
      <trkpt lat="50.02245" lon="4.32151">
        <ele>262.2</ele>
        <time>2024-03-17T10:54:59Z</time>
      </trkpt>
      <trkpt lat="50.0225" lon="4.32147">
        <ele>261.4</ele>
        <time>2024-03-17T10:55:00Z</time>
      </trkpt>
      <trkpt lat="50.02255" lon="4.32144">
        <ele>260.8</ele>
        <time>2024-03-17T10:55:01Z</time>
      </trkpt>
      <trkpt lat="50.0226" lon="4.32143">
        <ele>260.4</ele>
        <time>2024-03-17T10:55:02Z</time>
      </trkpt>
      <trkpt lat="50.02264" lon="4.32141">
        <ele>260.4</ele>
        <time>2024-03-17T10:55:03Z</time>
      </trkpt>
      <trkpt lat="50.02268" lon="4.3214">
        <ele>260.4</ele>
        <time>2024-03-17T10:55:04Z</time>
      </trkpt>
      <trkpt lat="50.02271" lon="4.32138">
        <ele>260.4</ele>
        <time>2024-03-17T10:55:05Z</time>
      </trkpt>
      <trkpt lat="50.02275" lon="4.32137">
        <ele>260.2</ele>
        <time>2024-03-17T10:55:06Z</time>
      </trkpt>
      <trkpt lat="50.02278" lon="4.32136">
        <ele>260.2</ele>
        <time>2024-03-17T10:55:07Z</time>
      </trkpt>
      <trkpt lat="50.02282" lon="4.32135">
        <ele>260.4</ele>
        <time>2024-03-17T10:55:08Z</time>
      </trkpt>
      <trkpt lat="50.02286" lon="4.32134">
        <ele>260.2</ele>
        <time>2024-03-17T10:55:09Z</time>
      </trkpt>
      <trkpt lat="50.02288" lon="4.32131">
        <ele>260.2</ele>
        <time>2024-03-17T10:55:10Z</time>
      </trkpt>
      <trkpt lat="50.0229" lon="4.32128">
        <ele>260.2</ele>
        <time>2024-03-17T10:55:11Z</time>
      </trkpt>
      <trkpt lat="50.0229" lon="4.32123">
        <ele>260.6</ele>
        <time>2024-03-17T10:55:12Z</time>
      </trkpt>
    </trkseg>
  </trk>
</gpx>